<?xml version="1.0" encoding="UTF-8" standalone="no" ?>
<gpx xmlns="http://www.topografix.com/GPX/1/1" xmlns:xsi="http://www.w3.org/2001/XMLSchema-instance" xsi:schemaLocation="http://www.topografix.com/GPX/1/1 http://www.topografix.com/GPX/1/1/gpx.xsd" version="1.1" creator="VisuGPX - https://www.visugpx.com">
  <metadata>
    <name>Rando Sur Le Beaucet 2</name>
    <desc><![CDATA[Second tracé, à revoir sur la boucle finale, la varap c\'est pas top !!!]]></desc>
  </metadata>
  <trk>
    <name><![CDATA[gpx(1)]]></name>
    <trkseg>
      <trkpt lat="43.98387" lon="5.1172">
        <ele>271.4</ele>
        <time>2013-03-07T12:28:52Z</time>
      </trkpt>
      <trkpt lat="43.98387" lon="5.11718">
        <ele>274.6</ele>
        <time>2013-03-07T12:29:08Z</time>
      </trkpt>
      <trkpt lat="43.98382" lon="5.11709">
        <ele>275.7</ele>
        <time>2013-03-07T12:29:09Z</time>
      </trkpt>
      <trkpt lat="43.98379" lon="5.11706">
        <ele>275</ele>
        <time>2013-03-07T12:29:10Z</time>
      </trkpt>
      <trkpt lat="43.98378" lon="5.11705">
        <ele>276.5</ele>
        <time>2013-03-07T12:29:11Z</time>
      </trkpt>
      <trkpt lat="43.98375" lon="5.11704">
        <ele>277.7</ele>
        <time>2013-03-07T12:29:13Z</time>
      </trkpt>
      <trkpt lat="43.98372" lon="5.11703">
        <ele>280.2</ele>
        <time>2013-03-07T12:29:14Z</time>
      </trkpt>
      <trkpt lat="43.98369" lon="5.11703">
        <ele>283.4</ele>
        <time>2013-03-07T12:29:15Z</time>
      </trkpt>
      <trkpt lat="43.98366" lon="5.117">
        <ele>282.6</ele>
        <time>2013-03-07T12:29:16Z</time>
      </trkpt>
      <trkpt lat="43.98363" lon="5.11697">
        <ele>282.3</ele>
        <time>2013-03-07T12:29:17Z</time>
      </trkpt>
      <trkpt lat="43.9836" lon="5.11696">
        <ele>280</ele>
        <time>2013-03-07T12:29:18Z</time>
      </trkpt>
      <trkpt lat="43.98357" lon="5.11693">
        <ele>281.4</ele>
        <time>2013-03-07T12:29:19Z</time>
      </trkpt>
      <trkpt lat="43.98354" lon="5.11691">
        <ele>281.3</ele>
        <time>2013-03-07T12:29:20Z</time>
      </trkpt>
      <trkpt lat="43.9835" lon="5.11689">
        <ele>281.6</ele>
        <time>2013-03-07T12:29:21Z</time>
      </trkpt>
      <trkpt lat="43.98347" lon="5.11685">
        <ele>281.6</ele>
        <time>2013-03-07T12:29:22Z</time>
      </trkpt>
      <trkpt lat="43.98344" lon="5.11682">
        <ele>281.1</ele>
        <time>2013-03-07T12:29:23Z</time>
      </trkpt>
      <trkpt lat="43.9834" lon="5.11679">
        <ele>281.5</ele>
        <time>2013-03-07T12:29:24Z</time>
      </trkpt>
      <trkpt lat="43.98338" lon="5.11676">
        <ele>281.8</ele>
        <time>2013-03-07T12:29:25Z</time>
      </trkpt>
      <trkpt lat="43.98335" lon="5.11673">
        <ele>281.8</ele>
        <time>2013-03-07T12:29:26Z</time>
      </trkpt>
      <trkpt lat="43.98332" lon="5.1167">
        <ele>282.1</ele>
        <time>2013-03-07T12:29:27Z</time>
      </trkpt>
      <trkpt lat="43.9833" lon="5.11666">
        <ele>282.6</ele>
        <time>2013-03-07T12:29:28Z</time>
      </trkpt>
      <trkpt lat="43.98327" lon="5.11663">
        <ele>282</ele>
        <time>2013-03-07T12:29:29Z</time>
      </trkpt>
      <trkpt lat="43.98325" lon="5.1166">
        <ele>282.1</ele>
        <time>2013-03-07T12:29:30Z</time>
      </trkpt>
      <trkpt lat="43.98323" lon="5.11655">
        <ele>282.7</ele>
        <time>2013-03-07T12:29:31Z</time>
      </trkpt>
      <trkpt lat="43.98321" lon="5.11651">
        <ele>282.4</ele>
        <time>2013-03-07T12:29:32Z</time>
      </trkpt>
      <trkpt lat="43.98319" lon="5.11647">
        <ele>282.2</ele>
        <time>2013-03-07T12:29:33Z</time>
      </trkpt>
      <trkpt lat="43.98317" lon="5.11642">
        <ele>281.7</ele>
        <time>2013-03-07T12:29:34Z</time>
      </trkpt>
      <trkpt lat="43.98316" lon="5.11637">
        <ele>281.3</ele>
        <time>2013-03-07T12:29:35Z</time>
      </trkpt>
      <trkpt lat="43.98314" lon="5.11634">
        <ele>281</ele>
        <time>2013-03-07T12:29:36Z</time>
      </trkpt>
      <trkpt lat="43.98312" lon="5.11631">
        <ele>280.8</ele>
        <time>2013-03-07T12:29:37Z</time>
      </trkpt>
      <trkpt lat="43.98311" lon="5.11626">
        <ele>282.2</ele>
        <time>2013-03-07T12:29:38Z</time>
      </trkpt>
      <trkpt lat="43.98309" lon="5.11623">
        <ele>282.1</ele>
        <time>2013-03-07T12:29:39Z</time>
      </trkpt>
      <trkpt lat="43.98307" lon="5.11619">
        <ele>284.3</ele>
        <time>2013-03-07T12:29:40Z</time>
      </trkpt>
      <trkpt lat="43.98304" lon="5.11616">
        <ele>284.9</ele>
        <time>2013-03-07T12:29:41Z</time>
      </trkpt>
      <trkpt lat="43.98302" lon="5.11613">
        <ele>285.4</ele>
        <time>2013-03-07T12:29:42Z</time>
      </trkpt>
      <trkpt lat="43.983" lon="5.1161">
        <ele>286.3</ele>
        <time>2013-03-07T12:29:43Z</time>
      </trkpt>
      <trkpt lat="43.98298" lon="5.11608">
        <ele>287.4</ele>
        <time>2013-03-07T12:29:44Z</time>
      </trkpt>
      <trkpt lat="43.98296" lon="5.11605">
        <ele>286.8</ele>
        <time>2013-03-07T12:29:45Z</time>
      </trkpt>
      <trkpt lat="43.98291" lon="5.11604">
        <ele>286.3</ele>
        <time>2013-03-07T12:29:46Z</time>
      </trkpt>
      <trkpt lat="43.98288" lon="5.11601">
        <ele>285.9</ele>
        <time>2013-03-07T12:29:47Z</time>
      </trkpt>
      <trkpt lat="43.98285" lon="5.11599">
        <ele>286.3</ele>
        <time>2013-03-07T12:29:48Z</time>
      </trkpt>
      <trkpt lat="43.98282" lon="5.11596">
        <ele>286.3</ele>
        <time>2013-03-07T12:29:49Z</time>
      </trkpt>
      <trkpt lat="43.98279" lon="5.11593">
        <ele>286.6</ele>
        <time>2013-03-07T12:29:50Z</time>
      </trkpt>
      <trkpt lat="43.98276" lon="5.11588">
        <ele>285.8</ele>
        <time>2013-03-07T12:29:51Z</time>
      </trkpt>
      <trkpt lat="43.98273" lon="5.11585">
        <ele>285.3</ele>
        <time>2013-03-07T12:29:52Z</time>
      </trkpt>
      <trkpt lat="43.98269" lon="5.11581">
        <ele>285.2</ele>
        <time>2013-03-07T12:29:53Z</time>
      </trkpt>
      <trkpt lat="43.98267" lon="5.11577">
        <ele>284.8</ele>
        <time>2013-03-07T12:29:54Z</time>
      </trkpt>
      <trkpt lat="43.98265" lon="5.11569">
        <ele>284.4</ele>
        <time>2013-03-07T12:29:55Z</time>
      </trkpt>
      <trkpt lat="43.98262" lon="5.11563">
        <ele>284.4</ele>
        <time>2013-03-07T12:29:56Z</time>
      </trkpt>
      <trkpt lat="43.9826" lon="5.11557">
        <ele>284.6</ele>
        <time>2013-03-07T12:29:57Z</time>
      </trkpt>
      <trkpt lat="43.98257" lon="5.11551">
        <ele>284</ele>
        <time>2013-03-07T12:29:58Z</time>
      </trkpt>
      <trkpt lat="43.98254" lon="5.11544">
        <ele>283.9</ele>
        <time>2013-03-07T12:29:59Z</time>
      </trkpt>
      <trkpt lat="43.9825" lon="5.11538">
        <ele>283.3</ele>
        <time>2013-03-07T12:30:00Z</time>
      </trkpt>
      <trkpt lat="43.98246" lon="5.11533">
        <ele>283.6</ele>
        <time>2013-03-07T12:30:01Z</time>
      </trkpt>
      <trkpt lat="43.98242" lon="5.11529">
        <ele>284</ele>
        <time>2013-03-07T12:30:02Z</time>
      </trkpt>
      <trkpt lat="43.98237" lon="5.11525">
        <ele>284.2</ele>
        <time>2013-03-07T12:30:03Z</time>
      </trkpt>
      <trkpt lat="43.98233" lon="5.11521">
        <ele>284.2</ele>
        <time>2013-03-07T12:30:04Z</time>
      </trkpt>
      <trkpt lat="43.98228" lon="5.1152">
        <ele>284.4</ele>
        <time>2013-03-07T12:30:05Z</time>
      </trkpt>
      <trkpt lat="43.98224" lon="5.11519">
        <ele>284.6</ele>
        <time>2013-03-07T12:30:06Z</time>
      </trkpt>
      <trkpt lat="43.98219" lon="5.1152">
        <ele>284.3</ele>
        <time>2013-03-07T12:30:07Z</time>
      </trkpt>
      <trkpt lat="43.98213" lon="5.11517">
        <ele>287</ele>
        <time>2013-03-07T12:30:08Z</time>
      </trkpt>
      <trkpt lat="43.98209" lon="5.11516">
        <ele>287.8</ele>
        <time>2013-03-07T12:30:09Z</time>
      </trkpt>
      <trkpt lat="43.98204" lon="5.11515">
        <ele>288.5</ele>
        <time>2013-03-07T12:30:10Z</time>
      </trkpt>
      <trkpt lat="43.982" lon="5.11514">
        <ele>288.9</ele>
        <time>2013-03-07T12:30:11Z</time>
      </trkpt>
      <trkpt lat="43.98195" lon="5.11513">
        <ele>289.2</ele>
        <time>2013-03-07T12:30:12Z</time>
      </trkpt>
      <trkpt lat="43.9819" lon="5.11512">
        <ele>289.4</ele>
        <time>2013-03-07T12:30:13Z</time>
      </trkpt>
      <trkpt lat="43.98185" lon="5.11511">
        <ele>289.5</ele>
        <time>2013-03-07T12:30:14Z</time>
      </trkpt>
      <trkpt lat="43.9818" lon="5.11509">
        <ele>289.5</ele>
        <time>2013-03-07T12:30:15Z</time>
      </trkpt>
      <trkpt lat="43.98174" lon="5.11506">
        <ele>288.7</ele>
        <time>2013-03-07T12:30:16Z</time>
      </trkpt>
      <trkpt lat="43.98169" lon="5.11505">
        <ele>289.2</ele>
        <time>2013-03-07T12:30:17Z</time>
      </trkpt>
      <trkpt lat="43.98164" lon="5.11502">
        <ele>289.4</ele>
        <time>2013-03-07T12:30:18Z</time>
      </trkpt>
      <trkpt lat="43.98159" lon="5.115">
        <ele>289.2</ele>
        <time>2013-03-07T12:30:19Z</time>
      </trkpt>
      <trkpt lat="43.98154" lon="5.11496">
        <ele>289.1</ele>
        <time>2013-03-07T12:30:20Z</time>
      </trkpt>
      <trkpt lat="43.98149" lon="5.11494">
        <ele>289.3</ele>
        <time>2013-03-07T12:30:21Z</time>
      </trkpt>
      <trkpt lat="43.98145" lon="5.1149">
        <ele>288.9</ele>
        <time>2013-03-07T12:30:22Z</time>
      </trkpt>
      <trkpt lat="43.98141" lon="5.11488">
        <ele>288.2</ele>
        <time>2013-03-07T12:30:23Z</time>
      </trkpt>
      <trkpt lat="43.98136" lon="5.11487">
        <ele>288.1</ele>
        <time>2013-03-07T12:30:24Z</time>
      </trkpt>
      <trkpt lat="43.98131" lon="5.11487">
        <ele>288.1</ele>
        <time>2013-03-07T12:30:25Z</time>
      </trkpt>
      <trkpt lat="43.98128" lon="5.11485">
        <ele>288.1</ele>
        <time>2013-03-07T12:30:26Z</time>
      </trkpt>
      <trkpt lat="43.98126" lon="5.11484">
        <ele>288.3</ele>
        <time>2013-03-07T12:30:27Z</time>
      </trkpt>
      <trkpt lat="43.98124" lon="5.11483">
        <ele>288.9</ele>
        <time>2013-03-07T12:30:28Z</time>
      </trkpt>
      <trkpt lat="43.9812" lon="5.11483">
        <ele>288.9</ele>
        <time>2013-03-07T12:30:29Z</time>
      </trkpt>
      <trkpt lat="43.98116" lon="5.11482">
        <ele>289.1</ele>
        <time>2013-03-07T12:30:31Z</time>
      </trkpt>
      <trkpt lat="43.98112" lon="5.11482">
        <ele>288.6</ele>
        <time>2013-03-07T12:30:32Z</time>
      </trkpt>
      <trkpt lat="43.98108" lon="5.11483">
        <ele>288.9</ele>
        <time>2013-03-07T12:30:33Z</time>
      </trkpt>
      <trkpt lat="43.98101" lon="5.11485">
        <ele>289.9</ele>
        <time>2013-03-07T12:30:34Z</time>
      </trkpt>
      <trkpt lat="43.98096" lon="5.11485">
        <ele>291</ele>
        <time>2013-03-07T12:30:35Z</time>
      </trkpt>
      <trkpt lat="43.9809" lon="5.11485">
        <ele>292.1</ele>
        <time>2013-03-07T12:30:36Z</time>
      </trkpt>
      <trkpt lat="43.98085" lon="5.11486">
        <ele>292.3</ele>
        <time>2013-03-07T12:30:37Z</time>
      </trkpt>
      <trkpt lat="43.9808" lon="5.11486">
        <ele>292.6</ele>
        <time>2013-03-07T12:30:38Z</time>
      </trkpt>
      <trkpt lat="43.98075" lon="5.11486">
        <ele>293.1</ele>
        <time>2013-03-07T12:30:39Z</time>
      </trkpt>
      <trkpt lat="43.9807" lon="5.11486">
        <ele>293.9</ele>
        <time>2013-03-07T12:30:40Z</time>
      </trkpt>
      <trkpt lat="43.98066" lon="5.11486">
        <ele>294.3</ele>
        <time>2013-03-07T12:30:41Z</time>
      </trkpt>
      <trkpt lat="43.98062" lon="5.11486">
        <ele>294.6</ele>
        <time>2013-03-07T12:30:42Z</time>
      </trkpt>
      <trkpt lat="43.9806" lon="5.11487">
        <ele>294.7</ele>
        <time>2013-03-07T12:30:43Z</time>
      </trkpt>
      <trkpt lat="43.98056" lon="5.11488">
        <ele>294.8</ele>
        <time>2013-03-07T12:30:44Z</time>
      </trkpt>
      <trkpt lat="43.98054" lon="5.11488">
        <ele>294.9</ele>
        <time>2013-03-07T12:30:45Z</time>
      </trkpt>
      <trkpt lat="43.98051" lon="5.1149">
        <ele>295</ele>
        <time>2013-03-07T12:30:46Z</time>
      </trkpt>
      <trkpt lat="43.98046" lon="5.1149">
        <ele>298.6</ele>
        <time>2013-03-07T12:30:47Z</time>
      </trkpt>
      <trkpt lat="43.98043" lon="5.1149">
        <ele>298.8</ele>
        <time>2013-03-07T12:30:48Z</time>
      </trkpt>
      <trkpt lat="43.9804" lon="5.11489">
        <ele>299</ele>
        <time>2013-03-07T12:30:49Z</time>
      </trkpt>
      <trkpt lat="43.98038" lon="5.11489">
        <ele>298.8</ele>
        <time>2013-03-07T12:30:50Z</time>
      </trkpt>
      <trkpt lat="43.98036" lon="5.11489">
        <ele>299</ele>
        <time>2013-03-07T12:30:51Z</time>
      </trkpt>
      <trkpt lat="43.98034" lon="5.1149">
        <ele>299.2</ele>
        <time>2013-03-07T12:30:52Z</time>
      </trkpt>
      <trkpt lat="43.98031" lon="5.11491">
        <ele>299.5</ele>
        <time>2013-03-07T12:30:53Z</time>
      </trkpt>
      <trkpt lat="43.98028" lon="5.11491">
        <ele>299.6</ele>
        <time>2013-03-07T12:30:54Z</time>
      </trkpt>
      <trkpt lat="43.98026" lon="5.11492">
        <ele>300</ele>
        <time>2013-03-07T12:30:55Z</time>
      </trkpt>
      <trkpt lat="43.98024" lon="5.11494">
        <ele>300.1</ele>
        <time>2013-03-07T12:30:56Z</time>
      </trkpt>
      <trkpt lat="43.98021" lon="5.11495">
        <ele>299.8</ele>
        <time>2013-03-07T12:30:57Z</time>
      </trkpt>
      <trkpt lat="43.98017" lon="5.11497">
        <ele>299.4</ele>
        <time>2013-03-07T12:30:58Z</time>
      </trkpt>
      <trkpt lat="43.98014" lon="5.11497">
        <ele>299.4</ele>
        <time>2013-03-07T12:30:59Z</time>
      </trkpt>
      <trkpt lat="43.98011" lon="5.11497">
        <ele>299.2</ele>
        <time>2013-03-07T12:31:00Z</time>
      </trkpt>
      <trkpt lat="43.98006" lon="5.11498">
        <ele>300.5</ele>
        <time>2013-03-07T12:31:01Z</time>
      </trkpt>
      <trkpt lat="43.98002" lon="5.11499">
        <ele>299.3</ele>
        <time>2013-03-07T12:31:02Z</time>
      </trkpt>
      <trkpt lat="43.97998" lon="5.115">
        <ele>299.7</ele>
        <time>2013-03-07T12:31:03Z</time>
      </trkpt>
      <trkpt lat="43.97995" lon="5.11501">
        <ele>299.9</ele>
        <time>2013-03-07T12:31:04Z</time>
      </trkpt>
      <trkpt lat="43.97991" lon="5.11501">
        <ele>299.3</ele>
        <time>2013-03-07T12:31:05Z</time>
      </trkpt>
      <trkpt lat="43.97988" lon="5.11501">
        <ele>299.2</ele>
        <time>2013-03-07T12:31:06Z</time>
      </trkpt>
      <trkpt lat="43.97984" lon="5.11501">
        <ele>299.3</ele>
        <time>2013-03-07T12:31:07Z</time>
      </trkpt>
      <trkpt lat="43.97981" lon="5.11501">
        <ele>299.6</ele>
        <time>2013-03-07T12:31:08Z</time>
      </trkpt>
      <trkpt lat="43.97978" lon="5.115">
        <ele>300.8</ele>
        <time>2013-03-07T12:31:09Z</time>
      </trkpt>
      <trkpt lat="43.97974" lon="5.11499">
        <ele>301</ele>
        <time>2013-03-07T12:31:10Z</time>
      </trkpt>
      <trkpt lat="43.97971" lon="5.11499">
        <ele>301.2</ele>
        <time>2013-03-07T12:31:11Z</time>
      </trkpt>
      <trkpt lat="43.97967" lon="5.11499">
        <ele>302.7</ele>
        <time>2013-03-07T12:31:12Z</time>
      </trkpt>
      <trkpt lat="43.97964" lon="5.11499">
        <ele>302.6</ele>
        <time>2013-03-07T12:31:13Z</time>
      </trkpt>
      <trkpt lat="43.97961" lon="5.11499">
        <ele>303</ele>
        <time>2013-03-07T12:31:14Z</time>
      </trkpt>
      <trkpt lat="43.97958" lon="5.11499">
        <ele>303.2</ele>
        <time>2013-03-07T12:31:15Z</time>
      </trkpt>
      <trkpt lat="43.97955" lon="5.11498">
        <ele>307.8</ele>
        <time>2013-03-07T12:31:17Z</time>
      </trkpt>
      <trkpt lat="43.97953" lon="5.11498">
        <ele>308.8</ele>
        <time>2013-03-07T12:31:18Z</time>
      </trkpt>
      <trkpt lat="43.97951" lon="5.11498">
        <ele>309.8</ele>
        <time>2013-03-07T12:31:19Z</time>
      </trkpt>
      <trkpt lat="43.97946" lon="5.11499">
        <ele>307.9</ele>
        <time>2013-03-07T12:31:20Z</time>
      </trkpt>
      <trkpt lat="43.97944" lon="5.11499">
        <ele>308.6</ele>
        <time>2013-03-07T12:31:21Z</time>
      </trkpt>
      <trkpt lat="43.9794" lon="5.11499">
        <ele>306.9</ele>
        <time>2013-03-07T12:31:22Z</time>
      </trkpt>
      <trkpt lat="43.97937" lon="5.115">
        <ele>306.3</ele>
        <time>2013-03-07T12:31:23Z</time>
      </trkpt>
      <trkpt lat="43.97934" lon="5.115">
        <ele>308.3</ele>
        <time>2013-03-07T12:31:24Z</time>
      </trkpt>
      <trkpt lat="43.97932" lon="5.11501">
        <ele>309.4</ele>
        <time>2013-03-07T12:31:25Z</time>
      </trkpt>
      <trkpt lat="43.9793" lon="5.115">
        <ele>310.9</ele>
        <time>2013-03-07T12:31:26Z</time>
      </trkpt>
      <trkpt lat="43.97926" lon="5.115">
        <ele>312.9</ele>
        <time>2013-03-07T12:31:28Z</time>
      </trkpt>
      <trkpt lat="43.97923" lon="5.11501">
        <ele>313</ele>
        <time>2013-03-07T12:31:29Z</time>
      </trkpt>
      <trkpt lat="43.9792" lon="5.11502">
        <ele>313.1</ele>
        <time>2013-03-07T12:31:30Z</time>
      </trkpt>
      <trkpt lat="43.97917" lon="5.11503">
        <ele>312.2</ele>
        <time>2013-03-07T12:31:31Z</time>
      </trkpt>
      <trkpt lat="43.97913" lon="5.11504">
        <ele>312</ele>
        <time>2013-03-07T12:31:32Z</time>
      </trkpt>
      <trkpt lat="43.97911" lon="5.11505">
        <ele>312.6</ele>
        <time>2013-03-07T12:31:33Z</time>
      </trkpt>
      <trkpt lat="43.97908" lon="5.11505">
        <ele>312.7</ele>
        <time>2013-03-07T12:31:34Z</time>
      </trkpt>
      <trkpt lat="43.97906" lon="5.11506">
        <ele>313</ele>
        <time>2013-03-07T12:31:35Z</time>
      </trkpt>
      <trkpt lat="43.97901" lon="5.11507">
        <ele>313.2</ele>
        <time>2013-03-07T12:31:37Z</time>
      </trkpt>
      <trkpt lat="43.97899" lon="5.11509">
        <ele>313.4</ele>
        <time>2013-03-07T12:31:38Z</time>
      </trkpt>
      <trkpt lat="43.97897" lon="5.1151">
        <ele>313.5</ele>
        <time>2013-03-07T12:31:39Z</time>
      </trkpt>
      <trkpt lat="43.97893" lon="5.11511">
        <ele>315.3</ele>
        <time>2013-03-07T12:31:40Z</time>
      </trkpt>
      <trkpt lat="43.97889" lon="5.11512">
        <ele>316.1</ele>
        <time>2013-03-07T12:31:41Z</time>
      </trkpt>
      <trkpt lat="43.97886" lon="5.11514">
        <ele>315.4</ele>
        <time>2013-03-07T12:31:42Z</time>
      </trkpt>
      <trkpt lat="43.97883" lon="5.11516">
        <ele>315.5</ele>
        <time>2013-03-07T12:31:43Z</time>
      </trkpt>
      <trkpt lat="43.9788" lon="5.11518">
        <ele>315.7</ele>
        <time>2013-03-07T12:31:44Z</time>
      </trkpt>
      <trkpt lat="43.97877" lon="5.1152">
        <ele>315.5</ele>
        <time>2013-03-07T12:31:45Z</time>
      </trkpt>
      <trkpt lat="43.97874" lon="5.11523">
        <ele>315</ele>
        <time>2013-03-07T12:31:46Z</time>
      </trkpt>
      <trkpt lat="43.97871" lon="5.11524">
        <ele>315.5</ele>
        <time>2013-03-07T12:31:47Z</time>
      </trkpt>
      <trkpt lat="43.97869" lon="5.11525">
        <ele>315.9</ele>
        <time>2013-03-07T12:31:48Z</time>
      </trkpt>
      <trkpt lat="43.97866" lon="5.11526">
        <ele>316.3</ele>
        <time>2013-03-07T12:31:49Z</time>
      </trkpt>
      <trkpt lat="43.97865" lon="5.11529">
        <ele>316.7</ele>
        <time>2013-03-07T12:31:50Z</time>
      </trkpt>
      <trkpt lat="43.97864" lon="5.11528">
        <ele>317</ele>
        <time>2013-03-07T12:31:51Z</time>
      </trkpt>
      <trkpt lat="43.97862" lon="5.11523">
        <ele>318.2</ele>
        <time>2013-03-07T12:31:52Z</time>
      </trkpt>
      <trkpt lat="43.97857" lon="5.11518">
        <ele>321.4</ele>
        <time>2013-03-07T12:31:53Z</time>
      </trkpt>
      <trkpt lat="43.97856" lon="5.11525">
        <ele>324.5</ele>
        <time>2013-03-07T12:31:54Z</time>
      </trkpt>
      <trkpt lat="43.97849" lon="5.11534">
        <ele>319.8</ele>
        <time>2013-03-07T12:31:55Z</time>
      </trkpt>
      <trkpt lat="43.97846" lon="5.11534">
        <ele>320</ele>
        <time>2013-03-07T12:31:56Z</time>
      </trkpt>
      <trkpt lat="43.97843" lon="5.11534">
        <ele>320.1</ele>
        <time>2013-03-07T12:31:57Z</time>
      </trkpt>
      <trkpt lat="43.9784" lon="5.11534">
        <ele>319.2</ele>
        <time>2013-03-07T12:31:58Z</time>
      </trkpt>
      <trkpt lat="43.97838" lon="5.11534">
        <ele>318.5</ele>
        <time>2013-03-07T12:31:59Z</time>
      </trkpt>
      <trkpt lat="43.97833" lon="5.1153">
        <ele>317.7</ele>
        <time>2013-03-07T12:32:00Z</time>
      </trkpt>
      <trkpt lat="43.97831" lon="5.1153">
        <ele>319.5</ele>
        <time>2013-03-07T12:32:02Z</time>
      </trkpt>
      <trkpt lat="43.97828" lon="5.1153">
        <ele>320.2</ele>
        <time>2013-03-07T12:32:03Z</time>
      </trkpt>
      <trkpt lat="43.97825" lon="5.11529">
        <ele>321.2</ele>
        <time>2013-03-07T12:32:04Z</time>
      </trkpt>
      <trkpt lat="43.97822" lon="5.11529">
        <ele>321.3</ele>
        <time>2013-03-07T12:32:05Z</time>
      </trkpt>
      <trkpt lat="43.9782" lon="5.11528">
        <ele>322.1</ele>
        <time>2013-03-07T12:32:07Z</time>
      </trkpt>
      <trkpt lat="43.97818" lon="5.11526">
        <ele>322.5</ele>
        <time>2013-03-07T12:32:08Z</time>
      </trkpt>
      <trkpt lat="43.97814" lon="5.11525">
        <ele>319</ele>
        <time>2013-03-07T12:32:11Z</time>
      </trkpt>
      <trkpt lat="43.97813" lon="5.11524">
        <ele>321.5</ele>
        <time>2013-03-07T12:32:12Z</time>
      </trkpt>
      <trkpt lat="43.9781" lon="5.11522">
        <ele>322.3</ele>
        <time>2013-03-07T12:32:14Z</time>
      </trkpt>
      <trkpt lat="43.97807" lon="5.11522">
        <ele>321.9</ele>
        <time>2013-03-07T12:32:15Z</time>
      </trkpt>
      <trkpt lat="43.97803" lon="5.11522">
        <ele>321.9</ele>
        <time>2013-03-07T12:32:16Z</time>
      </trkpt>
      <trkpt lat="43.97801" lon="5.11523">
        <ele>321.8</ele>
        <time>2013-03-07T12:32:17Z</time>
      </trkpt>
      <trkpt lat="43.97798" lon="5.11522">
        <ele>327</ele>
        <time>2013-03-07T12:32:19Z</time>
      </trkpt>
      <trkpt lat="43.97794" lon="5.11523">
        <ele>325.2</ele>
        <time>2013-03-07T12:32:20Z</time>
      </trkpt>
      <trkpt lat="43.97792" lon="5.11523">
        <ele>325.2</ele>
        <time>2013-03-07T12:32:21Z</time>
      </trkpt>
      <trkpt lat="43.97789" lon="5.11522">
        <ele>324.6</ele>
        <time>2013-03-07T12:32:22Z</time>
      </trkpt>
      <trkpt lat="43.97787" lon="5.11523">
        <ele>326.1</ele>
        <time>2013-03-07T12:32:23Z</time>
      </trkpt>
      <trkpt lat="43.97784" lon="5.11522">
        <ele>326.6</ele>
        <time>2013-03-07T12:32:24Z</time>
      </trkpt>
      <trkpt lat="43.9778" lon="5.11522">
        <ele>326.9</ele>
        <time>2013-03-07T12:32:26Z</time>
      </trkpt>
      <trkpt lat="43.97779" lon="5.11522">
        <ele>326.9</ele>
        <time>2013-03-07T12:32:27Z</time>
      </trkpt>
      <trkpt lat="43.97774" lon="5.11521">
        <ele>326.5</ele>
        <time>2013-03-07T12:32:30Z</time>
      </trkpt>
      <trkpt lat="43.97773" lon="5.11519">
        <ele>329.1</ele>
        <time>2013-03-07T12:32:31Z</time>
      </trkpt>
      <trkpt lat="43.97771" lon="5.11519">
        <ele>328.6</ele>
        <time>2013-03-07T12:32:32Z</time>
      </trkpt>
      <trkpt lat="43.97767" lon="5.1152">
        <ele>328</ele>
        <time>2013-03-07T12:32:33Z</time>
      </trkpt>
      <trkpt lat="43.97763" lon="5.11519">
        <ele>329.1</ele>
        <time>2013-03-07T12:32:36Z</time>
      </trkpt>
      <trkpt lat="43.97762" lon="5.11518">
        <ele>329.1</ele>
        <time>2013-03-07T12:32:37Z</time>
      </trkpt>
      <trkpt lat="43.9776" lon="5.11517">
        <ele>329</ele>
        <time>2013-03-07T12:32:39Z</time>
      </trkpt>
      <trkpt lat="43.97758" lon="5.11516">
        <ele>331.9</ele>
        <time>2013-03-07T12:32:40Z</time>
      </trkpt>
      <trkpt lat="43.97755" lon="5.11517">
        <ele>332.1</ele>
        <time>2013-03-07T12:32:42Z</time>
      </trkpt>
      <trkpt lat="43.97753" lon="5.11518">
        <ele>331.1</ele>
        <time>2013-03-07T12:32:43Z</time>
      </trkpt>
      <trkpt lat="43.97749" lon="5.11518">
        <ele>331.2</ele>
        <time>2013-03-07T12:32:45Z</time>
      </trkpt>
      <trkpt lat="43.97747" lon="5.11519">
        <ele>331.2</ele>
        <time>2013-03-07T12:32:46Z</time>
      </trkpt>
      <trkpt lat="43.97743" lon="5.1152">
        <ele>332.8</ele>
        <time>2013-03-07T12:32:48Z</time>
      </trkpt>
      <trkpt lat="43.97741" lon="5.1152">
        <ele>333.6</ele>
        <time>2013-03-07T12:32:49Z</time>
      </trkpt>
      <trkpt lat="43.97736" lon="5.1152">
        <ele>334.1</ele>
        <time>2013-03-07T12:32:52Z</time>
      </trkpt>
      <trkpt lat="43.97736" lon="5.11519">
        <ele>338.9</ele>
        <time>2013-03-07T12:32:53Z</time>
      </trkpt>
      <trkpt lat="43.97733" lon="5.11519">
        <ele>338</ele>
        <time>2013-03-07T12:32:54Z</time>
      </trkpt>
      <trkpt lat="43.97731" lon="5.1152">
        <ele>337.6</ele>
        <time>2013-03-07T12:32:55Z</time>
      </trkpt>
      <trkpt lat="43.97728" lon="5.1152">
        <ele>337.4</ele>
        <time>2013-03-07T12:32:57Z</time>
      </trkpt>
      <trkpt lat="43.97726" lon="5.11521">
        <ele>337.2</ele>
        <time>2013-03-07T12:32:58Z</time>
      </trkpt>
      <trkpt lat="43.97724" lon="5.11522">
        <ele>337</ele>
        <time>2013-03-07T12:32:59Z</time>
      </trkpt>
      <trkpt lat="43.9772" lon="5.11522">
        <ele>338.9</ele>
        <time>2013-03-07T12:33:00Z</time>
      </trkpt>
      <trkpt lat="43.97718" lon="5.11522">
        <ele>339</ele>
        <time>2013-03-07T12:33:01Z</time>
      </trkpt>
      <trkpt lat="43.97716" lon="5.11522">
        <ele>339.7</ele>
        <time>2013-03-07T12:33:02Z</time>
      </trkpt>
      <trkpt lat="43.97712" lon="5.11522">
        <ele>341.3</ele>
        <time>2013-03-07T12:33:04Z</time>
      </trkpt>
      <trkpt lat="43.97711" lon="5.1152">
        <ele>343.5</ele>
        <time>2013-03-07T12:33:05Z</time>
      </trkpt>
      <trkpt lat="43.97708" lon="5.11515">
        <ele>347.2</ele>
        <time>2013-03-07T12:33:06Z</time>
      </trkpt>
      <trkpt lat="43.97708" lon="5.11512">
        <ele>347.4</ele>
        <time>2013-03-07T12:33:07Z</time>
      </trkpt>
      <trkpt lat="43.97704" lon="5.11515">
        <ele>352.3</ele>
        <time>2013-03-07T12:33:08Z</time>
      </trkpt>
      <trkpt lat="43.97703" lon="5.11515">
        <ele>353.3</ele>
        <time>2013-03-07T12:33:09Z</time>
      </trkpt>
      <trkpt lat="43.97699" lon="5.11519">
        <ele>353.3</ele>
        <time>2013-03-07T12:33:11Z</time>
      </trkpt>
      <trkpt lat="43.97697" lon="5.11521">
        <ele>353.7</ele>
        <time>2013-03-07T12:33:12Z</time>
      </trkpt>
      <trkpt lat="43.97694" lon="5.11522">
        <ele>353.3</ele>
        <time>2013-03-07T12:33:13Z</time>
      </trkpt>
      <trkpt lat="43.97692" lon="5.11523">
        <ele>353.4</ele>
        <time>2013-03-07T12:33:14Z</time>
      </trkpt>
      <trkpt lat="43.9769" lon="5.11524">
        <ele>353.9</ele>
        <time>2013-03-07T12:33:15Z</time>
      </trkpt>
      <trkpt lat="43.97687" lon="5.11524">
        <ele>354.2</ele>
        <time>2013-03-07T12:33:16Z</time>
      </trkpt>
      <trkpt lat="43.97685" lon="5.11527">
        <ele>354.5</ele>
        <time>2013-03-07T12:33:17Z</time>
      </trkpt>
      <trkpt lat="43.97683" lon="5.11528">
        <ele>354.5</ele>
        <time>2013-03-07T12:33:18Z</time>
      </trkpt>
      <trkpt lat="43.9768" lon="5.1153">
        <ele>354.4</ele>
        <time>2013-03-07T12:33:19Z</time>
      </trkpt>
      <trkpt lat="43.97678" lon="5.11533">
        <ele>353.8</ele>
        <time>2013-03-07T12:33:20Z</time>
      </trkpt>
      <trkpt lat="43.97675" lon="5.11536">
        <ele>353.4</ele>
        <time>2013-03-07T12:33:21Z</time>
      </trkpt>
      <trkpt lat="43.97672" lon="5.11538">
        <ele>353.6</ele>
        <time>2013-03-07T12:33:22Z</time>
      </trkpt>
      <trkpt lat="43.97668" lon="5.11541">
        <ele>352.4</ele>
        <time>2013-03-07T12:33:23Z</time>
      </trkpt>
      <trkpt lat="43.97665" lon="5.11543">
        <ele>351.3</ele>
        <time>2013-03-07T12:33:24Z</time>
      </trkpt>
      <trkpt lat="43.97661" lon="5.11545">
        <ele>351</ele>
        <time>2013-03-07T12:33:25Z</time>
      </trkpt>
      <trkpt lat="43.97658" lon="5.11546">
        <ele>349.5</ele>
        <time>2013-03-07T12:33:26Z</time>
      </trkpt>
      <trkpt lat="43.97655" lon="5.11548">
        <ele>348.7</ele>
        <time>2013-03-07T12:33:27Z</time>
      </trkpt>
      <trkpt lat="43.97652" lon="5.11549">
        <ele>348.4</ele>
        <time>2013-03-07T12:33:28Z</time>
      </trkpt>
      <trkpt lat="43.97648" lon="5.11551">
        <ele>347.1</ele>
        <time>2013-03-07T12:33:29Z</time>
      </trkpt>
      <trkpt lat="43.97646" lon="5.11553">
        <ele>346.4</ele>
        <time>2013-03-07T12:33:30Z</time>
      </trkpt>
      <trkpt lat="43.97643" lon="5.11555">
        <ele>345.8</ele>
        <time>2013-03-07T12:33:31Z</time>
      </trkpt>
      <trkpt lat="43.9764" lon="5.11555">
        <ele>344.6</ele>
        <time>2013-03-07T12:33:32Z</time>
      </trkpt>
      <trkpt lat="43.97636" lon="5.11555">
        <ele>343.9</ele>
        <time>2013-03-07T12:33:33Z</time>
      </trkpt>
      <trkpt lat="43.97633" lon="5.11556">
        <ele>344.5</ele>
        <time>2013-03-07T12:33:34Z</time>
      </trkpt>
      <trkpt lat="43.9763" lon="5.11556">
        <ele>344.2</ele>
        <time>2013-03-07T12:33:35Z</time>
      </trkpt>
      <trkpt lat="43.97627" lon="5.11559">
        <ele>342.2</ele>
        <time>2013-03-07T12:33:36Z</time>
      </trkpt>
      <trkpt lat="43.97624" lon="5.1156">
        <ele>341.1</ele>
        <time>2013-03-07T12:33:37Z</time>
      </trkpt>
      <trkpt lat="43.97621" lon="5.1156">
        <ele>342.4</ele>
        <time>2013-03-07T12:33:38Z</time>
      </trkpt>
      <trkpt lat="43.97618" lon="5.11562">
        <ele>340.9</ele>
        <time>2013-03-07T12:33:39Z</time>
      </trkpt>
      <trkpt lat="43.97614" lon="5.11562">
        <ele>340.9</ele>
        <time>2013-03-07T12:33:40Z</time>
      </trkpt>
      <trkpt lat="43.97611" lon="5.11563">
        <ele>340.8</ele>
        <time>2013-03-07T12:33:41Z</time>
      </trkpt>
      <trkpt lat="43.97608" lon="5.11563">
        <ele>341</ele>
        <time>2013-03-07T12:33:42Z</time>
      </trkpt>
      <trkpt lat="43.97605" lon="5.11564">
        <ele>341.1</ele>
        <time>2013-03-07T12:33:43Z</time>
      </trkpt>
      <trkpt lat="43.97602" lon="5.11566">
        <ele>340.9</ele>
        <time>2013-03-07T12:33:44Z</time>
      </trkpt>
      <trkpt lat="43.97598" lon="5.11566">
        <ele>340.3</ele>
        <time>2013-03-07T12:33:46Z</time>
      </trkpt>
      <trkpt lat="43.97595" lon="5.11564">
        <ele>343.6</ele>
        <time>2013-03-07T12:33:47Z</time>
      </trkpt>
      <trkpt lat="43.97591" lon="5.11564">
        <ele>343.7</ele>
        <time>2013-03-07T12:33:48Z</time>
      </trkpt>
      <trkpt lat="43.97586" lon="5.11564">
        <ele>343.8</ele>
        <time>2013-03-07T12:33:49Z</time>
      </trkpt>
      <trkpt lat="43.97583" lon="5.11564">
        <ele>343.4</ele>
        <time>2013-03-07T12:33:50Z</time>
      </trkpt>
      <trkpt lat="43.9758" lon="5.11564">
        <ele>343.5</ele>
        <time>2013-03-07T12:33:51Z</time>
      </trkpt>
      <trkpt lat="43.97577" lon="5.11565">
        <ele>343.3</ele>
        <time>2013-03-07T12:33:52Z</time>
      </trkpt>
      <trkpt lat="43.97574" lon="5.11565">
        <ele>344.3</ele>
        <time>2013-03-07T12:33:53Z</time>
      </trkpt>
      <trkpt lat="43.97572" lon="5.11566">
        <ele>344.5</ele>
        <time>2013-03-07T12:33:54Z</time>
      </trkpt>
      <trkpt lat="43.9757" lon="5.11567">
        <ele>344.6</ele>
        <time>2013-03-07T12:33:55Z</time>
      </trkpt>
      <trkpt lat="43.97566" lon="5.11569">
        <ele>345</ele>
        <time>2013-03-07T12:33:57Z</time>
      </trkpt>
      <trkpt lat="43.97563" lon="5.1157">
        <ele>345.2</ele>
        <time>2013-03-07T12:33:58Z</time>
      </trkpt>
      <trkpt lat="43.97561" lon="5.11571">
        <ele>344.9</ele>
        <time>2013-03-07T12:33:59Z</time>
      </trkpt>
      <trkpt lat="43.97558" lon="5.1157">
        <ele>346.4</ele>
        <time>2013-03-07T12:34:00Z</time>
      </trkpt>
      <trkpt lat="43.97555" lon="5.11571">
        <ele>346.2</ele>
        <time>2013-03-07T12:34:01Z</time>
      </trkpt>
      <trkpt lat="43.97553" lon="5.11572">
        <ele>346.3</ele>
        <time>2013-03-07T12:34:02Z</time>
      </trkpt>
      <trkpt lat="43.97551" lon="5.11573">
        <ele>346.2</ele>
        <time>2013-03-07T12:34:03Z</time>
      </trkpt>
      <trkpt lat="43.97549" lon="5.11573">
        <ele>346.2</ele>
        <time>2013-03-07T12:34:04Z</time>
      </trkpt>
      <trkpt lat="43.97545" lon="5.11573">
        <ele>344.9</ele>
        <time>2013-03-07T12:34:05Z</time>
      </trkpt>
      <trkpt lat="43.97542" lon="5.11573">
        <ele>344.7</ele>
        <time>2013-03-07T12:34:06Z</time>
      </trkpt>
      <trkpt lat="43.9754" lon="5.11574">
        <ele>346.5</ele>
        <time>2013-03-07T12:34:08Z</time>
      </trkpt>
      <trkpt lat="43.97537" lon="5.11574">
        <ele>347.1</ele>
        <time>2013-03-07T12:34:09Z</time>
      </trkpt>
      <trkpt lat="43.97532" lon="5.11574">
        <ele>348.8</ele>
        <time>2013-03-07T12:34:11Z</time>
      </trkpt>
      <trkpt lat="43.9753" lon="5.11574">
        <ele>348.8</ele>
        <time>2013-03-07T12:34:12Z</time>
      </trkpt>
      <trkpt lat="43.97526" lon="5.11573">
        <ele>351.5</ele>
        <time>2013-03-07T12:34:14Z</time>
      </trkpt>
      <trkpt lat="43.97525" lon="5.11572">
        <ele>353.7</ele>
        <time>2013-03-07T12:34:15Z</time>
      </trkpt>
      <trkpt lat="43.97523" lon="5.11572">
        <ele>354.6</ele>
        <time>2013-03-07T12:34:16Z</time>
      </trkpt>
      <trkpt lat="43.9752" lon="5.11572">
        <ele>353.5</ele>
        <time>2013-03-07T12:34:17Z</time>
      </trkpt>
      <trkpt lat="43.97515" lon="5.11571">
        <ele>355.2</ele>
        <time>2013-03-07T12:34:19Z</time>
      </trkpt>
      <trkpt lat="43.97514" lon="5.11571">
        <ele>355.8</ele>
        <time>2013-03-07T12:34:20Z</time>
      </trkpt>
      <trkpt lat="43.9751" lon="5.11569">
        <ele>355.9</ele>
        <time>2013-03-07T12:34:22Z</time>
      </trkpt>
      <trkpt lat="43.97507" lon="5.11569">
        <ele>355.6</ele>
        <time>2013-03-07T12:34:23Z</time>
      </trkpt>
      <trkpt lat="43.97502" lon="5.11568">
        <ele>355.3</ele>
        <time>2013-03-07T12:34:25Z</time>
      </trkpt>
      <trkpt lat="43.97499" lon="5.11569">
        <ele>355.3</ele>
        <time>2013-03-07T12:34:26Z</time>
      </trkpt>
      <trkpt lat="43.97497" lon="5.11568">
        <ele>355</ele>
        <time>2013-03-07T12:34:27Z</time>
      </trkpt>
      <trkpt lat="43.97494" lon="5.11568">
        <ele>355.2</ele>
        <time>2013-03-07T12:34:28Z</time>
      </trkpt>
      <trkpt lat="43.97492" lon="5.11568">
        <ele>355.1</ele>
        <time>2013-03-07T12:34:29Z</time>
      </trkpt>
      <trkpt lat="43.97489" lon="5.11568">
        <ele>355.1</ele>
        <time>2013-03-07T12:34:30Z</time>
      </trkpt>
      <trkpt lat="43.97486" lon="5.11568">
        <ele>354.5</ele>
        <time>2013-03-07T12:34:31Z</time>
      </trkpt>
      <trkpt lat="43.97483" lon="5.11569">
        <ele>354.1</ele>
        <time>2013-03-07T12:34:32Z</time>
      </trkpt>
      <trkpt lat="43.97481" lon="5.11569">
        <ele>353.7</ele>
        <time>2013-03-07T12:34:33Z</time>
      </trkpt>
      <trkpt lat="43.97478" lon="5.1157">
        <ele>353.8</ele>
        <time>2013-03-07T12:34:34Z</time>
      </trkpt>
      <trkpt lat="43.97476" lon="5.1157">
        <ele>353.8</ele>
        <time>2013-03-07T12:34:35Z</time>
      </trkpt>
      <trkpt lat="43.97473" lon="5.1157">
        <ele>353.4</ele>
        <time>2013-03-07T12:34:36Z</time>
      </trkpt>
      <trkpt lat="43.97471" lon="5.11571">
        <ele>352.9</ele>
        <time>2013-03-07T12:34:37Z</time>
      </trkpt>
      <trkpt lat="43.97468" lon="5.11571">
        <ele>352</ele>
        <time>2013-03-07T12:34:38Z</time>
      </trkpt>
      <trkpt lat="43.97466" lon="5.11571">
        <ele>351.4</ele>
        <time>2013-03-07T12:34:39Z</time>
      </trkpt>
      <trkpt lat="43.97464" lon="5.11571">
        <ele>351.2</ele>
        <time>2013-03-07T12:34:40Z</time>
      </trkpt>
      <trkpt lat="43.97459" lon="5.1157">
        <ele>352.5</ele>
        <time>2013-03-07T12:34:42Z</time>
      </trkpt>
      <trkpt lat="43.97457" lon="5.11571">
        <ele>352.7</ele>
        <time>2013-03-07T12:34:43Z</time>
      </trkpt>
      <trkpt lat="43.97455" lon="5.1157">
        <ele>352.6</ele>
        <time>2013-03-07T12:34:44Z</time>
      </trkpt>
      <trkpt lat="43.97452" lon="5.11571">
        <ele>351.8</ele>
        <time>2013-03-07T12:34:45Z</time>
      </trkpt>
      <trkpt lat="43.97448" lon="5.1157">
        <ele>352.9</ele>
        <time>2013-03-07T12:34:47Z</time>
      </trkpt>
      <trkpt lat="43.97446" lon="5.1157">
        <ele>352.7</ele>
        <time>2013-03-07T12:34:48Z</time>
      </trkpt>
      <trkpt lat="43.97443" lon="5.1157">
        <ele>352.6</ele>
        <time>2013-03-07T12:34:49Z</time>
      </trkpt>
      <trkpt lat="43.97441" lon="5.11571">
        <ele>352.4</ele>
        <time>2013-03-07T12:34:50Z</time>
      </trkpt>
      <trkpt lat="43.97438" lon="5.11572">
        <ele>355</ele>
        <time>2013-03-07T12:34:52Z</time>
      </trkpt>
      <trkpt lat="43.97435" lon="5.11572">
        <ele>355.1</ele>
        <time>2013-03-07T12:34:53Z</time>
      </trkpt>
      <trkpt lat="43.97433" lon="5.11573">
        <ele>355</ele>
        <time>2013-03-07T12:34:54Z</time>
      </trkpt>
      <trkpt lat="43.97431" lon="5.11573">
        <ele>354.9</ele>
        <time>2013-03-07T12:34:55Z</time>
      </trkpt>
      <trkpt lat="43.97428" lon="5.11574">
        <ele>355.3</ele>
        <time>2013-03-07T12:34:56Z</time>
      </trkpt>
      <trkpt lat="43.97426" lon="5.11574">
        <ele>355</ele>
        <time>2013-03-07T12:34:57Z</time>
      </trkpt>
      <trkpt lat="43.97421" lon="5.11575">
        <ele>355</ele>
        <time>2013-03-07T12:34:59Z</time>
      </trkpt>
      <trkpt lat="43.9742" lon="5.11575">
        <ele>354.9</ele>
        <time>2013-03-07T12:35:00Z</time>
      </trkpt>
      <trkpt lat="43.97418" lon="5.11578">
        <ele>355.7</ele>
        <time>2013-03-07T12:35:02Z</time>
      </trkpt>
      <trkpt lat="43.97415" lon="5.11578">
        <ele>356.4</ele>
        <time>2013-03-07T12:35:03Z</time>
      </trkpt>
      <trkpt lat="43.97411" lon="5.11578">
        <ele>357.4</ele>
        <time>2013-03-07T12:35:05Z</time>
      </trkpt>
      <trkpt lat="43.97409" lon="5.11579">
        <ele>357.3</ele>
        <time>2013-03-07T12:35:06Z</time>
      </trkpt>
      <trkpt lat="43.97407" lon="5.11579">
        <ele>356.3</ele>
        <time>2013-03-07T12:35:07Z</time>
      </trkpt>
      <trkpt lat="43.97404" lon="5.11579">
        <ele>356.8</ele>
        <time>2013-03-07T12:35:08Z</time>
      </trkpt>
      <trkpt lat="43.97401" lon="5.11579">
        <ele>356.1</ele>
        <time>2013-03-07T12:35:09Z</time>
      </trkpt>
      <trkpt lat="43.97398" lon="5.11581">
        <ele>355.8</ele>
        <time>2013-03-07T12:35:10Z</time>
      </trkpt>
      <trkpt lat="43.97395" lon="5.11582">
        <ele>356</ele>
        <time>2013-03-07T12:35:12Z</time>
      </trkpt>
      <trkpt lat="43.97393" lon="5.11584">
        <ele>356.5</ele>
        <time>2013-03-07T12:35:13Z</time>
      </trkpt>
      <trkpt lat="43.97389" lon="5.11586">
        <ele>356.6</ele>
        <time>2013-03-07T12:35:15Z</time>
      </trkpt>
      <trkpt lat="43.97387" lon="5.11587">
        <ele>356.7</ele>
        <time>2013-03-07T12:35:16Z</time>
      </trkpt>
      <trkpt lat="43.97385" lon="5.11589">
        <ele>356.6</ele>
        <time>2013-03-07T12:35:17Z</time>
      </trkpt>
      <trkpt lat="43.97383" lon="5.1159">
        <ele>356.1</ele>
        <time>2013-03-07T12:35:18Z</time>
      </trkpt>
      <trkpt lat="43.9738" lon="5.11591">
        <ele>356.3</ele>
        <time>2013-03-07T12:35:19Z</time>
      </trkpt>
      <trkpt lat="43.97378" lon="5.11593">
        <ele>355.8</ele>
        <time>2013-03-07T12:35:20Z</time>
      </trkpt>
      <trkpt lat="43.97376" lon="5.11594">
        <ele>356</ele>
        <time>2013-03-07T12:35:21Z</time>
      </trkpt>
      <trkpt lat="43.97372" lon="5.11595">
        <ele>355.7</ele>
        <time>2013-03-07T12:35:22Z</time>
      </trkpt>
      <trkpt lat="43.97368" lon="5.11598">
        <ele>354.9</ele>
        <time>2013-03-07T12:35:24Z</time>
      </trkpt>
      <trkpt lat="43.97366" lon="5.11599">
        <ele>354.9</ele>
        <time>2013-03-07T12:35:25Z</time>
      </trkpt>
      <trkpt lat="43.97363" lon="5.11601">
        <ele>354.9</ele>
        <time>2013-03-07T12:35:26Z</time>
      </trkpt>
      <trkpt lat="43.97361" lon="5.11602">
        <ele>355.2</ele>
        <time>2013-03-07T12:35:27Z</time>
      </trkpt>
      <trkpt lat="43.97358" lon="5.11604">
        <ele>355.1</ele>
        <time>2013-03-07T12:35:28Z</time>
      </trkpt>
      <trkpt lat="43.97356" lon="5.11605">
        <ele>355.1</ele>
        <time>2013-03-07T12:35:29Z</time>
      </trkpt>
      <trkpt lat="43.97353" lon="5.11609">
        <ele>356.8</ele>
        <time>2013-03-07T12:35:31Z</time>
      </trkpt>
      <trkpt lat="43.97352" lon="5.11611">
        <ele>356.8</ele>
        <time>2013-03-07T12:35:32Z</time>
      </trkpt>
      <trkpt lat="43.97349" lon="5.11616">
        <ele>355.6</ele>
        <time>2013-03-07T12:35:34Z</time>
      </trkpt>
      <trkpt lat="43.97347" lon="5.11617">
        <ele>355.4</ele>
        <time>2013-03-07T12:35:35Z</time>
      </trkpt>
      <trkpt lat="43.97344" lon="5.1162">
        <ele>355.5</ele>
        <time>2013-03-07T12:35:37Z</time>
      </trkpt>
      <trkpt lat="43.97342" lon="5.1162">
        <ele>355.1</ele>
        <time>2013-03-07T12:35:38Z</time>
      </trkpt>
      <trkpt lat="43.97338" lon="5.11624">
        <ele>360</ele>
        <time>2013-03-07T12:35:41Z</time>
      </trkpt>
      <trkpt lat="43.97336" lon="5.11625">
        <ele>359.9</ele>
        <time>2013-03-07T12:35:42Z</time>
      </trkpt>
      <trkpt lat="43.97333" lon="5.11628">
        <ele>360.9</ele>
        <time>2013-03-07T12:35:44Z</time>
      </trkpt>
      <trkpt lat="43.97331" lon="5.11629">
        <ele>360.8</ele>
        <time>2013-03-07T12:35:45Z</time>
      </trkpt>
      <trkpt lat="43.97329" lon="5.1163">
        <ele>360.3</ele>
        <time>2013-03-07T12:35:46Z</time>
      </trkpt>
      <trkpt lat="43.97327" lon="5.11631">
        <ele>359.9</ele>
        <time>2013-03-07T12:35:47Z</time>
      </trkpt>
      <trkpt lat="43.97324" lon="5.11635">
        <ele>360.5</ele>
        <time>2013-03-07T12:35:49Z</time>
      </trkpt>
      <trkpt lat="43.9732" lon="5.11636">
        <ele>357.8</ele>
        <time>2013-03-07T12:35:50Z</time>
      </trkpt>
      <trkpt lat="43.97317" lon="5.1164">
        <ele>360.5</ele>
        <time>2013-03-07T12:35:52Z</time>
      </trkpt>
      <trkpt lat="43.97315" lon="5.1164">
        <ele>361.4</ele>
        <time>2013-03-07T12:35:53Z</time>
      </trkpt>
      <trkpt lat="43.97312" lon="5.11641">
        <ele>361.4</ele>
        <time>2013-03-07T12:35:54Z</time>
      </trkpt>
      <trkpt lat="43.9731" lon="5.11642">
        <ele>362.4</ele>
        <time>2013-03-07T12:35:55Z</time>
      </trkpt>
      <trkpt lat="43.97307" lon="5.11646">
        <ele>364.7</ele>
        <time>2013-03-07T12:35:58Z</time>
      </trkpt>
      <trkpt lat="43.97306" lon="5.11648">
        <ele>365.4</ele>
        <time>2013-03-07T12:35:59Z</time>
      </trkpt>
      <trkpt lat="43.97303" lon="5.11649">
        <ele>364.4</ele>
        <time>2013-03-07T12:36:00Z</time>
      </trkpt>
      <trkpt lat="43.97301" lon="5.11652">
        <ele>363.6</ele>
        <time>2013-03-07T12:36:01Z</time>
      </trkpt>
      <trkpt lat="43.97298" lon="5.11653">
        <ele>363</ele>
        <time>2013-03-07T12:36:03Z</time>
      </trkpt>
      <trkpt lat="43.97296" lon="5.11655">
        <ele>362.4</ele>
        <time>2013-03-07T12:36:04Z</time>
      </trkpt>
      <trkpt lat="43.97293" lon="5.11656">
        <ele>362.2</ele>
        <time>2013-03-07T12:36:06Z</time>
      </trkpt>
      <trkpt lat="43.97291" lon="5.11657">
        <ele>362</ele>
        <time>2013-03-07T12:36:07Z</time>
      </trkpt>
      <trkpt lat="43.97287" lon="5.11658">
        <ele>362.5</ele>
        <time>2013-03-07T12:36:09Z</time>
      </trkpt>
      <trkpt lat="43.97285" lon="5.11658">
        <ele>363.1</ele>
        <time>2013-03-07T12:36:10Z</time>
      </trkpt>
      <trkpt lat="43.97283" lon="5.11662">
        <ele>364.1</ele>
        <time>2013-03-07T12:36:11Z</time>
      </trkpt>
      <trkpt lat="43.97282" lon="5.11664">
        <ele>364.8</ele>
        <time>2013-03-07T12:36:12Z</time>
      </trkpt>
      <trkpt lat="43.97279" lon="5.11666">
        <ele>364.7</ele>
        <time>2013-03-07T12:36:13Z</time>
      </trkpt>
      <trkpt lat="43.97278" lon="5.11668">
        <ele>364.6</ele>
        <time>2013-03-07T12:36:14Z</time>
      </trkpt>
      <trkpt lat="43.97275" lon="5.11672">
        <ele>367.1</ele>
        <time>2013-03-07T12:36:16Z</time>
      </trkpt>
      <trkpt lat="43.97273" lon="5.11673">
        <ele>367.5</ele>
        <time>2013-03-07T12:36:17Z</time>
      </trkpt>
      <trkpt lat="43.9727" lon="5.11678">
        <ele>367</ele>
        <time>2013-03-07T12:36:19Z</time>
      </trkpt>
      <trkpt lat="43.9727" lon="5.1168">
        <ele>369.1</ele>
        <time>2013-03-07T12:36:20Z</time>
      </trkpt>
      <trkpt lat="43.97269" lon="5.11682">
        <ele>369.1</ele>
        <time>2013-03-07T12:36:21Z</time>
      </trkpt>
      <trkpt lat="43.97268" lon="5.11686">
        <ele>368.1</ele>
        <time>2013-03-07T12:36:22Z</time>
      </trkpt>
      <trkpt lat="43.97266" lon="5.11688">
        <ele>367.4</ele>
        <time>2013-03-07T12:36:23Z</time>
      </trkpt>
      <trkpt lat="43.97265" lon="5.11692">
        <ele>366.8</ele>
        <time>2013-03-07T12:36:24Z</time>
      </trkpt>
      <trkpt lat="43.97263" lon="5.11696">
        <ele>366.1</ele>
        <time>2013-03-07T12:36:26Z</time>
      </trkpt>
      <trkpt lat="43.97262" lon="5.11698">
        <ele>366.1</ele>
        <time>2013-03-07T12:36:27Z</time>
      </trkpt>
      <trkpt lat="43.97258" lon="5.11702">
        <ele>365.9</ele>
        <time>2013-03-07T12:36:29Z</time>
      </trkpt>
      <trkpt lat="43.97256" lon="5.11704">
        <ele>365.9</ele>
        <time>2013-03-07T12:36:30Z</time>
      </trkpt>
      <trkpt lat="43.97252" lon="5.11704">
        <ele>369.1</ele>
        <time>2013-03-07T12:36:32Z</time>
      </trkpt>
      <trkpt lat="43.97251" lon="5.11706">
        <ele>369.3</ele>
        <time>2013-03-07T12:36:33Z</time>
      </trkpt>
      <trkpt lat="43.97248" lon="5.11709">
        <ele>369</ele>
        <time>2013-03-07T12:36:36Z</time>
      </trkpt>
      <trkpt lat="43.97248" lon="5.11711">
        <ele>369.3</ele>
        <time>2013-03-07T12:36:37Z</time>
      </trkpt>
      <trkpt lat="43.97246" lon="5.11714">
        <ele>363.9</ele>
        <time>2013-03-07T12:37:04Z</time>
      </trkpt>
      <trkpt lat="43.97247" lon="5.11717">
        <ele>363.2</ele>
        <time>2013-03-07T12:37:05Z</time>
      </trkpt>
      <trkpt lat="43.97248" lon="5.11722">
        <ele>363</ele>
        <time>2013-03-07T12:37:06Z</time>
      </trkpt>
      <trkpt lat="43.9725" lon="5.11726">
        <ele>362.9</ele>
        <time>2013-03-07T12:37:07Z</time>
      </trkpt>
      <trkpt lat="43.97251" lon="5.1173">
        <ele>362.9</ele>
        <time>2013-03-07T12:37:08Z</time>
      </trkpt>
      <trkpt lat="43.97253" lon="5.11734">
        <ele>362.6</ele>
        <time>2013-03-07T12:37:09Z</time>
      </trkpt>
      <trkpt lat="43.97255" lon="5.11738">
        <ele>362.7</ele>
        <time>2013-03-07T12:37:10Z</time>
      </trkpt>
      <trkpt lat="43.97255" lon="5.11743">
        <ele>362.6</ele>
        <time>2013-03-07T12:37:11Z</time>
      </trkpt>
      <trkpt lat="43.97256" lon="5.11747">
        <ele>362.5</ele>
        <time>2013-03-07T12:37:12Z</time>
      </trkpt>
      <trkpt lat="43.97258" lon="5.11752">
        <ele>359.7</ele>
        <time>2013-03-07T12:37:13Z</time>
      </trkpt>
      <trkpt lat="43.9726" lon="5.11757">
        <ele>358.4</ele>
        <time>2013-03-07T12:37:14Z</time>
      </trkpt>
      <trkpt lat="43.97261" lon="5.11761">
        <ele>357.9</ele>
        <time>2013-03-07T12:37:15Z</time>
      </trkpt>
      <trkpt lat="43.97263" lon="5.11764">
        <ele>359</ele>
        <time>2013-03-07T12:37:16Z</time>
      </trkpt>
      <trkpt lat="43.97264" lon="5.11768">
        <ele>359</ele>
        <time>2013-03-07T12:37:17Z</time>
      </trkpt>
      <trkpt lat="43.97266" lon="5.11773">
        <ele>360.2</ele>
        <time>2013-03-07T12:37:19Z</time>
      </trkpt>
      <trkpt lat="43.97268" lon="5.11775">
        <ele>361</ele>
        <time>2013-03-07T12:37:20Z</time>
      </trkpt>
      <trkpt lat="43.97272" lon="5.11776">
        <ele>360.7</ele>
        <time>2013-03-07T12:37:22Z</time>
      </trkpt>
      <trkpt lat="43.97274" lon="5.11777">
        <ele>361.4</ele>
        <time>2013-03-07T12:37:23Z</time>
      </trkpt>
      <trkpt lat="43.97279" lon="5.11777">
        <ele>361.7</ele>
        <time>2013-03-07T12:37:25Z</time>
      </trkpt>
      <trkpt lat="43.97281" lon="5.11778">
        <ele>361.6</ele>
        <time>2013-03-07T12:37:26Z</time>
      </trkpt>
      <trkpt lat="43.97284" lon="5.1178">
        <ele>363.4</ele>
        <time>2013-03-07T12:37:28Z</time>
      </trkpt>
      <trkpt lat="43.97286" lon="5.1178">
        <ele>364</ele>
        <time>2013-03-07T12:37:29Z</time>
      </trkpt>
      <trkpt lat="43.97289" lon="5.11784">
        <ele>363</ele>
        <time>2013-03-07T12:37:31Z</time>
      </trkpt>
      <trkpt lat="43.9729" lon="5.11786">
        <ele>363.4</ele>
        <time>2013-03-07T12:37:32Z</time>
      </trkpt>
      <trkpt lat="43.97293" lon="5.11788">
        <ele>363.6</ele>
        <time>2013-03-07T12:37:34Z</time>
      </trkpt>
      <trkpt lat="43.97295" lon="5.1179">
        <ele>363.6</ele>
        <time>2013-03-07T12:37:35Z</time>
      </trkpt>
      <trkpt lat="43.97298" lon="5.11793">
        <ele>364.9</ele>
        <time>2013-03-07T12:37:38Z</time>
      </trkpt>
      <trkpt lat="43.97299" lon="5.11794">
        <ele>365.2</ele>
        <time>2013-03-07T12:37:39Z</time>
      </trkpt>
      <trkpt lat="43.97303" lon="5.11796">
        <ele>367.2</ele>
        <time>2013-03-07T12:37:42Z</time>
      </trkpt>
      <trkpt lat="43.97304" lon="5.11798">
        <ele>368.1</ele>
        <time>2013-03-07T12:37:43Z</time>
      </trkpt>
      <trkpt lat="43.97306" lon="5.11799">
        <ele>368.2</ele>
        <time>2013-03-07T12:37:45Z</time>
      </trkpt>
      <trkpt lat="43.97309" lon="5.118">
        <ele>367.6</ele>
        <time>2013-03-07T12:37:46Z</time>
      </trkpt>
      <trkpt lat="43.97311" lon="5.11803">
        <ele>368.4</ele>
        <time>2013-03-07T12:37:48Z</time>
      </trkpt>
      <trkpt lat="43.97312" lon="5.11804">
        <ele>369.5</ele>
        <time>2013-03-07T12:37:49Z</time>
      </trkpt>
      <trkpt lat="43.97316" lon="5.11808">
        <ele>371.3</ele>
        <time>2013-03-07T12:37:52Z</time>
      </trkpt>
      <trkpt lat="43.97316" lon="5.11809">
        <ele>371.9</ele>
        <time>2013-03-07T12:37:53Z</time>
      </trkpt>
      <trkpt lat="43.97316" lon="5.11809">
        <ele>374</ele>
        <time>2013-03-07T12:37:55Z</time>
      </trkpt>
      <trkpt lat="43.9732" lon="5.11801">
        <ele>380.7</ele>
        <time>2013-03-07T12:37:56Z</time>
      </trkpt>
      <trkpt lat="43.97324" lon="5.11802">
        <ele>381.4</ele>
        <time>2013-03-07T12:37:57Z</time>
      </trkpt>
      <trkpt lat="43.97326" lon="5.11803">
        <ele>380.8</ele>
        <time>2013-03-07T12:37:58Z</time>
      </trkpt>
      <trkpt lat="43.97324" lon="5.11807">
        <ele>377.7</ele>
        <time>2013-03-07T12:38:15Z</time>
      </trkpt>
      <trkpt lat="43.9732" lon="5.11802">
        <ele>374.6</ele>
        <time>2013-03-07T12:38:16Z</time>
      </trkpt>
      <trkpt lat="43.97316" lon="5.11799">
        <ele>374</ele>
        <time>2013-03-07T12:38:17Z</time>
      </trkpt>
      <trkpt lat="43.97313" lon="5.11799">
        <ele>370.7</ele>
        <time>2013-03-07T12:38:18Z</time>
      </trkpt>
      <trkpt lat="43.97311" lon="5.11799">
        <ele>367.6</ele>
        <time>2013-03-07T12:38:19Z</time>
      </trkpt>
      <trkpt lat="43.97308" lon="5.11798">
        <ele>365.9</ele>
        <time>2013-03-07T12:38:20Z</time>
      </trkpt>
      <trkpt lat="43.97305" lon="5.11797">
        <ele>365.8</ele>
        <time>2013-03-07T12:38:21Z</time>
      </trkpt>
      <trkpt lat="43.97303" lon="5.11796">
        <ele>364.6</ele>
        <time>2013-03-07T12:38:22Z</time>
      </trkpt>
      <trkpt lat="43.973" lon="5.11794">
        <ele>364.3</ele>
        <time>2013-03-07T12:38:23Z</time>
      </trkpt>
      <trkpt lat="43.97296" lon="5.11789">
        <ele>362.5</ele>
        <time>2013-03-07T12:38:24Z</time>
      </trkpt>
      <trkpt lat="43.97292" lon="5.11785">
        <ele>361.2</ele>
        <time>2013-03-07T12:38:25Z</time>
      </trkpt>
      <trkpt lat="43.97287" lon="5.11784">
        <ele>360.4</ele>
        <time>2013-03-07T12:38:26Z</time>
      </trkpt>
      <trkpt lat="43.97283" lon="5.11781">
        <ele>360.1</ele>
        <time>2013-03-07T12:38:27Z</time>
      </trkpt>
      <trkpt lat="43.97278" lon="5.11781">
        <ele>358.5</ele>
        <time>2013-03-07T12:38:28Z</time>
      </trkpt>
      <trkpt lat="43.97274" lon="5.11779">
        <ele>358.1</ele>
        <time>2013-03-07T12:38:29Z</time>
      </trkpt>
      <trkpt lat="43.97269" lon="5.11777">
        <ele>358.2</ele>
        <time>2013-03-07T12:38:30Z</time>
      </trkpt>
      <trkpt lat="43.97265" lon="5.11774">
        <ele>357.6</ele>
        <time>2013-03-07T12:38:31Z</time>
      </trkpt>
      <trkpt lat="43.97266" lon="5.11769">
        <ele>357.5</ele>
        <time>2013-03-07T12:38:32Z</time>
      </trkpt>
      <trkpt lat="43.97264" lon="5.11765">
        <ele>357.3</ele>
        <time>2013-03-07T12:38:33Z</time>
      </trkpt>
      <trkpt lat="43.97263" lon="5.11763">
        <ele>357</ele>
        <time>2013-03-07T12:38:34Z</time>
      </trkpt>
      <trkpt lat="43.97261" lon="5.11759">
        <ele>356.1</ele>
        <time>2013-03-07T12:38:36Z</time>
      </trkpt>
      <trkpt lat="43.97259" lon="5.11759">
        <ele>355.8</ele>
        <time>2013-03-07T12:38:37Z</time>
      </trkpt>
      <trkpt lat="43.97256" lon="5.11754">
        <ele>355.1</ele>
        <time>2013-03-07T12:38:39Z</time>
      </trkpt>
      <trkpt lat="43.97254" lon="5.11753">
        <ele>355.3</ele>
        <time>2013-03-07T12:38:40Z</time>
      </trkpt>
      <trkpt lat="43.97253" lon="5.11751">
        <ele>355.2</ele>
        <time>2013-03-07T12:38:41Z</time>
      </trkpt>
      <trkpt lat="43.9725" lon="5.1175">
        <ele>356.4</ele>
        <time>2013-03-07T12:38:42Z</time>
      </trkpt>
      <trkpt lat="43.97248" lon="5.11748">
        <ele>356</ele>
        <time>2013-03-07T12:38:43Z</time>
      </trkpt>
      <trkpt lat="43.97246" lon="5.11745">
        <ele>355.7</ele>
        <time>2013-03-07T12:38:44Z</time>
      </trkpt>
      <trkpt lat="43.97243" lon="5.11743">
        <ele>355.3</ele>
        <time>2013-03-07T12:38:45Z</time>
      </trkpt>
      <trkpt lat="43.97242" lon="5.11741">
        <ele>355.3</ele>
        <time>2013-03-07T12:38:46Z</time>
      </trkpt>
      <trkpt lat="43.97239" lon="5.11741">
        <ele>357.5</ele>
        <time>2013-03-07T12:38:47Z</time>
      </trkpt>
      <trkpt lat="43.97236" lon="5.11742">
        <ele>358</ele>
        <time>2013-03-07T12:38:48Z</time>
      </trkpt>
      <trkpt lat="43.97236" lon="5.1174">
        <ele>359</ele>
        <time>2013-03-07T12:38:49Z</time>
      </trkpt>
      <trkpt lat="43.9724" lon="5.11731">
        <ele>358.7</ele>
        <time>2013-03-07T12:38:50Z</time>
      </trkpt>
      <trkpt lat="43.97236" lon="5.11731">
        <ele>359.6</ele>
        <time>2013-03-07T12:38:53Z</time>
      </trkpt>
      <trkpt lat="43.97235" lon="5.11731">
        <ele>359.9</ele>
        <time>2013-03-07T12:38:54Z</time>
      </trkpt>
      <trkpt lat="43.97231" lon="5.11731">
        <ele>360.6</ele>
        <time>2013-03-07T12:38:58Z</time>
      </trkpt>
      <trkpt lat="43.97229" lon="5.11734">
        <ele>360.4</ele>
        <time>2013-03-07T12:38:59Z</time>
      </trkpt>
      <trkpt lat="43.97227" lon="5.11736">
        <ele>361.6</ele>
        <time>2013-03-07T12:39:01Z</time>
      </trkpt>
      <trkpt lat="43.97225" lon="5.11737">
        <ele>362.1</ele>
        <time>2013-03-07T12:39:02Z</time>
      </trkpt>
      <trkpt lat="43.97223" lon="5.11741">
        <ele>361.8</ele>
        <time>2013-03-07T12:39:05Z</time>
      </trkpt>
      <trkpt lat="43.9722" lon="5.11741">
        <ele>363.6</ele>
        <time>2013-03-07T12:39:06Z</time>
      </trkpt>
      <trkpt lat="43.97216" lon="5.11743">
        <ele>365.4</ele>
        <time>2013-03-07T12:39:09Z</time>
      </trkpt>
      <trkpt lat="43.97214" lon="5.11744">
        <ele>365.3</ele>
        <time>2013-03-07T12:39:10Z</time>
      </trkpt>
      <trkpt lat="43.9721" lon="5.11747">
        <ele>367.1</ele>
        <time>2013-03-07T12:39:13Z</time>
      </trkpt>
      <trkpt lat="43.97208" lon="5.11747">
        <ele>367.1</ele>
        <time>2013-03-07T12:39:14Z</time>
      </trkpt>
      <trkpt lat="43.97206" lon="5.11745">
        <ele>371.4</ele>
        <time>2013-03-07T12:39:16Z</time>
      </trkpt>
      <trkpt lat="43.97204" lon="5.11745">
        <ele>372.8</ele>
        <time>2013-03-07T12:39:17Z</time>
      </trkpt>
      <trkpt lat="43.97201" lon="5.11747">
        <ele>372.5</ele>
        <time>2013-03-07T12:39:19Z</time>
      </trkpt>
      <trkpt lat="43.97199" lon="5.11747">
        <ele>372.9</ele>
        <time>2013-03-07T12:39:20Z</time>
      </trkpt>
      <trkpt lat="43.97196" lon="5.11749">
        <ele>375.8</ele>
        <time>2013-03-07T12:39:23Z</time>
      </trkpt>
      <trkpt lat="43.97195" lon="5.11749">
        <ele>376.3</ele>
        <time>2013-03-07T12:39:24Z</time>
      </trkpt>
      <trkpt lat="43.97191" lon="5.11751">
        <ele>376.3</ele>
        <time>2013-03-07T12:39:26Z</time>
      </trkpt>
      <trkpt lat="43.9719" lon="5.11752">
        <ele>376.3</ele>
        <time>2013-03-07T12:39:27Z</time>
      </trkpt>
      <trkpt lat="43.97186" lon="5.11752">
        <ele>376.3</ele>
        <time>2013-03-07T12:39:30Z</time>
      </trkpt>
      <trkpt lat="43.97184" lon="5.11753">
        <ele>376.4</ele>
        <time>2013-03-07T12:39:31Z</time>
      </trkpt>
      <trkpt lat="43.9718" lon="5.11754">
        <ele>375.7</ele>
        <time>2013-03-07T12:39:33Z</time>
      </trkpt>
      <trkpt lat="43.97178" lon="5.11753">
        <ele>377.2</ele>
        <time>2013-03-07T12:39:34Z</time>
      </trkpt>
      <trkpt lat="43.97175" lon="5.11755">
        <ele>378.5</ele>
        <time>2013-03-07T12:39:36Z</time>
      </trkpt>
      <trkpt lat="43.97173" lon="5.11755">
        <ele>378.7</ele>
        <time>2013-03-07T12:39:37Z</time>
      </trkpt>
      <trkpt lat="43.9717" lon="5.11756">
        <ele>378.1</ele>
        <time>2013-03-07T12:39:39Z</time>
      </trkpt>
      <trkpt lat="43.97169" lon="5.11757">
        <ele>377.9</ele>
        <time>2013-03-07T12:39:40Z</time>
      </trkpt>
      <trkpt lat="43.97165" lon="5.11758">
        <ele>378.2</ele>
        <time>2013-03-07T12:39:42Z</time>
      </trkpt>
      <trkpt lat="43.97164" lon="5.11758">
        <ele>377.7</ele>
        <time>2013-03-07T12:39:43Z</time>
      </trkpt>
      <trkpt lat="43.97161" lon="5.11759">
        <ele>377.5</ele>
        <time>2013-03-07T12:39:45Z</time>
      </trkpt>
      <trkpt lat="43.97159" lon="5.1176">
        <ele>377.5</ele>
        <time>2013-03-07T12:39:46Z</time>
      </trkpt>
      <trkpt lat="43.97157" lon="5.11764">
        <ele>376.1</ele>
        <time>2013-03-07T12:39:49Z</time>
      </trkpt>
      <trkpt lat="43.97156" lon="5.11766">
        <ele>375.7</ele>
        <time>2013-03-07T12:39:50Z</time>
      </trkpt>
      <trkpt lat="43.97155" lon="5.1177">
        <ele>375.2</ele>
        <time>2013-03-07T12:39:52Z</time>
      </trkpt>
      <trkpt lat="43.97152" lon="5.11773">
        <ele>374.4</ele>
        <time>2013-03-07T12:39:53Z</time>
      </trkpt>
      <trkpt lat="43.9715" lon="5.11776">
        <ele>372.3</ele>
        <time>2013-03-07T12:39:55Z</time>
      </trkpt>
      <trkpt lat="43.97148" lon="5.1178">
        <ele>371.8</ele>
        <time>2013-03-07T12:39:56Z</time>
      </trkpt>
      <trkpt lat="43.97145" lon="5.11782">
        <ele>368.9</ele>
        <time>2013-03-07T12:39:57Z</time>
      </trkpt>
      <trkpt lat="43.97144" lon="5.11785">
        <ele>369</ele>
        <time>2013-03-07T12:39:58Z</time>
      </trkpt>
      <trkpt lat="43.97142" lon="5.1179">
        <ele>368.5</ele>
        <time>2013-03-07T12:40:00Z</time>
      </trkpt>
      <trkpt lat="43.9714" lon="5.11792">
        <ele>368.2</ele>
        <time>2013-03-07T12:40:01Z</time>
      </trkpt>
      <trkpt lat="43.97138" lon="5.11794">
        <ele>370.4</ele>
        <time>2013-03-07T12:40:03Z</time>
      </trkpt>
      <trkpt lat="43.97135" lon="5.11795">
        <ele>371.3</ele>
        <time>2013-03-07T12:40:04Z</time>
      </trkpt>
      <trkpt lat="43.97133" lon="5.11797">
        <ele>372.1</ele>
        <time>2013-03-07T12:40:05Z</time>
      </trkpt>
      <trkpt lat="43.97131" lon="5.118">
        <ele>373</ele>
        <time>2013-03-07T12:40:06Z</time>
      </trkpt>
      <trkpt lat="43.9713" lon="5.11804">
        <ele>373.1</ele>
        <time>2013-03-07T12:40:07Z</time>
      </trkpt>
      <trkpt lat="43.97126" lon="5.11807">
        <ele>373.7</ele>
        <time>2013-03-07T12:40:08Z</time>
      </trkpt>
      <trkpt lat="43.97124" lon="5.11811">
        <ele>374.3</ele>
        <time>2013-03-07T12:40:09Z</time>
      </trkpt>
      <trkpt lat="43.97122" lon="5.11813">
        <ele>374.9</ele>
        <time>2013-03-07T12:40:10Z</time>
      </trkpt>
      <trkpt lat="43.97118" lon="5.11813">
        <ele>376.5</ele>
        <time>2013-03-07T12:40:11Z</time>
      </trkpt>
      <trkpt lat="43.97116" lon="5.11813">
        <ele>377.1</ele>
        <time>2013-03-07T12:40:12Z</time>
      </trkpt>
      <trkpt lat="43.97112" lon="5.11815">
        <ele>378.6</ele>
        <time>2013-03-07T12:40:14Z</time>
      </trkpt>
      <trkpt lat="43.97109" lon="5.11817">
        <ele>376.5</ele>
        <time>2013-03-07T12:40:15Z</time>
      </trkpt>
      <trkpt lat="43.97106" lon="5.11818">
        <ele>375.4</ele>
        <time>2013-03-07T12:40:16Z</time>
      </trkpt>
      <trkpt lat="43.97104" lon="5.11819">
        <ele>374.8</ele>
        <time>2013-03-07T12:40:17Z</time>
      </trkpt>
      <trkpt lat="43.97102" lon="5.1182">
        <ele>374.6</ele>
        <time>2013-03-07T12:40:18Z</time>
      </trkpt>
      <trkpt lat="43.97099" lon="5.11822">
        <ele>376</ele>
        <time>2013-03-07T12:40:19Z</time>
      </trkpt>
      <trkpt lat="43.97097" lon="5.11823">
        <ele>376.1</ele>
        <time>2013-03-07T12:40:20Z</time>
      </trkpt>
      <trkpt lat="43.97095" lon="5.11823">
        <ele>376.1</ele>
        <time>2013-03-07T12:40:21Z</time>
      </trkpt>
      <trkpt lat="43.97092" lon="5.11824">
        <ele>375.6</ele>
        <time>2013-03-07T12:40:22Z</time>
      </trkpt>
      <trkpt lat="43.9709" lon="5.11825">
        <ele>375.3</ele>
        <time>2013-03-07T12:40:23Z</time>
      </trkpt>
      <trkpt lat="43.97087" lon="5.11828">
        <ele>374.4</ele>
        <time>2013-03-07T12:40:25Z</time>
      </trkpt>
      <trkpt lat="43.97084" lon="5.11829">
        <ele>374.4</ele>
        <time>2013-03-07T12:40:26Z</time>
      </trkpt>
      <trkpt lat="43.9708" lon="5.11832">
        <ele>376.9</ele>
        <time>2013-03-07T12:40:29Z</time>
      </trkpt>
      <trkpt lat="43.97077" lon="5.11833">
        <ele>376.4</ele>
        <time>2013-03-07T12:40:30Z</time>
      </trkpt>
      <trkpt lat="43.97073" lon="5.11834">
        <ele>375.8</ele>
        <time>2013-03-07T12:40:31Z</time>
      </trkpt>
      <trkpt lat="43.97072" lon="5.11838">
        <ele>375.6</ele>
        <time>2013-03-07T12:40:32Z</time>
      </trkpt>
      <trkpt lat="43.9707" lon="5.1184">
        <ele>375.4</ele>
        <time>2013-03-07T12:40:33Z</time>
      </trkpt>
      <trkpt lat="43.97069" lon="5.11842">
        <ele>375.3</ele>
        <time>2013-03-07T12:40:34Z</time>
      </trkpt>
      <trkpt lat="43.97068" lon="5.11845">
        <ele>375.1</ele>
        <time>2013-03-07T12:40:35Z</time>
      </trkpt>
      <trkpt lat="43.97067" lon="5.11848">
        <ele>374.6</ele>
        <time>2013-03-07T12:40:36Z</time>
      </trkpt>
      <trkpt lat="43.97066" lon="5.11851">
        <ele>374.7</ele>
        <time>2013-03-07T12:40:37Z</time>
      </trkpt>
      <trkpt lat="43.97067" lon="5.11855">
        <ele>374.2</ele>
        <time>2013-03-07T12:40:38Z</time>
      </trkpt>
      <trkpt lat="43.97066" lon="5.11861">
        <ele>373.5</ele>
        <time>2013-03-07T12:40:40Z</time>
      </trkpt>
      <trkpt lat="43.97066" lon="5.11864">
        <ele>373.3</ele>
        <time>2013-03-07T12:40:41Z</time>
      </trkpt>
      <trkpt lat="43.97066" lon="5.1187">
        <ele>373.6</ele>
        <time>2013-03-07T12:40:43Z</time>
      </trkpt>
      <trkpt lat="43.97065" lon="5.11872">
        <ele>373.7</ele>
        <time>2013-03-07T12:40:44Z</time>
      </trkpt>
      <trkpt lat="43.97064" lon="5.11876">
        <ele>373.4</ele>
        <time>2013-03-07T12:40:46Z</time>
      </trkpt>
      <trkpt lat="43.97063" lon="5.1188">
        <ele>373.4</ele>
        <time>2013-03-07T12:40:47Z</time>
      </trkpt>
      <trkpt lat="43.97062" lon="5.11885">
        <ele>373.2</ele>
        <time>2013-03-07T12:40:49Z</time>
      </trkpt>
      <trkpt lat="43.97063" lon="5.11888">
        <ele>373.4</ele>
        <time>2013-03-07T12:40:50Z</time>
      </trkpt>
      <trkpt lat="43.97059" lon="5.11892">
        <ele>367.1</ele>
        <time>2013-03-07T12:40:51Z</time>
      </trkpt>
      <trkpt lat="43.97059" lon="5.11897">
        <ele>368.7</ele>
        <time>2013-03-07T12:40:52Z</time>
      </trkpt>
      <trkpt lat="43.97059" lon="5.119">
        <ele>368.7</ele>
        <time>2013-03-07T12:40:53Z</time>
      </trkpt>
      <trkpt lat="43.97059" lon="5.11903">
        <ele>368.3</ele>
        <time>2013-03-07T12:40:54Z</time>
      </trkpt>
      <trkpt lat="43.97059" lon="5.11907">
        <ele>368.1</ele>
        <time>2013-03-07T12:40:55Z</time>
      </trkpt>
      <trkpt lat="43.97058" lon="5.11913">
        <ele>370.5</ele>
        <time>2013-03-07T12:40:58Z</time>
      </trkpt>
      <trkpt lat="43.97058" lon="5.11915">
        <ele>371.2</ele>
        <time>2013-03-07T12:40:59Z</time>
      </trkpt>
      <trkpt lat="43.97057" lon="5.11921">
        <ele>372.1</ele>
        <time>2013-03-07T12:41:01Z</time>
      </trkpt>
      <trkpt lat="43.97057" lon="5.11924">
        <ele>371.9</ele>
        <time>2013-03-07T12:41:02Z</time>
      </trkpt>
      <trkpt lat="43.97057" lon="5.11927">
        <ele>372</ele>
        <time>2013-03-07T12:41:03Z</time>
      </trkpt>
      <trkpt lat="43.97058" lon="5.11932">
        <ele>371.7</ele>
        <time>2013-03-07T12:41:04Z</time>
      </trkpt>
      <trkpt lat="43.97057" lon="5.11938">
        <ele>375.1</ele>
        <time>2013-03-07T12:41:06Z</time>
      </trkpt>
      <trkpt lat="43.97056" lon="5.11941">
        <ele>374.5</ele>
        <time>2013-03-07T12:41:07Z</time>
      </trkpt>
      <trkpt lat="43.97056" lon="5.11945">
        <ele>374.7</ele>
        <time>2013-03-07T12:41:08Z</time>
      </trkpt>
      <trkpt lat="43.97055" lon="5.11947">
        <ele>375.5</ele>
        <time>2013-03-07T12:41:09Z</time>
      </trkpt>
      <trkpt lat="43.97053" lon="5.11951">
        <ele>375.9</ele>
        <time>2013-03-07T12:41:12Z</time>
      </trkpt>
      <trkpt lat="43.97052" lon="5.11951">
        <ele>376.6</ele>
        <time>2013-03-07T12:41:13Z</time>
      </trkpt>
      <trkpt lat="43.97048" lon="5.11954">
        <ele>380.1</ele>
        <time>2013-03-07T12:41:16Z</time>
      </trkpt>
      <trkpt lat="43.97047" lon="5.11953">
        <ele>382.8</ele>
        <time>2013-03-07T12:41:17Z</time>
      </trkpt>
      <trkpt lat="43.97044" lon="5.11957">
        <ele>384.6</ele>
        <time>2013-03-07T12:41:21Z</time>
      </trkpt>
      <trkpt lat="43.97044" lon="5.11959">
        <ele>384.6</ele>
        <time>2013-03-07T12:41:22Z</time>
      </trkpt>
      <trkpt lat="43.97042" lon="5.11964">
        <ele>383.8</ele>
        <time>2013-03-07T12:41:25Z</time>
      </trkpt>
      <trkpt lat="43.97042" lon="5.11966">
        <ele>383.1</ele>
        <time>2013-03-07T12:41:26Z</time>
      </trkpt>
      <trkpt lat="43.97039" lon="5.11971">
        <ele>384.6</ele>
        <time>2013-03-07T12:41:29Z</time>
      </trkpt>
      <trkpt lat="43.97039" lon="5.11972">
        <ele>385.2</ele>
        <time>2013-03-07T12:41:30Z</time>
      </trkpt>
      <trkpt lat="43.97039" lon="5.11978">
        <ele>388.4</ele>
        <time>2013-03-07T12:41:39Z</time>
      </trkpt>
      <trkpt lat="43.97038" lon="5.11979">
        <ele>388.6</ele>
        <time>2013-03-07T12:41:40Z</time>
      </trkpt>
      <trkpt lat="43.97037" lon="5.11984">
        <ele>389.9</ele>
        <time>2013-03-07T12:41:47Z</time>
      </trkpt>
      <trkpt lat="43.97037" lon="5.11985">
        <ele>389.9</ele>
        <time>2013-03-07T12:41:48Z</time>
      </trkpt>
      <trkpt lat="43.97035" lon="5.1199">
        <ele>389</ele>
        <time>2013-03-07T12:41:56Z</time>
      </trkpt>
      <trkpt lat="43.97035" lon="5.11991">
        <ele>388.8</ele>
        <time>2013-03-07T12:41:57Z</time>
      </trkpt>
      <trkpt lat="43.97033" lon="5.11996">
        <ele>387</ele>
        <time>2013-03-07T12:42:12Z</time>
      </trkpt>
      <trkpt lat="43.97033" lon="5.11997">
        <ele>386.7</ele>
        <time>2013-03-07T12:42:13Z</time>
      </trkpt>
      <trkpt lat="43.97031" lon="5.12002">
        <ele>386.9</ele>
        <time>2013-03-07T12:42:17Z</time>
      </trkpt>
      <trkpt lat="43.97031" lon="5.12003">
        <ele>387.8</ele>
        <time>2013-03-07T12:42:18Z</time>
      </trkpt>
      <trkpt lat="43.97029" lon="5.12008">
        <ele>387.1</ele>
        <time>2013-03-07T12:42:22Z</time>
      </trkpt>
      <trkpt lat="43.97029" lon="5.12009">
        <ele>388</ele>
        <time>2013-03-07T12:42:23Z</time>
      </trkpt>
      <trkpt lat="43.97026" lon="5.12014">
        <ele>384.6</ele>
        <time>2013-03-07T12:42:27Z</time>
      </trkpt>
      <trkpt lat="43.97027" lon="5.12015">
        <ele>387.2</ele>
        <time>2013-03-07T12:42:28Z</time>
      </trkpt>
      <trkpt lat="43.97024" lon="5.12019">
        <ele>388</ele>
        <time>2013-03-07T12:42:32Z</time>
      </trkpt>
      <trkpt lat="43.97024" lon="5.12021">
        <ele>388.2</ele>
        <time>2013-03-07T12:42:33Z</time>
      </trkpt>
      <trkpt lat="43.97023" lon="5.12026">
        <ele>387.4</ele>
        <time>2013-03-07T12:42:37Z</time>
      </trkpt>
      <trkpt lat="43.97023" lon="5.12028">
        <ele>387.5</ele>
        <time>2013-03-07T12:42:38Z</time>
      </trkpt>
      <trkpt lat="43.97021" lon="5.12033">
        <ele>388</ele>
        <time>2013-03-07T12:43:44Z</time>
      </trkpt>
      <trkpt lat="43.97021" lon="5.12034">
        <ele>388</ele>
        <time>2013-03-07T12:43:45Z</time>
      </trkpt>
      <trkpt lat="43.97018" lon="5.12037">
        <ele>385.9</ele>
        <time>2013-03-07T12:43:49Z</time>
      </trkpt>
      <trkpt lat="43.97018" lon="5.12039">
        <ele>385.8</ele>
        <time>2013-03-07T12:43:50Z</time>
      </trkpt>
      <trkpt lat="43.97015" lon="5.12041">
        <ele>390.4</ele>
        <time>2013-03-07T12:43:52Z</time>
      </trkpt>
      <trkpt lat="43.97014" lon="5.12042">
        <ele>390.4</ele>
        <time>2013-03-07T12:43:53Z</time>
      </trkpt>
      <trkpt lat="43.97013" lon="5.12044">
        <ele>390.2</ele>
        <time>2013-03-07T12:43:54Z</time>
      </trkpt>
      <trkpt lat="43.97012" lon="5.12048">
        <ele>389.8</ele>
        <time>2013-03-07T12:43:55Z</time>
      </trkpt>
      <trkpt lat="43.97011" lon="5.12053">
        <ele>392</ele>
        <time>2013-03-07T12:43:57Z</time>
      </trkpt>
      <trkpt lat="43.97011" lon="5.12057">
        <ele>392</ele>
        <time>2013-03-07T12:43:58Z</time>
      </trkpt>
      <trkpt lat="43.97009" lon="5.12058">
        <ele>392.4</ele>
        <time>2013-03-07T12:43:59Z</time>
      </trkpt>
      <trkpt lat="43.97007" lon="5.12061">
        <ele>390.7</ele>
        <time>2013-03-07T12:44:00Z</time>
      </trkpt>
      <trkpt lat="43.97004" lon="5.12064">
        <ele>392.4</ele>
        <time>2013-03-07T12:44:02Z</time>
      </trkpt>
      <trkpt lat="43.97003" lon="5.12067">
        <ele>393.3</ele>
        <time>2013-03-07T12:44:03Z</time>
      </trkpt>
      <trkpt lat="43.97001" lon="5.12069">
        <ele>393.9</ele>
        <time>2013-03-07T12:44:04Z</time>
      </trkpt>
      <trkpt lat="43.96999" lon="5.12071">
        <ele>393.9</ele>
        <time>2013-03-07T12:44:05Z</time>
      </trkpt>
      <trkpt lat="43.96996" lon="5.12073">
        <ele>391.7</ele>
        <time>2013-03-07T12:44:06Z</time>
      </trkpt>
      <trkpt lat="43.96995" lon="5.12075">
        <ele>392.2</ele>
        <time>2013-03-07T12:44:07Z</time>
      </trkpt>
      <trkpt lat="43.96992" lon="5.12079">
        <ele>392.6</ele>
        <time>2013-03-07T12:44:09Z</time>
      </trkpt>
      <trkpt lat="43.96991" lon="5.12083">
        <ele>390.9</ele>
        <time>2013-03-07T12:44:10Z</time>
      </trkpt>
      <trkpt lat="43.96989" lon="5.12085">
        <ele>389.4</ele>
        <time>2013-03-07T12:44:11Z</time>
      </trkpt>
      <trkpt lat="43.96988" lon="5.12088">
        <ele>387.4</ele>
        <time>2013-03-07T12:44:12Z</time>
      </trkpt>
      <trkpt lat="43.96986" lon="5.12091">
        <ele>386.7</ele>
        <time>2013-03-07T12:44:13Z</time>
      </trkpt>
      <trkpt lat="43.96985" lon="5.12093">
        <ele>386.5</ele>
        <time>2013-03-07T12:44:14Z</time>
      </trkpt>
      <trkpt lat="43.96984" lon="5.12097">
        <ele>389.4</ele>
        <time>2013-03-07T12:44:17Z</time>
      </trkpt>
      <trkpt lat="43.96983" lon="5.12099">
        <ele>389.9</ele>
        <time>2013-03-07T12:44:18Z</time>
      </trkpt>
      <trkpt lat="43.9698" lon="5.12103">
        <ele>390.4</ele>
        <time>2013-03-07T12:44:20Z</time>
      </trkpt>
      <trkpt lat="43.96978" lon="5.12105">
        <ele>390.4</ele>
        <time>2013-03-07T12:44:21Z</time>
      </trkpt>
      <trkpt lat="43.96977" lon="5.12107">
        <ele>392.8</ele>
        <time>2013-03-07T12:44:22Z</time>
      </trkpt>
      <trkpt lat="43.96976" lon="5.12111">
        <ele>393</ele>
        <time>2013-03-07T12:44:23Z</time>
      </trkpt>
      <trkpt lat="43.96975" lon="5.12116">
        <ele>392.2</ele>
        <time>2013-03-07T12:44:24Z</time>
      </trkpt>
      <trkpt lat="43.96975" lon="5.12119">
        <ele>391.7</ele>
        <time>2013-03-07T12:44:25Z</time>
      </trkpt>
      <trkpt lat="43.96973" lon="5.12125">
        <ele>393.4</ele>
        <time>2013-03-07T12:44:28Z</time>
      </trkpt>
      <trkpt lat="43.96972" lon="5.12126">
        <ele>393.8</ele>
        <time>2013-03-07T12:44:29Z</time>
      </trkpt>
      <trkpt lat="43.9697" lon="5.12131">
        <ele>393.9</ele>
        <time>2013-03-07T12:44:32Z</time>
      </trkpt>
      <trkpt lat="43.96968" lon="5.12133">
        <ele>394.3</ele>
        <time>2013-03-07T12:44:33Z</time>
      </trkpt>
      <trkpt lat="43.96967" lon="5.12137">
        <ele>396</ele>
        <time>2013-03-07T12:44:34Z</time>
      </trkpt>
      <trkpt lat="43.96966" lon="5.12141">
        <ele>395.4</ele>
        <time>2013-03-07T12:44:35Z</time>
      </trkpt>
      <trkpt lat="43.96965" lon="5.12144">
        <ele>395.9</ele>
        <time>2013-03-07T12:44:36Z</time>
      </trkpt>
      <trkpt lat="43.96962" lon="5.12147">
        <ele>392.1</ele>
        <time>2013-03-07T12:44:37Z</time>
      </trkpt>
      <trkpt lat="43.9696" lon="5.12149">
        <ele>390.6</ele>
        <time>2013-03-07T12:44:38Z</time>
      </trkpt>
      <trkpt lat="43.96958" lon="5.12152">
        <ele>391.2</ele>
        <time>2013-03-07T12:44:39Z</time>
      </trkpt>
      <trkpt lat="43.96955" lon="5.12155">
        <ele>391.2</ele>
        <time>2013-03-07T12:44:40Z</time>
      </trkpt>
      <trkpt lat="43.96954" lon="5.12157">
        <ele>391.2</ele>
        <time>2013-03-07T12:44:41Z</time>
      </trkpt>
      <trkpt lat="43.96952" lon="5.12162">
        <ele>389.4</ele>
        <time>2013-03-07T12:44:45Z</time>
      </trkpt>
      <trkpt lat="43.96951" lon="5.12165">
        <ele>389.7</ele>
        <time>2013-03-07T12:44:46Z</time>
      </trkpt>
      <trkpt lat="43.96951" lon="5.12171">
        <ele>389.1</ele>
        <time>2013-03-07T12:44:48Z</time>
      </trkpt>
      <trkpt lat="43.9695" lon="5.12175">
        <ele>388.6</ele>
        <time>2013-03-07T12:44:49Z</time>
      </trkpt>
      <trkpt lat="43.96949" lon="5.12181">
        <ele>389.1</ele>
        <time>2013-03-07T12:44:52Z</time>
      </trkpt>
      <trkpt lat="43.96949" lon="5.12183">
        <ele>389.9</ele>
        <time>2013-03-07T12:44:53Z</time>
      </trkpt>
      <trkpt lat="43.96948" lon="5.12188">
        <ele>389.2</ele>
        <time>2013-03-07T12:44:55Z</time>
      </trkpt>
      <trkpt lat="43.96947" lon="5.12191">
        <ele>389.1</ele>
        <time>2013-03-07T12:44:56Z</time>
      </trkpt>
      <trkpt lat="43.96945" lon="5.12195">
        <ele>389.9</ele>
        <time>2013-03-07T12:45:25Z</time>
      </trkpt>
      <trkpt lat="43.96946" lon="5.12197">
        <ele>390.6</ele>
        <time>2013-03-07T12:45:26Z</time>
      </trkpt>
      <trkpt lat="43.96946" lon="5.12198">
        <ele>390.6</ele>
        <time>2013-03-07T12:45:27Z</time>
      </trkpt>
      <trkpt lat="43.96946" lon="5.12204">
        <ele>388.3</ele>
        <time>2013-03-07T12:45:28Z</time>
      </trkpt>
      <trkpt lat="43.96945" lon="5.12209">
        <ele>390.3</ele>
        <time>2013-03-07T12:45:30Z</time>
      </trkpt>
      <trkpt lat="43.96945" lon="5.1221">
        <ele>393.1</ele>
        <time>2013-03-07T12:45:31Z</time>
      </trkpt>
      <trkpt lat="43.96944" lon="5.12215">
        <ele>395.6</ele>
        <time>2013-03-07T12:45:33Z</time>
      </trkpt>
      <trkpt lat="43.96943" lon="5.12217">
        <ele>396.5</ele>
        <time>2013-03-07T12:45:34Z</time>
      </trkpt>
      <trkpt lat="43.96944" lon="5.12221">
        <ele>397.7</ele>
        <time>2013-03-07T12:45:36Z</time>
      </trkpt>
      <trkpt lat="43.96944" lon="5.12223">
        <ele>397.4</ele>
        <time>2013-03-07T12:45:37Z</time>
      </trkpt>
      <trkpt lat="43.96945" lon="5.12228">
        <ele>396.7</ele>
        <time>2013-03-07T12:45:39Z</time>
      </trkpt>
      <trkpt lat="43.96944" lon="5.12231">
        <ele>396.8</ele>
        <time>2013-03-07T12:45:40Z</time>
      </trkpt>
      <trkpt lat="43.96945" lon="5.12233">
        <ele>397.3</ele>
        <time>2013-03-07T12:45:41Z</time>
      </trkpt>
      <trkpt lat="43.96945" lon="5.12237">
        <ele>397</ele>
        <time>2013-03-07T12:45:42Z</time>
      </trkpt>
      <trkpt lat="43.96945" lon="5.12242">
        <ele>398.3</ele>
        <time>2013-03-07T12:45:44Z</time>
      </trkpt>
      <trkpt lat="43.96948" lon="5.12246">
        <ele>399.3</ele>
        <time>2013-03-07T12:45:45Z</time>
      </trkpt>
      <trkpt lat="43.96955" lon="5.12248">
        <ele>397.2</ele>
        <time>2013-03-07T12:45:46Z</time>
      </trkpt>
      <trkpt lat="43.96957" lon="5.12251">
        <ele>397.4</ele>
        <time>2013-03-07T12:45:47Z</time>
      </trkpt>
      <trkpt lat="43.96959" lon="5.12253">
        <ele>396.1</ele>
        <time>2013-03-07T12:45:48Z</time>
      </trkpt>
      <trkpt lat="43.96962" lon="5.12256">
        <ele>397.5</ele>
        <time>2013-03-07T12:45:53Z</time>
      </trkpt>
      <trkpt lat="43.96963" lon="5.12256">
        <ele>397.6</ele>
        <time>2013-03-07T12:45:54Z</time>
      </trkpt>
      <trkpt lat="43.96965" lon="5.12253">
        <ele>398.1</ele>
        <time>2013-03-07T12:45:57Z</time>
      </trkpt>
      <trkpt lat="43.96966" lon="5.12251">
        <ele>398.4</ele>
        <time>2013-03-07T12:45:58Z</time>
      </trkpt>
      <trkpt lat="43.9697" lon="5.12251">
        <ele>397.6</ele>
        <time>2013-03-07T12:46:02Z</time>
      </trkpt>
      <trkpt lat="43.96971" lon="5.12251">
        <ele>397</ele>
        <time>2013-03-07T12:46:03Z</time>
      </trkpt>
      <trkpt lat="43.96971" lon="5.1225">
        <ele>397.1</ele>
        <time>2013-03-07T12:46:20Z</time>
      </trkpt>
      <trkpt lat="43.96972" lon="5.12244">
        <ele>397.3</ele>
        <time>2013-03-07T12:46:21Z</time>
      </trkpt>
      <trkpt lat="43.96973" lon="5.12237">
        <ele>397.4</ele>
        <time>2013-03-07T12:46:22Z</time>
      </trkpt>
      <trkpt lat="43.96975" lon="5.12232">
        <ele>397.1</ele>
        <time>2013-03-07T12:46:23Z</time>
      </trkpt>
      <trkpt lat="43.96976" lon="5.12225">
        <ele>396.5</ele>
        <time>2013-03-07T12:46:24Z</time>
      </trkpt>
      <trkpt lat="43.96978" lon="5.1222">
        <ele>396.3</ele>
        <time>2013-03-07T12:46:25Z</time>
      </trkpt>
      <trkpt lat="43.96979" lon="5.12215">
        <ele>399.1</ele>
        <time>2013-03-07T12:46:26Z</time>
      </trkpt>
      <trkpt lat="43.96981" lon="5.12212">
        <ele>399.6</ele>
        <time>2013-03-07T12:46:27Z</time>
      </trkpt>
      <trkpt lat="43.96982" lon="5.12209">
        <ele>400</ele>
        <time>2013-03-07T12:46:28Z</time>
      </trkpt>
      <trkpt lat="43.96983" lon="5.12205">
        <ele>396.7</ele>
        <time>2013-03-07T12:46:32Z</time>
      </trkpt>
      <trkpt lat="43.96984" lon="5.12204">
        <ele>395</ele>
        <time>2013-03-07T12:46:33Z</time>
      </trkpt>
      <trkpt lat="43.96986" lon="5.12199">
        <ele>395.5</ele>
        <time>2013-03-07T12:46:35Z</time>
      </trkpt>
      <trkpt lat="43.96987" lon="5.12197">
        <ele>395.7</ele>
        <time>2013-03-07T12:46:36Z</time>
      </trkpt>
      <trkpt lat="43.96987" lon="5.12194">
        <ele>394.3</ele>
        <time>2013-03-07T12:46:38Z</time>
      </trkpt>
      <trkpt lat="43.96987" lon="5.12191">
        <ele>393.8</ele>
        <time>2013-03-07T12:46:39Z</time>
      </trkpt>
      <trkpt lat="43.96988" lon="5.12187">
        <ele>392.3</ele>
        <time>2013-03-07T12:46:42Z</time>
      </trkpt>
      <trkpt lat="43.96988" lon="5.12185">
        <ele>391.8</ele>
        <time>2013-03-07T12:46:43Z</time>
      </trkpt>
      <trkpt lat="43.96989" lon="5.1218">
        <ele>391.7</ele>
        <time>2013-03-07T12:46:45Z</time>
      </trkpt>
      <trkpt lat="43.9699" lon="5.12177">
        <ele>392.2</ele>
        <time>2013-03-07T12:46:46Z</time>
      </trkpt>
      <trkpt lat="43.96991" lon="5.12172">
        <ele>392</ele>
        <time>2013-03-07T12:46:47Z</time>
      </trkpt>
      <trkpt lat="43.96996" lon="5.12164">
        <ele>391.4</ele>
        <time>2013-03-07T12:46:48Z</time>
      </trkpt>
      <trkpt lat="43.96998" lon="5.12159">
        <ele>390.8</ele>
        <time>2013-03-07T12:46:49Z</time>
      </trkpt>
      <trkpt lat="43.97001" lon="5.12156">
        <ele>389.6</ele>
        <time>2013-03-07T12:46:50Z</time>
      </trkpt>
      <trkpt lat="43.97003" lon="5.12152">
        <ele>389.1</ele>
        <time>2013-03-07T12:46:51Z</time>
      </trkpt>
      <trkpt lat="43.97005" lon="5.12149">
        <ele>389.3</ele>
        <time>2013-03-07T12:46:52Z</time>
      </trkpt>
      <trkpt lat="43.97008" lon="5.12146">
        <ele>389.2</ele>
        <time>2013-03-07T12:46:53Z</time>
      </trkpt>
      <trkpt lat="43.9701" lon="5.12141">
        <ele>388.7</ele>
        <time>2013-03-07T12:46:54Z</time>
      </trkpt>
      <trkpt lat="43.97014" lon="5.1214">
        <ele>385</ele>
        <time>2013-03-07T12:46:55Z</time>
      </trkpt>
      <trkpt lat="43.97017" lon="5.12138">
        <ele>383.3</ele>
        <time>2013-03-07T12:46:56Z</time>
      </trkpt>
      <trkpt lat="43.97018" lon="5.12134">
        <ele>385.6</ele>
        <time>2013-03-07T12:46:57Z</time>
      </trkpt>
      <trkpt lat="43.9702" lon="5.1213">
        <ele>385.5</ele>
        <time>2013-03-07T12:46:58Z</time>
      </trkpt>
      <trkpt lat="43.97022" lon="5.12128">
        <ele>383.8</ele>
        <time>2013-03-07T12:46:59Z</time>
      </trkpt>
      <trkpt lat="43.97025" lon="5.12126">
        <ele>382.3</ele>
        <time>2013-03-07T12:47:00Z</time>
      </trkpt>
      <trkpt lat="43.97029" lon="5.12124">
        <ele>382.2</ele>
        <time>2013-03-07T12:47:01Z</time>
      </trkpt>
      <trkpt lat="43.97032" lon="5.12122">
        <ele>382.2</ele>
        <time>2013-03-07T12:47:02Z</time>
      </trkpt>
      <trkpt lat="43.97036" lon="5.12119">
        <ele>382</ele>
        <time>2013-03-07T12:47:03Z</time>
      </trkpt>
      <trkpt lat="43.97038" lon="5.12116">
        <ele>381.8</ele>
        <time>2013-03-07T12:47:04Z</time>
      </trkpt>
      <trkpt lat="43.97041" lon="5.12114">
        <ele>382.5</ele>
        <time>2013-03-07T12:47:05Z</time>
      </trkpt>
      <trkpt lat="43.97044" lon="5.12111">
        <ele>382.9</ele>
        <time>2013-03-07T12:47:06Z</time>
      </trkpt>
      <trkpt lat="43.97047" lon="5.12108">
        <ele>383.5</ele>
        <time>2013-03-07T12:47:07Z</time>
      </trkpt>
      <trkpt lat="43.97049" lon="5.12104">
        <ele>383.5</ele>
        <time>2013-03-07T12:47:08Z</time>
      </trkpt>
      <trkpt lat="43.97052" lon="5.12102">
        <ele>383.3</ele>
        <time>2013-03-07T12:47:09Z</time>
      </trkpt>
      <trkpt lat="43.97055" lon="5.12101">
        <ele>385.7</ele>
        <time>2013-03-07T12:47:10Z</time>
      </trkpt>
      <trkpt lat="43.97057" lon="5.12099">
        <ele>385.3</ele>
        <time>2013-03-07T12:47:11Z</time>
      </trkpt>
      <trkpt lat="43.97058" lon="5.12096">
        <ele>385.2</ele>
        <time>2013-03-07T12:47:12Z</time>
      </trkpt>
      <trkpt lat="43.97059" lon="5.1209">
        <ele>385</ele>
        <time>2013-03-07T12:47:14Z</time>
      </trkpt>
      <trkpt lat="43.9706" lon="5.12088">
        <ele>385.3</ele>
        <time>2013-03-07T12:47:15Z</time>
      </trkpt>
      <trkpt lat="43.97063" lon="5.12086">
        <ele>387.8</ele>
        <time>2013-03-07T12:47:17Z</time>
      </trkpt>
      <trkpt lat="43.97065" lon="5.12083">
        <ele>388.7</ele>
        <time>2013-03-07T12:47:18Z</time>
      </trkpt>
      <trkpt lat="43.97067" lon="5.12081">
        <ele>388.2</ele>
        <time>2013-03-07T12:47:19Z</time>
      </trkpt>
      <trkpt lat="43.97068" lon="5.12079">
        <ele>388.7</ele>
        <time>2013-03-07T12:47:20Z</time>
      </trkpt>
      <trkpt lat="43.97071" lon="5.12074">
        <ele>387.4</ele>
        <time>2013-03-07T12:47:22Z</time>
      </trkpt>
      <trkpt lat="43.97073" lon="5.12071">
        <ele>387.2</ele>
        <time>2013-03-07T12:47:23Z</time>
      </trkpt>
      <trkpt lat="43.97074" lon="5.12068">
        <ele>386.4</ele>
        <time>2013-03-07T12:47:24Z</time>
      </trkpt>
      <trkpt lat="43.97078" lon="5.12065">
        <ele>385.6</ele>
        <time>2013-03-07T12:47:25Z</time>
      </trkpt>
      <trkpt lat="43.97081" lon="5.12063">
        <ele>384.2</ele>
        <time>2013-03-07T12:47:26Z</time>
      </trkpt>
      <trkpt lat="43.97083" lon="5.1206">
        <ele>383.1</ele>
        <time>2013-03-07T12:47:27Z</time>
      </trkpt>
      <trkpt lat="43.97086" lon="5.12051">
        <ele>383</ele>
        <time>2013-03-07T12:47:28Z</time>
      </trkpt>
      <trkpt lat="43.97089" lon="5.12046">
        <ele>382.4</ele>
        <time>2013-03-07T12:47:29Z</time>
      </trkpt>
      <trkpt lat="43.97091" lon="5.12043">
        <ele>382.4</ele>
        <time>2013-03-07T12:47:30Z</time>
      </trkpt>
      <trkpt lat="43.97094" lon="5.12039">
        <ele>382</ele>
        <time>2013-03-07T12:47:31Z</time>
      </trkpt>
      <trkpt lat="43.97096" lon="5.12036">
        <ele>382.3</ele>
        <time>2013-03-07T12:47:32Z</time>
      </trkpt>
      <trkpt lat="43.97099" lon="5.12033">
        <ele>382.8</ele>
        <time>2013-03-07T12:47:33Z</time>
      </trkpt>
      <trkpt lat="43.971" lon="5.12029">
        <ele>380.6</ele>
        <time>2013-03-07T12:47:34Z</time>
      </trkpt>
      <trkpt lat="43.97102" lon="5.12026">
        <ele>380.8</ele>
        <time>2013-03-07T12:47:35Z</time>
      </trkpt>
      <trkpt lat="43.97104" lon="5.12023">
        <ele>380.4</ele>
        <time>2013-03-07T12:47:36Z</time>
      </trkpt>
      <trkpt lat="43.97106" lon="5.1202">
        <ele>379.9</ele>
        <time>2013-03-07T12:47:37Z</time>
      </trkpt>
      <trkpt lat="43.9711" lon="5.12018">
        <ele>384.2</ele>
        <time>2013-03-07T12:47:39Z</time>
      </trkpt>
      <trkpt lat="43.97112" lon="5.12016">
        <ele>384.8</ele>
        <time>2013-03-07T12:47:40Z</time>
      </trkpt>
      <trkpt lat="43.97114" lon="5.12014">
        <ele>384.9</ele>
        <time>2013-03-07T12:47:41Z</time>
      </trkpt>
      <trkpt lat="43.97116" lon="5.12013">
        <ele>385.7</ele>
        <time>2013-03-07T12:47:42Z</time>
      </trkpt>
      <trkpt lat="43.9712" lon="5.12012">
        <ele>385.7</ele>
        <time>2013-03-07T12:47:44Z</time>
      </trkpt>
      <trkpt lat="43.97122" lon="5.1201">
        <ele>386.8</ele>
        <time>2013-03-07T12:47:45Z</time>
      </trkpt>
      <trkpt lat="43.97123" lon="5.12007">
        <ele>388.4</ele>
        <time>2013-03-07T12:47:46Z</time>
      </trkpt>
      <trkpt lat="43.97126" lon="5.12005">
        <ele>388.2</ele>
        <time>2013-03-07T12:47:47Z</time>
      </trkpt>
      <trkpt lat="43.97128" lon="5.12002">
        <ele>387.8</ele>
        <time>2013-03-07T12:47:48Z</time>
      </trkpt>
      <trkpt lat="43.9713" lon="5.12">
        <ele>388.7</ele>
        <time>2013-03-07T12:47:49Z</time>
      </trkpt>
      <trkpt lat="43.97133" lon="5.11997">
        <ele>389.5</ele>
        <time>2013-03-07T12:47:51Z</time>
      </trkpt>
      <trkpt lat="43.97134" lon="5.11994">
        <ele>389.9</ele>
        <time>2013-03-07T12:47:52Z</time>
      </trkpt>
      <trkpt lat="43.97137" lon="5.1199">
        <ele>392</ele>
        <time>2013-03-07T12:47:54Z</time>
      </trkpt>
      <trkpt lat="43.97142" lon="5.1199">
        <ele>386.3</ele>
        <time>2013-03-07T12:47:55Z</time>
      </trkpt>
      <trkpt lat="43.97144" lon="5.11988">
        <ele>387.4</ele>
        <time>2013-03-07T12:47:56Z</time>
      </trkpt>
      <trkpt lat="43.97146" lon="5.11986">
        <ele>387.7</ele>
        <time>2013-03-07T12:47:57Z</time>
      </trkpt>
      <trkpt lat="43.97149" lon="5.11983">
        <ele>387.4</ele>
        <time>2013-03-07T12:47:59Z</time>
      </trkpt>
      <trkpt lat="43.97151" lon="5.11982">
        <ele>387</ele>
        <time>2013-03-07T12:48:00Z</time>
      </trkpt>
      <trkpt lat="43.97153" lon="5.1198">
        <ele>386.6</ele>
        <time>2013-03-07T12:48:01Z</time>
      </trkpt>
      <trkpt lat="43.97156" lon="5.11979">
        <ele>386.3</ele>
        <time>2013-03-07T12:48:02Z</time>
      </trkpt>
      <trkpt lat="43.97159" lon="5.11979">
        <ele>385.9</ele>
        <time>2013-03-07T12:48:04Z</time>
      </trkpt>
      <trkpt lat="43.97162" lon="5.1198">
        <ele>385.7</ele>
        <time>2013-03-07T12:48:05Z</time>
      </trkpt>
      <trkpt lat="43.97164" lon="5.12028">
        <ele>384.6</ele>
        <time>2013-03-07T12:48:06Z</time>
      </trkpt>
      <trkpt lat="43.97166" lon="5.12026">
        <ele>383.6</ele>
        <time>2013-03-07T12:48:07Z</time>
      </trkpt>
      <trkpt lat="43.97163" lon="5.11998">
        <ele>383.7</ele>
        <time>2013-03-07T12:48:08Z</time>
      </trkpt>
      <trkpt lat="43.97166" lon="5.11998">
        <ele>380.6</ele>
        <time>2013-03-07T12:48:12Z</time>
      </trkpt>
      <trkpt lat="43.97168" lon="5.11998">
        <ele>379.8</ele>
        <time>2013-03-07T12:48:13Z</time>
      </trkpt>
      <trkpt lat="43.97167" lon="5.12003">
        <ele>378.6</ele>
        <time>2013-03-07T12:48:18Z</time>
      </trkpt>
      <trkpt lat="43.97167" lon="5.12004">
        <ele>378.1</ele>
        <time>2013-03-07T12:48:19Z</time>
      </trkpt>
      <trkpt lat="43.97167" lon="5.12002">
        <ele>375.7</ele>
        <time>2013-03-07T12:48:50Z</time>
      </trkpt>
      <trkpt lat="43.97165" lon="5.11993">
        <ele>376.1</ele>
        <time>2013-03-07T12:48:51Z</time>
      </trkpt>
      <trkpt lat="43.97167" lon="5.11985">
        <ele>377.2</ele>
        <time>2013-03-07T12:48:52Z</time>
      </trkpt>
      <trkpt lat="43.97167" lon="5.11978">
        <ele>377.5</ele>
        <time>2013-03-07T12:48:53Z</time>
      </trkpt>
      <trkpt lat="43.97166" lon="5.11972">
        <ele>372.5</ele>
        <time>2013-03-07T12:48:59Z</time>
      </trkpt>
      <trkpt lat="43.97166" lon="5.11971">
        <ele>372.6</ele>
        <time>2013-03-07T12:49:00Z</time>
      </trkpt>
      <trkpt lat="43.97169" lon="5.11966">
        <ele>376.5</ele>
        <time>2013-03-07T12:49:03Z</time>
      </trkpt>
      <trkpt lat="43.9717" lon="5.11963">
        <ele>377.9</ele>
        <time>2013-03-07T12:49:04Z</time>
      </trkpt>
      <trkpt lat="43.97173" lon="5.11961">
        <ele>379.1</ele>
        <time>2013-03-07T12:49:06Z</time>
      </trkpt>
      <trkpt lat="43.97175" lon="5.11959">
        <ele>379.2</ele>
        <time>2013-03-07T12:49:07Z</time>
      </trkpt>
      <trkpt lat="43.97177" lon="5.11955">
        <ele>380.9</ele>
        <time>2013-03-07T12:49:09Z</time>
      </trkpt>
      <trkpt lat="43.9718" lon="5.11953">
        <ele>381.8</ele>
        <time>2013-03-07T12:49:10Z</time>
      </trkpt>
      <trkpt lat="43.97184" lon="5.11954">
        <ele>387.1</ele>
        <time>2013-03-07T12:49:22Z</time>
      </trkpt>
      <trkpt lat="43.97185" lon="5.11954">
        <ele>387.8</ele>
        <time>2013-03-07T12:49:23Z</time>
      </trkpt>
      <trkpt lat="43.97189" lon="5.11952">
        <ele>388.2</ele>
        <time>2013-03-07T12:49:28Z</time>
      </trkpt>
      <trkpt lat="43.97192" lon="5.11952">
        <ele>388.3</ele>
        <time>2013-03-07T12:49:29Z</time>
      </trkpt>
      <trkpt lat="43.97196" lon="5.11951">
        <ele>386.2</ele>
        <time>2013-03-07T12:49:31Z</time>
      </trkpt>
      <trkpt lat="43.97198" lon="5.11951">
        <ele>385.5</ele>
        <time>2013-03-07T12:49:32Z</time>
      </trkpt>
      <trkpt lat="43.97202" lon="5.11949">
        <ele>385.3</ele>
        <time>2013-03-07T12:49:35Z</time>
      </trkpt>
      <trkpt lat="43.97204" lon="5.11947">
        <ele>384.9</ele>
        <time>2013-03-07T12:49:36Z</time>
      </trkpt>
      <trkpt lat="43.97206" lon="5.11945">
        <ele>385.1</ele>
        <time>2013-03-07T12:49:37Z</time>
      </trkpt>
      <trkpt lat="43.97209" lon="5.11942">
        <ele>385.1</ele>
        <time>2013-03-07T12:49:38Z</time>
      </trkpt>
      <trkpt lat="43.97211" lon="5.11941">
        <ele>384.2</ele>
        <time>2013-03-07T12:49:39Z</time>
      </trkpt>
      <trkpt lat="43.97213" lon="5.1194">
        <ele>380.3</ele>
        <time>2013-03-07T12:49:40Z</time>
      </trkpt>
      <trkpt lat="43.97216" lon="5.11938">
        <ele>378.3</ele>
        <time>2013-03-07T12:49:41Z</time>
      </trkpt>
      <trkpt lat="43.97219" lon="5.11934">
        <ele>381.4</ele>
        <time>2013-03-07T12:49:42Z</time>
      </trkpt>
      <trkpt lat="43.97222" lon="5.1193">
        <ele>381.4</ele>
        <time>2013-03-07T12:49:43Z</time>
      </trkpt>
      <trkpt lat="43.97225" lon="5.11928">
        <ele>380.4</ele>
        <time>2013-03-07T12:49:44Z</time>
      </trkpt>
      <trkpt lat="43.97227" lon="5.11927">
        <ele>381.9</ele>
        <time>2013-03-07T12:49:45Z</time>
      </trkpt>
      <trkpt lat="43.97229" lon="5.11926">
        <ele>380.2</ele>
        <time>2013-03-07T12:49:46Z</time>
      </trkpt>
      <trkpt lat="43.97233" lon="5.11923">
        <ele>378.3</ele>
        <time>2013-03-07T12:49:48Z</time>
      </trkpt>
      <trkpt lat="43.97235" lon="5.11922">
        <ele>378</ele>
        <time>2013-03-07T12:49:49Z</time>
      </trkpt>
      <trkpt lat="43.97237" lon="5.1192">
        <ele>379.4</ele>
        <time>2013-03-07T12:49:50Z</time>
      </trkpt>
      <trkpt lat="43.97239" lon="5.11919">
        <ele>380.8</ele>
        <time>2013-03-07T12:49:51Z</time>
      </trkpt>
      <trkpt lat="43.97243" lon="5.11917">
        <ele>381.6</ele>
        <time>2013-03-07T12:49:53Z</time>
      </trkpt>
      <trkpt lat="43.97246" lon="5.11918">
        <ele>378.2</ele>
        <time>2013-03-07T12:49:54Z</time>
      </trkpt>
      <trkpt lat="43.97249" lon="5.11915">
        <ele>378.3</ele>
        <time>2013-03-07T12:49:56Z</time>
      </trkpt>
      <trkpt lat="43.97251" lon="5.11915">
        <ele>377.1</ele>
        <time>2013-03-07T12:49:57Z</time>
      </trkpt>
      <trkpt lat="43.97254" lon="5.11913">
        <ele>381.2</ele>
        <time>2013-03-07T12:50:00Z</time>
      </trkpt>
      <trkpt lat="43.97256" lon="5.11912">
        <ele>382.8</ele>
        <time>2013-03-07T12:50:01Z</time>
      </trkpt>
      <trkpt lat="43.9726" lon="5.11913">
        <ele>383.8</ele>
        <time>2013-03-07T12:50:04Z</time>
      </trkpt>
      <trkpt lat="43.97262" lon="5.11915">
        <ele>384.3</ele>
        <time>2013-03-07T12:50:05Z</time>
      </trkpt>
      <trkpt lat="43.97258" lon="5.11915">
        <ele>397.5</ele>
        <time>2013-03-07T12:50:14Z</time>
      </trkpt>
      <trkpt lat="43.97256" lon="5.11918">
        <ele>393</ele>
        <time>2013-03-07T12:50:15Z</time>
      </trkpt>
      <trkpt lat="43.97252" lon="5.11919">
        <ele>393.7</ele>
        <time>2013-03-07T12:50:17Z</time>
      </trkpt>
      <trkpt lat="43.9725" lon="5.11919">
        <ele>394.2</ele>
        <time>2013-03-07T12:50:18Z</time>
      </trkpt>
      <trkpt lat="43.9725" lon="5.11924">
        <ele>393</ele>
        <time>2013-03-07T12:50:54Z</time>
      </trkpt>
      <trkpt lat="43.9725" lon="5.11925">
        <ele>393.5</ele>
        <time>2013-03-07T12:50:55Z</time>
      </trkpt>
      <trkpt lat="43.97247" lon="5.11929">
        <ele>395.1</ele>
        <time>2013-03-07T12:50:56Z</time>
      </trkpt>
      <trkpt lat="43.97245" lon="5.11931">
        <ele>396.6</ele>
        <time>2013-03-07T12:50:57Z</time>
      </trkpt>
      <trkpt lat="43.97244" lon="5.11936">
        <ele>398.4</ele>
        <time>2013-03-07T12:50:59Z</time>
      </trkpt>
      <trkpt lat="43.97242" lon="5.11939">
        <ele>400.5</ele>
        <time>2013-03-07T12:51:00Z</time>
      </trkpt>
      <trkpt lat="43.97241" lon="5.11937">
        <ele>401.4</ele>
        <time>2013-03-07T12:51:01Z</time>
      </trkpt>
      <trkpt lat="43.97239" lon="5.11931">
        <ele>404.3</ele>
        <time>2013-03-07T12:51:02Z</time>
      </trkpt>
      <trkpt lat="43.97237" lon="5.11932">
        <ele>406.9</ele>
        <time>2013-03-07T12:51:03Z</time>
      </trkpt>
      <trkpt lat="43.97236" lon="5.11939">
        <ele>406.5</ele>
        <time>2013-03-07T12:51:04Z</time>
      </trkpt>
      <trkpt lat="43.97232" lon="5.1194">
        <ele>406.8</ele>
        <time>2013-03-07T12:51:06Z</time>
      </trkpt>
      <trkpt lat="43.9723" lon="5.11941">
        <ele>408</ele>
        <time>2013-03-07T12:51:07Z</time>
      </trkpt>
      <trkpt lat="43.97229" lon="5.11943">
        <ele>408.3</ele>
        <time>2013-03-07T12:51:08Z</time>
      </trkpt>
      <trkpt lat="43.97227" lon="5.11945">
        <ele>408.7</ele>
        <time>2013-03-07T12:51:09Z</time>
      </trkpt>
      <trkpt lat="43.97222" lon="5.11947">
        <ele>408</ele>
        <time>2013-03-07T12:51:11Z</time>
      </trkpt>
      <trkpt lat="43.97221" lon="5.11947">
        <ele>406.5</ele>
        <time>2013-03-07T12:51:12Z</time>
      </trkpt>
      <trkpt lat="43.97217" lon="5.1195">
        <ele>403.9</ele>
        <time>2013-03-07T12:51:14Z</time>
      </trkpt>
      <trkpt lat="43.97216" lon="5.1195">
        <ele>403.1</ele>
        <time>2013-03-07T12:51:15Z</time>
      </trkpt>
      <trkpt lat="43.97214" lon="5.11953">
        <ele>402.2</ele>
        <time>2013-03-07T12:51:16Z</time>
      </trkpt>
      <trkpt lat="43.97211" lon="5.11957">
        <ele>401.3</ele>
        <time>2013-03-07T12:51:17Z</time>
      </trkpt>
      <trkpt lat="43.97208" lon="5.11963">
        <ele>400.4</ele>
        <time>2013-03-07T12:51:18Z</time>
      </trkpt>
      <trkpt lat="43.97204" lon="5.11977">
        <ele>398.8</ele>
        <time>2013-03-07T12:51:19Z</time>
      </trkpt>
      <trkpt lat="43.97212" lon="5.11991">
        <ele>398.4</ele>
        <time>2013-03-07T12:51:20Z</time>
      </trkpt>
      <trkpt lat="43.97217" lon="5.12002">
        <ele>398.4</ele>
        <time>2013-03-07T12:51:21Z</time>
      </trkpt>
      <trkpt lat="43.97222" lon="5.12007">
        <ele>397.6</ele>
        <time>2013-03-07T12:51:22Z</time>
      </trkpt>
      <trkpt lat="43.97218" lon="5.12009">
        <ele>397</ele>
        <time>2013-03-07T12:51:23Z</time>
      </trkpt>
      <trkpt lat="43.97216" lon="5.12002">
        <ele>397</ele>
        <time>2013-03-07T12:51:24Z</time>
      </trkpt>
      <trkpt lat="43.97214" lon="5.1199">
        <ele>399.6</ele>
        <time>2013-03-07T12:51:25Z</time>
      </trkpt>
      <trkpt lat="43.97212" lon="5.11987">
        <ele>400</ele>
        <time>2013-03-07T12:51:26Z</time>
      </trkpt>
      <trkpt lat="43.97209" lon="5.11983">
        <ele>405</ele>
        <time>2013-03-07T12:51:27Z</time>
      </trkpt>
      <trkpt lat="43.97206" lon="5.1198">
        <ele>402.9</ele>
        <time>2013-03-07T12:51:29Z</time>
      </trkpt>
      <trkpt lat="43.97204" lon="5.11978">
        <ele>402.9</ele>
        <time>2013-03-07T12:51:30Z</time>
      </trkpt>
      <trkpt lat="43.97201" lon="5.1198">
        <ele>403.5</ele>
        <time>2013-03-07T12:51:34Z</time>
      </trkpt>
      <trkpt lat="43.97199" lon="5.11979">
        <ele>403.6</ele>
        <time>2013-03-07T12:51:35Z</time>
      </trkpt>
      <trkpt lat="43.972" lon="5.11978">
        <ele>403.4</ele>
        <time>2013-03-07T12:51:36Z</time>
      </trkpt>
      <trkpt lat="43.97205" lon="5.11981">
        <ele>405.8</ele>
        <time>2013-03-07T12:51:37Z</time>
      </trkpt>
      <trkpt lat="43.97207" lon="5.11986">
        <ele>397.9</ele>
        <time>2013-03-07T12:53:12Z</time>
      </trkpt>
      <trkpt lat="43.97209" lon="5.11987">
        <ele>398.1</ele>
        <time>2013-03-07T12:53:13Z</time>
      </trkpt>
      <trkpt lat="43.97212" lon="5.1199">
        <ele>397.7</ele>
        <time>2013-03-07T12:53:16Z</time>
      </trkpt>
      <trkpt lat="43.97214" lon="5.11989">
        <ele>397.9</ele>
        <time>2013-03-07T12:53:17Z</time>
      </trkpt>
      <trkpt lat="43.97216" lon="5.11994">
        <ele>397.8</ele>
        <time>2013-03-07T12:53:19Z</time>
      </trkpt>
      <trkpt lat="43.97217" lon="5.11994">
        <ele>397.6</ele>
        <time>2013-03-07T12:53:20Z</time>
      </trkpt>
      <trkpt lat="43.97218" lon="5.11996">
        <ele>397.7</ele>
        <time>2013-03-07T12:53:21Z</time>
      </trkpt>
      <trkpt lat="43.9722" lon="5.11999">
        <ele>398.3</ele>
        <time>2013-03-07T12:53:22Z</time>
      </trkpt>
      <trkpt lat="43.97221" lon="5.12001">
        <ele>398.2</ele>
        <time>2013-03-07T12:53:23Z</time>
      </trkpt>
      <trkpt lat="43.97223" lon="5.12006">
        <ele>398.5</ele>
        <time>2013-03-07T12:53:24Z</time>
      </trkpt>
      <trkpt lat="43.97224" lon="5.1201">
        <ele>401.3</ele>
        <time>2013-03-07T12:53:27Z</time>
      </trkpt>
      <trkpt lat="43.97225" lon="5.12012">
        <ele>401.5</ele>
        <time>2013-03-07T12:53:28Z</time>
      </trkpt>
      <trkpt lat="43.97226" lon="5.12015">
        <ele>402.6</ele>
        <time>2013-03-07T12:53:30Z</time>
      </trkpt>
      <trkpt lat="43.97228" lon="5.12017">
        <ele>402.3</ele>
        <time>2013-03-07T12:53:31Z</time>
      </trkpt>
      <trkpt lat="43.9723" lon="5.12021">
        <ele>402.8</ele>
        <time>2013-03-07T12:53:33Z</time>
      </trkpt>
      <trkpt lat="43.97231" lon="5.12024">
        <ele>402.9</ele>
        <time>2013-03-07T12:53:34Z</time>
      </trkpt>
      <trkpt lat="43.97233" lon="5.12029">
        <ele>403</ele>
        <time>2013-03-07T12:53:37Z</time>
      </trkpt>
      <trkpt lat="43.97234" lon="5.1203">
        <ele>403.7</ele>
        <time>2013-03-07T12:53:38Z</time>
      </trkpt>
      <trkpt lat="43.97237" lon="5.12034">
        <ele>403.6</ele>
        <time>2013-03-07T12:53:40Z</time>
      </trkpt>
      <trkpt lat="43.97238" lon="5.12036">
        <ele>403.6</ele>
        <time>2013-03-07T12:53:41Z</time>
      </trkpt>
      <trkpt lat="43.9724" lon="5.12038">
        <ele>404</ele>
        <time>2013-03-07T12:53:42Z</time>
      </trkpt>
      <trkpt lat="43.97242" lon="5.1204">
        <ele>404</ele>
        <time>2013-03-07T12:53:43Z</time>
      </trkpt>
      <trkpt lat="43.97244" lon="5.12043">
        <ele>404.2</ele>
        <time>2013-03-07T12:53:44Z</time>
      </trkpt>
      <trkpt lat="43.97245" lon="5.12046">
        <ele>403.8</ele>
        <time>2013-03-07T12:53:45Z</time>
      </trkpt>
      <trkpt lat="43.97248" lon="5.12049">
        <ele>403.8</ele>
        <time>2013-03-07T12:53:51Z</time>
      </trkpt>
      <trkpt lat="43.97249" lon="5.12051">
        <ele>403.7</ele>
        <time>2013-03-07T12:53:52Z</time>
      </trkpt>
      <trkpt lat="43.97246" lon="5.12048">
        <ele>397.5</ele>
        <time>2013-03-07T12:54:08Z</time>
      </trkpt>
      <trkpt lat="43.97244" lon="5.12046">
        <ele>397.1</ele>
        <time>2013-03-07T12:54:09Z</time>
      </trkpt>
      <trkpt lat="43.97243" lon="5.12043">
        <ele>397.2</ele>
        <time>2013-03-07T12:54:10Z</time>
      </trkpt>
      <trkpt lat="43.97241" lon="5.12041">
        <ele>397.3</ele>
        <time>2013-03-07T12:54:11Z</time>
      </trkpt>
      <trkpt lat="43.97239" lon="5.12038">
        <ele>397.4</ele>
        <time>2013-03-07T12:54:12Z</time>
      </trkpt>
      <trkpt lat="43.97237" lon="5.12035">
        <ele>397.4</ele>
        <time>2013-03-07T12:54:13Z</time>
      </trkpt>
      <trkpt lat="43.97235" lon="5.1203">
        <ele>396.3</ele>
        <time>2013-03-07T12:54:14Z</time>
      </trkpt>
      <trkpt lat="43.97233" lon="5.12027">
        <ele>396.1</ele>
        <time>2013-03-07T12:54:15Z</time>
      </trkpt>
      <trkpt lat="43.97232" lon="5.12023">
        <ele>395.6</ele>
        <time>2013-03-07T12:54:16Z</time>
      </trkpt>
      <trkpt lat="43.9723" lon="5.12018">
        <ele>395.3</ele>
        <time>2013-03-07T12:54:17Z</time>
      </trkpt>
      <trkpt lat="43.97228" lon="5.12014">
        <ele>395.3</ele>
        <time>2013-03-07T12:54:18Z</time>
      </trkpt>
      <trkpt lat="43.97226" lon="5.12011">
        <ele>395.6</ele>
        <time>2013-03-07T12:54:19Z</time>
      </trkpt>
      <trkpt lat="43.97224" lon="5.12007">
        <ele>395.8</ele>
        <time>2013-03-07T12:54:20Z</time>
      </trkpt>
      <trkpt lat="43.97222" lon="5.12004">
        <ele>396</ele>
        <time>2013-03-07T12:54:21Z</time>
      </trkpt>
      <trkpt lat="43.9722" lon="5.12">
        <ele>396</ele>
        <time>2013-03-07T12:54:22Z</time>
      </trkpt>
      <trkpt lat="43.97218" lon="5.11997">
        <ele>395.5</ele>
        <time>2013-03-07T12:54:23Z</time>
      </trkpt>
      <trkpt lat="43.97217" lon="5.11995">
        <ele>394.8</ele>
        <time>2013-03-07T12:54:24Z</time>
      </trkpt>
      <trkpt lat="43.97215" lon="5.11991">
        <ele>394.2</ele>
        <time>2013-03-07T12:54:25Z</time>
      </trkpt>
      <trkpt lat="43.97212" lon="5.11989">
        <ele>394.3</ele>
        <time>2013-03-07T12:54:26Z</time>
      </trkpt>
      <trkpt lat="43.9721" lon="5.11986">
        <ele>394.3</ele>
        <time>2013-03-07T12:54:27Z</time>
      </trkpt>
      <trkpt lat="43.97207" lon="5.11982">
        <ele>393.4</ele>
        <time>2013-03-07T12:54:29Z</time>
      </trkpt>
      <trkpt lat="43.97207" lon="5.11981">
        <ele>393.2</ele>
        <time>2013-03-07T12:54:30Z</time>
      </trkpt>
      <trkpt lat="43.97215" lon="5.11979">
        <ele>394.6</ele>
        <time>2013-03-07T12:54:31Z</time>
      </trkpt>
      <trkpt lat="43.97218" lon="5.11975">
        <ele>393.9</ele>
        <time>2013-03-07T12:54:33Z</time>
      </trkpt>
      <trkpt lat="43.97219" lon="5.11973">
        <ele>393.8</ele>
        <time>2013-03-07T12:54:34Z</time>
      </trkpt>
      <trkpt lat="43.97221" lon="5.11971">
        <ele>393.9</ele>
        <time>2013-03-07T12:54:35Z</time>
      </trkpt>
      <trkpt lat="43.97223" lon="5.11969">
        <ele>394</ele>
        <time>2013-03-07T12:54:36Z</time>
      </trkpt>
      <trkpt lat="43.97225" lon="5.11968">
        <ele>393.9</ele>
        <time>2013-03-07T12:54:37Z</time>
      </trkpt>
      <trkpt lat="43.97227" lon="5.11966">
        <ele>393.8</ele>
        <time>2013-03-07T12:54:38Z</time>
      </trkpt>
      <trkpt lat="43.97229" lon="5.11964">
        <ele>393</ele>
        <time>2013-03-07T12:54:39Z</time>
      </trkpt>
      <trkpt lat="43.97232" lon="5.11962">
        <ele>393.6</ele>
        <time>2013-03-07T12:54:40Z</time>
      </trkpt>
      <trkpt lat="43.97234" lon="5.1196">
        <ele>393.9</ele>
        <time>2013-03-07T12:54:41Z</time>
      </trkpt>
      <trkpt lat="43.97237" lon="5.11958">
        <ele>393.7</ele>
        <time>2013-03-07T12:54:42Z</time>
      </trkpt>
      <trkpt lat="43.9724" lon="5.11957">
        <ele>393.5</ele>
        <time>2013-03-07T12:54:43Z</time>
      </trkpt>
      <trkpt lat="43.97243" lon="5.11954">
        <ele>393.5</ele>
        <time>2013-03-07T12:54:44Z</time>
      </trkpt>
      <trkpt lat="43.97245" lon="5.11952">
        <ele>392.8</ele>
        <time>2013-03-07T12:54:45Z</time>
      </trkpt>
      <trkpt lat="43.97249" lon="5.1195">
        <ele>393.5</ele>
        <time>2013-03-07T12:54:46Z</time>
      </trkpt>
      <trkpt lat="43.97252" lon="5.11947">
        <ele>394.2</ele>
        <time>2013-03-07T12:54:47Z</time>
      </trkpt>
      <trkpt lat="43.97255" lon="5.11944">
        <ele>394.1</ele>
        <time>2013-03-07T12:54:48Z</time>
      </trkpt>
      <trkpt lat="43.97258" lon="5.11941">
        <ele>394.2</ele>
        <time>2013-03-07T12:54:49Z</time>
      </trkpt>
      <trkpt lat="43.97261" lon="5.11938">
        <ele>394.3</ele>
        <time>2013-03-07T12:54:50Z</time>
      </trkpt>
      <trkpt lat="43.97264" lon="5.11935">
        <ele>394.2</ele>
        <time>2013-03-07T12:54:51Z</time>
      </trkpt>
      <trkpt lat="43.97267" lon="5.11931">
        <ele>393.7</ele>
        <time>2013-03-07T12:54:52Z</time>
      </trkpt>
      <trkpt lat="43.9727" lon="5.11929">
        <ele>393.7</ele>
        <time>2013-03-07T12:54:53Z</time>
      </trkpt>
      <trkpt lat="43.97273" lon="5.11926">
        <ele>393.7</ele>
        <time>2013-03-07T12:54:54Z</time>
      </trkpt>
      <trkpt lat="43.97276" lon="5.11924">
        <ele>394.1</ele>
        <time>2013-03-07T12:54:55Z</time>
      </trkpt>
      <trkpt lat="43.97279" lon="5.11921">
        <ele>394.2</ele>
        <time>2013-03-07T12:54:56Z</time>
      </trkpt>
      <trkpt lat="43.97282" lon="5.11919">
        <ele>393.9</ele>
        <time>2013-03-07T12:54:57Z</time>
      </trkpt>
      <trkpt lat="43.97285" lon="5.11916">
        <ele>393.7</ele>
        <time>2013-03-07T12:54:58Z</time>
      </trkpt>
      <trkpt lat="43.97289" lon="5.11914">
        <ele>393.9</ele>
        <time>2013-03-07T12:54:59Z</time>
      </trkpt>
      <trkpt lat="43.97292" lon="5.11912">
        <ele>394.3</ele>
        <time>2013-03-07T12:55:00Z</time>
      </trkpt>
      <trkpt lat="43.97295" lon="5.11909">
        <ele>394</ele>
        <time>2013-03-07T12:55:01Z</time>
      </trkpt>
      <trkpt lat="43.97297" lon="5.11906">
        <ele>394.2</ele>
        <time>2013-03-07T12:55:02Z</time>
      </trkpt>
      <trkpt lat="43.973" lon="5.11903">
        <ele>393.9</ele>
        <time>2013-03-07T12:55:03Z</time>
      </trkpt>
      <trkpt lat="43.97303" lon="5.11902">
        <ele>394.1</ele>
        <time>2013-03-07T12:55:04Z</time>
      </trkpt>
      <trkpt lat="43.97305" lon="5.11899">
        <ele>393.8</ele>
        <time>2013-03-07T12:55:05Z</time>
      </trkpt>
      <trkpt lat="43.97308" lon="5.11897">
        <ele>394.2</ele>
        <time>2013-03-07T12:55:06Z</time>
      </trkpt>
      <trkpt lat="43.9731" lon="5.11894">
        <ele>394.1</ele>
        <time>2013-03-07T12:55:07Z</time>
      </trkpt>
      <trkpt lat="43.97313" lon="5.11892">
        <ele>394.1</ele>
        <time>2013-03-07T12:55:08Z</time>
      </trkpt>
      <trkpt lat="43.97316" lon="5.1189">
        <ele>394</ele>
        <time>2013-03-07T12:55:09Z</time>
      </trkpt>
      <trkpt lat="43.97319" lon="5.11888">
        <ele>394</ele>
        <time>2013-03-07T12:55:10Z</time>
      </trkpt>
      <trkpt lat="43.97322" lon="5.11885">
        <ele>394.2</ele>
        <time>2013-03-07T12:55:11Z</time>
      </trkpt>
      <trkpt lat="43.97324" lon="5.11883">
        <ele>393.9</ele>
        <time>2013-03-07T12:55:12Z</time>
      </trkpt>
      <trkpt lat="43.97327" lon="5.11881">
        <ele>393.9</ele>
        <time>2013-03-07T12:55:13Z</time>
      </trkpt>
      <trkpt lat="43.97329" lon="5.11879">
        <ele>393.1</ele>
        <time>2013-03-07T12:55:14Z</time>
      </trkpt>
      <trkpt lat="43.97331" lon="5.11878">
        <ele>392.6</ele>
        <time>2013-03-07T12:55:15Z</time>
      </trkpt>
      <trkpt lat="43.97333" lon="5.11875">
        <ele>392.5</ele>
        <time>2013-03-07T12:55:16Z</time>
      </trkpt>
      <trkpt lat="43.97336" lon="5.11873">
        <ele>392.4</ele>
        <time>2013-03-07T12:55:17Z</time>
      </trkpt>
      <trkpt lat="43.97338" lon="5.11872">
        <ele>392.3</ele>
        <time>2013-03-07T12:55:18Z</time>
      </trkpt>
      <trkpt lat="43.97341" lon="5.11871">
        <ele>392.3</ele>
        <time>2013-03-07T12:55:19Z</time>
      </trkpt>
      <trkpt lat="43.97343" lon="5.1187">
        <ele>392.3</ele>
        <time>2013-03-07T12:55:20Z</time>
      </trkpt>
      <trkpt lat="43.97346" lon="5.11869">
        <ele>392.6</ele>
        <time>2013-03-07T12:55:21Z</time>
      </trkpt>
      <trkpt lat="43.97348" lon="5.1187">
        <ele>392.8</ele>
        <time>2013-03-07T12:55:22Z</time>
      </trkpt>
      <trkpt lat="43.97351" lon="5.1187">
        <ele>392.9</ele>
        <time>2013-03-07T12:55:23Z</time>
      </trkpt>
      <trkpt lat="43.97354" lon="5.11871">
        <ele>392.9</ele>
        <time>2013-03-07T12:55:24Z</time>
      </trkpt>
      <trkpt lat="43.97356" lon="5.11872">
        <ele>393</ele>
        <time>2013-03-07T12:55:25Z</time>
      </trkpt>
      <trkpt lat="43.97359" lon="5.11873">
        <ele>392.9</ele>
        <time>2013-03-07T12:55:26Z</time>
      </trkpt>
      <trkpt lat="43.97361" lon="5.11874">
        <ele>393.3</ele>
        <time>2013-03-07T12:55:27Z</time>
      </trkpt>
      <trkpt lat="43.97363" lon="5.11874">
        <ele>393.4</ele>
        <time>2013-03-07T12:55:28Z</time>
      </trkpt>
      <trkpt lat="43.97367" lon="5.11875">
        <ele>393.6</ele>
        <time>2013-03-07T12:55:30Z</time>
      </trkpt>
      <trkpt lat="43.97369" lon="5.11882">
        <ele>393.2</ele>
        <time>2013-03-07T12:55:31Z</time>
      </trkpt>
      <trkpt lat="43.97371" lon="5.11883">
        <ele>393.4</ele>
        <time>2013-03-07T12:55:32Z</time>
      </trkpt>
      <trkpt lat="43.97373" lon="5.11885">
        <ele>393.8</ele>
        <time>2013-03-07T12:55:33Z</time>
      </trkpt>
      <trkpt lat="43.97375" lon="5.11888">
        <ele>394.2</ele>
        <time>2013-03-07T12:55:34Z</time>
      </trkpt>
      <trkpt lat="43.97376" lon="5.11891">
        <ele>394.1</ele>
        <time>2013-03-07T12:55:35Z</time>
      </trkpt>
      <trkpt lat="43.97378" lon="5.11893">
        <ele>394.2</ele>
        <time>2013-03-07T12:55:36Z</time>
      </trkpt>
      <trkpt lat="43.97379" lon="5.11896">
        <ele>394.3</ele>
        <time>2013-03-07T12:55:37Z</time>
      </trkpt>
      <trkpt lat="43.97383" lon="5.11899">
        <ele>394.5</ele>
        <time>2013-03-07T12:55:39Z</time>
      </trkpt>
      <trkpt lat="43.97384" lon="5.11901">
        <ele>394.4</ele>
        <time>2013-03-07T12:55:40Z</time>
      </trkpt>
      <trkpt lat="43.97388" lon="5.11904">
        <ele>394.3</ele>
        <time>2013-03-07T12:55:42Z</time>
      </trkpt>
      <trkpt lat="43.97389" lon="5.11908">
        <ele>394.3</ele>
        <time>2013-03-07T12:55:43Z</time>
      </trkpt>
      <trkpt lat="43.97391" lon="5.1191">
        <ele>394</ele>
        <time>2013-03-07T12:55:45Z</time>
      </trkpt>
      <trkpt lat="43.97393" lon="5.11912">
        <ele>394</ele>
        <time>2013-03-07T12:55:46Z</time>
      </trkpt>
      <trkpt lat="43.97394" lon="5.11915">
        <ele>393.9</ele>
        <time>2013-03-07T12:55:47Z</time>
      </trkpt>
      <trkpt lat="43.97396" lon="5.11916">
        <ele>394.1</ele>
        <time>2013-03-07T12:55:48Z</time>
      </trkpt>
      <trkpt lat="43.97397" lon="5.11922">
        <ele>396.9</ele>
        <time>2013-03-07T12:55:59Z</time>
      </trkpt>
      <trkpt lat="43.97397" lon="5.11924">
        <ele>397.5</ele>
        <time>2013-03-07T12:56:00Z</time>
      </trkpt>
      <trkpt lat="43.974" lon="5.11926">
        <ele>396.9</ele>
        <time>2013-03-07T12:56:01Z</time>
      </trkpt>
      <trkpt lat="43.97401" lon="5.11927">
        <ele>395.9</ele>
        <time>2013-03-07T12:56:02Z</time>
      </trkpt>
      <trkpt lat="43.97404" lon="5.11928">
        <ele>399.6</ele>
        <time>2013-03-07T12:56:35Z</time>
      </trkpt>
      <trkpt lat="43.97406" lon="5.11927">
        <ele>399.6</ele>
        <time>2013-03-07T12:56:36Z</time>
      </trkpt>
      <trkpt lat="43.97409" lon="5.11923">
        <ele>402.1</ele>
        <time>2013-03-07T12:56:39Z</time>
      </trkpt>
      <trkpt lat="43.97411" lon="5.11922">
        <ele>402.5</ele>
        <time>2013-03-07T12:56:40Z</time>
      </trkpt>
      <trkpt lat="43.97414" lon="5.1192">
        <ele>402.5</ele>
        <time>2013-03-07T12:56:43Z</time>
      </trkpt>
      <trkpt lat="43.97415" lon="5.11919">
        <ele>402.7</ele>
        <time>2013-03-07T12:56:44Z</time>
      </trkpt>
      <trkpt lat="43.97416" lon="5.11919">
        <ele>403</ele>
        <time>2013-03-07T12:56:45Z</time>
      </trkpt>
      <trkpt lat="43.97419" lon="5.11916">
        <ele>403.3</ele>
        <time>2013-03-07T12:56:46Z</time>
      </trkpt>
      <trkpt lat="43.97421" lon="5.11914">
        <ele>404.4</ele>
        <time>2013-03-07T12:56:47Z</time>
      </trkpt>
      <trkpt lat="43.97424" lon="5.11913">
        <ele>405.6</ele>
        <time>2013-03-07T12:56:48Z</time>
      </trkpt>
      <trkpt lat="43.97427" lon="5.11911">
        <ele>406.5</ele>
        <time>2013-03-07T12:56:50Z</time>
      </trkpt>
      <trkpt lat="43.9743" lon="5.1191">
        <ele>406</ele>
        <time>2013-03-07T12:56:51Z</time>
      </trkpt>
      <trkpt lat="43.97433" lon="5.11909">
        <ele>405.5</ele>
        <time>2013-03-07T12:56:53Z</time>
      </trkpt>
      <trkpt lat="43.97434" lon="5.11908">
        <ele>405.7</ele>
        <time>2013-03-07T12:56:54Z</time>
      </trkpt>
      <trkpt lat="43.97437" lon="5.11907">
        <ele>405.6</ele>
        <time>2013-03-07T12:56:55Z</time>
      </trkpt>
      <trkpt lat="43.97439" lon="5.11906">
        <ele>405.2</ele>
        <time>2013-03-07T12:56:56Z</time>
      </trkpt>
      <trkpt lat="43.97443" lon="5.11905">
        <ele>405.6</ele>
        <time>2013-03-07T12:56:58Z</time>
      </trkpt>
      <trkpt lat="43.97445" lon="5.11905">
        <ele>405.6</ele>
        <time>2013-03-07T12:56:59Z</time>
      </trkpt>
      <trkpt lat="43.97448" lon="5.11906">
        <ele>405.9</ele>
        <time>2013-03-07T12:57:01Z</time>
      </trkpt>
      <trkpt lat="43.9745" lon="5.11906">
        <ele>405.7</ele>
        <time>2013-03-07T12:57:02Z</time>
      </trkpt>
      <trkpt lat="43.97454" lon="5.11906">
        <ele>405.6</ele>
        <time>2013-03-07T12:57:13Z</time>
      </trkpt>
      <trkpt lat="43.97455" lon="5.11906">
        <ele>405.6</ele>
        <time>2013-03-07T12:57:14Z</time>
      </trkpt>
      <trkpt lat="43.97459" lon="5.11907">
        <ele>405.5</ele>
        <time>2013-03-07T12:57:16Z</time>
      </trkpt>
      <trkpt lat="43.97462" lon="5.11907">
        <ele>405.3</ele>
        <time>2013-03-07T12:57:17Z</time>
      </trkpt>
      <trkpt lat="43.97464" lon="5.11907">
        <ele>405.3</ele>
        <time>2013-03-07T12:57:18Z</time>
      </trkpt>
      <trkpt lat="43.97469" lon="5.11907">
        <ele>404.4</ele>
        <time>2013-03-07T12:57:19Z</time>
      </trkpt>
      <trkpt lat="43.97472" lon="5.11907">
        <ele>404.2</ele>
        <time>2013-03-07T12:57:20Z</time>
      </trkpt>
      <trkpt lat="43.97476" lon="5.11907">
        <ele>404.5</ele>
        <time>2013-03-07T12:57:21Z</time>
      </trkpt>
      <trkpt lat="43.97479" lon="5.11908">
        <ele>404.4</ele>
        <time>2013-03-07T12:57:22Z</time>
      </trkpt>
      <trkpt lat="43.97482" lon="5.11908">
        <ele>404.4</ele>
        <time>2013-03-07T12:57:23Z</time>
      </trkpt>
      <trkpt lat="43.97487" lon="5.11908">
        <ele>403.4</ele>
        <time>2013-03-07T12:57:24Z</time>
      </trkpt>
      <trkpt lat="43.97491" lon="5.11908">
        <ele>403.5</ele>
        <time>2013-03-07T12:57:25Z</time>
      </trkpt>
      <trkpt lat="43.97494" lon="5.11909">
        <ele>403.6</ele>
        <time>2013-03-07T12:57:26Z</time>
      </trkpt>
      <trkpt lat="43.97498" lon="5.11909">
        <ele>403.3</ele>
        <time>2013-03-07T12:57:27Z</time>
      </trkpt>
      <trkpt lat="43.97501" lon="5.1191">
        <ele>403</ele>
        <time>2013-03-07T12:57:28Z</time>
      </trkpt>
      <trkpt lat="43.97505" lon="5.1191">
        <ele>402.8</ele>
        <time>2013-03-07T12:57:29Z</time>
      </trkpt>
      <trkpt lat="43.97509" lon="5.11911">
        <ele>402.7</ele>
        <time>2013-03-07T12:57:30Z</time>
      </trkpt>
      <trkpt lat="43.97513" lon="5.11911">
        <ele>402.4</ele>
        <time>2013-03-07T12:57:31Z</time>
      </trkpt>
      <trkpt lat="43.97517" lon="5.11912">
        <ele>402</ele>
        <time>2013-03-07T12:57:32Z</time>
      </trkpt>
      <trkpt lat="43.97521" lon="5.11912">
        <ele>401.8</ele>
        <time>2013-03-07T12:57:33Z</time>
      </trkpt>
      <trkpt lat="43.97524" lon="5.11912">
        <ele>401.6</ele>
        <time>2013-03-07T12:57:34Z</time>
      </trkpt>
      <trkpt lat="43.97527" lon="5.11914">
        <ele>401.5</ele>
        <time>2013-03-07T12:57:35Z</time>
      </trkpt>
      <trkpt lat="43.97532" lon="5.11915">
        <ele>401.1</ele>
        <time>2013-03-07T12:57:36Z</time>
      </trkpt>
      <trkpt lat="43.97535" lon="5.11915">
        <ele>401.2</ele>
        <time>2013-03-07T12:57:37Z</time>
      </trkpt>
      <trkpt lat="43.9754" lon="5.11914">
        <ele>401.1</ele>
        <time>2013-03-07T12:57:38Z</time>
      </trkpt>
      <trkpt lat="43.97544" lon="5.11915">
        <ele>400.9</ele>
        <time>2013-03-07T12:57:39Z</time>
      </trkpt>
      <trkpt lat="43.97548" lon="5.11915">
        <ele>400.8</ele>
        <time>2013-03-07T12:57:40Z</time>
      </trkpt>
      <trkpt lat="43.97552" lon="5.11914">
        <ele>401</ele>
        <time>2013-03-07T12:57:41Z</time>
      </trkpt>
      <trkpt lat="43.97556" lon="5.11915">
        <ele>400.4</ele>
        <time>2013-03-07T12:57:42Z</time>
      </trkpt>
      <trkpt lat="43.9756" lon="5.11915">
        <ele>400.5</ele>
        <time>2013-03-07T12:57:43Z</time>
      </trkpt>
      <trkpt lat="43.97563" lon="5.11916">
        <ele>401.1</ele>
        <time>2013-03-07T12:57:44Z</time>
      </trkpt>
      <trkpt lat="43.97566" lon="5.11916">
        <ele>401.4</ele>
        <time>2013-03-07T12:57:45Z</time>
      </trkpt>
      <trkpt lat="43.9757" lon="5.11918">
        <ele>401.6</ele>
        <time>2013-03-07T12:57:46Z</time>
      </trkpt>
      <trkpt lat="43.97574" lon="5.11917">
        <ele>401.4</ele>
        <time>2013-03-07T12:57:47Z</time>
      </trkpt>
      <trkpt lat="43.97577" lon="5.11918">
        <ele>401.4</ele>
        <time>2013-03-07T12:57:48Z</time>
      </trkpt>
      <trkpt lat="43.9758" lon="5.11922">
        <ele>401.5</ele>
        <time>2013-03-07T12:58:30Z</time>
      </trkpt>
      <trkpt lat="43.97582" lon="5.11924">
        <ele>401.6</ele>
        <time>2013-03-07T12:58:31Z</time>
      </trkpt>
      <trkpt lat="43.97583" lon="5.11927">
        <ele>401.2</ele>
        <time>2013-03-07T12:58:32Z</time>
      </trkpt>
      <trkpt lat="43.97583" lon="5.11932">
        <ele>400.8</ele>
        <time>2013-03-07T12:58:33Z</time>
      </trkpt>
      <trkpt lat="43.97583" lon="5.11936">
        <ele>400.7</ele>
        <time>2013-03-07T12:58:34Z</time>
      </trkpt>
      <trkpt lat="43.97583" lon="5.11941">
        <ele>400.2</ele>
        <time>2013-03-07T12:58:35Z</time>
      </trkpt>
      <trkpt lat="43.97583" lon="5.11946">
        <ele>400.1</ele>
        <time>2013-03-07T12:58:36Z</time>
      </trkpt>
      <trkpt lat="43.97582" lon="5.11952">
        <ele>399.6</ele>
        <time>2013-03-07T12:58:37Z</time>
      </trkpt>
      <trkpt lat="43.97582" lon="5.11957">
        <ele>399.2</ele>
        <time>2013-03-07T12:58:38Z</time>
      </trkpt>
      <trkpt lat="43.97582" lon="5.11962">
        <ele>398.8</ele>
        <time>2013-03-07T12:58:39Z</time>
      </trkpt>
      <trkpt lat="43.97582" lon="5.11967">
        <ele>398.4</ele>
        <time>2013-03-07T12:58:40Z</time>
      </trkpt>
      <trkpt lat="43.97582" lon="5.11972">
        <ele>398</ele>
        <time>2013-03-07T12:58:41Z</time>
      </trkpt>
      <trkpt lat="43.97581" lon="5.11977">
        <ele>398.5</ele>
        <time>2013-03-07T12:58:42Z</time>
      </trkpt>
      <trkpt lat="43.97581" lon="5.11982">
        <ele>398.5</ele>
        <time>2013-03-07T12:58:43Z</time>
      </trkpt>
      <trkpt lat="43.9758" lon="5.11986">
        <ele>398.9</ele>
        <time>2013-03-07T12:58:44Z</time>
      </trkpt>
      <trkpt lat="43.9758" lon="5.11991">
        <ele>399.3</ele>
        <time>2013-03-07T12:58:45Z</time>
      </trkpt>
      <trkpt lat="43.97577" lon="5.11995">
        <ele>398.8</ele>
        <time>2013-03-07T12:58:47Z</time>
      </trkpt>
      <trkpt lat="43.97576" lon="5.11998">
        <ele>399</ele>
        <time>2013-03-07T12:58:48Z</time>
      </trkpt>
      <trkpt lat="43.97575" lon="5.12001">
        <ele>398.7</ele>
        <time>2013-03-07T12:58:49Z</time>
      </trkpt>
      <trkpt lat="43.97573" lon="5.12004">
        <ele>398.5</ele>
        <time>2013-03-07T12:58:50Z</time>
      </trkpt>
      <trkpt lat="43.97574" lon="5.12008">
        <ele>399.2</ele>
        <time>2013-03-07T12:58:54Z</time>
      </trkpt>
      <trkpt lat="43.97576" lon="5.12009">
        <ele>399.4</ele>
        <time>2013-03-07T12:58:55Z</time>
      </trkpt>
      <trkpt lat="43.97579" lon="5.12009">
        <ele>399.5</ele>
        <time>2013-03-07T12:58:56Z</time>
      </trkpt>
      <trkpt lat="43.97582" lon="5.1201">
        <ele>399.8</ele>
        <time>2013-03-07T12:58:57Z</time>
      </trkpt>
      <trkpt lat="43.97585" lon="5.12009">
        <ele>400</ele>
        <time>2013-03-07T12:58:58Z</time>
      </trkpt>
      <trkpt lat="43.97588" lon="5.12009">
        <ele>400.1</ele>
        <time>2013-03-07T12:58:59Z</time>
      </trkpt>
      <trkpt lat="43.97591" lon="5.12009">
        <ele>400.1</ele>
        <time>2013-03-07T12:59:00Z</time>
      </trkpt>
      <trkpt lat="43.97595" lon="5.1201">
        <ele>399.7</ele>
        <time>2013-03-07T12:59:01Z</time>
      </trkpt>
      <trkpt lat="43.97598" lon="5.1201">
        <ele>399</ele>
        <time>2013-03-07T12:59:02Z</time>
      </trkpt>
      <trkpt lat="43.97601" lon="5.12011">
        <ele>398.9</ele>
        <time>2013-03-07T12:59:03Z</time>
      </trkpt>
      <trkpt lat="43.97603" lon="5.12011">
        <ele>398.9</ele>
        <time>2013-03-07T12:59:04Z</time>
      </trkpt>
      <trkpt lat="43.97606" lon="5.12009">
        <ele>398.7</ele>
        <time>2013-03-07T12:59:05Z</time>
      </trkpt>
      <trkpt lat="43.97609" lon="5.12007">
        <ele>398.8</ele>
        <time>2013-03-07T12:59:06Z</time>
      </trkpt>
      <trkpt lat="43.97612" lon="5.12007">
        <ele>398.4</ele>
        <time>2013-03-07T12:59:07Z</time>
      </trkpt>
      <trkpt lat="43.97616" lon="5.12006">
        <ele>398.2</ele>
        <time>2013-03-07T12:59:08Z</time>
      </trkpt>
      <trkpt lat="43.97619" lon="5.12006">
        <ele>397.9</ele>
        <time>2013-03-07T12:59:09Z</time>
      </trkpt>
      <trkpt lat="43.97623" lon="5.12007">
        <ele>397.7</ele>
        <time>2013-03-07T12:59:10Z</time>
      </trkpt>
      <trkpt lat="43.97627" lon="5.12007">
        <ele>397.4</ele>
        <time>2013-03-07T12:59:11Z</time>
      </trkpt>
      <trkpt lat="43.97632" lon="5.12008">
        <ele>397.3</ele>
        <time>2013-03-07T12:59:12Z</time>
      </trkpt>
      <trkpt lat="43.97635" lon="5.12008">
        <ele>397.1</ele>
        <time>2013-03-07T12:59:13Z</time>
      </trkpt>
      <trkpt lat="43.97638" lon="5.12007">
        <ele>397.1</ele>
        <time>2013-03-07T12:59:14Z</time>
      </trkpt>
      <trkpt lat="43.97641" lon="5.12004">
        <ele>396.9</ele>
        <time>2013-03-07T12:59:15Z</time>
      </trkpt>
      <trkpt lat="43.97644" lon="5.12002">
        <ele>396.7</ele>
        <time>2013-03-07T12:59:16Z</time>
      </trkpt>
      <trkpt lat="43.97647" lon="5.12">
        <ele>396.7</ele>
        <time>2013-03-07T12:59:17Z</time>
      </trkpt>
      <trkpt lat="43.9765" lon="5.11998">
        <ele>396.4</ele>
        <time>2013-03-07T12:59:18Z</time>
      </trkpt>
      <trkpt lat="43.97653" lon="5.11997">
        <ele>396.3</ele>
        <time>2013-03-07T12:59:19Z</time>
      </trkpt>
      <trkpt lat="43.97657" lon="5.11996">
        <ele>396.4</ele>
        <time>2013-03-07T12:59:21Z</time>
      </trkpt>
      <trkpt lat="43.97658" lon="5.11994">
        <ele>396.6</ele>
        <time>2013-03-07T12:59:22Z</time>
      </trkpt>
      <trkpt lat="43.9766" lon="5.1199">
        <ele>396.4</ele>
        <time>2013-03-07T12:59:24Z</time>
      </trkpt>
      <trkpt lat="43.9766" lon="5.11988">
        <ele>396.4</ele>
        <time>2013-03-07T12:59:25Z</time>
      </trkpt>
      <trkpt lat="43.97661" lon="5.11984">
        <ele>396.5</ele>
        <time>2013-03-07T12:59:27Z</time>
      </trkpt>
      <trkpt lat="43.97663" lon="5.11981">
        <ele>396</ele>
        <time>2013-03-07T12:59:28Z</time>
      </trkpt>
      <trkpt lat="43.97666" lon="5.1198">
        <ele>395.9</ele>
        <time>2013-03-07T12:59:29Z</time>
      </trkpt>
      <trkpt lat="43.97669" lon="5.11978">
        <ele>395.7</ele>
        <time>2013-03-07T12:59:30Z</time>
      </trkpt>
      <trkpt lat="43.97671" lon="5.11976">
        <ele>395.5</ele>
        <time>2013-03-07T12:59:31Z</time>
      </trkpt>
      <trkpt lat="43.97674" lon="5.11973">
        <ele>395.4</ele>
        <time>2013-03-07T12:59:32Z</time>
      </trkpt>
      <trkpt lat="43.97676" lon="5.11971">
        <ele>395.3</ele>
        <time>2013-03-07T12:59:33Z</time>
      </trkpt>
      <trkpt lat="43.97678" lon="5.11969">
        <ele>395.1</ele>
        <time>2013-03-07T12:59:34Z</time>
      </trkpt>
      <trkpt lat="43.9768" lon="5.11967">
        <ele>395</ele>
        <time>2013-03-07T12:59:35Z</time>
      </trkpt>
      <trkpt lat="43.97682" lon="5.11965">
        <ele>394.8</ele>
        <time>2013-03-07T12:59:36Z</time>
      </trkpt>
      <trkpt lat="43.97686" lon="5.11965">
        <ele>394.6</ele>
        <time>2013-03-07T12:59:38Z</time>
      </trkpt>
      <trkpt lat="43.97689" lon="5.11964">
        <ele>394.1</ele>
        <time>2013-03-07T12:59:39Z</time>
      </trkpt>
      <trkpt lat="43.97692" lon="5.11963">
        <ele>393.9</ele>
        <time>2013-03-07T12:59:40Z</time>
      </trkpt>
      <trkpt lat="43.97695" lon="5.11961">
        <ele>394</ele>
        <time>2013-03-07T12:59:41Z</time>
      </trkpt>
      <trkpt lat="43.97698" lon="5.11959">
        <ele>393.7</ele>
        <time>2013-03-07T12:59:42Z</time>
      </trkpt>
      <trkpt lat="43.977" lon="5.11958">
        <ele>393.5</ele>
        <time>2013-03-07T12:59:43Z</time>
      </trkpt>
      <trkpt lat="43.97703" lon="5.11956">
        <ele>394.1</ele>
        <time>2013-03-07T12:59:44Z</time>
      </trkpt>
      <trkpt lat="43.97705" lon="5.11955">
        <ele>393.5</ele>
        <time>2013-03-07T12:59:45Z</time>
      </trkpt>
      <trkpt lat="43.97709" lon="5.11956">
        <ele>393.1</ele>
        <time>2013-03-07T12:59:47Z</time>
      </trkpt>
      <trkpt lat="43.97711" lon="5.11959">
        <ele>392.7</ele>
        <time>2013-03-07T12:59:48Z</time>
      </trkpt>
      <trkpt lat="43.97713" lon="5.11962">
        <ele>392.3</ele>
        <time>2013-03-07T12:59:49Z</time>
      </trkpt>
      <trkpt lat="43.97715" lon="5.11965">
        <ele>392.1</ele>
        <time>2013-03-07T12:59:50Z</time>
      </trkpt>
      <trkpt lat="43.97718" lon="5.11967">
        <ele>391.9</ele>
        <time>2013-03-07T12:59:51Z</time>
      </trkpt>
      <trkpt lat="43.9772" lon="5.11967">
        <ele>392</ele>
        <time>2013-03-07T12:59:52Z</time>
      </trkpt>
      <trkpt lat="43.97722" lon="5.11968">
        <ele>391.3</ele>
        <time>2013-03-07T12:59:53Z</time>
      </trkpt>
      <trkpt lat="43.97724" lon="5.11969">
        <ele>391.2</ele>
        <time>2013-03-07T12:59:54Z</time>
      </trkpt>
      <trkpt lat="43.97726" lon="5.1197">
        <ele>390.7</ele>
        <time>2013-03-07T12:59:55Z</time>
      </trkpt>
      <trkpt lat="43.97729" lon="5.1197">
        <ele>390.4</ele>
        <time>2013-03-07T12:59:56Z</time>
      </trkpt>
      <trkpt lat="43.97731" lon="5.1197">
        <ele>390</ele>
        <time>2013-03-07T12:59:57Z</time>
      </trkpt>
      <trkpt lat="43.97734" lon="5.11971">
        <ele>389.9</ele>
        <time>2013-03-07T12:59:58Z</time>
      </trkpt>
      <trkpt lat="43.97741" lon="5.1197">
        <ele>388.3</ele>
        <time>2013-03-07T12:59:59Z</time>
      </trkpt>
      <trkpt lat="43.97746" lon="5.11969">
        <ele>387.7</ele>
        <time>2013-03-07T13:00:00Z</time>
      </trkpt>
      <trkpt lat="43.97751" lon="5.11968">
        <ele>387.1</ele>
        <time>2013-03-07T13:00:01Z</time>
      </trkpt>
      <trkpt lat="43.97756" lon="5.11968">
        <ele>386.9</ele>
        <time>2013-03-07T13:00:02Z</time>
      </trkpt>
      <trkpt lat="43.97762" lon="5.11966">
        <ele>386.5</ele>
        <time>2013-03-07T13:00:03Z</time>
      </trkpt>
      <trkpt lat="43.97767" lon="5.11966">
        <ele>385.9</ele>
        <time>2013-03-07T13:00:04Z</time>
      </trkpt>
      <trkpt lat="43.97772" lon="5.11965">
        <ele>385.3</ele>
        <time>2013-03-07T13:00:05Z</time>
      </trkpt>
      <trkpt lat="43.97776" lon="5.11965">
        <ele>384.7</ele>
        <time>2013-03-07T13:00:06Z</time>
      </trkpt>
      <trkpt lat="43.9778" lon="5.11967">
        <ele>384.1</ele>
        <time>2013-03-07T13:00:07Z</time>
      </trkpt>
      <trkpt lat="43.97783" lon="5.11968">
        <ele>383.6</ele>
        <time>2013-03-07T13:00:08Z</time>
      </trkpt>
      <trkpt lat="43.97786" lon="5.11972">
        <ele>383.7</ele>
        <time>2013-03-07T13:00:09Z</time>
      </trkpt>
      <trkpt lat="43.97786" lon="5.11981">
        <ele>382.7</ele>
        <time>2013-03-07T13:00:10Z</time>
      </trkpt>
      <trkpt lat="43.97788" lon="5.11987">
        <ele>382.3</ele>
        <time>2013-03-07T13:00:11Z</time>
      </trkpt>
      <trkpt lat="43.9779" lon="5.11994">
        <ele>381.5</ele>
        <time>2013-03-07T13:00:12Z</time>
      </trkpt>
      <trkpt lat="43.97793" lon="5.12002">
        <ele>380.2</ele>
        <time>2013-03-07T13:00:13Z</time>
      </trkpt>
      <trkpt lat="43.97796" lon="5.12009">
        <ele>379</ele>
        <time>2013-03-07T13:00:14Z</time>
      </trkpt>
      <trkpt lat="43.978" lon="5.12017">
        <ele>378.1</ele>
        <time>2013-03-07T13:00:15Z</time>
      </trkpt>
      <trkpt lat="43.97803" lon="5.12025">
        <ele>377.7</ele>
        <time>2013-03-07T13:00:16Z</time>
      </trkpt>
      <trkpt lat="43.97806" lon="5.12033">
        <ele>377.2</ele>
        <time>2013-03-07T13:00:17Z</time>
      </trkpt>
      <trkpt lat="43.97808" lon="5.1204">
        <ele>376.4</ele>
        <time>2013-03-07T13:00:18Z</time>
      </trkpt>
      <trkpt lat="43.9781" lon="5.12046">
        <ele>375.7</ele>
        <time>2013-03-07T13:00:19Z</time>
      </trkpt>
      <trkpt lat="43.97812" lon="5.12053">
        <ele>375.1</ele>
        <time>2013-03-07T13:00:20Z</time>
      </trkpt>
      <trkpt lat="43.97815" lon="5.1206">
        <ele>374.5</ele>
        <time>2013-03-07T13:00:21Z</time>
      </trkpt>
      <trkpt lat="43.97817" lon="5.12066">
        <ele>373.6</ele>
        <time>2013-03-07T13:00:22Z</time>
      </trkpt>
      <trkpt lat="43.97819" lon="5.12071">
        <ele>373</ele>
        <time>2013-03-07T13:00:23Z</time>
      </trkpt>
      <trkpt lat="43.97821" lon="5.12077">
        <ele>372.9</ele>
        <time>2013-03-07T13:00:24Z</time>
      </trkpt>
      <trkpt lat="43.97824" lon="5.12083">
        <ele>372.3</ele>
        <time>2013-03-07T13:00:25Z</time>
      </trkpt>
      <trkpt lat="43.97826" lon="5.1209">
        <ele>371.6</ele>
        <time>2013-03-07T13:00:26Z</time>
      </trkpt>
      <trkpt lat="43.97828" lon="5.12096">
        <ele>370.7</ele>
        <time>2013-03-07T13:00:27Z</time>
      </trkpt>
      <trkpt lat="43.97829" lon="5.121">
        <ele>370.1</ele>
        <time>2013-03-07T13:00:28Z</time>
      </trkpt>
      <trkpt lat="43.97832" lon="5.12104">
        <ele>369.4</ele>
        <time>2013-03-07T13:00:29Z</time>
      </trkpt>
      <trkpt lat="43.97835" lon="5.12104">
        <ele>369.5</ele>
        <time>2013-03-07T13:00:30Z</time>
      </trkpt>
      <trkpt lat="43.97837" lon="5.12104">
        <ele>369.1</ele>
        <time>2013-03-07T13:00:31Z</time>
      </trkpt>
      <trkpt lat="43.9784" lon="5.12105">
        <ele>368.8</ele>
        <time>2013-03-07T13:00:32Z</time>
      </trkpt>
      <trkpt lat="43.97843" lon="5.12101">
        <ele>368.4</ele>
        <time>2013-03-07T13:00:33Z</time>
      </trkpt>
      <trkpt lat="43.97846" lon="5.12099">
        <ele>368.5</ele>
        <time>2013-03-07T13:00:34Z</time>
      </trkpt>
      <trkpt lat="43.97848" lon="5.12098">
        <ele>368.5</ele>
        <time>2013-03-07T13:00:35Z</time>
      </trkpt>
      <trkpt lat="43.97851" lon="5.12096">
        <ele>368.5</ele>
        <time>2013-03-07T13:00:36Z</time>
      </trkpt>
      <trkpt lat="43.97855" lon="5.12096">
        <ele>368.2</ele>
        <time>2013-03-07T13:00:38Z</time>
      </trkpt>
      <trkpt lat="43.97855" lon="5.12098">
        <ele>368.2</ele>
        <time>2013-03-07T13:00:39Z</time>
      </trkpt>
      <trkpt lat="43.97858" lon="5.121">
        <ele>367.3</ele>
        <time>2013-03-07T13:01:02Z</time>
      </trkpt>
      <trkpt lat="43.97861" lon="5.12101">
        <ele>366.3</ele>
        <time>2013-03-07T13:01:03Z</time>
      </trkpt>
      <trkpt lat="43.97865" lon="5.121">
        <ele>366.2</ele>
        <time>2013-03-07T13:01:05Z</time>
      </trkpt>
      <trkpt lat="43.97866" lon="5.12099">
        <ele>366.3</ele>
        <time>2013-03-07T13:01:06Z</time>
      </trkpt>
      <trkpt lat="43.97869" lon="5.12095">
        <ele>366.4</ele>
        <time>2013-03-07T13:01:08Z</time>
      </trkpt>
      <trkpt lat="43.9787" lon="5.12093">
        <ele>366.6</ele>
        <time>2013-03-07T13:01:09Z</time>
      </trkpt>
      <trkpt lat="43.97873" lon="5.1209">
        <ele>366.3</ele>
        <time>2013-03-07T13:01:11Z</time>
      </trkpt>
      <trkpt lat="43.97875" lon="5.12089">
        <ele>366.4</ele>
        <time>2013-03-07T13:01:12Z</time>
      </trkpt>
      <trkpt lat="43.97878" lon="5.12087">
        <ele>366.1</ele>
        <time>2013-03-07T13:01:13Z</time>
      </trkpt>
      <trkpt lat="43.9788" lon="5.12085">
        <ele>366.5</ele>
        <time>2013-03-07T13:01:14Z</time>
      </trkpt>
      <trkpt lat="43.97882" lon="5.12082">
        <ele>366.8</ele>
        <time>2013-03-07T13:01:15Z</time>
      </trkpt>
      <trkpt lat="43.97884" lon="5.1208">
        <ele>367</ele>
        <time>2013-03-07T13:01:16Z</time>
      </trkpt>
      <trkpt lat="43.97886" lon="5.12079">
        <ele>367.5</ele>
        <time>2013-03-07T13:01:17Z</time>
      </trkpt>
      <trkpt lat="43.97888" lon="5.12077">
        <ele>367.7</ele>
        <time>2013-03-07T13:01:18Z</time>
      </trkpt>
      <trkpt lat="43.97889" lon="5.12075">
        <ele>367.8</ele>
        <time>2013-03-07T13:01:19Z</time>
      </trkpt>
      <trkpt lat="43.97892" lon="5.12073">
        <ele>368</ele>
        <time>2013-03-07T13:01:20Z</time>
      </trkpt>
      <trkpt lat="43.97895" lon="5.12071">
        <ele>368.2</ele>
        <time>2013-03-07T13:01:21Z</time>
      </trkpt>
      <trkpt lat="43.97899" lon="5.12068">
        <ele>367.8</ele>
        <time>2013-03-07T13:01:22Z</time>
      </trkpt>
      <trkpt lat="43.97903" lon="5.12066">
        <ele>367.7</ele>
        <time>2013-03-07T13:01:23Z</time>
      </trkpt>
      <trkpt lat="43.97905" lon="5.12064">
        <ele>368</ele>
        <time>2013-03-07T13:01:24Z</time>
      </trkpt>
      <trkpt lat="43.97909" lon="5.12062">
        <ele>367.4</ele>
        <time>2013-03-07T13:01:25Z</time>
      </trkpt>
      <trkpt lat="43.97912" lon="5.12059">
        <ele>367.2</ele>
        <time>2013-03-07T13:01:26Z</time>
      </trkpt>
      <trkpt lat="43.97915" lon="5.12057">
        <ele>367</ele>
        <time>2013-03-07T13:01:27Z</time>
      </trkpt>
      <trkpt lat="43.97919" lon="5.12054">
        <ele>365.6</ele>
        <time>2013-03-07T13:01:28Z</time>
      </trkpt>
      <trkpt lat="43.97921" lon="5.12051">
        <ele>365.1</ele>
        <time>2013-03-07T13:01:29Z</time>
      </trkpt>
      <trkpt lat="43.97923" lon="5.1205">
        <ele>364.7</ele>
        <time>2013-03-07T13:01:30Z</time>
      </trkpt>
      <trkpt lat="43.97926" lon="5.12047">
        <ele>364.1</ele>
        <time>2013-03-07T13:01:31Z</time>
      </trkpt>
      <trkpt lat="43.97928" lon="5.12046">
        <ele>363.9</ele>
        <time>2013-03-07T13:01:32Z</time>
      </trkpt>
      <trkpt lat="43.9793" lon="5.12044">
        <ele>363.7</ele>
        <time>2013-03-07T13:01:33Z</time>
      </trkpt>
      <trkpt lat="43.97933" lon="5.12042">
        <ele>363.8</ele>
        <time>2013-03-07T13:01:34Z</time>
      </trkpt>
      <trkpt lat="43.97935" lon="5.1204">
        <ele>363.8</ele>
        <time>2013-03-07T13:01:35Z</time>
      </trkpt>
      <trkpt lat="43.97937" lon="5.12038">
        <ele>363.5</ele>
        <time>2013-03-07T13:01:36Z</time>
      </trkpt>
      <trkpt lat="43.9794" lon="5.12036">
        <ele>363.1</ele>
        <time>2013-03-07T13:01:37Z</time>
      </trkpt>
      <trkpt lat="43.97942" lon="5.12035">
        <ele>363</ele>
        <time>2013-03-07T13:01:38Z</time>
      </trkpt>
      <trkpt lat="43.97944" lon="5.12033">
        <ele>363.1</ele>
        <time>2013-03-07T13:01:39Z</time>
      </trkpt>
      <trkpt lat="43.97947" lon="5.12029">
        <ele>365.3</ele>
        <time>2013-03-07T13:01:40Z</time>
      </trkpt>
      <trkpt lat="43.97948" lon="5.12023">
        <ele>372.4</ele>
        <time>2013-03-07T13:01:41Z</time>
      </trkpt>
      <trkpt lat="43.97956" lon="5.1203">
        <ele>365.4</ele>
        <time>2013-03-07T13:01:42Z</time>
      </trkpt>
      <trkpt lat="43.97959" lon="5.12028">
        <ele>365.1</ele>
        <time>2013-03-07T13:01:43Z</time>
      </trkpt>
      <trkpt lat="43.97961" lon="5.12026">
        <ele>364.3</ele>
        <time>2013-03-07T13:01:44Z</time>
      </trkpt>
      <trkpt lat="43.97965" lon="5.12025">
        <ele>363.7</ele>
        <time>2013-03-07T13:01:45Z</time>
      </trkpt>
      <trkpt lat="43.97968" lon="5.12024">
        <ele>362.9</ele>
        <time>2013-03-07T13:01:46Z</time>
      </trkpt>
      <trkpt lat="43.97973" lon="5.12019">
        <ele>368.2</ele>
        <time>2013-03-07T13:01:47Z</time>
      </trkpt>
      <trkpt lat="43.97977" lon="5.12016">
        <ele>367.9</ele>
        <time>2013-03-07T13:01:48Z</time>
      </trkpt>
      <trkpt lat="43.97981" lon="5.12014">
        <ele>367.7</ele>
        <time>2013-03-07T13:01:49Z</time>
      </trkpt>
      <trkpt lat="43.97984" lon="5.12012">
        <ele>367.8</ele>
        <time>2013-03-07T13:01:50Z</time>
      </trkpt>
      <trkpt lat="43.97988" lon="5.12009">
        <ele>368.1</ele>
        <time>2013-03-07T13:01:51Z</time>
      </trkpt>
      <trkpt lat="43.97991" lon="5.12006">
        <ele>368.8</ele>
        <time>2013-03-07T13:01:52Z</time>
      </trkpt>
      <trkpt lat="43.97993" lon="5.12003">
        <ele>367.4</ele>
        <time>2013-03-07T13:01:53Z</time>
      </trkpt>
      <trkpt lat="43.97996" lon="5.12001">
        <ele>367.4</ele>
        <time>2013-03-07T13:01:54Z</time>
      </trkpt>
      <trkpt lat="43.97998" lon="5.11999">
        <ele>368.3</ele>
        <time>2013-03-07T13:01:55Z</time>
      </trkpt>
      <trkpt lat="43.98001" lon="5.11997">
        <ele>369.9</ele>
        <time>2013-03-07T13:01:56Z</time>
      </trkpt>
      <trkpt lat="43.98002" lon="5.11992">
        <ele>373.5</ele>
        <time>2013-03-07T13:01:57Z</time>
      </trkpt>
      <trkpt lat="43.98005" lon="5.11995">
        <ele>363.9</ele>
        <time>2013-03-07T13:01:58Z</time>
      </trkpt>
      <trkpt lat="43.98007" lon="5.11994">
        <ele>365.2</ele>
        <time>2013-03-07T13:01:59Z</time>
      </trkpt>
      <trkpt lat="43.98009" lon="5.11991">
        <ele>365.7</ele>
        <time>2013-03-07T13:02:00Z</time>
      </trkpt>
      <trkpt lat="43.98012" lon="5.11989">
        <ele>365.8</ele>
        <time>2013-03-07T13:02:01Z</time>
      </trkpt>
      <trkpt lat="43.98014" lon="5.11988">
        <ele>365.2</ele>
        <time>2013-03-07T13:02:02Z</time>
      </trkpt>
      <trkpt lat="43.98016" lon="5.11988">
        <ele>364.7</ele>
        <time>2013-03-07T13:02:03Z</time>
      </trkpt>
      <trkpt lat="43.98018" lon="5.11982">
        <ele>367.2</ele>
        <time>2013-03-07T13:02:05Z</time>
      </trkpt>
      <trkpt lat="43.9802" lon="5.1198">
        <ele>366.7</ele>
        <time>2013-03-07T13:02:06Z</time>
      </trkpt>
      <trkpt lat="43.98022" lon="5.11978">
        <ele>365.6</ele>
        <time>2013-03-07T13:02:07Z</time>
      </trkpt>
      <trkpt lat="43.98025" lon="5.11976">
        <ele>364.3</ele>
        <time>2013-03-07T13:02:08Z</time>
      </trkpt>
      <trkpt lat="43.98028" lon="5.11974">
        <ele>363.8</ele>
        <time>2013-03-07T13:02:09Z</time>
      </trkpt>
      <trkpt lat="43.9803" lon="5.11973">
        <ele>363.7</ele>
        <time>2013-03-07T13:02:10Z</time>
      </trkpt>
      <trkpt lat="43.98033" lon="5.11972">
        <ele>363.8</ele>
        <time>2013-03-07T13:02:11Z</time>
      </trkpt>
      <trkpt lat="43.98036" lon="5.1197">
        <ele>363.7</ele>
        <time>2013-03-07T13:02:12Z</time>
      </trkpt>
      <trkpt lat="43.9804" lon="5.11968">
        <ele>362.9</ele>
        <time>2013-03-07T13:02:13Z</time>
      </trkpt>
      <trkpt lat="43.98043" lon="5.11967">
        <ele>361.8</ele>
        <time>2013-03-07T13:02:14Z</time>
      </trkpt>
      <trkpt lat="43.98046" lon="5.11967">
        <ele>361.1</ele>
        <time>2013-03-07T13:02:15Z</time>
      </trkpt>
      <trkpt lat="43.98049" lon="5.11963">
        <ele>361.7</ele>
        <time>2013-03-07T13:02:16Z</time>
      </trkpt>
      <trkpt lat="43.98051" lon="5.11961">
        <ele>361.2</ele>
        <time>2013-03-07T13:02:17Z</time>
      </trkpt>
      <trkpt lat="43.98054" lon="5.11958">
        <ele>360.6</ele>
        <time>2013-03-07T13:02:18Z</time>
      </trkpt>
      <trkpt lat="43.98057" lon="5.11957">
        <ele>360.7</ele>
        <time>2013-03-07T13:02:19Z</time>
      </trkpt>
      <trkpt lat="43.9806" lon="5.11955">
        <ele>360.4</ele>
        <time>2013-03-07T13:02:20Z</time>
      </trkpt>
      <trkpt lat="43.98062" lon="5.11953">
        <ele>360.3</ele>
        <time>2013-03-07T13:02:21Z</time>
      </trkpt>
      <trkpt lat="43.98065" lon="5.11952">
        <ele>361.1</ele>
        <time>2013-03-07T13:02:22Z</time>
      </trkpt>
      <trkpt lat="43.98069" lon="5.1195">
        <ele>360.6</ele>
        <time>2013-03-07T13:02:23Z</time>
      </trkpt>
      <trkpt lat="43.98072" lon="5.11948">
        <ele>360.5</ele>
        <time>2013-03-07T13:02:24Z</time>
      </trkpt>
      <trkpt lat="43.98075" lon="5.11947">
        <ele>360.5</ele>
        <time>2013-03-07T13:02:25Z</time>
      </trkpt>
      <trkpt lat="43.98078" lon="5.11945">
        <ele>360.5</ele>
        <time>2013-03-07T13:02:26Z</time>
      </trkpt>
      <trkpt lat="43.98082" lon="5.11943">
        <ele>360.8</ele>
        <time>2013-03-07T13:02:33Z</time>
      </trkpt>
      <trkpt lat="43.98082" lon="5.11943">
        <ele>360.7</ele>
        <time>2013-03-07T13:02:34Z</time>
      </trkpt>
      <trkpt lat="43.98084" lon="5.11939">
        <ele>361.5</ele>
        <time>2013-03-07T13:02:52Z</time>
      </trkpt>
      <trkpt lat="43.98086" lon="5.11937">
        <ele>362.2</ele>
        <time>2013-03-07T13:02:53Z</time>
      </trkpt>
      <trkpt lat="43.98089" lon="5.11935">
        <ele>362.3</ele>
        <time>2013-03-07T13:02:54Z</time>
      </trkpt>
      <trkpt lat="43.98093" lon="5.11932">
        <ele>362.3</ele>
        <time>2013-03-07T13:02:55Z</time>
      </trkpt>
      <trkpt lat="43.98096" lon="5.11931">
        <ele>361.9</ele>
        <time>2013-03-07T13:02:56Z</time>
      </trkpt>
      <trkpt lat="43.98099" lon="5.11929">
        <ele>362.1</ele>
        <time>2013-03-07T13:02:57Z</time>
      </trkpt>
      <trkpt lat="43.98102" lon="5.11927">
        <ele>363</ele>
        <time>2013-03-07T13:02:58Z</time>
      </trkpt>
      <trkpt lat="43.98104" lon="5.11924">
        <ele>362.5</ele>
        <time>2013-03-07T13:02:59Z</time>
      </trkpt>
      <trkpt lat="43.98106" lon="5.11922">
        <ele>362.1</ele>
        <time>2013-03-07T13:03:00Z</time>
      </trkpt>
      <trkpt lat="43.98108" lon="5.11919">
        <ele>361.6</ele>
        <time>2013-03-07T13:03:01Z</time>
      </trkpt>
      <trkpt lat="43.98109" lon="5.11915">
        <ele>361.6</ele>
        <time>2013-03-07T13:03:02Z</time>
      </trkpt>
      <trkpt lat="43.98111" lon="5.11912">
        <ele>361.2</ele>
        <time>2013-03-07T13:03:03Z</time>
      </trkpt>
      <trkpt lat="43.98112" lon="5.11909">
        <ele>361.2</ele>
        <time>2013-03-07T13:03:04Z</time>
      </trkpt>
      <trkpt lat="43.98114" lon="5.11906">
        <ele>361</ele>
        <time>2013-03-07T13:03:05Z</time>
      </trkpt>
      <trkpt lat="43.98116" lon="5.11903">
        <ele>360.5</ele>
        <time>2013-03-07T13:03:06Z</time>
      </trkpt>
      <trkpt lat="43.98117" lon="5.119">
        <ele>360.5</ele>
        <time>2013-03-07T13:03:07Z</time>
      </trkpt>
      <trkpt lat="43.98119" lon="5.11897">
        <ele>360.5</ele>
        <time>2013-03-07T13:03:08Z</time>
      </trkpt>
      <trkpt lat="43.98121" lon="5.11893">
        <ele>360.4</ele>
        <time>2013-03-07T13:03:09Z</time>
      </trkpt>
      <trkpt lat="43.98122" lon="5.11889">
        <ele>359.8</ele>
        <time>2013-03-07T13:03:10Z</time>
      </trkpt>
      <trkpt lat="43.98124" lon="5.11885">
        <ele>359.4</ele>
        <time>2013-03-07T13:03:11Z</time>
      </trkpt>
      <trkpt lat="43.98127" lon="5.11881">
        <ele>359.9</ele>
        <time>2013-03-07T13:03:12Z</time>
      </trkpt>
      <trkpt lat="43.98129" lon="5.11877">
        <ele>359.8</ele>
        <time>2013-03-07T13:03:13Z</time>
      </trkpt>
      <trkpt lat="43.98131" lon="5.11873">
        <ele>359.7</ele>
        <time>2013-03-07T13:03:14Z</time>
      </trkpt>
      <trkpt lat="43.98132" lon="5.1187">
        <ele>359.7</ele>
        <time>2013-03-07T13:03:15Z</time>
      </trkpt>
      <trkpt lat="43.98134" lon="5.11867">
        <ele>359.6</ele>
        <time>2013-03-07T13:03:16Z</time>
      </trkpt>
      <trkpt lat="43.98135" lon="5.11863">
        <ele>359.8</ele>
        <time>2013-03-07T13:03:17Z</time>
      </trkpt>
      <trkpt lat="43.98136" lon="5.1186">
        <ele>359.6</ele>
        <time>2013-03-07T13:03:18Z</time>
      </trkpt>
      <trkpt lat="43.98138" lon="5.11854">
        <ele>359.2</ele>
        <time>2013-03-07T13:03:20Z</time>
      </trkpt>
      <trkpt lat="43.98138" lon="5.11851">
        <ele>359.5</ele>
        <time>2013-03-07T13:03:21Z</time>
      </trkpt>
      <trkpt lat="43.98141" lon="5.11848">
        <ele>359</ele>
        <time>2013-03-07T13:03:23Z</time>
      </trkpt>
      <trkpt lat="43.98143" lon="5.11846">
        <ele>359</ele>
        <time>2013-03-07T13:03:24Z</time>
      </trkpt>
      <trkpt lat="43.98145" lon="5.11843">
        <ele>358.4</ele>
        <time>2013-03-07T13:03:25Z</time>
      </trkpt>
      <trkpt lat="43.98147" lon="5.11841">
        <ele>357.9</ele>
        <time>2013-03-07T13:03:26Z</time>
      </trkpt>
      <trkpt lat="43.9815" lon="5.11836">
        <ele>357.6</ele>
        <time>2013-03-07T13:03:28Z</time>
      </trkpt>
      <trkpt lat="43.9815" lon="5.11833">
        <ele>357.5</ele>
        <time>2013-03-07T13:03:29Z</time>
      </trkpt>
      <trkpt lat="43.98151" lon="5.1183">
        <ele>357.1</ele>
        <time>2013-03-07T13:03:30Z</time>
      </trkpt>
      <trkpt lat="43.98148" lon="5.11827">
        <ele>357.1</ele>
        <time>2013-03-07T13:03:31Z</time>
      </trkpt>
      <trkpt lat="43.98147" lon="5.11825">
        <ele>357.2</ele>
        <time>2013-03-07T13:03:32Z</time>
      </trkpt>
      <trkpt lat="43.98145" lon="5.11822">
        <ele>357.3</ele>
        <time>2013-03-07T13:03:33Z</time>
      </trkpt>
      <trkpt lat="43.98144" lon="5.11819">
        <ele>356.9</ele>
        <time>2013-03-07T13:03:34Z</time>
      </trkpt>
      <trkpt lat="43.9814" lon="5.11816">
        <ele>356.8</ele>
        <time>2013-03-07T13:03:35Z</time>
      </trkpt>
      <trkpt lat="43.98138" lon="5.11813">
        <ele>356.9</ele>
        <time>2013-03-07T13:03:36Z</time>
      </trkpt>
      <trkpt lat="43.98139" lon="5.11808">
        <ele>356.8</ele>
        <time>2013-03-07T13:03:37Z</time>
      </trkpt>
      <trkpt lat="43.98138" lon="5.11804">
        <ele>356.6</ele>
        <time>2013-03-07T13:03:38Z</time>
      </trkpt>
      <trkpt lat="43.98137" lon="5.118">
        <ele>356.3</ele>
        <time>2013-03-07T13:03:39Z</time>
      </trkpt>
      <trkpt lat="43.98136" lon="5.11795">
        <ele>356</ele>
        <time>2013-03-07T13:03:40Z</time>
      </trkpt>
      <trkpt lat="43.98136" lon="5.11791">
        <ele>356.1</ele>
        <time>2013-03-07T13:03:41Z</time>
      </trkpt>
      <trkpt lat="43.98135" lon="5.11787">
        <ele>356.3</ele>
        <time>2013-03-07T13:03:42Z</time>
      </trkpt>
      <trkpt lat="43.98137" lon="5.11784">
        <ele>355.7</ele>
        <time>2013-03-07T13:03:43Z</time>
      </trkpt>
      <trkpt lat="43.98138" lon="5.11783">
        <ele>355.8</ele>
        <time>2013-03-07T13:03:44Z</time>
      </trkpt>
      <trkpt lat="43.98141" lon="5.11781">
        <ele>355.4</ele>
        <time>2013-03-07T13:03:45Z</time>
      </trkpt>
      <trkpt lat="43.98145" lon="5.11781">
        <ele>354.7</ele>
        <time>2013-03-07T13:03:47Z</time>
      </trkpt>
      <trkpt lat="43.98146" lon="5.1178">
        <ele>354.4</ele>
        <time>2013-03-07T13:03:48Z</time>
      </trkpt>
      <trkpt lat="43.9815" lon="5.11778">
        <ele>353.7</ele>
        <time>2013-03-07T13:03:50Z</time>
      </trkpt>
      <trkpt lat="43.9815" lon="5.11772">
        <ele>352.7</ele>
        <time>2013-03-07T13:03:51Z</time>
      </trkpt>
      <trkpt lat="43.98151" lon="5.11768">
        <ele>352.1</ele>
        <time>2013-03-07T13:03:52Z</time>
      </trkpt>
      <trkpt lat="43.98152" lon="5.11765">
        <ele>351.7</ele>
        <time>2013-03-07T13:03:53Z</time>
      </trkpt>
      <trkpt lat="43.98153" lon="5.11762">
        <ele>351.7</ele>
        <time>2013-03-07T13:03:54Z</time>
      </trkpt>
      <trkpt lat="43.98155" lon="5.1176">
        <ele>351.5</ele>
        <time>2013-03-07T13:03:55Z</time>
      </trkpt>
      <trkpt lat="43.98155" lon="5.11756">
        <ele>351.1</ele>
        <time>2013-03-07T13:03:56Z</time>
      </trkpt>
      <trkpt lat="43.98156" lon="5.11752">
        <ele>350.8</ele>
        <time>2013-03-07T13:03:57Z</time>
      </trkpt>
      <trkpt lat="43.98159" lon="5.11751">
        <ele>350.6</ele>
        <time>2013-03-07T13:03:58Z</time>
      </trkpt>
      <trkpt lat="43.98162" lon="5.11751">
        <ele>350.7</ele>
        <time>2013-03-07T13:03:59Z</time>
      </trkpt>
      <trkpt lat="43.98165" lon="5.1175">
        <ele>350.3</ele>
        <time>2013-03-07T13:04:01Z</time>
      </trkpt>
      <trkpt lat="43.98167" lon="5.11749">
        <ele>350.3</ele>
        <time>2013-03-07T13:04:02Z</time>
      </trkpt>
      <trkpt lat="43.98169" lon="5.11749">
        <ele>349.1</ele>
        <time>2013-03-07T13:04:03Z</time>
      </trkpt>
      <trkpt lat="43.98171" lon="5.1175">
        <ele>348.5</ele>
        <time>2013-03-07T13:04:04Z</time>
      </trkpt>
      <trkpt lat="43.98173" lon="5.11751">
        <ele>348</ele>
        <time>2013-03-07T13:04:05Z</time>
      </trkpt>
      <trkpt lat="43.98176" lon="5.11752">
        <ele>347.5</ele>
        <time>2013-03-07T13:04:06Z</time>
      </trkpt>
      <trkpt lat="43.9818" lon="5.11752">
        <ele>347.3</ele>
        <time>2013-03-07T13:04:08Z</time>
      </trkpt>
      <trkpt lat="43.98181" lon="5.11751">
        <ele>347.4</ele>
        <time>2013-03-07T13:04:09Z</time>
      </trkpt>
      <trkpt lat="43.98183" lon="5.11751">
        <ele>348.3</ele>
        <time>2013-03-07T13:04:10Z</time>
      </trkpt>
      <trkpt lat="43.98186" lon="5.11753">
        <ele>346.6</ele>
        <time>2013-03-07T13:04:11Z</time>
      </trkpt>
      <trkpt lat="43.98188" lon="5.11755">
        <ele>346.5</ele>
        <time>2013-03-07T13:04:12Z</time>
      </trkpt>
      <trkpt lat="43.9819" lon="5.11756">
        <ele>346.2</ele>
        <time>2013-03-07T13:04:13Z</time>
      </trkpt>
      <trkpt lat="43.98193" lon="5.11759">
        <ele>344.4</ele>
        <time>2013-03-07T13:04:15Z</time>
      </trkpt>
      <trkpt lat="43.98195" lon="5.1176">
        <ele>343.6</ele>
        <time>2013-03-07T13:04:16Z</time>
      </trkpt>
      <trkpt lat="43.98198" lon="5.11763">
        <ele>342.8</ele>
        <time>2013-03-07T13:04:18Z</time>
      </trkpt>
      <trkpt lat="43.982" lon="5.11767">
        <ele>341</ele>
        <time>2013-03-07T13:04:19Z</time>
      </trkpt>
      <trkpt lat="43.98202" lon="5.11772">
        <ele>339.9</ele>
        <time>2013-03-07T13:04:21Z</time>
      </trkpt>
      <trkpt lat="43.98203" lon="5.11774">
        <ele>339.6</ele>
        <time>2013-03-07T13:04:22Z</time>
      </trkpt>
      <trkpt lat="43.98205" lon="5.11774">
        <ele>339.3</ele>
        <time>2013-03-07T13:04:24Z</time>
      </trkpt>
      <trkpt lat="43.98208" lon="5.11778">
        <ele>330.6</ele>
        <time>2013-03-07T13:04:25Z</time>
      </trkpt>
      <trkpt lat="43.9821" lon="5.11776">
        <ele>331.6</ele>
        <time>2013-03-07T13:04:26Z</time>
      </trkpt>
      <trkpt lat="43.98212" lon="5.11777">
        <ele>330.9</ele>
        <time>2013-03-07T13:04:27Z</time>
      </trkpt>
      <trkpt lat="43.98215" lon="5.11777">
        <ele>332.2</ele>
        <time>2013-03-07T13:04:28Z</time>
      </trkpt>
      <trkpt lat="43.98218" lon="5.11776">
        <ele>332.2</ele>
        <time>2013-03-07T13:04:29Z</time>
      </trkpt>
      <trkpt lat="43.9822" lon="5.11776">
        <ele>332.5</ele>
        <time>2013-03-07T13:04:30Z</time>
      </trkpt>
      <trkpt lat="43.98223" lon="5.11777">
        <ele>332.5</ele>
        <time>2013-03-07T13:04:31Z</time>
      </trkpt>
      <trkpt lat="43.98225" lon="5.1178">
        <ele>333.5</ele>
        <time>2013-03-07T13:04:32Z</time>
      </trkpt>
      <trkpt lat="43.98228" lon="5.11782">
        <ele>333.7</ele>
        <time>2013-03-07T13:04:33Z</time>
      </trkpt>
      <trkpt lat="43.98229" lon="5.11787">
        <ele>333.4</ele>
        <time>2013-03-07T13:04:34Z</time>
      </trkpt>
      <trkpt lat="43.9823" lon="5.1179">
        <ele>332.9</ele>
        <time>2013-03-07T13:04:35Z</time>
      </trkpt>
      <trkpt lat="43.98232" lon="5.11795">
        <ele>330.7</ele>
        <time>2013-03-07T13:04:37Z</time>
      </trkpt>
      <trkpt lat="43.98234" lon="5.11797">
        <ele>331.6</ele>
        <time>2013-03-07T13:04:38Z</time>
      </trkpt>
      <trkpt lat="43.98235" lon="5.11801">
        <ele>331.3</ele>
        <time>2013-03-07T13:04:39Z</time>
      </trkpt>
      <trkpt lat="43.98236" lon="5.11804">
        <ele>331.4</ele>
        <time>2013-03-07T13:04:40Z</time>
      </trkpt>
      <trkpt lat="43.98237" lon="5.11809">
        <ele>331.8</ele>
        <time>2013-03-07T13:04:42Z</time>
      </trkpt>
      <trkpt lat="43.98238" lon="5.11812">
        <ele>331.9</ele>
        <time>2013-03-07T13:04:43Z</time>
      </trkpt>
      <trkpt lat="43.98239" lon="5.11815">
        <ele>331.9</ele>
        <time>2013-03-07T13:04:44Z</time>
      </trkpt>
      <trkpt lat="43.98241" lon="5.11817">
        <ele>332</ele>
        <time>2013-03-07T13:04:45Z</time>
      </trkpt>
      <trkpt lat="43.98243" lon="5.1182">
        <ele>332.2</ele>
        <time>2013-03-07T13:04:46Z</time>
      </trkpt>
      <trkpt lat="43.98245" lon="5.11824">
        <ele>332.2</ele>
        <time>2013-03-07T13:04:47Z</time>
      </trkpt>
      <trkpt lat="43.98246" lon="5.11826">
        <ele>332</ele>
        <time>2013-03-07T13:04:48Z</time>
      </trkpt>
      <trkpt lat="43.98248" lon="5.1183">
        <ele>330.9</ele>
        <time>2013-03-07T13:04:49Z</time>
      </trkpt>
      <trkpt lat="43.9825" lon="5.11834">
        <ele>330.5</ele>
        <time>2013-03-07T13:04:50Z</time>
      </trkpt>
      <trkpt lat="43.98251" lon="5.11837">
        <ele>330.8</ele>
        <time>2013-03-07T13:04:51Z</time>
      </trkpt>
      <trkpt lat="43.98252" lon="5.11843">
        <ele>330.7</ele>
        <time>2013-03-07T13:04:53Z</time>
      </trkpt>
      <trkpt lat="43.98252" lon="5.11846">
        <ele>330.4</ele>
        <time>2013-03-07T13:04:54Z</time>
      </trkpt>
      <trkpt lat="43.9825" lon="5.11849">
        <ele>329.5</ele>
        <time>2013-03-07T13:04:55Z</time>
      </trkpt>
      <trkpt lat="43.98249" lon="5.11852">
        <ele>329.1</ele>
        <time>2013-03-07T13:04:56Z</time>
      </trkpt>
      <trkpt lat="43.98247" lon="5.11856">
        <ele>328.6</ele>
        <time>2013-03-07T13:04:57Z</time>
      </trkpt>
      <trkpt lat="43.98246" lon="5.1186">
        <ele>328.6</ele>
        <time>2013-03-07T13:04:58Z</time>
      </trkpt>
      <trkpt lat="43.98244" lon="5.11863">
        <ele>328.8</ele>
        <time>2013-03-07T13:04:59Z</time>
      </trkpt>
      <trkpt lat="43.98242" lon="5.11865">
        <ele>328.4</ele>
        <time>2013-03-07T13:05:00Z</time>
      </trkpt>
      <trkpt lat="43.98241" lon="5.11869">
        <ele>328.5</ele>
        <time>2013-03-07T13:05:01Z</time>
      </trkpt>
      <trkpt lat="43.98238" lon="5.11873">
        <ele>328.3</ele>
        <time>2013-03-07T13:05:02Z</time>
      </trkpt>
      <trkpt lat="43.98237" lon="5.11877">
        <ele>328.7</ele>
        <time>2013-03-07T13:05:03Z</time>
      </trkpt>
      <trkpt lat="43.98235" lon="5.11881">
        <ele>328.8</ele>
        <time>2013-03-07T13:05:04Z</time>
      </trkpt>
      <trkpt lat="43.98232" lon="5.11884">
        <ele>328.7</ele>
        <time>2013-03-07T13:05:05Z</time>
      </trkpt>
      <trkpt lat="43.98231" lon="5.11886">
        <ele>328.4</ele>
        <time>2013-03-07T13:05:06Z</time>
      </trkpt>
      <trkpt lat="43.98229" lon="5.1189">
        <ele>328.2</ele>
        <time>2013-03-07T13:05:07Z</time>
      </trkpt>
      <trkpt lat="43.98227" lon="5.11893">
        <ele>327.8</ele>
        <time>2013-03-07T13:05:08Z</time>
      </trkpt>
      <trkpt lat="43.98225" lon="5.11897">
        <ele>327.2</ele>
        <time>2013-03-07T13:05:09Z</time>
      </trkpt>
      <trkpt lat="43.98224" lon="5.11902">
        <ele>327.2</ele>
        <time>2013-03-07T13:05:10Z</time>
      </trkpt>
      <trkpt lat="43.98222" lon="5.11905">
        <ele>326.9</ele>
        <time>2013-03-07T13:05:11Z</time>
      </trkpt>
      <trkpt lat="43.98221" lon="5.11908">
        <ele>326.3</ele>
        <time>2013-03-07T13:05:12Z</time>
      </trkpt>
      <trkpt lat="43.98218" lon="5.11914">
        <ele>326</ele>
        <time>2013-03-07T13:05:17Z</time>
      </trkpt>
      <trkpt lat="43.98218" lon="5.11914">
        <ele>326</ele>
        <time>2013-03-07T13:05:18Z</time>
      </trkpt>
      <trkpt lat="43.98216" lon="5.11918">
        <ele>325.9</ele>
        <time>2013-03-07T13:05:21Z</time>
      </trkpt>
      <trkpt lat="43.98215" lon="5.11921">
        <ele>325.7</ele>
        <time>2013-03-07T13:05:22Z</time>
      </trkpt>
      <trkpt lat="43.98212" lon="5.11925">
        <ele>325.2</ele>
        <time>2013-03-07T13:05:24Z</time>
      </trkpt>
      <trkpt lat="43.98211" lon="5.11927">
        <ele>325.4</ele>
        <time>2013-03-07T13:05:25Z</time>
      </trkpt>
      <trkpt lat="43.98209" lon="5.11932">
        <ele>325.8</ele>
        <time>2013-03-07T13:05:27Z</time>
      </trkpt>
      <trkpt lat="43.98208" lon="5.11935">
        <ele>325.6</ele>
        <time>2013-03-07T13:05:28Z</time>
      </trkpt>
      <trkpt lat="43.98207" lon="5.11938">
        <ele>325.6</ele>
        <time>2013-03-07T13:05:29Z</time>
      </trkpt>
      <trkpt lat="43.98205" lon="5.11941">
        <ele>324.7</ele>
        <time>2013-03-07T13:05:30Z</time>
      </trkpt>
      <trkpt lat="43.98204" lon="5.11944">
        <ele>323.8</ele>
        <time>2013-03-07T13:05:31Z</time>
      </trkpt>
      <trkpt lat="43.98202" lon="5.11947">
        <ele>323.8</ele>
        <time>2013-03-07T13:05:32Z</time>
      </trkpt>
      <trkpt lat="43.982" lon="5.1195">
        <ele>323.7</ele>
        <time>2013-03-07T13:05:33Z</time>
      </trkpt>
      <trkpt lat="43.98199" lon="5.11954">
        <ele>323.3</ele>
        <time>2013-03-07T13:05:34Z</time>
      </trkpt>
      <trkpt lat="43.98197" lon="5.11958">
        <ele>322.9</ele>
        <time>2013-03-07T13:05:35Z</time>
      </trkpt>
      <trkpt lat="43.98195" lon="5.11962">
        <ele>322.8</ele>
        <time>2013-03-07T13:05:36Z</time>
      </trkpt>
      <trkpt lat="43.98192" lon="5.11965">
        <ele>322.8</ele>
        <time>2013-03-07T13:05:37Z</time>
      </trkpt>
      <trkpt lat="43.98189" lon="5.11968">
        <ele>322.5</ele>
        <time>2013-03-07T13:05:38Z</time>
      </trkpt>
      <trkpt lat="43.98186" lon="5.11971">
        <ele>322.3</ele>
        <time>2013-03-07T13:05:39Z</time>
      </trkpt>
      <trkpt lat="43.98182" lon="5.11974">
        <ele>322</ele>
        <time>2013-03-07T13:05:40Z</time>
      </trkpt>
      <trkpt lat="43.98179" lon="5.11977">
        <ele>321.7</ele>
        <time>2013-03-07T13:05:41Z</time>
      </trkpt>
      <trkpt lat="43.98176" lon="5.1198">
        <ele>321.3</ele>
        <time>2013-03-07T13:05:42Z</time>
      </trkpt>
      <trkpt lat="43.98173" lon="5.11983">
        <ele>320.9</ele>
        <time>2013-03-07T13:05:43Z</time>
      </trkpt>
      <trkpt lat="43.9817" lon="5.11987">
        <ele>320.8</ele>
        <time>2013-03-07T13:05:44Z</time>
      </trkpt>
      <trkpt lat="43.98165" lon="5.1199">
        <ele>320.5</ele>
        <time>2013-03-07T13:05:45Z</time>
      </trkpt>
      <trkpt lat="43.98162" lon="5.11992">
        <ele>319.6</ele>
        <time>2013-03-07T13:05:46Z</time>
      </trkpt>
      <trkpt lat="43.98159" lon="5.11994">
        <ele>319.1</ele>
        <time>2013-03-07T13:05:47Z</time>
      </trkpt>
      <trkpt lat="43.98156" lon="5.11996">
        <ele>318.5</ele>
        <time>2013-03-07T13:05:48Z</time>
      </trkpt>
      <trkpt lat="43.98153" lon="5.11998">
        <ele>318.2</ele>
        <time>2013-03-07T13:05:49Z</time>
      </trkpt>
      <trkpt lat="43.98149" lon="5.12">
        <ele>318.4</ele>
        <time>2013-03-07T13:05:50Z</time>
      </trkpt>
      <trkpt lat="43.98146" lon="5.12002">
        <ele>318.4</ele>
        <time>2013-03-07T13:05:51Z</time>
      </trkpt>
      <trkpt lat="43.98142" lon="5.12003">
        <ele>318.2</ele>
        <time>2013-03-07T13:05:52Z</time>
      </trkpt>
      <trkpt lat="43.9814" lon="5.12004">
        <ele>318.3</ele>
        <time>2013-03-07T13:05:53Z</time>
      </trkpt>
      <trkpt lat="43.98137" lon="5.12006">
        <ele>318.4</ele>
        <time>2013-03-07T13:05:54Z</time>
      </trkpt>
      <trkpt lat="43.98136" lon="5.1201">
        <ele>318.5</ele>
        <time>2013-03-07T13:05:55Z</time>
      </trkpt>
      <trkpt lat="43.98134" lon="5.12011">
        <ele>318.7</ele>
        <time>2013-03-07T13:05:56Z</time>
      </trkpt>
      <trkpt lat="43.98133" lon="5.12015">
        <ele>319.2</ele>
        <time>2013-03-07T13:05:57Z</time>
      </trkpt>
      <trkpt lat="43.9814" lon="5.1202">
        <ele>320.2</ele>
        <time>2013-03-07T13:05:58Z</time>
      </trkpt>
      <trkpt lat="43.98142" lon="5.12024">
        <ele>321.8</ele>
        <time>2013-03-07T13:06:00Z</time>
      </trkpt>
      <trkpt lat="43.98143" lon="5.12026">
        <ele>323.2</ele>
        <time>2013-03-07T13:06:01Z</time>
      </trkpt>
      <trkpt lat="43.98147" lon="5.12024">
        <ele>325.6</ele>
        <time>2013-03-07T13:06:03Z</time>
      </trkpt>
      <trkpt lat="43.98148" lon="5.12022">
        <ele>326.8</ele>
        <time>2013-03-07T13:06:04Z</time>
      </trkpt>
      <trkpt lat="43.98151" lon="5.12021">
        <ele>333.1</ele>
        <time>2013-03-07T13:06:07Z</time>
      </trkpt>
      <trkpt lat="43.98153" lon="5.12021">
        <ele>333.9</ele>
        <time>2013-03-07T13:06:08Z</time>
      </trkpt>
      <trkpt lat="43.98156" lon="5.1202">
        <ele>335.7</ele>
        <time>2013-03-07T13:06:10Z</time>
      </trkpt>
      <trkpt lat="43.98162" lon="5.12019">
        <ele>339.9</ele>
        <time>2013-03-07T13:06:11Z</time>
      </trkpt>
      <trkpt lat="43.98159" lon="5.12025">
        <ele>342</ele>
        <time>2013-03-07T13:06:12Z</time>
      </trkpt>
      <trkpt lat="43.98161" lon="5.12027">
        <ele>343.5</ele>
        <time>2013-03-07T13:06:13Z</time>
      </trkpt>
      <trkpt lat="43.98162" lon="5.1203">
        <ele>343.7</ele>
        <time>2013-03-07T13:06:14Z</time>
      </trkpt>
      <trkpt lat="43.98159" lon="5.1203">
        <ele>345.9</ele>
        <time>2013-03-07T13:06:16Z</time>
      </trkpt>
      <trkpt lat="43.98158" lon="5.12031">
        <ele>346.1</ele>
        <time>2013-03-07T13:06:17Z</time>
      </trkpt>
      <trkpt lat="43.98154" lon="5.12029">
        <ele>350</ele>
        <time>2013-03-07T13:06:20Z</time>
      </trkpt>
      <trkpt lat="43.98152" lon="5.12027">
        <ele>351</ele>
        <time>2013-03-07T13:06:21Z</time>
      </trkpt>
      <trkpt lat="43.98149" lon="5.12029">
        <ele>350.5</ele>
        <time>2013-03-07T13:06:23Z</time>
      </trkpt>
      <trkpt lat="43.98147" lon="5.1203">
        <ele>350.5</ele>
        <time>2013-03-07T13:06:24Z</time>
      </trkpt>
      <trkpt lat="43.98143" lon="5.12032">
        <ele>353.2</ele>
        <time>2013-03-07T13:06:27Z</time>
      </trkpt>
      <trkpt lat="43.98142" lon="5.12032">
        <ele>353.5</ele>
        <time>2013-03-07T13:06:28Z</time>
      </trkpt>
      <trkpt lat="43.98137" lon="5.12033">
        <ele>352.6</ele>
        <time>2013-03-07T13:06:31Z</time>
      </trkpt>
      <trkpt lat="43.98136" lon="5.12033">
        <ele>353.2</ele>
        <time>2013-03-07T13:06:32Z</time>
      </trkpt>
      <trkpt lat="43.98133" lon="5.12034">
        <ele>353.2</ele>
        <time>2013-03-07T13:06:35Z</time>
      </trkpt>
      <trkpt lat="43.98132" lon="5.12034">
        <ele>353.9</ele>
        <time>2013-03-07T13:06:36Z</time>
      </trkpt>
      <trkpt lat="43.98128" lon="5.12033">
        <ele>355.2</ele>
        <time>2013-03-07T13:06:39Z</time>
      </trkpt>
      <trkpt lat="43.98127" lon="5.12033">
        <ele>355.6</ele>
        <time>2013-03-07T13:06:40Z</time>
      </trkpt>
      <trkpt lat="43.98126" lon="5.12036">
        <ele>363.2</ele>
        <time>2013-03-07T13:06:44Z</time>
      </trkpt>
      <trkpt lat="43.98124" lon="5.12038">
        <ele>364.4</ele>
        <time>2013-03-07T13:06:45Z</time>
      </trkpt>
      <trkpt lat="43.9812" lon="5.1204">
        <ele>364.7</ele>
        <time>2013-03-07T13:06:48Z</time>
      </trkpt>
      <trkpt lat="43.9812" lon="5.12041">
        <ele>364.1</ele>
        <time>2013-03-07T13:06:49Z</time>
      </trkpt>
      <trkpt lat="43.98116" lon="5.12037">
        <ele>370</ele>
        <time>2013-03-07T13:06:50Z</time>
      </trkpt>
      <trkpt lat="43.98113" lon="5.12041">
        <ele>369.3</ele>
        <time>2013-03-07T13:06:54Z</time>
      </trkpt>
      <trkpt lat="43.98111" lon="5.12041">
        <ele>369.5</ele>
        <time>2013-03-07T13:06:55Z</time>
      </trkpt>
      <trkpt lat="43.98107" lon="5.12043">
        <ele>368.5</ele>
        <time>2013-03-07T13:06:58Z</time>
      </trkpt>
      <trkpt lat="43.98105" lon="5.12043">
        <ele>368.3</ele>
        <time>2013-03-07T13:06:59Z</time>
      </trkpt>
      <trkpt lat="43.98103" lon="5.12045">
        <ele>368.6</ele>
        <time>2013-03-07T13:07:01Z</time>
      </trkpt>
      <trkpt lat="43.98101" lon="5.12047">
        <ele>367</ele>
        <time>2013-03-07T13:07:02Z</time>
      </trkpt>
      <trkpt lat="43.98097" lon="5.12046">
        <ele>367.2</ele>
        <time>2013-03-07T13:07:04Z</time>
      </trkpt>
      <trkpt lat="43.98096" lon="5.12047">
        <ele>367.3</ele>
        <time>2013-03-07T13:07:05Z</time>
      </trkpt>
      <trkpt lat="43.98093" lon="5.12051">
        <ele>364.9</ele>
        <time>2013-03-07T13:07:08Z</time>
      </trkpt>
      <trkpt lat="43.98092" lon="5.12052">
        <ele>364.9</ele>
        <time>2013-03-07T13:07:09Z</time>
      </trkpt>
      <trkpt lat="43.98088" lon="5.12055">
        <ele>361.6</ele>
        <time>2013-03-07T13:07:11Z</time>
      </trkpt>
      <trkpt lat="43.98087" lon="5.12055">
        <ele>362</ele>
        <time>2013-03-07T13:07:12Z</time>
      </trkpt>
      <trkpt lat="43.98084" lon="5.12057">
        <ele>361.7</ele>
        <time>2013-03-07T13:07:15Z</time>
      </trkpt>
      <trkpt lat="43.98082" lon="5.12057">
        <ele>362.5</ele>
        <time>2013-03-07T13:07:16Z</time>
      </trkpt>
      <trkpt lat="43.98079" lon="5.12057">
        <ele>363.4</ele>
        <time>2013-03-07T13:07:18Z</time>
      </trkpt>
      <trkpt lat="43.98077" lon="5.12058">
        <ele>362</ele>
        <time>2013-03-07T13:07:19Z</time>
      </trkpt>
      <trkpt lat="43.98073" lon="5.12058">
        <ele>363.4</ele>
        <time>2013-03-07T13:07:22Z</time>
      </trkpt>
      <trkpt lat="43.98071" lon="5.12058">
        <ele>363.7</ele>
        <time>2013-03-07T13:07:23Z</time>
      </trkpt>
      <trkpt lat="43.98068" lon="5.12059">
        <ele>366.2</ele>
        <time>2013-03-07T13:07:26Z</time>
      </trkpt>
      <trkpt lat="43.98067" lon="5.12058">
        <ele>367.3</ele>
        <time>2013-03-07T13:07:27Z</time>
      </trkpt>
      <trkpt lat="43.98062" lon="5.12057">
        <ele>368.2</ele>
        <time>2013-03-07T13:07:30Z</time>
      </trkpt>
      <trkpt lat="43.98061" lon="5.12057">
        <ele>366.6</ele>
        <time>2013-03-07T13:07:31Z</time>
      </trkpt>
      <trkpt lat="43.98059" lon="5.12058">
        <ele>363.9</ele>
        <time>2013-03-07T13:07:32Z</time>
      </trkpt>
      <trkpt lat="43.98056" lon="5.12057">
        <ele>360.4</ele>
        <time>2013-03-07T13:07:33Z</time>
      </trkpt>
      <trkpt lat="43.98053" lon="5.12054">
        <ele>358</ele>
        <time>2013-03-07T13:07:36Z</time>
      </trkpt>
      <trkpt lat="43.98052" lon="5.12052">
        <ele>357.7</ele>
        <time>2013-03-07T13:07:37Z</time>
      </trkpt>
      <trkpt lat="43.98049" lon="5.12056">
        <ele>354.6</ele>
        <time>2013-03-07T13:07:42Z</time>
      </trkpt>
      <trkpt lat="43.98049" lon="5.12057">
        <ele>353.9</ele>
        <time>2013-03-07T13:07:43Z</time>
      </trkpt>
      <trkpt lat="43.98053" lon="5.12061">
        <ele>352.5</ele>
        <time>2013-03-07T13:07:47Z</time>
      </trkpt>
      <trkpt lat="43.98054" lon="5.12061">
        <ele>352.1</ele>
        <time>2013-03-07T13:07:48Z</time>
      </trkpt>
      <trkpt lat="43.98057" lon="5.12058">
        <ele>351.1</ele>
        <time>2013-03-07T13:07:51Z</time>
      </trkpt>
      <trkpt lat="43.98058" lon="5.12057">
        <ele>350.9</ele>
        <time>2013-03-07T13:07:52Z</time>
      </trkpt>
      <trkpt lat="43.98061" lon="5.12054">
        <ele>349.8</ele>
        <time>2013-03-07T13:07:54Z</time>
      </trkpt>
      <trkpt lat="43.98063" lon="5.12052">
        <ele>349.2</ele>
        <time>2013-03-07T13:07:55Z</time>
      </trkpt>
      <trkpt lat="43.98064" lon="5.12049">
        <ele>347.4</ele>
        <time>2013-03-07T13:07:58Z</time>
      </trkpt>
      <trkpt lat="43.98056" lon="5.12061">
        <ele>347.9</ele>
        <time>2013-03-07T13:07:59Z</time>
      </trkpt>
      <trkpt lat="43.98058" lon="5.12057">
        <ele>345.2</ele>
        <time>2013-03-07T13:08:06Z</time>
      </trkpt>
      <trkpt lat="43.98058" lon="5.12056">
        <ele>344.8</ele>
        <time>2013-03-07T13:08:07Z</time>
      </trkpt>
      <trkpt lat="43.98054" lon="5.12055">
        <ele>341.7</ele>
        <time>2013-03-07T13:08:57Z</time>
      </trkpt>
      <trkpt lat="43.98054" lon="5.12057">
        <ele>341.7</ele>
        <time>2013-03-07T13:08:58Z</time>
      </trkpt>
      <trkpt lat="43.98056" lon="5.12061">
        <ele>341.3</ele>
        <time>2013-03-07T13:09:04Z</time>
      </trkpt>
      <trkpt lat="43.98057" lon="5.12065">
        <ele>340.1</ele>
        <time>2013-03-07T13:09:05Z</time>
      </trkpt>
      <trkpt lat="43.98057" lon="5.12068">
        <ele>339</ele>
        <time>2013-03-07T13:09:06Z</time>
      </trkpt>
      <trkpt lat="43.98058" lon="5.12072">
        <ele>338.4</ele>
        <time>2013-03-07T13:09:07Z</time>
      </trkpt>
      <trkpt lat="43.98054" lon="5.12069">
        <ele>341.7</ele>
        <time>2013-03-07T13:09:09Z</time>
      </trkpt>
      <trkpt lat="43.98053" lon="5.1207">
        <ele>341.4</ele>
        <time>2013-03-07T13:09:10Z</time>
      </trkpt>
      <trkpt lat="43.98049" lon="5.12071">
        <ele>339.8</ele>
        <time>2013-03-07T13:09:14Z</time>
      </trkpt>
      <trkpt lat="43.98047" lon="5.12071">
        <ele>339.9</ele>
        <time>2013-03-07T13:09:15Z</time>
      </trkpt>
      <trkpt lat="43.98043" lon="5.12071">
        <ele>346.2</ele>
        <time>2013-03-07T13:09:19Z</time>
      </trkpt>
      <trkpt lat="43.98042" lon="5.12071">
        <ele>346.8</ele>
        <time>2013-03-07T13:09:20Z</time>
      </trkpt>
      <trkpt lat="43.98039" lon="5.12072">
        <ele>348.1</ele>
        <time>2013-03-07T13:09:23Z</time>
      </trkpt>
      <trkpt lat="43.98038" lon="5.12076">
        <ele>345.4</ele>
        <time>2013-03-07T13:09:24Z</time>
      </trkpt>
      <trkpt lat="43.98034" lon="5.12078">
        <ele>346.9</ele>
        <time>2013-03-07T13:09:27Z</time>
      </trkpt>
      <trkpt lat="43.98032" lon="5.12079">
        <ele>347.6</ele>
        <time>2013-03-07T13:09:28Z</time>
      </trkpt>
      <trkpt lat="43.98029" lon="5.12083">
        <ele>345.9</ele>
        <time>2013-03-07T13:09:31Z</time>
      </trkpt>
      <trkpt lat="43.98028" lon="5.12084">
        <ele>345.6</ele>
        <time>2013-03-07T13:09:32Z</time>
      </trkpt>
      <trkpt lat="43.98025" lon="5.12087">
        <ele>344.2</ele>
        <time>2013-03-07T13:09:34Z</time>
      </trkpt>
      <trkpt lat="43.98023" lon="5.12087">
        <ele>345.7</ele>
        <time>2013-03-07T13:09:35Z</time>
      </trkpt>
      <trkpt lat="43.98018" lon="5.12088">
        <ele>346.7</ele>
        <time>2013-03-07T13:09:38Z</time>
      </trkpt>
      <trkpt lat="43.98017" lon="5.12089">
        <ele>346.9</ele>
        <time>2013-03-07T13:09:39Z</time>
      </trkpt>
      <trkpt lat="43.98014" lon="5.12091">
        <ele>347.8</ele>
        <time>2013-03-07T13:09:41Z</time>
      </trkpt>
      <trkpt lat="43.98013" lon="5.12093">
        <ele>347.7</ele>
        <time>2013-03-07T13:09:42Z</time>
      </trkpt>
      <trkpt lat="43.98009" lon="5.12096">
        <ele>347.3</ele>
        <time>2013-03-07T13:09:44Z</time>
      </trkpt>
      <trkpt lat="43.98008" lon="5.12098">
        <ele>347.3</ele>
        <time>2013-03-07T13:09:45Z</time>
      </trkpt>
      <trkpt lat="43.98006" lon="5.12102">
        <ele>346.8</ele>
        <time>2013-03-07T13:09:47Z</time>
      </trkpt>
      <trkpt lat="43.98004" lon="5.12106">
        <ele>345.6</ele>
        <time>2013-03-07T13:09:48Z</time>
      </trkpt>
      <trkpt lat="43.98" lon="5.12107">
        <ele>347.3</ele>
        <time>2013-03-07T13:09:51Z</time>
      </trkpt>
      <trkpt lat="43.97999" lon="5.12108">
        <ele>347.6</ele>
        <time>2013-03-07T13:09:52Z</time>
      </trkpt>
      <trkpt lat="43.97997" lon="5.12111">
        <ele>347.9</ele>
        <time>2013-03-07T13:09:54Z</time>
      </trkpt>
      <trkpt lat="43.97995" lon="5.12112">
        <ele>348.2</ele>
        <time>2013-03-07T13:09:55Z</time>
      </trkpt>
      <trkpt lat="43.97992" lon="5.12114">
        <ele>348.4</ele>
        <time>2013-03-07T13:09:57Z</time>
      </trkpt>
      <trkpt lat="43.97991" lon="5.12115">
        <ele>348.6</ele>
        <time>2013-03-07T13:09:58Z</time>
      </trkpt>
      <trkpt lat="43.97989" lon="5.12117">
        <ele>350.1</ele>
        <time>2013-03-07T13:10:00Z</time>
      </trkpt>
      <trkpt lat="43.97987" lon="5.12119">
        <ele>350.1</ele>
        <time>2013-03-07T13:10:01Z</time>
      </trkpt>
      <trkpt lat="43.97984" lon="5.12121">
        <ele>350.4</ele>
        <time>2013-03-07T13:10:03Z</time>
      </trkpt>
      <trkpt lat="43.97983" lon="5.12122">
        <ele>350.6</ele>
        <time>2013-03-07T13:10:04Z</time>
      </trkpt>
      <trkpt lat="43.9798" lon="5.12125">
        <ele>350.8</ele>
        <time>2013-03-07T13:10:06Z</time>
      </trkpt>
      <trkpt lat="43.97978" lon="5.12126">
        <ele>351.1</ele>
        <time>2013-03-07T13:10:07Z</time>
      </trkpt>
      <trkpt lat="43.97975" lon="5.12128">
        <ele>351.7</ele>
        <time>2013-03-07T13:10:09Z</time>
      </trkpt>
      <trkpt lat="43.97973" lon="5.12129">
        <ele>351.8</ele>
        <time>2013-03-07T13:10:10Z</time>
      </trkpt>
      <trkpt lat="43.9797" lon="5.12131">
        <ele>351.5</ele>
        <time>2013-03-07T13:10:12Z</time>
      </trkpt>
      <trkpt lat="43.97968" lon="5.12132">
        <ele>351.3</ele>
        <time>2013-03-07T13:10:13Z</time>
      </trkpt>
      <trkpt lat="43.97965" lon="5.12135">
        <ele>351.5</ele>
        <time>2013-03-07T13:10:15Z</time>
      </trkpt>
      <trkpt lat="43.97964" lon="5.12137">
        <ele>351.5</ele>
        <time>2013-03-07T13:10:16Z</time>
      </trkpt>
      <trkpt lat="43.97961" lon="5.12141">
        <ele>351.7</ele>
        <time>2013-03-07T13:10:19Z</time>
      </trkpt>
      <trkpt lat="43.97959" lon="5.12143">
        <ele>351.7</ele>
        <time>2013-03-07T13:10:20Z</time>
      </trkpt>
      <trkpt lat="43.97957" lon="5.12147">
        <ele>352.6</ele>
        <time>2013-03-07T13:10:22Z</time>
      </trkpt>
      <trkpt lat="43.97956" lon="5.1215">
        <ele>352.5</ele>
        <time>2013-03-07T13:10:23Z</time>
      </trkpt>
      <trkpt lat="43.97953" lon="5.12154">
        <ele>352.7</ele>
        <time>2013-03-07T13:10:25Z</time>
      </trkpt>
      <trkpt lat="43.97952" lon="5.12157">
        <ele>352.8</ele>
        <time>2013-03-07T13:10:26Z</time>
      </trkpt>
      <trkpt lat="43.97949" lon="5.12161">
        <ele>358.6</ele>
        <time>2013-03-07T13:10:30Z</time>
      </trkpt>
      <trkpt lat="43.97949" lon="5.12164">
        <ele>358.9</ele>
        <time>2013-03-07T13:10:31Z</time>
      </trkpt>
      <trkpt lat="43.9795" lon="5.12168">
        <ele>359.6</ele>
        <time>2013-03-07T13:10:33Z</time>
      </trkpt>
      <trkpt lat="43.9795" lon="5.1217">
        <ele>359.9</ele>
        <time>2013-03-07T13:10:34Z</time>
      </trkpt>
      <trkpt lat="43.97949" lon="5.12175">
        <ele>359.8</ele>
        <time>2013-03-07T13:10:37Z</time>
      </trkpt>
      <trkpt lat="43.97948" lon="5.12177">
        <ele>359.8</ele>
        <time>2013-03-07T13:10:38Z</time>
      </trkpt>
      <trkpt lat="43.97947" lon="5.12182">
        <ele>360.9</ele>
        <time>2013-03-07T13:10:41Z</time>
      </trkpt>
      <trkpt lat="43.97946" lon="5.12183">
        <ele>361</ele>
        <time>2013-03-07T13:10:42Z</time>
      </trkpt>
      <trkpt lat="43.97944" lon="5.12186">
        <ele>361.1</ele>
        <time>2013-03-07T13:10:44Z</time>
      </trkpt>
      <trkpt lat="43.97943" lon="5.12188">
        <ele>361.2</ele>
        <time>2013-03-07T13:10:45Z</time>
      </trkpt>
      <trkpt lat="43.9794" lon="5.12191">
        <ele>360.8</ele>
        <time>2013-03-07T13:10:47Z</time>
      </trkpt>
      <trkpt lat="43.97939" lon="5.12193">
        <ele>360.9</ele>
        <time>2013-03-07T13:10:48Z</time>
      </trkpt>
      <trkpt lat="43.97936" lon="5.12196">
        <ele>360.6</ele>
        <time>2013-03-07T13:10:50Z</time>
      </trkpt>
      <trkpt lat="43.97935" lon="5.12197">
        <ele>360.5</ele>
        <time>2013-03-07T13:10:51Z</time>
      </trkpt>
      <trkpt lat="43.97932" lon="5.12202">
        <ele>361.2</ele>
        <time>2013-03-07T13:10:53Z</time>
      </trkpt>
      <trkpt lat="43.97931" lon="5.12204">
        <ele>361</ele>
        <time>2013-03-07T13:10:54Z</time>
      </trkpt>
      <trkpt lat="43.97928" lon="5.12204">
        <ele>362.1</ele>
        <time>2013-03-07T13:10:56Z</time>
      </trkpt>
      <trkpt lat="43.97926" lon="5.12205">
        <ele>361.7</ele>
        <time>2013-03-07T13:10:57Z</time>
      </trkpt>
      <trkpt lat="43.97924" lon="5.12205">
        <ele>362.6</ele>
        <time>2013-03-07T13:10:59Z</time>
      </trkpt>
      <trkpt lat="43.97922" lon="5.12206">
        <ele>362.7</ele>
        <time>2013-03-07T13:11:00Z</time>
      </trkpt>
      <trkpt lat="43.97918" lon="5.12207">
        <ele>362.6</ele>
        <time>2013-03-07T13:11:02Z</time>
      </trkpt>
      <trkpt lat="43.97916" lon="5.12208">
        <ele>362.4</ele>
        <time>2013-03-07T13:11:03Z</time>
      </trkpt>
      <trkpt lat="43.97913" lon="5.12211">
        <ele>362.9</ele>
        <time>2013-03-07T13:11:05Z</time>
      </trkpt>
      <trkpt lat="43.97911" lon="5.12211">
        <ele>363.9</ele>
        <time>2013-03-07T13:11:06Z</time>
      </trkpt>
      <trkpt lat="43.97906" lon="5.12212">
        <ele>365</ele>
        <time>2013-03-07T13:11:08Z</time>
      </trkpt>
      <trkpt lat="43.97905" lon="5.12215">
        <ele>364.6</ele>
        <time>2013-03-07T13:11:09Z</time>
      </trkpt>
      <trkpt lat="43.97901" lon="5.12217">
        <ele>365.2</ele>
        <time>2013-03-07T13:11:11Z</time>
      </trkpt>
      <trkpt lat="43.979" lon="5.12219">
        <ele>365.4</ele>
        <time>2013-03-07T13:11:12Z</time>
      </trkpt>
      <trkpt lat="43.97897" lon="5.12222">
        <ele>365.9</ele>
        <time>2013-03-07T13:11:14Z</time>
      </trkpt>
      <trkpt lat="43.97896" lon="5.12223">
        <ele>366</ele>
        <time>2013-03-07T13:11:15Z</time>
      </trkpt>
      <trkpt lat="43.97893" lon="5.12226">
        <ele>366</ele>
        <time>2013-03-07T13:11:17Z</time>
      </trkpt>
      <trkpt lat="43.97891" lon="5.12227">
        <ele>365.9</ele>
        <time>2013-03-07T13:11:18Z</time>
      </trkpt>
      <trkpt lat="43.97889" lon="5.1223">
        <ele>366.1</ele>
        <time>2013-03-07T13:11:20Z</time>
      </trkpt>
      <trkpt lat="43.97887" lon="5.12231">
        <ele>366.1</ele>
        <time>2013-03-07T13:11:21Z</time>
      </trkpt>
      <trkpt lat="43.97884" lon="5.12234">
        <ele>367.5</ele>
        <time>2013-03-07T13:11:24Z</time>
      </trkpt>
      <trkpt lat="43.97882" lon="5.12234">
        <ele>367.6</ele>
        <time>2013-03-07T13:11:25Z</time>
      </trkpt>
      <trkpt lat="43.97879" lon="5.12236">
        <ele>367.7</ele>
        <time>2013-03-07T13:11:27Z</time>
      </trkpt>
      <trkpt lat="43.97877" lon="5.12236">
        <ele>367.1</ele>
        <time>2013-03-07T13:11:28Z</time>
      </trkpt>
      <trkpt lat="43.97874" lon="5.12238">
        <ele>367</ele>
        <time>2013-03-07T13:11:30Z</time>
      </trkpt>
      <trkpt lat="43.97873" lon="5.12238">
        <ele>367.6</ele>
        <time>2013-03-07T13:11:31Z</time>
      </trkpt>
      <trkpt lat="43.97868" lon="5.1224">
        <ele>366.9</ele>
        <time>2013-03-07T13:11:34Z</time>
      </trkpt>
      <trkpt lat="43.97867" lon="5.12241">
        <ele>366.8</ele>
        <time>2013-03-07T13:11:35Z</time>
      </trkpt>
      <trkpt lat="43.97864" lon="5.12243">
        <ele>366.5</ele>
        <time>2013-03-07T13:11:37Z</time>
      </trkpt>
      <trkpt lat="43.97863" lon="5.12244">
        <ele>366</ele>
        <time>2013-03-07T13:11:38Z</time>
      </trkpt>
      <trkpt lat="43.97859" lon="5.12247">
        <ele>365.6</ele>
        <time>2013-03-07T13:11:40Z</time>
      </trkpt>
      <trkpt lat="43.97857" lon="5.12248">
        <ele>365.6</ele>
        <time>2013-03-07T13:11:41Z</time>
      </trkpt>
      <trkpt lat="43.97854" lon="5.12252">
        <ele>365.4</ele>
        <time>2013-03-07T13:11:43Z</time>
      </trkpt>
      <trkpt lat="43.97853" lon="5.12253">
        <ele>365.2</ele>
        <time>2013-03-07T13:11:44Z</time>
      </trkpt>
      <trkpt lat="43.9785" lon="5.12256">
        <ele>365.1</ele>
        <time>2013-03-07T13:11:46Z</time>
      </trkpt>
      <trkpt lat="43.97849" lon="5.12257">
        <ele>365</ele>
        <time>2013-03-07T13:11:47Z</time>
      </trkpt>
      <trkpt lat="43.97846" lon="5.12262">
        <ele>364.9</ele>
        <time>2013-03-07T13:11:51Z</time>
      </trkpt>
      <trkpt lat="43.97844" lon="5.12262">
        <ele>364.9</ele>
        <time>2013-03-07T13:11:52Z</time>
      </trkpt>
      <trkpt lat="43.97841" lon="5.12266">
        <ele>365.7</ele>
        <time>2013-03-07T13:11:55Z</time>
      </trkpt>
      <trkpt lat="43.97841" lon="5.12268">
        <ele>365.4</ele>
        <time>2013-03-07T13:11:56Z</time>
      </trkpt>
      <trkpt lat="43.97845" lon="5.12271">
        <ele>364.9</ele>
        <time>2013-03-07T13:11:59Z</time>
      </trkpt>
      <trkpt lat="43.97847" lon="5.12272">
        <ele>365.2</ele>
        <time>2013-03-07T13:12:00Z</time>
      </trkpt>
      <trkpt lat="43.97851" lon="5.12272">
        <ele>366.4</ele>
        <time>2013-03-07T13:12:03Z</time>
      </trkpt>
      <trkpt lat="43.97853" lon="5.12273">
        <ele>366.5</ele>
        <time>2013-03-07T13:12:04Z</time>
      </trkpt>
      <trkpt lat="43.97856" lon="5.12272">
        <ele>366.4</ele>
        <time>2013-03-07T13:12:06Z</time>
      </trkpt>
      <trkpt lat="43.97857" lon="5.12271">
        <ele>366.5</ele>
        <time>2013-03-07T13:12:07Z</time>
      </trkpt>
      <trkpt lat="43.9786" lon="5.12274">
        <ele>367.4</ele>
        <time>2013-03-07T13:12:10Z</time>
      </trkpt>
      <trkpt lat="43.97861" lon="5.12275">
        <ele>368.2</ele>
        <time>2013-03-07T13:12:11Z</time>
      </trkpt>
      <trkpt lat="43.97864" lon="5.12279">
        <ele>371.8</ele>
        <time>2013-03-07T13:12:20Z</time>
      </trkpt>
      <trkpt lat="43.97865" lon="5.12279">
        <ele>371.8</ele>
        <time>2013-03-07T13:12:21Z</time>
      </trkpt>
      <trkpt lat="43.97868" lon="5.12282">
        <ele>375.6</ele>
        <time>2013-03-07T13:12:30Z</time>
      </trkpt>
      <trkpt lat="43.97869" lon="5.12283">
        <ele>375.4</ele>
        <time>2013-03-07T13:12:31Z</time>
      </trkpt>
      <trkpt lat="43.97872" lon="5.12287">
        <ele>375.5</ele>
        <time>2013-03-07T13:12:48Z</time>
      </trkpt>
      <trkpt lat="43.97873" lon="5.12287">
        <ele>376.4</ele>
        <time>2013-03-07T13:12:49Z</time>
      </trkpt>
      <trkpt lat="43.97877" lon="5.1229">
        <ele>377.2</ele>
        <time>2013-03-07T13:12:54Z</time>
      </trkpt>
      <trkpt lat="43.97878" lon="5.1229">
        <ele>377.5</ele>
        <time>2013-03-07T13:12:55Z</time>
      </trkpt>
      <trkpt lat="43.97881" lon="5.12293">
        <ele>378.1</ele>
        <time>2013-03-07T13:13:55Z</time>
      </trkpt>
      <trkpt lat="43.97883" lon="5.12292">
        <ele>381.9</ele>
        <time>2013-03-07T13:13:56Z</time>
      </trkpt>
      <trkpt lat="43.97886" lon="5.12296">
        <ele>380</ele>
        <time>2013-03-07T13:14:00Z</time>
      </trkpt>
      <trkpt lat="43.97887" lon="5.12297">
        <ele>380.1</ele>
        <time>2013-03-07T13:14:01Z</time>
      </trkpt>
      <trkpt lat="43.9789" lon="5.12299">
        <ele>379.5</ele>
        <time>2013-03-07T13:14:03Z</time>
      </trkpt>
      <trkpt lat="43.97892" lon="5.12301">
        <ele>379.4</ele>
        <time>2013-03-07T13:14:04Z</time>
      </trkpt>
      <trkpt lat="43.97895" lon="5.12303">
        <ele>379.8</ele>
        <time>2013-03-07T13:14:06Z</time>
      </trkpt>
      <trkpt lat="43.97897" lon="5.12304">
        <ele>379.8</ele>
        <time>2013-03-07T13:14:07Z</time>
      </trkpt>
      <trkpt lat="43.979" lon="5.12306">
        <ele>381.3</ele>
        <time>2013-03-07T13:14:09Z</time>
      </trkpt>
      <trkpt lat="43.97901" lon="5.12309">
        <ele>380.7</ele>
        <time>2013-03-07T13:14:10Z</time>
      </trkpt>
      <trkpt lat="43.97904" lon="5.12312">
        <ele>380.8</ele>
        <time>2013-03-07T13:14:12Z</time>
      </trkpt>
      <trkpt lat="43.97905" lon="5.12314">
        <ele>381.2</ele>
        <time>2013-03-07T13:14:13Z</time>
      </trkpt>
      <trkpt lat="43.97908" lon="5.12318">
        <ele>380.7</ele>
        <time>2013-03-07T13:14:15Z</time>
      </trkpt>
      <trkpt lat="43.97909" lon="5.1232">
        <ele>380.2</ele>
        <time>2013-03-07T13:14:16Z</time>
      </trkpt>
      <trkpt lat="43.97912" lon="5.12324">
        <ele>380</ele>
        <time>2013-03-07T13:14:18Z</time>
      </trkpt>
      <trkpt lat="43.97913" lon="5.12326">
        <ele>380</ele>
        <time>2013-03-07T13:14:19Z</time>
      </trkpt>
      <trkpt lat="43.97915" lon="5.1233">
        <ele>380.2</ele>
        <time>2013-03-07T13:14:21Z</time>
      </trkpt>
      <trkpt lat="43.97916" lon="5.12332">
        <ele>380.3</ele>
        <time>2013-03-07T13:14:22Z</time>
      </trkpt>
      <trkpt lat="43.97916" lon="5.12338">
        <ele>380.5</ele>
        <time>2013-03-07T13:14:24Z</time>
      </trkpt>
      <trkpt lat="43.97915" lon="5.1234">
        <ele>381.1</ele>
        <time>2013-03-07T13:14:25Z</time>
      </trkpt>
      <trkpt lat="43.97914" lon="5.12345">
        <ele>380.1</ele>
        <time>2013-03-07T13:14:27Z</time>
      </trkpt>
      <trkpt lat="43.97914" lon="5.12348">
        <ele>379.5</ele>
        <time>2013-03-07T13:14:28Z</time>
      </trkpt>
      <trkpt lat="43.97914" lon="5.12353">
        <ele>378.9</ele>
        <time>2013-03-07T13:14:30Z</time>
      </trkpt>
      <trkpt lat="43.97914" lon="5.12356">
        <ele>378.2</ele>
        <time>2013-03-07T13:14:31Z</time>
      </trkpt>
      <trkpt lat="43.97915" lon="5.1236">
        <ele>378.3</ele>
        <time>2013-03-07T13:14:32Z</time>
      </trkpt>
      <trkpt lat="43.97915" lon="5.12363">
        <ele>377.7</ele>
        <time>2013-03-07T13:14:33Z</time>
      </trkpt>
      <trkpt lat="43.97916" lon="5.12367">
        <ele>377.4</ele>
        <time>2013-03-07T13:14:34Z</time>
      </trkpt>
      <trkpt lat="43.97917" lon="5.12371">
        <ele>376.9</ele>
        <time>2013-03-07T13:14:35Z</time>
      </trkpt>
      <trkpt lat="43.97918" lon="5.12374">
        <ele>376.5</ele>
        <time>2013-03-07T13:14:36Z</time>
      </trkpt>
      <trkpt lat="43.9792" lon="5.12378">
        <ele>376</ele>
        <time>2013-03-07T13:14:37Z</time>
      </trkpt>
      <trkpt lat="43.97921" lon="5.12383">
        <ele>375.5</ele>
        <time>2013-03-07T13:14:38Z</time>
      </trkpt>
      <trkpt lat="43.97922" lon="5.12387">
        <ele>375.1</ele>
        <time>2013-03-07T13:14:39Z</time>
      </trkpt>
      <trkpt lat="43.97924" lon="5.12391">
        <ele>374.7</ele>
        <time>2013-03-07T13:14:40Z</time>
      </trkpt>
      <trkpt lat="43.97925" lon="5.12395">
        <ele>374.2</ele>
        <time>2013-03-07T13:14:41Z</time>
      </trkpt>
      <trkpt lat="43.97926" lon="5.12399">
        <ele>373.7</ele>
        <time>2013-03-07T13:14:42Z</time>
      </trkpt>
      <trkpt lat="43.97927" lon="5.12403">
        <ele>373.2</ele>
        <time>2013-03-07T13:14:43Z</time>
      </trkpt>
      <trkpt lat="43.97929" lon="5.12407">
        <ele>373.2</ele>
        <time>2013-03-07T13:14:44Z</time>
      </trkpt>
      <trkpt lat="43.9793" lon="5.12411">
        <ele>374.2</ele>
        <time>2013-03-07T13:14:45Z</time>
      </trkpt>
      <trkpt lat="43.97931" lon="5.12413">
        <ele>376.4</ele>
        <time>2013-03-07T13:14:46Z</time>
      </trkpt>
      <trkpt lat="43.97933" lon="5.12421">
        <ele>375.9</ele>
        <time>2013-03-07T13:14:47Z</time>
      </trkpt>
      <trkpt lat="43.97935" lon="5.12426">
        <ele>375.4</ele>
        <time>2013-03-07T13:14:48Z</time>
      </trkpt>
      <trkpt lat="43.97936" lon="5.12432">
        <ele>375.4</ele>
        <time>2013-03-07T13:14:49Z</time>
      </trkpt>
      <trkpt lat="43.97937" lon="5.12438">
        <ele>374.9</ele>
        <time>2013-03-07T13:14:50Z</time>
      </trkpt>
      <trkpt lat="43.97939" lon="5.12444">
        <ele>374.6</ele>
        <time>2013-03-07T13:14:51Z</time>
      </trkpt>
      <trkpt lat="43.97941" lon="5.12449">
        <ele>374.5</ele>
        <time>2013-03-07T13:14:52Z</time>
      </trkpt>
      <trkpt lat="43.97943" lon="5.12454">
        <ele>374.5</ele>
        <time>2013-03-07T13:14:53Z</time>
      </trkpt>
      <trkpt lat="43.97945" lon="5.12459">
        <ele>375.8</ele>
        <time>2013-03-07T13:14:54Z</time>
      </trkpt>
      <trkpt lat="43.97948" lon="5.12459">
        <ele>379.9</ele>
        <time>2013-03-07T13:14:55Z</time>
      </trkpt>
      <trkpt lat="43.97948" lon="5.12463">
        <ele>380.8</ele>
        <time>2013-03-07T13:14:56Z</time>
      </trkpt>
      <trkpt lat="43.97949" lon="5.12466">
        <ele>382.4</ele>
        <time>2013-03-07T13:14:57Z</time>
      </trkpt>
      <trkpt lat="43.9795" lon="5.1247">
        <ele>382.7</ele>
        <time>2013-03-07T13:14:58Z</time>
      </trkpt>
      <trkpt lat="43.97952" lon="5.12473">
        <ele>383.2</ele>
        <time>2013-03-07T13:14:59Z</time>
      </trkpt>
      <trkpt lat="43.97954" lon="5.12475">
        <ele>383</ele>
        <time>2013-03-07T13:15:00Z</time>
      </trkpt>
      <trkpt lat="43.97956" lon="5.12478">
        <ele>382.8</ele>
        <time>2013-03-07T13:15:01Z</time>
      </trkpt>
      <trkpt lat="43.97957" lon="5.1248">
        <ele>382.8</ele>
        <time>2013-03-07T13:15:02Z</time>
      </trkpt>
      <trkpt lat="43.97962" lon="5.12477">
        <ele>382.3</ele>
        <time>2013-03-07T13:15:03Z</time>
      </trkpt>
      <trkpt lat="43.97966" lon="5.12475">
        <ele>382.8</ele>
        <time>2013-03-07T13:15:04Z</time>
      </trkpt>
      <trkpt lat="43.9797" lon="5.12474">
        <ele>382.3</ele>
        <time>2013-03-07T13:15:05Z</time>
      </trkpt>
      <trkpt lat="43.97974" lon="5.12473">
        <ele>381.1</ele>
        <time>2013-03-07T13:15:06Z</time>
      </trkpt>
      <trkpt lat="43.97979" lon="5.12472">
        <ele>381.1</ele>
        <time>2013-03-07T13:15:07Z</time>
      </trkpt>
      <trkpt lat="43.97983" lon="5.12471">
        <ele>381.3</ele>
        <time>2013-03-07T13:15:08Z</time>
      </trkpt>
      <trkpt lat="43.97987" lon="5.1247">
        <ele>379.7</ele>
        <time>2013-03-07T13:15:09Z</time>
      </trkpt>
      <trkpt lat="43.97991" lon="5.12469">
        <ele>379.1</ele>
        <time>2013-03-07T13:15:10Z</time>
      </trkpt>
      <trkpt lat="43.97995" lon="5.12468">
        <ele>378.8</ele>
        <time>2013-03-07T13:15:11Z</time>
      </trkpt>
      <trkpt lat="43.97999" lon="5.12467">
        <ele>378.7</ele>
        <time>2013-03-07T13:15:12Z</time>
      </trkpt>
      <trkpt lat="43.98003" lon="5.12464">
        <ele>378.6</ele>
        <time>2013-03-07T13:15:13Z</time>
      </trkpt>
      <trkpt lat="43.98007" lon="5.12462">
        <ele>378.8</ele>
        <time>2013-03-07T13:15:14Z</time>
      </trkpt>
      <trkpt lat="43.98011" lon="5.12461">
        <ele>378.4</ele>
        <time>2013-03-07T13:15:15Z</time>
      </trkpt>
      <trkpt lat="43.98015" lon="5.1246">
        <ele>377</ele>
        <time>2013-03-07T13:15:16Z</time>
      </trkpt>
      <trkpt lat="43.98019" lon="5.12459">
        <ele>376</ele>
        <time>2013-03-07T13:15:17Z</time>
      </trkpt>
      <trkpt lat="43.98023" lon="5.12457">
        <ele>375.2</ele>
        <time>2013-03-07T13:15:18Z</time>
      </trkpt>
      <trkpt lat="43.98027" lon="5.12456">
        <ele>374.5</ele>
        <time>2013-03-07T13:15:19Z</time>
      </trkpt>
      <trkpt lat="43.98031" lon="5.12455">
        <ele>374.4</ele>
        <time>2013-03-07T13:15:20Z</time>
      </trkpt>
      <trkpt lat="43.98035" lon="5.12454">
        <ele>373.9</ele>
        <time>2013-03-07T13:15:21Z</time>
      </trkpt>
      <trkpt lat="43.98039" lon="5.12451">
        <ele>374.5</ele>
        <time>2013-03-07T13:15:22Z</time>
      </trkpt>
      <trkpt lat="43.98042" lon="5.1245">
        <ele>374.1</ele>
        <time>2013-03-07T13:15:23Z</time>
      </trkpt>
      <trkpt lat="43.98046" lon="5.12448">
        <ele>374.4</ele>
        <time>2013-03-07T13:15:24Z</time>
      </trkpt>
      <trkpt lat="43.9805" lon="5.12447">
        <ele>374.2</ele>
        <time>2013-03-07T13:15:25Z</time>
      </trkpt>
      <trkpt lat="43.98054" lon="5.12446">
        <ele>373.9</ele>
        <time>2013-03-07T13:15:26Z</time>
      </trkpt>
      <trkpt lat="43.98058" lon="5.12445">
        <ele>373.7</ele>
        <time>2013-03-07T13:15:27Z</time>
      </trkpt>
      <trkpt lat="43.98061" lon="5.12444">
        <ele>374</ele>
        <time>2013-03-07T13:15:28Z</time>
      </trkpt>
      <trkpt lat="43.98065" lon="5.12442">
        <ele>374</ele>
        <time>2013-03-07T13:15:29Z</time>
      </trkpt>
      <trkpt lat="43.9807" lon="5.12441">
        <ele>373.3</ele>
        <time>2013-03-07T13:15:30Z</time>
      </trkpt>
      <trkpt lat="43.98073" lon="5.12439">
        <ele>373.3</ele>
        <time>2013-03-07T13:15:31Z</time>
      </trkpt>
      <trkpt lat="43.98078" lon="5.12438">
        <ele>372.5</ele>
        <time>2013-03-07T13:15:32Z</time>
      </trkpt>
      <trkpt lat="43.98082" lon="5.12437">
        <ele>371.7</ele>
        <time>2013-03-07T13:15:33Z</time>
      </trkpt>
      <trkpt lat="43.98086" lon="5.12435">
        <ele>370.4</ele>
        <time>2013-03-07T13:15:34Z</time>
      </trkpt>
      <trkpt lat="43.98089" lon="5.12433">
        <ele>370.8</ele>
        <time>2013-03-07T13:15:35Z</time>
      </trkpt>
      <trkpt lat="43.98092" lon="5.1243">
        <ele>371.3</ele>
        <time>2013-03-07T13:15:36Z</time>
      </trkpt>
      <trkpt lat="43.98095" lon="5.12427">
        <ele>371</ele>
        <time>2013-03-07T13:15:37Z</time>
      </trkpt>
      <trkpt lat="43.98097" lon="5.12425">
        <ele>371.1</ele>
        <time>2013-03-07T13:15:38Z</time>
      </trkpt>
      <trkpt lat="43.98099" lon="5.12424">
        <ele>372.2</ele>
        <time>2013-03-07T13:15:39Z</time>
      </trkpt>
      <trkpt lat="43.98102" lon="5.12423">
        <ele>372.4</ele>
        <time>2013-03-07T13:15:40Z</time>
      </trkpt>
      <trkpt lat="43.98104" lon="5.12425">
        <ele>370.8</ele>
        <time>2013-03-07T13:15:41Z</time>
      </trkpt>
      <trkpt lat="43.98106" lon="5.12426">
        <ele>370</ele>
        <time>2013-03-07T13:15:42Z</time>
      </trkpt>
      <trkpt lat="43.98106" lon="5.12431">
        <ele>368.6</ele>
        <time>2013-03-07T13:15:43Z</time>
      </trkpt>
      <trkpt lat="43.98105" lon="5.12437">
        <ele>366.3</ele>
        <time>2013-03-07T13:15:44Z</time>
      </trkpt>
      <trkpt lat="43.98104" lon="5.12441">
        <ele>365.3</ele>
        <time>2013-03-07T13:15:45Z</time>
      </trkpt>
      <trkpt lat="43.98101" lon="5.12445">
        <ele>363.9</ele>
        <time>2013-03-07T13:15:46Z</time>
      </trkpt>
      <trkpt lat="43.98099" lon="5.12449">
        <ele>362.7</ele>
        <time>2013-03-07T13:15:47Z</time>
      </trkpt>
      <trkpt lat="43.98096" lon="5.12452">
        <ele>362.1</ele>
        <time>2013-03-07T13:15:48Z</time>
      </trkpt>
      <trkpt lat="43.98094" lon="5.12456">
        <ele>361.4</ele>
        <time>2013-03-07T13:15:49Z</time>
      </trkpt>
      <trkpt lat="43.98091" lon="5.12459">
        <ele>360.9</ele>
        <time>2013-03-07T13:15:50Z</time>
      </trkpt>
      <trkpt lat="43.98088" lon="5.12461">
        <ele>360.7</ele>
        <time>2013-03-07T13:15:51Z</time>
      </trkpt>
      <trkpt lat="43.98085" lon="5.12463">
        <ele>360.8</ele>
        <time>2013-03-07T13:15:52Z</time>
      </trkpt>
      <trkpt lat="43.98082" lon="5.12464">
        <ele>360.3</ele>
        <time>2013-03-07T13:15:53Z</time>
      </trkpt>
      <trkpt lat="43.98078" lon="5.12465">
        <ele>359.9</ele>
        <time>2013-03-07T13:15:54Z</time>
      </trkpt>
      <trkpt lat="43.98076" lon="5.12466">
        <ele>359.5</ele>
        <time>2013-03-07T13:15:55Z</time>
      </trkpt>
      <trkpt lat="43.98073" lon="5.12467">
        <ele>359.2</ele>
        <time>2013-03-07T13:15:56Z</time>
      </trkpt>
      <trkpt lat="43.98071" lon="5.12468">
        <ele>358.7</ele>
        <time>2013-03-07T13:15:57Z</time>
      </trkpt>
      <trkpt lat="43.98068" lon="5.12469">
        <ele>358.3</ele>
        <time>2013-03-07T13:15:58Z</time>
      </trkpt>
      <trkpt lat="43.98066" lon="5.12471">
        <ele>357.7</ele>
        <time>2013-03-07T13:15:59Z</time>
      </trkpt>
      <trkpt lat="43.98063" lon="5.12473">
        <ele>356.8</ele>
        <time>2013-03-07T13:16:00Z</time>
      </trkpt>
      <trkpt lat="43.98059" lon="5.12476">
        <ele>355.6</ele>
        <time>2013-03-07T13:16:01Z</time>
      </trkpt>
      <trkpt lat="43.98055" lon="5.1248">
        <ele>355.2</ele>
        <time>2013-03-07T13:16:02Z</time>
      </trkpt>
      <trkpt lat="43.98051" lon="5.12483">
        <ele>355.2</ele>
        <time>2013-03-07T13:16:03Z</time>
      </trkpt>
      <trkpt lat="43.98048" lon="5.12485">
        <ele>355.1</ele>
        <time>2013-03-07T13:16:04Z</time>
      </trkpt>
      <trkpt lat="43.98044" lon="5.12486">
        <ele>355.1</ele>
        <time>2013-03-07T13:16:05Z</time>
      </trkpt>
      <trkpt lat="43.98041" lon="5.12488">
        <ele>355.1</ele>
        <time>2013-03-07T13:16:06Z</time>
      </trkpt>
      <trkpt lat="43.98038" lon="5.12489">
        <ele>355</ele>
        <time>2013-03-07T13:16:07Z</time>
      </trkpt>
      <trkpt lat="43.98035" lon="5.1249">
        <ele>355.1</ele>
        <time>2013-03-07T13:16:08Z</time>
      </trkpt>
      <trkpt lat="43.98032" lon="5.12492">
        <ele>355.1</ele>
        <time>2013-03-07T13:16:09Z</time>
      </trkpt>
      <trkpt lat="43.9803" lon="5.12493">
        <ele>355.1</ele>
        <time>2013-03-07T13:16:10Z</time>
      </trkpt>
      <trkpt lat="43.98027" lon="5.12494">
        <ele>355</ele>
        <time>2013-03-07T13:16:11Z</time>
      </trkpt>
      <trkpt lat="43.98024" lon="5.12495">
        <ele>354.9</ele>
        <time>2013-03-07T13:16:12Z</time>
      </trkpt>
      <trkpt lat="43.98021" lon="5.12496">
        <ele>355.1</ele>
        <time>2013-03-07T13:16:13Z</time>
      </trkpt>
      <trkpt lat="43.98018" lon="5.12497">
        <ele>355.3</ele>
        <time>2013-03-07T13:16:14Z</time>
      </trkpt>
      <trkpt lat="43.98015" lon="5.12499">
        <ele>355.7</ele>
        <time>2013-03-07T13:16:15Z</time>
      </trkpt>
      <trkpt lat="43.98012" lon="5.125">
        <ele>355.8</ele>
        <time>2013-03-07T13:16:16Z</time>
      </trkpt>
      <trkpt lat="43.9801" lon="5.12501">
        <ele>356.2</ele>
        <time>2013-03-07T13:16:17Z</time>
      </trkpt>
      <trkpt lat="43.98007" lon="5.12503">
        <ele>355.9</ele>
        <time>2013-03-07T13:16:18Z</time>
      </trkpt>
      <trkpt lat="43.98005" lon="5.12504">
        <ele>356.2</ele>
        <time>2013-03-07T13:16:19Z</time>
      </trkpt>
      <trkpt lat="43.98002" lon="5.12505">
        <ele>356.4</ele>
        <time>2013-03-07T13:16:20Z</time>
      </trkpt>
      <trkpt lat="43.98" lon="5.12506">
        <ele>356.5</ele>
        <time>2013-03-07T13:16:21Z</time>
      </trkpt>
      <trkpt lat="43.97997" lon="5.12507">
        <ele>356.7</ele>
        <time>2013-03-07T13:16:22Z</time>
      </trkpt>
      <trkpt lat="43.97995" lon="5.12508">
        <ele>356.9</ele>
        <time>2013-03-07T13:16:23Z</time>
      </trkpt>
      <trkpt lat="43.97993" lon="5.12509">
        <ele>356.9</ele>
        <time>2013-03-07T13:16:24Z</time>
      </trkpt>
      <trkpt lat="43.9799" lon="5.1251">
        <ele>357</ele>
        <time>2013-03-07T13:16:25Z</time>
      </trkpt>
      <trkpt lat="43.97988" lon="5.1251">
        <ele>357</ele>
        <time>2013-03-07T13:16:26Z</time>
      </trkpt>
      <trkpt lat="43.97985" lon="5.12511">
        <ele>357.1</ele>
        <time>2013-03-07T13:16:27Z</time>
      </trkpt>
      <trkpt lat="43.97983" lon="5.12512">
        <ele>357</ele>
        <time>2013-03-07T13:16:28Z</time>
      </trkpt>
      <trkpt lat="43.9798" lon="5.12513">
        <ele>357.2</ele>
        <time>2013-03-07T13:16:29Z</time>
      </trkpt>
      <trkpt lat="43.97978" lon="5.12516">
        <ele>357.7</ele>
        <time>2013-03-07T13:16:31Z</time>
      </trkpt>
      <trkpt lat="43.97977" lon="5.12518">
        <ele>357.5</ele>
        <time>2013-03-07T13:16:32Z</time>
      </trkpt>
      <trkpt lat="43.97976" lon="5.12521">
        <ele>357.3</ele>
        <time>2013-03-07T13:16:33Z</time>
      </trkpt>
      <trkpt lat="43.97974" lon="5.12523">
        <ele>357</ele>
        <time>2013-03-07T13:16:34Z</time>
      </trkpt>
      <trkpt lat="43.97973" lon="5.12526">
        <ele>356.5</ele>
        <time>2013-03-07T13:16:35Z</time>
      </trkpt>
      <trkpt lat="43.97972" lon="5.12529">
        <ele>355.7</ele>
        <time>2013-03-07T13:16:36Z</time>
      </trkpt>
      <trkpt lat="43.97972" lon="5.12532">
        <ele>355.4</ele>
        <time>2013-03-07T13:16:37Z</time>
      </trkpt>
      <trkpt lat="43.97971" lon="5.12536">
        <ele>354.5</ele>
        <time>2013-03-07T13:16:38Z</time>
      </trkpt>
      <trkpt lat="43.97971" lon="5.1254">
        <ele>353.9</ele>
        <time>2013-03-07T13:16:39Z</time>
      </trkpt>
      <trkpt lat="43.97971" lon="5.12543">
        <ele>353.8</ele>
        <time>2013-03-07T13:16:40Z</time>
      </trkpt>
      <trkpt lat="43.9797" lon="5.12547">
        <ele>353.2</ele>
        <time>2013-03-07T13:16:41Z</time>
      </trkpt>
      <trkpt lat="43.9797" lon="5.12552">
        <ele>352.4</ele>
        <time>2013-03-07T13:16:42Z</time>
      </trkpt>
      <trkpt lat="43.9797" lon="5.12556">
        <ele>352</ele>
        <time>2013-03-07T13:16:43Z</time>
      </trkpt>
      <trkpt lat="43.9797" lon="5.1256">
        <ele>351.3</ele>
        <time>2013-03-07T13:16:44Z</time>
      </trkpt>
      <trkpt lat="43.97969" lon="5.12563">
        <ele>351</ele>
        <time>2013-03-07T13:16:45Z</time>
      </trkpt>
      <trkpt lat="43.97969" lon="5.12566">
        <ele>350.9</ele>
        <time>2013-03-07T13:16:46Z</time>
      </trkpt>
      <trkpt lat="43.97965" lon="5.1257">
        <ele>351</ele>
        <time>2013-03-07T13:16:48Z</time>
      </trkpt>
      <trkpt lat="43.97963" lon="5.12571">
        <ele>351</ele>
        <time>2013-03-07T13:16:49Z</time>
      </trkpt>
      <trkpt lat="43.9796" lon="5.12571">
        <ele>351</ele>
        <time>2013-03-07T13:16:50Z</time>
      </trkpt>
      <trkpt lat="43.97957" lon="5.12571">
        <ele>351.3</ele>
        <time>2013-03-07T13:16:51Z</time>
      </trkpt>
      <trkpt lat="43.97955" lon="5.12571">
        <ele>351.7</ele>
        <time>2013-03-07T13:16:52Z</time>
      </trkpt>
      <trkpt lat="43.97952" lon="5.1257">
        <ele>351.8</ele>
        <time>2013-03-07T13:16:53Z</time>
      </trkpt>
      <trkpt lat="43.9795" lon="5.1257">
        <ele>352.1</ele>
        <time>2013-03-07T13:16:54Z</time>
      </trkpt>
      <trkpt lat="43.97948" lon="5.1257">
        <ele>352.3</ele>
        <time>2013-03-07T13:16:55Z</time>
      </trkpt>
      <trkpt lat="43.97944" lon="5.12571">
        <ele>351.9</ele>
        <time>2013-03-07T13:16:56Z</time>
      </trkpt>
      <trkpt lat="43.97942" lon="5.12571">
        <ele>352.2</ele>
        <time>2013-03-07T13:16:57Z</time>
      </trkpt>
      <trkpt lat="43.97937" lon="5.12572">
        <ele>351.8</ele>
        <time>2013-03-07T13:16:59Z</time>
      </trkpt>
      <trkpt lat="43.97935" lon="5.12574">
        <ele>351.8</ele>
        <time>2013-03-07T13:17:00Z</time>
      </trkpt>
      <trkpt lat="43.97933" lon="5.12576">
        <ele>351.7</ele>
        <time>2013-03-07T13:17:01Z</time>
      </trkpt>
      <trkpt lat="43.9793" lon="5.12578">
        <ele>351.6</ele>
        <time>2013-03-07T13:17:02Z</time>
      </trkpt>
      <trkpt lat="43.97928" lon="5.1258">
        <ele>351.4</ele>
        <time>2013-03-07T13:17:03Z</time>
      </trkpt>
      <trkpt lat="43.97925" lon="5.12581">
        <ele>351.2</ele>
        <time>2013-03-07T13:17:04Z</time>
      </trkpt>
      <trkpt lat="43.97922" lon="5.12582">
        <ele>351.5</ele>
        <time>2013-03-07T13:17:05Z</time>
      </trkpt>
      <trkpt lat="43.97919" lon="5.12583">
        <ele>351.6</ele>
        <time>2013-03-07T13:17:06Z</time>
      </trkpt>
      <trkpt lat="43.97916" lon="5.12583">
        <ele>351.6</ele>
        <time>2013-03-07T13:17:07Z</time>
      </trkpt>
      <trkpt lat="43.97913" lon="5.12583">
        <ele>351.8</ele>
        <time>2013-03-07T13:17:08Z</time>
      </trkpt>
      <trkpt lat="43.9791" lon="5.12583">
        <ele>352</ele>
        <time>2013-03-07T13:17:09Z</time>
      </trkpt>
      <trkpt lat="43.97907" lon="5.12583">
        <ele>352.1</ele>
        <time>2013-03-07T13:17:10Z</time>
      </trkpt>
      <trkpt lat="43.97904" lon="5.12583">
        <ele>352.4</ele>
        <time>2013-03-07T13:17:11Z</time>
      </trkpt>
      <trkpt lat="43.97901" lon="5.12584">
        <ele>352.4</ele>
        <time>2013-03-07T13:17:12Z</time>
      </trkpt>
      <trkpt lat="43.97899" lon="5.12585">
        <ele>352.7</ele>
        <time>2013-03-07T13:17:13Z</time>
      </trkpt>
      <trkpt lat="43.97896" lon="5.12586">
        <ele>352.6</ele>
        <time>2013-03-07T13:17:14Z</time>
      </trkpt>
      <trkpt lat="43.97894" lon="5.12588">
        <ele>352.8</ele>
        <time>2013-03-07T13:17:15Z</time>
      </trkpt>
      <trkpt lat="43.97891" lon="5.12589">
        <ele>352.9</ele>
        <time>2013-03-07T13:17:16Z</time>
      </trkpt>
      <trkpt lat="43.97888" lon="5.12591">
        <ele>352.8</ele>
        <time>2013-03-07T13:17:17Z</time>
      </trkpt>
      <trkpt lat="43.97886" lon="5.12594">
        <ele>352.6</ele>
        <time>2013-03-07T13:17:18Z</time>
      </trkpt>
      <trkpt lat="43.97884" lon="5.12597">
        <ele>352.1</ele>
        <time>2013-03-07T13:17:19Z</time>
      </trkpt>
      <trkpt lat="43.97881" lon="5.126">
        <ele>352.1</ele>
        <time>2013-03-07T13:17:20Z</time>
      </trkpt>
      <trkpt lat="43.97878" lon="5.12602">
        <ele>352</ele>
        <time>2013-03-07T13:17:21Z</time>
      </trkpt>
      <trkpt lat="43.97876" lon="5.12605">
        <ele>352.3</ele>
        <time>2013-03-07T13:17:22Z</time>
      </trkpt>
      <trkpt lat="43.97873" lon="5.12608">
        <ele>352.3</ele>
        <time>2013-03-07T13:17:23Z</time>
      </trkpt>
      <trkpt lat="43.97871" lon="5.1261">
        <ele>352.5</ele>
        <time>2013-03-07T13:17:24Z</time>
      </trkpt>
      <trkpt lat="43.97868" lon="5.12612">
        <ele>352.3</ele>
        <time>2013-03-07T13:17:25Z</time>
      </trkpt>
      <trkpt lat="43.97866" lon="5.12614">
        <ele>352.3</ele>
        <time>2013-03-07T13:17:26Z</time>
      </trkpt>
      <trkpt lat="43.97864" lon="5.12617">
        <ele>352.2</ele>
        <time>2013-03-07T13:17:27Z</time>
      </trkpt>
      <trkpt lat="43.97861" lon="5.1262">
        <ele>351.7</ele>
        <time>2013-03-07T13:17:28Z</time>
      </trkpt>
      <trkpt lat="43.97858" lon="5.12623">
        <ele>351.5</ele>
        <time>2013-03-07T13:17:29Z</time>
      </trkpt>
      <trkpt lat="43.97854" lon="5.12626">
        <ele>351.5</ele>
        <time>2013-03-07T13:17:30Z</time>
      </trkpt>
      <trkpt lat="43.9785" lon="5.12629">
        <ele>351.1</ele>
        <time>2013-03-07T13:17:31Z</time>
      </trkpt>
      <trkpt lat="43.97847" lon="5.12632">
        <ele>351.2</ele>
        <time>2013-03-07T13:17:32Z</time>
      </trkpt>
      <trkpt lat="43.97843" lon="5.12635">
        <ele>351.2</ele>
        <time>2013-03-07T13:17:33Z</time>
      </trkpt>
      <trkpt lat="43.9784" lon="5.12637">
        <ele>350.6</ele>
        <time>2013-03-07T13:17:34Z</time>
      </trkpt>
      <trkpt lat="43.97837" lon="5.12639">
        <ele>350.6</ele>
        <time>2013-03-07T13:17:35Z</time>
      </trkpt>
      <trkpt lat="43.97834" lon="5.12641">
        <ele>350.5</ele>
        <time>2013-03-07T13:17:36Z</time>
      </trkpt>
      <trkpt lat="43.9783" lon="5.12642">
        <ele>350.7</ele>
        <time>2013-03-07T13:17:37Z</time>
      </trkpt>
      <trkpt lat="43.97827" lon="5.12644">
        <ele>350.8</ele>
        <time>2013-03-07T13:17:38Z</time>
      </trkpt>
      <trkpt lat="43.97824" lon="5.12645">
        <ele>350.8</ele>
        <time>2013-03-07T13:17:39Z</time>
      </trkpt>
      <trkpt lat="43.97821" lon="5.12646">
        <ele>350.9</ele>
        <time>2013-03-07T13:17:40Z</time>
      </trkpt>
      <trkpt lat="43.97818" lon="5.12646">
        <ele>351.1</ele>
        <time>2013-03-07T13:17:41Z</time>
      </trkpt>
      <trkpt lat="43.97814" lon="5.12647">
        <ele>350</ele>
        <time>2013-03-07T13:17:42Z</time>
      </trkpt>
      <trkpt lat="43.97811" lon="5.12649">
        <ele>350.3</ele>
        <time>2013-03-07T13:17:43Z</time>
      </trkpt>
      <trkpt lat="43.97808" lon="5.12651">
        <ele>350.3</ele>
        <time>2013-03-07T13:17:44Z</time>
      </trkpt>
      <trkpt lat="43.97805" lon="5.12653">
        <ele>350.3</ele>
        <time>2013-03-07T13:17:45Z</time>
      </trkpt>
      <trkpt lat="43.97801" lon="5.12655">
        <ele>350.5</ele>
        <time>2013-03-07T13:17:46Z</time>
      </trkpt>
      <trkpt lat="43.97798" lon="5.12658">
        <ele>350.4</ele>
        <time>2013-03-07T13:17:47Z</time>
      </trkpt>
      <trkpt lat="43.97794" lon="5.1266">
        <ele>350.3</ele>
        <time>2013-03-07T13:17:48Z</time>
      </trkpt>
      <trkpt lat="43.97791" lon="5.12663">
        <ele>350.1</ele>
        <time>2013-03-07T13:17:49Z</time>
      </trkpt>
      <trkpt lat="43.97787" lon="5.12665">
        <ele>349.9</ele>
        <time>2013-03-07T13:17:50Z</time>
      </trkpt>
      <trkpt lat="43.97784" lon="5.12668">
        <ele>350</ele>
        <time>2013-03-07T13:17:51Z</time>
      </trkpt>
      <trkpt lat="43.97781" lon="5.12669">
        <ele>350</ele>
        <time>2013-03-07T13:17:52Z</time>
      </trkpt>
      <trkpt lat="43.97778" lon="5.12671">
        <ele>350</ele>
        <time>2013-03-07T13:17:53Z</time>
      </trkpt>
      <trkpt lat="43.97775" lon="5.12672">
        <ele>350.4</ele>
        <time>2013-03-07T13:17:54Z</time>
      </trkpt>
      <trkpt lat="43.97773" lon="5.12673">
        <ele>350.4</ele>
        <time>2013-03-07T13:17:55Z</time>
      </trkpt>
      <trkpt lat="43.9777" lon="5.12675">
        <ele>350.8</ele>
        <time>2013-03-07T13:17:56Z</time>
      </trkpt>
      <trkpt lat="43.97768" lon="5.12676">
        <ele>351.4</ele>
        <time>2013-03-07T13:17:57Z</time>
      </trkpt>
      <trkpt lat="43.97765" lon="5.12678">
        <ele>351.6</ele>
        <time>2013-03-07T13:17:58Z</time>
      </trkpt>
      <trkpt lat="43.97763" lon="5.12679">
        <ele>351.8</ele>
        <time>2013-03-07T13:17:59Z</time>
      </trkpt>
      <trkpt lat="43.97761" lon="5.12681">
        <ele>352.5</ele>
        <time>2013-03-07T13:18:00Z</time>
      </trkpt>
      <trkpt lat="43.97759" lon="5.12683">
        <ele>352.3</ele>
        <time>2013-03-07T13:18:01Z</time>
      </trkpt>
      <trkpt lat="43.97756" lon="5.12685">
        <ele>352.3</ele>
        <time>2013-03-07T13:18:02Z</time>
      </trkpt>
      <trkpt lat="43.97754" lon="5.12687">
        <ele>352.2</ele>
        <time>2013-03-07T13:18:03Z</time>
      </trkpt>
      <trkpt lat="43.97752" lon="5.12689">
        <ele>352.4</ele>
        <time>2013-03-07T13:18:04Z</time>
      </trkpt>
      <trkpt lat="43.97749" lon="5.12691">
        <ele>352.5</ele>
        <time>2013-03-07T13:18:05Z</time>
      </trkpt>
      <trkpt lat="43.97747" lon="5.12693">
        <ele>352.5</ele>
        <time>2013-03-07T13:18:06Z</time>
      </trkpt>
      <trkpt lat="43.97745" lon="5.12695">
        <ele>352.3</ele>
        <time>2013-03-07T13:18:07Z</time>
      </trkpt>
      <trkpt lat="43.97743" lon="5.12697">
        <ele>351.8</ele>
        <time>2013-03-07T13:18:08Z</time>
      </trkpt>
      <trkpt lat="43.9774" lon="5.12698">
        <ele>351.3</ele>
        <time>2013-03-07T13:18:09Z</time>
      </trkpt>
      <trkpt lat="43.97737" lon="5.12697">
        <ele>351.6</ele>
        <time>2013-03-07T13:18:10Z</time>
      </trkpt>
      <trkpt lat="43.97733" lon="5.12699">
        <ele>352.7</ele>
        <time>2013-03-07T13:18:12Z</time>
      </trkpt>
      <trkpt lat="43.97732" lon="5.12701">
        <ele>353</ele>
        <time>2013-03-07T13:18:13Z</time>
      </trkpt>
      <trkpt lat="43.97729" lon="5.12703">
        <ele>352.9</ele>
        <time>2013-03-07T13:18:15Z</time>
      </trkpt>
      <trkpt lat="43.97728" lon="5.12704">
        <ele>352.8</ele>
        <time>2013-03-07T13:18:16Z</time>
      </trkpt>
      <trkpt lat="43.97724" lon="5.12706">
        <ele>352.4</ele>
        <time>2013-03-07T13:18:28Z</time>
      </trkpt>
      <trkpt lat="43.97723" lon="5.12705">
        <ele>352.9</ele>
        <time>2013-03-07T13:18:29Z</time>
      </trkpt>
      <trkpt lat="43.97719" lon="5.12709">
        <ele>354.3</ele>
        <time>2013-03-07T13:18:45Z</time>
      </trkpt>
      <trkpt lat="43.97718" lon="5.1271">
        <ele>354.1</ele>
        <time>2013-03-07T13:18:46Z</time>
      </trkpt>
      <trkpt lat="43.97722" lon="5.12707">
        <ele>354.8</ele>
        <time>2013-03-07T13:18:51Z</time>
      </trkpt>
      <trkpt lat="43.97723" lon="5.12706">
        <ele>355.2</ele>
        <time>2013-03-07T13:18:52Z</time>
      </trkpt>
      <trkpt lat="43.97727" lon="5.12705">
        <ele>356.5</ele>
        <time>2013-03-07T13:19:16Z</time>
      </trkpt>
      <trkpt lat="43.97729" lon="5.12704">
        <ele>356.1</ele>
        <time>2013-03-07T13:19:17Z</time>
      </trkpt>
      <trkpt lat="43.97731" lon="5.12706">
        <ele>355.9</ele>
        <time>2013-03-07T13:19:18Z</time>
      </trkpt>
      <trkpt lat="43.97734" lon="5.12705">
        <ele>354.3</ele>
        <time>2013-03-07T13:19:19Z</time>
      </trkpt>
      <trkpt lat="43.97737" lon="5.12705">
        <ele>354.5</ele>
        <time>2013-03-07T13:19:20Z</time>
      </trkpt>
      <trkpt lat="43.9774" lon="5.12704">
        <ele>354.7</ele>
        <time>2013-03-07T13:19:21Z</time>
      </trkpt>
      <trkpt lat="43.97743" lon="5.12703">
        <ele>354.1</ele>
        <time>2013-03-07T13:19:22Z</time>
      </trkpt>
      <trkpt lat="43.97745" lon="5.12703">
        <ele>353.3</ele>
        <time>2013-03-07T13:19:23Z</time>
      </trkpt>
      <trkpt lat="43.9775" lon="5.12701">
        <ele>352.9</ele>
        <time>2013-03-07T13:19:26Z</time>
      </trkpt>
      <trkpt lat="43.97751" lon="5.12701">
        <ele>352.5</ele>
        <time>2013-03-07T13:19:27Z</time>
      </trkpt>
      <trkpt lat="43.97754" lon="5.12704">
        <ele>352.6</ele>
        <time>2013-03-07T13:19:29Z</time>
      </trkpt>
      <trkpt lat="43.97753" lon="5.12706">
        <ele>352.4</ele>
        <time>2013-03-07T13:19:30Z</time>
      </trkpt>
      <trkpt lat="43.97753" lon="5.12708">
        <ele>352</ele>
        <time>2013-03-07T13:19:31Z</time>
      </trkpt>
      <trkpt lat="43.97753" lon="5.12712">
        <ele>351.3</ele>
        <time>2013-03-07T13:19:32Z</time>
      </trkpt>
      <trkpt lat="43.97754" lon="5.12716">
        <ele>351.1</ele>
        <time>2013-03-07T13:19:33Z</time>
      </trkpt>
      <trkpt lat="43.97755" lon="5.12718">
        <ele>350.9</ele>
        <time>2013-03-07T13:19:34Z</time>
      </trkpt>
      <trkpt lat="43.97755" lon="5.12723">
        <ele>350.2</ele>
        <time>2013-03-07T13:19:35Z</time>
      </trkpt>
      <trkpt lat="43.97756" lon="5.12727">
        <ele>350</ele>
        <time>2013-03-07T13:19:36Z</time>
      </trkpt>
      <trkpt lat="43.97757" lon="5.1273">
        <ele>350.1</ele>
        <time>2013-03-07T13:19:37Z</time>
      </trkpt>
      <trkpt lat="43.97762" lon="5.12724">
        <ele>350.2</ele>
        <time>2013-03-07T13:19:38Z</time>
      </trkpt>
      <trkpt lat="43.97766" lon="5.12724">
        <ele>350.8</ele>
        <time>2013-03-07T13:19:40Z</time>
      </trkpt>
      <trkpt lat="43.97768" lon="5.12724">
        <ele>351.2</ele>
        <time>2013-03-07T13:19:41Z</time>
      </trkpt>
      <trkpt lat="43.97772" lon="5.12725">
        <ele>349.8</ele>
        <time>2013-03-07T13:19:43Z</time>
      </trkpt>
      <trkpt lat="43.97775" lon="5.12725">
        <ele>350.3</ele>
        <time>2013-03-07T13:19:44Z</time>
      </trkpt>
      <trkpt lat="43.97779" lon="5.12725">
        <ele>350.5</ele>
        <time>2013-03-07T13:19:46Z</time>
      </trkpt>
      <trkpt lat="43.9778" lon="5.12725">
        <ele>352.4</ele>
        <time>2013-03-07T13:19:47Z</time>
      </trkpt>
      <trkpt lat="43.97782" lon="5.12725">
        <ele>351.9</ele>
        <time>2013-03-07T13:19:48Z</time>
      </trkpt>
      <trkpt lat="43.97785" lon="5.12725">
        <ele>351.4</ele>
        <time>2013-03-07T13:19:49Z</time>
      </trkpt>
      <trkpt lat="43.97787" lon="5.12725">
        <ele>351.8</ele>
        <time>2013-03-07T13:19:50Z</time>
      </trkpt>
      <trkpt lat="43.97789" lon="5.12726">
        <ele>351.9</ele>
        <time>2013-03-07T13:19:51Z</time>
      </trkpt>
      <trkpt lat="43.97792" lon="5.12726">
        <ele>351.9</ele>
        <time>2013-03-07T13:19:52Z</time>
      </trkpt>
      <trkpt lat="43.97795" lon="5.12726">
        <ele>352.1</ele>
        <time>2013-03-07T13:19:53Z</time>
      </trkpt>
      <trkpt lat="43.97798" lon="5.12727">
        <ele>352.3</ele>
        <time>2013-03-07T13:19:54Z</time>
      </trkpt>
      <trkpt lat="43.97801" lon="5.12727">
        <ele>352.1</ele>
        <time>2013-03-07T13:19:55Z</time>
      </trkpt>
      <trkpt lat="43.97804" lon="5.12726">
        <ele>352.1</ele>
        <time>2013-03-07T13:19:56Z</time>
      </trkpt>
      <trkpt lat="43.97807" lon="5.12726">
        <ele>352</ele>
        <time>2013-03-07T13:19:57Z</time>
      </trkpt>
      <trkpt lat="43.9781" lon="5.12726">
        <ele>352.4</ele>
        <time>2013-03-07T13:19:58Z</time>
      </trkpt>
      <trkpt lat="43.97813" lon="5.12726">
        <ele>353.3</ele>
        <time>2013-03-07T13:19:59Z</time>
      </trkpt>
      <trkpt lat="43.97816" lon="5.12725">
        <ele>353.4</ele>
        <time>2013-03-07T13:20:00Z</time>
      </trkpt>
      <trkpt lat="43.97819" lon="5.12725">
        <ele>353.3</ele>
        <time>2013-03-07T13:20:01Z</time>
      </trkpt>
      <trkpt lat="43.97823" lon="5.12726">
        <ele>353.1</ele>
        <time>2013-03-07T13:20:02Z</time>
      </trkpt>
      <trkpt lat="43.97826" lon="5.12726">
        <ele>352.8</ele>
        <time>2013-03-07T13:20:03Z</time>
      </trkpt>
      <trkpt lat="43.97829" lon="5.12727">
        <ele>353.1</ele>
        <time>2013-03-07T13:20:04Z</time>
      </trkpt>
      <trkpt lat="43.97831" lon="5.12727">
        <ele>353.1</ele>
        <time>2013-03-07T13:20:05Z</time>
      </trkpt>
      <trkpt lat="43.97834" lon="5.12727">
        <ele>353.7</ele>
        <time>2013-03-07T13:20:06Z</time>
      </trkpt>
      <trkpt lat="43.97837" lon="5.12726">
        <ele>353.7</ele>
        <time>2013-03-07T13:20:07Z</time>
      </trkpt>
      <trkpt lat="43.97841" lon="5.12727">
        <ele>353.3</ele>
        <time>2013-03-07T13:20:08Z</time>
      </trkpt>
      <trkpt lat="43.97845" lon="5.12726">
        <ele>353.6</ele>
        <time>2013-03-07T13:20:09Z</time>
      </trkpt>
      <trkpt lat="43.97849" lon="5.12727">
        <ele>353.1</ele>
        <time>2013-03-07T13:20:10Z</time>
      </trkpt>
      <trkpt lat="43.97853" lon="5.12726">
        <ele>352.8</ele>
        <time>2013-03-07T13:20:11Z</time>
      </trkpt>
      <trkpt lat="43.97857" lon="5.12726">
        <ele>352.3</ele>
        <time>2013-03-07T13:20:12Z</time>
      </trkpt>
      <trkpt lat="43.97861" lon="5.12727">
        <ele>352</ele>
        <time>2013-03-07T13:20:13Z</time>
      </trkpt>
      <trkpt lat="43.97864" lon="5.12726">
        <ele>352.2</ele>
        <time>2013-03-07T13:20:14Z</time>
      </trkpt>
      <trkpt lat="43.97867" lon="5.12726">
        <ele>352.4</ele>
        <time>2013-03-07T13:20:15Z</time>
      </trkpt>
      <trkpt lat="43.9787" lon="5.12726">
        <ele>352.6</ele>
        <time>2013-03-07T13:20:16Z</time>
      </trkpt>
      <trkpt lat="43.97874" lon="5.12726">
        <ele>352.7</ele>
        <time>2013-03-07T13:20:17Z</time>
      </trkpt>
      <trkpt lat="43.97877" lon="5.12726">
        <ele>353</ele>
        <time>2013-03-07T13:20:18Z</time>
      </trkpt>
      <trkpt lat="43.9788" lon="5.12726">
        <ele>352.9</ele>
        <time>2013-03-07T13:20:19Z</time>
      </trkpt>
      <trkpt lat="43.97883" lon="5.12726">
        <ele>352.8</ele>
        <time>2013-03-07T13:20:20Z</time>
      </trkpt>
      <trkpt lat="43.97887" lon="5.12726">
        <ele>352.4</ele>
        <time>2013-03-07T13:20:21Z</time>
      </trkpt>
      <trkpt lat="43.9789" lon="5.12725">
        <ele>352</ele>
        <time>2013-03-07T13:20:22Z</time>
      </trkpt>
      <trkpt lat="43.97894" lon="5.12726">
        <ele>352.2</ele>
        <time>2013-03-07T13:20:23Z</time>
      </trkpt>
      <trkpt lat="43.97897" lon="5.12726">
        <ele>352.2</ele>
        <time>2013-03-07T13:20:24Z</time>
      </trkpt>
      <trkpt lat="43.97899" lon="5.12727">
        <ele>352.5</ele>
        <time>2013-03-07T13:20:25Z</time>
      </trkpt>
      <trkpt lat="43.97902" lon="5.12726">
        <ele>352.5</ele>
        <time>2013-03-07T13:20:26Z</time>
      </trkpt>
      <trkpt lat="43.97905" lon="5.12727">
        <ele>352.1</ele>
        <time>2013-03-07T13:20:27Z</time>
      </trkpt>
      <trkpt lat="43.97909" lon="5.12727">
        <ele>351.7</ele>
        <time>2013-03-07T13:20:28Z</time>
      </trkpt>
      <trkpt lat="43.97912" lon="5.12728">
        <ele>351</ele>
        <time>2013-03-07T13:20:29Z</time>
      </trkpt>
      <trkpt lat="43.97914" lon="5.12729">
        <ele>352.3</ele>
        <time>2013-03-07T13:20:30Z</time>
      </trkpt>
      <trkpt lat="43.97918" lon="5.1273">
        <ele>351.7</ele>
        <time>2013-03-07T13:20:31Z</time>
      </trkpt>
      <trkpt lat="43.97921" lon="5.12729">
        <ele>351.4</ele>
        <time>2013-03-07T13:20:32Z</time>
      </trkpt>
      <trkpt lat="43.97925" lon="5.1273">
        <ele>351</ele>
        <time>2013-03-07T13:20:33Z</time>
      </trkpt>
      <trkpt lat="43.97927" lon="5.1273">
        <ele>351.1</ele>
        <time>2013-03-07T13:20:34Z</time>
      </trkpt>
      <trkpt lat="43.9793" lon="5.1273">
        <ele>351</ele>
        <time>2013-03-07T13:20:35Z</time>
      </trkpt>
      <trkpt lat="43.97932" lon="5.12731">
        <ele>350.5</ele>
        <time>2013-03-07T13:20:36Z</time>
      </trkpt>
      <trkpt lat="43.97934" lon="5.12733">
        <ele>350.3</ele>
        <time>2013-03-07T13:20:37Z</time>
      </trkpt>
      <trkpt lat="43.97937" lon="5.12735">
        <ele>349.3</ele>
        <time>2013-03-07T13:20:39Z</time>
      </trkpt>
      <trkpt lat="43.97938" lon="5.12736">
        <ele>349.4</ele>
        <time>2013-03-07T13:20:40Z</time>
      </trkpt>
      <trkpt lat="43.9794" lon="5.1274">
        <ele>349.2</ele>
        <time>2013-03-07T13:20:42Z</time>
      </trkpt>
      <trkpt lat="43.97941" lon="5.12742">
        <ele>348.8</ele>
        <time>2013-03-07T13:20:43Z</time>
      </trkpt>
      <trkpt lat="43.97941" lon="5.12746">
        <ele>348.6</ele>
        <time>2013-03-07T13:20:45Z</time>
      </trkpt>
      <trkpt lat="43.97939" lon="5.12753">
        <ele>347.5</ele>
        <time>2013-03-07T13:20:46Z</time>
      </trkpt>
      <trkpt lat="43.97939" lon="5.12757">
        <ele>347.4</ele>
        <time>2013-03-07T13:20:47Z</time>
      </trkpt>
      <trkpt lat="43.97938" lon="5.12761">
        <ele>347.4</ele>
        <time>2013-03-07T13:20:48Z</time>
      </trkpt>
      <trkpt lat="43.97937" lon="5.12764">
        <ele>347.2</ele>
        <time>2013-03-07T13:20:49Z</time>
      </trkpt>
      <trkpt lat="43.97937" lon="5.12767">
        <ele>346.8</ele>
        <time>2013-03-07T13:20:50Z</time>
      </trkpt>
      <trkpt lat="43.97936" lon="5.1277">
        <ele>347.4</ele>
        <time>2013-03-07T13:20:51Z</time>
      </trkpt>
      <trkpt lat="43.97934" lon="5.12774">
        <ele>347.6</ele>
        <time>2013-03-07T13:20:52Z</time>
      </trkpt>
      <trkpt lat="43.97934" lon="5.12777">
        <ele>347.5</ele>
        <time>2013-03-07T13:20:53Z</time>
      </trkpt>
      <trkpt lat="43.97932" lon="5.12781">
        <ele>347.5</ele>
        <time>2013-03-07T13:20:54Z</time>
      </trkpt>
      <trkpt lat="43.97932" lon="5.12785">
        <ele>347.2</ele>
        <time>2013-03-07T13:20:55Z</time>
      </trkpt>
      <trkpt lat="43.97931" lon="5.12788">
        <ele>347.1</ele>
        <time>2013-03-07T13:20:56Z</time>
      </trkpt>
      <trkpt lat="43.9793" lon="5.12792">
        <ele>346.9</ele>
        <time>2013-03-07T13:20:57Z</time>
      </trkpt>
      <trkpt lat="43.97929" lon="5.12795">
        <ele>347</ele>
        <time>2013-03-07T13:20:58Z</time>
      </trkpt>
      <trkpt lat="43.97928" lon="5.12799">
        <ele>346.4</ele>
        <time>2013-03-07T13:20:59Z</time>
      </trkpt>
      <trkpt lat="43.97927" lon="5.12803">
        <ele>346.1</ele>
        <time>2013-03-07T13:21:00Z</time>
      </trkpt>
      <trkpt lat="43.97926" lon="5.12807">
        <ele>346</ele>
        <time>2013-03-07T13:21:01Z</time>
      </trkpt>
      <trkpt lat="43.97925" lon="5.12811">
        <ele>346.1</ele>
        <time>2013-03-07T13:21:02Z</time>
      </trkpt>
      <trkpt lat="43.97924" lon="5.12814">
        <ele>345.7</ele>
        <time>2013-03-07T13:21:03Z</time>
      </trkpt>
      <trkpt lat="43.97923" lon="5.12818">
        <ele>345.7</ele>
        <time>2013-03-07T13:21:04Z</time>
      </trkpt>
      <trkpt lat="43.97923" lon="5.12822">
        <ele>345.7</ele>
        <time>2013-03-07T13:21:05Z</time>
      </trkpt>
      <trkpt lat="43.97921" lon="5.12825">
        <ele>345.7</ele>
        <time>2013-03-07T13:21:06Z</time>
      </trkpt>
      <trkpt lat="43.9792" lon="5.12829">
        <ele>345.7</ele>
        <time>2013-03-07T13:21:07Z</time>
      </trkpt>
      <trkpt lat="43.97919" lon="5.12833">
        <ele>345.1</ele>
        <time>2013-03-07T13:21:08Z</time>
      </trkpt>
      <trkpt lat="43.97918" lon="5.12837">
        <ele>344.9</ele>
        <time>2013-03-07T13:21:09Z</time>
      </trkpt>
      <trkpt lat="43.97917" lon="5.12841">
        <ele>344.8</ele>
        <time>2013-03-07T13:21:10Z</time>
      </trkpt>
      <trkpt lat="43.97916" lon="5.12846">
        <ele>344.4</ele>
        <time>2013-03-07T13:21:11Z</time>
      </trkpt>
      <trkpt lat="43.97915" lon="5.12851">
        <ele>344.1</ele>
        <time>2013-03-07T13:21:12Z</time>
      </trkpt>
      <trkpt lat="43.97914" lon="5.12856">
        <ele>343.4</ele>
        <time>2013-03-07T13:21:13Z</time>
      </trkpt>
      <trkpt lat="43.97913" lon="5.12861">
        <ele>343.1</ele>
        <time>2013-03-07T13:21:14Z</time>
      </trkpt>
      <trkpt lat="43.97912" lon="5.12867">
        <ele>342.6</ele>
        <time>2013-03-07T13:21:15Z</time>
      </trkpt>
      <trkpt lat="43.9791" lon="5.12872">
        <ele>342.1</ele>
        <time>2013-03-07T13:21:16Z</time>
      </trkpt>
      <trkpt lat="43.97909" lon="5.12877">
        <ele>341.8</ele>
        <time>2013-03-07T13:21:17Z</time>
      </trkpt>
      <trkpt lat="43.97907" lon="5.12882">
        <ele>340.5</ele>
        <time>2013-03-07T13:21:18Z</time>
      </trkpt>
      <trkpt lat="43.97906" lon="5.12887">
        <ele>340.8</ele>
        <time>2013-03-07T13:21:19Z</time>
      </trkpt>
      <trkpt lat="43.97905" lon="5.12893">
        <ele>340</ele>
        <time>2013-03-07T13:21:20Z</time>
      </trkpt>
      <trkpt lat="43.97904" lon="5.12897">
        <ele>340.4</ele>
        <time>2013-03-07T13:21:21Z</time>
      </trkpt>
      <trkpt lat="43.97903" lon="5.12901">
        <ele>340.9</ele>
        <time>2013-03-07T13:21:22Z</time>
      </trkpt>
      <trkpt lat="43.979" lon="5.12898">
        <ele>343.5</ele>
        <time>2013-03-07T13:21:24Z</time>
      </trkpt>
      <trkpt lat="43.97903" lon="5.12914">
        <ele>343.4</ele>
        <time>2013-03-07T13:21:25Z</time>
      </trkpt>
      <trkpt lat="43.97904" lon="5.12919">
        <ele>344.9</ele>
        <time>2013-03-07T13:21:26Z</time>
      </trkpt>
      <trkpt lat="43.97905" lon="5.12925">
        <ele>345</ele>
        <time>2013-03-07T13:21:27Z</time>
      </trkpt>
      <trkpt lat="43.97905" lon="5.12932">
        <ele>344.3</ele>
        <time>2013-03-07T13:21:28Z</time>
      </trkpt>
      <trkpt lat="43.97904" lon="5.12935">
        <ele>347.8</ele>
        <time>2013-03-07T13:21:29Z</time>
      </trkpt>
      <trkpt lat="43.97905" lon="5.12941">
        <ele>347.7</ele>
        <time>2013-03-07T13:21:30Z</time>
      </trkpt>
      <trkpt lat="43.97905" lon="5.12946">
        <ele>348.1</ele>
        <time>2013-03-07T13:21:31Z</time>
      </trkpt>
      <trkpt lat="43.97904" lon="5.12951">
        <ele>348.3</ele>
        <time>2013-03-07T13:21:32Z</time>
      </trkpt>
      <trkpt lat="43.97904" lon="5.12962">
        <ele>345</ele>
        <time>2013-03-07T13:21:33Z</time>
      </trkpt>
      <trkpt lat="43.97904" lon="5.12969">
        <ele>344.3</ele>
        <time>2013-03-07T13:21:34Z</time>
      </trkpt>
      <trkpt lat="43.97904" lon="5.12973">
        <ele>346.2</ele>
        <time>2013-03-07T13:21:35Z</time>
      </trkpt>
      <trkpt lat="43.97903" lon="5.12977">
        <ele>349.1</ele>
        <time>2013-03-07T13:21:36Z</time>
      </trkpt>
      <trkpt lat="43.97902" lon="5.12982">
        <ele>350.4</ele>
        <time>2013-03-07T13:21:37Z</time>
      </trkpt>
      <trkpt lat="43.97903" lon="5.12984">
        <ele>350.2</ele>
        <time>2013-03-07T13:21:38Z</time>
      </trkpt>
      <trkpt lat="43.97903" lon="5.12991">
        <ele>349.3</ele>
        <time>2013-03-07T13:21:39Z</time>
      </trkpt>
      <trkpt lat="43.97901" lon="5.12997">
        <ele>348.8</ele>
        <time>2013-03-07T13:21:40Z</time>
      </trkpt>
      <trkpt lat="43.97901" lon="5.13001">
        <ele>347.6</ele>
        <time>2013-03-07T13:21:41Z</time>
      </trkpt>
      <trkpt lat="43.97901" lon="5.13011">
        <ele>346.9</ele>
        <time>2013-03-07T13:21:42Z</time>
      </trkpt>
      <trkpt lat="43.979" lon="5.13017">
        <ele>344.9</ele>
        <time>2013-03-07T13:21:43Z</time>
      </trkpt>
      <trkpt lat="43.97897" lon="5.1302">
        <ele>344.2</ele>
        <time>2013-03-07T13:21:44Z</time>
      </trkpt>
      <trkpt lat="43.97893" lon="5.13031">
        <ele>343.8</ele>
        <time>2013-03-07T13:21:45Z</time>
      </trkpt>
      <trkpt lat="43.9789" lon="5.13036">
        <ele>343.7</ele>
        <time>2013-03-07T13:21:46Z</time>
      </trkpt>
      <trkpt lat="43.97894" lon="5.13035">
        <ele>343.9</ele>
        <time>2013-03-07T13:21:47Z</time>
      </trkpt>
      <trkpt lat="43.97883" lon="5.13027">
        <ele>344.1</ele>
        <time>2013-03-07T13:21:48Z</time>
      </trkpt>
      <trkpt lat="43.97879" lon="5.13028">
        <ele>344.9</ele>
        <time>2013-03-07T13:21:49Z</time>
      </trkpt>
      <trkpt lat="43.97877" lon="5.1303">
        <ele>345.4</ele>
        <time>2013-03-07T13:21:50Z</time>
      </trkpt>
      <trkpt lat="43.97878" lon="5.13033">
        <ele>349.8</ele>
        <time>2013-03-07T13:21:51Z</time>
      </trkpt>
      <trkpt lat="43.97875" lon="5.13041">
        <ele>349.6</ele>
        <time>2013-03-07T13:21:52Z</time>
      </trkpt>
      <trkpt lat="43.97873" lon="5.13044">
        <ele>349.6</ele>
        <time>2013-03-07T13:21:53Z</time>
      </trkpt>
      <trkpt lat="43.97872" lon="5.13046">
        <ele>350.1</ele>
        <time>2013-03-07T13:21:54Z</time>
      </trkpt>
      <trkpt lat="43.97871" lon="5.13049">
        <ele>351.3</ele>
        <time>2013-03-07T13:21:55Z</time>
      </trkpt>
      <trkpt lat="43.97871" lon="5.13053">
        <ele>349.7</ele>
        <time>2013-03-07T13:21:56Z</time>
      </trkpt>
      <trkpt lat="43.97868" lon="5.13046">
        <ele>351.4</ele>
        <time>2013-03-07T13:21:57Z</time>
      </trkpt>
      <trkpt lat="43.97864" lon="5.13043">
        <ele>355.7</ele>
        <time>2013-03-07T13:21:58Z</time>
      </trkpt>
      <trkpt lat="43.97865" lon="5.13032">
        <ele>359.1</ele>
        <time>2013-03-07T13:21:59Z</time>
      </trkpt>
      <trkpt lat="43.97867" lon="5.13037">
        <ele>360.2</ele>
        <time>2013-03-07T13:22:00Z</time>
      </trkpt>
      <trkpt lat="43.97863" lon="5.13074">
        <ele>354.2</ele>
        <time>2013-03-07T13:22:01Z</time>
      </trkpt>
      <trkpt lat="43.97862" lon="5.13079">
        <ele>355.1</ele>
        <time>2013-03-07T13:22:02Z</time>
      </trkpt>
      <trkpt lat="43.9786" lon="5.13085">
        <ele>354.7</ele>
        <time>2013-03-07T13:22:03Z</time>
      </trkpt>
      <trkpt lat="43.97859" lon="5.13092">
        <ele>354.1</ele>
        <time>2013-03-07T13:22:04Z</time>
      </trkpt>
      <trkpt lat="43.97858" lon="5.13099">
        <ele>353.6</ele>
        <time>2013-03-07T13:22:05Z</time>
      </trkpt>
      <trkpt lat="43.97857" lon="5.13108">
        <ele>353.2</ele>
        <time>2013-03-07T13:22:06Z</time>
      </trkpt>
      <trkpt lat="43.97856" lon="5.13119">
        <ele>352.7</ele>
        <time>2013-03-07T13:22:07Z</time>
      </trkpt>
      <trkpt lat="43.97854" lon="5.13133">
        <ele>352.3</ele>
        <time>2013-03-07T13:22:08Z</time>
      </trkpt>
      <trkpt lat="43.97845" lon="5.13107">
        <ele>354.7</ele>
        <time>2013-03-07T13:22:09Z</time>
      </trkpt>
      <trkpt lat="43.97844" lon="5.13109">
        <ele>353.4</ele>
        <time>2013-03-07T13:22:10Z</time>
      </trkpt>
      <trkpt lat="43.97842" lon="5.13111">
        <ele>352.1</ele>
        <time>2013-03-07T13:22:11Z</time>
      </trkpt>
      <trkpt lat="43.9784" lon="5.13116">
        <ele>349.8</ele>
        <time>2013-03-07T13:22:12Z</time>
      </trkpt>
      <trkpt lat="43.9784" lon="5.13121">
        <ele>348.8</ele>
        <time>2013-03-07T13:22:13Z</time>
      </trkpt>
      <trkpt lat="43.97839" lon="5.13126">
        <ele>347.9</ele>
        <time>2013-03-07T13:22:14Z</time>
      </trkpt>
      <trkpt lat="43.97837" lon="5.13129">
        <ele>347</ele>
        <time>2013-03-07T13:22:15Z</time>
      </trkpt>
      <trkpt lat="43.97835" lon="5.13131">
        <ele>345.7</ele>
        <time>2013-03-07T13:22:16Z</time>
      </trkpt>
      <trkpt lat="43.97831" lon="5.13134">
        <ele>345.3</ele>
        <time>2013-03-07T13:22:17Z</time>
      </trkpt>
      <trkpt lat="43.97824" lon="5.13136">
        <ele>343.3</ele>
        <time>2013-03-07T13:22:18Z</time>
      </trkpt>
      <trkpt lat="43.9782" lon="5.13138">
        <ele>342.6</ele>
        <time>2013-03-07T13:22:19Z</time>
      </trkpt>
      <trkpt lat="43.97818" lon="5.13139">
        <ele>344.1</ele>
        <time>2013-03-07T13:22:20Z</time>
      </trkpt>
      <trkpt lat="43.97815" lon="5.13141">
        <ele>344.4</ele>
        <time>2013-03-07T13:22:21Z</time>
      </trkpt>
      <trkpt lat="43.97813" lon="5.13143">
        <ele>344</ele>
        <time>2013-03-07T13:22:22Z</time>
      </trkpt>
      <trkpt lat="43.97811" lon="5.13144">
        <ele>344.8</ele>
        <time>2013-03-07T13:22:23Z</time>
      </trkpt>
      <trkpt lat="43.97808" lon="5.13145">
        <ele>345.1</ele>
        <time>2013-03-07T13:22:24Z</time>
      </trkpt>
      <trkpt lat="43.97804" lon="5.13148">
        <ele>345.6</ele>
        <time>2013-03-07T13:22:26Z</time>
      </trkpt>
      <trkpt lat="43.97802" lon="5.13152">
        <ele>343.9</ele>
        <time>2013-03-07T13:22:27Z</time>
      </trkpt>
      <trkpt lat="43.978" lon="5.13154">
        <ele>343.5</ele>
        <time>2013-03-07T13:22:28Z</time>
      </trkpt>
      <trkpt lat="43.97797" lon="5.13157">
        <ele>343.3</ele>
        <time>2013-03-07T13:22:29Z</time>
      </trkpt>
      <trkpt lat="43.97795" lon="5.1316">
        <ele>343</ele>
        <time>2013-03-07T13:22:30Z</time>
      </trkpt>
      <trkpt lat="43.97792" lon="5.13164">
        <ele>342.6</ele>
        <time>2013-03-07T13:22:31Z</time>
      </trkpt>
      <trkpt lat="43.9779" lon="5.13168">
        <ele>340.8</ele>
        <time>2013-03-07T13:22:32Z</time>
      </trkpt>
      <trkpt lat="43.9779" lon="5.13171">
        <ele>341</ele>
        <time>2013-03-07T13:22:33Z</time>
      </trkpt>
      <trkpt lat="43.97787" lon="5.13174">
        <ele>343.4</ele>
        <time>2013-03-07T13:22:35Z</time>
      </trkpt>
      <trkpt lat="43.97785" lon="5.13175">
        <ele>343.2</ele>
        <time>2013-03-07T13:22:36Z</time>
      </trkpt>
      <trkpt lat="43.97782" lon="5.13177">
        <ele>343.4</ele>
        <time>2013-03-07T13:22:38Z</time>
      </trkpt>
      <trkpt lat="43.97781" lon="5.13178">
        <ele>343.2</ele>
        <time>2013-03-07T13:22:39Z</time>
      </trkpt>
      <trkpt lat="43.97779" lon="5.13178">
        <ele>343.5</ele>
        <time>2013-03-07T13:22:40Z</time>
      </trkpt>
      <trkpt lat="43.97776" lon="5.1318">
        <ele>344.2</ele>
        <time>2013-03-07T13:22:41Z</time>
      </trkpt>
      <trkpt lat="43.97774" lon="5.13181">
        <ele>343.6</ele>
        <time>2013-03-07T13:22:42Z</time>
      </trkpt>
      <trkpt lat="43.97772" lon="5.13182">
        <ele>343.6</ele>
        <time>2013-03-07T13:22:43Z</time>
      </trkpt>
      <trkpt lat="43.97768" lon="5.13183">
        <ele>344.5</ele>
        <time>2013-03-07T13:22:45Z</time>
      </trkpt>
      <trkpt lat="43.97767" lon="5.13184">
        <ele>344.9</ele>
        <time>2013-03-07T13:22:46Z</time>
      </trkpt>
      <trkpt lat="43.97763" lon="5.13185">
        <ele>343.8</ele>
        <time>2013-03-07T13:22:47Z</time>
      </trkpt>
      <trkpt lat="43.97757" lon="5.13187">
        <ele>342.1</ele>
        <time>2013-03-07T13:22:48Z</time>
      </trkpt>
      <trkpt lat="43.97752" lon="5.13187">
        <ele>341.1</ele>
        <time>2013-03-07T13:22:49Z</time>
      </trkpt>
      <trkpt lat="43.97748" lon="5.13188">
        <ele>340.6</ele>
        <time>2013-03-07T13:22:50Z</time>
      </trkpt>
      <trkpt lat="43.97745" lon="5.13188">
        <ele>340.7</ele>
        <time>2013-03-07T13:22:51Z</time>
      </trkpt>
      <trkpt lat="43.97742" lon="5.13188">
        <ele>341.5</ele>
        <time>2013-03-07T13:22:52Z</time>
      </trkpt>
      <trkpt lat="43.97739" lon="5.1319">
        <ele>340.5</ele>
        <time>2013-03-07T13:22:53Z</time>
      </trkpt>
      <trkpt lat="43.97735" lon="5.1319">
        <ele>340.3</ele>
        <time>2013-03-07T13:22:54Z</time>
      </trkpt>
      <trkpt lat="43.97732" lon="5.13191">
        <ele>339.5</ele>
        <time>2013-03-07T13:22:55Z</time>
      </trkpt>
      <trkpt lat="43.97728" lon="5.13192">
        <ele>339.3</ele>
        <time>2013-03-07T13:22:56Z</time>
      </trkpt>
      <trkpt lat="43.97724" lon="5.13193">
        <ele>337.6</ele>
        <time>2013-03-07T13:22:57Z</time>
      </trkpt>
      <trkpt lat="43.97721" lon="5.13194">
        <ele>337.5</ele>
        <time>2013-03-07T13:22:58Z</time>
      </trkpt>
      <trkpt lat="43.97717" lon="5.13194">
        <ele>337.6</ele>
        <time>2013-03-07T13:22:59Z</time>
      </trkpt>
      <trkpt lat="43.97714" lon="5.13195">
        <ele>337.8</ele>
        <time>2013-03-07T13:23:00Z</time>
      </trkpt>
      <trkpt lat="43.97711" lon="5.13196">
        <ele>337.2</ele>
        <time>2013-03-07T13:23:01Z</time>
      </trkpt>
      <trkpt lat="43.97707" lon="5.13196">
        <ele>336.6</ele>
        <time>2013-03-07T13:23:02Z</time>
      </trkpt>
      <trkpt lat="43.97704" lon="5.13196">
        <ele>336.2</ele>
        <time>2013-03-07T13:23:03Z</time>
      </trkpt>
      <trkpt lat="43.977" lon="5.13196">
        <ele>336.3</ele>
        <time>2013-03-07T13:23:04Z</time>
      </trkpt>
      <trkpt lat="43.97697" lon="5.13197">
        <ele>335.9</ele>
        <time>2013-03-07T13:23:05Z</time>
      </trkpt>
      <trkpt lat="43.97693" lon="5.13197">
        <ele>335.6</ele>
        <time>2013-03-07T13:23:06Z</time>
      </trkpt>
      <trkpt lat="43.9769" lon="5.13198">
        <ele>335.3</ele>
        <time>2013-03-07T13:23:07Z</time>
      </trkpt>
      <trkpt lat="43.97686" lon="5.13198">
        <ele>335.3</ele>
        <time>2013-03-07T13:23:08Z</time>
      </trkpt>
      <trkpt lat="43.97684" lon="5.13199">
        <ele>335.2</ele>
        <time>2013-03-07T13:23:09Z</time>
      </trkpt>
      <trkpt lat="43.9768" lon="5.132">
        <ele>335.2</ele>
        <time>2013-03-07T13:23:10Z</time>
      </trkpt>
      <trkpt lat="43.97677" lon="5.132">
        <ele>335.3</ele>
        <time>2013-03-07T13:23:11Z</time>
      </trkpt>
      <trkpt lat="43.97675" lon="5.13201">
        <ele>335.3</ele>
        <time>2013-03-07T13:23:12Z</time>
      </trkpt>
      <trkpt lat="43.97672" lon="5.13201">
        <ele>334.8</ele>
        <time>2013-03-07T13:23:13Z</time>
      </trkpt>
      <trkpt lat="43.97668" lon="5.13202">
        <ele>336.4</ele>
        <time>2013-03-07T13:23:14Z</time>
      </trkpt>
      <trkpt lat="43.97666" lon="5.13203">
        <ele>337.2</ele>
        <time>2013-03-07T13:23:15Z</time>
      </trkpt>
      <trkpt lat="43.97663" lon="5.13203">
        <ele>337.7</ele>
        <time>2013-03-07T13:23:16Z</time>
      </trkpt>
      <trkpt lat="43.9766" lon="5.13204">
        <ele>338</ele>
        <time>2013-03-07T13:23:17Z</time>
      </trkpt>
      <trkpt lat="43.97656" lon="5.13205">
        <ele>337.1</ele>
        <time>2013-03-07T13:23:19Z</time>
      </trkpt>
      <trkpt lat="43.97655" lon="5.13204">
        <ele>337.1</ele>
        <time>2013-03-07T13:23:20Z</time>
      </trkpt>
      <trkpt lat="43.97653" lon="5.13205">
        <ele>337.6</ele>
        <time>2013-03-07T13:23:21Z</time>
      </trkpt>
      <trkpt lat="43.97651" lon="5.13209">
        <ele>336.8</ele>
        <time>2013-03-07T13:23:22Z</time>
      </trkpt>
      <trkpt lat="43.97648" lon="5.13212">
        <ele>336.3</ele>
        <time>2013-03-07T13:23:24Z</time>
      </trkpt>
      <trkpt lat="43.97646" lon="5.13214">
        <ele>336.2</ele>
        <time>2013-03-07T13:23:25Z</time>
      </trkpt>
      <trkpt lat="43.97645" lon="5.13217">
        <ele>336.1</ele>
        <time>2013-03-07T13:23:26Z</time>
      </trkpt>
      <trkpt lat="43.97642" lon="5.13223">
        <ele>336.3</ele>
        <time>2013-03-07T13:23:27Z</time>
      </trkpt>
      <trkpt lat="43.9764" lon="5.13227">
        <ele>336</ele>
        <time>2013-03-07T13:23:28Z</time>
      </trkpt>
      <trkpt lat="43.97639" lon="5.13231">
        <ele>336.9</ele>
        <time>2013-03-07T13:23:29Z</time>
      </trkpt>
      <trkpt lat="43.97639" lon="5.13236">
        <ele>336.7</ele>
        <time>2013-03-07T13:23:30Z</time>
      </trkpt>
      <trkpt lat="43.97639" lon="5.13241">
        <ele>336.4</ele>
        <time>2013-03-07T13:23:31Z</time>
      </trkpt>
      <trkpt lat="43.9764" lon="5.13245">
        <ele>336.7</ele>
        <time>2013-03-07T13:23:32Z</time>
      </trkpt>
      <trkpt lat="43.97641" lon="5.13249">
        <ele>337</ele>
        <time>2013-03-07T13:23:33Z</time>
      </trkpt>
      <trkpt lat="43.97642" lon="5.13254">
        <ele>337.2</ele>
        <time>2013-03-07T13:23:34Z</time>
      </trkpt>
      <trkpt lat="43.97644" lon="5.13257">
        <ele>337.6</ele>
        <time>2013-03-07T13:23:35Z</time>
      </trkpt>
      <trkpt lat="43.97645" lon="5.13261">
        <ele>338.3</ele>
        <time>2013-03-07T13:23:36Z</time>
      </trkpt>
      <trkpt lat="43.97647" lon="5.13264">
        <ele>338.5</ele>
        <time>2013-03-07T13:23:37Z</time>
      </trkpt>
      <trkpt lat="43.9765" lon="5.13265">
        <ele>338.4</ele>
        <time>2013-03-07T13:23:38Z</time>
      </trkpt>
      <trkpt lat="43.97653" lon="5.13268">
        <ele>339.1</ele>
        <time>2013-03-07T13:23:39Z</time>
      </trkpt>
      <trkpt lat="43.97656" lon="5.13269">
        <ele>339.6</ele>
        <time>2013-03-07T13:23:40Z</time>
      </trkpt>
      <trkpt lat="43.9766" lon="5.13269">
        <ele>339.8</ele>
        <time>2013-03-07T13:23:41Z</time>
      </trkpt>
      <trkpt lat="43.97663" lon="5.13267">
        <ele>341.7</ele>
        <time>2013-03-07T13:23:42Z</time>
      </trkpt>
      <trkpt lat="43.97666" lon="5.13269">
        <ele>341.7</ele>
        <time>2013-03-07T13:23:43Z</time>
      </trkpt>
      <trkpt lat="43.97669" lon="5.1327">
        <ele>341.5</ele>
        <time>2013-03-07T13:23:44Z</time>
      </trkpt>
      <trkpt lat="43.97674" lon="5.13271">
        <ele>341.4</ele>
        <time>2013-03-07T13:23:45Z</time>
      </trkpt>
      <trkpt lat="43.97677" lon="5.13273">
        <ele>341.2</ele>
        <time>2013-03-07T13:23:46Z</time>
      </trkpt>
      <trkpt lat="43.97679" lon="5.13276">
        <ele>342.4</ele>
        <time>2013-03-07T13:23:47Z</time>
      </trkpt>
      <trkpt lat="43.97683" lon="5.13278">
        <ele>342.2</ele>
        <time>2013-03-07T13:23:48Z</time>
      </trkpt>
      <trkpt lat="43.97685" lon="5.13282">
        <ele>342.2</ele>
        <time>2013-03-07T13:23:49Z</time>
      </trkpt>
      <trkpt lat="43.97688" lon="5.13285">
        <ele>341.9</ele>
        <time>2013-03-07T13:23:50Z</time>
      </trkpt>
      <trkpt lat="43.97689" lon="5.1329">
        <ele>341.7</ele>
        <time>2013-03-07T13:23:51Z</time>
      </trkpt>
      <trkpt lat="43.97689" lon="5.13294">
        <ele>341.1</ele>
        <time>2013-03-07T13:23:52Z</time>
      </trkpt>
      <trkpt lat="43.97689" lon="5.13298">
        <ele>341.1</ele>
        <time>2013-03-07T13:23:53Z</time>
      </trkpt>
      <trkpt lat="43.97687" lon="5.13304">
        <ele>340.5</ele>
        <time>2013-03-07T13:23:55Z</time>
      </trkpt>
      <trkpt lat="43.97686" lon="5.13307">
        <ele>340</ele>
        <time>2013-03-07T13:23:56Z</time>
      </trkpt>
      <trkpt lat="43.97685" lon="5.13311">
        <ele>340</ele>
        <time>2013-03-07T13:23:57Z</time>
      </trkpt>
      <trkpt lat="43.97683" lon="5.13314">
        <ele>340.1</ele>
        <time>2013-03-07T13:23:58Z</time>
      </trkpt>
      <trkpt lat="43.97682" lon="5.13317">
        <ele>340.3</ele>
        <time>2013-03-07T13:23:59Z</time>
      </trkpt>
      <trkpt lat="43.97681" lon="5.1332">
        <ele>340.4</ele>
        <time>2013-03-07T13:24:00Z</time>
      </trkpt>
      <trkpt lat="43.9768" lon="5.13323">
        <ele>340.5</ele>
        <time>2013-03-07T13:24:01Z</time>
      </trkpt>
      <trkpt lat="43.97679" lon="5.13326">
        <ele>340.5</ele>
        <time>2013-03-07T13:24:02Z</time>
      </trkpt>
      <trkpt lat="43.97678" lon="5.13329">
        <ele>340.3</ele>
        <time>2013-03-07T13:24:03Z</time>
      </trkpt>
      <trkpt lat="43.97676" lon="5.13333">
        <ele>340.2</ele>
        <time>2013-03-07T13:24:04Z</time>
      </trkpt>
      <trkpt lat="43.97674" lon="5.13338">
        <ele>341</ele>
        <time>2013-03-07T13:24:05Z</time>
      </trkpt>
      <trkpt lat="43.97677" lon="5.13335">
        <ele>342.1</ele>
        <time>2013-03-07T13:24:07Z</time>
      </trkpt>
      <trkpt lat="43.9768" lon="5.13333">
        <ele>343.8</ele>
        <time>2013-03-07T13:24:08Z</time>
      </trkpt>
      <trkpt lat="43.97678" lon="5.13336">
        <ele>344.7</ele>
        <time>2013-03-07T13:24:10Z</time>
      </trkpt>
      <trkpt lat="43.97679" lon="5.1334">
        <ele>344.5</ele>
        <time>2013-03-07T13:24:11Z</time>
      </trkpt>
      <trkpt lat="43.97673" lon="5.13339">
        <ele>352.4</ele>
        <time>2013-03-07T13:24:12Z</time>
      </trkpt>
      <trkpt lat="43.97671" lon="5.13345">
        <ele>352.4</ele>
        <time>2013-03-07T13:24:13Z</time>
      </trkpt>
      <trkpt lat="43.97669" lon="5.13348">
        <ele>352.8</ele>
        <time>2013-03-07T13:24:14Z</time>
      </trkpt>
      <trkpt lat="43.97667" lon="5.13353">
        <ele>353.7</ele>
        <time>2013-03-07T13:24:15Z</time>
      </trkpt>
      <trkpt lat="43.97665" lon="5.13357">
        <ele>354.3</ele>
        <time>2013-03-07T13:24:16Z</time>
      </trkpt>
      <trkpt lat="43.97663" lon="5.13361">
        <ele>354.8</ele>
        <time>2013-03-07T13:24:17Z</time>
      </trkpt>
      <trkpt lat="43.97662" lon="5.13365">
        <ele>355.3</ele>
        <time>2013-03-07T13:24:18Z</time>
      </trkpt>
      <trkpt lat="43.97659" lon="5.13369">
        <ele>355.5</ele>
        <time>2013-03-07T13:24:19Z</time>
      </trkpt>
      <trkpt lat="43.97657" lon="5.13373">
        <ele>356</ele>
        <time>2013-03-07T13:24:20Z</time>
      </trkpt>
      <trkpt lat="43.97656" lon="5.13377">
        <ele>356</ele>
        <time>2013-03-07T13:24:21Z</time>
      </trkpt>
      <trkpt lat="43.97655" lon="5.13383">
        <ele>354.3</ele>
        <time>2013-03-07T13:24:22Z</time>
      </trkpt>
      <trkpt lat="43.97654" lon="5.13388">
        <ele>352.4</ele>
        <time>2013-03-07T13:24:23Z</time>
      </trkpt>
      <trkpt lat="43.97653" lon="5.13392">
        <ele>351.4</ele>
        <time>2013-03-07T13:24:24Z</time>
      </trkpt>
      <trkpt lat="43.97653" lon="5.13397">
        <ele>350.5</ele>
        <time>2013-03-07T13:24:25Z</time>
      </trkpt>
      <trkpt lat="43.97652" lon="5.134">
        <ele>349.9</ele>
        <time>2013-03-07T13:24:26Z</time>
      </trkpt>
      <trkpt lat="43.97651" lon="5.13404">
        <ele>350.4</ele>
        <time>2013-03-07T13:24:27Z</time>
      </trkpt>
      <trkpt lat="43.97651" lon="5.13408">
        <ele>350.4</ele>
        <time>2013-03-07T13:24:28Z</time>
      </trkpt>
      <trkpt lat="43.97652" lon="5.13411">
        <ele>350.8</ele>
        <time>2013-03-07T13:24:29Z</time>
      </trkpt>
      <trkpt lat="43.97652" lon="5.13414">
        <ele>350.9</ele>
        <time>2013-03-07T13:24:30Z</time>
      </trkpt>
      <trkpt lat="43.97653" lon="5.13417">
        <ele>350.3</ele>
        <time>2013-03-07T13:24:31Z</time>
      </trkpt>
      <trkpt lat="43.97653" lon="5.13421">
        <ele>350.7</ele>
        <time>2013-03-07T13:24:32Z</time>
      </trkpt>
      <trkpt lat="43.97654" lon="5.13425">
        <ele>350.8</ele>
        <time>2013-03-07T13:24:33Z</time>
      </trkpt>
      <trkpt lat="43.97654" lon="5.13428">
        <ele>351.2</ele>
        <time>2013-03-07T13:24:34Z</time>
      </trkpt>
      <trkpt lat="43.97654" lon="5.13432">
        <ele>350.7</ele>
        <time>2013-03-07T13:24:35Z</time>
      </trkpt>
      <trkpt lat="43.97654" lon="5.13436">
        <ele>350.6</ele>
        <time>2013-03-07T13:24:36Z</time>
      </trkpt>
      <trkpt lat="43.97654" lon="5.1344">
        <ele>350.5</ele>
        <time>2013-03-07T13:24:37Z</time>
      </trkpt>
      <trkpt lat="43.97654" lon="5.13445">
        <ele>352.3</ele>
        <time>2013-03-07T13:24:39Z</time>
      </trkpt>
      <trkpt lat="43.97654" lon="5.13448">
        <ele>352.6</ele>
        <time>2013-03-07T13:24:40Z</time>
      </trkpt>
      <trkpt lat="43.97655" lon="5.13451">
        <ele>352.9</ele>
        <time>2013-03-07T13:24:41Z</time>
      </trkpt>
      <trkpt lat="43.97655" lon="5.13454">
        <ele>352.9</ele>
        <time>2013-03-07T13:24:42Z</time>
      </trkpt>
      <trkpt lat="43.97658" lon="5.13456">
        <ele>353.2</ele>
        <time>2013-03-07T13:24:43Z</time>
      </trkpt>
      <trkpt lat="43.97659" lon="5.13459">
        <ele>353.4</ele>
        <time>2013-03-07T13:24:44Z</time>
      </trkpt>
      <trkpt lat="43.97665" lon="5.13458">
        <ele>353.4</ele>
        <time>2013-03-07T13:24:45Z</time>
      </trkpt>
      <trkpt lat="43.97668" lon="5.1346">
        <ele>353.3</ele>
        <time>2013-03-07T13:24:46Z</time>
      </trkpt>
      <trkpt lat="43.9767" lon="5.13461">
        <ele>353.1</ele>
        <time>2013-03-07T13:24:47Z</time>
      </trkpt>
      <trkpt lat="43.97673" lon="5.13459">
        <ele>349.9</ele>
        <time>2013-03-07T13:24:49Z</time>
      </trkpt>
      <trkpt lat="43.97676" lon="5.13458">
        <ele>349.7</ele>
        <time>2013-03-07T13:24:50Z</time>
      </trkpt>
      <trkpt lat="43.97678" lon="5.13457">
        <ele>349.4</ele>
        <time>2013-03-07T13:24:51Z</time>
      </trkpt>
      <trkpt lat="43.9768" lon="5.13455">
        <ele>349.1</ele>
        <time>2013-03-07T13:24:52Z</time>
      </trkpt>
      <trkpt lat="43.97682" lon="5.13453">
        <ele>348.8</ele>
        <time>2013-03-07T13:24:53Z</time>
      </trkpt>
      <trkpt lat="43.97684" lon="5.13449">
        <ele>349</ele>
        <time>2013-03-07T13:24:54Z</time>
      </trkpt>
      <trkpt lat="43.97685" lon="5.13446">
        <ele>348.6</ele>
        <time>2013-03-07T13:24:55Z</time>
      </trkpt>
      <trkpt lat="43.97686" lon="5.13443">
        <ele>349.2</ele>
        <time>2013-03-07T13:24:56Z</time>
      </trkpt>
      <trkpt lat="43.97688" lon="5.1344">
        <ele>349.2</ele>
        <time>2013-03-07T13:24:57Z</time>
      </trkpt>
      <trkpt lat="43.97689" lon="5.13437">
        <ele>349.1</ele>
        <time>2013-03-07T13:24:58Z</time>
      </trkpt>
      <trkpt lat="43.97691" lon="5.13434">
        <ele>350.1</ele>
        <time>2013-03-07T13:24:59Z</time>
      </trkpt>
      <trkpt lat="43.97694" lon="5.13431">
        <ele>351.6</ele>
        <time>2013-03-07T13:25:00Z</time>
      </trkpt>
      <trkpt lat="43.97695" lon="5.13426">
        <ele>352.2</ele>
        <time>2013-03-07T13:25:01Z</time>
      </trkpt>
      <trkpt lat="43.97697" lon="5.13423">
        <ele>352.5</ele>
        <time>2013-03-07T13:25:02Z</time>
      </trkpt>
      <trkpt lat="43.97699" lon="5.13419">
        <ele>353.1</ele>
        <time>2013-03-07T13:25:03Z</time>
      </trkpt>
      <trkpt lat="43.97701" lon="5.13416">
        <ele>353.1</ele>
        <time>2013-03-07T13:25:04Z</time>
      </trkpt>
      <trkpt lat="43.97704" lon="5.13412">
        <ele>352.9</ele>
        <time>2013-03-07T13:25:05Z</time>
      </trkpt>
      <trkpt lat="43.97706" lon="5.13408">
        <ele>352.2</ele>
        <time>2013-03-07T13:25:06Z</time>
      </trkpt>
      <trkpt lat="43.97709" lon="5.13404">
        <ele>351.9</ele>
        <time>2013-03-07T13:25:07Z</time>
      </trkpt>
      <trkpt lat="43.97711" lon="5.134">
        <ele>351.5</ele>
        <time>2013-03-07T13:25:08Z</time>
      </trkpt>
      <trkpt lat="43.97714" lon="5.13396">
        <ele>350.8</ele>
        <time>2013-03-07T13:25:09Z</time>
      </trkpt>
      <trkpt lat="43.97716" lon="5.13393">
        <ele>350.7</ele>
        <time>2013-03-07T13:25:10Z</time>
      </trkpt>
      <trkpt lat="43.97719" lon="5.1339">
        <ele>350.7</ele>
        <time>2013-03-07T13:25:11Z</time>
      </trkpt>
      <trkpt lat="43.97722" lon="5.13387">
        <ele>350.1</ele>
        <time>2013-03-07T13:25:12Z</time>
      </trkpt>
      <trkpt lat="43.97725" lon="5.13384">
        <ele>350.1</ele>
        <time>2013-03-07T13:25:13Z</time>
      </trkpt>
      <trkpt lat="43.97728" lon="5.13381">
        <ele>350.2</ele>
        <time>2013-03-07T13:25:14Z</time>
      </trkpt>
      <trkpt lat="43.97731" lon="5.13378">
        <ele>350</ele>
        <time>2013-03-07T13:25:15Z</time>
      </trkpt>
      <trkpt lat="43.97734" lon="5.13375">
        <ele>349.8</ele>
        <time>2013-03-07T13:25:16Z</time>
      </trkpt>
      <trkpt lat="43.97737" lon="5.13372">
        <ele>349.7</ele>
        <time>2013-03-07T13:25:17Z</time>
      </trkpt>
      <trkpt lat="43.9774" lon="5.1337">
        <ele>349.2</ele>
        <time>2013-03-07T13:25:18Z</time>
      </trkpt>
      <trkpt lat="43.97744" lon="5.13368">
        <ele>348.9</ele>
        <time>2013-03-07T13:25:19Z</time>
      </trkpt>
      <trkpt lat="43.97747" lon="5.13366">
        <ele>348.9</ele>
        <time>2013-03-07T13:25:20Z</time>
      </trkpt>
      <trkpt lat="43.97751" lon="5.13364">
        <ele>348.5</ele>
        <time>2013-03-07T13:25:21Z</time>
      </trkpt>
      <trkpt lat="43.97755" lon="5.13363">
        <ele>348.3</ele>
        <time>2013-03-07T13:25:22Z</time>
      </trkpt>
      <trkpt lat="43.97758" lon="5.13362">
        <ele>348.2</ele>
        <time>2013-03-07T13:25:23Z</time>
      </trkpt>
      <trkpt lat="43.97761" lon="5.13361">
        <ele>348.2</ele>
        <time>2013-03-07T13:25:24Z</time>
      </trkpt>
      <trkpt lat="43.97765" lon="5.13361">
        <ele>348.4</ele>
        <time>2013-03-07T13:25:25Z</time>
      </trkpt>
      <trkpt lat="43.97768" lon="5.1336">
        <ele>348.4</ele>
        <time>2013-03-07T13:25:26Z</time>
      </trkpt>
      <trkpt lat="43.97771" lon="5.1336">
        <ele>348.6</ele>
        <time>2013-03-07T13:25:27Z</time>
      </trkpt>
      <trkpt lat="43.97775" lon="5.13358">
        <ele>348.4</ele>
        <time>2013-03-07T13:25:28Z</time>
      </trkpt>
      <trkpt lat="43.97778" lon="5.13357">
        <ele>348.2</ele>
        <time>2013-03-07T13:25:29Z</time>
      </trkpt>
      <trkpt lat="43.97782" lon="5.13356">
        <ele>348.4</ele>
        <time>2013-03-07T13:25:30Z</time>
      </trkpt>
      <trkpt lat="43.97785" lon="5.13355">
        <ele>348.4</ele>
        <time>2013-03-07T13:25:31Z</time>
      </trkpt>
      <trkpt lat="43.97789" lon="5.13354">
        <ele>348.5</ele>
        <time>2013-03-07T13:25:32Z</time>
      </trkpt>
      <trkpt lat="43.97792" lon="5.13353">
        <ele>348.7</ele>
        <time>2013-03-07T13:25:33Z</time>
      </trkpt>
      <trkpt lat="43.97795" lon="5.13351">
        <ele>348.6</ele>
        <time>2013-03-07T13:25:34Z</time>
      </trkpt>
      <trkpt lat="43.97799" lon="5.1335">
        <ele>348.7</ele>
        <time>2013-03-07T13:25:35Z</time>
      </trkpt>
      <trkpt lat="43.97803" lon="5.13349">
        <ele>348.5</ele>
        <time>2013-03-07T13:25:36Z</time>
      </trkpt>
      <trkpt lat="43.97806" lon="5.13348">
        <ele>348.4</ele>
        <time>2013-03-07T13:25:37Z</time>
      </trkpt>
      <trkpt lat="43.97809" lon="5.13346">
        <ele>348.1</ele>
        <time>2013-03-07T13:25:38Z</time>
      </trkpt>
      <trkpt lat="43.97812" lon="5.13345">
        <ele>347.5</ele>
        <time>2013-03-07T13:25:39Z</time>
      </trkpt>
      <trkpt lat="43.97816" lon="5.13344">
        <ele>347.4</ele>
        <time>2013-03-07T13:25:40Z</time>
      </trkpt>
      <trkpt lat="43.97819" lon="5.13343">
        <ele>347.2</ele>
        <time>2013-03-07T13:25:41Z</time>
      </trkpt>
      <trkpt lat="43.97821" lon="5.13341">
        <ele>348</ele>
        <time>2013-03-07T13:25:42Z</time>
      </trkpt>
      <trkpt lat="43.97825" lon="5.1334">
        <ele>347.7</ele>
        <time>2013-03-07T13:25:43Z</time>
      </trkpt>
      <trkpt lat="43.97828" lon="5.13339">
        <ele>348</ele>
        <time>2013-03-07T13:25:44Z</time>
      </trkpt>
      <trkpt lat="43.97831" lon="5.13338">
        <ele>348</ele>
        <time>2013-03-07T13:25:45Z</time>
      </trkpt>
      <trkpt lat="43.97834" lon="5.13337">
        <ele>348</ele>
        <time>2013-03-07T13:25:46Z</time>
      </trkpt>
      <trkpt lat="43.97837" lon="5.13336">
        <ele>348.1</ele>
        <time>2013-03-07T13:25:47Z</time>
      </trkpt>
      <trkpt lat="43.9784" lon="5.13335">
        <ele>347.9</ele>
        <time>2013-03-07T13:25:48Z</time>
      </trkpt>
      <trkpt lat="43.97844" lon="5.13334">
        <ele>347.9</ele>
        <time>2013-03-07T13:25:49Z</time>
      </trkpt>
      <trkpt lat="43.97847" lon="5.13334">
        <ele>347.9</ele>
        <time>2013-03-07T13:25:50Z</time>
      </trkpt>
      <trkpt lat="43.9785" lon="5.13333">
        <ele>347.6</ele>
        <time>2013-03-07T13:25:51Z</time>
      </trkpt>
      <trkpt lat="43.97854" lon="5.13332">
        <ele>347.5</ele>
        <time>2013-03-07T13:25:52Z</time>
      </trkpt>
      <trkpt lat="43.97856" lon="5.13331">
        <ele>348.5</ele>
        <time>2013-03-07T13:25:53Z</time>
      </trkpt>
      <trkpt lat="43.97858" lon="5.1333">
        <ele>348.5</ele>
        <time>2013-03-07T13:25:54Z</time>
      </trkpt>
      <trkpt lat="43.97862" lon="5.13329">
        <ele>348.8</ele>
        <time>2013-03-07T13:25:55Z</time>
      </trkpt>
      <trkpt lat="43.97865" lon="5.13328">
        <ele>348.7</ele>
        <time>2013-03-07T13:25:56Z</time>
      </trkpt>
      <trkpt lat="43.97869" lon="5.13327">
        <ele>348.7</ele>
        <time>2013-03-07T13:25:57Z</time>
      </trkpt>
      <trkpt lat="43.97872" lon="5.13327">
        <ele>348.7</ele>
        <time>2013-03-07T13:25:58Z</time>
      </trkpt>
      <trkpt lat="43.97876" lon="5.13326">
        <ele>348.3</ele>
        <time>2013-03-07T13:25:59Z</time>
      </trkpt>
      <trkpt lat="43.9788" lon="5.13325">
        <ele>348.4</ele>
        <time>2013-03-07T13:26:00Z</time>
      </trkpt>
      <trkpt lat="43.97883" lon="5.13325">
        <ele>348.7</ele>
        <time>2013-03-07T13:26:01Z</time>
      </trkpt>
      <trkpt lat="43.97886" lon="5.13324">
        <ele>349.4</ele>
        <time>2013-03-07T13:26:02Z</time>
      </trkpt>
      <trkpt lat="43.97889" lon="5.13323">
        <ele>349.8</ele>
        <time>2013-03-07T13:26:03Z</time>
      </trkpt>
      <trkpt lat="43.97892" lon="5.13323">
        <ele>349.8</ele>
        <time>2013-03-07T13:26:04Z</time>
      </trkpt>
      <trkpt lat="43.97895" lon="5.13322">
        <ele>349.4</ele>
        <time>2013-03-07T13:26:05Z</time>
      </trkpt>
      <trkpt lat="43.97898" lon="5.13321">
        <ele>349.6</ele>
        <time>2013-03-07T13:26:06Z</time>
      </trkpt>
      <trkpt lat="43.97901" lon="5.13321">
        <ele>349.7</ele>
        <time>2013-03-07T13:26:07Z</time>
      </trkpt>
      <trkpt lat="43.97903" lon="5.1332">
        <ele>350.3</ele>
        <time>2013-03-07T13:26:08Z</time>
      </trkpt>
      <trkpt lat="43.97905" lon="5.1332">
        <ele>351</ele>
        <time>2013-03-07T13:26:09Z</time>
      </trkpt>
      <trkpt lat="43.97908" lon="5.13318">
        <ele>350.9</ele>
        <time>2013-03-07T13:26:10Z</time>
      </trkpt>
      <trkpt lat="43.97912" lon="5.13319">
        <ele>350.7</ele>
        <time>2013-03-07T13:26:12Z</time>
      </trkpt>
      <trkpt lat="43.97913" lon="5.13319">
        <ele>350.1</ele>
        <time>2013-03-07T13:26:13Z</time>
      </trkpt>
      <trkpt lat="43.97917" lon="5.13318">
        <ele>350.1</ele>
        <time>2013-03-07T13:26:15Z</time>
      </trkpt>
      <trkpt lat="43.97919" lon="5.13318">
        <ele>350.2</ele>
        <time>2013-03-07T13:26:16Z</time>
      </trkpt>
      <trkpt lat="43.97922" lon="5.13319">
        <ele>350.4</ele>
        <time>2013-03-07T13:26:18Z</time>
      </trkpt>
      <trkpt lat="43.97924" lon="5.13321">
        <ele>349.4</ele>
        <time>2013-03-07T13:26:19Z</time>
      </trkpt>
      <trkpt lat="43.97924" lon="5.13326">
        <ele>349.4</ele>
        <time>2013-03-07T13:26:21Z</time>
      </trkpt>
      <trkpt lat="43.97924" lon="5.13329">
        <ele>349.4</ele>
        <time>2013-03-07T13:26:22Z</time>
      </trkpt>
      <trkpt lat="43.97924" lon="5.13332">
        <ele>349.1</ele>
        <time>2013-03-07T13:26:23Z</time>
      </trkpt>
      <trkpt lat="43.97925" lon="5.13335">
        <ele>349.1</ele>
        <time>2013-03-07T13:26:24Z</time>
      </trkpt>
      <trkpt lat="43.9793" lon="5.13336">
        <ele>349.5</ele>
        <time>2013-03-07T13:26:26Z</time>
      </trkpt>
      <trkpt lat="43.97931" lon="5.13337">
        <ele>349.3</ele>
        <time>2013-03-07T13:26:27Z</time>
      </trkpt>
      <trkpt lat="43.97935" lon="5.13337">
        <ele>348.9</ele>
        <time>2013-03-07T13:26:29Z</time>
      </trkpt>
      <trkpt lat="43.97937" lon="5.13336">
        <ele>348.4</ele>
        <time>2013-03-07T13:26:30Z</time>
      </trkpt>
      <trkpt lat="43.9794" lon="5.13336">
        <ele>348.1</ele>
        <time>2013-03-07T13:26:32Z</time>
      </trkpt>
      <trkpt lat="43.97942" lon="5.13337">
        <ele>348.1</ele>
        <time>2013-03-07T13:26:33Z</time>
      </trkpt>
      <trkpt lat="43.97946" lon="5.13337">
        <ele>348.4</ele>
        <time>2013-03-07T13:26:43Z</time>
      </trkpt>
      <trkpt lat="43.97946" lon="5.13336">
        <ele>348.3</ele>
        <time>2013-03-07T13:26:44Z</time>
      </trkpt>
      <trkpt lat="43.9795" lon="5.13336">
        <ele>347.7</ele>
        <time>2013-03-07T13:26:49Z</time>
      </trkpt>
      <trkpt lat="43.97951" lon="5.13336">
        <ele>347.8</ele>
        <time>2013-03-07T13:26:50Z</time>
      </trkpt>
      <trkpt lat="43.97955" lon="5.13338">
        <ele>344.1</ele>
        <time>2013-03-07T13:27:57Z</time>
      </trkpt>
      <trkpt lat="43.97958" lon="5.13338">
        <ele>343.5</ele>
        <time>2013-03-07T13:27:58Z</time>
      </trkpt>
      <trkpt lat="43.97962" lon="5.13337">
        <ele>345.4</ele>
        <time>2013-03-07T13:28:00Z</time>
      </trkpt>
      <trkpt lat="43.97962" lon="5.13337">
        <ele>344.9</ele>
        <time>2013-03-07T13:28:01Z</time>
      </trkpt>
      <trkpt lat="43.97966" lon="5.13337">
        <ele>343.5</ele>
        <time>2013-03-07T13:28:07Z</time>
      </trkpt>
      <trkpt lat="43.97967" lon="5.13337">
        <ele>343.2</ele>
        <time>2013-03-07T13:28:08Z</time>
      </trkpt>
      <trkpt lat="43.97971" lon="5.13337">
        <ele>340.9</ele>
        <time>2013-03-07T13:28:14Z</time>
      </trkpt>
      <trkpt lat="43.97972" lon="5.13337">
        <ele>340.8</ele>
        <time>2013-03-07T13:28:15Z</time>
      </trkpt>
      <trkpt lat="43.97976" lon="5.13337">
        <ele>340.5</ele>
        <time>2013-03-07T13:28:18Z</time>
      </trkpt>
      <trkpt lat="43.97977" lon="5.13337">
        <ele>340.1</ele>
        <time>2013-03-07T13:28:19Z</time>
      </trkpt>
      <trkpt lat="43.97981" lon="5.13337">
        <ele>339.7</ele>
        <time>2013-03-07T13:28:24Z</time>
      </trkpt>
      <trkpt lat="43.97983" lon="5.13335">
        <ele>340.4</ele>
        <time>2013-03-07T13:28:25Z</time>
      </trkpt>
      <trkpt lat="43.97986" lon="5.13334">
        <ele>339.4</ele>
        <time>2013-03-07T13:28:30Z</time>
      </trkpt>
      <trkpt lat="43.97987" lon="5.13333">
        <ele>338.9</ele>
        <time>2013-03-07T13:28:31Z</time>
      </trkpt>
      <trkpt lat="43.97991" lon="5.1333">
        <ele>337.7</ele>
        <time>2013-03-07T13:28:43Z</time>
      </trkpt>
      <trkpt lat="43.97991" lon="5.1333">
        <ele>338.3</ele>
        <time>2013-03-07T13:28:44Z</time>
      </trkpt>
      <trkpt lat="43.97995" lon="5.13328">
        <ele>336.8</ele>
        <time>2013-03-07T13:28:48Z</time>
      </trkpt>
      <trkpt lat="43.97996" lon="5.13327">
        <ele>337</ele>
        <time>2013-03-07T13:28:49Z</time>
      </trkpt>
      <trkpt lat="43.97996" lon="5.13326">
        <ele>337.1</ele>
        <time>2013-03-07T13:28:50Z</time>
      </trkpt>
      <trkpt lat="43.97999" lon="5.13323">
        <ele>336.4</ele>
        <time>2013-03-07T13:28:51Z</time>
      </trkpt>
      <trkpt lat="43.98003" lon="5.1332">
        <ele>335.9</ele>
        <time>2013-03-07T13:28:53Z</time>
      </trkpt>
      <trkpt lat="43.98004" lon="5.13319">
        <ele>335.2</ele>
        <time>2013-03-07T13:28:54Z</time>
      </trkpt>
      <trkpt lat="43.98008" lon="5.13317">
        <ele>335.3</ele>
        <time>2013-03-07T13:28:56Z</time>
      </trkpt>
      <trkpt lat="43.9801" lon="5.13316">
        <ele>334.6</ele>
        <time>2013-03-07T13:28:57Z</time>
      </trkpt>
      <trkpt lat="43.98013" lon="5.13314">
        <ele>333</ele>
        <time>2013-03-07T13:29:01Z</time>
      </trkpt>
      <trkpt lat="43.98015" lon="5.13312">
        <ele>332.9</ele>
        <time>2013-03-07T13:29:02Z</time>
      </trkpt>
      <trkpt lat="43.98017" lon="5.13309">
        <ele>331.8</ele>
        <time>2013-03-07T13:29:05Z</time>
      </trkpt>
      <trkpt lat="43.98018" lon="5.13306">
        <ele>332.7</ele>
        <time>2013-03-07T13:29:06Z</time>
      </trkpt>
      <trkpt lat="43.98021" lon="5.13305">
        <ele>333.7</ele>
        <time>2013-03-07T13:29:07Z</time>
      </trkpt>
      <trkpt lat="43.98023" lon="5.13304">
        <ele>334.1</ele>
        <time>2013-03-07T13:29:08Z</time>
      </trkpt>
      <trkpt lat="43.98026" lon="5.13302">
        <ele>333.2</ele>
        <time>2013-03-07T13:29:10Z</time>
      </trkpt>
      <trkpt lat="43.98029" lon="5.133">
        <ele>332.1</ele>
        <time>2013-03-07T13:29:11Z</time>
      </trkpt>
      <trkpt lat="43.98032" lon="5.133">
        <ele>331.7</ele>
        <time>2013-03-07T13:29:13Z</time>
      </trkpt>
      <trkpt lat="43.98034" lon="5.133">
        <ele>331.6</ele>
        <time>2013-03-07T13:29:14Z</time>
      </trkpt>
      <trkpt lat="43.98037" lon="5.13296">
        <ele>330.3</ele>
        <time>2013-03-07T13:29:16Z</time>
      </trkpt>
      <trkpt lat="43.98038" lon="5.13293">
        <ele>329.1</ele>
        <time>2013-03-07T13:29:17Z</time>
      </trkpt>
      <trkpt lat="43.98039" lon="5.1329">
        <ele>328.5</ele>
        <time>2013-03-07T13:29:18Z</time>
      </trkpt>
      <trkpt lat="43.98041" lon="5.13288">
        <ele>328.4</ele>
        <time>2013-03-07T13:29:19Z</time>
      </trkpt>
      <trkpt lat="43.98042" lon="5.13286">
        <ele>328.3</ele>
        <time>2013-03-07T13:29:22Z</time>
      </trkpt>
      <trkpt lat="43.98043" lon="5.13293">
        <ele>327.3</ele>
        <time>2013-03-07T13:29:23Z</time>
      </trkpt>
      <trkpt lat="43.98045" lon="5.13296">
        <ele>326.5</ele>
        <time>2013-03-07T13:29:24Z</time>
      </trkpt>
      <trkpt lat="43.98047" lon="5.13296">
        <ele>328</ele>
        <time>2013-03-07T13:29:25Z</time>
      </trkpt>
      <trkpt lat="43.9805" lon="5.13298">
        <ele>327.7</ele>
        <time>2013-03-07T13:29:26Z</time>
      </trkpt>
      <trkpt lat="43.98052" lon="5.133">
        <ele>327.5</ele>
        <time>2013-03-07T13:29:27Z</time>
      </trkpt>
      <trkpt lat="43.98055" lon="5.133">
        <ele>327.1</ele>
        <time>2013-03-07T13:29:28Z</time>
      </trkpt>
      <trkpt lat="43.98057" lon="5.133">
        <ele>325.5</ele>
        <time>2013-03-07T13:29:29Z</time>
      </trkpt>
      <trkpt lat="43.9806" lon="5.133">
        <ele>324.5</ele>
        <time>2013-03-07T13:29:30Z</time>
      </trkpt>
      <trkpt lat="43.98062" lon="5.13298">
        <ele>325.6</ele>
        <time>2013-03-07T13:29:31Z</time>
      </trkpt>
      <trkpt lat="43.98065" lon="5.13297">
        <ele>326.4</ele>
        <time>2013-03-07T13:29:32Z</time>
      </trkpt>
      <trkpt lat="43.98068" lon="5.13296">
        <ele>327.3</ele>
        <time>2013-03-07T13:29:33Z</time>
      </trkpt>
      <trkpt lat="43.9807" lon="5.13295">
        <ele>328.2</ele>
        <time>2013-03-07T13:29:34Z</time>
      </trkpt>
      <trkpt lat="43.98073" lon="5.13294">
        <ele>328.9</ele>
        <time>2013-03-07T13:29:35Z</time>
      </trkpt>
      <trkpt lat="43.98076" lon="5.13294">
        <ele>329.9</ele>
        <time>2013-03-07T13:29:38Z</time>
      </trkpt>
      <trkpt lat="43.98078" lon="5.13293">
        <ele>330.3</ele>
        <time>2013-03-07T13:29:39Z</time>
      </trkpt>
      <trkpt lat="43.98082" lon="5.1329">
        <ele>329.5</ele>
        <time>2013-03-07T13:29:42Z</time>
      </trkpt>
      <trkpt lat="43.98084" lon="5.1329">
        <ele>329.4</ele>
        <time>2013-03-07T13:29:43Z</time>
      </trkpt>
      <trkpt lat="43.98087" lon="5.13288">
        <ele>329.1</ele>
        <time>2013-03-07T13:29:46Z</time>
      </trkpt>
      <trkpt lat="43.98088" lon="5.13287">
        <ele>328.9</ele>
        <time>2013-03-07T13:29:47Z</time>
      </trkpt>
      <trkpt lat="43.98091" lon="5.13284">
        <ele>329.4</ele>
        <time>2013-03-07T13:29:50Z</time>
      </trkpt>
      <trkpt lat="43.98091" lon="5.13283">
        <ele>329.5</ele>
        <time>2013-03-07T13:29:51Z</time>
      </trkpt>
      <trkpt lat="43.98095" lon="5.13279">
        <ele>329.3</ele>
        <time>2013-03-07T13:29:58Z</time>
      </trkpt>
      <trkpt lat="43.98095" lon="5.13277">
        <ele>330.1</ele>
        <time>2013-03-07T13:29:59Z</time>
      </trkpt>
      <trkpt lat="43.98098" lon="5.13274">
        <ele>330.5</ele>
        <time>2013-03-07T13:30:04Z</time>
      </trkpt>
      <trkpt lat="43.98099" lon="5.13273">
        <ele>330.4</ele>
        <time>2013-03-07T13:30:05Z</time>
      </trkpt>
      <trkpt lat="43.98103" lon="5.1327">
        <ele>330.9</ele>
        <time>2013-03-07T13:30:10Z</time>
      </trkpt>
      <trkpt lat="43.98103" lon="5.1327">
        <ele>331.5</ele>
        <time>2013-03-07T13:30:11Z</time>
      </trkpt>
      <trkpt lat="43.98107" lon="5.13269">
        <ele>331.7</ele>
        <time>2013-03-07T13:30:17Z</time>
      </trkpt>
      <trkpt lat="43.98109" lon="5.13269">
        <ele>332.1</ele>
        <time>2013-03-07T13:30:18Z</time>
      </trkpt>
      <trkpt lat="43.98112" lon="5.13268">
        <ele>333.1</ele>
        <time>2013-03-07T13:30:20Z</time>
      </trkpt>
      <trkpt lat="43.98114" lon="5.13269">
        <ele>332.2</ele>
        <time>2013-03-07T13:30:21Z</time>
      </trkpt>
      <trkpt lat="43.98117" lon="5.13272">
        <ele>332.4</ele>
        <time>2013-03-07T13:30:23Z</time>
      </trkpt>
      <trkpt lat="43.98118" lon="5.13273">
        <ele>332.9</ele>
        <time>2013-03-07T13:30:24Z</time>
      </trkpt>
      <trkpt lat="43.98122" lon="5.13274">
        <ele>333.2</ele>
        <time>2013-03-07T13:30:27Z</time>
      </trkpt>
      <trkpt lat="43.98124" lon="5.13274">
        <ele>333.5</ele>
        <time>2013-03-07T13:30:28Z</time>
      </trkpt>
      <trkpt lat="43.98128" lon="5.13272">
        <ele>333.9</ele>
        <time>2013-03-07T13:30:31Z</time>
      </trkpt>
      <trkpt lat="43.98129" lon="5.13272">
        <ele>334</ele>
        <time>2013-03-07T13:30:32Z</time>
      </trkpt>
      <trkpt lat="43.98132" lon="5.13271">
        <ele>334.2</ele>
        <time>2013-03-07T13:30:34Z</time>
      </trkpt>
      <trkpt lat="43.98134" lon="5.13271">
        <ele>334.1</ele>
        <time>2013-03-07T13:30:35Z</time>
      </trkpt>
      <trkpt lat="43.98137" lon="5.1327">
        <ele>334.5</ele>
        <time>2013-03-07T13:30:37Z</time>
      </trkpt>
      <trkpt lat="43.98138" lon="5.13268">
        <ele>335.1</ele>
        <time>2013-03-07T13:30:38Z</time>
      </trkpt>
      <trkpt lat="43.98141" lon="5.13268">
        <ele>335</ele>
        <time>2013-03-07T13:30:40Z</time>
      </trkpt>
      <trkpt lat="43.98143" lon="5.13267">
        <ele>335</ele>
        <time>2013-03-07T13:30:41Z</time>
      </trkpt>
      <trkpt lat="43.98146" lon="5.13266">
        <ele>335.4</ele>
        <time>2013-03-07T13:30:43Z</time>
      </trkpt>
      <trkpt lat="43.98148" lon="5.13266">
        <ele>335.3</ele>
        <time>2013-03-07T13:30:44Z</time>
      </trkpt>
      <trkpt lat="43.98151" lon="5.13265">
        <ele>335.7</ele>
        <time>2013-03-07T13:30:46Z</time>
      </trkpt>
      <trkpt lat="43.98152" lon="5.13265">
        <ele>335.8</ele>
        <time>2013-03-07T13:30:47Z</time>
      </trkpt>
      <trkpt lat="43.98155" lon="5.13263">
        <ele>336.1</ele>
        <time>2013-03-07T13:30:49Z</time>
      </trkpt>
      <trkpt lat="43.98157" lon="5.13262">
        <ele>337</ele>
        <time>2013-03-07T13:30:50Z</time>
      </trkpt>
      <trkpt lat="43.9816" lon="5.13261">
        <ele>336.9</ele>
        <time>2013-03-07T13:30:52Z</time>
      </trkpt>
      <trkpt lat="43.98162" lon="5.1326">
        <ele>337.1</ele>
        <time>2013-03-07T13:30:53Z</time>
      </trkpt>
      <trkpt lat="43.98165" lon="5.13259">
        <ele>337.2</ele>
        <time>2013-03-07T13:30:55Z</time>
      </trkpt>
      <trkpt lat="43.98167" lon="5.1326">
        <ele>335.8</ele>
        <time>2013-03-07T13:30:56Z</time>
      </trkpt>
      <trkpt lat="43.98171" lon="5.13257">
        <ele>337.8</ele>
        <time>2013-03-07T13:30:59Z</time>
      </trkpt>
      <trkpt lat="43.98172" lon="5.13257">
        <ele>337.9</ele>
        <time>2013-03-07T13:31:00Z</time>
      </trkpt>
      <trkpt lat="43.98175" lon="5.13255">
        <ele>338.6</ele>
        <time>2013-03-07T13:31:03Z</time>
      </trkpt>
      <trkpt lat="43.98176" lon="5.13254">
        <ele>339.4</ele>
        <time>2013-03-07T13:31:04Z</time>
      </trkpt>
      <trkpt lat="43.9818" lon="5.13252">
        <ele>340.7</ele>
        <time>2013-03-07T13:31:06Z</time>
      </trkpt>
      <trkpt lat="43.98182" lon="5.13252">
        <ele>340.3</ele>
        <time>2013-03-07T13:31:07Z</time>
      </trkpt>
      <trkpt lat="43.98186" lon="5.13249">
        <ele>339.7</ele>
        <time>2013-03-07T13:31:10Z</time>
      </trkpt>
      <trkpt lat="43.98187" lon="5.13248">
        <ele>339.8</ele>
        <time>2013-03-07T13:31:11Z</time>
      </trkpt>
      <trkpt lat="43.98189" lon="5.13245">
        <ele>340</ele>
        <time>2013-03-07T13:31:13Z</time>
      </trkpt>
      <trkpt lat="43.9819" lon="5.13243">
        <ele>340.1</ele>
        <time>2013-03-07T13:31:14Z</time>
      </trkpt>
      <trkpt lat="43.98193" lon="5.1324">
        <ele>339.9</ele>
        <time>2013-03-07T13:31:17Z</time>
      </trkpt>
      <trkpt lat="43.98194" lon="5.13238">
        <ele>340.2</ele>
        <time>2013-03-07T13:31:18Z</time>
      </trkpt>
      <trkpt lat="43.98197" lon="5.13236">
        <ele>340.8</ele>
        <time>2013-03-07T13:31:20Z</time>
      </trkpt>
      <trkpt lat="43.98198" lon="5.13234">
        <ele>341.2</ele>
        <time>2013-03-07T13:31:21Z</time>
      </trkpt>
      <trkpt lat="43.98201" lon="5.13232">
        <ele>341.4</ele>
        <time>2013-03-07T13:31:23Z</time>
      </trkpt>
      <trkpt lat="43.98203" lon="5.13231">
        <ele>341.1</ele>
        <time>2013-03-07T13:31:24Z</time>
      </trkpt>
      <trkpt lat="43.98206" lon="5.13228">
        <ele>341.4</ele>
        <time>2013-03-07T13:31:26Z</time>
      </trkpt>
      <trkpt lat="43.98207" lon="5.13227">
        <ele>341.6</ele>
        <time>2013-03-07T13:31:27Z</time>
      </trkpt>
      <trkpt lat="43.98211" lon="5.13226">
        <ele>341.4</ele>
        <time>2013-03-07T13:31:29Z</time>
      </trkpt>
      <trkpt lat="43.98212" lon="5.13225">
        <ele>341.6</ele>
        <time>2013-03-07T13:31:30Z</time>
      </trkpt>
      <trkpt lat="43.98215" lon="5.13223">
        <ele>342</ele>
        <time>2013-03-07T13:31:32Z</time>
      </trkpt>
      <trkpt lat="43.98216" lon="5.13222">
        <ele>342.5</ele>
        <time>2013-03-07T13:31:33Z</time>
      </trkpt>
      <trkpt lat="43.9822" lon="5.13221">
        <ele>342.9</ele>
        <time>2013-03-07T13:31:35Z</time>
      </trkpt>
      <trkpt lat="43.98221" lon="5.13221">
        <ele>343</ele>
        <time>2013-03-07T13:31:36Z</time>
      </trkpt>
      <trkpt lat="43.98225" lon="5.13219">
        <ele>343.2</ele>
        <time>2013-03-07T13:31:38Z</time>
      </trkpt>
      <trkpt lat="43.98227" lon="5.13218">
        <ele>343.8</ele>
        <time>2013-03-07T13:31:39Z</time>
      </trkpt>
      <trkpt lat="43.9823" lon="5.13217">
        <ele>343.9</ele>
        <time>2013-03-07T13:31:41Z</time>
      </trkpt>
      <trkpt lat="43.98232" lon="5.13216">
        <ele>344</ele>
        <time>2013-03-07T13:31:42Z</time>
      </trkpt>
      <trkpt lat="43.98235" lon="5.13215">
        <ele>343.9</ele>
        <time>2013-03-07T13:31:44Z</time>
      </trkpt>
      <trkpt lat="43.98237" lon="5.13214">
        <ele>344</ele>
        <time>2013-03-07T13:31:45Z</time>
      </trkpt>
      <trkpt lat="43.9824" lon="5.13213">
        <ele>344.1</ele>
        <time>2013-03-07T13:31:47Z</time>
      </trkpt>
      <trkpt lat="43.98242" lon="5.13213">
        <ele>344.5</ele>
        <time>2013-03-07T13:31:48Z</time>
      </trkpt>
      <trkpt lat="43.98246" lon="5.13213">
        <ele>344.7</ele>
        <time>2013-03-07T13:31:50Z</time>
      </trkpt>
      <trkpt lat="43.98247" lon="5.13213">
        <ele>344.9</ele>
        <time>2013-03-07T13:31:51Z</time>
      </trkpt>
      <trkpt lat="43.98251" lon="5.13213">
        <ele>345.5</ele>
        <time>2013-03-07T13:31:53Z</time>
      </trkpt>
      <trkpt lat="43.98252" lon="5.13213">
        <ele>345.7</ele>
        <time>2013-03-07T13:31:54Z</time>
      </trkpt>
      <trkpt lat="43.98256" lon="5.13213">
        <ele>345.7</ele>
        <time>2013-03-07T13:31:56Z</time>
      </trkpt>
      <trkpt lat="43.98258" lon="5.13213">
        <ele>345.9</ele>
        <time>2013-03-07T13:31:57Z</time>
      </trkpt>
      <trkpt lat="43.98262" lon="5.13215">
        <ele>345.5</ele>
        <time>2013-03-07T13:31:59Z</time>
      </trkpt>
      <trkpt lat="43.98264" lon="5.13215">
        <ele>345.6</ele>
        <time>2013-03-07T13:32:00Z</time>
      </trkpt>
      <trkpt lat="43.98268" lon="5.13214">
        <ele>345.7</ele>
        <time>2013-03-07T13:32:02Z</time>
      </trkpt>
      <trkpt lat="43.98269" lon="5.13214">
        <ele>345.6</ele>
        <time>2013-03-07T13:32:03Z</time>
      </trkpt>
      <trkpt lat="43.98273" lon="5.13213">
        <ele>346.2</ele>
        <time>2013-03-07T13:32:05Z</time>
      </trkpt>
      <trkpt lat="43.98275" lon="5.13212">
        <ele>346.3</ele>
        <time>2013-03-07T13:32:06Z</time>
      </trkpt>
      <trkpt lat="43.98279" lon="5.13211">
        <ele>346.7</ele>
        <time>2013-03-07T13:32:08Z</time>
      </trkpt>
      <trkpt lat="43.9828" lon="5.1321">
        <ele>347</ele>
        <time>2013-03-07T13:32:09Z</time>
      </trkpt>
      <trkpt lat="43.98283" lon="5.13207">
        <ele>347.3</ele>
        <time>2013-03-07T13:32:11Z</time>
      </trkpt>
      <trkpt lat="43.98285" lon="5.13206">
        <ele>347.3</ele>
        <time>2013-03-07T13:32:12Z</time>
      </trkpt>
      <trkpt lat="43.98288" lon="5.13204">
        <ele>347.3</ele>
        <time>2013-03-07T13:32:14Z</time>
      </trkpt>
      <trkpt lat="43.9829" lon="5.13202">
        <ele>347.3</ele>
        <time>2013-03-07T13:32:15Z</time>
      </trkpt>
      <trkpt lat="43.98293" lon="5.13199">
        <ele>347.3</ele>
        <time>2013-03-07T13:32:17Z</time>
      </trkpt>
      <trkpt lat="43.98294" lon="5.13198">
        <ele>347.7</ele>
        <time>2013-03-07T13:32:18Z</time>
      </trkpt>
      <trkpt lat="43.98297" lon="5.13195">
        <ele>348</ele>
        <time>2013-03-07T13:32:20Z</time>
      </trkpt>
      <trkpt lat="43.98299" lon="5.13194">
        <ele>348.4</ele>
        <time>2013-03-07T13:32:21Z</time>
      </trkpt>
      <trkpt lat="43.98303" lon="5.13191">
        <ele>349.1</ele>
        <time>2013-03-07T13:32:23Z</time>
      </trkpt>
      <trkpt lat="43.98304" lon="5.1319">
        <ele>349.3</ele>
        <time>2013-03-07T13:32:24Z</time>
      </trkpt>
      <trkpt lat="43.98308" lon="5.13188">
        <ele>349.8</ele>
        <time>2013-03-07T13:32:26Z</time>
      </trkpt>
      <trkpt lat="43.9831" lon="5.13187">
        <ele>350</ele>
        <time>2013-03-07T13:32:27Z</time>
      </trkpt>
      <trkpt lat="43.98313" lon="5.13184">
        <ele>350.3</ele>
        <time>2013-03-07T13:32:29Z</time>
      </trkpt>
      <trkpt lat="43.98315" lon="5.13183">
        <ele>350.7</ele>
        <time>2013-03-07T13:32:30Z</time>
      </trkpt>
      <trkpt lat="43.98318" lon="5.13182">
        <ele>350.9</ele>
        <time>2013-03-07T13:32:32Z</time>
      </trkpt>
      <trkpt lat="43.9832" lon="5.13182">
        <ele>350.9</ele>
        <time>2013-03-07T13:32:33Z</time>
      </trkpt>
      <trkpt lat="43.98323" lon="5.1318">
        <ele>351.3</ele>
        <time>2013-03-07T13:32:35Z</time>
      </trkpt>
      <trkpt lat="43.98325" lon="5.1318">
        <ele>351.3</ele>
        <time>2013-03-07T13:32:36Z</time>
      </trkpt>
      <trkpt lat="43.98329" lon="5.13179">
        <ele>351.7</ele>
        <time>2013-03-07T13:32:38Z</time>
      </trkpt>
      <trkpt lat="43.98331" lon="5.13179">
        <ele>351.9</ele>
        <time>2013-03-07T13:32:39Z</time>
      </trkpt>
      <trkpt lat="43.98335" lon="5.13179">
        <ele>352.1</ele>
        <time>2013-03-07T13:32:41Z</time>
      </trkpt>
      <trkpt lat="43.98337" lon="5.13179">
        <ele>352.5</ele>
        <time>2013-03-07T13:32:42Z</time>
      </trkpt>
      <trkpt lat="43.98341" lon="5.13179">
        <ele>352.7</ele>
        <time>2013-03-07T13:32:44Z</time>
      </trkpt>
      <trkpt lat="43.98343" lon="5.13179">
        <ele>353.2</ele>
        <time>2013-03-07T13:32:45Z</time>
      </trkpt>
      <trkpt lat="43.98347" lon="5.13179">
        <ele>353.1</ele>
        <time>2013-03-07T13:32:47Z</time>
      </trkpt>
      <trkpt lat="43.9835" lon="5.13179">
        <ele>353.2</ele>
        <time>2013-03-07T13:32:48Z</time>
      </trkpt>
      <trkpt lat="43.98354" lon="5.1318">
        <ele>353.4</ele>
        <time>2013-03-07T13:32:50Z</time>
      </trkpt>
      <trkpt lat="43.98356" lon="5.13181">
        <ele>353.2</ele>
        <time>2013-03-07T13:32:51Z</time>
      </trkpt>
      <trkpt lat="43.98359" lon="5.13181">
        <ele>354.7</ele>
        <time>2013-03-07T13:32:53Z</time>
      </trkpt>
      <trkpt lat="43.98362" lon="5.13184">
        <ele>352.3</ele>
        <time>2013-03-07T13:32:54Z</time>
      </trkpt>
      <trkpt lat="43.98364" lon="5.13185">
        <ele>353</ele>
        <time>2013-03-07T13:32:55Z</time>
      </trkpt>
      <trkpt lat="43.98366" lon="5.13186">
        <ele>352.8</ele>
        <time>2013-03-07T13:32:56Z</time>
      </trkpt>
      <trkpt lat="43.9837" lon="5.1319">
        <ele>352.8</ele>
        <time>2013-03-07T13:32:58Z</time>
      </trkpt>
      <trkpt lat="43.98372" lon="5.13192">
        <ele>352.4</ele>
        <time>2013-03-07T13:32:59Z</time>
      </trkpt>
      <trkpt lat="43.98374" lon="5.13195">
        <ele>351.8</ele>
        <time>2013-03-07T13:33:00Z</time>
      </trkpt>
      <trkpt lat="43.98376" lon="5.13197">
        <ele>351.2</ele>
        <time>2013-03-07T13:33:01Z</time>
      </trkpt>
      <trkpt lat="43.98378" lon="5.13201">
        <ele>350.9</ele>
        <time>2013-03-07T13:33:02Z</time>
      </trkpt>
      <trkpt lat="43.9838" lon="5.13203">
        <ele>352.1</ele>
        <time>2013-03-07T13:33:03Z</time>
      </trkpt>
      <trkpt lat="43.98383" lon="5.13207">
        <ele>351.1</ele>
        <time>2013-03-07T13:33:04Z</time>
      </trkpt>
      <trkpt lat="43.98385" lon="5.13209">
        <ele>351.2</ele>
        <time>2013-03-07T13:33:05Z</time>
      </trkpt>
      <trkpt lat="43.98388" lon="5.13212">
        <ele>350.9</ele>
        <time>2013-03-07T13:33:06Z</time>
      </trkpt>
      <trkpt lat="43.9839" lon="5.13214">
        <ele>350.6</ele>
        <time>2013-03-07T13:33:07Z</time>
      </trkpt>
      <trkpt lat="43.98393" lon="5.13216">
        <ele>350.9</ele>
        <time>2013-03-07T13:33:08Z</time>
      </trkpt>
      <trkpt lat="43.98396" lon="5.13218">
        <ele>351</ele>
        <time>2013-03-07T13:33:09Z</time>
      </trkpt>
      <trkpt lat="43.98398" lon="5.1322">
        <ele>350.8</ele>
        <time>2013-03-07T13:33:10Z</time>
      </trkpt>
      <trkpt lat="43.98401" lon="5.13223">
        <ele>350.7</ele>
        <time>2013-03-07T13:33:11Z</time>
      </trkpt>
      <trkpt lat="43.98404" lon="5.13225">
        <ele>350.4</ele>
        <time>2013-03-07T13:33:12Z</time>
      </trkpt>
      <trkpt lat="43.98407" lon="5.13227">
        <ele>350.2</ele>
        <time>2013-03-07T13:33:13Z</time>
      </trkpt>
      <trkpt lat="43.9841" lon="5.1323">
        <ele>350.4</ele>
        <time>2013-03-07T13:33:14Z</time>
      </trkpt>
      <trkpt lat="43.98413" lon="5.13232">
        <ele>350.5</ele>
        <time>2013-03-07T13:33:15Z</time>
      </trkpt>
      <trkpt lat="43.98416" lon="5.13235">
        <ele>350.5</ele>
        <time>2013-03-07T13:33:16Z</time>
      </trkpt>
      <trkpt lat="43.98419" lon="5.13238">
        <ele>350.5</ele>
        <time>2013-03-07T13:33:17Z</time>
      </trkpt>
      <trkpt lat="43.98422" lon="5.1324">
        <ele>350.6</ele>
        <time>2013-03-07T13:33:18Z</time>
      </trkpt>
      <trkpt lat="43.98425" lon="5.13243">
        <ele>350.7</ele>
        <time>2013-03-07T13:33:19Z</time>
      </trkpt>
      <trkpt lat="43.98428" lon="5.13246">
        <ele>350.7</ele>
        <time>2013-03-07T13:33:20Z</time>
      </trkpt>
      <trkpt lat="43.9843" lon="5.13249">
        <ele>350.8</ele>
        <time>2013-03-07T13:33:21Z</time>
      </trkpt>
      <trkpt lat="43.98433" lon="5.13251">
        <ele>350.8</ele>
        <time>2013-03-07T13:33:22Z</time>
      </trkpt>
      <trkpt lat="43.98436" lon="5.13254">
        <ele>350.5</ele>
        <time>2013-03-07T13:33:23Z</time>
      </trkpt>
      <trkpt lat="43.98439" lon="5.13257">
        <ele>350.5</ele>
        <time>2013-03-07T13:33:24Z</time>
      </trkpt>
      <trkpt lat="43.98442" lon="5.1326">
        <ele>350.5</ele>
        <time>2013-03-07T13:33:25Z</time>
      </trkpt>
      <trkpt lat="43.98445" lon="5.13262">
        <ele>350.6</ele>
        <time>2013-03-07T13:33:26Z</time>
      </trkpt>
      <trkpt lat="43.98448" lon="5.13265">
        <ele>350.9</ele>
        <time>2013-03-07T13:33:27Z</time>
      </trkpt>
      <trkpt lat="43.98451" lon="5.13267">
        <ele>351.1</ele>
        <time>2013-03-07T13:33:28Z</time>
      </trkpt>
      <trkpt lat="43.98454" lon="5.1327">
        <ele>351.2</ele>
        <time>2013-03-07T13:33:29Z</time>
      </trkpt>
      <trkpt lat="43.98456" lon="5.13272">
        <ele>351.5</ele>
        <time>2013-03-07T13:33:30Z</time>
      </trkpt>
      <trkpt lat="43.98459" lon="5.13275">
        <ele>351.8</ele>
        <time>2013-03-07T13:33:31Z</time>
      </trkpt>
      <trkpt lat="43.98461" lon="5.13277">
        <ele>352</ele>
        <time>2013-03-07T13:33:32Z</time>
      </trkpt>
      <trkpt lat="43.98463" lon="5.13279">
        <ele>352.2</ele>
        <time>2013-03-07T13:33:33Z</time>
      </trkpt>
      <trkpt lat="43.98466" lon="5.13281">
        <ele>352.8</ele>
        <time>2013-03-07T13:33:35Z</time>
      </trkpt>
      <trkpt lat="43.98468" lon="5.13282">
        <ele>352.7</ele>
        <time>2013-03-07T13:33:36Z</time>
      </trkpt>
      <trkpt lat="43.9847" lon="5.13286">
        <ele>352.9</ele>
        <time>2013-03-07T13:33:38Z</time>
      </trkpt>
      <trkpt lat="43.98471" lon="5.13288">
        <ele>352.7</ele>
        <time>2013-03-07T13:33:39Z</time>
      </trkpt>
      <trkpt lat="43.98473" lon="5.1329">
        <ele>353.2</ele>
        <time>2013-03-07T13:33:40Z</time>
      </trkpt>
      <trkpt lat="43.98474" lon="5.13293">
        <ele>352.8</ele>
        <time>2013-03-07T13:33:41Z</time>
      </trkpt>
      <trkpt lat="43.98476" lon="5.13296">
        <ele>352.2</ele>
        <time>2013-03-07T13:33:42Z</time>
      </trkpt>
      <trkpt lat="43.98477" lon="5.13299">
        <ele>352.3</ele>
        <time>2013-03-07T13:33:43Z</time>
      </trkpt>
      <trkpt lat="43.98478" lon="5.13301">
        <ele>352.9</ele>
        <time>2013-03-07T13:33:44Z</time>
      </trkpt>
      <trkpt lat="43.9848" lon="5.13305">
        <ele>352.2</ele>
        <time>2013-03-07T13:33:45Z</time>
      </trkpt>
      <trkpt lat="43.98483" lon="5.13307">
        <ele>352.6</ele>
        <time>2013-03-07T13:33:46Z</time>
      </trkpt>
      <trkpt lat="43.98485" lon="5.13309">
        <ele>352.4</ele>
        <time>2013-03-07T13:33:47Z</time>
      </trkpt>
      <trkpt lat="43.98488" lon="5.1331">
        <ele>352</ele>
        <time>2013-03-07T13:33:48Z</time>
      </trkpt>
      <trkpt lat="43.98491" lon="5.13311">
        <ele>351.8</ele>
        <time>2013-03-07T13:33:49Z</time>
      </trkpt>
      <trkpt lat="43.98496" lon="5.13308">
        <ele>351.2</ele>
        <time>2013-03-07T13:33:50Z</time>
      </trkpt>
      <trkpt lat="43.98501" lon="5.13306">
        <ele>351</ele>
        <time>2013-03-07T13:33:51Z</time>
      </trkpt>
      <trkpt lat="43.98505" lon="5.13305">
        <ele>350.9</ele>
        <time>2013-03-07T13:33:52Z</time>
      </trkpt>
      <trkpt lat="43.9851" lon="5.13302">
        <ele>350.2</ele>
        <time>2013-03-07T13:33:53Z</time>
      </trkpt>
      <trkpt lat="43.98515" lon="5.133">
        <ele>350.3</ele>
        <time>2013-03-07T13:33:54Z</time>
      </trkpt>
      <trkpt lat="43.9852" lon="5.13298">
        <ele>348.9</ele>
        <time>2013-03-07T13:33:55Z</time>
      </trkpt>
      <trkpt lat="43.98524" lon="5.13295">
        <ele>349.4</ele>
        <time>2013-03-07T13:33:56Z</time>
      </trkpt>
      <trkpt lat="43.98527" lon="5.13293">
        <ele>349.1</ele>
        <time>2013-03-07T13:33:57Z</time>
      </trkpt>
      <trkpt lat="43.9853" lon="5.1329">
        <ele>349.4</ele>
        <time>2013-03-07T13:33:58Z</time>
      </trkpt>
      <trkpt lat="43.98533" lon="5.13288">
        <ele>349.8</ele>
        <time>2013-03-07T13:33:59Z</time>
      </trkpt>
      <trkpt lat="43.98535" lon="5.13286">
        <ele>350.1</ele>
        <time>2013-03-07T13:34:00Z</time>
      </trkpt>
      <trkpt lat="43.98537" lon="5.13284">
        <ele>349.6</ele>
        <time>2013-03-07T13:34:01Z</time>
      </trkpt>
      <trkpt lat="43.98541" lon="5.13285">
        <ele>350.7</ele>
        <time>2013-03-07T13:35:12Z</time>
      </trkpt>
      <trkpt lat="43.98543" lon="5.13286">
        <ele>349.8</ele>
        <time>2013-03-07T13:35:13Z</time>
      </trkpt>
      <trkpt lat="43.98547" lon="5.13283">
        <ele>348.9</ele>
        <time>2013-03-07T13:35:17Z</time>
      </trkpt>
      <trkpt lat="43.98548" lon="5.13283">
        <ele>348.3</ele>
        <time>2013-03-07T13:35:18Z</time>
      </trkpt>
      <trkpt lat="43.98551" lon="5.13282">
        <ele>348.3</ele>
        <time>2013-03-07T13:35:20Z</time>
      </trkpt>
      <trkpt lat="43.98553" lon="5.13282">
        <ele>348.6</ele>
        <time>2013-03-07T13:35:21Z</time>
      </trkpt>
      <trkpt lat="43.98556" lon="5.13281">
        <ele>348.6</ele>
        <time>2013-03-07T13:35:23Z</time>
      </trkpt>
      <trkpt lat="43.98558" lon="5.13277">
        <ele>348.6</ele>
        <time>2013-03-07T13:35:24Z</time>
      </trkpt>
      <trkpt lat="43.98561" lon="5.13273">
        <ele>348.8</ele>
        <time>2013-03-07T13:35:26Z</time>
      </trkpt>
      <trkpt lat="43.98565" lon="5.13272">
        <ele>347.7</ele>
        <time>2013-03-07T13:35:27Z</time>
      </trkpt>
      <trkpt lat="43.98568" lon="5.1327">
        <ele>347.9</ele>
        <time>2013-03-07T13:35:28Z</time>
      </trkpt>
      <trkpt lat="43.98571" lon="5.13268">
        <ele>348</ele>
        <time>2013-03-07T13:35:29Z</time>
      </trkpt>
      <trkpt lat="43.98573" lon="5.13265">
        <ele>347.6</ele>
        <time>2013-03-07T13:35:30Z</time>
      </trkpt>
      <trkpt lat="43.98576" lon="5.13263">
        <ele>347.8</ele>
        <time>2013-03-07T13:35:31Z</time>
      </trkpt>
      <trkpt lat="43.98579" lon="5.13258">
        <ele>348.5</ele>
        <time>2013-03-07T13:35:33Z</time>
      </trkpt>
      <trkpt lat="43.98579" lon="5.13257">
        <ele>348.8</ele>
        <time>2013-03-07T13:35:34Z</time>
      </trkpt>
      <trkpt lat="43.98579" lon="5.13251">
        <ele>349.5</ele>
        <time>2013-03-07T13:35:46Z</time>
      </trkpt>
      <trkpt lat="43.98579" lon="5.1325">
        <ele>349.1</ele>
        <time>2013-03-07T13:35:47Z</time>
      </trkpt>
      <trkpt lat="43.98583" lon="5.1325">
        <ele>349.1</ele>
        <time>2013-03-07T13:35:55Z</time>
      </trkpt>
      <trkpt lat="43.98584" lon="5.13251">
        <ele>349.1</ele>
        <time>2013-03-07T13:35:56Z</time>
      </trkpt>
      <trkpt lat="43.98587" lon="5.13248">
        <ele>346.4</ele>
        <time>2013-03-07T13:36:02Z</time>
      </trkpt>
      <trkpt lat="43.98589" lon="5.13246">
        <ele>347.2</ele>
        <time>2013-03-07T13:36:03Z</time>
      </trkpt>
      <trkpt lat="43.98591" lon="5.13245">
        <ele>347.7</ele>
        <time>2013-03-07T13:36:05Z</time>
      </trkpt>
      <trkpt lat="43.98593" lon="5.13244">
        <ele>347.5</ele>
        <time>2013-03-07T13:36:06Z</time>
      </trkpt>
      <trkpt lat="43.98597" lon="5.13241">
        <ele>347.6</ele>
        <time>2013-03-07T13:36:08Z</time>
      </trkpt>
      <trkpt lat="43.98598" lon="5.13238">
        <ele>347.3</ele>
        <time>2013-03-07T13:36:09Z</time>
      </trkpt>
      <trkpt lat="43.98601" lon="5.13234">
        <ele>346.6</ele>
        <time>2013-03-07T13:36:12Z</time>
      </trkpt>
      <trkpt lat="43.98602" lon="5.13233">
        <ele>346.8</ele>
        <time>2013-03-07T13:36:13Z</time>
      </trkpt>
      <trkpt lat="43.98603" lon="5.13227">
        <ele>349.2</ele>
        <time>2013-03-07T13:36:33Z</time>
      </trkpt>
      <trkpt lat="43.98603" lon="5.13226">
        <ele>349.4</ele>
        <time>2013-03-07T13:36:34Z</time>
      </trkpt>
      <trkpt lat="43.98602" lon="5.13221">
        <ele>349.6</ele>
        <time>2013-03-07T13:36:38Z</time>
      </trkpt>
      <trkpt lat="43.98602" lon="5.13219">
        <ele>349.3</ele>
        <time>2013-03-07T13:36:39Z</time>
      </trkpt>
      <trkpt lat="43.98603" lon="5.13215">
        <ele>349.4</ele>
        <time>2013-03-07T13:36:44Z</time>
      </trkpt>
      <trkpt lat="43.98603" lon="5.13213">
        <ele>349.3</ele>
        <time>2013-03-07T13:36:45Z</time>
      </trkpt>
      <trkpt lat="43.98605" lon="5.13209">
        <ele>349</ele>
        <time>2013-03-07T13:36:46Z</time>
      </trkpt>
      <trkpt lat="43.98606" lon="5.13207">
        <ele>348.9</ele>
        <time>2013-03-07T13:36:47Z</time>
      </trkpt>
      <trkpt lat="43.98608" lon="5.13205">
        <ele>349</ele>
        <time>2013-03-07T13:36:48Z</time>
      </trkpt>
      <trkpt lat="43.98611" lon="5.13203">
        <ele>348.8</ele>
        <time>2013-03-07T13:36:49Z</time>
      </trkpt>
      <trkpt lat="43.98614" lon="5.13202">
        <ele>348.4</ele>
        <time>2013-03-07T13:36:50Z</time>
      </trkpt>
      <trkpt lat="43.98617" lon="5.13201">
        <ele>348.4</ele>
        <time>2013-03-07T13:36:51Z</time>
      </trkpt>
      <trkpt lat="43.98621" lon="5.13199">
        <ele>348.1</ele>
        <time>2013-03-07T13:36:53Z</time>
      </trkpt>
      <trkpt lat="43.98622" lon="5.132">
        <ele>348.1</ele>
        <time>2013-03-07T13:36:54Z</time>
      </trkpt>
      <trkpt lat="43.98624" lon="5.132">
        <ele>348.1</ele>
        <time>2013-03-07T13:36:55Z</time>
      </trkpt>
      <trkpt lat="43.98627" lon="5.13199">
        <ele>347.9</ele>
        <time>2013-03-07T13:36:56Z</time>
      </trkpt>
      <trkpt lat="43.9863" lon="5.13197">
        <ele>347.6</ele>
        <time>2013-03-07T13:36:58Z</time>
      </trkpt>
      <trkpt lat="43.98632" lon="5.13196">
        <ele>347.5</ele>
        <time>2013-03-07T13:36:59Z</time>
      </trkpt>
      <trkpt lat="43.98634" lon="5.13194">
        <ele>347.5</ele>
        <time>2013-03-07T13:37:00Z</time>
      </trkpt>
      <trkpt lat="43.98636" lon="5.13192">
        <ele>347.4</ele>
        <time>2013-03-07T13:37:01Z</time>
      </trkpt>
      <trkpt lat="43.98639" lon="5.13189">
        <ele>347</ele>
        <time>2013-03-07T13:37:02Z</time>
      </trkpt>
      <trkpt lat="43.98642" lon="5.13186">
        <ele>347.1</ele>
        <time>2013-03-07T13:37:03Z</time>
      </trkpt>
      <trkpt lat="43.98645" lon="5.13183">
        <ele>347.1</ele>
        <time>2013-03-07T13:37:04Z</time>
      </trkpt>
      <trkpt lat="43.98647" lon="5.13181">
        <ele>346.4</ele>
        <time>2013-03-07T13:37:05Z</time>
      </trkpt>
      <trkpt lat="43.98651" lon="5.13178">
        <ele>346.4</ele>
        <time>2013-03-07T13:37:07Z</time>
      </trkpt>
      <trkpt lat="43.98652" lon="5.13177">
        <ele>346.6</ele>
        <time>2013-03-07T13:37:08Z</time>
      </trkpt>
      <trkpt lat="43.98656" lon="5.13174">
        <ele>346.5</ele>
        <time>2013-03-07T13:37:15Z</time>
      </trkpt>
      <trkpt lat="43.98656" lon="5.13174">
        <ele>346.6</ele>
        <time>2013-03-07T13:37:16Z</time>
      </trkpt>
      <trkpt lat="43.98659" lon="5.1317">
        <ele>346.7</ele>
        <time>2013-03-07T13:37:22Z</time>
      </trkpt>
      <trkpt lat="43.9866" lon="5.13168">
        <ele>346.5</ele>
        <time>2013-03-07T13:37:23Z</time>
      </trkpt>
      <trkpt lat="43.98662" lon="5.13163">
        <ele>346.4</ele>
        <time>2013-03-07T13:37:25Z</time>
      </trkpt>
      <trkpt lat="43.98664" lon="5.13159">
        <ele>346.4</ele>
        <time>2013-03-07T13:37:26Z</time>
      </trkpt>
      <trkpt lat="43.98665" lon="5.13156">
        <ele>346.4</ele>
        <time>2013-03-07T13:37:27Z</time>
      </trkpt>
      <trkpt lat="43.98667" lon="5.13153">
        <ele>345.7</ele>
        <time>2013-03-07T13:37:28Z</time>
      </trkpt>
      <trkpt lat="43.98669" lon="5.1315">
        <ele>345.4</ele>
        <time>2013-03-07T13:37:29Z</time>
      </trkpt>
      <trkpt lat="43.98671" lon="5.13148">
        <ele>345</ele>
        <time>2013-03-07T13:37:30Z</time>
      </trkpt>
      <trkpt lat="43.98675" lon="5.13146">
        <ele>345.7</ele>
        <time>2013-03-07T13:37:32Z</time>
      </trkpt>
      <trkpt lat="43.98677" lon="5.13146">
        <ele>345.5</ele>
        <time>2013-03-07T13:37:33Z</time>
      </trkpt>
      <trkpt lat="43.9868" lon="5.13146">
        <ele>345.2</ele>
        <time>2013-03-07T13:37:34Z</time>
      </trkpt>
      <trkpt lat="43.98683" lon="5.13146">
        <ele>344.6</ele>
        <time>2013-03-07T13:37:35Z</time>
      </trkpt>
      <trkpt lat="43.98687" lon="5.13145">
        <ele>344.6</ele>
        <time>2013-03-07T13:37:37Z</time>
      </trkpt>
      <trkpt lat="43.98688" lon="5.13143">
        <ele>344.1</ele>
        <time>2013-03-07T13:37:38Z</time>
      </trkpt>
      <trkpt lat="43.98692" lon="5.13141">
        <ele>346.3</ele>
        <time>2013-03-07T13:38:39Z</time>
      </trkpt>
      <trkpt lat="43.98692" lon="5.13139">
        <ele>347</ele>
        <time>2013-03-07T13:38:40Z</time>
      </trkpt>
      <trkpt lat="43.98693" lon="5.13136">
        <ele>348</ele>
        <time>2013-03-07T13:38:41Z</time>
      </trkpt>
      <trkpt lat="43.98694" lon="5.13132">
        <ele>349.2</ele>
        <time>2013-03-07T13:38:42Z</time>
      </trkpt>
      <trkpt lat="43.98698" lon="5.13131">
        <ele>350.2</ele>
        <time>2013-03-07T13:38:44Z</time>
      </trkpt>
      <trkpt lat="43.987" lon="5.13132">
        <ele>349.5</ele>
        <time>2013-03-07T13:38:45Z</time>
      </trkpt>
      <trkpt lat="43.98704" lon="5.13134">
        <ele>347.6</ele>
        <time>2013-03-07T13:38:48Z</time>
      </trkpt>
      <trkpt lat="43.98705" lon="5.13132">
        <ele>347.3</ele>
        <time>2013-03-07T13:38:49Z</time>
      </trkpt>
      <trkpt lat="43.98709" lon="5.13129">
        <ele>345.4</ele>
        <time>2013-03-07T13:38:58Z</time>
      </trkpt>
      <trkpt lat="43.98709" lon="5.13128">
        <ele>345.7</ele>
        <time>2013-03-07T13:38:59Z</time>
      </trkpt>
      <trkpt lat="43.98711" lon="5.13123">
        <ele>347</ele>
        <time>2013-03-07T13:39:10Z</time>
      </trkpt>
      <trkpt lat="43.98711" lon="5.13122">
        <ele>347.4</ele>
        <time>2013-03-07T13:39:11Z</time>
      </trkpt>
      <trkpt lat="43.98715" lon="5.13121">
        <ele>345.7</ele>
        <time>2013-03-07T13:39:15Z</time>
      </trkpt>
      <trkpt lat="43.98716" lon="5.1312">
        <ele>345.8</ele>
        <time>2013-03-07T13:39:16Z</time>
      </trkpt>
      <trkpt lat="43.98718" lon="5.13116">
        <ele>344.1</ele>
        <time>2013-03-07T13:39:21Z</time>
      </trkpt>
      <trkpt lat="43.98719" lon="5.13115">
        <ele>344.8</ele>
        <time>2013-03-07T13:39:22Z</time>
      </trkpt>
      <trkpt lat="43.9872" lon="5.13111">
        <ele>345.2</ele>
        <time>2013-03-07T13:39:24Z</time>
      </trkpt>
      <trkpt lat="43.98721" lon="5.13108">
        <ele>345.1</ele>
        <time>2013-03-07T13:39:25Z</time>
      </trkpt>
      <trkpt lat="43.98723" lon="5.13106">
        <ele>345.5</ele>
        <time>2013-03-07T13:39:27Z</time>
      </trkpt>
      <trkpt lat="43.98725" lon="5.13106">
        <ele>345.5</ele>
        <time>2013-03-07T13:39:28Z</time>
      </trkpt>
      <trkpt lat="43.98728" lon="5.13105">
        <ele>346.1</ele>
        <time>2013-03-07T13:39:30Z</time>
      </trkpt>
      <trkpt lat="43.9873" lon="5.13103">
        <ele>346.1</ele>
        <time>2013-03-07T13:39:31Z</time>
      </trkpt>
      <trkpt lat="43.98731" lon="5.13101">
        <ele>346.3</ele>
        <time>2013-03-07T13:39:32Z</time>
      </trkpt>
      <trkpt lat="43.98733" lon="5.13098">
        <ele>346.2</ele>
        <time>2013-03-07T13:39:33Z</time>
      </trkpt>
      <trkpt lat="43.98737" lon="5.13097">
        <ele>346.2</ele>
        <time>2013-03-07T13:39:36Z</time>
      </trkpt>
      <trkpt lat="43.98739" lon="5.13099">
        <ele>346.2</ele>
        <time>2013-03-07T13:39:37Z</time>
      </trkpt>
      <trkpt lat="43.98741" lon="5.13103">
        <ele>345.7</ele>
        <time>2013-03-07T13:39:39Z</time>
      </trkpt>
      <trkpt lat="43.98743" lon="5.13103">
        <ele>345.5</ele>
        <time>2013-03-07T13:39:40Z</time>
      </trkpt>
      <trkpt lat="43.98746" lon="5.131">
        <ele>345.7</ele>
        <time>2013-03-07T13:39:42Z</time>
      </trkpt>
      <trkpt lat="43.98748" lon="5.13098">
        <ele>345.5</ele>
        <time>2013-03-07T13:39:43Z</time>
      </trkpt>
      <trkpt lat="43.98751" lon="5.13096">
        <ele>345.1</ele>
        <time>2013-03-07T13:39:44Z</time>
      </trkpt>
      <trkpt lat="43.98754" lon="5.13095">
        <ele>344.7</ele>
        <time>2013-03-07T13:39:45Z</time>
      </trkpt>
      <trkpt lat="43.98756" lon="5.13092">
        <ele>344.5</ele>
        <time>2013-03-07T13:39:46Z</time>
      </trkpt>
      <trkpt lat="43.98758" lon="5.1309">
        <ele>344.3</ele>
        <time>2013-03-07T13:39:47Z</time>
      </trkpt>
      <trkpt lat="43.98761" lon="5.13088">
        <ele>344.3</ele>
        <time>2013-03-07T13:39:48Z</time>
      </trkpt>
      <trkpt lat="43.98764" lon="5.13088">
        <ele>344.1</ele>
        <time>2013-03-07T13:39:49Z</time>
      </trkpt>
      <trkpt lat="43.98766" lon="5.13087">
        <ele>344.2</ele>
        <time>2013-03-07T13:39:50Z</time>
      </trkpt>
      <trkpt lat="43.98768" lon="5.13086">
        <ele>344.2</ele>
        <time>2013-03-07T13:39:51Z</time>
      </trkpt>
      <trkpt lat="43.98771" lon="5.13085">
        <ele>343.9</ele>
        <time>2013-03-07T13:39:52Z</time>
      </trkpt>
      <trkpt lat="43.98774" lon="5.13085">
        <ele>343.9</ele>
        <time>2013-03-07T13:39:53Z</time>
      </trkpt>
      <trkpt lat="43.98777" lon="5.13085">
        <ele>344</ele>
        <time>2013-03-07T13:39:54Z</time>
      </trkpt>
      <trkpt lat="43.98779" lon="5.13077">
        <ele>343.4</ele>
        <time>2013-03-07T13:39:55Z</time>
      </trkpt>
      <trkpt lat="43.98785" lon="5.13072">
        <ele>342.7</ele>
        <time>2013-03-07T13:39:57Z</time>
      </trkpt>
      <trkpt lat="43.98788" lon="5.1307">
        <ele>342.6</ele>
        <time>2013-03-07T13:39:58Z</time>
      </trkpt>
      <trkpt lat="43.98791" lon="5.13068">
        <ele>342.5</ele>
        <time>2013-03-07T13:39:59Z</time>
      </trkpt>
      <trkpt lat="43.98795" lon="5.13067">
        <ele>342.7</ele>
        <time>2013-03-07T13:40:00Z</time>
      </trkpt>
      <trkpt lat="43.98798" lon="5.13065">
        <ele>342.9</ele>
        <time>2013-03-07T13:40:01Z</time>
      </trkpt>
      <trkpt lat="43.98802" lon="5.13065">
        <ele>343</ele>
        <time>2013-03-07T13:40:02Z</time>
      </trkpt>
      <trkpt lat="43.98804" lon="5.13064">
        <ele>342.7</ele>
        <time>2013-03-07T13:40:03Z</time>
      </trkpt>
      <trkpt lat="43.98806" lon="5.13061">
        <ele>342.5</ele>
        <time>2013-03-07T13:40:04Z</time>
      </trkpt>
      <trkpt lat="43.98809" lon="5.13059">
        <ele>342.2</ele>
        <time>2013-03-07T13:40:05Z</time>
      </trkpt>
      <trkpt lat="43.98813" lon="5.13058">
        <ele>342.2</ele>
        <time>2013-03-07T13:40:08Z</time>
      </trkpt>
      <trkpt lat="43.98814" lon="5.13059">
        <ele>342.2</ele>
        <time>2013-03-07T13:40:09Z</time>
      </trkpt>
      <trkpt lat="43.98817" lon="5.13059">
        <ele>342.1</ele>
        <time>2013-03-07T13:40:10Z</time>
      </trkpt>
      <trkpt lat="43.98819" lon="5.13058">
        <ele>342.2</ele>
        <time>2013-03-07T13:40:11Z</time>
      </trkpt>
      <trkpt lat="43.98821" lon="5.13057">
        <ele>342.4</ele>
        <time>2013-03-07T13:40:12Z</time>
      </trkpt>
      <trkpt lat="43.98824" lon="5.13055">
        <ele>342.3</ele>
        <time>2013-03-07T13:40:13Z</time>
      </trkpt>
      <trkpt lat="43.98827" lon="5.13054">
        <ele>342.4</ele>
        <time>2013-03-07T13:40:14Z</time>
      </trkpt>
      <trkpt lat="43.9883" lon="5.13052">
        <ele>342.4</ele>
        <time>2013-03-07T13:40:15Z</time>
      </trkpt>
      <trkpt lat="43.98832" lon="5.13051">
        <ele>342.2</ele>
        <time>2013-03-07T13:40:16Z</time>
      </trkpt>
      <trkpt lat="43.98836" lon="5.13051">
        <ele>342.3</ele>
        <time>2013-03-07T13:40:17Z</time>
      </trkpt>
      <trkpt lat="43.98839" lon="5.1305">
        <ele>342.2</ele>
        <time>2013-03-07T13:40:18Z</time>
      </trkpt>
      <trkpt lat="43.98843" lon="5.13049">
        <ele>342</ele>
        <time>2013-03-07T13:40:19Z</time>
      </trkpt>
      <trkpt lat="43.98846" lon="5.13048">
        <ele>342</ele>
        <time>2013-03-07T13:40:20Z</time>
      </trkpt>
      <trkpt lat="43.9885" lon="5.13046">
        <ele>342.1</ele>
        <time>2013-03-07T13:40:21Z</time>
      </trkpt>
      <trkpt lat="43.98853" lon="5.13046">
        <ele>341.7</ele>
        <time>2013-03-07T13:40:22Z</time>
      </trkpt>
      <trkpt lat="43.98857" lon="5.13045">
        <ele>341.6</ele>
        <time>2013-03-07T13:40:23Z</time>
      </trkpt>
      <trkpt lat="43.9886" lon="5.13044">
        <ele>341.6</ele>
        <time>2013-03-07T13:40:24Z</time>
      </trkpt>
      <trkpt lat="43.98863" lon="5.13043">
        <ele>341.7</ele>
        <time>2013-03-07T13:40:25Z</time>
      </trkpt>
      <trkpt lat="43.98867" lon="5.13041">
        <ele>341.3</ele>
        <time>2013-03-07T13:40:27Z</time>
      </trkpt>
      <trkpt lat="43.98869" lon="5.13041">
        <ele>341.1</ele>
        <time>2013-03-07T13:40:28Z</time>
      </trkpt>
      <trkpt lat="43.98868" lon="5.13041">
        <ele>345.6</ele>
        <time>2013-03-07T13:40:31Z</time>
      </trkpt>
      <trkpt lat="43.9886" lon="5.13044">
        <ele>350.5</ele>
        <time>2013-03-07T13:40:32Z</time>
      </trkpt>
      <trkpt lat="43.98859" lon="5.13037">
        <ele>352</ele>
        <time>2013-03-07T13:40:33Z</time>
      </trkpt>
      <trkpt lat="43.98867" lon="5.1304">
        <ele>346.1</ele>
        <time>2013-03-07T13:40:34Z</time>
      </trkpt>
      <trkpt lat="43.98867" lon="5.1304">
        <ele>346</ele>
        <time>2013-03-07T13:41:05Z</time>
      </trkpt>
      <trkpt lat="43.98872" lon="5.13042">
        <ele>346.5</ele>
        <time>2013-03-07T13:41:06Z</time>
      </trkpt>
      <trkpt lat="43.98873" lon="5.13046">
        <ele>346.6</ele>
        <time>2013-03-07T13:41:08Z</time>
      </trkpt>
      <trkpt lat="43.98875" lon="5.1305">
        <ele>345.2</ele>
        <time>2013-03-07T13:41:09Z</time>
      </trkpt>
      <trkpt lat="43.98876" lon="5.13056">
        <ele>343.6</ele>
        <time>2013-03-07T13:41:11Z</time>
      </trkpt>
      <trkpt lat="43.98877" lon="5.13057">
        <ele>343.3</ele>
        <time>2013-03-07T13:41:12Z</time>
      </trkpt>
      <trkpt lat="43.98878" lon="5.13063">
        <ele>341.5</ele>
        <time>2013-03-07T13:41:19Z</time>
      </trkpt>
      <trkpt lat="43.98878" lon="5.13066">
        <ele>341.3</ele>
        <time>2013-03-07T13:41:20Z</time>
      </trkpt>
      <trkpt lat="43.98877" lon="5.13068">
        <ele>341.3</ele>
        <time>2013-03-07T13:41:21Z</time>
      </trkpt>
      <trkpt lat="43.98875" lon="5.13072">
        <ele>340.8</ele>
        <time>2013-03-07T13:41:22Z</time>
      </trkpt>
      <trkpt lat="43.98873" lon="5.13075">
        <ele>340</ele>
        <time>2013-03-07T13:41:23Z</time>
      </trkpt>
      <trkpt lat="43.9887" lon="5.13077">
        <ele>340.2</ele>
        <time>2013-03-07T13:41:24Z</time>
      </trkpt>
      <trkpt lat="43.98869" lon="5.13082">
        <ele>339.5</ele>
        <time>2013-03-07T13:41:26Z</time>
      </trkpt>
      <trkpt lat="43.98869" lon="5.13084">
        <ele>340.1</ele>
        <time>2013-03-07T13:41:27Z</time>
      </trkpt>
      <trkpt lat="43.98871" lon="5.13085">
        <ele>339.6</ele>
        <time>2013-03-07T13:41:28Z</time>
      </trkpt>
      <trkpt lat="43.98874" lon="5.13085">
        <ele>339.3</ele>
        <time>2013-03-07T13:41:29Z</time>
      </trkpt>
      <trkpt lat="43.98877" lon="5.13084">
        <ele>339.3</ele>
        <time>2013-03-07T13:41:30Z</time>
      </trkpt>
      <trkpt lat="43.98879" lon="5.13082">
        <ele>339.1</ele>
        <time>2013-03-07T13:41:31Z</time>
      </trkpt>
      <trkpt lat="43.98883" lon="5.1308">
        <ele>338.5</ele>
        <time>2013-03-07T13:41:33Z</time>
      </trkpt>
      <trkpt lat="43.98885" lon="5.13079">
        <ele>338.5</ele>
        <time>2013-03-07T13:41:34Z</time>
      </trkpt>
      <trkpt lat="43.98888" lon="5.13079">
        <ele>338.2</ele>
        <time>2013-03-07T13:41:36Z</time>
      </trkpt>
      <trkpt lat="43.9889" lon="5.13078">
        <ele>338.1</ele>
        <time>2013-03-07T13:41:37Z</time>
      </trkpt>
      <trkpt lat="43.98893" lon="5.13079">
        <ele>337.5</ele>
        <time>2013-03-07T13:41:38Z</time>
      </trkpt>
      <trkpt lat="43.98896" lon="5.13079">
        <ele>336.8</ele>
        <time>2013-03-07T13:41:39Z</time>
      </trkpt>
      <trkpt lat="43.98899" lon="5.1308">
        <ele>335.9</ele>
        <time>2013-03-07T13:41:40Z</time>
      </trkpt>
      <trkpt lat="43.98902" lon="5.1308">
        <ele>335.1</ele>
        <time>2013-03-07T13:41:41Z</time>
      </trkpt>
      <trkpt lat="43.98907" lon="5.13081">
        <ele>334.4</ele>
        <time>2013-03-07T13:41:42Z</time>
      </trkpt>
      <trkpt lat="43.98911" lon="5.1308">
        <ele>333.9</ele>
        <time>2013-03-07T13:41:43Z</time>
      </trkpt>
      <trkpt lat="43.98915" lon="5.1308">
        <ele>333.6</ele>
        <time>2013-03-07T13:41:44Z</time>
      </trkpt>
      <trkpt lat="43.98918" lon="5.13079">
        <ele>332.9</ele>
        <time>2013-03-07T13:41:45Z</time>
      </trkpt>
      <trkpt lat="43.98922" lon="5.13079">
        <ele>333.2</ele>
        <time>2013-03-07T13:41:46Z</time>
      </trkpt>
      <trkpt lat="43.98925" lon="5.13079">
        <ele>333.2</ele>
        <time>2013-03-07T13:41:47Z</time>
      </trkpt>
      <trkpt lat="43.98929" lon="5.13079">
        <ele>332.2</ele>
        <time>2013-03-07T13:41:49Z</time>
      </trkpt>
      <trkpt lat="43.9893" lon="5.13079">
        <ele>331.4</ele>
        <time>2013-03-07T13:41:50Z</time>
      </trkpt>
      <trkpt lat="43.98933" lon="5.13079">
        <ele>331.4</ele>
        <time>2013-03-07T13:42:18Z</time>
      </trkpt>
      <trkpt lat="43.98934" lon="5.13082">
        <ele>331.2</ele>
        <time>2013-03-07T13:42:19Z</time>
      </trkpt>
      <trkpt lat="43.98931" lon="5.13083">
        <ele>329.8</ele>
        <time>2013-03-07T13:42:23Z</time>
      </trkpt>
      <trkpt lat="43.98929" lon="5.13083">
        <ele>329.2</ele>
        <time>2013-03-07T13:42:24Z</time>
      </trkpt>
      <trkpt lat="43.98932" lon="5.1308">
        <ele>326.9</ele>
        <time>2013-03-07T13:42:33Z</time>
      </trkpt>
      <trkpt lat="43.98933" lon="5.1308">
        <ele>327.1</ele>
        <time>2013-03-07T13:42:34Z</time>
      </trkpt>
      <trkpt lat="43.98935" lon="5.13079">
        <ele>327.7</ele>
        <time>2013-03-07T13:42:38Z</time>
      </trkpt>
      <trkpt lat="43.98938" lon="5.13078">
        <ele>328.3</ele>
        <time>2013-03-07T13:42:39Z</time>
      </trkpt>
      <trkpt lat="43.98934" lon="5.13077">
        <ele>328.6</ele>
        <time>2013-03-07T13:42:46Z</time>
      </trkpt>
      <trkpt lat="43.98933" lon="5.13077">
        <ele>328.6</ele>
        <time>2013-03-07T13:42:47Z</time>
      </trkpt>
      <trkpt lat="43.98937" lon="5.13075">
        <ele>329.2</ele>
        <time>2013-03-07T13:43:01Z</time>
      </trkpt>
      <trkpt lat="43.98938" lon="5.13074">
        <ele>328.2</ele>
        <time>2013-03-07T13:43:02Z</time>
      </trkpt>
      <trkpt lat="43.98942" lon="5.13074">
        <ele>330.8</ele>
        <time>2013-03-07T13:43:08Z</time>
      </trkpt>
      <trkpt lat="43.98943" lon="5.13076">
        <ele>330</ele>
        <time>2013-03-07T13:43:09Z</time>
      </trkpt>
      <trkpt lat="43.98941" lon="5.13078">
        <ele>330.3</ele>
        <time>2013-03-07T13:43:31Z</time>
      </trkpt>
      <trkpt lat="43.98937" lon="5.1308">
        <ele>331.2</ele>
        <time>2013-03-07T13:43:32Z</time>
      </trkpt>
      <trkpt lat="43.98934" lon="5.13081">
        <ele>330.7</ele>
        <time>2013-03-07T13:43:33Z</time>
      </trkpt>
      <trkpt lat="43.98931" lon="5.13081">
        <ele>331.3</ele>
        <time>2013-03-07T13:43:34Z</time>
      </trkpt>
      <trkpt lat="43.98929" lon="5.13083">
        <ele>332</ele>
        <time>2013-03-07T13:43:36Z</time>
      </trkpt>
      <trkpt lat="43.98924" lon="5.13084">
        <ele>332.2</ele>
        <time>2013-03-07T13:43:37Z</time>
      </trkpt>
      <trkpt lat="43.98921" lon="5.13084">
        <ele>332.7</ele>
        <time>2013-03-07T13:43:38Z</time>
      </trkpt>
      <trkpt lat="43.98919" lon="5.13083">
        <ele>332.4</ele>
        <time>2013-03-07T13:43:39Z</time>
      </trkpt>
      <trkpt lat="43.98916" lon="5.13085">
        <ele>334.2</ele>
        <time>2013-03-07T13:43:41Z</time>
      </trkpt>
      <trkpt lat="43.98913" lon="5.13084">
        <ele>334.8</ele>
        <time>2013-03-07T13:43:42Z</time>
      </trkpt>
      <trkpt lat="43.98911" lon="5.13081">
        <ele>334.8</ele>
        <time>2013-03-07T13:43:44Z</time>
      </trkpt>
      <trkpt lat="43.98908" lon="5.13086">
        <ele>334.9</ele>
        <time>2013-03-07T13:43:45Z</time>
      </trkpt>
      <trkpt lat="43.98898" lon="5.13088">
        <ele>334.9</ele>
        <time>2013-03-07T13:43:46Z</time>
      </trkpt>
      <trkpt lat="43.98897" lon="5.13084">
        <ele>334.7</ele>
        <time>2013-03-07T13:43:47Z</time>
      </trkpt>
      <trkpt lat="43.98883" lon="5.13079">
        <ele>332.1</ele>
        <time>2013-03-07T13:43:48Z</time>
      </trkpt>
      <trkpt lat="43.98885" lon="5.13074">
        <ele>332.7</ele>
        <time>2013-03-07T13:43:49Z</time>
      </trkpt>
      <trkpt lat="43.98883" lon="5.13069">
        <ele>335.6</ele>
        <time>2013-03-07T13:43:50Z</time>
      </trkpt>
      <trkpt lat="43.98886" lon="5.13065">
        <ele>336.5</ele>
        <time>2013-03-07T13:43:52Z</time>
      </trkpt>
      <trkpt lat="43.98886" lon="5.13064">
        <ele>337.5</ele>
        <time>2013-03-07T13:43:53Z</time>
      </trkpt>
      <trkpt lat="43.9889" lon="5.13062">
        <ele>337</ele>
        <time>2013-03-07T13:43:57Z</time>
      </trkpt>
      <trkpt lat="43.98892" lon="5.13062">
        <ele>335.3</ele>
        <time>2013-03-07T13:43:58Z</time>
      </trkpt>
      <trkpt lat="43.98895" lon="5.13061">
        <ele>336</ele>
        <time>2013-03-07T13:43:59Z</time>
      </trkpt>
      <trkpt lat="43.98897" lon="5.13061">
        <ele>335.9</ele>
        <time>2013-03-07T13:44:00Z</time>
      </trkpt>
      <trkpt lat="43.98901" lon="5.13063">
        <ele>335.6</ele>
        <time>2013-03-07T13:44:05Z</time>
      </trkpt>
      <trkpt lat="43.98906" lon="5.1307">
        <ele>333.9</ele>
        <time>2013-03-07T13:44:06Z</time>
      </trkpt>
      <trkpt lat="43.98909" lon="5.13074">
        <ele>334.5</ele>
        <time>2013-03-07T13:44:07Z</time>
      </trkpt>
      <trkpt lat="43.98911" lon="5.13083">
        <ele>336.3</ele>
        <time>2013-03-07T13:44:08Z</time>
      </trkpt>
      <trkpt lat="43.98906" lon="5.13085">
        <ele>338</ele>
        <time>2013-03-07T13:44:09Z</time>
      </trkpt>
      <trkpt lat="43.98903" lon="5.13084">
        <ele>338.2</ele>
        <time>2013-03-07T13:44:10Z</time>
      </trkpt>
      <trkpt lat="43.98901" lon="5.13088">
        <ele>338.6</ele>
        <time>2013-03-07T13:44:11Z</time>
      </trkpt>
      <trkpt lat="43.98898" lon="5.13088">
        <ele>339.6</ele>
        <time>2013-03-07T13:44:12Z</time>
      </trkpt>
      <trkpt lat="43.98896" lon="5.13074">
        <ele>344.5</ele>
        <time>2013-03-07T13:44:13Z</time>
      </trkpt>
      <trkpt lat="43.98896" lon="5.13068">
        <ele>343.1</ele>
        <time>2013-03-07T13:44:15Z</time>
      </trkpt>
      <trkpt lat="43.98897" lon="5.13067">
        <ele>342</ele>
        <time>2013-03-07T13:44:16Z</time>
      </trkpt>
      <trkpt lat="43.98899" lon="5.13065">
        <ele>341.6</ele>
        <time>2013-03-07T13:44:17Z</time>
      </trkpt>
      <trkpt lat="43.98901" lon="5.13063">
        <ele>341.6</ele>
        <time>2013-03-07T13:44:18Z</time>
      </trkpt>
      <trkpt lat="43.98904" lon="5.13059">
        <ele>341.1</ele>
        <time>2013-03-07T13:44:21Z</time>
      </trkpt>
      <trkpt lat="43.98906" lon="5.13058">
        <ele>341.5</ele>
        <time>2013-03-07T13:44:22Z</time>
      </trkpt>
      <trkpt lat="43.9891" lon="5.13056">
        <ele>343.2</ele>
        <time>2013-03-07T13:44:25Z</time>
      </trkpt>
      <trkpt lat="43.9891" lon="5.13055">
        <ele>343.6</ele>
        <time>2013-03-07T13:44:26Z</time>
      </trkpt>
      <trkpt lat="43.98914" lon="5.13058">
        <ele>339.6</ele>
        <time>2013-03-07T13:44:27Z</time>
      </trkpt>
      <trkpt lat="43.98915" lon="5.13057">
        <ele>338.7</ele>
        <time>2013-03-07T13:44:28Z</time>
      </trkpt>
      <trkpt lat="43.98919" lon="5.13055">
        <ele>337.3</ele>
        <time>2013-03-07T13:44:30Z</time>
      </trkpt>
      <trkpt lat="43.98921" lon="5.13055">
        <ele>336.1</ele>
        <time>2013-03-07T13:44:31Z</time>
      </trkpt>
      <trkpt lat="43.98922" lon="5.13049">
        <ele>340.2</ele>
        <time>2013-03-07T13:44:38Z</time>
      </trkpt>
      <trkpt lat="43.98922" lon="5.13046">
        <ele>340.1</ele>
        <time>2013-03-07T13:44:39Z</time>
      </trkpt>
      <trkpt lat="43.98923" lon="5.13051">
        <ele>338.7</ele>
        <time>2013-03-07T13:44:44Z</time>
      </trkpt>
      <trkpt lat="43.98923" lon="5.13052">
        <ele>338.6</ele>
        <time>2013-03-07T13:44:45Z</time>
      </trkpt>
      <trkpt lat="43.98926" lon="5.13053">
        <ele>337.9</ele>
        <time>2013-03-07T13:44:49Z</time>
      </trkpt>
      <trkpt lat="43.98927" lon="5.13052">
        <ele>338.1</ele>
        <time>2013-03-07T13:44:50Z</time>
      </trkpt>
      <trkpt lat="43.98931" lon="5.13053">
        <ele>338.3</ele>
        <time>2013-03-07T13:44:59Z</time>
      </trkpt>
      <trkpt lat="43.98932" lon="5.13051">
        <ele>338.4</ele>
        <time>2013-03-07T13:45:00Z</time>
      </trkpt>
      <trkpt lat="43.98935" lon="5.13053">
        <ele>340.4</ele>
        <time>2013-03-07T13:45:02Z</time>
      </trkpt>
      <trkpt lat="43.98938" lon="5.13044">
        <ele>339.8</ele>
        <time>2013-03-07T13:45:03Z</time>
      </trkpt>
      <trkpt lat="43.9894" lon="5.13035">
        <ele>340</ele>
        <time>2013-03-07T13:45:04Z</time>
      </trkpt>
      <trkpt lat="43.98939" lon="5.13038">
        <ele>340.6</ele>
        <time>2013-03-07T13:45:07Z</time>
      </trkpt>
      <trkpt lat="43.98932" lon="5.13046">
        <ele>345.5</ele>
        <time>2013-03-07T13:45:08Z</time>
      </trkpt>
      <trkpt lat="43.98934" lon="5.13052">
        <ele>344.7</ele>
        <time>2013-03-07T13:45:21Z</time>
      </trkpt>
      <trkpt lat="43.98934" lon="5.13052">
        <ele>344.6</ele>
        <time>2013-03-07T13:45:22Z</time>
      </trkpt>
      <trkpt lat="43.98938" lon="5.13052">
        <ele>343.5</ele>
        <time>2013-03-07T13:45:47Z</time>
      </trkpt>
      <trkpt lat="43.98939" lon="5.13052">
        <ele>342.8</ele>
        <time>2013-03-07T13:45:48Z</time>
      </trkpt>
      <trkpt lat="43.98944" lon="5.13053">
        <ele>341.2</ele>
        <time>2013-03-07T13:45:57Z</time>
      </trkpt>
      <trkpt lat="43.98945" lon="5.13053">
        <ele>340.8</ele>
        <time>2013-03-07T13:45:58Z</time>
      </trkpt>
      <trkpt lat="43.98948" lon="5.1305">
        <ele>339.7</ele>
        <time>2013-03-07T13:46:06Z</time>
      </trkpt>
      <trkpt lat="43.9895" lon="5.13049">
        <ele>338.9</ele>
        <time>2013-03-07T13:46:07Z</time>
      </trkpt>
      <trkpt lat="43.98954" lon="5.13047">
        <ele>337.5</ele>
        <time>2013-03-07T13:46:10Z</time>
      </trkpt>
      <trkpt lat="43.98955" lon="5.13047">
        <ele>337.6</ele>
        <time>2013-03-07T13:46:11Z</time>
      </trkpt>
      <trkpt lat="43.98959" lon="5.13045">
        <ele>337</ele>
        <time>2013-03-07T13:46:17Z</time>
      </trkpt>
      <trkpt lat="43.9896" lon="5.13045">
        <ele>337</ele>
        <time>2013-03-07T13:46:18Z</time>
      </trkpt>
      <trkpt lat="43.98959" lon="5.13045">
        <ele>337.7</ele>
        <time>2013-03-07T13:46:26Z</time>
      </trkpt>
      <trkpt lat="43.98954" lon="5.13053">
        <ele>337.9</ele>
        <time>2013-03-07T13:46:27Z</time>
      </trkpt>
      <trkpt lat="43.98951" lon="5.1306">
        <ele>338</ele>
        <time>2013-03-07T13:46:28Z</time>
      </trkpt>
      <trkpt lat="43.98946" lon="5.13063">
        <ele>338.4</ele>
        <time>2013-03-07T13:46:29Z</time>
      </trkpt>
      <trkpt lat="43.98941" lon="5.13071">
        <ele>339</ele>
        <time>2013-03-07T13:46:30Z</time>
      </trkpt>
      <trkpt lat="43.98941" lon="5.13068">
        <ele>335</ele>
        <time>2013-03-07T13:46:33Z</time>
      </trkpt>
      <trkpt lat="43.98943" lon="5.13065">
        <ele>334.7</ele>
        <time>2013-03-07T13:46:34Z</time>
      </trkpt>
      <trkpt lat="43.98945" lon="5.13061">
        <ele>333.8</ele>
        <time>2013-03-07T13:46:35Z</time>
      </trkpt>
      <trkpt lat="43.98947" lon="5.13056">
        <ele>333.2</ele>
        <time>2013-03-07T13:46:36Z</time>
      </trkpt>
      <trkpt lat="43.98949" lon="5.13053">
        <ele>333.8</ele>
        <time>2013-03-07T13:46:37Z</time>
      </trkpt>
      <trkpt lat="43.98949" lon="5.13049">
        <ele>333.3</ele>
        <time>2013-03-07T13:46:38Z</time>
      </trkpt>
      <trkpt lat="43.98952" lon="5.13045">
        <ele>335.2</ele>
        <time>2013-03-07T13:46:44Z</time>
      </trkpt>
      <trkpt lat="43.98952" lon="5.13044">
        <ele>335.2</ele>
        <time>2013-03-07T13:46:45Z</time>
      </trkpt>
      <trkpt lat="43.98953" lon="5.13041">
        <ele>335.2</ele>
        <time>2013-03-07T13:46:47Z</time>
      </trkpt>
      <trkpt lat="43.98954" lon="5.13037">
        <ele>337.4</ele>
        <time>2013-03-07T13:46:48Z</time>
      </trkpt>
      <trkpt lat="43.98956" lon="5.13032">
        <ele>337.8</ele>
        <time>2013-03-07T13:46:50Z</time>
      </trkpt>
      <trkpt lat="43.98957" lon="5.13031">
        <ele>338</ele>
        <time>2013-03-07T13:46:51Z</time>
      </trkpt>
      <trkpt lat="43.98956" lon="5.13026">
        <ele>338.7</ele>
        <time>2013-03-07T13:46:57Z</time>
      </trkpt>
      <trkpt lat="43.98956" lon="5.13024">
        <ele>338.4</ele>
        <time>2013-03-07T13:46:58Z</time>
      </trkpt>
      <trkpt lat="43.98958" lon="5.13019">
        <ele>338.5</ele>
        <time>2013-03-07T13:47:01Z</time>
      </trkpt>
      <trkpt lat="43.98958" lon="5.13017">
        <ele>338.1</ele>
        <time>2013-03-07T13:47:02Z</time>
      </trkpt>
      <trkpt lat="43.98958" lon="5.13011">
        <ele>341.5</ele>
        <time>2013-03-07T13:47:08Z</time>
      </trkpt>
      <trkpt lat="43.98958" lon="5.1301">
        <ele>341.7</ele>
        <time>2013-03-07T13:47:09Z</time>
      </trkpt>
      <trkpt lat="43.98955" lon="5.13011">
        <ele>342.4</ele>
        <time>2013-03-07T13:47:19Z</time>
      </trkpt>
      <trkpt lat="43.98953" lon="5.13014">
        <ele>343.2</ele>
        <time>2013-03-07T13:47:20Z</time>
      </trkpt>
      <trkpt lat="43.98948" lon="5.13015">
        <ele>343.9</ele>
        <time>2013-03-07T13:47:21Z</time>
      </trkpt>
      <trkpt lat="43.98951" lon="5.13017">
        <ele>345.4</ele>
        <time>2013-03-07T13:47:26Z</time>
      </trkpt>
      <trkpt lat="43.98952" lon="5.13017">
        <ele>345.5</ele>
        <time>2013-03-07T13:47:27Z</time>
      </trkpt>
      <trkpt lat="43.98956" lon="5.13014">
        <ele>345</ele>
        <time>2013-03-07T13:47:30Z</time>
      </trkpt>
      <trkpt lat="43.98958" lon="5.13013">
        <ele>344.2</ele>
        <time>2013-03-07T13:47:31Z</time>
      </trkpt>
      <trkpt lat="43.98961" lon="5.13011">
        <ele>343.8</ele>
        <time>2013-03-07T13:47:52Z</time>
      </trkpt>
      <trkpt lat="43.98961" lon="5.13008">
        <ele>343.3</ele>
        <time>2013-03-07T13:47:53Z</time>
      </trkpt>
      <trkpt lat="43.98961" lon="5.13004">
        <ele>343.4</ele>
        <time>2013-03-07T13:47:59Z</time>
      </trkpt>
      <trkpt lat="43.98959" lon="5.13001">
        <ele>343.2</ele>
        <time>2013-03-07T13:48:00Z</time>
      </trkpt>
      <trkpt lat="43.9896" lon="5.12997">
        <ele>342.4</ele>
        <time>2013-03-07T13:48:02Z</time>
      </trkpt>
      <trkpt lat="43.98959" lon="5.12995">
        <ele>342.7</ele>
        <time>2013-03-07T13:48:03Z</time>
      </trkpt>
      <trkpt lat="43.98958" lon="5.1299">
        <ele>343.3</ele>
        <time>2013-03-07T13:48:05Z</time>
      </trkpt>
      <trkpt lat="43.98958" lon="5.12985">
        <ele>343</ele>
        <time>2013-03-07T13:48:06Z</time>
      </trkpt>
      <trkpt lat="43.98957" lon="5.12981">
        <ele>343</ele>
        <time>2013-03-07T13:48:07Z</time>
      </trkpt>
      <trkpt lat="43.98956" lon="5.12978">
        <ele>342.3</ele>
        <time>2013-03-07T13:48:08Z</time>
      </trkpt>
      <trkpt lat="43.98955" lon="5.12976">
        <ele>342.2</ele>
        <time>2013-03-07T13:48:09Z</time>
      </trkpt>
      <trkpt lat="43.98953" lon="5.12973">
        <ele>342.7</ele>
        <time>2013-03-07T13:48:10Z</time>
      </trkpt>
      <trkpt lat="43.98952" lon="5.12971">
        <ele>343.1</ele>
        <time>2013-03-07T13:48:11Z</time>
      </trkpt>
      <trkpt lat="43.98951" lon="5.12967">
        <ele>343.1</ele>
        <time>2013-03-07T13:48:12Z</time>
      </trkpt>
      <trkpt lat="43.9895" lon="5.12964">
        <ele>343.4</ele>
        <time>2013-03-07T13:48:13Z</time>
      </trkpt>
      <trkpt lat="43.9895" lon="5.12961">
        <ele>343.5</ele>
        <time>2013-03-07T13:48:14Z</time>
      </trkpt>
      <trkpt lat="43.98948" lon="5.12959">
        <ele>343.2</ele>
        <time>2013-03-07T13:48:15Z</time>
      </trkpt>
      <trkpt lat="43.98948" lon="5.12954">
        <ele>343</ele>
        <time>2013-03-07T13:48:16Z</time>
      </trkpt>
      <trkpt lat="43.98947" lon="5.12952">
        <ele>343.3</ele>
        <time>2013-03-07T13:48:17Z</time>
      </trkpt>
      <trkpt lat="43.98946" lon="5.12948">
        <ele>343.4</ele>
        <time>2013-03-07T13:48:18Z</time>
      </trkpt>
      <trkpt lat="43.98947" lon="5.12946">
        <ele>342.6</ele>
        <time>2013-03-07T13:49:16Z</time>
      </trkpt>
      <trkpt lat="43.98949" lon="5.12942">
        <ele>341.5</ele>
        <time>2013-03-07T13:49:17Z</time>
      </trkpt>
      <trkpt lat="43.98951" lon="5.12945">
        <ele>341.2</ele>
        <time>2013-03-07T13:49:22Z</time>
      </trkpt>
      <trkpt lat="43.98952" lon="5.12947">
        <ele>340.4</ele>
        <time>2013-03-07T13:49:23Z</time>
      </trkpt>
      <trkpt lat="43.98953" lon="5.12951">
        <ele>340.1</ele>
        <time>2013-03-07T13:49:24Z</time>
      </trkpt>
      <trkpt lat="43.98953" lon="5.12955">
        <ele>339.2</ele>
        <time>2013-03-07T13:49:25Z</time>
      </trkpt>
      <trkpt lat="43.98954" lon="5.12961">
        <ele>339</ele>
        <time>2013-03-07T13:49:27Z</time>
      </trkpt>
      <trkpt lat="43.98954" lon="5.12963">
        <ele>339.3</ele>
        <time>2013-03-07T13:49:28Z</time>
      </trkpt>
      <trkpt lat="43.98955" lon="5.12968">
        <ele>339.7</ele>
        <time>2013-03-07T13:49:30Z</time>
      </trkpt>
      <trkpt lat="43.98955" lon="5.1297">
        <ele>339.3</ele>
        <time>2013-03-07T13:49:31Z</time>
      </trkpt>
      <trkpt lat="43.98957" lon="5.12972">
        <ele>339.7</ele>
        <time>2013-03-07T13:49:32Z</time>
      </trkpt>
      <trkpt lat="43.98958" lon="5.12976">
        <ele>339.3</ele>
        <time>2013-03-07T13:49:33Z</time>
      </trkpt>
      <trkpt lat="43.98958" lon="5.12979">
        <ele>339.3</ele>
        <time>2013-03-07T13:49:34Z</time>
      </trkpt>
      <trkpt lat="43.98959" lon="5.12983">
        <ele>339.6</ele>
        <time>2013-03-07T13:49:35Z</time>
      </trkpt>
      <trkpt lat="43.98959" lon="5.12987">
        <ele>339.7</ele>
        <time>2013-03-07T13:49:36Z</time>
      </trkpt>
      <trkpt lat="43.98959" lon="5.1299">
        <ele>339.4</ele>
        <time>2013-03-07T13:49:37Z</time>
      </trkpt>
      <trkpt lat="43.98959" lon="5.12993">
        <ele>339.2</ele>
        <time>2013-03-07T13:49:38Z</time>
      </trkpt>
      <trkpt lat="43.9896" lon="5.12997">
        <ele>338.3</ele>
        <time>2013-03-07T13:49:39Z</time>
      </trkpt>
      <trkpt lat="43.98961" lon="5.13001">
        <ele>338.3</ele>
        <time>2013-03-07T13:49:40Z</time>
      </trkpt>
      <trkpt lat="43.98962" lon="5.13004">
        <ele>338.4</ele>
        <time>2013-03-07T13:49:41Z</time>
      </trkpt>
      <trkpt lat="43.98963" lon="5.13006">
        <ele>338.4</ele>
        <time>2013-03-07T13:49:42Z</time>
      </trkpt>
      <trkpt lat="43.98964" lon="5.13009">
        <ele>337.7</ele>
        <time>2013-03-07T13:49:43Z</time>
      </trkpt>
      <trkpt lat="43.98966" lon="5.13012">
        <ele>337.8</ele>
        <time>2013-03-07T13:49:44Z</time>
      </trkpt>
      <trkpt lat="43.98964" lon="5.13016">
        <ele>337.3</ele>
        <time>2013-03-07T13:49:45Z</time>
      </trkpt>
      <trkpt lat="43.98965" lon="5.13019">
        <ele>337</ele>
        <time>2013-03-07T13:49:46Z</time>
      </trkpt>
      <trkpt lat="43.98967" lon="5.13021">
        <ele>337.5</ele>
        <time>2013-03-07T13:49:47Z</time>
      </trkpt>
      <trkpt lat="43.98969" lon="5.13026">
        <ele>337</ele>
        <time>2013-03-07T13:49:49Z</time>
      </trkpt>
      <trkpt lat="43.98967" lon="5.13028">
        <ele>337</ele>
        <time>2013-03-07T13:49:50Z</time>
      </trkpt>
      <trkpt lat="43.98965" lon="5.13031">
        <ele>336.4</ele>
        <time>2013-03-07T13:49:52Z</time>
      </trkpt>
      <trkpt lat="43.98965" lon="5.13033">
        <ele>336</ele>
        <time>2013-03-07T13:49:53Z</time>
      </trkpt>
      <trkpt lat="43.98965" lon="5.13039">
        <ele>335</ele>
        <time>2013-03-07T13:49:56Z</time>
      </trkpt>
      <trkpt lat="43.98969" lon="5.1304">
        <ele>334.4</ele>
        <time>2013-03-07T13:49:57Z</time>
      </trkpt>
      <trkpt lat="43.98972" lon="5.13041">
        <ele>333.2</ele>
        <time>2013-03-07T13:49:59Z</time>
      </trkpt>
      <trkpt lat="43.98974" lon="5.13042">
        <ele>333.2</ele>
        <time>2013-03-07T13:50:00Z</time>
      </trkpt>
      <trkpt lat="43.98978" lon="5.13043">
        <ele>332.2</ele>
        <time>2013-03-07T13:50:02Z</time>
      </trkpt>
      <trkpt lat="43.9898" lon="5.13044">
        <ele>332.8</ele>
        <time>2013-03-07T13:50:03Z</time>
      </trkpt>
      <trkpt lat="43.98983" lon="5.13044">
        <ele>332</ele>
        <time>2013-03-07T13:50:04Z</time>
      </trkpt>
      <trkpt lat="43.98985" lon="5.13044">
        <ele>331.6</ele>
        <time>2013-03-07T13:50:05Z</time>
      </trkpt>
      <trkpt lat="43.98988" lon="5.13045">
        <ele>331</ele>
        <time>2013-03-07T13:50:06Z</time>
      </trkpt>
      <trkpt lat="43.98991" lon="5.13046">
        <ele>330.2</ele>
        <time>2013-03-07T13:50:07Z</time>
      </trkpt>
      <trkpt lat="43.98993" lon="5.13046">
        <ele>329.9</ele>
        <time>2013-03-07T13:50:08Z</time>
      </trkpt>
      <trkpt lat="43.98996" lon="5.13046">
        <ele>329.3</ele>
        <time>2013-03-07T13:50:09Z</time>
      </trkpt>
      <trkpt lat="43.98998" lon="5.13046">
        <ele>329</ele>
        <time>2013-03-07T13:50:10Z</time>
      </trkpt>
      <trkpt lat="43.99001" lon="5.13047">
        <ele>328.8</ele>
        <time>2013-03-07T13:50:11Z</time>
      </trkpt>
      <trkpt lat="43.99003" lon="5.13048">
        <ele>328.9</ele>
        <time>2013-03-07T13:50:12Z</time>
      </trkpt>
      <trkpt lat="43.99005" lon="5.13052">
        <ele>328.3</ele>
        <time>2013-03-07T13:50:13Z</time>
      </trkpt>
      <trkpt lat="43.99007" lon="5.13054">
        <ele>327.5</ele>
        <time>2013-03-07T13:50:14Z</time>
      </trkpt>
      <trkpt lat="43.99009" lon="5.13058">
        <ele>326.7</ele>
        <time>2013-03-07T13:50:15Z</time>
      </trkpt>
      <trkpt lat="43.9901" lon="5.13061">
        <ele>325.9</ele>
        <time>2013-03-07T13:50:16Z</time>
      </trkpt>
      <trkpt lat="43.99012" lon="5.13063">
        <ele>325.4</ele>
        <time>2013-03-07T13:50:17Z</time>
      </trkpt>
      <trkpt lat="43.99013" lon="5.13066">
        <ele>324.9</ele>
        <time>2013-03-07T13:50:18Z</time>
      </trkpt>
      <trkpt lat="43.99015" lon="5.13068">
        <ele>325</ele>
        <time>2013-03-07T13:50:19Z</time>
      </trkpt>
      <trkpt lat="43.99018" lon="5.13069">
        <ele>325.1</ele>
        <time>2013-03-07T13:50:20Z</time>
      </trkpt>
      <trkpt lat="43.99022" lon="5.13069">
        <ele>325.1</ele>
        <time>2013-03-07T13:50:21Z</time>
      </trkpt>
      <trkpt lat="43.99026" lon="5.13069">
        <ele>324.5</ele>
        <time>2013-03-07T13:50:22Z</time>
      </trkpt>
      <trkpt lat="43.99029" lon="5.13069">
        <ele>323.9</ele>
        <time>2013-03-07T13:50:23Z</time>
      </trkpt>
      <trkpt lat="43.9903" lon="5.13073">
        <ele>323.5</ele>
        <time>2013-03-07T13:50:24Z</time>
      </trkpt>
      <trkpt lat="43.99033" lon="5.13076">
        <ele>323.3</ele>
        <time>2013-03-07T13:50:25Z</time>
      </trkpt>
      <trkpt lat="43.99035" lon="5.13079">
        <ele>323</ele>
        <time>2013-03-07T13:50:26Z</time>
      </trkpt>
      <trkpt lat="43.99039" lon="5.1308">
        <ele>322.5</ele>
        <time>2013-03-07T13:50:27Z</time>
      </trkpt>
      <trkpt lat="43.99042" lon="5.13082">
        <ele>322.5</ele>
        <time>2013-03-07T13:50:28Z</time>
      </trkpt>
      <trkpt lat="43.99045" lon="5.13083">
        <ele>322.4</ele>
        <time>2013-03-07T13:50:29Z</time>
      </trkpt>
      <trkpt lat="43.99048" lon="5.13085">
        <ele>322</ele>
        <time>2013-03-07T13:50:30Z</time>
      </trkpt>
      <trkpt lat="43.99051" lon="5.13086">
        <ele>321.6</ele>
        <time>2013-03-07T13:50:31Z</time>
      </trkpt>
      <trkpt lat="43.99055" lon="5.13088">
        <ele>320.7</ele>
        <time>2013-03-07T13:50:32Z</time>
      </trkpt>
      <trkpt lat="43.99059" lon="5.13089">
        <ele>320.8</ele>
        <time>2013-03-07T13:50:33Z</time>
      </trkpt>
      <trkpt lat="43.99064" lon="5.13089">
        <ele>319.5</ele>
        <time>2013-03-07T13:50:34Z</time>
      </trkpt>
      <trkpt lat="43.99068" lon="5.13089">
        <ele>320</ele>
        <time>2013-03-07T13:50:35Z</time>
      </trkpt>
      <trkpt lat="43.99072" lon="5.1309">
        <ele>318.8</ele>
        <time>2013-03-07T13:50:36Z</time>
      </trkpt>
      <trkpt lat="43.99077" lon="5.1309">
        <ele>318.2</ele>
        <time>2013-03-07T13:50:37Z</time>
      </trkpt>
      <trkpt lat="43.99082" lon="5.1309">
        <ele>317</ele>
        <time>2013-03-07T13:50:38Z</time>
      </trkpt>
      <trkpt lat="43.99088" lon="5.1309">
        <ele>316.4</ele>
        <time>2013-03-07T13:50:39Z</time>
      </trkpt>
      <trkpt lat="43.99093" lon="5.1309">
        <ele>316.2</ele>
        <time>2013-03-07T13:50:40Z</time>
      </trkpt>
      <trkpt lat="43.99098" lon="5.13091">
        <ele>315.3</ele>
        <time>2013-03-07T13:50:41Z</time>
      </trkpt>
      <trkpt lat="43.99102" lon="5.13093">
        <ele>314.9</ele>
        <time>2013-03-07T13:50:42Z</time>
      </trkpt>
      <trkpt lat="43.99105" lon="5.13094">
        <ele>315.1</ele>
        <time>2013-03-07T13:50:43Z</time>
      </trkpt>
      <trkpt lat="43.99109" lon="5.13095">
        <ele>314.7</ele>
        <time>2013-03-07T13:50:44Z</time>
      </trkpt>
      <trkpt lat="43.9911" lon="5.13099">
        <ele>314.2</ele>
        <time>2013-03-07T13:50:45Z</time>
      </trkpt>
      <trkpt lat="43.99112" lon="5.13102">
        <ele>314.5</ele>
        <time>2013-03-07T13:50:46Z</time>
      </trkpt>
      <trkpt lat="43.99115" lon="5.13104">
        <ele>314.7</ele>
        <time>2013-03-07T13:50:47Z</time>
      </trkpt>
      <trkpt lat="43.99118" lon="5.13105">
        <ele>314.5</ele>
        <time>2013-03-07T13:50:48Z</time>
      </trkpt>
      <trkpt lat="43.99121" lon="5.13106">
        <ele>314.9</ele>
        <time>2013-03-07T13:50:49Z</time>
      </trkpt>
      <trkpt lat="43.99125" lon="5.13106">
        <ele>314.6</ele>
        <time>2013-03-07T13:50:50Z</time>
      </trkpt>
      <trkpt lat="43.99129" lon="5.13105">
        <ele>314.6</ele>
        <time>2013-03-07T13:50:51Z</time>
      </trkpt>
      <trkpt lat="43.99131" lon="5.13106">
        <ele>315.2</ele>
        <time>2013-03-07T13:50:52Z</time>
      </trkpt>
      <trkpt lat="43.99135" lon="5.13106">
        <ele>316.3</ele>
        <time>2013-03-07T13:50:53Z</time>
      </trkpt>
      <trkpt lat="43.99138" lon="5.13108">
        <ele>311.9</ele>
        <time>2013-03-07T13:50:54Z</time>
      </trkpt>
      <trkpt lat="43.99141" lon="5.13108">
        <ele>311.2</ele>
        <time>2013-03-07T13:50:55Z</time>
      </trkpt>
      <trkpt lat="43.99144" lon="5.13109">
        <ele>310.1</ele>
        <time>2013-03-07T13:50:56Z</time>
      </trkpt>
      <trkpt lat="43.99148" lon="5.13111">
        <ele>309.2</ele>
        <time>2013-03-07T13:50:57Z</time>
      </trkpt>
      <trkpt lat="43.99142" lon="5.13108">
        <ele>311.3</ele>
        <time>2013-03-07T13:50:58Z</time>
      </trkpt>
      <trkpt lat="43.99143" lon="5.13108">
        <ele>310.8</ele>
        <time>2013-03-07T13:51:03Z</time>
      </trkpt>
    </trkseg>
  </trk>
  <trk>
    <name><![CDATA[07/03/2013 14:51]]></name>
    <trkseg>
      <trkpt lat="43.99143" lon="5.13108">
        <ele>310.4</ele>
        <time>2013-03-07T13:51:33Z</time>
      </trkpt>
      <trkpt lat="43.99143" lon="5.13109">
        <ele>310.4</ele>
        <time>2013-03-07T13:51:37Z</time>
      </trkpt>
      <trkpt lat="43.99143" lon="5.13109">
        <ele>310.4</ele>
        <time>2013-03-07T13:52:20Z</time>
      </trkpt>
      <trkpt lat="43.99147" lon="5.13111">
        <ele>308.6</ele>
        <time>2013-03-07T13:52:36Z</time>
      </trkpt>
      <trkpt lat="43.9915" lon="5.13115">
        <ele>309.9</ele>
        <time>2013-03-07T13:52:37Z</time>
      </trkpt>
      <trkpt lat="43.99152" lon="5.13115">
        <ele>309.2</ele>
        <time>2013-03-07T13:52:38Z</time>
      </trkpt>
      <trkpt lat="43.99155" lon="5.13114">
        <ele>309.5</ele>
        <time>2013-03-07T13:52:39Z</time>
      </trkpt>
      <trkpt lat="43.99157" lon="5.13115">
        <ele>309.3</ele>
        <time>2013-03-07T13:52:40Z</time>
      </trkpt>
      <trkpt lat="43.9916" lon="5.13116">
        <ele>310.5</ele>
        <time>2013-03-07T13:52:41Z</time>
      </trkpt>
      <trkpt lat="43.99163" lon="5.13118">
        <ele>310.5</ele>
        <time>2013-03-07T13:52:42Z</time>
      </trkpt>
      <trkpt lat="43.99165" lon="5.13117">
        <ele>309.9</ele>
        <time>2013-03-07T13:52:43Z</time>
      </trkpt>
      <trkpt lat="43.99168" lon="5.13116">
        <ele>309.4</ele>
        <time>2013-03-07T13:52:44Z</time>
      </trkpt>
      <trkpt lat="43.9917" lon="5.13118">
        <ele>309</ele>
        <time>2013-03-07T13:52:45Z</time>
      </trkpt>
      <trkpt lat="43.99173" lon="5.1312">
        <ele>309.4</ele>
        <time>2013-03-07T13:52:46Z</time>
      </trkpt>
      <trkpt lat="43.99172" lon="5.13128">
        <ele>307.7</ele>
        <time>2013-03-07T13:52:47Z</time>
      </trkpt>
      <trkpt lat="43.99173" lon="5.13132">
        <ele>308.4</ele>
        <time>2013-03-07T13:52:48Z</time>
      </trkpt>
      <trkpt lat="43.99175" lon="5.13135">
        <ele>308.8</ele>
        <time>2013-03-07T13:52:49Z</time>
      </trkpt>
      <trkpt lat="43.99177" lon="5.13138">
        <ele>308.9</ele>
        <time>2013-03-07T13:52:50Z</time>
      </trkpt>
      <trkpt lat="43.9918" lon="5.13139">
        <ele>308.8</ele>
        <time>2013-03-07T13:52:51Z</time>
      </trkpt>
      <trkpt lat="43.99182" lon="5.13141">
        <ele>309</ele>
        <time>2013-03-07T13:52:52Z</time>
      </trkpt>
      <trkpt lat="43.99185" lon="5.13141">
        <ele>309.2</ele>
        <time>2013-03-07T13:52:53Z</time>
      </trkpt>
      <trkpt lat="43.99189" lon="5.13142">
        <ele>309.2</ele>
        <time>2013-03-07T13:52:54Z</time>
      </trkpt>
      <trkpt lat="43.99192" lon="5.13144">
        <ele>310</ele>
        <time>2013-03-07T13:52:55Z</time>
      </trkpt>
      <trkpt lat="43.99196" lon="5.13145">
        <ele>310.5</ele>
        <time>2013-03-07T13:52:56Z</time>
      </trkpt>
      <trkpt lat="43.99199" lon="5.13145">
        <ele>311.1</ele>
        <time>2013-03-07T13:52:57Z</time>
      </trkpt>
      <trkpt lat="43.99202" lon="5.13146">
        <ele>311.6</ele>
        <time>2013-03-07T13:52:58Z</time>
      </trkpt>
      <trkpt lat="43.99206" lon="5.13146">
        <ele>312.4</ele>
        <time>2013-03-07T13:52:59Z</time>
      </trkpt>
      <trkpt lat="43.99208" lon="5.13147">
        <ele>313.4</ele>
        <time>2013-03-07T13:53:00Z</time>
      </trkpt>
      <trkpt lat="43.99211" lon="5.13148">
        <ele>314.5</ele>
        <time>2013-03-07T13:53:01Z</time>
      </trkpt>
      <trkpt lat="43.99215" lon="5.1315">
        <ele>314.7</ele>
        <time>2013-03-07T13:53:03Z</time>
      </trkpt>
      <trkpt lat="43.99217" lon="5.1315">
        <ele>314.7</ele>
        <time>2013-03-07T13:53:04Z</time>
      </trkpt>
      <trkpt lat="43.99221" lon="5.13153">
        <ele>315.8</ele>
        <time>2013-03-07T13:53:06Z</time>
      </trkpt>
      <trkpt lat="43.99223" lon="5.13153">
        <ele>316.5</ele>
        <time>2013-03-07T13:53:07Z</time>
      </trkpt>
      <trkpt lat="43.99227" lon="5.13154">
        <ele>317</ele>
        <time>2013-03-07T13:53:09Z</time>
      </trkpt>
      <trkpt lat="43.99228" lon="5.13155">
        <ele>318.4</ele>
        <time>2013-03-07T13:53:10Z</time>
      </trkpt>
      <trkpt lat="43.99231" lon="5.13158">
        <ele>319.5</ele>
        <time>2013-03-07T13:53:20Z</time>
      </trkpt>
      <trkpt lat="43.99232" lon="5.13159">
        <ele>319.4</ele>
        <time>2013-03-07T13:53:21Z</time>
      </trkpt>
      <trkpt lat="43.99235" lon="5.13161">
        <ele>320.3</ele>
        <time>2013-03-07T13:53:25Z</time>
      </trkpt>
      <trkpt lat="43.99236" lon="5.13162">
        <ele>320</ele>
        <time>2013-03-07T13:53:26Z</time>
      </trkpt>
      <trkpt lat="43.99238" lon="5.13167">
        <ele>320.5</ele>
        <time>2013-03-07T13:53:35Z</time>
      </trkpt>
      <trkpt lat="43.99239" lon="5.13168">
        <ele>320.5</ele>
        <time>2013-03-07T13:53:36Z</time>
      </trkpt>
      <trkpt lat="43.99242" lon="5.13173">
        <ele>320.2</ele>
        <time>2013-03-07T13:53:38Z</time>
      </trkpt>
      <trkpt lat="43.99244" lon="5.13174">
        <ele>320</ele>
        <time>2013-03-07T13:53:39Z</time>
      </trkpt>
      <trkpt lat="43.99247" lon="5.13178">
        <ele>322.9</ele>
        <time>2013-03-07T13:53:42Z</time>
      </trkpt>
      <trkpt lat="43.99249" lon="5.13179">
        <ele>322.8</ele>
        <time>2013-03-07T13:53:43Z</time>
      </trkpt>
      <trkpt lat="43.99252" lon="5.13181">
        <ele>322.8</ele>
        <time>2013-03-07T13:53:45Z</time>
      </trkpt>
      <trkpt lat="43.99254" lon="5.13182">
        <ele>322.9</ele>
        <time>2013-03-07T13:53:46Z</time>
      </trkpt>
      <trkpt lat="43.99256" lon="5.13187">
        <ele>325</ele>
        <time>2013-03-07T13:53:49Z</time>
      </trkpt>
      <trkpt lat="43.99257" lon="5.13189">
        <ele>325.1</ele>
        <time>2013-03-07T13:53:50Z</time>
      </trkpt>
      <trkpt lat="43.9926" lon="5.13194">
        <ele>323.8</ele>
        <time>2013-03-07T13:53:52Z</time>
      </trkpt>
      <trkpt lat="43.99261" lon="5.13196">
        <ele>323.4</ele>
        <time>2013-03-07T13:53:53Z</time>
      </trkpt>
      <trkpt lat="43.99263" lon="5.132">
        <ele>325.2</ele>
        <time>2013-03-07T13:53:56Z</time>
      </trkpt>
      <trkpt lat="43.99264" lon="5.13202">
        <ele>325.8</ele>
        <time>2013-03-07T13:53:57Z</time>
      </trkpt>
      <trkpt lat="43.99267" lon="5.13206">
        <ele>328.2</ele>
        <time>2013-03-07T13:54:00Z</time>
      </trkpt>
      <trkpt lat="43.99269" lon="5.13207">
        <ele>327.9</ele>
        <time>2013-03-07T13:54:01Z</time>
      </trkpt>
      <trkpt lat="43.99272" lon="5.1321">
        <ele>328</ele>
        <time>2013-03-07T13:54:03Z</time>
      </trkpt>
      <trkpt lat="43.99274" lon="5.13211">
        <ele>327.9</ele>
        <time>2013-03-07T13:54:04Z</time>
      </trkpt>
      <trkpt lat="43.99277" lon="5.13214">
        <ele>327.8</ele>
        <time>2013-03-07T13:54:06Z</time>
      </trkpt>
      <trkpt lat="43.9928" lon="5.13216">
        <ele>326.4</ele>
        <time>2013-03-07T13:54:07Z</time>
      </trkpt>
      <trkpt lat="43.99284" lon="5.13219">
        <ele>324.6</ele>
        <time>2013-03-07T13:54:09Z</time>
      </trkpt>
      <trkpt lat="43.99286" lon="5.13221">
        <ele>324.1</ele>
        <time>2013-03-07T13:54:10Z</time>
      </trkpt>
      <trkpt lat="43.9929" lon="5.13222">
        <ele>325.6</ele>
        <time>2013-03-07T13:54:13Z</time>
      </trkpt>
      <trkpt lat="43.99292" lon="5.13223">
        <ele>325.7</ele>
        <time>2013-03-07T13:54:14Z</time>
      </trkpt>
      <trkpt lat="43.99295" lon="5.13225">
        <ele>328.6</ele>
        <time>2013-03-07T13:54:17Z</time>
      </trkpt>
      <trkpt lat="43.99296" lon="5.13225">
        <ele>329</ele>
        <time>2013-03-07T13:54:18Z</time>
      </trkpt>
      <trkpt lat="43.99298" lon="5.13227">
        <ele>333.8</ele>
        <time>2013-03-07T13:54:25Z</time>
      </trkpt>
      <trkpt lat="43.993" lon="5.13228">
        <ele>333</ele>
        <time>2013-03-07T13:54:26Z</time>
      </trkpt>
      <trkpt lat="43.99304" lon="5.1323">
        <ele>333.2</ele>
        <time>2013-03-07T13:54:30Z</time>
      </trkpt>
      <trkpt lat="43.99304" lon="5.1323">
        <ele>334.2</ele>
        <time>2013-03-07T13:54:31Z</time>
      </trkpt>
      <trkpt lat="43.99308" lon="5.13232">
        <ele>334.6</ele>
        <time>2013-03-07T13:54:35Z</time>
      </trkpt>
      <trkpt lat="43.99308" lon="5.13232">
        <ele>335.2</ele>
        <time>2013-03-07T13:54:36Z</time>
      </trkpt>
      <trkpt lat="43.99312" lon="5.13232">
        <ele>340.4</ele>
        <time>2013-03-07T13:54:42Z</time>
      </trkpt>
      <trkpt lat="43.99314" lon="5.13233">
        <ele>338.9</ele>
        <time>2013-03-07T13:54:43Z</time>
      </trkpt>
      <trkpt lat="43.99318" lon="5.13237">
        <ele>337.3</ele>
        <time>2013-03-07T13:54:46Z</time>
      </trkpt>
      <trkpt lat="43.99319" lon="5.13238">
        <ele>337.3</ele>
        <time>2013-03-07T13:54:47Z</time>
      </trkpt>
      <trkpt lat="43.99323" lon="5.13241">
        <ele>337.9</ele>
        <time>2013-03-07T13:54:56Z</time>
      </trkpt>
      <trkpt lat="43.99324" lon="5.13243">
        <ele>337.4</ele>
        <time>2013-03-07T13:54:57Z</time>
      </trkpt>
      <trkpt lat="43.99327" lon="5.13245">
        <ele>337.5</ele>
        <time>2013-03-07T13:54:59Z</time>
      </trkpt>
      <trkpt lat="43.99328" lon="5.13246">
        <ele>337.7</ele>
        <time>2013-03-07T13:55:00Z</time>
      </trkpt>
      <trkpt lat="43.99332" lon="5.13249">
        <ele>336.7</ele>
        <time>2013-03-07T13:55:02Z</time>
      </trkpt>
      <trkpt lat="43.99335" lon="5.13253">
        <ele>335.4</ele>
        <time>2013-03-07T13:55:03Z</time>
      </trkpt>
      <trkpt lat="43.99339" lon="5.13256">
        <ele>332.8</ele>
        <time>2013-03-07T13:55:04Z</time>
      </trkpt>
      <trkpt lat="43.99342" lon="5.13258">
        <ele>331.6</ele>
        <time>2013-03-07T13:55:05Z</time>
      </trkpt>
      <trkpt lat="43.99344" lon="5.13258">
        <ele>330.6</ele>
        <time>2013-03-07T13:55:06Z</time>
      </trkpt>
      <trkpt lat="43.99347" lon="5.13258">
        <ele>329.8</ele>
        <time>2013-03-07T13:55:07Z</time>
      </trkpt>
      <trkpt lat="43.99351" lon="5.13259">
        <ele>329.7</ele>
        <time>2013-03-07T13:55:10Z</time>
      </trkpt>
      <trkpt lat="43.99352" lon="5.1326">
        <ele>329.5</ele>
        <time>2013-03-07T13:55:11Z</time>
      </trkpt>
      <trkpt lat="43.99355" lon="5.13263">
        <ele>331.1</ele>
        <time>2013-03-07T13:55:14Z</time>
      </trkpt>
      <trkpt lat="43.99356" lon="5.13265">
        <ele>330.3</ele>
        <time>2013-03-07T13:55:15Z</time>
      </trkpt>
      <trkpt lat="43.99359" lon="5.13268">
        <ele>331.1</ele>
        <time>2013-03-07T13:55:17Z</time>
      </trkpt>
      <trkpt lat="43.99361" lon="5.1327">
        <ele>330.1</ele>
        <time>2013-03-07T13:55:18Z</time>
      </trkpt>
      <trkpt lat="43.99364" lon="5.13272">
        <ele>329.5</ele>
        <time>2013-03-07T13:55:19Z</time>
      </trkpt>
      <trkpt lat="43.99366" lon="5.13275">
        <ele>327.9</ele>
        <time>2013-03-07T13:55:20Z</time>
      </trkpt>
      <trkpt lat="43.99368" lon="5.13278">
        <ele>326.9</ele>
        <time>2013-03-07T13:55:21Z</time>
      </trkpt>
      <trkpt lat="43.9937" lon="5.1328">
        <ele>326.5</ele>
        <time>2013-03-07T13:55:22Z</time>
      </trkpt>
      <trkpt lat="43.99371" lon="5.13285">
        <ele>328.3</ele>
        <time>2013-03-07T13:55:24Z</time>
      </trkpt>
      <trkpt lat="43.99372" lon="5.13288">
        <ele>328.4</ele>
        <time>2013-03-07T13:55:25Z</time>
      </trkpt>
      <trkpt lat="43.99373" lon="5.13291">
        <ele>328</ele>
        <time>2013-03-07T13:55:26Z</time>
      </trkpt>
      <trkpt lat="43.99375" lon="5.13293">
        <ele>327.6</ele>
        <time>2013-03-07T13:55:27Z</time>
      </trkpt>
      <trkpt lat="43.99377" lon="5.13297">
        <ele>327.5</ele>
        <time>2013-03-07T13:55:29Z</time>
      </trkpt>
      <trkpt lat="43.99377" lon="5.13299">
        <ele>327.3</ele>
        <time>2013-03-07T13:55:30Z</time>
      </trkpt>
      <trkpt lat="43.99379" lon="5.13303">
        <ele>326.1</ele>
        <time>2013-03-07T13:56:02Z</time>
      </trkpt>
      <trkpt lat="43.9938" lon="5.13304">
        <ele>326.3</ele>
        <time>2013-03-07T13:56:03Z</time>
      </trkpt>
      <trkpt lat="43.9938" lon="5.1331">
        <ele>327.8</ele>
        <time>2013-03-07T13:56:09Z</time>
      </trkpt>
      <trkpt lat="43.99379" lon="5.13311">
        <ele>328.1</ele>
        <time>2013-03-07T13:56:10Z</time>
      </trkpt>
      <trkpt lat="43.99379" lon="5.13315">
        <ele>327.8</ele>
        <time>2013-03-07T13:56:11Z</time>
      </trkpt>
      <trkpt lat="43.99379" lon="5.1332">
        <ele>328.2</ele>
        <time>2013-03-07T13:56:12Z</time>
      </trkpt>
      <trkpt lat="43.99378" lon="5.13324">
        <ele>328.4</ele>
        <time>2013-03-07T13:56:13Z</time>
      </trkpt>
      <trkpt lat="43.99378" lon="5.13329">
        <ele>328.4</ele>
        <time>2013-03-07T13:56:14Z</time>
      </trkpt>
      <trkpt lat="43.99379" lon="5.13334">
        <ele>327.3</ele>
        <time>2013-03-07T13:56:15Z</time>
      </trkpt>
      <trkpt lat="43.9938" lon="5.13338">
        <ele>327.2</ele>
        <time>2013-03-07T13:56:16Z</time>
      </trkpt>
      <trkpt lat="43.99381" lon="5.13343">
        <ele>329.8</ele>
        <time>2013-03-07T13:56:18Z</time>
      </trkpt>
      <trkpt lat="43.99382" lon="5.13348">
        <ele>329</ele>
        <time>2013-03-07T13:56:19Z</time>
      </trkpt>
      <trkpt lat="43.99383" lon="5.13352">
        <ele>328.9</ele>
        <time>2013-03-07T13:56:20Z</time>
      </trkpt>
      <trkpt lat="43.99384" lon="5.13355">
        <ele>329</ele>
        <time>2013-03-07T13:56:21Z</time>
      </trkpt>
      <trkpt lat="43.99388" lon="5.13361">
        <ele>327.2</ele>
        <time>2013-03-07T13:56:22Z</time>
      </trkpt>
      <trkpt lat="43.99389" lon="5.13365">
        <ele>327.4</ele>
        <time>2013-03-07T13:56:23Z</time>
      </trkpt>
      <trkpt lat="43.9939" lon="5.13369">
        <ele>327.3</ele>
        <time>2013-03-07T13:56:24Z</time>
      </trkpt>
      <trkpt lat="43.99391" lon="5.13374">
        <ele>327.2</ele>
        <time>2013-03-07T13:56:25Z</time>
      </trkpt>
      <trkpt lat="43.99392" lon="5.13375">
        <ele>327.7</ele>
        <time>2013-03-07T13:56:26Z</time>
      </trkpt>
      <trkpt lat="43.99393" lon="5.13378">
        <ele>327.1</ele>
        <time>2013-03-07T13:56:27Z</time>
      </trkpt>
      <trkpt lat="43.99394" lon="5.13382">
        <ele>327.1</ele>
        <time>2013-03-07T13:56:28Z</time>
      </trkpt>
      <trkpt lat="43.99394" lon="5.13385">
        <ele>327</ele>
        <time>2013-03-07T13:56:29Z</time>
      </trkpt>
      <trkpt lat="43.99394" lon="5.13389">
        <ele>327.3</ele>
        <time>2013-03-07T13:56:30Z</time>
      </trkpt>
      <trkpt lat="43.99395" lon="5.13393">
        <ele>327.5</ele>
        <time>2013-03-07T13:56:31Z</time>
      </trkpt>
      <trkpt lat="43.99396" lon="5.13395">
        <ele>328.1</ele>
        <time>2013-03-07T13:56:32Z</time>
      </trkpt>
      <trkpt lat="43.99398" lon="5.134">
        <ele>329.7</ele>
        <time>2013-03-07T13:56:34Z</time>
      </trkpt>
      <trkpt lat="43.99398" lon="5.13402">
        <ele>330.5</ele>
        <time>2013-03-07T13:56:35Z</time>
      </trkpt>
      <trkpt lat="43.99396" lon="5.13406">
        <ele>338.6</ele>
        <time>2013-03-07T13:56:39Z</time>
      </trkpt>
      <trkpt lat="43.99399" lon="5.1341">
        <ele>337.3</ele>
        <time>2013-03-07T13:56:40Z</time>
      </trkpt>
      <trkpt lat="43.99396" lon="5.13417">
        <ele>336</ele>
        <time>2013-03-07T13:56:41Z</time>
      </trkpt>
      <trkpt lat="43.99403" lon="5.13422">
        <ele>335.3</ele>
        <time>2013-03-07T13:56:42Z</time>
      </trkpt>
      <trkpt lat="43.99403" lon="5.13427">
        <ele>338.1</ele>
        <time>2013-03-07T13:56:53Z</time>
      </trkpt>
      <trkpt lat="43.99403" lon="5.13428">
        <ele>337.6</ele>
        <time>2013-03-07T13:56:54Z</time>
      </trkpt>
      <trkpt lat="43.99407" lon="5.13432">
        <ele>341.9</ele>
        <time>2013-03-07T13:57:42Z</time>
      </trkpt>
      <trkpt lat="43.99408" lon="5.13432">
        <ele>341.9</ele>
        <time>2013-03-07T13:57:43Z</time>
      </trkpt>
      <trkpt lat="43.9941" lon="5.13433">
        <ele>342.1</ele>
        <time>2013-03-07T13:57:47Z</time>
      </trkpt>
      <trkpt lat="43.99413" lon="5.13438">
        <ele>340.3</ele>
        <time>2013-03-07T13:57:48Z</time>
      </trkpt>
      <trkpt lat="43.99413" lon="5.13441">
        <ele>340.8</ele>
        <time>2013-03-07T13:57:49Z</time>
      </trkpt>
      <trkpt lat="43.99415" lon="5.13447">
        <ele>338.9</ele>
        <time>2013-03-07T13:57:50Z</time>
      </trkpt>
      <trkpt lat="43.99416" lon="5.13453">
        <ele>338.3</ele>
        <time>2013-03-07T13:57:51Z</time>
      </trkpt>
      <trkpt lat="43.99419" lon="5.13459">
        <ele>336.7</ele>
        <time>2013-03-07T13:57:52Z</time>
      </trkpt>
      <trkpt lat="43.99421" lon="5.13464">
        <ele>335.7</ele>
        <time>2013-03-07T13:57:53Z</time>
      </trkpt>
      <trkpt lat="43.99422" lon="5.13468">
        <ele>336.5</ele>
        <time>2013-03-07T13:57:54Z</time>
      </trkpt>
      <trkpt lat="43.99423" lon="5.13473">
        <ele>335.3</ele>
        <time>2013-03-07T13:57:55Z</time>
      </trkpt>
      <trkpt lat="43.99425" lon="5.13477">
        <ele>334</ele>
        <time>2013-03-07T13:57:56Z</time>
      </trkpt>
      <trkpt lat="43.99427" lon="5.13481">
        <ele>332.8</ele>
        <time>2013-03-07T13:57:57Z</time>
      </trkpt>
      <trkpt lat="43.99427" lon="5.13485">
        <ele>336.1</ele>
        <time>2013-03-07T13:57:58Z</time>
      </trkpt>
      <trkpt lat="43.99429" lon="5.13489">
        <ele>334.9</ele>
        <time>2013-03-07T13:57:59Z</time>
      </trkpt>
      <trkpt lat="43.9943" lon="5.13493">
        <ele>334.9</ele>
        <time>2013-03-07T13:58:00Z</time>
      </trkpt>
      <trkpt lat="43.99433" lon="5.13497">
        <ele>334.9</ele>
        <time>2013-03-07T13:58:01Z</time>
      </trkpt>
      <trkpt lat="43.99433" lon="5.13501">
        <ele>334.4</ele>
        <time>2013-03-07T13:58:02Z</time>
      </trkpt>
      <trkpt lat="43.99435" lon="5.13505">
        <ele>333.8</ele>
        <time>2013-03-07T13:58:03Z</time>
      </trkpt>
      <trkpt lat="43.99437" lon="5.13509">
        <ele>333.1</ele>
        <time>2013-03-07T13:58:04Z</time>
      </trkpt>
      <trkpt lat="43.99439" lon="5.13512">
        <ele>333.5</ele>
        <time>2013-03-07T13:58:05Z</time>
      </trkpt>
      <trkpt lat="43.99441" lon="5.13516">
        <ele>333.8</ele>
        <time>2013-03-07T13:58:06Z</time>
      </trkpt>
      <trkpt lat="43.99443" lon="5.13519">
        <ele>334.6</ele>
        <time>2013-03-07T13:58:07Z</time>
      </trkpt>
      <trkpt lat="43.99445" lon="5.13522">
        <ele>334.9</ele>
        <time>2013-03-07T13:58:08Z</time>
      </trkpt>
      <trkpt lat="43.99447" lon="5.13524">
        <ele>334.8</ele>
        <time>2013-03-07T13:58:09Z</time>
      </trkpt>
      <trkpt lat="43.9945" lon="5.13528">
        <ele>335.2</ele>
        <time>2013-03-07T13:58:10Z</time>
      </trkpt>
      <trkpt lat="43.99454" lon="5.13532">
        <ele>334.3</ele>
        <time>2013-03-07T13:58:11Z</time>
      </trkpt>
      <trkpt lat="43.99456" lon="5.13535">
        <ele>334.6</ele>
        <time>2013-03-07T13:58:12Z</time>
      </trkpt>
      <trkpt lat="43.99459" lon="5.13539">
        <ele>334.6</ele>
        <time>2013-03-07T13:58:13Z</time>
      </trkpt>
      <trkpt lat="43.99461" lon="5.13543">
        <ele>334.4</ele>
        <time>2013-03-07T13:58:14Z</time>
      </trkpt>
      <trkpt lat="43.99464" lon="5.13547">
        <ele>334.1</ele>
        <time>2013-03-07T13:58:15Z</time>
      </trkpt>
      <trkpt lat="43.99466" lon="5.1355">
        <ele>335.6</ele>
        <time>2013-03-07T13:58:16Z</time>
      </trkpt>
      <trkpt lat="43.99468" lon="5.13553">
        <ele>336.4</ele>
        <time>2013-03-07T13:58:17Z</time>
      </trkpt>
      <trkpt lat="43.9947" lon="5.13556">
        <ele>336.6</ele>
        <time>2013-03-07T13:58:18Z</time>
      </trkpt>
      <trkpt lat="43.99473" lon="5.13561">
        <ele>336.5</ele>
        <time>2013-03-07T13:58:19Z</time>
      </trkpt>
      <trkpt lat="43.99476" lon="5.13564">
        <ele>336.4</ele>
        <time>2013-03-07T13:58:20Z</time>
      </trkpt>
      <trkpt lat="43.99479" lon="5.13568">
        <ele>336.4</ele>
        <time>2013-03-07T13:58:21Z</time>
      </trkpt>
      <trkpt lat="43.99482" lon="5.13572">
        <ele>336.6</ele>
        <time>2013-03-07T13:58:22Z</time>
      </trkpt>
      <trkpt lat="43.99484" lon="5.13575">
        <ele>336.5</ele>
        <time>2013-03-07T13:58:23Z</time>
      </trkpt>
      <trkpt lat="43.99487" lon="5.13579">
        <ele>336.7</ele>
        <time>2013-03-07T13:58:24Z</time>
      </trkpt>
      <trkpt lat="43.99491" lon="5.13583">
        <ele>337</ele>
        <time>2013-03-07T13:58:25Z</time>
      </trkpt>
      <trkpt lat="43.99494" lon="5.13588">
        <ele>337.2</ele>
        <time>2013-03-07T13:58:26Z</time>
      </trkpt>
      <trkpt lat="43.99497" lon="5.13594">
        <ele>338</ele>
        <time>2013-03-07T13:58:27Z</time>
      </trkpt>
      <trkpt lat="43.995" lon="5.136">
        <ele>338</ele>
        <time>2013-03-07T13:58:28Z</time>
      </trkpt>
      <trkpt lat="43.99503" lon="5.13603">
        <ele>339.5</ele>
        <time>2013-03-07T13:58:29Z</time>
      </trkpt>
      <trkpt lat="43.99506" lon="5.13608">
        <ele>340.6</ele>
        <time>2013-03-07T13:58:30Z</time>
      </trkpt>
      <trkpt lat="43.99509" lon="5.13612">
        <ele>341.6</ele>
        <time>2013-03-07T13:58:31Z</time>
      </trkpt>
      <trkpt lat="43.99513" lon="5.13617">
        <ele>341.6</ele>
        <time>2013-03-07T13:58:32Z</time>
      </trkpt>
      <trkpt lat="43.99517" lon="5.1362">
        <ele>341.5</ele>
        <time>2013-03-07T13:58:33Z</time>
      </trkpt>
      <trkpt lat="43.9952" lon="5.13624">
        <ele>342.1</ele>
        <time>2013-03-07T13:58:34Z</time>
      </trkpt>
      <trkpt lat="43.99524" lon="5.13629">
        <ele>341.6</ele>
        <time>2013-03-07T13:58:35Z</time>
      </trkpt>
      <trkpt lat="43.99529" lon="5.13634">
        <ele>341.2</ele>
        <time>2013-03-07T13:58:36Z</time>
      </trkpt>
      <trkpt lat="43.99532" lon="5.13638">
        <ele>341.1</ele>
        <time>2013-03-07T13:58:37Z</time>
      </trkpt>
      <trkpt lat="43.99537" lon="5.13643">
        <ele>340.6</ele>
        <time>2013-03-07T13:58:38Z</time>
      </trkpt>
      <trkpt lat="43.99538" lon="5.13649">
        <ele>340.6</ele>
        <time>2013-03-07T13:58:39Z</time>
      </trkpt>
      <trkpt lat="43.99542" lon="5.13653">
        <ele>339.9</ele>
        <time>2013-03-07T13:58:40Z</time>
      </trkpt>
      <trkpt lat="43.99544" lon="5.13657">
        <ele>341.6</ele>
        <time>2013-03-07T13:58:41Z</time>
      </trkpt>
      <trkpt lat="43.99547" lon="5.1366">
        <ele>342.3</ele>
        <time>2013-03-07T13:58:42Z</time>
      </trkpt>
      <trkpt lat="43.99549" lon="5.13664">
        <ele>343.1</ele>
        <time>2013-03-07T13:58:43Z</time>
      </trkpt>
      <trkpt lat="43.99553" lon="5.13669">
        <ele>342</ele>
        <time>2013-03-07T13:58:44Z</time>
      </trkpt>
      <trkpt lat="43.99556" lon="5.13674">
        <ele>341.4</ele>
        <time>2013-03-07T13:58:45Z</time>
      </trkpt>
      <trkpt lat="43.99558" lon="5.13679">
        <ele>341</ele>
        <time>2013-03-07T13:58:46Z</time>
      </trkpt>
      <trkpt lat="43.99561" lon="5.13684">
        <ele>341</ele>
        <time>2013-03-07T13:58:47Z</time>
      </trkpt>
      <trkpt lat="43.99563" lon="5.13688">
        <ele>340.7</ele>
        <time>2013-03-07T13:58:48Z</time>
      </trkpt>
      <trkpt lat="43.99567" lon="5.13692">
        <ele>340.1</ele>
        <time>2013-03-07T13:58:49Z</time>
      </trkpt>
      <trkpt lat="43.9957" lon="5.13697">
        <ele>339.4</ele>
        <time>2013-03-07T13:58:50Z</time>
      </trkpt>
      <trkpt lat="43.99572" lon="5.137">
        <ele>339.2</ele>
        <time>2013-03-07T13:58:51Z</time>
      </trkpt>
      <trkpt lat="43.99575" lon="5.13704">
        <ele>339</ele>
        <time>2013-03-07T13:58:52Z</time>
      </trkpt>
      <trkpt lat="43.99577" lon="5.13709">
        <ele>338.6</ele>
        <time>2013-03-07T13:58:53Z</time>
      </trkpt>
      <trkpt lat="43.9958" lon="5.13714">
        <ele>338.3</ele>
        <time>2013-03-07T13:58:54Z</time>
      </trkpt>
      <trkpt lat="43.99581" lon="5.13719">
        <ele>337.8</ele>
        <time>2013-03-07T13:58:55Z</time>
      </trkpt>
      <trkpt lat="43.99582" lon="5.13724">
        <ele>338.2</ele>
        <time>2013-03-07T13:58:56Z</time>
      </trkpt>
      <trkpt lat="43.99592" lon="5.13731">
        <ele>332.4</ele>
        <time>2013-03-07T13:58:57Z</time>
      </trkpt>
      <trkpt lat="43.99594" lon="5.13735">
        <ele>332.2</ele>
        <time>2013-03-07T13:58:58Z</time>
      </trkpt>
      <trkpt lat="43.99597" lon="5.13739">
        <ele>330.7</ele>
        <time>2013-03-07T13:58:59Z</time>
      </trkpt>
      <trkpt lat="43.996" lon="5.13743">
        <ele>329.9</ele>
        <time>2013-03-07T13:59:00Z</time>
      </trkpt>
      <trkpt lat="43.99604" lon="5.13748">
        <ele>327.7</ele>
        <time>2013-03-07T13:59:01Z</time>
      </trkpt>
      <trkpt lat="43.99601" lon="5.1375">
        <ele>329.1</ele>
        <time>2013-03-07T13:59:02Z</time>
      </trkpt>
      <trkpt lat="43.99602" lon="5.13754">
        <ele>327.5</ele>
        <time>2013-03-07T13:59:03Z</time>
      </trkpt>
      <trkpt lat="43.99603" lon="5.1376">
        <ele>325.2</ele>
        <time>2013-03-07T13:59:57Z</time>
      </trkpt>
      <trkpt lat="43.99604" lon="5.13763">
        <ele>324.6</ele>
        <time>2013-03-07T13:59:58Z</time>
      </trkpt>
      <trkpt lat="43.99606" lon="5.13768">
        <ele>324.4</ele>
        <time>2013-03-07T14:00:00Z</time>
      </trkpt>
      <trkpt lat="43.99606" lon="5.13771">
        <ele>322.9</ele>
        <time>2013-03-07T14:00:01Z</time>
      </trkpt>
      <trkpt lat="43.99609" lon="5.13775">
        <ele>324</ele>
        <time>2013-03-07T14:00:04Z</time>
      </trkpt>
      <trkpt lat="43.99612" lon="5.13779">
        <ele>322.3</ele>
        <time>2013-03-07T14:00:05Z</time>
      </trkpt>
      <trkpt lat="43.99614" lon="5.13782">
        <ele>322.4</ele>
        <time>2013-03-07T14:00:06Z</time>
      </trkpt>
      <trkpt lat="43.99616" lon="5.13785">
        <ele>321.9</ele>
        <time>2013-03-07T14:00:07Z</time>
      </trkpt>
      <trkpt lat="43.99617" lon="5.13788">
        <ele>322.2</ele>
        <time>2013-03-07T14:00:08Z</time>
      </trkpt>
      <trkpt lat="43.99619" lon="5.1379">
        <ele>322.6</ele>
        <time>2013-03-07T14:00:09Z</time>
      </trkpt>
      <trkpt lat="43.99622" lon="5.13794">
        <ele>322.7</ele>
        <time>2013-03-07T14:00:11Z</time>
      </trkpt>
      <trkpt lat="43.99623" lon="5.13797">
        <ele>321.4</ele>
        <time>2013-03-07T14:00:12Z</time>
      </trkpt>
      <trkpt lat="43.99625" lon="5.138">
        <ele>321.3</ele>
        <time>2013-03-07T14:00:13Z</time>
      </trkpt>
      <trkpt lat="43.99626" lon="5.13803">
        <ele>320.7</ele>
        <time>2013-03-07T14:00:14Z</time>
      </trkpt>
      <trkpt lat="43.99627" lon="5.13806">
        <ele>320.7</ele>
        <time>2013-03-07T14:00:15Z</time>
      </trkpt>
      <trkpt lat="43.99628" lon="5.1381">
        <ele>319.9</ele>
        <time>2013-03-07T14:00:16Z</time>
      </trkpt>
      <trkpt lat="43.99629" lon="5.13814">
        <ele>319.6</ele>
        <time>2013-03-07T14:00:17Z</time>
      </trkpt>
      <trkpt lat="43.99631" lon="5.13816">
        <ele>319.8</ele>
        <time>2013-03-07T14:00:18Z</time>
      </trkpt>
      <trkpt lat="43.99634" lon="5.1382">
        <ele>319.6</ele>
        <time>2013-03-07T14:00:20Z</time>
      </trkpt>
      <trkpt lat="43.99635" lon="5.13823">
        <ele>319.3</ele>
        <time>2013-03-07T14:00:21Z</time>
      </trkpt>
      <trkpt lat="43.99636" lon="5.13827">
        <ele>319.9</ele>
        <time>2013-03-07T14:00:23Z</time>
      </trkpt>
      <trkpt lat="43.99637" lon="5.13829">
        <ele>320</ele>
        <time>2013-03-07T14:00:24Z</time>
      </trkpt>
      <trkpt lat="43.9964" lon="5.13833">
        <ele>318.8</ele>
        <time>2013-03-07T14:00:35Z</time>
      </trkpt>
      <trkpt lat="43.99642" lon="5.13834">
        <ele>318.4</ele>
        <time>2013-03-07T14:00:36Z</time>
      </trkpt>
      <trkpt lat="43.99644" lon="5.13836">
        <ele>318.2</ele>
        <time>2013-03-07T14:00:37Z</time>
      </trkpt>
      <trkpt lat="43.99646" lon="5.13837">
        <ele>318</ele>
        <time>2013-03-07T14:00:38Z</time>
      </trkpt>
      <trkpt lat="43.99649" lon="5.13839">
        <ele>317.7</ele>
        <time>2013-03-07T14:00:39Z</time>
      </trkpt>
      <trkpt lat="43.99651" lon="5.1384">
        <ele>317.3</ele>
        <time>2013-03-07T14:00:40Z</time>
      </trkpt>
      <trkpt lat="43.99653" lon="5.13841">
        <ele>317</ele>
        <time>2013-03-07T14:00:41Z</time>
      </trkpt>
      <trkpt lat="43.99655" lon="5.13843">
        <ele>316.3</ele>
        <time>2013-03-07T14:00:42Z</time>
      </trkpt>
      <trkpt lat="43.99657" lon="5.13845">
        <ele>316.1</ele>
        <time>2013-03-07T14:00:43Z</time>
      </trkpt>
      <trkpt lat="43.99659" lon="5.13847">
        <ele>315.8</ele>
        <time>2013-03-07T14:00:44Z</time>
      </trkpt>
      <trkpt lat="43.99661" lon="5.13849">
        <ele>315.6</ele>
        <time>2013-03-07T14:00:45Z</time>
      </trkpt>
      <trkpt lat="43.99663" lon="5.1385">
        <ele>315.3</ele>
        <time>2013-03-07T14:00:46Z</time>
      </trkpt>
      <trkpt lat="43.99667" lon="5.13854">
        <ele>315</ele>
        <time>2013-03-07T14:00:48Z</time>
      </trkpt>
      <trkpt lat="43.99669" lon="5.13855">
        <ele>314.8</ele>
        <time>2013-03-07T14:00:49Z</time>
      </trkpt>
      <trkpt lat="43.99671" lon="5.13858">
        <ele>314.7</ele>
        <time>2013-03-07T14:00:50Z</time>
      </trkpt>
      <trkpt lat="43.99673" lon="5.1386">
        <ele>314.9</ele>
        <time>2013-03-07T14:00:51Z</time>
      </trkpt>
      <trkpt lat="43.99675" lon="5.13861">
        <ele>314.9</ele>
        <time>2013-03-07T14:00:52Z</time>
      </trkpt>
      <trkpt lat="43.99677" lon="5.13863">
        <ele>314.7</ele>
        <time>2013-03-07T14:00:53Z</time>
      </trkpt>
      <trkpt lat="43.9968" lon="5.13867">
        <ele>314.5</ele>
        <time>2013-03-07T14:01:01Z</time>
      </trkpt>
      <trkpt lat="43.9968" lon="5.13867">
        <ele>314.5</ele>
        <time>2013-03-07T14:01:02Z</time>
      </trkpt>
      <trkpt lat="43.99683" lon="5.1387">
        <ele>314.2</ele>
        <time>2013-03-07T14:01:04Z</time>
      </trkpt>
      <trkpt lat="43.99685" lon="5.13872">
        <ele>313.9</ele>
        <time>2013-03-07T14:01:05Z</time>
      </trkpt>
      <trkpt lat="43.99687" lon="5.13875">
        <ele>313.4</ele>
        <time>2013-03-07T14:01:06Z</time>
      </trkpt>
      <trkpt lat="43.9969" lon="5.13877">
        <ele>312.8</ele>
        <time>2013-03-07T14:01:07Z</time>
      </trkpt>
      <trkpt lat="43.99692" lon="5.1388">
        <ele>312.2</ele>
        <time>2013-03-07T14:01:08Z</time>
      </trkpt>
      <trkpt lat="43.99694" lon="5.13882">
        <ele>312</ele>
        <time>2013-03-07T14:01:09Z</time>
      </trkpt>
      <trkpt lat="43.99697" lon="5.13883">
        <ele>312</ele>
        <time>2013-03-07T14:01:10Z</time>
      </trkpt>
      <trkpt lat="43.99699" lon="5.13885">
        <ele>311.5</ele>
        <time>2013-03-07T14:01:11Z</time>
      </trkpt>
      <trkpt lat="43.99701" lon="5.13887">
        <ele>311.7</ele>
        <time>2013-03-07T14:01:12Z</time>
      </trkpt>
      <trkpt lat="43.99704" lon="5.13888">
        <ele>311.4</ele>
        <time>2013-03-07T14:01:13Z</time>
      </trkpt>
      <trkpt lat="43.99707" lon="5.13889">
        <ele>310.9</ele>
        <time>2013-03-07T14:01:14Z</time>
      </trkpt>
      <trkpt lat="43.9971" lon="5.13891">
        <ele>311</ele>
        <time>2013-03-07T14:01:15Z</time>
      </trkpt>
      <trkpt lat="43.99713" lon="5.13893">
        <ele>310.4</ele>
        <time>2013-03-07T14:01:16Z</time>
      </trkpt>
      <trkpt lat="43.99715" lon="5.13894">
        <ele>309.9</ele>
        <time>2013-03-07T14:01:17Z</time>
      </trkpt>
      <trkpt lat="43.99717" lon="5.13894">
        <ele>309.9</ele>
        <time>2013-03-07T14:01:18Z</time>
      </trkpt>
      <trkpt lat="43.9972" lon="5.13895">
        <ele>309.8</ele>
        <time>2013-03-07T14:01:19Z</time>
      </trkpt>
      <trkpt lat="43.99722" lon="5.13895">
        <ele>309.9</ele>
        <time>2013-03-07T14:01:20Z</time>
      </trkpt>
      <trkpt lat="43.99725" lon="5.13897">
        <ele>309.5</ele>
        <time>2013-03-07T14:01:21Z</time>
      </trkpt>
      <trkpt lat="43.99727" lon="5.13899">
        <ele>309.2</ele>
        <time>2013-03-07T14:01:22Z</time>
      </trkpt>
      <trkpt lat="43.9973" lon="5.139">
        <ele>308.8</ele>
        <time>2013-03-07T14:01:23Z</time>
      </trkpt>
      <trkpt lat="43.99733" lon="5.13902">
        <ele>308.2</ele>
        <time>2013-03-07T14:01:24Z</time>
      </trkpt>
      <trkpt lat="43.99736" lon="5.13904">
        <ele>307.3</ele>
        <time>2013-03-07T14:01:25Z</time>
      </trkpt>
      <trkpt lat="43.99739" lon="5.13905">
        <ele>306.8</ele>
        <time>2013-03-07T14:01:26Z</time>
      </trkpt>
      <trkpt lat="43.99742" lon="5.13908">
        <ele>306</ele>
        <time>2013-03-07T14:01:27Z</time>
      </trkpt>
      <trkpt lat="43.99745" lon="5.13909">
        <ele>305.6</ele>
        <time>2013-03-07T14:01:28Z</time>
      </trkpt>
      <trkpt lat="43.99747" lon="5.1391">
        <ele>305.3</ele>
        <time>2013-03-07T14:01:29Z</time>
      </trkpt>
      <trkpt lat="43.9975" lon="5.13911">
        <ele>304.7</ele>
        <time>2013-03-07T14:01:30Z</time>
      </trkpt>
      <trkpt lat="43.99752" lon="5.13912">
        <ele>304.8</ele>
        <time>2013-03-07T14:01:31Z</time>
      </trkpt>
      <trkpt lat="43.99755" lon="5.13913">
        <ele>304.1</ele>
        <time>2013-03-07T14:01:32Z</time>
      </trkpt>
      <trkpt lat="43.99757" lon="5.13914">
        <ele>303.8</ele>
        <time>2013-03-07T14:01:33Z</time>
      </trkpt>
      <trkpt lat="43.9976" lon="5.13915">
        <ele>303.5</ele>
        <time>2013-03-07T14:01:34Z</time>
      </trkpt>
      <trkpt lat="43.99762" lon="5.13915">
        <ele>302.9</ele>
        <time>2013-03-07T14:01:35Z</time>
      </trkpt>
      <trkpt lat="43.99766" lon="5.13915">
        <ele>301.8</ele>
        <time>2013-03-07T14:01:37Z</time>
      </trkpt>
      <trkpt lat="43.99768" lon="5.13915">
        <ele>301.8</ele>
        <time>2013-03-07T14:01:38Z</time>
      </trkpt>
      <trkpt lat="43.99771" lon="5.13916">
        <ele>301.5</ele>
        <time>2013-03-07T14:01:39Z</time>
      </trkpt>
      <trkpt lat="43.99773" lon="5.13916">
        <ele>300.7</ele>
        <time>2013-03-07T14:01:40Z</time>
      </trkpt>
      <trkpt lat="43.99776" lon="5.13918">
        <ele>300.3</ele>
        <time>2013-03-07T14:01:41Z</time>
      </trkpt>
      <trkpt lat="43.99778" lon="5.13918">
        <ele>299.8</ele>
        <time>2013-03-07T14:01:42Z</time>
      </trkpt>
      <trkpt lat="43.9978" lon="5.13919">
        <ele>299.1</ele>
        <time>2013-03-07T14:01:43Z</time>
      </trkpt>
      <trkpt lat="43.99783" lon="5.13919">
        <ele>298.4</ele>
        <time>2013-03-07T14:01:44Z</time>
      </trkpt>
      <trkpt lat="43.99786" lon="5.13919">
        <ele>297.8</ele>
        <time>2013-03-07T14:01:45Z</time>
      </trkpt>
      <trkpt lat="43.99788" lon="5.1392">
        <ele>297.6</ele>
        <time>2013-03-07T14:01:46Z</time>
      </trkpt>
      <trkpt lat="43.99791" lon="5.1392">
        <ele>297.3</ele>
        <time>2013-03-07T14:01:47Z</time>
      </trkpt>
      <trkpt lat="43.99794" lon="5.13921">
        <ele>296.8</ele>
        <time>2013-03-07T14:01:48Z</time>
      </trkpt>
      <trkpt lat="43.99796" lon="5.13922">
        <ele>297</ele>
        <time>2013-03-07T14:01:49Z</time>
      </trkpt>
      <trkpt lat="43.99799" lon="5.13922">
        <ele>296.7</ele>
        <time>2013-03-07T14:01:50Z</time>
      </trkpt>
      <trkpt lat="43.99802" lon="5.13922">
        <ele>296.4</ele>
        <time>2013-03-07T14:01:51Z</time>
      </trkpt>
      <trkpt lat="43.99804" lon="5.13921">
        <ele>295.6</ele>
        <time>2013-03-07T14:01:52Z</time>
      </trkpt>
      <trkpt lat="43.99807" lon="5.1392">
        <ele>295.2</ele>
        <time>2013-03-07T14:01:53Z</time>
      </trkpt>
      <trkpt lat="43.9981" lon="5.1392">
        <ele>294.9</ele>
        <time>2013-03-07T14:01:54Z</time>
      </trkpt>
      <trkpt lat="43.99813" lon="5.13922">
        <ele>293.7</ele>
        <time>2013-03-07T14:01:55Z</time>
      </trkpt>
      <trkpt lat="43.99815" lon="5.13922">
        <ele>293.4</ele>
        <time>2013-03-07T14:01:56Z</time>
      </trkpt>
      <trkpt lat="43.99818" lon="5.13923">
        <ele>293.6</ele>
        <time>2013-03-07T14:01:57Z</time>
      </trkpt>
      <trkpt lat="43.99821" lon="5.13923">
        <ele>293.8</ele>
        <time>2013-03-07T14:01:58Z</time>
      </trkpt>
      <trkpt lat="43.99824" lon="5.13924">
        <ele>293.3</ele>
        <time>2013-03-07T14:01:59Z</time>
      </trkpt>
      <trkpt lat="43.99827" lon="5.13926">
        <ele>293.1</ele>
        <time>2013-03-07T14:02:00Z</time>
      </trkpt>
      <trkpt lat="43.9983" lon="5.13927">
        <ele>292.5</ele>
        <time>2013-03-07T14:02:01Z</time>
      </trkpt>
      <trkpt lat="43.99833" lon="5.13927">
        <ele>291.9</ele>
        <time>2013-03-07T14:02:02Z</time>
      </trkpt>
      <trkpt lat="43.99836" lon="5.13928">
        <ele>291.3</ele>
        <time>2013-03-07T14:02:03Z</time>
      </trkpt>
      <trkpt lat="43.99839" lon="5.13929">
        <ele>290.7</ele>
        <time>2013-03-07T14:02:04Z</time>
      </trkpt>
      <trkpt lat="43.99842" lon="5.1393">
        <ele>290.6</ele>
        <time>2013-03-07T14:02:05Z</time>
      </trkpt>
      <trkpt lat="43.99844" lon="5.13931">
        <ele>290.4</ele>
        <time>2013-03-07T14:02:06Z</time>
      </trkpt>
      <trkpt lat="43.99847" lon="5.13932">
        <ele>290.3</ele>
        <time>2013-03-07T14:02:07Z</time>
      </trkpt>
      <trkpt lat="43.99849" lon="5.13934">
        <ele>288</ele>
        <time>2013-03-07T14:02:08Z</time>
      </trkpt>
      <trkpt lat="43.99851" lon="5.13935">
        <ele>287.4</ele>
        <time>2013-03-07T14:02:09Z</time>
      </trkpt>
      <trkpt lat="43.99854" lon="5.13937">
        <ele>287</ele>
        <time>2013-03-07T14:02:10Z</time>
      </trkpt>
      <trkpt lat="43.99857" lon="5.13939">
        <ele>286.2</ele>
        <time>2013-03-07T14:02:11Z</time>
      </trkpt>
      <trkpt lat="43.99859" lon="5.13941">
        <ele>286</ele>
        <time>2013-03-07T14:02:12Z</time>
      </trkpt>
      <trkpt lat="43.99862" lon="5.13943">
        <ele>285.7</ele>
        <time>2013-03-07T14:02:13Z</time>
      </trkpt>
      <trkpt lat="43.99864" lon="5.13945">
        <ele>285.5</ele>
        <time>2013-03-07T14:02:14Z</time>
      </trkpt>
      <trkpt lat="43.99866" lon="5.13946">
        <ele>285.2</ele>
        <time>2013-03-07T14:02:15Z</time>
      </trkpt>
      <trkpt lat="43.99868" lon="5.13948">
        <ele>284.9</ele>
        <time>2013-03-07T14:02:16Z</time>
      </trkpt>
      <trkpt lat="43.9987" lon="5.13949">
        <ele>284.4</ele>
        <time>2013-03-07T14:02:17Z</time>
      </trkpt>
      <trkpt lat="43.99872" lon="5.1395">
        <ele>283.9</ele>
        <time>2013-03-07T14:02:18Z</time>
      </trkpt>
      <trkpt lat="43.99876" lon="5.13952">
        <ele>282.9</ele>
        <time>2013-03-07T14:02:20Z</time>
      </trkpt>
      <trkpt lat="43.99877" lon="5.13953">
        <ele>282.7</ele>
        <time>2013-03-07T14:02:21Z</time>
      </trkpt>
      <trkpt lat="43.99881" lon="5.13951">
        <ele>283.6</ele>
        <time>2013-03-07T14:02:34Z</time>
      </trkpt>
      <trkpt lat="43.99882" lon="5.13951">
        <ele>283.9</ele>
        <time>2013-03-07T14:02:35Z</time>
      </trkpt>
      <trkpt lat="43.99884" lon="5.1395">
        <ele>281.2</ele>
        <time>2013-03-07T14:03:04Z</time>
      </trkpt>
      <trkpt lat="43.99887" lon="5.13948">
        <ele>280.5</ele>
        <time>2013-03-07T14:03:05Z</time>
      </trkpt>
      <trkpt lat="43.99889" lon="5.13946">
        <ele>279.9</ele>
        <time>2013-03-07T14:03:06Z</time>
      </trkpt>
      <trkpt lat="43.99891" lon="5.13944">
        <ele>279.5</ele>
        <time>2013-03-07T14:03:07Z</time>
      </trkpt>
      <trkpt lat="43.99894" lon="5.13942">
        <ele>279.8</ele>
        <time>2013-03-07T14:03:08Z</time>
      </trkpt>
      <trkpt lat="43.99895" lon="5.1394">
        <ele>280</ele>
        <time>2013-03-07T14:03:09Z</time>
      </trkpt>
      <trkpt lat="43.99898" lon="5.13936">
        <ele>279.8</ele>
        <time>2013-03-07T14:03:11Z</time>
      </trkpt>
      <trkpt lat="43.999" lon="5.13935">
        <ele>279.4</ele>
        <time>2013-03-07T14:03:12Z</time>
      </trkpt>
      <trkpt lat="43.99902" lon="5.13932">
        <ele>279.2</ele>
        <time>2013-03-07T14:03:13Z</time>
      </trkpt>
      <trkpt lat="43.99903" lon="5.13928">
        <ele>278.5</ele>
        <time>2013-03-07T14:03:14Z</time>
      </trkpt>
      <trkpt lat="43.99906" lon="5.13923">
        <ele>277.8</ele>
        <time>2013-03-07T14:03:16Z</time>
      </trkpt>
      <trkpt lat="43.99907" lon="5.13921">
        <ele>277.8</ele>
        <time>2013-03-07T14:03:17Z</time>
      </trkpt>
      <trkpt lat="43.99909" lon="5.13917">
        <ele>276.9</ele>
        <time>2013-03-07T14:03:18Z</time>
      </trkpt>
      <trkpt lat="43.99911" lon="5.13914">
        <ele>276.8</ele>
        <time>2013-03-07T14:03:19Z</time>
      </trkpt>
      <trkpt lat="43.99913" lon="5.13909">
        <ele>276.1</ele>
        <time>2013-03-07T14:03:21Z</time>
      </trkpt>
      <trkpt lat="43.99915" lon="5.13907">
        <ele>275.9</ele>
        <time>2013-03-07T14:03:22Z</time>
      </trkpt>
      <trkpt lat="43.99917" lon="5.13906">
        <ele>275.2</ele>
        <time>2013-03-07T14:03:23Z</time>
      </trkpt>
      <trkpt lat="43.99919" lon="5.13905">
        <ele>274.5</ele>
        <time>2013-03-07T14:03:24Z</time>
      </trkpt>
      <trkpt lat="43.99921" lon="5.13909">
        <ele>274.3</ele>
        <time>2013-03-07T14:03:25Z</time>
      </trkpt>
      <trkpt lat="43.99923" lon="5.13912">
        <ele>274.3</ele>
        <time>2013-03-07T14:03:26Z</time>
      </trkpt>
      <trkpt lat="43.99923" lon="5.13918">
        <ele>274.1</ele>
        <time>2013-03-07T14:03:28Z</time>
      </trkpt>
      <trkpt lat="43.99924" lon="5.13921">
        <ele>274.6</ele>
        <time>2013-03-07T14:03:29Z</time>
      </trkpt>
      <trkpt lat="43.99926" lon="5.13924">
        <ele>274.3</ele>
        <time>2013-03-07T14:03:30Z</time>
      </trkpt>
      <trkpt lat="43.99926" lon="5.13927">
        <ele>274.1</ele>
        <time>2013-03-07T14:03:31Z</time>
      </trkpt>
      <trkpt lat="43.99927" lon="5.13932">
        <ele>274.9</ele>
        <time>2013-03-07T14:03:34Z</time>
      </trkpt>
      <trkpt lat="43.99927" lon="5.13935">
        <ele>273.8</ele>
        <time>2013-03-07T14:03:35Z</time>
      </trkpt>
      <trkpt lat="43.99927" lon="5.13939">
        <ele>273</ele>
        <time>2013-03-07T14:03:37Z</time>
      </trkpt>
      <trkpt lat="43.99927" lon="5.13941">
        <ele>272.8</ele>
        <time>2013-03-07T14:03:38Z</time>
      </trkpt>
      <trkpt lat="43.99927" lon="5.13947">
        <ele>268.2</ele>
        <time>2013-03-07T14:03:41Z</time>
      </trkpt>
      <trkpt lat="43.99927" lon="5.13948">
        <ele>266.8</ele>
        <time>2013-03-07T14:03:42Z</time>
      </trkpt>
      <trkpt lat="43.99926" lon="5.13953">
        <ele>266.8</ele>
        <time>2013-03-07T14:03:44Z</time>
      </trkpt>
      <trkpt lat="43.99926" lon="5.13956">
        <ele>267.2</ele>
        <time>2013-03-07T14:03:45Z</time>
      </trkpt>
      <trkpt lat="43.99922" lon="5.13958">
        <ele>267.9</ele>
        <time>2013-03-07T14:04:45Z</time>
      </trkpt>
      <trkpt lat="43.99922" lon="5.1396">
        <ele>267.5</ele>
        <time>2013-03-07T14:04:46Z</time>
      </trkpt>
      <trkpt lat="43.99921" lon="5.13967">
        <ele>268</ele>
        <time>2013-03-07T14:04:47Z</time>
      </trkpt>
      <trkpt lat="43.99919" lon="5.13972">
        <ele>268.7</ele>
        <time>2013-03-07T14:04:48Z</time>
      </trkpt>
      <trkpt lat="43.99918" lon="5.13973">
        <ele>268.6</ele>
        <time>2013-03-07T14:04:49Z</time>
      </trkpt>
      <trkpt lat="43.99918" lon="5.13979">
        <ele>267.4</ele>
        <time>2013-03-07T14:04:54Z</time>
      </trkpt>
      <trkpt lat="43.99919" lon="5.1398">
        <ele>267.1</ele>
        <time>2013-03-07T14:04:55Z</time>
      </trkpt>
      <trkpt lat="43.9992" lon="5.13983">
        <ele>266.3</ele>
        <time>2013-03-07T14:04:58Z</time>
      </trkpt>
      <trkpt lat="43.99922" lon="5.13986">
        <ele>266</ele>
        <time>2013-03-07T14:04:59Z</time>
      </trkpt>
      <trkpt lat="43.99918" lon="5.13989">
        <ele>266.5</ele>
        <time>2013-03-07T14:05:03Z</time>
      </trkpt>
      <trkpt lat="43.99916" lon="5.13989">
        <ele>266.6</ele>
        <time>2013-03-07T14:05:04Z</time>
      </trkpt>
      <trkpt lat="43.99914" lon="5.13993">
        <ele>266.3</ele>
        <time>2013-03-07T14:05:08Z</time>
      </trkpt>
      <trkpt lat="43.99911" lon="5.13995">
        <ele>266.1</ele>
        <time>2013-03-07T14:05:09Z</time>
      </trkpt>
      <trkpt lat="43.99915" lon="5.13995">
        <ele>266</ele>
        <time>2013-03-07T14:05:13Z</time>
      </trkpt>
      <trkpt lat="43.99916" lon="5.13994">
        <ele>266.1</ele>
        <time>2013-03-07T14:05:14Z</time>
      </trkpt>
      <trkpt lat="43.99918" lon="5.13992">
        <ele>265.5</ele>
        <time>2013-03-07T14:05:44Z</time>
      </trkpt>
      <trkpt lat="43.99921" lon="5.1399">
        <ele>266.2</ele>
        <time>2013-03-07T14:05:45Z</time>
      </trkpt>
      <trkpt lat="43.99923" lon="5.13992">
        <ele>265.7</ele>
        <time>2013-03-07T14:05:46Z</time>
      </trkpt>
      <trkpt lat="43.99926" lon="5.13992">
        <ele>264.9</ele>
        <time>2013-03-07T14:05:47Z</time>
      </trkpt>
      <trkpt lat="43.99924" lon="5.13994">
        <ele>265.3</ele>
        <time>2013-03-07T14:05:49Z</time>
      </trkpt>
      <trkpt lat="43.99921" lon="5.13996">
        <ele>263.9</ele>
        <time>2013-03-07T14:05:50Z</time>
      </trkpt>
      <trkpt lat="43.99927" lon="5.13997">
        <ele>263</ele>
        <time>2013-03-07T14:05:51Z</time>
      </trkpt>
      <trkpt lat="43.99929" lon="5.13998">
        <ele>262.3</ele>
        <time>2013-03-07T14:05:52Z</time>
      </trkpt>
      <trkpt lat="43.99932" lon="5.13998">
        <ele>262</ele>
        <time>2013-03-07T14:05:53Z</time>
      </trkpt>
      <trkpt lat="43.99934" lon="5.14001">
        <ele>261.6</ele>
        <time>2013-03-07T14:05:54Z</time>
      </trkpt>
      <trkpt lat="43.99937" lon="5.14">
        <ele>262.6</ele>
        <time>2013-03-07T14:05:55Z</time>
      </trkpt>
      <trkpt lat="43.9994" lon="5.14001">
        <ele>261.3</ele>
        <time>2013-03-07T14:05:57Z</time>
      </trkpt>
      <trkpt lat="43.99941" lon="5.14004">
        <ele>260.5</ele>
        <time>2013-03-07T14:05:58Z</time>
      </trkpt>
      <trkpt lat="43.99942" lon="5.14003">
        <ele>259.6</ele>
        <time>2013-03-07T14:06:04Z</time>
      </trkpt>
      <trkpt lat="43.99946" lon="5.14003">
        <ele>259.4</ele>
        <time>2013-03-07T14:06:05Z</time>
      </trkpt>
      <trkpt lat="43.99949" lon="5.14004">
        <ele>259.1</ele>
        <time>2013-03-07T14:06:07Z</time>
      </trkpt>
      <trkpt lat="43.9995" lon="5.14005">
        <ele>258.8</ele>
        <time>2013-03-07T14:06:08Z</time>
      </trkpt>
      <trkpt lat="43.99952" lon="5.14003">
        <ele>257.7</ele>
        <time>2013-03-07T14:06:15Z</time>
      </trkpt>
      <trkpt lat="43.99955" lon="5.14005">
        <ele>257.4</ele>
        <time>2013-03-07T14:06:16Z</time>
      </trkpt>
      <trkpt lat="43.99958" lon="5.14005">
        <ele>257.4</ele>
        <time>2013-03-07T14:06:17Z</time>
      </trkpt>
      <trkpt lat="43.99962" lon="5.14008">
        <ele>256.7</ele>
        <time>2013-03-07T14:06:18Z</time>
      </trkpt>
      <trkpt lat="43.99964" lon="5.14012">
        <ele>257.4</ele>
        <time>2013-03-07T14:06:19Z</time>
      </trkpt>
      <trkpt lat="43.99965" lon="5.14016">
        <ele>258.7</ele>
        <time>2013-03-07T14:06:20Z</time>
      </trkpt>
      <trkpt lat="43.99965" lon="5.14025">
        <ele>261.6</ele>
        <time>2013-03-07T14:06:21Z</time>
      </trkpt>
      <trkpt lat="43.99963" lon="5.14037">
        <ele>265.7</ele>
        <time>2013-03-07T14:06:22Z</time>
      </trkpt>
      <trkpt lat="43.99959" lon="5.14041">
        <ele>267.4</ele>
        <time>2013-03-07T14:06:23Z</time>
      </trkpt>
      <trkpt lat="43.99958" lon="5.14045">
        <ele>267.2</ele>
        <time>2013-03-07T14:06:24Z</time>
      </trkpt>
      <trkpt lat="43.99958" lon="5.14047">
        <ele>268</ele>
        <time>2013-03-07T14:06:25Z</time>
      </trkpt>
      <trkpt lat="43.99957" lon="5.14049">
        <ele>263.5</ele>
        <time>2013-03-07T14:08:33Z</time>
      </trkpt>
      <trkpt lat="43.99953" lon="5.1405">
        <ele>264.4</ele>
        <time>2013-03-07T14:08:34Z</time>
      </trkpt>
      <trkpt lat="43.99951" lon="5.14049">
        <ele>263.9</ele>
        <time>2013-03-07T14:08:35Z</time>
      </trkpt>
      <trkpt lat="43.99948" lon="5.1405">
        <ele>263.7</ele>
        <time>2013-03-07T14:08:36Z</time>
      </trkpt>
      <trkpt lat="43.99946" lon="5.14051">
        <ele>264.4</ele>
        <time>2013-03-07T14:08:37Z</time>
      </trkpt>
      <trkpt lat="43.99943" lon="5.1405">
        <ele>263.6</ele>
        <time>2013-03-07T14:08:38Z</time>
      </trkpt>
      <trkpt lat="43.99936" lon="5.14051">
        <ele>267.6</ele>
        <time>2013-03-07T14:08:40Z</time>
      </trkpt>
      <trkpt lat="43.99933" lon="5.14051">
        <ele>268.4</ele>
        <time>2013-03-07T14:08:42Z</time>
      </trkpt>
      <trkpt lat="43.99931" lon="5.14051">
        <ele>269.3</ele>
        <time>2013-03-07T14:08:43Z</time>
      </trkpt>
      <trkpt lat="43.99928" lon="5.14052">
        <ele>269.1</ele>
        <time>2013-03-07T14:08:46Z</time>
      </trkpt>
      <trkpt lat="43.99926" lon="5.1405">
        <ele>267.7</ele>
        <time>2013-03-07T14:08:47Z</time>
      </trkpt>
      <trkpt lat="43.99923" lon="5.14051">
        <ele>264.6</ele>
        <time>2013-03-07T14:08:48Z</time>
      </trkpt>
      <trkpt lat="43.99921" lon="5.14052">
        <ele>264.3</ele>
        <time>2013-03-07T14:08:49Z</time>
      </trkpt>
      <trkpt lat="43.99918" lon="5.1405">
        <ele>259.2</ele>
        <time>2013-03-07T14:08:51Z</time>
      </trkpt>
      <trkpt lat="43.99916" lon="5.14051">
        <ele>257.9</ele>
        <time>2013-03-07T14:08:52Z</time>
      </trkpt>
      <trkpt lat="43.99912" lon="5.14051">
        <ele>256.2</ele>
        <time>2013-03-07T14:08:54Z</time>
      </trkpt>
      <trkpt lat="43.99908" lon="5.14051">
        <ele>254.4</ele>
        <time>2013-03-07T14:08:55Z</time>
      </trkpt>
      <trkpt lat="43.99906" lon="5.14052">
        <ele>253.9</ele>
        <time>2013-03-07T14:08:56Z</time>
      </trkpt>
      <trkpt lat="43.99903" lon="5.14052">
        <ele>253.4</ele>
        <time>2013-03-07T14:08:57Z</time>
      </trkpt>
      <trkpt lat="43.999" lon="5.14054">
        <ele>252.1</ele>
        <time>2013-03-07T14:08:59Z</time>
      </trkpt>
      <trkpt lat="43.99897" lon="5.14055">
        <ele>251.6</ele>
        <time>2013-03-07T14:09:00Z</time>
      </trkpt>
      <trkpt lat="43.99894" lon="5.14057">
        <ele>250.7</ele>
        <time>2013-03-07T14:09:02Z</time>
      </trkpt>
      <trkpt lat="43.99892" lon="5.14058">
        <ele>250.5</ele>
        <time>2013-03-07T14:09:03Z</time>
      </trkpt>
      <trkpt lat="43.99888" lon="5.14059">
        <ele>248.3</ele>
        <time>2013-03-07T14:09:05Z</time>
      </trkpt>
      <trkpt lat="43.99885" lon="5.14061">
        <ele>247.3</ele>
        <time>2013-03-07T14:09:06Z</time>
      </trkpt>
      <trkpt lat="43.99882" lon="5.14064">
        <ele>247</ele>
        <time>2013-03-07T14:09:07Z</time>
      </trkpt>
      <trkpt lat="43.99879" lon="5.14066">
        <ele>246.3</ele>
        <time>2013-03-07T14:09:08Z</time>
      </trkpt>
      <trkpt lat="43.99872" lon="5.14069">
        <ele>245.5</ele>
        <time>2013-03-07T14:09:09Z</time>
      </trkpt>
      <trkpt lat="43.99867" lon="5.14072">
        <ele>244.4</ele>
        <time>2013-03-07T14:09:10Z</time>
      </trkpt>
      <trkpt lat="43.99863" lon="5.14075">
        <ele>244.1</ele>
        <time>2013-03-07T14:09:11Z</time>
      </trkpt>
      <trkpt lat="43.99859" lon="5.14077">
        <ele>244</ele>
        <time>2013-03-07T14:09:12Z</time>
      </trkpt>
      <trkpt lat="43.99858" lon="5.1408">
        <ele>239.9</ele>
        <time>2013-03-07T14:09:19Z</time>
      </trkpt>
      <trkpt lat="43.99856" lon="5.14082">
        <ele>239.3</ele>
        <time>2013-03-07T14:09:20Z</time>
      </trkpt>
      <trkpt lat="43.99853" lon="5.14084">
        <ele>238.8</ele>
        <time>2013-03-07T14:09:21Z</time>
      </trkpt>
      <trkpt lat="43.99849" lon="5.14085">
        <ele>238.4</ele>
        <time>2013-03-07T14:09:22Z</time>
      </trkpt>
      <trkpt lat="43.99845" lon="5.14086">
        <ele>238.3</ele>
        <time>2013-03-07T14:09:23Z</time>
      </trkpt>
      <trkpt lat="43.99841" lon="5.14086">
        <ele>238.7</ele>
        <time>2013-03-07T14:09:24Z</time>
      </trkpt>
      <trkpt lat="43.99837" lon="5.14085">
        <ele>238.9</ele>
        <time>2013-03-07T14:09:25Z</time>
      </trkpt>
      <trkpt lat="43.99834" lon="5.14083">
        <ele>239.3</ele>
        <time>2013-03-07T14:09:26Z</time>
      </trkpt>
      <trkpt lat="43.9983" lon="5.14083">
        <ele>239.9</ele>
        <time>2013-03-07T14:09:27Z</time>
      </trkpt>
      <trkpt lat="43.99826" lon="5.14083">
        <ele>240.3</ele>
        <time>2013-03-07T14:09:28Z</time>
      </trkpt>
      <trkpt lat="43.99821" lon="5.14081">
        <ele>240.8</ele>
        <time>2013-03-07T14:09:29Z</time>
      </trkpt>
      <trkpt lat="43.99818" lon="5.1408">
        <ele>241.4</ele>
        <time>2013-03-07T14:09:30Z</time>
      </trkpt>
      <trkpt lat="43.99816" lon="5.14077">
        <ele>241.1</ele>
        <time>2013-03-07T14:09:31Z</time>
      </trkpt>
      <trkpt lat="43.99809" lon="5.14073">
        <ele>241.4</ele>
        <time>2013-03-07T14:09:32Z</time>
      </trkpt>
      <trkpt lat="43.99803" lon="5.14074">
        <ele>241.7</ele>
        <time>2013-03-07T14:09:33Z</time>
      </trkpt>
      <trkpt lat="43.99797" lon="5.14073">
        <ele>241.4</ele>
        <time>2013-03-07T14:09:34Z</time>
      </trkpt>
      <trkpt lat="43.9979" lon="5.14073">
        <ele>241.2</ele>
        <time>2013-03-07T14:09:35Z</time>
      </trkpt>
      <trkpt lat="43.99781" lon="5.14066">
        <ele>240.8</ele>
        <time>2013-03-07T14:09:36Z</time>
      </trkpt>
      <trkpt lat="43.99777" lon="5.14063">
        <ele>241.3</ele>
        <time>2013-03-07T14:09:37Z</time>
      </trkpt>
      <trkpt lat="43.99776" lon="5.14068">
        <ele>242.1</ele>
        <time>2013-03-07T14:09:38Z</time>
      </trkpt>
      <trkpt lat="43.99772" lon="5.14074">
        <ele>241.9</ele>
        <time>2013-03-07T14:09:39Z</time>
      </trkpt>
      <trkpt lat="43.99767" lon="5.14077">
        <ele>242.1</ele>
        <time>2013-03-07T14:09:40Z</time>
      </trkpt>
      <trkpt lat="43.99764" lon="5.14079">
        <ele>241.8</ele>
        <time>2013-03-07T14:09:41Z</time>
      </trkpt>
      <trkpt lat="43.99764" lon="5.14083">
        <ele>242.1</ele>
        <time>2013-03-07T14:09:42Z</time>
      </trkpt>
      <trkpt lat="43.99763" lon="5.14086">
        <ele>242.5</ele>
        <time>2013-03-07T14:09:43Z</time>
      </trkpt>
      <trkpt lat="43.99762" lon="5.1409">
        <ele>242.9</ele>
        <time>2013-03-07T14:09:44Z</time>
      </trkpt>
      <trkpt lat="43.99762" lon="5.14095">
        <ele>243.1</ele>
        <time>2013-03-07T14:09:45Z</time>
      </trkpt>
      <trkpt lat="43.99762" lon="5.141">
        <ele>242.3</ele>
        <time>2013-03-07T14:09:46Z</time>
      </trkpt>
      <trkpt lat="43.99761" lon="5.14104">
        <ele>240.4</ele>
        <time>2013-03-07T14:09:47Z</time>
      </trkpt>
      <trkpt lat="43.9976" lon="5.14106">
        <ele>238.7</ele>
        <time>2013-03-07T14:09:48Z</time>
      </trkpt>
      <trkpt lat="43.99759" lon="5.14109">
        <ele>237.3</ele>
        <time>2013-03-07T14:09:49Z</time>
      </trkpt>
      <trkpt lat="43.99758" lon="5.14113">
        <ele>236.8</ele>
        <time>2013-03-07T14:09:50Z</time>
      </trkpt>
      <trkpt lat="43.99758" lon="5.14116">
        <ele>237.6</ele>
        <time>2013-03-07T14:09:51Z</time>
      </trkpt>
      <trkpt lat="43.99756" lon="5.14118">
        <ele>240.2</ele>
        <time>2013-03-07T14:09:52Z</time>
      </trkpt>
      <trkpt lat="43.99754" lon="5.14121">
        <ele>240.2</ele>
        <time>2013-03-07T14:09:53Z</time>
      </trkpt>
      <trkpt lat="43.99753" lon="5.14124">
        <ele>240.5</ele>
        <time>2013-03-07T14:09:54Z</time>
      </trkpt>
      <trkpt lat="43.99752" lon="5.14127">
        <ele>241.4</ele>
        <time>2013-03-07T14:09:55Z</time>
      </trkpt>
      <trkpt lat="43.99752" lon="5.14131">
        <ele>240.6</ele>
        <time>2013-03-07T14:09:56Z</time>
      </trkpt>
      <trkpt lat="43.9975" lon="5.14134">
        <ele>241.1</ele>
        <time>2013-03-07T14:09:57Z</time>
      </trkpt>
      <trkpt lat="43.9975" lon="5.14137">
        <ele>240.3</ele>
        <time>2013-03-07T14:09:58Z</time>
      </trkpt>
      <trkpt lat="43.99748" lon="5.14143">
        <ele>238.4</ele>
        <time>2013-03-07T14:10:00Z</time>
      </trkpt>
      <trkpt lat="43.99748" lon="5.14146">
        <ele>239.7</ele>
        <time>2013-03-07T14:10:01Z</time>
      </trkpt>
      <trkpt lat="43.99747" lon="5.14149">
        <ele>240.1</ele>
        <time>2013-03-07T14:10:02Z</time>
      </trkpt>
      <trkpt lat="43.99746" lon="5.14152">
        <ele>239.5</ele>
        <time>2013-03-07T14:10:03Z</time>
      </trkpt>
      <trkpt lat="43.99745" lon="5.14155">
        <ele>238.6</ele>
        <time>2013-03-07T14:10:04Z</time>
      </trkpt>
      <trkpt lat="43.99745" lon="5.14159">
        <ele>238.2</ele>
        <time>2013-03-07T14:10:05Z</time>
      </trkpt>
      <trkpt lat="43.99748" lon="5.14162">
        <ele>239.3</ele>
        <time>2013-03-07T14:10:07Z</time>
      </trkpt>
      <trkpt lat="43.99751" lon="5.14162">
        <ele>239.5</ele>
        <time>2013-03-07T14:10:08Z</time>
      </trkpt>
      <trkpt lat="43.99753" lon="5.14163">
        <ele>239.9</ele>
        <time>2013-03-07T14:10:09Z</time>
      </trkpt>
      <trkpt lat="43.99755" lon="5.14164">
        <ele>240.8</ele>
        <time>2013-03-07T14:10:10Z</time>
      </trkpt>
      <trkpt lat="43.99757" lon="5.14166">
        <ele>241</ele>
        <time>2013-03-07T14:10:11Z</time>
      </trkpt>
      <trkpt lat="43.9976" lon="5.14167">
        <ele>240.4</ele>
        <time>2013-03-07T14:10:12Z</time>
      </trkpt>
      <trkpt lat="43.99763" lon="5.14168">
        <ele>239.9</ele>
        <time>2013-03-07T14:10:13Z</time>
      </trkpt>
      <trkpt lat="43.99766" lon="5.1417">
        <ele>239.6</ele>
        <time>2013-03-07T14:10:14Z</time>
      </trkpt>
      <trkpt lat="43.99769" lon="5.14172">
        <ele>239.8</ele>
        <time>2013-03-07T14:10:15Z</time>
      </trkpt>
      <trkpt lat="43.99773" lon="5.14174">
        <ele>240.1</ele>
        <time>2013-03-07T14:10:16Z</time>
      </trkpt>
      <trkpt lat="43.99777" lon="5.14177">
        <ele>240.1</ele>
        <time>2013-03-07T14:10:17Z</time>
      </trkpt>
      <trkpt lat="43.9978" lon="5.1418">
        <ele>239.7</ele>
        <time>2013-03-07T14:10:18Z</time>
      </trkpt>
      <trkpt lat="43.99783" lon="5.14185">
        <ele>240.4</ele>
        <time>2013-03-07T14:10:19Z</time>
      </trkpt>
      <trkpt lat="43.99786" lon="5.1419">
        <ele>240.7</ele>
        <time>2013-03-07T14:10:20Z</time>
      </trkpt>
      <trkpt lat="43.99788" lon="5.14194">
        <ele>240.4</ele>
        <time>2013-03-07T14:10:21Z</time>
      </trkpt>
      <trkpt lat="43.99789" lon="5.14198">
        <ele>240.7</ele>
        <time>2013-03-07T14:10:22Z</time>
      </trkpt>
      <trkpt lat="43.9979" lon="5.14201">
        <ele>240.4</ele>
        <time>2013-03-07T14:10:23Z</time>
      </trkpt>
      <trkpt lat="43.99792" lon="5.14207">
        <ele>239.5</ele>
        <time>2013-03-07T14:10:25Z</time>
      </trkpt>
      <trkpt lat="43.99793" lon="5.1421">
        <ele>240.3</ele>
        <time>2013-03-07T14:10:26Z</time>
      </trkpt>
      <trkpt lat="43.99794" lon="5.14213">
        <ele>240.1</ele>
        <time>2013-03-07T14:10:27Z</time>
      </trkpt>
      <trkpt lat="43.99795" lon="5.14216">
        <ele>240.2</ele>
        <time>2013-03-07T14:10:28Z</time>
      </trkpt>
      <trkpt lat="43.99797" lon="5.14218">
        <ele>240</ele>
        <time>2013-03-07T14:10:29Z</time>
      </trkpt>
      <trkpt lat="43.99799" lon="5.1422">
        <ele>241.1</ele>
        <time>2013-03-07T14:10:30Z</time>
      </trkpt>
      <trkpt lat="43.99801" lon="5.14223">
        <ele>241.4</ele>
        <time>2013-03-07T14:10:31Z</time>
      </trkpt>
      <trkpt lat="43.99802" lon="5.14225">
        <ele>242.1</ele>
        <time>2013-03-07T14:10:32Z</time>
      </trkpt>
      <trkpt lat="43.99805" lon="5.14225">
        <ele>241.5</ele>
        <time>2013-03-07T14:10:33Z</time>
      </trkpt>
      <trkpt lat="43.99808" lon="5.14227">
        <ele>241.8</ele>
        <time>2013-03-07T14:10:34Z</time>
      </trkpt>
      <trkpt lat="43.99812" lon="5.14229">
        <ele>241.6</ele>
        <time>2013-03-07T14:10:36Z</time>
      </trkpt>
      <trkpt lat="43.99813" lon="5.1423">
        <ele>241.9</ele>
        <time>2013-03-07T14:10:37Z</time>
      </trkpt>
      <trkpt lat="43.99817" lon="5.14233">
        <ele>241.7</ele>
        <time>2013-03-07T14:10:40Z</time>
      </trkpt>
      <trkpt lat="43.99819" lon="5.14234">
        <ele>241.6</ele>
        <time>2013-03-07T14:10:41Z</time>
      </trkpt>
      <trkpt lat="43.9982" lon="5.14239">
        <ele>241.7</ele>
        <time>2013-03-07T14:10:44Z</time>
      </trkpt>
      <trkpt lat="43.99819" lon="5.14241">
        <ele>241.9</ele>
        <time>2013-03-07T14:10:45Z</time>
      </trkpt>
      <trkpt lat="43.99819" lon="5.14244">
        <ele>242.1</ele>
        <time>2013-03-07T14:10:47Z</time>
      </trkpt>
      <trkpt lat="43.9982" lon="5.14248">
        <ele>242.7</ele>
        <time>2013-03-07T14:10:48Z</time>
      </trkpt>
      <trkpt lat="43.99821" lon="5.14253">
        <ele>243.2</ele>
        <time>2013-03-07T14:10:51Z</time>
      </trkpt>
      <trkpt lat="43.99821" lon="5.14254">
        <ele>243.3</ele>
        <time>2013-03-07T14:10:52Z</time>
      </trkpt>
      <trkpt lat="43.99822" lon="5.14259">
        <ele>242.9</ele>
        <time>2013-03-07T14:10:56Z</time>
      </trkpt>
      <trkpt lat="43.99823" lon="5.1426">
        <ele>243.3</ele>
        <time>2013-03-07T14:10:57Z</time>
      </trkpt>
      <trkpt lat="43.99826" lon="5.14264">
        <ele>244.1</ele>
        <time>2013-03-07T14:11:01Z</time>
      </trkpt>
      <trkpt lat="43.99826" lon="5.14266">
        <ele>244.3</ele>
        <time>2013-03-07T14:11:02Z</time>
      </trkpt>
      <trkpt lat="43.9983" lon="5.14267">
        <ele>245.4</ele>
        <time>2013-03-07T14:11:06Z</time>
      </trkpt>
      <trkpt lat="43.99832" lon="5.14267">
        <ele>246</ele>
        <time>2013-03-07T14:11:07Z</time>
      </trkpt>
      <trkpt lat="43.99835" lon="5.14269">
        <ele>247</ele>
        <time>2013-03-07T14:11:11Z</time>
      </trkpt>
      <trkpt lat="43.99837" lon="5.1427">
        <ele>247.1</ele>
        <time>2013-03-07T14:11:12Z</time>
      </trkpt>
      <trkpt lat="43.99839" lon="5.14274">
        <ele>248.1</ele>
        <time>2013-03-07T14:11:15Z</time>
      </trkpt>
      <trkpt lat="43.99841" lon="5.14276">
        <ele>248.6</ele>
        <time>2013-03-07T14:11:16Z</time>
      </trkpt>
      <trkpt lat="43.99844" lon="5.1428">
        <ele>250.4</ele>
        <time>2013-03-07T14:11:19Z</time>
      </trkpt>
      <trkpt lat="43.99845" lon="5.14281">
        <ele>251</ele>
        <time>2013-03-07T14:11:20Z</time>
      </trkpt>
      <trkpt lat="43.99848" lon="5.14286">
        <ele>252.4</ele>
        <time>2013-03-07T14:11:22Z</time>
      </trkpt>
      <trkpt lat="43.99849" lon="5.14288">
        <ele>253.2</ele>
        <time>2013-03-07T14:11:23Z</time>
      </trkpt>
      <trkpt lat="43.99852" lon="5.14291">
        <ele>254</ele>
        <time>2013-03-07T14:11:26Z</time>
      </trkpt>
      <trkpt lat="43.99854" lon="5.14291">
        <ele>255</ele>
        <time>2013-03-07T14:11:27Z</time>
      </trkpt>
      <trkpt lat="43.99856" lon="5.14293">
        <ele>255.6</ele>
        <time>2013-03-07T14:11:30Z</time>
      </trkpt>
      <trkpt lat="43.99858" lon="5.14294">
        <ele>255.1</ele>
        <time>2013-03-07T14:11:31Z</time>
      </trkpt>
      <trkpt lat="43.99859" lon="5.14298">
        <ele>254.3</ele>
        <time>2013-03-07T14:11:33Z</time>
      </trkpt>
      <trkpt lat="43.9986" lon="5.143">
        <ele>254.9</ele>
        <time>2013-03-07T14:11:34Z</time>
      </trkpt>
      <trkpt lat="43.99862" lon="5.14305">
        <ele>254.5</ele>
        <time>2013-03-07T14:11:36Z</time>
      </trkpt>
      <trkpt lat="43.99861" lon="5.14308">
        <ele>254.5</ele>
        <time>2013-03-07T14:11:37Z</time>
      </trkpt>
      <trkpt lat="43.99864" lon="5.14311">
        <ele>255.7</ele>
        <time>2013-03-07T14:11:39Z</time>
      </trkpt>
      <trkpt lat="43.99864" lon="5.14313">
        <ele>257</ele>
        <time>2013-03-07T14:11:40Z</time>
      </trkpt>
      <trkpt lat="43.99866" lon="5.14318">
        <ele>257.4</ele>
        <time>2013-03-07T14:11:43Z</time>
      </trkpt>
      <trkpt lat="43.99867" lon="5.14318">
        <ele>257.7</ele>
        <time>2013-03-07T14:11:44Z</time>
      </trkpt>
      <trkpt lat="43.9987" lon="5.14322">
        <ele>263.5</ele>
        <time>2013-03-07T14:11:48Z</time>
      </trkpt>
      <trkpt lat="43.99871" lon="5.14323">
        <ele>263.6</ele>
        <time>2013-03-07T14:11:49Z</time>
      </trkpt>
      <trkpt lat="43.99875" lon="5.14325">
        <ele>263.9</ele>
        <time>2013-03-07T14:11:52Z</time>
      </trkpt>
      <trkpt lat="43.99876" lon="5.14327">
        <ele>263.6</ele>
        <time>2013-03-07T14:11:53Z</time>
      </trkpt>
      <trkpt lat="43.99878" lon="5.14331">
        <ele>264.2</ele>
        <time>2013-03-07T14:11:57Z</time>
      </trkpt>
      <trkpt lat="43.99878" lon="5.14333">
        <ele>263.9</ele>
        <time>2013-03-07T14:11:58Z</time>
      </trkpt>
      <trkpt lat="43.99878" lon="5.14339">
        <ele>264.5</ele>
        <time>2013-03-07T14:12:01Z</time>
      </trkpt>
      <trkpt lat="43.99878" lon="5.14341">
        <ele>264.7</ele>
        <time>2013-03-07T14:12:02Z</time>
      </trkpt>
      <trkpt lat="43.99881" lon="5.14341">
        <ele>267.6</ele>
        <time>2013-03-07T14:12:07Z</time>
      </trkpt>
      <trkpt lat="43.99883" lon="5.14345">
        <ele>267.6</ele>
        <time>2013-03-07T14:12:08Z</time>
      </trkpt>
      <trkpt lat="43.99884" lon="5.1435">
        <ele>266.7</ele>
        <time>2013-03-07T14:12:10Z</time>
      </trkpt>
      <trkpt lat="43.99885" lon="5.14352">
        <ele>266.4</ele>
        <time>2013-03-07T14:12:11Z</time>
      </trkpt>
      <trkpt lat="43.99886" lon="5.14358">
        <ele>267</ele>
        <time>2013-03-07T14:12:14Z</time>
      </trkpt>
      <trkpt lat="43.99887" lon="5.1436">
        <ele>267.1</ele>
        <time>2013-03-07T14:12:15Z</time>
      </trkpt>
      <trkpt lat="43.99888" lon="5.14365">
        <ele>266.2</ele>
        <time>2013-03-07T14:12:17Z</time>
      </trkpt>
      <trkpt lat="43.99889" lon="5.14367">
        <ele>266.4</ele>
        <time>2013-03-07T14:12:18Z</time>
      </trkpt>
      <trkpt lat="43.99889" lon="5.14373">
        <ele>268</ele>
        <time>2013-03-07T14:12:23Z</time>
      </trkpt>
      <trkpt lat="43.9989" lon="5.14374">
        <ele>267.9</ele>
        <time>2013-03-07T14:12:24Z</time>
      </trkpt>
      <trkpt lat="43.9989" lon="5.14378">
        <ele>266.9</ele>
        <time>2013-03-07T14:12:27Z</time>
      </trkpt>
      <trkpt lat="43.99891" lon="5.1438">
        <ele>265.8</ele>
        <time>2013-03-07T14:12:28Z</time>
      </trkpt>
      <trkpt lat="43.99893" lon="5.14385">
        <ele>267.5</ele>
        <time>2013-03-07T14:12:31Z</time>
      </trkpt>
      <trkpt lat="43.99892" lon="5.14386">
        <ele>268.4</ele>
        <time>2013-03-07T14:12:32Z</time>
      </trkpt>
      <trkpt lat="43.99894" lon="5.14391">
        <ele>265.6</ele>
        <time>2013-03-07T14:12:46Z</time>
      </trkpt>
      <trkpt lat="43.99894" lon="5.14393">
        <ele>266.4</ele>
        <time>2013-03-07T14:12:47Z</time>
      </trkpt>
      <trkpt lat="43.99894" lon="5.14399">
        <ele>268.8</ele>
        <time>2013-03-07T14:12:52Z</time>
      </trkpt>
      <trkpt lat="43.99894" lon="5.144">
        <ele>268.5</ele>
        <time>2013-03-07T14:12:53Z</time>
      </trkpt>
      <trkpt lat="43.99896" lon="5.14405">
        <ele>268.1</ele>
        <time>2013-03-07T14:12:55Z</time>
      </trkpt>
      <trkpt lat="43.99897" lon="5.14409">
        <ele>267.4</ele>
        <time>2013-03-07T14:12:56Z</time>
      </trkpt>
      <trkpt lat="43.99894" lon="5.14412">
        <ele>266.5</ele>
        <time>2013-03-07T14:12:58Z</time>
      </trkpt>
      <trkpt lat="43.99895" lon="5.14415">
        <ele>265.9</ele>
        <time>2013-03-07T14:12:59Z</time>
      </trkpt>
      <trkpt lat="43.99895" lon="5.1442">
        <ele>266.6</ele>
        <time>2013-03-07T14:13:06Z</time>
      </trkpt>
      <trkpt lat="43.99895" lon="5.14421">
        <ele>266.5</ele>
        <time>2013-03-07T14:13:07Z</time>
      </trkpt>
      <trkpt lat="43.99894" lon="5.14426">
        <ele>265.9</ele>
        <time>2013-03-07T14:13:10Z</time>
      </trkpt>
      <trkpt lat="43.99894" lon="5.14428">
        <ele>265.8</ele>
        <time>2013-03-07T14:13:11Z</time>
      </trkpt>
      <trkpt lat="43.99894" lon="5.14434">
        <ele>266.2</ele>
        <time>2013-03-07T14:13:20Z</time>
      </trkpt>
      <trkpt lat="43.99893" lon="5.14435">
        <ele>266</ele>
        <time>2013-03-07T14:13:21Z</time>
      </trkpt>
      <trkpt lat="43.99891" lon="5.14439">
        <ele>267.8</ele>
        <time>2013-03-07T14:13:27Z</time>
      </trkpt>
      <trkpt lat="43.9989" lon="5.14439">
        <ele>268.1</ele>
        <time>2013-03-07T14:13:28Z</time>
      </trkpt>
      <trkpt lat="43.99888" lon="5.14443">
        <ele>270.5</ele>
        <time>2013-03-07T14:13:38Z</time>
      </trkpt>
      <trkpt lat="43.99884" lon="5.14443">
        <ele>269.9</ele>
        <time>2013-03-07T14:13:39Z</time>
      </trkpt>
      <trkpt lat="43.99883" lon="5.14446">
        <ele>269.8</ele>
        <time>2013-03-07T14:14:03Z</time>
      </trkpt>
      <trkpt lat="43.99883" lon="5.1445">
        <ele>270.2</ele>
        <time>2013-03-07T14:14:04Z</time>
      </trkpt>
      <trkpt lat="43.9988" lon="5.14452">
        <ele>270.1</ele>
        <time>2013-03-07T14:14:05Z</time>
      </trkpt>
      <trkpt lat="43.99878" lon="5.14454">
        <ele>270.9</ele>
        <time>2013-03-07T14:14:06Z</time>
      </trkpt>
      <trkpt lat="43.99877" lon="5.14458">
        <ele>273.4</ele>
        <time>2013-03-07T14:14:10Z</time>
      </trkpt>
      <trkpt lat="43.99876" lon="5.1446">
        <ele>273.2</ele>
        <time>2013-03-07T14:14:11Z</time>
      </trkpt>
      <trkpt lat="43.99873" lon="5.14462">
        <ele>274.5</ele>
        <time>2013-03-07T14:14:15Z</time>
      </trkpt>
      <trkpt lat="43.99872" lon="5.14462">
        <ele>274.4</ele>
        <time>2013-03-07T14:14:16Z</time>
      </trkpt>
      <trkpt lat="43.99868" lon="5.14464">
        <ele>274.6</ele>
        <time>2013-03-07T14:14:21Z</time>
      </trkpt>
      <trkpt lat="43.99867" lon="5.14464">
        <ele>274.1</ele>
        <time>2013-03-07T14:14:22Z</time>
      </trkpt>
      <trkpt lat="43.99866" lon="5.14469">
        <ele>274</ele>
        <time>2013-03-07T14:14:26Z</time>
      </trkpt>
      <trkpt lat="43.99865" lon="5.14471">
        <ele>274.6</ele>
        <time>2013-03-07T14:14:27Z</time>
      </trkpt>
      <trkpt lat="43.99863" lon="5.14473">
        <ele>274.6</ele>
        <time>2013-03-07T14:14:30Z</time>
      </trkpt>
      <trkpt lat="43.99861" lon="5.14473">
        <ele>275</ele>
        <time>2013-03-07T14:14:31Z</time>
      </trkpt>
      <trkpt lat="43.99857" lon="5.14471">
        <ele>275.5</ele>
        <time>2013-03-07T14:14:33Z</time>
      </trkpt>
      <trkpt lat="43.99855" lon="5.14469">
        <ele>275.8</ele>
        <time>2013-03-07T14:14:34Z</time>
      </trkpt>
      <trkpt lat="43.99851" lon="5.14473">
        <ele>274.1</ele>
        <time>2013-03-07T14:14:37Z</time>
      </trkpt>
      <trkpt lat="43.9985" lon="5.14474">
        <ele>273.9</ele>
        <time>2013-03-07T14:14:38Z</time>
      </trkpt>
      <trkpt lat="43.99847" lon="5.14478">
        <ele>275</ele>
        <time>2013-03-07T14:14:47Z</time>
      </trkpt>
      <trkpt lat="43.99846" lon="5.14479">
        <ele>274.7</ele>
        <time>2013-03-07T14:14:48Z</time>
      </trkpt>
      <trkpt lat="43.99843" lon="5.14483">
        <ele>275.5</ele>
        <time>2013-03-07T14:14:54Z</time>
      </trkpt>
      <trkpt lat="43.99842" lon="5.14483">
        <ele>276.5</ele>
        <time>2013-03-07T14:14:55Z</time>
      </trkpt>
      <trkpt lat="43.99838" lon="5.14485">
        <ele>276.5</ele>
        <time>2013-03-07T14:15:00Z</time>
      </trkpt>
      <trkpt lat="43.99837" lon="5.14485">
        <ele>276.5</ele>
        <time>2013-03-07T14:15:01Z</time>
      </trkpt>
      <trkpt lat="43.99834" lon="5.14488">
        <ele>275.7</ele>
        <time>2013-03-07T14:15:08Z</time>
      </trkpt>
      <trkpt lat="43.99833" lon="5.14488">
        <ele>275.8</ele>
        <time>2013-03-07T14:15:09Z</time>
      </trkpt>
      <trkpt lat="43.99832" lon="5.14489">
        <ele>279.7</ele>
        <time>2013-03-07T14:15:55Z</time>
      </trkpt>
      <trkpt lat="43.99827" lon="5.14494">
        <ele>280.1</ele>
        <time>2013-03-07T14:15:56Z</time>
      </trkpt>
      <trkpt lat="43.99822" lon="5.14498">
        <ele>280.3</ele>
        <time>2013-03-07T14:15:57Z</time>
      </trkpt>
      <trkpt lat="43.99819" lon="5.14498">
        <ele>281.1</ele>
        <time>2013-03-07T14:16:04Z</time>
      </trkpt>
      <trkpt lat="43.99817" lon="5.14498">
        <ele>280</ele>
        <time>2013-03-07T14:16:05Z</time>
      </trkpt>
      <trkpt lat="43.99813" lon="5.14499">
        <ele>279.4</ele>
        <time>2013-03-07T14:16:07Z</time>
      </trkpt>
      <trkpt lat="43.99812" lon="5.14501">
        <ele>279.8</ele>
        <time>2013-03-07T14:16:08Z</time>
      </trkpt>
      <trkpt lat="43.99808" lon="5.14503">
        <ele>280.6</ele>
        <time>2013-03-07T14:16:10Z</time>
      </trkpt>
      <trkpt lat="43.99807" lon="5.14503">
        <ele>281.1</ele>
        <time>2013-03-07T14:16:11Z</time>
      </trkpt>
      <trkpt lat="43.99803" lon="5.14506">
        <ele>280.7</ele>
        <time>2013-03-07T14:16:13Z</time>
      </trkpt>
      <trkpt lat="43.99802" lon="5.14507">
        <ele>281.1</ele>
        <time>2013-03-07T14:16:14Z</time>
      </trkpt>
      <trkpt lat="43.99799" lon="5.1451">
        <ele>283.1</ele>
        <time>2013-03-07T14:16:17Z</time>
      </trkpt>
      <trkpt lat="43.99797" lon="5.14509">
        <ele>283.9</ele>
        <time>2013-03-07T14:16:18Z</time>
      </trkpt>
      <trkpt lat="43.99794" lon="5.14512">
        <ele>285.4</ele>
        <time>2013-03-07T14:16:21Z</time>
      </trkpt>
      <trkpt lat="43.99793" lon="5.14514">
        <ele>285.4</ele>
        <time>2013-03-07T14:16:22Z</time>
      </trkpt>
      <trkpt lat="43.9979" lon="5.14516">
        <ele>286.4</ele>
        <time>2013-03-07T14:16:25Z</time>
      </trkpt>
      <trkpt lat="43.99789" lon="5.14516">
        <ele>287.2</ele>
        <time>2013-03-07T14:16:26Z</time>
      </trkpt>
      <trkpt lat="43.99785" lon="5.14519">
        <ele>287.8</ele>
        <time>2013-03-07T14:16:29Z</time>
      </trkpt>
      <trkpt lat="43.99784" lon="5.14519">
        <ele>287.8</ele>
        <time>2013-03-07T14:16:30Z</time>
      </trkpt>
      <trkpt lat="43.99782" lon="5.14524">
        <ele>290.9</ele>
        <time>2013-03-07T14:16:42Z</time>
      </trkpt>
      <trkpt lat="43.99783" lon="5.14526">
        <ele>291.1</ele>
        <time>2013-03-07T14:16:43Z</time>
      </trkpt>
      <trkpt lat="43.99778" lon="5.14526">
        <ele>293.2</ele>
        <time>2013-03-07T14:17:09Z</time>
      </trkpt>
      <trkpt lat="43.99774" lon="5.14524">
        <ele>293.2</ele>
        <time>2013-03-07T14:17:10Z</time>
      </trkpt>
      <trkpt lat="43.99769" lon="5.14524">
        <ele>294.7</ele>
        <time>2013-03-07T14:17:12Z</time>
      </trkpt>
      <trkpt lat="43.99768" lon="5.14525">
        <ele>294.5</ele>
        <time>2013-03-07T14:17:13Z</time>
      </trkpt>
      <trkpt lat="43.99764" lon="5.14525">
        <ele>294.2</ele>
        <time>2013-03-07T14:17:20Z</time>
      </trkpt>
      <trkpt lat="43.99763" lon="5.14525">
        <ele>294.3</ele>
        <time>2013-03-07T14:17:21Z</time>
      </trkpt>
      <trkpt lat="43.9976" lon="5.14529">
        <ele>292.8</ele>
        <time>2013-03-07T14:17:25Z</time>
      </trkpt>
      <trkpt lat="43.9976" lon="5.14531">
        <ele>292.6</ele>
        <time>2013-03-07T14:17:26Z</time>
      </trkpt>
      <trkpt lat="43.99758" lon="5.14536">
        <ele>293.5</ele>
        <time>2013-03-07T14:17:29Z</time>
      </trkpt>
      <trkpt lat="43.99757" lon="5.14538">
        <ele>293.5</ele>
        <time>2013-03-07T14:17:30Z</time>
      </trkpt>
      <trkpt lat="43.99756" lon="5.14543">
        <ele>296.5</ele>
        <time>2013-03-07T14:17:35Z</time>
      </trkpt>
      <trkpt lat="43.99755" lon="5.14544">
        <ele>296.9</ele>
        <time>2013-03-07T14:17:36Z</time>
      </trkpt>
      <trkpt lat="43.99754" lon="5.14549">
        <ele>299.4</ele>
        <time>2013-03-07T14:17:44Z</time>
      </trkpt>
      <trkpt lat="43.99754" lon="5.1455">
        <ele>300.2</ele>
        <time>2013-03-07T14:17:45Z</time>
      </trkpt>
      <trkpt lat="43.99752" lon="5.14555">
        <ele>301.5</ele>
        <time>2013-03-07T14:17:48Z</time>
      </trkpt>
      <trkpt lat="43.99751" lon="5.14556">
        <ele>301.6</ele>
        <time>2013-03-07T14:17:49Z</time>
      </trkpt>
      <trkpt lat="43.99747" lon="5.14559">
        <ele>301.8</ele>
        <time>2013-03-07T14:17:51Z</time>
      </trkpt>
      <trkpt lat="43.99745" lon="5.1456">
        <ele>301.7</ele>
        <time>2013-03-07T14:17:52Z</time>
      </trkpt>
      <trkpt lat="43.99741" lon="5.14561">
        <ele>301.3</ele>
        <time>2013-03-07T14:17:54Z</time>
      </trkpt>
      <trkpt lat="43.99741" lon="5.14562">
        <ele>301.5</ele>
        <time>2013-03-07T14:17:55Z</time>
      </trkpt>
      <trkpt lat="43.99737" lon="5.14564">
        <ele>302.3</ele>
        <time>2013-03-07T14:17:57Z</time>
      </trkpt>
      <trkpt lat="43.99736" lon="5.14567">
        <ele>302.8</ele>
        <time>2013-03-07T14:17:58Z</time>
      </trkpt>
      <trkpt lat="43.99735" lon="5.14571">
        <ele>304.1</ele>
        <time>2013-03-07T14:17:59Z</time>
      </trkpt>
      <trkpt lat="43.99732" lon="5.14572">
        <ele>304.5</ele>
        <time>2013-03-07T14:18:00Z</time>
      </trkpt>
      <trkpt lat="43.99729" lon="5.14574">
        <ele>307.1</ele>
        <time>2013-03-07T14:18:04Z</time>
      </trkpt>
      <trkpt lat="43.99727" lon="5.14576">
        <ele>308</ele>
        <time>2013-03-07T14:18:05Z</time>
      </trkpt>
      <trkpt lat="43.99727" lon="5.1458">
        <ele>309</ele>
        <time>2013-03-07T14:18:08Z</time>
      </trkpt>
      <trkpt lat="43.99728" lon="5.14583">
        <ele>308.3</ele>
        <time>2013-03-07T14:18:09Z</time>
      </trkpt>
      <trkpt lat="43.99726" lon="5.14587">
        <ele>307.6</ele>
        <time>2013-03-07T14:18:13Z</time>
      </trkpt>
      <trkpt lat="43.99724" lon="5.14588">
        <ele>307.6</ele>
        <time>2013-03-07T14:18:14Z</time>
      </trkpt>
      <trkpt lat="43.99721" lon="5.14592">
        <ele>308.9</ele>
        <time>2013-03-07T14:18:17Z</time>
      </trkpt>
      <trkpt lat="43.99719" lon="5.14596">
        <ele>309.8</ele>
        <time>2013-03-07T14:18:18Z</time>
      </trkpt>
      <trkpt lat="43.99715" lon="5.14597">
        <ele>310.7</ele>
        <time>2013-03-07T14:18:19Z</time>
      </trkpt>
      <trkpt lat="43.99713" lon="5.14598">
        <ele>311.1</ele>
        <time>2013-03-07T14:18:20Z</time>
      </trkpt>
      <trkpt lat="43.99711" lon="5.14602">
        <ele>310.6</ele>
        <time>2013-03-07T14:18:22Z</time>
      </trkpt>
      <trkpt lat="43.99711" lon="5.14604">
        <ele>311</ele>
        <time>2013-03-07T14:18:23Z</time>
      </trkpt>
      <trkpt lat="43.99709" lon="5.14609">
        <ele>312.7</ele>
        <time>2013-03-07T14:18:26Z</time>
      </trkpt>
      <trkpt lat="43.99707" lon="5.1461">
        <ele>313.1</ele>
        <time>2013-03-07T14:18:27Z</time>
      </trkpt>
      <trkpt lat="43.99705" lon="5.14611">
        <ele>313.7</ele>
        <time>2013-03-07T14:18:34Z</time>
      </trkpt>
      <trkpt lat="43.99703" lon="5.14615">
        <ele>314.5</ele>
        <time>2013-03-07T14:18:35Z</time>
      </trkpt>
      <trkpt lat="43.99702" lon="5.14616">
        <ele>314.1</ele>
        <time>2013-03-07T14:18:36Z</time>
      </trkpt>
      <trkpt lat="43.99699" lon="5.14619">
        <ele>313.8</ele>
        <time>2013-03-07T14:18:37Z</time>
      </trkpt>
      <trkpt lat="43.99697" lon="5.14621">
        <ele>313.4</ele>
        <time>2013-03-07T14:18:38Z</time>
      </trkpt>
      <trkpt lat="43.99695" lon="5.14622">
        <ele>313.4</ele>
        <time>2013-03-07T14:18:39Z</time>
      </trkpt>
      <trkpt lat="43.99693" lon="5.14627">
        <ele>313.9</ele>
        <time>2013-03-07T14:18:42Z</time>
      </trkpt>
      <trkpt lat="43.99691" lon="5.14628">
        <ele>314.2</ele>
        <time>2013-03-07T14:18:43Z</time>
      </trkpt>
      <trkpt lat="43.99689" lon="5.14623">
        <ele>315</ele>
        <time>2013-03-07T14:18:48Z</time>
      </trkpt>
      <trkpt lat="43.99686" lon="5.14622">
        <ele>314.8</ele>
        <time>2013-03-07T14:18:49Z</time>
      </trkpt>
      <trkpt lat="43.99683" lon="5.14621">
        <ele>315</ele>
        <time>2013-03-07T14:18:51Z</time>
      </trkpt>
      <trkpt lat="43.99682" lon="5.14618">
        <ele>315</ele>
        <time>2013-03-07T14:18:52Z</time>
      </trkpt>
      <trkpt lat="43.99681" lon="5.14615">
        <ele>314</ele>
        <time>2013-03-07T14:18:54Z</time>
      </trkpt>
      <trkpt lat="43.99678" lon="5.14612">
        <ele>313.9</ele>
        <time>2013-03-07T14:18:55Z</time>
      </trkpt>
      <trkpt lat="43.99675" lon="5.14608">
        <ele>313.7</ele>
        <time>2013-03-07T14:18:57Z</time>
      </trkpt>
      <trkpt lat="43.99675" lon="5.14607">
        <ele>313.6</ele>
        <time>2013-03-07T14:18:58Z</time>
      </trkpt>
      <trkpt lat="43.99676" lon="5.14603">
        <ele>314</ele>
        <time>2013-03-07T14:19:00Z</time>
      </trkpt>
      <trkpt lat="43.99676" lon="5.14599">
        <ele>314.4</ele>
        <time>2013-03-07T14:19:01Z</time>
      </trkpt>
      <trkpt lat="43.99673" lon="5.14595">
        <ele>314.7</ele>
        <time>2013-03-07T14:19:03Z</time>
      </trkpt>
      <trkpt lat="43.99673" lon="5.14591">
        <ele>314.5</ele>
        <time>2013-03-07T14:19:04Z</time>
      </trkpt>
      <trkpt lat="43.99672" lon="5.14586">
        <ele>314.5</ele>
        <time>2013-03-07T14:19:07Z</time>
      </trkpt>
      <trkpt lat="43.99673" lon="5.14584">
        <ele>314.1</ele>
        <time>2013-03-07T14:19:08Z</time>
      </trkpt>
      <trkpt lat="43.99675" lon="5.14579">
        <ele>313.6</ele>
        <time>2013-03-07T14:19:10Z</time>
      </trkpt>
      <trkpt lat="43.99674" lon="5.14577">
        <ele>312.8</ele>
        <time>2013-03-07T14:19:11Z</time>
      </trkpt>
      <trkpt lat="43.99678" lon="5.14576">
        <ele>319.4</ele>
        <time>2013-03-07T14:19:15Z</time>
      </trkpt>
      <trkpt lat="43.99679" lon="5.14577">
        <ele>320.2</ele>
        <time>2013-03-07T14:19:16Z</time>
      </trkpt>
      <trkpt lat="43.99682" lon="5.14572">
        <ele>324.8</ele>
        <time>2013-03-07T14:19:24Z</time>
      </trkpt>
      <trkpt lat="43.99682" lon="5.14572">
        <ele>325</ele>
        <time>2013-03-07T14:19:25Z</time>
      </trkpt>
      <trkpt lat="43.99686" lon="5.14571">
        <ele>324.7</ele>
        <time>2013-03-07T14:19:28Z</time>
      </trkpt>
      <trkpt lat="43.99687" lon="5.14569">
        <ele>324.8</ele>
        <time>2013-03-07T14:19:29Z</time>
      </trkpt>
      <trkpt lat="43.99692" lon="5.14567">
        <ele>324.6</ele>
        <time>2013-03-07T14:19:32Z</time>
      </trkpt>
      <trkpt lat="43.99692" lon="5.14568">
        <ele>324.7</ele>
        <time>2013-03-07T14:19:33Z</time>
      </trkpt>
      <trkpt lat="43.99694" lon="5.14573">
        <ele>326.1</ele>
        <time>2013-03-07T14:19:36Z</time>
      </trkpt>
      <trkpt lat="43.99692" lon="5.14575">
        <ele>326.5</ele>
        <time>2013-03-07T14:19:37Z</time>
      </trkpt>
      <trkpt lat="43.9969" lon="5.14579">
        <ele>326.5</ele>
        <time>2013-03-07T14:19:39Z</time>
      </trkpt>
      <trkpt lat="43.99689" lon="5.14581">
        <ele>327.1</ele>
        <time>2013-03-07T14:19:40Z</time>
      </trkpt>
      <trkpt lat="43.99687" lon="5.14585">
        <ele>328.2</ele>
        <time>2013-03-07T14:19:42Z</time>
      </trkpt>
      <trkpt lat="43.99686" lon="5.14586">
        <ele>328.4</ele>
        <time>2013-03-07T14:19:43Z</time>
      </trkpt>
      <trkpt lat="43.99686" lon="5.14588">
        <ele>328.3</ele>
        <time>2013-03-07T14:19:47Z</time>
      </trkpt>
      <trkpt lat="43.99682" lon="5.1459">
        <ele>326.9</ele>
        <time>2013-03-07T14:19:48Z</time>
      </trkpt>
      <trkpt lat="43.99678" lon="5.14592">
        <ele>326.3</ele>
        <time>2013-03-07T14:19:49Z</time>
      </trkpt>
      <trkpt lat="43.99676" lon="5.14595">
        <ele>325.9</ele>
        <time>2013-03-07T14:19:50Z</time>
      </trkpt>
      <trkpt lat="43.99676" lon="5.146">
        <ele>325.8</ele>
        <time>2013-03-07T14:19:52Z</time>
      </trkpt>
      <trkpt lat="43.99675" lon="5.14603">
        <ele>327.2</ele>
        <time>2013-03-07T14:19:53Z</time>
      </trkpt>
      <trkpt lat="43.99676" lon="5.14609">
        <ele>329.2</ele>
        <time>2013-03-07T14:19:55Z</time>
      </trkpt>
      <trkpt lat="43.99676" lon="5.14612">
        <ele>329.2</ele>
        <time>2013-03-07T14:19:56Z</time>
      </trkpt>
      <trkpt lat="43.99673" lon="5.14613">
        <ele>328.9</ele>
        <time>2013-03-07T14:19:57Z</time>
      </trkpt>
      <trkpt lat="43.99671" lon="5.14615">
        <ele>328.6</ele>
        <time>2013-03-07T14:19:58Z</time>
      </trkpt>
      <trkpt lat="43.99667" lon="5.14619">
        <ele>328.7</ele>
        <time>2013-03-07T14:20:00Z</time>
      </trkpt>
      <trkpt lat="43.99667" lon="5.14619">
        <ele>329</ele>
        <time>2013-03-07T14:20:01Z</time>
      </trkpt>
      <trkpt lat="43.99666" lon="5.14624">
        <ele>330.1</ele>
        <time>2013-03-07T14:20:03Z</time>
      </trkpt>
      <trkpt lat="43.99666" lon="5.14625">
        <ele>329.9</ele>
        <time>2013-03-07T14:20:04Z</time>
      </trkpt>
      <trkpt lat="43.99663" lon="5.14629">
        <ele>330.4</ele>
        <time>2013-03-07T14:20:08Z</time>
      </trkpt>
      <trkpt lat="43.9966" lon="5.14631">
        <ele>330.1</ele>
        <time>2013-03-07T14:20:09Z</time>
      </trkpt>
      <trkpt lat="43.99657" lon="5.14632">
        <ele>329.9</ele>
        <time>2013-03-07T14:20:10Z</time>
      </trkpt>
      <trkpt lat="43.99655" lon="5.14633">
        <ele>329.9</ele>
        <time>2013-03-07T14:20:11Z</time>
      </trkpt>
      <trkpt lat="43.99652" lon="5.14636">
        <ele>330</ele>
        <time>2013-03-07T14:20:14Z</time>
      </trkpt>
      <trkpt lat="43.9965" lon="5.1464">
        <ele>329.9</ele>
        <time>2013-03-07T14:20:15Z</time>
      </trkpt>
      <trkpt lat="43.99647" lon="5.14641">
        <ele>330.1</ele>
        <time>2013-03-07T14:20:16Z</time>
      </trkpt>
      <trkpt lat="43.99644" lon="5.14642">
        <ele>330.2</ele>
        <time>2013-03-07T14:20:17Z</time>
      </trkpt>
      <trkpt lat="43.9964" lon="5.14643">
        <ele>329.9</ele>
        <time>2013-03-07T14:20:19Z</time>
      </trkpt>
      <trkpt lat="43.99639" lon="5.14645">
        <ele>330.4</ele>
        <time>2013-03-07T14:20:20Z</time>
      </trkpt>
      <trkpt lat="43.99636" lon="5.14647">
        <ele>330.7</ele>
        <time>2013-03-07T14:20:21Z</time>
      </trkpt>
      <trkpt lat="43.99628" lon="5.1465">
        <ele>329.8</ele>
        <time>2013-03-07T14:20:22Z</time>
      </trkpt>
      <trkpt lat="43.99624" lon="5.14652">
        <ele>330.5</ele>
        <time>2013-03-07T14:20:24Z</time>
      </trkpt>
      <trkpt lat="43.99623" lon="5.14652">
        <ele>330.6</ele>
        <time>2013-03-07T14:20:25Z</time>
      </trkpt>
      <trkpt lat="43.9962" lon="5.14654">
        <ele>330.4</ele>
        <time>2013-03-07T14:20:26Z</time>
      </trkpt>
      <trkpt lat="43.99618" lon="5.14656">
        <ele>330.2</ele>
        <time>2013-03-07T14:20:27Z</time>
      </trkpt>
      <trkpt lat="43.99615" lon="5.14658">
        <ele>332.2</ele>
        <time>2013-03-07T14:20:29Z</time>
      </trkpt>
      <trkpt lat="43.99614" lon="5.14661">
        <ele>332.8</ele>
        <time>2013-03-07T14:20:30Z</time>
      </trkpt>
      <trkpt lat="43.99611" lon="5.14665">
        <ele>333.9</ele>
        <time>2013-03-07T14:20:34Z</time>
      </trkpt>
      <trkpt lat="43.99611" lon="5.14666">
        <ele>333.5</ele>
        <time>2013-03-07T14:20:35Z</time>
      </trkpt>
      <trkpt lat="43.99608" lon="5.14669">
        <ele>334.9</ele>
        <time>2013-03-07T14:20:39Z</time>
      </trkpt>
      <trkpt lat="43.99607" lon="5.14671">
        <ele>335.4</ele>
        <time>2013-03-07T14:20:40Z</time>
      </trkpt>
      <trkpt lat="43.99606" lon="5.14675">
        <ele>337.3</ele>
        <time>2013-03-07T14:20:45Z</time>
      </trkpt>
      <trkpt lat="43.99604" lon="5.14677">
        <ele>337.3</ele>
        <time>2013-03-07T14:20:46Z</time>
      </trkpt>
      <trkpt lat="43.99601" lon="5.14678">
        <ele>337.5</ele>
        <time>2013-03-07T14:20:49Z</time>
      </trkpt>
      <trkpt lat="43.99598" lon="5.14678">
        <ele>337.7</ele>
        <time>2013-03-07T14:20:50Z</time>
      </trkpt>
      <trkpt lat="43.99595" lon="5.1468">
        <ele>337.9</ele>
        <time>2013-03-07T14:20:52Z</time>
      </trkpt>
      <trkpt lat="43.99593" lon="5.1468">
        <ele>338</ele>
        <time>2013-03-07T14:20:53Z</time>
      </trkpt>
      <trkpt lat="43.99589" lon="5.14681">
        <ele>337.6</ele>
        <time>2013-03-07T14:20:56Z</time>
      </trkpt>
      <trkpt lat="43.99586" lon="5.14683">
        <ele>337.4</ele>
        <time>2013-03-07T14:20:57Z</time>
      </trkpt>
      <trkpt lat="43.99581" lon="5.14682">
        <ele>337.7</ele>
        <time>2013-03-07T14:20:59Z</time>
      </trkpt>
      <trkpt lat="43.99575" lon="5.14683">
        <ele>337.6</ele>
        <time>2013-03-07T14:21:00Z</time>
      </trkpt>
      <trkpt lat="43.99571" lon="5.14683">
        <ele>337.6</ele>
        <time>2013-03-07T14:21:01Z</time>
      </trkpt>
      <trkpt lat="43.99569" lon="5.14683">
        <ele>337.6</ele>
        <time>2013-03-07T14:21:02Z</time>
      </trkpt>
      <trkpt lat="43.99564" lon="5.14685">
        <ele>337.2</ele>
        <time>2013-03-07T14:21:03Z</time>
      </trkpt>
      <trkpt lat="43.9956" lon="5.14684">
        <ele>337.5</ele>
        <time>2013-03-07T14:21:04Z</time>
      </trkpt>
      <trkpt lat="43.99556" lon="5.14685">
        <ele>337.5</ele>
        <time>2013-03-07T14:21:05Z</time>
      </trkpt>
      <trkpt lat="43.99555" lon="5.14687">
        <ele>337.8</ele>
        <time>2013-03-07T14:21:06Z</time>
      </trkpt>
      <trkpt lat="43.99554" lon="5.14692">
        <ele>337.3</ele>
        <time>2013-03-07T14:21:07Z</time>
      </trkpt>
      <trkpt lat="43.99552" lon="5.14695">
        <ele>337.1</ele>
        <time>2013-03-07T14:21:09Z</time>
      </trkpt>
      <trkpt lat="43.99549" lon="5.14698">
        <ele>336.9</ele>
        <time>2013-03-07T14:21:10Z</time>
      </trkpt>
      <trkpt lat="43.99546" lon="5.14701">
        <ele>337.7</ele>
        <time>2013-03-07T14:21:11Z</time>
      </trkpt>
      <trkpt lat="43.99544" lon="5.14705">
        <ele>337.2</ele>
        <time>2013-03-07T14:21:12Z</time>
      </trkpt>
      <trkpt lat="43.99541" lon="5.14705">
        <ele>337.2</ele>
        <time>2013-03-07T14:21:14Z</time>
      </trkpt>
      <trkpt lat="43.9954" lon="5.14704">
        <ele>337.3</ele>
        <time>2013-03-07T14:21:15Z</time>
      </trkpt>
      <trkpt lat="43.99537" lon="5.147">
        <ele>336.7</ele>
        <time>2013-03-07T14:21:19Z</time>
      </trkpt>
      <trkpt lat="43.99537" lon="5.14697">
        <ele>336.7</ele>
        <time>2013-03-07T14:21:20Z</time>
      </trkpt>
      <trkpt lat="43.99534" lon="5.14696">
        <ele>337.3</ele>
        <time>2013-03-07T14:21:22Z</time>
      </trkpt>
      <trkpt lat="43.99531" lon="5.147">
        <ele>338.7</ele>
        <time>2013-03-07T14:21:23Z</time>
      </trkpt>
      <trkpt lat="43.9953" lon="5.147">
        <ele>338.7</ele>
        <time>2013-03-07T14:21:24Z</time>
      </trkpt>
      <trkpt lat="43.99523" lon="5.14704">
        <ele>338.3</ele>
        <time>2013-03-07T14:21:25Z</time>
      </trkpt>
      <trkpt lat="43.99519" lon="5.14704">
        <ele>336.5</ele>
        <time>2013-03-07T14:21:26Z</time>
      </trkpt>
      <trkpt lat="43.99517" lon="5.14706">
        <ele>336</ele>
        <time>2013-03-07T14:21:27Z</time>
      </trkpt>
      <trkpt lat="43.99514" lon="5.14708">
        <ele>335.4</ele>
        <time>2013-03-07T14:21:28Z</time>
      </trkpt>
      <trkpt lat="43.99512" lon="5.1471">
        <ele>334.6</ele>
        <time>2013-03-07T14:21:29Z</time>
      </trkpt>
      <trkpt lat="43.9951" lon="5.14713">
        <ele>336</ele>
        <time>2013-03-07T14:21:30Z</time>
      </trkpt>
      <trkpt lat="43.99507" lon="5.14712">
        <ele>336.6</ele>
        <time>2013-03-07T14:21:31Z</time>
      </trkpt>
      <trkpt lat="43.99505" lon="5.14715">
        <ele>336.5</ele>
        <time>2013-03-07T14:21:33Z</time>
      </trkpt>
      <trkpt lat="43.99503" lon="5.14716">
        <ele>336.7</ele>
        <time>2013-03-07T14:21:34Z</time>
      </trkpt>
      <trkpt lat="43.99502" lon="5.14718">
        <ele>336.6</ele>
        <time>2013-03-07T14:21:35Z</time>
      </trkpt>
      <trkpt lat="43.995" lon="5.14721">
        <ele>336.8</ele>
        <time>2013-03-07T14:21:36Z</time>
      </trkpt>
      <trkpt lat="43.99496" lon="5.14718">
        <ele>338.1</ele>
        <time>2013-03-07T14:21:48Z</time>
      </trkpt>
      <trkpt lat="43.99495" lon="5.14718">
        <ele>338.9</ele>
        <time>2013-03-07T14:21:49Z</time>
      </trkpt>
      <trkpt lat="43.99493" lon="5.1472">
        <ele>337</ele>
        <time>2013-03-07T14:23:28Z</time>
      </trkpt>
      <trkpt lat="43.9949" lon="5.14721">
        <ele>337.6</ele>
        <time>2013-03-07T14:23:29Z</time>
      </trkpt>
      <trkpt lat="43.99488" lon="5.14721">
        <ele>337.6</ele>
        <time>2013-03-07T14:23:30Z</time>
      </trkpt>
      <trkpt lat="43.99485" lon="5.14721">
        <ele>337.4</ele>
        <time>2013-03-07T14:23:31Z</time>
      </trkpt>
      <trkpt lat="43.99481" lon="5.14722">
        <ele>336</ele>
        <time>2013-03-07T14:23:32Z</time>
      </trkpt>
      <trkpt lat="43.99478" lon="5.14723">
        <ele>335.8</ele>
        <time>2013-03-07T14:23:33Z</time>
      </trkpt>
      <trkpt lat="43.99475" lon="5.14722">
        <ele>335.2</ele>
        <time>2013-03-07T14:23:34Z</time>
      </trkpt>
      <trkpt lat="43.99471" lon="5.14724">
        <ele>335.1</ele>
        <time>2013-03-07T14:23:35Z</time>
      </trkpt>
      <trkpt lat="43.99467" lon="5.14725">
        <ele>335.8</ele>
        <time>2013-03-07T14:23:36Z</time>
      </trkpt>
      <trkpt lat="43.99463" lon="5.14725">
        <ele>335.8</ele>
        <time>2013-03-07T14:23:37Z</time>
      </trkpt>
      <trkpt lat="43.99459" lon="5.14726">
        <ele>334.6</ele>
        <time>2013-03-07T14:23:38Z</time>
      </trkpt>
      <trkpt lat="43.99455" lon="5.14726">
        <ele>334</ele>
        <time>2013-03-07T14:23:39Z</time>
      </trkpt>
      <trkpt lat="43.99452" lon="5.14727">
        <ele>334.8</ele>
        <time>2013-03-07T14:23:40Z</time>
      </trkpt>
      <trkpt lat="43.99448" lon="5.14727">
        <ele>334.5</ele>
        <time>2013-03-07T14:23:41Z</time>
      </trkpt>
      <trkpt lat="43.99445" lon="5.14727">
        <ele>334.1</ele>
        <time>2013-03-07T14:23:42Z</time>
      </trkpt>
      <trkpt lat="43.99441" lon="5.14728">
        <ele>334.2</ele>
        <time>2013-03-07T14:23:43Z</time>
      </trkpt>
      <trkpt lat="43.99437" lon="5.14728">
        <ele>333.4</ele>
        <time>2013-03-07T14:23:44Z</time>
      </trkpt>
      <trkpt lat="43.99433" lon="5.14729">
        <ele>333</ele>
        <time>2013-03-07T14:23:45Z</time>
      </trkpt>
      <trkpt lat="43.9943" lon="5.1473">
        <ele>332.7</ele>
        <time>2013-03-07T14:23:46Z</time>
      </trkpt>
      <trkpt lat="43.99426" lon="5.14731">
        <ele>332.9</ele>
        <time>2013-03-07T14:23:47Z</time>
      </trkpt>
      <trkpt lat="43.99423" lon="5.14732">
        <ele>332.3</ele>
        <time>2013-03-07T14:23:48Z</time>
      </trkpt>
      <trkpt lat="43.99419" lon="5.14733">
        <ele>331.5</ele>
        <time>2013-03-07T14:23:49Z</time>
      </trkpt>
      <trkpt lat="43.99416" lon="5.14733">
        <ele>331.5</ele>
        <time>2013-03-07T14:23:50Z</time>
      </trkpt>
      <trkpt lat="43.99412" lon="5.14732">
        <ele>331.3</ele>
        <time>2013-03-07T14:23:51Z</time>
      </trkpt>
      <trkpt lat="43.99408" lon="5.14731">
        <ele>331.3</ele>
        <time>2013-03-07T14:23:52Z</time>
      </trkpt>
      <trkpt lat="43.99404" lon="5.14734">
        <ele>331.2</ele>
        <time>2013-03-07T14:23:53Z</time>
      </trkpt>
      <trkpt lat="43.994" lon="5.14734">
        <ele>331.3</ele>
        <time>2013-03-07T14:23:54Z</time>
      </trkpt>
      <trkpt lat="43.99395" lon="5.14735">
        <ele>331.1</ele>
        <time>2013-03-07T14:23:55Z</time>
      </trkpt>
      <trkpt lat="43.9939" lon="5.14735">
        <ele>332.6</ele>
        <time>2013-03-07T14:23:56Z</time>
      </trkpt>
      <trkpt lat="43.99385" lon="5.14736">
        <ele>332.4</ele>
        <time>2013-03-07T14:23:57Z</time>
      </trkpt>
      <trkpt lat="43.9938" lon="5.14737">
        <ele>331.9</ele>
        <time>2013-03-07T14:23:58Z</time>
      </trkpt>
      <trkpt lat="43.99374" lon="5.14738">
        <ele>331.8</ele>
        <time>2013-03-07T14:23:59Z</time>
      </trkpt>
      <trkpt lat="43.9937" lon="5.14739">
        <ele>332</ele>
        <time>2013-03-07T14:24:00Z</time>
      </trkpt>
      <trkpt lat="43.99366" lon="5.14741">
        <ele>332</ele>
        <time>2013-03-07T14:24:01Z</time>
      </trkpt>
      <trkpt lat="43.99358" lon="5.14741">
        <ele>331.4</ele>
        <time>2013-03-07T14:24:02Z</time>
      </trkpt>
      <trkpt lat="43.99352" lon="5.14743">
        <ele>331.4</ele>
        <time>2013-03-07T14:24:03Z</time>
      </trkpt>
      <trkpt lat="43.99346" lon="5.14744">
        <ele>331.6</ele>
        <time>2013-03-07T14:24:04Z</time>
      </trkpt>
      <trkpt lat="43.99339" lon="5.14744">
        <ele>331.9</ele>
        <time>2013-03-07T14:24:05Z</time>
      </trkpt>
      <trkpt lat="43.99334" lon="5.14745">
        <ele>332</ele>
        <time>2013-03-07T14:24:06Z</time>
      </trkpt>
      <trkpt lat="43.99328" lon="5.14747">
        <ele>331.8</ele>
        <time>2013-03-07T14:24:07Z</time>
      </trkpt>
      <trkpt lat="43.99323" lon="5.14749">
        <ele>332</ele>
        <time>2013-03-07T14:24:08Z</time>
      </trkpt>
      <trkpt lat="43.99318" lon="5.14749">
        <ele>332.1</ele>
        <time>2013-03-07T14:24:09Z</time>
      </trkpt>
      <trkpt lat="43.99313" lon="5.14749">
        <ele>332</ele>
        <time>2013-03-07T14:24:10Z</time>
      </trkpt>
      <trkpt lat="43.99309" lon="5.14748">
        <ele>331.8</ele>
        <time>2013-03-07T14:24:11Z</time>
      </trkpt>
      <trkpt lat="43.99305" lon="5.14748">
        <ele>331.9</ele>
        <time>2013-03-07T14:24:12Z</time>
      </trkpt>
      <trkpt lat="43.99301" lon="5.14748">
        <ele>331.8</ele>
        <time>2013-03-07T14:24:13Z</time>
      </trkpt>
      <trkpt lat="43.99299" lon="5.14745">
        <ele>331.9</ele>
        <time>2013-03-07T14:24:14Z</time>
      </trkpt>
      <trkpt lat="43.99297" lon="5.14742">
        <ele>332</ele>
        <time>2013-03-07T14:24:15Z</time>
      </trkpt>
      <trkpt lat="43.99294" lon="5.14738">
        <ele>332</ele>
        <time>2013-03-07T14:24:16Z</time>
      </trkpt>
      <trkpt lat="43.99293" lon="5.14728">
        <ele>332.3</ele>
        <time>2013-03-07T14:24:17Z</time>
      </trkpt>
      <trkpt lat="43.99291" lon="5.14722">
        <ele>334.3</ele>
        <time>2013-03-07T14:24:18Z</time>
      </trkpt>
      <trkpt lat="43.99289" lon="5.14718">
        <ele>334.8</ele>
        <time>2013-03-07T14:24:19Z</time>
      </trkpt>
      <trkpt lat="43.99288" lon="5.14715">
        <ele>335.1</ele>
        <time>2013-03-07T14:24:20Z</time>
      </trkpt>
      <trkpt lat="43.99286" lon="5.1471">
        <ele>335.5</ele>
        <time>2013-03-07T14:24:22Z</time>
      </trkpt>
      <trkpt lat="43.99286" lon="5.14708">
        <ele>335.6</ele>
        <time>2013-03-07T14:24:23Z</time>
      </trkpt>
      <trkpt lat="43.99286" lon="5.14703">
        <ele>336.3</ele>
        <time>2013-03-07T14:24:27Z</time>
      </trkpt>
      <trkpt lat="43.99288" lon="5.147">
        <ele>336.5</ele>
        <time>2013-03-07T14:24:28Z</time>
      </trkpt>
      <trkpt lat="43.9929" lon="5.14695">
        <ele>336.9</ele>
        <time>2013-03-07T14:24:31Z</time>
      </trkpt>
      <trkpt lat="43.9929" lon="5.14693">
        <ele>336.9</ele>
        <time>2013-03-07T14:24:32Z</time>
      </trkpt>
      <trkpt lat="43.99292" lon="5.14688">
        <ele>337</ele>
        <time>2013-03-07T14:24:45Z</time>
      </trkpt>
      <trkpt lat="43.99293" lon="5.14688">
        <ele>337</ele>
        <time>2013-03-07T14:24:46Z</time>
      </trkpt>
      <trkpt lat="43.99293" lon="5.14687">
        <ele>336.6</ele>
        <time>2013-03-07T14:25:07Z</time>
      </trkpt>
      <trkpt lat="43.99296" lon="5.14683">
        <ele>337</ele>
        <time>2013-03-07T14:25:08Z</time>
      </trkpt>
      <trkpt lat="43.99298" lon="5.14681">
        <ele>337.7</ele>
        <time>2013-03-07T14:25:09Z</time>
      </trkpt>
      <trkpt lat="43.993" lon="5.14679">
        <ele>337.1</ele>
        <time>2013-03-07T14:25:10Z</time>
      </trkpt>
      <trkpt lat="43.99301" lon="5.14675">
        <ele>337.3</ele>
        <time>2013-03-07T14:25:12Z</time>
      </trkpt>
      <trkpt lat="43.99302" lon="5.14673">
        <ele>337.4</ele>
        <time>2013-03-07T14:25:13Z</time>
      </trkpt>
      <trkpt lat="43.99304" lon="5.14668">
        <ele>338.6</ele>
        <time>2013-03-07T14:25:20Z</time>
      </trkpt>
      <trkpt lat="43.99304" lon="5.14667">
        <ele>339.3</ele>
        <time>2013-03-07T14:25:21Z</time>
      </trkpt>
      <trkpt lat="43.99305" lon="5.1466">
        <ele>340.4</ele>
        <time>2013-03-07T14:25:29Z</time>
      </trkpt>
      <trkpt lat="43.99305" lon="5.1466">
        <ele>340.4</ele>
        <time>2013-03-07T14:25:30Z</time>
      </trkpt>
      <trkpt lat="43.99304" lon="5.14654">
        <ele>340.6</ele>
        <time>2013-03-07T14:25:34Z</time>
      </trkpt>
      <trkpt lat="43.99303" lon="5.14653">
        <ele>340.4</ele>
        <time>2013-03-07T14:25:35Z</time>
      </trkpt>
      <trkpt lat="43.99301" lon="5.14647">
        <ele>340.9</ele>
        <time>2013-03-07T14:25:50Z</time>
      </trkpt>
      <trkpt lat="43.993" lon="5.14648">
        <ele>340.5</ele>
        <time>2013-03-07T14:25:51Z</time>
      </trkpt>
      <trkpt lat="43.99298" lon="5.14644">
        <ele>342.3</ele>
        <time>2013-03-07T14:25:56Z</time>
      </trkpt>
      <trkpt lat="43.99297" lon="5.14642">
        <ele>342</ele>
        <time>2013-03-07T14:25:57Z</time>
      </trkpt>
      <trkpt lat="43.99299" lon="5.14636">
        <ele>340.1</ele>
        <time>2013-03-07T14:26:00Z</time>
      </trkpt>
      <trkpt lat="43.99299" lon="5.14634">
        <ele>339.3</ele>
        <time>2013-03-07T14:26:01Z</time>
      </trkpt>
      <trkpt lat="43.99299" lon="5.14629">
        <ele>338.1</ele>
        <time>2013-03-07T14:26:03Z</time>
      </trkpt>
      <trkpt lat="43.99297" lon="5.14627">
        <ele>338.2</ele>
        <time>2013-03-07T14:26:04Z</time>
      </trkpt>
      <trkpt lat="43.99295" lon="5.14623">
        <ele>338.6</ele>
        <time>2013-03-07T14:26:06Z</time>
      </trkpt>
      <trkpt lat="43.99294" lon="5.14621">
        <ele>338.7</ele>
        <time>2013-03-07T14:26:07Z</time>
      </trkpt>
      <trkpt lat="43.99292" lon="5.14618">
        <ele>337.3</ele>
        <time>2013-03-07T14:26:11Z</time>
      </trkpt>
      <trkpt lat="43.99292" lon="5.14614">
        <ele>337.5</ele>
        <time>2013-03-07T14:26:12Z</time>
      </trkpt>
      <trkpt lat="43.99291" lon="5.14612">
        <ele>337</ele>
        <time>2013-03-07T14:26:14Z</time>
      </trkpt>
      <trkpt lat="43.99291" lon="5.14608">
        <ele>337</ele>
        <time>2013-03-07T14:26:15Z</time>
      </trkpt>
      <trkpt lat="43.99287" lon="5.14606">
        <ele>343.3</ele>
        <time>2013-03-07T14:26:25Z</time>
      </trkpt>
      <trkpt lat="43.99286" lon="5.14605">
        <ele>343.9</ele>
        <time>2013-03-07T14:26:26Z</time>
      </trkpt>
      <trkpt lat="43.99284" lon="5.14601">
        <ele>344.6</ele>
        <time>2013-03-07T14:26:31Z</time>
      </trkpt>
      <trkpt lat="43.99284" lon="5.14599">
        <ele>344.5</ele>
        <time>2013-03-07T14:26:32Z</time>
      </trkpt>
      <trkpt lat="43.99284" lon="5.14594">
        <ele>345.3</ele>
        <time>2013-03-07T14:26:36Z</time>
      </trkpt>
      <trkpt lat="43.99285" lon="5.14593">
        <ele>345.3</ele>
        <time>2013-03-07T14:26:37Z</time>
      </trkpt>
      <trkpt lat="43.99284" lon="5.14589">
        <ele>344.2</ele>
        <time>2013-03-07T14:26:42Z</time>
      </trkpt>
      <trkpt lat="43.99284" lon="5.14585">
        <ele>345.6</ele>
        <time>2013-03-07T14:26:43Z</time>
      </trkpt>
      <trkpt lat="43.99283" lon="5.14581">
        <ele>346.5</ele>
        <time>2013-03-07T14:26:46Z</time>
      </trkpt>
      <trkpt lat="43.99282" lon="5.1458">
        <ele>346.3</ele>
        <time>2013-03-07T14:26:47Z</time>
      </trkpt>
      <trkpt lat="43.99281" lon="5.14574">
        <ele>347.2</ele>
        <time>2013-03-07T14:26:50Z</time>
      </trkpt>
      <trkpt lat="43.99281" lon="5.14572">
        <ele>347.2</ele>
        <time>2013-03-07T14:26:51Z</time>
      </trkpt>
      <trkpt lat="43.99279" lon="5.14568">
        <ele>348.5</ele>
        <time>2013-03-07T14:26:54Z</time>
      </trkpt>
      <trkpt lat="43.99279" lon="5.14565">
        <ele>349</ele>
        <time>2013-03-07T14:26:55Z</time>
      </trkpt>
      <trkpt lat="43.99278" lon="5.14562">
        <ele>349.1</ele>
        <time>2013-03-07T14:26:57Z</time>
      </trkpt>
      <trkpt lat="43.99277" lon="5.14559">
        <ele>348.8</ele>
        <time>2013-03-07T14:26:58Z</time>
      </trkpt>
      <trkpt lat="43.99276" lon="5.14557">
        <ele>348.3</ele>
        <time>2013-03-07T14:26:59Z</time>
      </trkpt>
      <trkpt lat="43.99275" lon="5.14553">
        <ele>348.1</ele>
        <time>2013-03-07T14:27:00Z</time>
      </trkpt>
      <trkpt lat="43.99274" lon="5.1455">
        <ele>348.8</ele>
        <time>2013-03-07T14:27:01Z</time>
      </trkpt>
      <trkpt lat="43.99273" lon="5.14547">
        <ele>348</ele>
        <time>2013-03-07T14:27:02Z</time>
      </trkpt>
      <trkpt lat="43.99273" lon="5.14545">
        <ele>348.2</ele>
        <time>2013-03-07T14:27:03Z</time>
      </trkpt>
      <trkpt lat="43.99271" lon="5.14541">
        <ele>348.2</ele>
        <time>2013-03-07T14:27:04Z</time>
      </trkpt>
      <trkpt lat="43.9927" lon="5.14537">
        <ele>347.8</ele>
        <time>2013-03-07T14:27:05Z</time>
      </trkpt>
      <trkpt lat="43.99268" lon="5.14533">
        <ele>347.8</ele>
        <time>2013-03-07T14:27:06Z</time>
      </trkpt>
      <trkpt lat="43.99266" lon="5.14528">
        <ele>348.2</ele>
        <time>2013-03-07T14:27:07Z</time>
      </trkpt>
      <trkpt lat="43.99264" lon="5.14522">
        <ele>347.5</ele>
        <time>2013-03-07T14:27:08Z</time>
      </trkpt>
      <trkpt lat="43.9926" lon="5.14518">
        <ele>348.2</ele>
        <time>2013-03-07T14:27:09Z</time>
      </trkpt>
      <trkpt lat="43.99258" lon="5.14515">
        <ele>348.3</ele>
        <time>2013-03-07T14:27:10Z</time>
      </trkpt>
      <trkpt lat="43.99256" lon="5.14511">
        <ele>348.4</ele>
        <time>2013-03-07T14:27:11Z</time>
      </trkpt>
      <trkpt lat="43.99255" lon="5.14509">
        <ele>348.2</ele>
        <time>2013-03-07T14:27:12Z</time>
      </trkpt>
      <trkpt lat="43.99253" lon="5.14506">
        <ele>348.8</ele>
        <time>2013-03-07T14:27:13Z</time>
      </trkpt>
      <trkpt lat="43.99249" lon="5.14503">
        <ele>348.8</ele>
        <time>2013-03-07T14:27:14Z</time>
      </trkpt>
      <trkpt lat="43.99252" lon="5.145">
        <ele>341.7</ele>
        <time>2013-03-07T14:27:15Z</time>
      </trkpt>
      <trkpt lat="43.99251" lon="5.14494">
        <ele>340.5</ele>
        <time>2013-03-07T14:27:16Z</time>
      </trkpt>
      <trkpt lat="43.99252" lon="5.14489">
        <ele>339.4</ele>
        <time>2013-03-07T14:27:28Z</time>
      </trkpt>
      <trkpt lat="43.99252" lon="5.14488">
        <ele>339.1</ele>
        <time>2013-03-07T14:27:29Z</time>
      </trkpt>
      <trkpt lat="43.99251" lon="5.14485">
        <ele>340.8</ele>
        <time>2013-03-07T14:28:09Z</time>
      </trkpt>
      <trkpt lat="43.99252" lon="5.14482">
        <ele>341.7</ele>
        <time>2013-03-07T14:28:10Z</time>
      </trkpt>
      <trkpt lat="43.99253" lon="5.14476">
        <ele>340.8</ele>
        <time>2013-03-07T14:28:12Z</time>
      </trkpt>
      <trkpt lat="43.99255" lon="5.14473">
        <ele>340.2</ele>
        <time>2013-03-07T14:28:13Z</time>
      </trkpt>
      <trkpt lat="43.99256" lon="5.1447">
        <ele>340.5</ele>
        <time>2013-03-07T14:28:14Z</time>
      </trkpt>
      <trkpt lat="43.99258" lon="5.14467">
        <ele>339.8</ele>
        <time>2013-03-07T14:28:15Z</time>
      </trkpt>
      <trkpt lat="43.99261" lon="5.14463">
        <ele>339.6</ele>
        <time>2013-03-07T14:28:16Z</time>
      </trkpt>
      <trkpt lat="43.99263" lon="5.1446">
        <ele>339.7</ele>
        <time>2013-03-07T14:28:17Z</time>
      </trkpt>
      <trkpt lat="43.99266" lon="5.14457">
        <ele>339.7</ele>
        <time>2013-03-07T14:28:18Z</time>
      </trkpt>
      <trkpt lat="43.99268" lon="5.14453">
        <ele>339.7</ele>
        <time>2013-03-07T14:28:19Z</time>
      </trkpt>
      <trkpt lat="43.99271" lon="5.14449">
        <ele>339.9</ele>
        <time>2013-03-07T14:28:20Z</time>
      </trkpt>
      <trkpt lat="43.99274" lon="5.14444">
        <ele>340.3</ele>
        <time>2013-03-07T14:28:21Z</time>
      </trkpt>
      <trkpt lat="43.99277" lon="5.14439">
        <ele>340.4</ele>
        <time>2013-03-07T14:28:22Z</time>
      </trkpt>
      <trkpt lat="43.9928" lon="5.14434">
        <ele>340.3</ele>
        <time>2013-03-07T14:28:23Z</time>
      </trkpt>
      <trkpt lat="43.99283" lon="5.1443">
        <ele>340.4</ele>
        <time>2013-03-07T14:28:24Z</time>
      </trkpt>
      <trkpt lat="43.99286" lon="5.14425">
        <ele>341.3</ele>
        <time>2013-03-07T14:28:25Z</time>
      </trkpt>
      <trkpt lat="43.99289" lon="5.1442">
        <ele>341.2</ele>
        <time>2013-03-07T14:28:26Z</time>
      </trkpt>
      <trkpt lat="43.99293" lon="5.14417">
        <ele>341.4</ele>
        <time>2013-03-07T14:28:27Z</time>
      </trkpt>
      <trkpt lat="43.99296" lon="5.14413">
        <ele>341.2</ele>
        <time>2013-03-07T14:28:28Z</time>
      </trkpt>
      <trkpt lat="43.99299" lon="5.14408">
        <ele>341.3</ele>
        <time>2013-03-07T14:28:29Z</time>
      </trkpt>
      <trkpt lat="43.99301" lon="5.14404">
        <ele>341.4</ele>
        <time>2013-03-07T14:28:30Z</time>
      </trkpt>
      <trkpt lat="43.99305" lon="5.14399">
        <ele>341.8</ele>
        <time>2013-03-07T14:28:31Z</time>
      </trkpt>
      <trkpt lat="43.99307" lon="5.14395">
        <ele>341.8</ele>
        <time>2013-03-07T14:28:32Z</time>
      </trkpt>
      <trkpt lat="43.9931" lon="5.1439">
        <ele>341.6</ele>
        <time>2013-03-07T14:28:33Z</time>
      </trkpt>
      <trkpt lat="43.99313" lon="5.14386">
        <ele>341.3</ele>
        <time>2013-03-07T14:28:34Z</time>
      </trkpt>
      <trkpt lat="43.99315" lon="5.14383">
        <ele>340.8</ele>
        <time>2013-03-07T14:28:35Z</time>
      </trkpt>
      <trkpt lat="43.99317" lon="5.1438">
        <ele>340.6</ele>
        <time>2013-03-07T14:28:36Z</time>
      </trkpt>
      <trkpt lat="43.99319" lon="5.14376">
        <ele>340.1</ele>
        <time>2013-03-07T14:28:37Z</time>
      </trkpt>
      <trkpt lat="43.99321" lon="5.14372">
        <ele>340.6</ele>
        <time>2013-03-07T14:28:38Z</time>
      </trkpt>
      <trkpt lat="43.99325" lon="5.1437">
        <ele>342.4</ele>
        <time>2013-03-07T14:28:48Z</time>
      </trkpt>
      <trkpt lat="43.99327" lon="5.14372">
        <ele>343.8</ele>
        <time>2013-03-07T14:28:49Z</time>
      </trkpt>
      <trkpt lat="43.99327" lon="5.14376">
        <ele>345.2</ele>
        <time>2013-03-07T14:28:51Z</time>
      </trkpt>
      <trkpt lat="43.99325" lon="5.1438">
        <ele>345.7</ele>
        <time>2013-03-07T14:28:52Z</time>
      </trkpt>
      <trkpt lat="43.99324" lon="5.14384">
        <ele>346.4</ele>
        <time>2013-03-07T14:28:54Z</time>
      </trkpt>
      <trkpt lat="43.99323" lon="5.14387">
        <ele>346.5</ele>
        <time>2013-03-07T14:28:55Z</time>
      </trkpt>
      <trkpt lat="43.99321" lon="5.14391">
        <ele>346.6</ele>
        <time>2013-03-07T14:28:56Z</time>
      </trkpt>
      <trkpt lat="43.99319" lon="5.14393">
        <ele>346.6</ele>
        <time>2013-03-07T14:28:57Z</time>
      </trkpt>
      <trkpt lat="43.99315" lon="5.14396">
        <ele>346</ele>
        <time>2013-03-07T14:28:58Z</time>
      </trkpt>
      <trkpt lat="43.9931" lon="5.14399">
        <ele>345.6</ele>
        <time>2013-03-07T14:28:59Z</time>
      </trkpt>
      <trkpt lat="43.99307" lon="5.14402">
        <ele>345.6</ele>
        <time>2013-03-07T14:29:00Z</time>
      </trkpt>
      <trkpt lat="43.99302" lon="5.14405">
        <ele>344.9</ele>
        <time>2013-03-07T14:29:01Z</time>
      </trkpt>
      <trkpt lat="43.99299" lon="5.14409">
        <ele>345.1</ele>
        <time>2013-03-07T14:29:02Z</time>
      </trkpt>
      <trkpt lat="43.99297" lon="5.14414">
        <ele>344.4</ele>
        <time>2013-03-07T14:29:03Z</time>
      </trkpt>
      <trkpt lat="43.99295" lon="5.14418">
        <ele>344</ele>
        <time>2013-03-07T14:29:04Z</time>
      </trkpt>
      <trkpt lat="43.99292" lon="5.14421">
        <ele>344.3</ele>
        <time>2013-03-07T14:29:05Z</time>
      </trkpt>
      <trkpt lat="43.9929" lon="5.14425">
        <ele>344</ele>
        <time>2013-03-07T14:29:06Z</time>
      </trkpt>
      <trkpt lat="43.99288" lon="5.14429">
        <ele>344</ele>
        <time>2013-03-07T14:29:07Z</time>
      </trkpt>
      <trkpt lat="43.99285" lon="5.14434">
        <ele>344.2</ele>
        <time>2013-03-07T14:29:08Z</time>
      </trkpt>
      <trkpt lat="43.99278" lon="5.14439">
        <ele>343.5</ele>
        <time>2013-03-07T14:29:09Z</time>
      </trkpt>
      <trkpt lat="43.99276" lon="5.14442">
        <ele>343.5</ele>
        <time>2013-03-07T14:29:10Z</time>
      </trkpt>
      <trkpt lat="43.99274" lon="5.14446">
        <ele>344.3</ele>
        <time>2013-03-07T14:29:11Z</time>
      </trkpt>
      <trkpt lat="43.99272" lon="5.1445">
        <ele>345.8</ele>
        <time>2013-03-07T14:29:12Z</time>
      </trkpt>
      <trkpt lat="43.99272" lon="5.14452">
        <ele>348</ele>
        <time>2013-03-07T14:29:13Z</time>
      </trkpt>
      <trkpt lat="43.9927" lon="5.14454">
        <ele>349.2</ele>
        <time>2013-03-07T14:29:14Z</time>
      </trkpt>
      <trkpt lat="43.99269" lon="5.14458">
        <ele>349.9</ele>
        <time>2013-03-07T14:29:15Z</time>
      </trkpt>
      <trkpt lat="43.99268" lon="5.14462">
        <ele>348.8</ele>
        <time>2013-03-07T14:29:16Z</time>
      </trkpt>
      <trkpt lat="43.99267" lon="5.14465">
        <ele>348</ele>
        <time>2013-03-07T14:29:17Z</time>
      </trkpt>
      <trkpt lat="43.99265" lon="5.14469">
        <ele>347.1</ele>
        <time>2013-03-07T14:29:18Z</time>
      </trkpt>
      <trkpt lat="43.99265" lon="5.14471">
        <ele>350.3</ele>
        <time>2013-03-07T14:29:19Z</time>
      </trkpt>
      <trkpt lat="43.99258" lon="5.14477">
        <ele>348.2</ele>
        <time>2013-03-07T14:29:20Z</time>
      </trkpt>
      <trkpt lat="43.99255" lon="5.14481">
        <ele>347.1</ele>
        <time>2013-03-07T14:29:21Z</time>
      </trkpt>
      <trkpt lat="43.99252" lon="5.14483">
        <ele>346.8</ele>
        <time>2013-03-07T14:29:22Z</time>
      </trkpt>
      <trkpt lat="43.9925" lon="5.14487">
        <ele>346.8</ele>
        <time>2013-03-07T14:29:23Z</time>
      </trkpt>
      <trkpt lat="43.99247" lon="5.14489">
        <ele>346.8</ele>
        <time>2013-03-07T14:29:24Z</time>
      </trkpt>
      <trkpt lat="43.99244" lon="5.14492">
        <ele>346.4</ele>
        <time>2013-03-07T14:29:25Z</time>
      </trkpt>
      <trkpt lat="43.9924" lon="5.14494">
        <ele>346.4</ele>
        <time>2013-03-07T14:29:26Z</time>
      </trkpt>
      <trkpt lat="43.99237" lon="5.14495">
        <ele>346.8</ele>
        <time>2013-03-07T14:29:27Z</time>
      </trkpt>
      <trkpt lat="43.99233" lon="5.14497">
        <ele>346.6</ele>
        <time>2013-03-07T14:29:28Z</time>
      </trkpt>
      <trkpt lat="43.99229" lon="5.14497">
        <ele>346.5</ele>
        <time>2013-03-07T14:29:29Z</time>
      </trkpt>
      <trkpt lat="43.99226" lon="5.14497">
        <ele>346.4</ele>
        <time>2013-03-07T14:29:30Z</time>
      </trkpt>
      <trkpt lat="43.99223" lon="5.14497">
        <ele>346.1</ele>
        <time>2013-03-07T14:29:31Z</time>
      </trkpt>
      <trkpt lat="43.9922" lon="5.14497">
        <ele>345.8</ele>
        <time>2013-03-07T14:29:32Z</time>
      </trkpt>
      <trkpt lat="43.99217" lon="5.14495">
        <ele>345.1</ele>
        <time>2013-03-07T14:29:33Z</time>
      </trkpt>
      <trkpt lat="43.99213" lon="5.14493">
        <ele>344.8</ele>
        <time>2013-03-07T14:29:34Z</time>
      </trkpt>
      <trkpt lat="43.9921" lon="5.14492">
        <ele>344.2</ele>
        <time>2013-03-07T14:29:35Z</time>
      </trkpt>
      <trkpt lat="43.99206" lon="5.1449">
        <ele>343.8</ele>
        <time>2013-03-07T14:29:36Z</time>
      </trkpt>
      <trkpt lat="43.99202" lon="5.14488">
        <ele>343.6</ele>
        <time>2013-03-07T14:29:37Z</time>
      </trkpt>
      <trkpt lat="43.99198" lon="5.14485">
        <ele>343.6</ele>
        <time>2013-03-07T14:29:38Z</time>
      </trkpt>
      <trkpt lat="43.99193" lon="5.14483">
        <ele>343.6</ele>
        <time>2013-03-07T14:29:39Z</time>
      </trkpt>
      <trkpt lat="43.99189" lon="5.1448">
        <ele>343.2</ele>
        <time>2013-03-07T14:29:40Z</time>
      </trkpt>
      <trkpt lat="43.99185" lon="5.14477">
        <ele>342.9</ele>
        <time>2013-03-07T14:29:41Z</time>
      </trkpt>
      <trkpt lat="43.9918" lon="5.14475">
        <ele>342.9</ele>
        <time>2013-03-07T14:29:42Z</time>
      </trkpt>
      <trkpt lat="43.99176" lon="5.14475">
        <ele>342.9</ele>
        <time>2013-03-07T14:29:43Z</time>
      </trkpt>
      <trkpt lat="43.99172" lon="5.14475">
        <ele>343</ele>
        <time>2013-03-07T14:29:44Z</time>
      </trkpt>
      <trkpt lat="43.99168" lon="5.14476">
        <ele>343</ele>
        <time>2013-03-07T14:29:45Z</time>
      </trkpt>
      <trkpt lat="43.99165" lon="5.14477">
        <ele>343.1</ele>
        <time>2013-03-07T14:29:46Z</time>
      </trkpt>
      <trkpt lat="43.99162" lon="5.14479">
        <ele>343.4</ele>
        <time>2013-03-07T14:29:47Z</time>
      </trkpt>
      <trkpt lat="43.99158" lon="5.14481">
        <ele>343.9</ele>
        <time>2013-03-07T14:29:48Z</time>
      </trkpt>
      <trkpt lat="43.99155" lon="5.14483">
        <ele>343.7</ele>
        <time>2013-03-07T14:29:49Z</time>
      </trkpt>
      <trkpt lat="43.99152" lon="5.14485">
        <ele>344</ele>
        <time>2013-03-07T14:29:50Z</time>
      </trkpt>
      <trkpt lat="43.99149" lon="5.14486">
        <ele>344.3</ele>
        <time>2013-03-07T14:29:51Z</time>
      </trkpt>
      <trkpt lat="43.99147" lon="5.14488">
        <ele>344.7</ele>
        <time>2013-03-07T14:29:52Z</time>
      </trkpt>
      <trkpt lat="43.99144" lon="5.14489">
        <ele>345</ele>
        <time>2013-03-07T14:29:53Z</time>
      </trkpt>
      <trkpt lat="43.99141" lon="5.14491">
        <ele>345.3</ele>
        <time>2013-03-07T14:29:54Z</time>
      </trkpt>
      <trkpt lat="43.99139" lon="5.14492">
        <ele>345.6</ele>
        <time>2013-03-07T14:29:55Z</time>
      </trkpt>
      <trkpt lat="43.99136" lon="5.14494">
        <ele>346.3</ele>
        <time>2013-03-07T14:29:56Z</time>
      </trkpt>
      <trkpt lat="43.99133" lon="5.14496">
        <ele>346.5</ele>
        <time>2013-03-07T14:29:57Z</time>
      </trkpt>
      <trkpt lat="43.99131" lon="5.14497">
        <ele>346.6</ele>
        <time>2013-03-07T14:29:58Z</time>
      </trkpt>
      <trkpt lat="43.99128" lon="5.14499">
        <ele>346.6</ele>
        <time>2013-03-07T14:29:59Z</time>
      </trkpt>
      <trkpt lat="43.99125" lon="5.14501">
        <ele>346.7</ele>
        <time>2013-03-07T14:30:00Z</time>
      </trkpt>
      <trkpt lat="43.99122" lon="5.14502">
        <ele>347</ele>
        <time>2013-03-07T14:30:01Z</time>
      </trkpt>
      <trkpt lat="43.9912" lon="5.14504">
        <ele>347.3</ele>
        <time>2013-03-07T14:30:02Z</time>
      </trkpt>
      <trkpt lat="43.99117" lon="5.14506">
        <ele>347.6</ele>
        <time>2013-03-07T14:30:03Z</time>
      </trkpt>
      <trkpt lat="43.99114" lon="5.14508">
        <ele>348.3</ele>
        <time>2013-03-07T14:30:04Z</time>
      </trkpt>
      <trkpt lat="43.99112" lon="5.1451">
        <ele>348.9</ele>
        <time>2013-03-07T14:30:05Z</time>
      </trkpt>
      <trkpt lat="43.9911" lon="5.14511">
        <ele>349.3</ele>
        <time>2013-03-07T14:30:06Z</time>
      </trkpt>
      <trkpt lat="43.99108" lon="5.14514">
        <ele>349.7</ele>
        <time>2013-03-07T14:30:07Z</time>
      </trkpt>
      <trkpt lat="43.99108" lon="5.14519">
        <ele>349.7</ele>
        <time>2013-03-07T14:30:08Z</time>
      </trkpt>
      <trkpt lat="43.99106" lon="5.14523">
        <ele>349.8</ele>
        <time>2013-03-07T14:30:09Z</time>
      </trkpt>
      <trkpt lat="43.99104" lon="5.14526">
        <ele>349.8</ele>
        <time>2013-03-07T14:30:10Z</time>
      </trkpt>
      <trkpt lat="43.99104" lon="5.1453">
        <ele>349.8</ele>
        <time>2013-03-07T14:30:11Z</time>
      </trkpt>
      <trkpt lat="43.99103" lon="5.14532">
        <ele>349.6</ele>
        <time>2013-03-07T14:30:12Z</time>
      </trkpt>
      <trkpt lat="43.99103" lon="5.14536">
        <ele>349.4</ele>
        <time>2013-03-07T14:30:13Z</time>
      </trkpt>
      <trkpt lat="43.99102" lon="5.1454">
        <ele>349.8</ele>
        <time>2013-03-07T14:30:14Z</time>
      </trkpt>
      <trkpt lat="43.99101" lon="5.14545">
        <ele>349.9</ele>
        <time>2013-03-07T14:30:16Z</time>
      </trkpt>
      <trkpt lat="43.991" lon="5.14548">
        <ele>349.7</ele>
        <time>2013-03-07T14:30:17Z</time>
      </trkpt>
      <trkpt lat="43.99097" lon="5.14552">
        <ele>349.9</ele>
        <time>2013-03-07T14:30:19Z</time>
      </trkpt>
      <trkpt lat="43.99095" lon="5.14554">
        <ele>349.8</ele>
        <time>2013-03-07T14:30:20Z</time>
      </trkpt>
      <trkpt lat="43.99093" lon="5.14557">
        <ele>349.7</ele>
        <time>2013-03-07T14:30:21Z</time>
      </trkpt>
      <trkpt lat="43.99091" lon="5.14559">
        <ele>349.4</ele>
        <time>2013-03-07T14:30:22Z</time>
      </trkpt>
      <trkpt lat="43.99088" lon="5.14558">
        <ele>349.9</ele>
        <time>2013-03-07T14:30:23Z</time>
      </trkpt>
      <trkpt lat="43.99086" lon="5.14558">
        <ele>349.4</ele>
        <time>2013-03-07T14:30:24Z</time>
      </trkpt>
      <trkpt lat="43.99083" lon="5.14558">
        <ele>349.7</ele>
        <time>2013-03-07T14:30:25Z</time>
      </trkpt>
      <trkpt lat="43.99081" lon="5.14559">
        <ele>349.6</ele>
        <time>2013-03-07T14:30:26Z</time>
      </trkpt>
      <trkpt lat="43.99078" lon="5.14559">
        <ele>349.8</ele>
        <time>2013-03-07T14:30:27Z</time>
      </trkpt>
      <trkpt lat="43.99075" lon="5.1456">
        <ele>349.9</ele>
        <time>2013-03-07T14:30:28Z</time>
      </trkpt>
      <trkpt lat="43.99073" lon="5.1456">
        <ele>350.3</ele>
        <time>2013-03-07T14:30:29Z</time>
      </trkpt>
      <trkpt lat="43.9907" lon="5.14561">
        <ele>350.3</ele>
        <time>2013-03-07T14:30:30Z</time>
      </trkpt>
      <trkpt lat="43.99067" lon="5.14562">
        <ele>350.5</ele>
        <time>2013-03-07T14:30:31Z</time>
      </trkpt>
      <trkpt lat="43.99064" lon="5.14563">
        <ele>350.5</ele>
        <time>2013-03-07T14:30:32Z</time>
      </trkpt>
      <trkpt lat="43.99061" lon="5.14565">
        <ele>350.5</ele>
        <time>2013-03-07T14:30:33Z</time>
      </trkpt>
      <trkpt lat="43.99059" lon="5.14566">
        <ele>350.4</ele>
        <time>2013-03-07T14:30:34Z</time>
      </trkpt>
      <trkpt lat="43.99056" lon="5.14568">
        <ele>350.2</ele>
        <time>2013-03-07T14:30:35Z</time>
      </trkpt>
      <trkpt lat="43.99053" lon="5.1457">
        <ele>350.5</ele>
        <time>2013-03-07T14:30:36Z</time>
      </trkpt>
      <trkpt lat="43.9905" lon="5.14572">
        <ele>350.5</ele>
        <time>2013-03-07T14:30:37Z</time>
      </trkpt>
      <trkpt lat="43.99048" lon="5.14574">
        <ele>350.5</ele>
        <time>2013-03-07T14:30:38Z</time>
      </trkpt>
      <trkpt lat="43.99045" lon="5.14575">
        <ele>350.5</ele>
        <time>2013-03-07T14:30:39Z</time>
      </trkpt>
      <trkpt lat="43.99042" lon="5.14577">
        <ele>350.4</ele>
        <time>2013-03-07T14:30:40Z</time>
      </trkpt>
      <trkpt lat="43.99039" lon="5.14579">
        <ele>350.3</ele>
        <time>2013-03-07T14:30:41Z</time>
      </trkpt>
      <trkpt lat="43.99036" lon="5.14582">
        <ele>350.3</ele>
        <time>2013-03-07T14:30:42Z</time>
      </trkpt>
      <trkpt lat="43.99033" lon="5.14586">
        <ele>350.3</ele>
        <time>2013-03-07T14:30:43Z</time>
      </trkpt>
      <trkpt lat="43.99031" lon="5.14589">
        <ele>350.7</ele>
        <time>2013-03-07T14:30:44Z</time>
      </trkpt>
      <trkpt lat="43.99029" lon="5.14591">
        <ele>351.1</ele>
        <time>2013-03-07T14:30:45Z</time>
      </trkpt>
      <trkpt lat="43.99026" lon="5.14594">
        <ele>351.8</ele>
        <time>2013-03-07T14:30:46Z</time>
      </trkpt>
      <trkpt lat="43.99024" lon="5.14596">
        <ele>351.9</ele>
        <time>2013-03-07T14:30:47Z</time>
      </trkpt>
      <trkpt lat="43.99022" lon="5.14599">
        <ele>352.1</ele>
        <time>2013-03-07T14:30:48Z</time>
      </trkpt>
      <trkpt lat="43.99019" lon="5.14602">
        <ele>352</ele>
        <time>2013-03-07T14:30:49Z</time>
      </trkpt>
      <trkpt lat="43.99017" lon="5.14604">
        <ele>352.4</ele>
        <time>2013-03-07T14:30:50Z</time>
      </trkpt>
      <trkpt lat="43.99014" lon="5.14607">
        <ele>352.5</ele>
        <time>2013-03-07T14:30:51Z</time>
      </trkpt>
      <trkpt lat="43.99012" lon="5.1461">
        <ele>352.6</ele>
        <time>2013-03-07T14:30:52Z</time>
      </trkpt>
      <trkpt lat="43.9901" lon="5.14612">
        <ele>352.6</ele>
        <time>2013-03-07T14:30:53Z</time>
      </trkpt>
      <trkpt lat="43.99008" lon="5.14615">
        <ele>352.7</ele>
        <time>2013-03-07T14:30:54Z</time>
      </trkpt>
      <trkpt lat="43.99005" lon="5.14617">
        <ele>352.8</ele>
        <time>2013-03-07T14:30:55Z</time>
      </trkpt>
      <trkpt lat="43.99003" lon="5.1462">
        <ele>352.8</ele>
        <time>2013-03-07T14:30:56Z</time>
      </trkpt>
      <trkpt lat="43.99001" lon="5.14623">
        <ele>353</ele>
        <time>2013-03-07T14:30:57Z</time>
      </trkpt>
      <trkpt lat="43.98999" lon="5.14625">
        <ele>353.3</ele>
        <time>2013-03-07T14:30:58Z</time>
      </trkpt>
      <trkpt lat="43.98996" lon="5.14627">
        <ele>353.3</ele>
        <time>2013-03-07T14:30:59Z</time>
      </trkpt>
      <trkpt lat="43.98994" lon="5.1463">
        <ele>352.8</ele>
        <time>2013-03-07T14:31:00Z</time>
      </trkpt>
      <trkpt lat="43.98992" lon="5.14632">
        <ele>353.1</ele>
        <time>2013-03-07T14:31:01Z</time>
      </trkpt>
      <trkpt lat="43.9899" lon="5.14635">
        <ele>353.2</ele>
        <time>2013-03-07T14:31:02Z</time>
      </trkpt>
      <trkpt lat="43.98988" lon="5.14637">
        <ele>353.3</ele>
        <time>2013-03-07T14:31:03Z</time>
      </trkpt>
      <trkpt lat="43.98986" lon="5.1464">
        <ele>353.6</ele>
        <time>2013-03-07T14:31:04Z</time>
      </trkpt>
      <trkpt lat="43.98984" lon="5.14642">
        <ele>353.8</ele>
        <time>2013-03-07T14:31:05Z</time>
      </trkpt>
      <trkpt lat="43.98982" lon="5.14645">
        <ele>354</ele>
        <time>2013-03-07T14:31:06Z</time>
      </trkpt>
      <trkpt lat="43.9898" lon="5.14648">
        <ele>354</ele>
        <time>2013-03-07T14:31:07Z</time>
      </trkpt>
      <trkpt lat="43.98978" lon="5.1465">
        <ele>354.2</ele>
        <time>2013-03-07T14:31:08Z</time>
      </trkpt>
      <trkpt lat="43.98977" lon="5.14652">
        <ele>354.8</ele>
        <time>2013-03-07T14:31:09Z</time>
      </trkpt>
      <trkpt lat="43.98974" lon="5.14655">
        <ele>354.9</ele>
        <time>2013-03-07T14:31:10Z</time>
      </trkpt>
      <trkpt lat="43.98972" lon="5.14658">
        <ele>354.9</ele>
        <time>2013-03-07T14:31:11Z</time>
      </trkpt>
      <trkpt lat="43.9897" lon="5.1466">
        <ele>354.4</ele>
        <time>2013-03-07T14:31:12Z</time>
      </trkpt>
      <trkpt lat="43.98968" lon="5.14663">
        <ele>353.6</ele>
        <time>2013-03-07T14:31:13Z</time>
      </trkpt>
      <trkpt lat="43.98966" lon="5.14665">
        <ele>354.4</ele>
        <time>2013-03-07T14:31:14Z</time>
      </trkpt>
      <trkpt lat="43.98963" lon="5.14667">
        <ele>353.7</ele>
        <time>2013-03-07T14:31:15Z</time>
      </trkpt>
      <trkpt lat="43.98961" lon="5.1467">
        <ele>353.3</ele>
        <time>2013-03-07T14:31:16Z</time>
      </trkpt>
      <trkpt lat="43.98959" lon="5.14673">
        <ele>352.7</ele>
        <time>2013-03-07T14:31:17Z</time>
      </trkpt>
      <trkpt lat="43.98957" lon="5.14675">
        <ele>352.8</ele>
        <time>2013-03-07T14:31:18Z</time>
      </trkpt>
      <trkpt lat="43.98953" lon="5.14677">
        <ele>353.2</ele>
        <time>2013-03-07T14:31:21Z</time>
      </trkpt>
      <trkpt lat="43.98951" lon="5.14676">
        <ele>353.5</ele>
        <time>2013-03-07T14:31:22Z</time>
      </trkpt>
      <trkpt lat="43.98948" lon="5.14672">
        <ele>353.5</ele>
        <time>2013-03-07T14:31:24Z</time>
      </trkpt>
      <trkpt lat="43.98945" lon="5.14668">
        <ele>352.5</ele>
        <time>2013-03-07T14:31:25Z</time>
      </trkpt>
      <trkpt lat="43.98943" lon="5.14664">
        <ele>352.5</ele>
        <time>2013-03-07T14:31:26Z</time>
      </trkpt>
      <trkpt lat="43.98941" lon="5.1466">
        <ele>352.3</ele>
        <time>2013-03-07T14:31:27Z</time>
      </trkpt>
      <trkpt lat="43.98938" lon="5.14655">
        <ele>351.9</ele>
        <time>2013-03-07T14:31:28Z</time>
      </trkpt>
      <trkpt lat="43.98935" lon="5.14651">
        <ele>351.9</ele>
        <time>2013-03-07T14:31:29Z</time>
      </trkpt>
      <trkpt lat="43.98931" lon="5.14644">
        <ele>351.1</ele>
        <time>2013-03-07T14:31:30Z</time>
      </trkpt>
      <trkpt lat="43.98927" lon="5.14638">
        <ele>350.6</ele>
        <time>2013-03-07T14:31:31Z</time>
      </trkpt>
      <trkpt lat="43.98922" lon="5.14632">
        <ele>351.5</ele>
        <time>2013-03-07T14:31:32Z</time>
      </trkpt>
      <trkpt lat="43.98917" lon="5.14626">
        <ele>353</ele>
        <time>2013-03-07T14:31:33Z</time>
      </trkpt>
      <trkpt lat="43.98913" lon="5.14618">
        <ele>352</ele>
        <time>2013-03-07T14:31:34Z</time>
      </trkpt>
      <trkpt lat="43.98908" lon="5.14611">
        <ele>351.6</ele>
        <time>2013-03-07T14:31:35Z</time>
      </trkpt>
      <trkpt lat="43.98904" lon="5.14604">
        <ele>351</ele>
        <time>2013-03-07T14:31:36Z</time>
      </trkpt>
      <trkpt lat="43.98901" lon="5.14596">
        <ele>350.4</ele>
        <time>2013-03-07T14:31:37Z</time>
      </trkpt>
      <trkpt lat="43.98897" lon="5.14589">
        <ele>349.3</ele>
        <time>2013-03-07T14:31:38Z</time>
      </trkpt>
      <trkpt lat="43.98893" lon="5.14583">
        <ele>348.6</ele>
        <time>2013-03-07T14:31:39Z</time>
      </trkpt>
      <trkpt lat="43.9889" lon="5.14577">
        <ele>348.4</ele>
        <time>2013-03-07T14:31:40Z</time>
      </trkpt>
      <trkpt lat="43.98886" lon="5.14572">
        <ele>348.1</ele>
        <time>2013-03-07T14:31:41Z</time>
      </trkpt>
      <trkpt lat="43.98883" lon="5.14567">
        <ele>347.6</ele>
        <time>2013-03-07T14:31:42Z</time>
      </trkpt>
      <trkpt lat="43.9888" lon="5.14562">
        <ele>347.3</ele>
        <time>2013-03-07T14:31:43Z</time>
      </trkpt>
      <trkpt lat="43.98877" lon="5.14557">
        <ele>347.2</ele>
        <time>2013-03-07T14:31:44Z</time>
      </trkpt>
      <trkpt lat="43.98874" lon="5.14552">
        <ele>346.4</ele>
        <time>2013-03-07T14:31:45Z</time>
      </trkpt>
      <trkpt lat="43.98871" lon="5.14547">
        <ele>346.4</ele>
        <time>2013-03-07T14:31:46Z</time>
      </trkpt>
      <trkpt lat="43.98866" lon="5.14543">
        <ele>347.4</ele>
        <time>2013-03-07T14:31:47Z</time>
      </trkpt>
      <trkpt lat="43.98865" lon="5.14543">
        <ele>349</ele>
        <time>2013-03-07T14:31:48Z</time>
      </trkpt>
      <trkpt lat="43.98869" lon="5.1455">
        <ele>351.5</ele>
        <time>2013-03-07T14:31:49Z</time>
      </trkpt>
      <trkpt lat="43.98867" lon="5.14553">
        <ele>353.8</ele>
        <time>2013-03-07T14:31:50Z</time>
      </trkpt>
      <trkpt lat="43.98862" lon="5.14546">
        <ele>357.1</ele>
        <time>2013-03-07T14:31:51Z</time>
      </trkpt>
      <trkpt lat="43.98856" lon="5.14541">
        <ele>357.9</ele>
        <time>2013-03-07T14:31:52Z</time>
      </trkpt>
      <trkpt lat="43.98853" lon="5.1453">
        <ele>357.2</ele>
        <time>2013-03-07T14:31:53Z</time>
      </trkpt>
      <trkpt lat="43.98846" lon="5.14521">
        <ele>361.3</ele>
        <time>2013-03-07T14:31:54Z</time>
      </trkpt>
      <trkpt lat="43.98842" lon="5.14514">
        <ele>359.8</ele>
        <time>2013-03-07T14:31:55Z</time>
      </trkpt>
      <trkpt lat="43.98838" lon="5.14508">
        <ele>357.4</ele>
        <time>2013-03-07T14:31:56Z</time>
      </trkpt>
      <trkpt lat="43.98835" lon="5.14504">
        <ele>356.1</ele>
        <time>2013-03-07T14:31:57Z</time>
      </trkpt>
      <trkpt lat="43.98832" lon="5.14502">
        <ele>355.3</ele>
        <time>2013-03-07T14:31:58Z</time>
      </trkpt>
      <trkpt lat="43.98829" lon="5.14505">
        <ele>354.5</ele>
        <time>2013-03-07T14:31:59Z</time>
      </trkpt>
      <trkpt lat="43.98825" lon="5.14505">
        <ele>352.8</ele>
        <time>2013-03-07T14:32:00Z</time>
      </trkpt>
      <trkpt lat="43.98822" lon="5.14505">
        <ele>352.1</ele>
        <time>2013-03-07T14:32:01Z</time>
      </trkpt>
      <trkpt lat="43.98818" lon="5.14505">
        <ele>351.5</ele>
        <time>2013-03-07T14:32:02Z</time>
      </trkpt>
      <trkpt lat="43.98816" lon="5.14501">
        <ele>349.9</ele>
        <time>2013-03-07T14:32:03Z</time>
      </trkpt>
      <trkpt lat="43.98813" lon="5.14499">
        <ele>348.7</ele>
        <time>2013-03-07T14:32:04Z</time>
      </trkpt>
      <trkpt lat="43.9881" lon="5.14497">
        <ele>347.6</ele>
        <time>2013-03-07T14:32:05Z</time>
      </trkpt>
      <trkpt lat="43.98812" lon="5.14492">
        <ele>345.6</ele>
        <time>2013-03-07T14:32:06Z</time>
      </trkpt>
      <trkpt lat="43.98814" lon="5.14488">
        <ele>342.7</ele>
        <time>2013-03-07T14:32:07Z</time>
      </trkpt>
      <trkpt lat="43.98817" lon="5.14486">
        <ele>340.4</ele>
        <time>2013-03-07T14:32:08Z</time>
      </trkpt>
      <trkpt lat="43.9882" lon="5.14483">
        <ele>338.2</ele>
        <time>2013-03-07T14:32:09Z</time>
      </trkpt>
      <trkpt lat="43.98822" lon="5.14481">
        <ele>336.9</ele>
        <time>2013-03-07T14:32:10Z</time>
      </trkpt>
      <trkpt lat="43.98825" lon="5.14477">
        <ele>335.5</ele>
        <time>2013-03-07T14:32:11Z</time>
      </trkpt>
      <trkpt lat="43.98828" lon="5.14472">
        <ele>334.2</ele>
        <time>2013-03-07T14:32:12Z</time>
      </trkpt>
      <trkpt lat="43.9883" lon="5.14469">
        <ele>333.5</ele>
        <time>2013-03-07T14:32:13Z</time>
      </trkpt>
      <trkpt lat="43.98831" lon="5.14467">
        <ele>332.7</ele>
        <time>2013-03-07T14:32:14Z</time>
      </trkpt>
      <trkpt lat="43.98833" lon="5.14462">
        <ele>331.7</ele>
        <time>2013-03-07T14:32:16Z</time>
      </trkpt>
      <trkpt lat="43.98834" lon="5.1446">
        <ele>331.3</ele>
        <time>2013-03-07T14:32:17Z</time>
      </trkpt>
      <trkpt lat="43.98837" lon="5.14456">
        <ele>329.7</ele>
        <time>2013-03-07T14:32:19Z</time>
      </trkpt>
      <trkpt lat="43.98838" lon="5.14454">
        <ele>329</ele>
        <time>2013-03-07T14:32:20Z</time>
      </trkpt>
      <trkpt lat="43.9884" lon="5.14451">
        <ele>328.2</ele>
        <time>2013-03-07T14:32:21Z</time>
      </trkpt>
      <trkpt lat="43.98843" lon="5.14447">
        <ele>327</ele>
        <time>2013-03-07T14:32:22Z</time>
      </trkpt>
      <trkpt lat="43.98846" lon="5.14443">
        <ele>325.7</ele>
        <time>2013-03-07T14:32:23Z</time>
      </trkpt>
      <trkpt lat="43.98847" lon="5.1444">
        <ele>325.3</ele>
        <time>2013-03-07T14:32:24Z</time>
      </trkpt>
      <trkpt lat="43.98844" lon="5.14438">
        <ele>324</ele>
        <time>2013-03-07T14:32:27Z</time>
      </trkpt>
      <trkpt lat="43.98841" lon="5.14439">
        <ele>323.3</ele>
        <time>2013-03-07T14:32:28Z</time>
      </trkpt>
      <trkpt lat="43.98838" lon="5.14442">
        <ele>322.5</ele>
        <time>2013-03-07T14:32:29Z</time>
      </trkpt>
      <trkpt lat="43.98836" lon="5.14441">
        <ele>321.5</ele>
        <time>2013-03-07T14:32:30Z</time>
      </trkpt>
      <trkpt lat="43.98834" lon="5.14437">
        <ele>320.9</ele>
        <time>2013-03-07T14:32:31Z</time>
      </trkpt>
      <trkpt lat="43.98834" lon="5.14434">
        <ele>320.3</ele>
        <time>2013-03-07T14:32:32Z</time>
      </trkpt>
      <trkpt lat="43.98836" lon="5.14431">
        <ele>319.7</ele>
        <time>2013-03-07T14:32:33Z</time>
      </trkpt>
      <trkpt lat="43.98839" lon="5.14428">
        <ele>318.8</ele>
        <time>2013-03-07T14:32:34Z</time>
      </trkpt>
      <trkpt lat="43.98842" lon="5.14425">
        <ele>318.1</ele>
        <time>2013-03-07T14:32:35Z</time>
      </trkpt>
      <trkpt lat="43.98846" lon="5.14424">
        <ele>317.1</ele>
        <time>2013-03-07T14:32:36Z</time>
      </trkpt>
      <trkpt lat="43.9885" lon="5.14424">
        <ele>316.8</ele>
        <time>2013-03-07T14:32:37Z</time>
      </trkpt>
      <trkpt lat="43.98853" lon="5.14423">
        <ele>315.3</ele>
        <time>2013-03-07T14:32:38Z</time>
      </trkpt>
      <trkpt lat="43.98856" lon="5.1442">
        <ele>313.8</ele>
        <time>2013-03-07T14:32:39Z</time>
      </trkpt>
      <trkpt lat="43.98859" lon="5.14418">
        <ele>313.2</ele>
        <time>2013-03-07T14:32:40Z</time>
      </trkpt>
      <trkpt lat="43.98857" lon="5.14412">
        <ele>312.6</ele>
        <time>2013-03-07T14:32:42Z</time>
      </trkpt>
      <trkpt lat="43.98856" lon="5.14412">
        <ele>312</ele>
        <time>2013-03-07T14:32:43Z</time>
      </trkpt>
      <trkpt lat="43.98853" lon="5.14413">
        <ele>311.1</ele>
        <time>2013-03-07T14:32:44Z</time>
      </trkpt>
      <trkpt lat="43.9885" lon="5.14414">
        <ele>310.4</ele>
        <time>2013-03-07T14:32:45Z</time>
      </trkpt>
      <trkpt lat="43.98847" lon="5.14416">
        <ele>309.5</ele>
        <time>2013-03-07T14:32:46Z</time>
      </trkpt>
      <trkpt lat="43.98844" lon="5.14418">
        <ele>308.6</ele>
        <time>2013-03-07T14:32:47Z</time>
      </trkpt>
      <trkpt lat="43.98841" lon="5.1442">
        <ele>307.6</ele>
        <time>2013-03-07T14:32:48Z</time>
      </trkpt>
      <trkpt lat="43.98834" lon="5.14414">
        <ele>310.6</ele>
        <time>2013-03-07T14:32:49Z</time>
      </trkpt>
      <trkpt lat="43.9883" lon="5.14413">
        <ele>311.2</ele>
        <time>2013-03-07T14:32:50Z</time>
      </trkpt>
      <trkpt lat="43.98826" lon="5.14412">
        <ele>311.8</ele>
        <time>2013-03-07T14:32:51Z</time>
      </trkpt>
      <trkpt lat="43.98823" lon="5.14415">
        <ele>310.3</ele>
        <time>2013-03-07T14:32:52Z</time>
      </trkpt>
      <trkpt lat="43.98819" lon="5.14415">
        <ele>309.6</ele>
        <time>2013-03-07T14:32:53Z</time>
      </trkpt>
      <trkpt lat="43.98816" lon="5.14413">
        <ele>309.5</ele>
        <time>2013-03-07T14:32:54Z</time>
      </trkpt>
      <trkpt lat="43.98814" lon="5.1441">
        <ele>309.1</ele>
        <time>2013-03-07T14:32:55Z</time>
      </trkpt>
      <trkpt lat="43.98812" lon="5.14406">
        <ele>308.4</ele>
        <time>2013-03-07T14:32:56Z</time>
      </trkpt>
      <trkpt lat="43.98809" lon="5.14403">
        <ele>307.7</ele>
        <time>2013-03-07T14:32:57Z</time>
      </trkpt>
      <trkpt lat="43.98808" lon="5.14397">
        <ele>306.8</ele>
        <time>2013-03-07T14:32:58Z</time>
      </trkpt>
      <trkpt lat="43.98807" lon="5.14393">
        <ele>305.8</ele>
        <time>2013-03-07T14:32:59Z</time>
      </trkpt>
      <trkpt lat="43.98806" lon="5.14388">
        <ele>305.4</ele>
        <time>2013-03-07T14:33:00Z</time>
      </trkpt>
      <trkpt lat="43.98804" lon="5.14383">
        <ele>304.8</ele>
        <time>2013-03-07T14:33:01Z</time>
      </trkpt>
      <trkpt lat="43.98802" lon="5.14378">
        <ele>303.3</ele>
        <time>2013-03-07T14:33:02Z</time>
      </trkpt>
      <trkpt lat="43.98801" lon="5.14374">
        <ele>302.2</ele>
        <time>2013-03-07T14:33:03Z</time>
      </trkpt>
      <trkpt lat="43.98799" lon="5.14371">
        <ele>301.2</ele>
        <time>2013-03-07T14:33:04Z</time>
      </trkpt>
      <trkpt lat="43.98798" lon="5.14368">
        <ele>300.4</ele>
        <time>2013-03-07T14:33:05Z</time>
      </trkpt>
      <trkpt lat="43.98796" lon="5.14362">
        <ele>300.8</ele>
        <time>2013-03-07T14:33:07Z</time>
      </trkpt>
      <trkpt lat="43.98795" lon="5.14359">
        <ele>300.4</ele>
        <time>2013-03-07T14:33:08Z</time>
      </trkpt>
      <trkpt lat="43.98793" lon="5.14355">
        <ele>298.5</ele>
        <time>2013-03-07T14:33:10Z</time>
      </trkpt>
      <trkpt lat="43.9879" lon="5.14353">
        <ele>298</ele>
        <time>2013-03-07T14:33:11Z</time>
      </trkpt>
      <trkpt lat="43.98788" lon="5.1435">
        <ele>297.3</ele>
        <time>2013-03-07T14:33:12Z</time>
      </trkpt>
      <trkpt lat="43.98783" lon="5.14347">
        <ele>296.8</ele>
        <time>2013-03-07T14:33:13Z</time>
      </trkpt>
      <trkpt lat="43.9878" lon="5.14343">
        <ele>296.5</ele>
        <time>2013-03-07T14:33:14Z</time>
      </trkpt>
      <trkpt lat="43.98776" lon="5.1434">
        <ele>296.4</ele>
        <time>2013-03-07T14:33:15Z</time>
      </trkpt>
      <trkpt lat="43.98772" lon="5.14337">
        <ele>296.8</ele>
        <time>2013-03-07T14:33:16Z</time>
      </trkpt>
      <trkpt lat="43.9877" lon="5.14333">
        <ele>296.2</ele>
        <time>2013-03-07T14:33:17Z</time>
      </trkpt>
      <trkpt lat="43.98767" lon="5.14328">
        <ele>296.5</ele>
        <time>2013-03-07T14:33:18Z</time>
      </trkpt>
      <trkpt lat="43.98767" lon="5.14324">
        <ele>293.5</ele>
        <time>2013-03-07T14:33:19Z</time>
      </trkpt>
      <trkpt lat="43.98765" lon="5.1432">
        <ele>292.4</ele>
        <time>2013-03-07T14:33:20Z</time>
      </trkpt>
      <trkpt lat="43.98761" lon="5.1432">
        <ele>293.1</ele>
        <time>2013-03-07T14:33:21Z</time>
      </trkpt>
      <trkpt lat="43.98759" lon="5.14319">
        <ele>292.6</ele>
        <time>2013-03-07T14:33:22Z</time>
      </trkpt>
      <trkpt lat="43.98754" lon="5.14321">
        <ele>291.1</ele>
        <time>2013-03-07T14:33:23Z</time>
      </trkpt>
      <trkpt lat="43.9875" lon="5.14322">
        <ele>290.1</ele>
        <time>2013-03-07T14:33:24Z</time>
      </trkpt>
      <trkpt lat="43.98747" lon="5.14322">
        <ele>289.7</ele>
        <time>2013-03-07T14:33:25Z</time>
      </trkpt>
      <trkpt lat="43.98744" lon="5.14323">
        <ele>289.4</ele>
        <time>2013-03-07T14:33:26Z</time>
      </trkpt>
      <trkpt lat="43.9874" lon="5.14324">
        <ele>288.6</ele>
        <time>2013-03-07T14:33:27Z</time>
      </trkpt>
      <trkpt lat="43.98733" lon="5.14328">
        <ele>286.6</ele>
        <time>2013-03-07T14:33:28Z</time>
      </trkpt>
      <trkpt lat="43.98728" lon="5.14329">
        <ele>286.3</ele>
        <time>2013-03-07T14:33:29Z</time>
      </trkpt>
      <trkpt lat="43.98722" lon="5.1433">
        <ele>285.8</ele>
        <time>2013-03-07T14:33:30Z</time>
      </trkpt>
      <trkpt lat="43.98716" lon="5.14327">
        <ele>285.9</ele>
        <time>2013-03-07T14:33:31Z</time>
      </trkpt>
      <trkpt lat="43.9871" lon="5.14325">
        <ele>285.6</ele>
        <time>2013-03-07T14:33:32Z</time>
      </trkpt>
      <trkpt lat="43.98705" lon="5.14325">
        <ele>285.1</ele>
        <time>2013-03-07T14:33:33Z</time>
      </trkpt>
      <trkpt lat="43.987" lon="5.14325">
        <ele>285</ele>
        <time>2013-03-07T14:33:34Z</time>
      </trkpt>
      <trkpt lat="43.98697" lon="5.14326">
        <ele>284.9</ele>
        <time>2013-03-07T14:33:35Z</time>
      </trkpt>
      <trkpt lat="43.98693" lon="5.14326">
        <ele>284.4</ele>
        <time>2013-03-07T14:33:36Z</time>
      </trkpt>
      <trkpt lat="43.9869" lon="5.14326">
        <ele>284</ele>
        <time>2013-03-07T14:33:37Z</time>
      </trkpt>
      <trkpt lat="43.98688" lon="5.14327">
        <ele>283.9</ele>
        <time>2013-03-07T14:33:38Z</time>
      </trkpt>
      <trkpt lat="43.98684" lon="5.14327">
        <ele>284.6</ele>
        <time>2013-03-07T14:33:39Z</time>
      </trkpt>
      <trkpt lat="43.9868" lon="5.14327">
        <ele>284.2</ele>
        <time>2013-03-07T14:33:40Z</time>
      </trkpt>
      <trkpt lat="43.98677" lon="5.14328">
        <ele>284.1</ele>
        <time>2013-03-07T14:33:41Z</time>
      </trkpt>
      <trkpt lat="43.98675" lon="5.1433">
        <ele>283.9</ele>
        <time>2013-03-07T14:33:42Z</time>
      </trkpt>
      <trkpt lat="43.98672" lon="5.1433">
        <ele>284.2</ele>
        <time>2013-03-07T14:33:43Z</time>
      </trkpt>
      <trkpt lat="43.98668" lon="5.14331">
        <ele>284.6</ele>
        <time>2013-03-07T14:33:44Z</time>
      </trkpt>
      <trkpt lat="43.98665" lon="5.14329">
        <ele>283.7</ele>
        <time>2013-03-07T14:33:46Z</time>
      </trkpt>
      <trkpt lat="43.98664" lon="5.14326">
        <ele>282.9</ele>
        <time>2013-03-07T14:33:47Z</time>
      </trkpt>
      <trkpt lat="43.98663" lon="5.14323">
        <ele>281.9</ele>
        <time>2013-03-07T14:33:48Z</time>
      </trkpt>
      <trkpt lat="43.98663" lon="5.1432">
        <ele>281.9</ele>
        <time>2013-03-07T14:33:49Z</time>
      </trkpt>
      <trkpt lat="43.98664" lon="5.14315">
        <ele>281.9</ele>
        <time>2013-03-07T14:33:50Z</time>
      </trkpt>
      <trkpt lat="43.98664" lon="5.1431">
        <ele>281.9</ele>
        <time>2013-03-07T14:33:51Z</time>
      </trkpt>
      <trkpt lat="43.98665" lon="5.14306">
        <ele>282.1</ele>
        <time>2013-03-07T14:33:54Z</time>
      </trkpt>
      <trkpt lat="43.98666" lon="5.14304">
        <ele>281.7</ele>
        <time>2013-03-07T14:33:55Z</time>
      </trkpt>
      <trkpt lat="43.98664" lon="5.14299">
        <ele>281.8</ele>
        <time>2013-03-07T14:34:52Z</time>
      </trkpt>
      <trkpt lat="43.98664" lon="5.14298">
        <ele>285</ele>
        <time>2013-03-07T14:34:53Z</time>
      </trkpt>
      <trkpt lat="43.98663" lon="5.14293">
        <ele>284</ele>
        <time>2013-03-07T14:34:58Z</time>
      </trkpt>
      <trkpt lat="43.98662" lon="5.14292">
        <ele>284.4</ele>
        <time>2013-03-07T14:34:59Z</time>
      </trkpt>
      <trkpt lat="43.98661" lon="5.14289">
        <ele>284.1</ele>
        <time>2013-03-07T14:35:00Z</time>
      </trkpt>
      <trkpt lat="43.98661" lon="5.14285">
        <ele>283</ele>
        <time>2013-03-07T14:35:01Z</time>
      </trkpt>
      <trkpt lat="43.98658" lon="5.14282">
        <ele>285.6</ele>
        <time>2013-03-07T14:35:05Z</time>
      </trkpt>
      <trkpt lat="43.98658" lon="5.14279">
        <ele>285.9</ele>
        <time>2013-03-07T14:35:06Z</time>
      </trkpt>
      <trkpt lat="43.98656" lon="5.14273">
        <ele>286.5</ele>
        <time>2013-03-07T14:35:10Z</time>
      </trkpt>
      <trkpt lat="43.98655" lon="5.14272">
        <ele>285.8</ele>
        <time>2013-03-07T14:35:11Z</time>
      </trkpt>
      <trkpt lat="43.98652" lon="5.14268">
        <ele>285.5</ele>
        <time>2013-03-07T14:35:14Z</time>
      </trkpt>
      <trkpt lat="43.98651" lon="5.14267">
        <ele>285.5</ele>
        <time>2013-03-07T14:35:15Z</time>
      </trkpt>
      <trkpt lat="43.9865" lon="5.14263">
        <ele>287.5</ele>
        <time>2013-03-07T14:35:18Z</time>
      </trkpt>
      <trkpt lat="43.98649" lon="5.14261">
        <ele>287.4</ele>
        <time>2013-03-07T14:35:19Z</time>
      </trkpt>
      <trkpt lat="43.98647" lon="5.14257">
        <ele>289.4</ele>
        <time>2013-03-07T14:35:22Z</time>
      </trkpt>
      <trkpt lat="43.98646" lon="5.14256">
        <ele>290.2</ele>
        <time>2013-03-07T14:35:23Z</time>
      </trkpt>
      <trkpt lat="43.98645" lon="5.14251">
        <ele>291.9</ele>
        <time>2013-03-07T14:35:26Z</time>
      </trkpt>
      <trkpt lat="43.98645" lon="5.1425">
        <ele>292</ele>
        <time>2013-03-07T14:35:27Z</time>
      </trkpt>
      <trkpt lat="43.98643" lon="5.14244">
        <ele>292.6</ele>
        <time>2013-03-07T14:35:31Z</time>
      </trkpt>
      <trkpt lat="43.98643" lon="5.14244">
        <ele>293</ele>
        <time>2013-03-07T14:35:32Z</time>
      </trkpt>
      <trkpt lat="43.98641" lon="5.14238">
        <ele>292.8</ele>
        <time>2013-03-07T14:35:37Z</time>
      </trkpt>
      <trkpt lat="43.98642" lon="5.14237">
        <ele>293</ele>
        <time>2013-03-07T14:35:38Z</time>
      </trkpt>
      <trkpt lat="43.98639" lon="5.14233">
        <ele>297.1</ele>
        <time>2013-03-07T14:35:46Z</time>
      </trkpt>
      <trkpt lat="43.98638" lon="5.14232">
        <ele>297.9</ele>
        <time>2013-03-07T14:35:47Z</time>
      </trkpt>
      <trkpt lat="43.98635" lon="5.14229">
        <ele>294.4</ele>
        <time>2013-03-07T14:36:03Z</time>
      </trkpt>
      <trkpt lat="43.98634" lon="5.14227">
        <ele>293.9</ele>
        <time>2013-03-07T14:36:04Z</time>
      </trkpt>
      <trkpt lat="43.98638" lon="5.14229">
        <ele>293.6</ele>
        <time>2013-03-07T14:36:13Z</time>
      </trkpt>
      <trkpt lat="43.98639" lon="5.1423">
        <ele>295</ele>
        <time>2013-03-07T14:36:14Z</time>
      </trkpt>
      <trkpt lat="43.98643" lon="5.14233">
        <ele>299.3</ele>
        <time>2013-03-07T14:36:17Z</time>
      </trkpt>
      <trkpt lat="43.98644" lon="5.14233">
        <ele>299.9</ele>
        <time>2013-03-07T14:36:18Z</time>
      </trkpt>
      <trkpt lat="43.98646" lon="5.14234">
        <ele>299.4</ele>
        <time>2013-03-07T14:36:19Z</time>
      </trkpt>
      <trkpt lat="43.98649" lon="5.14234">
        <ele>299.4</ele>
        <time>2013-03-07T14:36:20Z</time>
      </trkpt>
      <trkpt lat="43.98653" lon="5.14233">
        <ele>301.4</ele>
        <time>2013-03-07T14:36:23Z</time>
      </trkpt>
      <trkpt lat="43.98655" lon="5.14232">
        <ele>302.3</ele>
        <time>2013-03-07T14:36:24Z</time>
      </trkpt>
      <trkpt lat="43.98658" lon="5.14231">
        <ele>303</ele>
        <time>2013-03-07T14:36:26Z</time>
      </trkpt>
      <trkpt lat="43.9866" lon="5.14229">
        <ele>303.6</ele>
        <time>2013-03-07T14:36:27Z</time>
      </trkpt>
      <trkpt lat="43.98663" lon="5.14228">
        <ele>305.2</ele>
        <time>2013-03-07T14:36:29Z</time>
      </trkpt>
      <trkpt lat="43.98667" lon="5.14227">
        <ele>305.5</ele>
        <time>2013-03-07T14:36:30Z</time>
      </trkpt>
      <trkpt lat="43.98669" lon="5.14224">
        <ele>304.9</ele>
        <time>2013-03-07T14:36:31Z</time>
      </trkpt>
      <trkpt lat="43.98673" lon="5.14224">
        <ele>304.1</ele>
        <time>2013-03-07T14:36:32Z</time>
      </trkpt>
      <trkpt lat="43.98676" lon="5.14222">
        <ele>303.6</ele>
        <time>2013-03-07T14:36:34Z</time>
      </trkpt>
      <trkpt lat="43.98677" lon="5.14221">
        <ele>303.6</ele>
        <time>2013-03-07T14:36:35Z</time>
      </trkpt>
      <trkpt lat="43.9868" lon="5.14222">
        <ele>301.9</ele>
        <time>2013-03-07T14:36:37Z</time>
      </trkpt>
      <trkpt lat="43.98682" lon="5.14223">
        <ele>300.3</ele>
        <time>2013-03-07T14:36:38Z</time>
      </trkpt>
      <trkpt lat="43.98686" lon="5.14221">
        <ele>301.9</ele>
        <time>2013-03-07T14:36:43Z</time>
      </trkpt>
      <trkpt lat="43.98686" lon="5.14221">
        <ele>301.9</ele>
        <time>2013-03-07T14:36:44Z</time>
      </trkpt>
      <trkpt lat="43.98689" lon="5.14217">
        <ele>304.8</ele>
        <time>2013-03-07T14:36:49Z</time>
      </trkpt>
      <trkpt lat="43.9869" lon="5.14216">
        <ele>305.2</ele>
        <time>2013-03-07T14:36:50Z</time>
      </trkpt>
      <trkpt lat="43.98693" lon="5.14213">
        <ele>306.2</ele>
        <time>2013-03-07T14:36:55Z</time>
      </trkpt>
      <trkpt lat="43.98694" lon="5.14212">
        <ele>306.3</ele>
        <time>2013-03-07T14:36:56Z</time>
      </trkpt>
      <trkpt lat="43.98698" lon="5.1421">
        <ele>307.7</ele>
        <time>2013-03-07T14:37:02Z</time>
      </trkpt>
      <trkpt lat="43.98699" lon="5.1421">
        <ele>307.2</ele>
        <time>2013-03-07T14:37:03Z</time>
      </trkpt>
      <trkpt lat="43.98703" lon="5.14207">
        <ele>306.3</ele>
        <time>2013-03-07T14:37:09Z</time>
      </trkpt>
      <trkpt lat="43.98703" lon="5.14208">
        <ele>306.7</ele>
        <time>2013-03-07T14:37:10Z</time>
      </trkpt>
      <trkpt lat="43.98707" lon="5.1421">
        <ele>305.7</ele>
        <time>2013-03-07T14:37:23Z</time>
      </trkpt>
      <trkpt lat="43.98708" lon="5.1421">
        <ele>305.2</ele>
        <time>2013-03-07T14:37:24Z</time>
      </trkpt>
      <trkpt lat="43.98712" lon="5.14208">
        <ele>301.7</ele>
        <time>2013-03-07T14:37:40Z</time>
      </trkpt>
      <trkpt lat="43.98712" lon="5.14208">
        <ele>301.7</ele>
        <time>2013-03-07T14:37:41Z</time>
      </trkpt>
      <trkpt lat="43.98715" lon="5.14204">
        <ele>296.5</ele>
        <time>2013-03-07T14:38:08Z</time>
      </trkpt>
      <trkpt lat="43.98716" lon="5.14204">
        <ele>295.2</ele>
        <time>2013-03-07T14:38:09Z</time>
      </trkpt>
      <trkpt lat="43.98718" lon="5.14199">
        <ele>293.8</ele>
        <time>2013-03-07T14:38:23Z</time>
      </trkpt>
      <trkpt lat="43.98718" lon="5.14198">
        <ele>293.7</ele>
        <time>2013-03-07T14:38:24Z</time>
      </trkpt>
      <trkpt lat="43.98717" lon="5.14193">
        <ele>291.7</ele>
        <time>2013-03-07T14:39:25Z</time>
      </trkpt>
      <trkpt lat="43.98715" lon="5.14192">
        <ele>291.5</ele>
        <time>2013-03-07T14:39:26Z</time>
      </trkpt>
      <trkpt lat="43.98711" lon="5.14192">
        <ele>294.4</ele>
        <time>2013-03-07T14:39:31Z</time>
      </trkpt>
      <trkpt lat="43.9871" lon="5.14192">
        <ele>294.6</ele>
        <time>2013-03-07T14:39:32Z</time>
      </trkpt>
      <trkpt lat="43.98706" lon="5.14194">
        <ele>299.5</ele>
        <time>2013-03-07T14:39:35Z</time>
      </trkpt>
      <trkpt lat="43.98703" lon="5.14193">
        <ele>300</ele>
        <time>2013-03-07T14:39:36Z</time>
      </trkpt>
      <trkpt lat="43.987" lon="5.14189">
        <ele>300</ele>
        <time>2013-03-07T14:39:39Z</time>
      </trkpt>
      <trkpt lat="43.98699" lon="5.14189">
        <ele>299.8</ele>
        <time>2013-03-07T14:39:40Z</time>
      </trkpt>
      <trkpt lat="43.98695" lon="5.14188">
        <ele>299.2</ele>
        <time>2013-03-07T14:39:43Z</time>
      </trkpt>
      <trkpt lat="43.98694" lon="5.14188">
        <ele>299.5</ele>
        <time>2013-03-07T14:39:44Z</time>
      </trkpt>
      <trkpt lat="43.9869" lon="5.14187">
        <ele>301.5</ele>
        <time>2013-03-07T14:39:48Z</time>
      </trkpt>
      <trkpt lat="43.98689" lon="5.14187">
        <ele>302.3</ele>
        <time>2013-03-07T14:39:49Z</time>
      </trkpt>
      <trkpt lat="43.98685" lon="5.14186">
        <ele>302.7</ele>
        <time>2013-03-07T14:39:53Z</time>
      </trkpt>
      <trkpt lat="43.98684" lon="5.14186">
        <ele>302.9</ele>
        <time>2013-03-07T14:39:54Z</time>
      </trkpt>
      <trkpt lat="43.9868" lon="5.14187">
        <ele>302.1</ele>
        <time>2013-03-07T14:39:57Z</time>
      </trkpt>
      <trkpt lat="43.98678" lon="5.14188">
        <ele>302</ele>
        <time>2013-03-07T14:39:58Z</time>
      </trkpt>
      <trkpt lat="43.98677" lon="5.1419">
        <ele>302</ele>
        <time>2013-03-07T14:40:00Z</time>
      </trkpt>
      <trkpt lat="43.98675" lon="5.14191">
        <ele>301.9</ele>
        <time>2013-03-07T14:40:01Z</time>
      </trkpt>
      <trkpt lat="43.9867" lon="5.14193">
        <ele>304.2</ele>
        <time>2013-03-07T14:40:04Z</time>
      </trkpt>
      <trkpt lat="43.98669" lon="5.14194">
        <ele>305.1</ele>
        <time>2013-03-07T14:40:05Z</time>
      </trkpt>
      <trkpt lat="43.98665" lon="5.14193">
        <ele>305.5</ele>
        <time>2013-03-07T14:40:08Z</time>
      </trkpt>
      <trkpt lat="43.98664" lon="5.14193">
        <ele>305.5</ele>
        <time>2013-03-07T14:40:09Z</time>
      </trkpt>
      <trkpt lat="43.98659" lon="5.14194">
        <ele>305.2</ele>
        <time>2013-03-07T14:40:11Z</time>
      </trkpt>
      <trkpt lat="43.98658" lon="5.14194">
        <ele>305.6</ele>
        <time>2013-03-07T14:40:12Z</time>
      </trkpt>
      <trkpt lat="43.98654" lon="5.14193">
        <ele>305.8</ele>
        <time>2013-03-07T14:40:15Z</time>
      </trkpt>
      <trkpt lat="43.98653" lon="5.14193">
        <ele>306.2</ele>
        <time>2013-03-07T14:40:16Z</time>
      </trkpt>
      <trkpt lat="43.98649" lon="5.14192">
        <ele>306</ele>
        <time>2013-03-07T14:40:19Z</time>
      </trkpt>
      <trkpt lat="43.98648" lon="5.14191">
        <ele>305.1</ele>
        <time>2013-03-07T14:40:20Z</time>
      </trkpt>
      <trkpt lat="43.98645" lon="5.1419">
        <ele>304.4</ele>
        <time>2013-03-07T14:40:22Z</time>
      </trkpt>
      <trkpt lat="43.98643" lon="5.14189">
        <ele>303.9</ele>
        <time>2013-03-07T14:40:23Z</time>
      </trkpt>
      <trkpt lat="43.9864" lon="5.14186">
        <ele>302.7</ele>
        <time>2013-03-07T14:40:26Z</time>
      </trkpt>
      <trkpt lat="43.98639" lon="5.14186">
        <ele>304.1</ele>
        <time>2013-03-07T14:40:27Z</time>
      </trkpt>
      <trkpt lat="43.98635" lon="5.14182">
        <ele>303.6</ele>
        <time>2013-03-07T14:40:30Z</time>
      </trkpt>
      <trkpt lat="43.98634" lon="5.14181">
        <ele>304.1</ele>
        <time>2013-03-07T14:40:31Z</time>
      </trkpt>
      <trkpt lat="43.98631" lon="5.14177">
        <ele>304.9</ele>
        <time>2013-03-07T14:40:34Z</time>
      </trkpt>
      <trkpt lat="43.9863" lon="5.14175">
        <ele>304.6</ele>
        <time>2013-03-07T14:40:35Z</time>
      </trkpt>
      <trkpt lat="43.98627" lon="5.1417">
        <ele>302.5</ele>
        <time>2013-03-07T14:40:38Z</time>
      </trkpt>
      <trkpt lat="43.98627" lon="5.14169">
        <ele>301.8</ele>
        <time>2013-03-07T14:40:39Z</time>
      </trkpt>
      <trkpt lat="43.98624" lon="5.14169">
        <ele>301.3</ele>
        <time>2013-03-07T14:40:41Z</time>
      </trkpt>
      <trkpt lat="43.98622" lon="5.14169">
        <ele>301.6</ele>
        <time>2013-03-07T14:40:42Z</time>
      </trkpt>
      <trkpt lat="43.98618" lon="5.14166">
        <ele>302.2</ele>
        <time>2013-03-07T14:40:47Z</time>
      </trkpt>
      <trkpt lat="43.98616" lon="5.14165">
        <ele>302.3</ele>
        <time>2013-03-07T14:40:48Z</time>
      </trkpt>
      <trkpt lat="43.98611" lon="5.14164">
        <ele>303.6</ele>
        <time>2013-03-07T14:40:51Z</time>
      </trkpt>
      <trkpt lat="43.98609" lon="5.14163">
        <ele>304.3</ele>
        <time>2013-03-07T14:40:52Z</time>
      </trkpt>
      <trkpt lat="43.98606" lon="5.14164">
        <ele>305</ele>
        <time>2013-03-07T14:40:54Z</time>
      </trkpt>
      <trkpt lat="43.98603" lon="5.14163">
        <ele>304.9</ele>
        <time>2013-03-07T14:40:55Z</time>
      </trkpt>
      <trkpt lat="43.986" lon="5.14161">
        <ele>304.7</ele>
        <time>2013-03-07T14:40:57Z</time>
      </trkpt>
      <trkpt lat="43.98598" lon="5.1416">
        <ele>304.6</ele>
        <time>2013-03-07T14:40:58Z</time>
      </trkpt>
      <trkpt lat="43.98595" lon="5.14162">
        <ele>303.8</ele>
        <time>2013-03-07T14:41:01Z</time>
      </trkpt>
      <trkpt lat="43.98593" lon="5.1416">
        <ele>303.8</ele>
        <time>2013-03-07T14:41:02Z</time>
      </trkpt>
      <trkpt lat="43.9859" lon="5.14159">
        <ele>305.1</ele>
        <time>2013-03-07T14:41:06Z</time>
      </trkpt>
      <trkpt lat="43.98589" lon="5.14155">
        <ele>305.3</ele>
        <time>2013-03-07T14:41:07Z</time>
      </trkpt>
      <trkpt lat="43.98584" lon="5.14154">
        <ele>305</ele>
        <time>2013-03-07T14:41:10Z</time>
      </trkpt>
      <trkpt lat="43.98583" lon="5.14151">
        <ele>303.9</ele>
        <time>2013-03-07T14:41:11Z</time>
      </trkpt>
      <trkpt lat="43.9858" lon="5.14151">
        <ele>303.9</ele>
        <time>2013-03-07T14:41:14Z</time>
      </trkpt>
      <trkpt lat="43.98578" lon="5.14149">
        <ele>304.7</ele>
        <time>2013-03-07T14:41:15Z</time>
      </trkpt>
      <trkpt lat="43.98575" lon="5.14147">
        <ele>305.8</ele>
        <time>2013-03-07T14:41:17Z</time>
      </trkpt>
      <trkpt lat="43.98573" lon="5.14148">
        <ele>306.9</ele>
        <time>2013-03-07T14:41:18Z</time>
      </trkpt>
      <trkpt lat="43.98569" lon="5.14147">
        <ele>307.3</ele>
        <time>2013-03-07T14:41:21Z</time>
      </trkpt>
      <trkpt lat="43.98567" lon="5.14148">
        <ele>306.9</ele>
        <time>2013-03-07T14:41:22Z</time>
      </trkpt>
      <trkpt lat="43.98564" lon="5.1415">
        <ele>307.9</ele>
        <time>2013-03-07T14:41:25Z</time>
      </trkpt>
      <trkpt lat="43.98561" lon="5.1415">
        <ele>308.4</ele>
        <time>2013-03-07T14:41:26Z</time>
      </trkpt>
      <trkpt lat="43.98557" lon="5.14153">
        <ele>309.1</ele>
        <time>2013-03-07T14:41:30Z</time>
      </trkpt>
      <trkpt lat="43.98557" lon="5.14153">
        <ele>309.3</ele>
        <time>2013-03-07T14:41:31Z</time>
      </trkpt>
      <trkpt lat="43.98554" lon="5.14153">
        <ele>310.7</ele>
        <time>2013-03-07T14:41:34Z</time>
      </trkpt>
      <trkpt lat="43.98551" lon="5.14151">
        <ele>310.7</ele>
        <time>2013-03-07T14:41:35Z</time>
      </trkpt>
      <trkpt lat="43.98547" lon="5.14152">
        <ele>310.4</ele>
        <time>2013-03-07T14:41:38Z</time>
      </trkpt>
      <trkpt lat="43.98545" lon="5.14153">
        <ele>310.8</ele>
        <time>2013-03-07T14:41:39Z</time>
      </trkpt>
      <trkpt lat="43.98542" lon="5.14156">
        <ele>311.1</ele>
        <time>2013-03-07T14:41:42Z</time>
      </trkpt>
      <trkpt lat="43.98541" lon="5.14157">
        <ele>311.5</ele>
        <time>2013-03-07T14:41:43Z</time>
      </trkpt>
      <trkpt lat="43.9854" lon="5.14162">
        <ele>313.2</ele>
        <time>2013-03-07T14:41:45Z</time>
      </trkpt>
      <trkpt lat="43.98538" lon="5.14163">
        <ele>313.4</ele>
        <time>2013-03-07T14:41:46Z</time>
      </trkpt>
      <trkpt lat="43.98535" lon="5.14163">
        <ele>313.4</ele>
        <time>2013-03-07T14:41:47Z</time>
      </trkpt>
      <trkpt lat="43.98533" lon="5.14162">
        <ele>314.2</ele>
        <time>2013-03-07T14:41:48Z</time>
      </trkpt>
      <trkpt lat="43.9853" lon="5.14162">
        <ele>314.5</ele>
        <time>2013-03-07T14:41:50Z</time>
      </trkpt>
      <trkpt lat="43.98528" lon="5.14165">
        <ele>314.2</ele>
        <time>2013-03-07T14:41:51Z</time>
      </trkpt>
      <trkpt lat="43.98524" lon="5.14163">
        <ele>314.5</ele>
        <time>2013-03-07T14:41:53Z</time>
      </trkpt>
      <trkpt lat="43.98523" lon="5.14163">
        <ele>314.1</ele>
        <time>2013-03-07T14:41:54Z</time>
      </trkpt>
      <trkpt lat="43.98519" lon="5.14164">
        <ele>318.7</ele>
        <time>2013-03-07T14:41:56Z</time>
      </trkpt>
      <trkpt lat="43.98518" lon="5.1416">
        <ele>317.6</ele>
        <time>2013-03-07T14:41:57Z</time>
      </trkpt>
      <trkpt lat="43.98516" lon="5.14157">
        <ele>317.4</ele>
        <time>2013-03-07T14:41:58Z</time>
      </trkpt>
      <trkpt lat="43.98515" lon="5.14154">
        <ele>317.2</ele>
        <time>2013-03-07T14:41:59Z</time>
      </trkpt>
      <trkpt lat="43.98513" lon="5.1415">
        <ele>317.4</ele>
        <time>2013-03-07T14:42:01Z</time>
      </trkpt>
      <trkpt lat="43.98511" lon="5.14149">
        <ele>317.8</ele>
        <time>2013-03-07T14:42:02Z</time>
      </trkpt>
      <trkpt lat="43.98508" lon="5.14148">
        <ele>318</ele>
        <time>2013-03-07T14:42:04Z</time>
      </trkpt>
      <trkpt lat="43.98506" lon="5.14147">
        <ele>317.9</ele>
        <time>2013-03-07T14:42:05Z</time>
      </trkpt>
      <trkpt lat="43.98504" lon="5.14149">
        <ele>321</ele>
        <time>2013-03-07T14:42:08Z</time>
      </trkpt>
      <trkpt lat="43.98502" lon="5.14148">
        <ele>321.6</ele>
        <time>2013-03-07T14:42:09Z</time>
      </trkpt>
      <trkpt lat="43.98498" lon="5.14148">
        <ele>322.3</ele>
        <time>2013-03-07T14:42:12Z</time>
      </trkpt>
      <trkpt lat="43.98497" lon="5.14149">
        <ele>322.4</ele>
        <time>2013-03-07T14:42:13Z</time>
      </trkpt>
      <trkpt lat="43.98494" lon="5.14153">
        <ele>321.9</ele>
        <time>2013-03-07T14:42:17Z</time>
      </trkpt>
      <trkpt lat="43.98493" lon="5.14153">
        <ele>321.8</ele>
        <time>2013-03-07T14:42:18Z</time>
      </trkpt>
      <trkpt lat="43.98491" lon="5.14156">
        <ele>323.5</ele>
        <time>2013-03-07T14:42:21Z</time>
      </trkpt>
      <trkpt lat="43.9849" lon="5.14158">
        <ele>324.2</ele>
        <time>2013-03-07T14:42:22Z</time>
      </trkpt>
      <trkpt lat="43.9849" lon="5.14162">
        <ele>324.5</ele>
        <time>2013-03-07T14:42:26Z</time>
      </trkpt>
      <trkpt lat="43.9849" lon="5.14164">
        <ele>323.9</ele>
        <time>2013-03-07T14:42:27Z</time>
      </trkpt>
      <trkpt lat="43.9849" lon="5.14169">
        <ele>323.8</ele>
        <time>2013-03-07T14:42:29Z</time>
      </trkpt>
      <trkpt lat="43.98488" lon="5.1417">
        <ele>324</ele>
        <time>2013-03-07T14:42:30Z</time>
      </trkpt>
      <trkpt lat="43.98486" lon="5.14175">
        <ele>324.2</ele>
        <time>2013-03-07T14:42:32Z</time>
      </trkpt>
      <trkpt lat="43.98485" lon="5.14176">
        <ele>323.8</ele>
        <time>2013-03-07T14:42:33Z</time>
      </trkpt>
      <trkpt lat="43.98481" lon="5.14176">
        <ele>323.3</ele>
        <time>2013-03-07T14:42:35Z</time>
      </trkpt>
      <trkpt lat="43.98479" lon="5.14174">
        <ele>323</ele>
        <time>2013-03-07T14:42:36Z</time>
      </trkpt>
      <trkpt lat="43.98478" lon="5.14175">
        <ele>325.6</ele>
        <time>2013-03-07T14:42:40Z</time>
      </trkpt>
      <trkpt lat="43.98481" lon="5.14168">
        <ele>326.3</ele>
        <time>2013-03-07T14:42:41Z</time>
      </trkpt>
      <trkpt lat="43.98478" lon="5.14167">
        <ele>326</ele>
        <time>2013-03-07T14:42:42Z</time>
      </trkpt>
      <trkpt lat="43.98472" lon="5.14169">
        <ele>325.9</ele>
        <time>2013-03-07T14:42:43Z</time>
      </trkpt>
      <trkpt lat="43.9847" lon="5.14179">
        <ele>326.9</ele>
        <time>2013-03-07T14:42:44Z</time>
      </trkpt>
      <trkpt lat="43.98468" lon="5.14182">
        <ele>328</ele>
        <time>2013-03-07T14:42:45Z</time>
      </trkpt>
      <trkpt lat="43.98466" lon="5.14184">
        <ele>328.6</ele>
        <time>2013-03-07T14:42:46Z</time>
      </trkpt>
      <trkpt lat="43.98462" lon="5.14187">
        <ele>330.5</ele>
        <time>2013-03-07T14:42:50Z</time>
      </trkpt>
      <trkpt lat="43.98461" lon="5.14186">
        <ele>329.2</ele>
        <time>2013-03-07T14:42:51Z</time>
      </trkpt>
      <trkpt lat="43.98464" lon="5.14191">
        <ele>331.1</ele>
        <time>2013-03-07T14:43:00Z</time>
      </trkpt>
      <trkpt lat="43.98464" lon="5.14192">
        <ele>330.8</ele>
        <time>2013-03-07T14:43:01Z</time>
      </trkpt>
      <trkpt lat="43.98463" lon="5.14195">
        <ele>333.4</ele>
        <time>2013-03-07T14:43:57Z</time>
      </trkpt>
      <trkpt lat="43.9846" lon="5.14195">
        <ele>334.9</ele>
        <time>2013-03-07T14:43:58Z</time>
      </trkpt>
      <trkpt lat="43.98456" lon="5.14195">
        <ele>334</ele>
        <time>2013-03-07T14:44:02Z</time>
      </trkpt>
      <trkpt lat="43.98455" lon="5.14195">
        <ele>334.1</ele>
        <time>2013-03-07T14:44:03Z</time>
      </trkpt>
      <trkpt lat="43.98451" lon="5.14195">
        <ele>332.1</ele>
        <time>2013-03-07T14:44:05Z</time>
      </trkpt>
      <trkpt lat="43.98449" lon="5.14196">
        <ele>331</ele>
        <time>2013-03-07T14:44:06Z</time>
      </trkpt>
      <trkpt lat="43.98445" lon="5.14196">
        <ele>329.1</ele>
        <time>2013-03-07T14:44:08Z</time>
      </trkpt>
      <trkpt lat="43.98444" lon="5.14195">
        <ele>328</ele>
        <time>2013-03-07T14:44:09Z</time>
      </trkpt>
      <trkpt lat="43.9844" lon="5.14197">
        <ele>326.9</ele>
        <time>2013-03-07T14:44:12Z</time>
      </trkpt>
      <trkpt lat="43.98438" lon="5.14197">
        <ele>325.9</ele>
        <time>2013-03-07T14:44:13Z</time>
      </trkpt>
      <trkpt lat="43.98435" lon="5.142">
        <ele>325.7</ele>
        <time>2013-03-07T14:44:15Z</time>
      </trkpt>
      <trkpt lat="43.98433" lon="5.14202">
        <ele>326.4</ele>
        <time>2013-03-07T14:44:16Z</time>
      </trkpt>
      <trkpt lat="43.98431" lon="5.14203">
        <ele>326.7</ele>
        <time>2013-03-07T14:44:18Z</time>
      </trkpt>
      <trkpt lat="43.98429" lon="5.14204">
        <ele>326.3</ele>
        <time>2013-03-07T14:44:19Z</time>
      </trkpt>
      <trkpt lat="43.98425" lon="5.14204">
        <ele>325.6</ele>
        <time>2013-03-07T14:44:22Z</time>
      </trkpt>
      <trkpt lat="43.98423" lon="5.14205">
        <ele>326.7</ele>
        <time>2013-03-07T14:44:23Z</time>
      </trkpt>
      <trkpt lat="43.98421" lon="5.14208">
        <ele>328.4</ele>
        <time>2013-03-07T14:44:25Z</time>
      </trkpt>
      <trkpt lat="43.98419" lon="5.14208">
        <ele>328.9</ele>
        <time>2013-03-07T14:44:26Z</time>
      </trkpt>
      <trkpt lat="43.98415" lon="5.1421">
        <ele>328.9</ele>
        <time>2013-03-07T14:44:29Z</time>
      </trkpt>
      <trkpt lat="43.98414" lon="5.14211">
        <ele>329.3</ele>
        <time>2013-03-07T14:44:30Z</time>
      </trkpt>
      <trkpt lat="43.98411" lon="5.14211">
        <ele>331.6</ele>
        <time>2013-03-07T14:44:32Z</time>
      </trkpt>
      <trkpt lat="43.98409" lon="5.1421">
        <ele>332.6</ele>
        <time>2013-03-07T14:44:33Z</time>
      </trkpt>
      <trkpt lat="43.98406" lon="5.14212">
        <ele>335.6</ele>
        <time>2013-03-07T14:44:36Z</time>
      </trkpt>
      <trkpt lat="43.98405" lon="5.14214">
        <ele>335.5</ele>
        <time>2013-03-07T14:44:37Z</time>
      </trkpt>
      <trkpt lat="43.98401" lon="5.14215">
        <ele>343.3</ele>
        <time>2013-03-07T14:44:39Z</time>
      </trkpt>
      <trkpt lat="43.984" lon="5.14216">
        <ele>343.9</ele>
        <time>2013-03-07T14:44:40Z</time>
      </trkpt>
      <trkpt lat="43.98398" lon="5.14218">
        <ele>343.9</ele>
        <time>2013-03-07T14:44:42Z</time>
      </trkpt>
      <trkpt lat="43.98395" lon="5.14219">
        <ele>344.1</ele>
        <time>2013-03-07T14:44:43Z</time>
      </trkpt>
      <trkpt lat="43.98391" lon="5.14221">
        <ele>345</ele>
        <time>2013-03-07T14:44:46Z</time>
      </trkpt>
      <trkpt lat="43.9839" lon="5.14222">
        <ele>345.3</ele>
        <time>2013-03-07T14:44:47Z</time>
      </trkpt>
      <trkpt lat="43.98387" lon="5.14224">
        <ele>345.5</ele>
        <time>2013-03-07T14:44:49Z</time>
      </trkpt>
      <trkpt lat="43.98385" lon="5.14225">
        <ele>347.3</ele>
        <time>2013-03-07T14:44:50Z</time>
      </trkpt>
      <trkpt lat="43.98382" lon="5.14227">
        <ele>346.6</ele>
        <time>2013-03-07T14:44:52Z</time>
      </trkpt>
      <trkpt lat="43.98381" lon="5.14227">
        <ele>347.1</ele>
        <time>2013-03-07T14:44:53Z</time>
      </trkpt>
      <trkpt lat="43.98377" lon="5.14228">
        <ele>346.1</ele>
        <time>2013-03-07T14:44:55Z</time>
      </trkpt>
      <trkpt lat="43.98376" lon="5.14228">
        <ele>345.8</ele>
        <time>2013-03-07T14:44:56Z</time>
      </trkpt>
      <trkpt lat="43.98372" lon="5.1423">
        <ele>345.6</ele>
        <time>2013-03-07T14:44:59Z</time>
      </trkpt>
      <trkpt lat="43.9837" lon="5.1423">
        <ele>346</ele>
        <time>2013-03-07T14:45:00Z</time>
      </trkpt>
      <trkpt lat="43.98367" lon="5.14231">
        <ele>348.2</ele>
        <time>2013-03-07T14:45:02Z</time>
      </trkpt>
      <trkpt lat="43.98365" lon="5.14232">
        <ele>346.7</ele>
        <time>2013-03-07T14:45:03Z</time>
      </trkpt>
      <trkpt lat="43.98362" lon="5.14234">
        <ele>347.4</ele>
        <time>2013-03-07T14:45:05Z</time>
      </trkpt>
      <trkpt lat="43.98361" lon="5.14234">
        <ele>347.1</ele>
        <time>2013-03-07T14:45:06Z</time>
      </trkpt>
      <trkpt lat="43.98358" lon="5.14235">
        <ele>347.9</ele>
        <time>2013-03-07T14:45:08Z</time>
      </trkpt>
      <trkpt lat="43.98356" lon="5.14236">
        <ele>347.8</ele>
        <time>2013-03-07T14:45:09Z</time>
      </trkpt>
      <trkpt lat="43.98352" lon="5.14238">
        <ele>346.9</ele>
        <time>2013-03-07T14:45:12Z</time>
      </trkpt>
      <trkpt lat="43.98351" lon="5.14239">
        <ele>346.9</ele>
        <time>2013-03-07T14:45:13Z</time>
      </trkpt>
      <trkpt lat="43.98347" lon="5.1424">
        <ele>346.3</ele>
        <time>2013-03-07T14:45:16Z</time>
      </trkpt>
      <trkpt lat="43.98346" lon="5.14241">
        <ele>345.7</ele>
        <time>2013-03-07T14:45:17Z</time>
      </trkpt>
      <trkpt lat="43.98342" lon="5.14242">
        <ele>345.6</ele>
        <time>2013-03-07T14:45:19Z</time>
      </trkpt>
      <trkpt lat="43.9834" lon="5.14242">
        <ele>345.6</ele>
        <time>2013-03-07T14:45:20Z</time>
      </trkpt>
      <trkpt lat="43.98337" lon="5.14244">
        <ele>345</ele>
        <time>2013-03-07T14:45:23Z</time>
      </trkpt>
      <trkpt lat="43.98335" lon="5.14245">
        <ele>345</ele>
        <time>2013-03-07T14:45:24Z</time>
      </trkpt>
      <trkpt lat="43.98332" lon="5.14247">
        <ele>345.6</ele>
        <time>2013-03-07T14:45:26Z</time>
      </trkpt>
      <trkpt lat="43.98331" lon="5.14247">
        <ele>345.8</ele>
        <time>2013-03-07T14:45:27Z</time>
      </trkpt>
      <trkpt lat="43.98327" lon="5.14249">
        <ele>346.4</ele>
        <time>2013-03-07T14:45:29Z</time>
      </trkpt>
      <trkpt lat="43.98325" lon="5.14249">
        <ele>347.5</ele>
        <time>2013-03-07T14:45:30Z</time>
      </trkpt>
      <trkpt lat="43.98321" lon="5.1425">
        <ele>346.8</ele>
        <time>2013-03-07T14:45:33Z</time>
      </trkpt>
      <trkpt lat="43.9832" lon="5.1425">
        <ele>346.6</ele>
        <time>2013-03-07T14:45:34Z</time>
      </trkpt>
      <trkpt lat="43.98317" lon="5.14251">
        <ele>343.3</ele>
        <time>2013-03-07T14:45:37Z</time>
      </trkpt>
      <trkpt lat="43.98316" lon="5.14252">
        <ele>342.9</ele>
        <time>2013-03-07T14:45:38Z</time>
      </trkpt>
      <trkpt lat="43.98312" lon="5.14254">
        <ele>342</ele>
        <time>2013-03-07T14:45:41Z</time>
      </trkpt>
      <trkpt lat="43.9831" lon="5.14255">
        <ele>341.7</ele>
        <time>2013-03-07T14:45:42Z</time>
      </trkpt>
      <trkpt lat="43.98307" lon="5.14259">
        <ele>341.3</ele>
        <time>2013-03-07T14:45:45Z</time>
      </trkpt>
      <trkpt lat="43.98306" lon="5.14259">
        <ele>340.8</ele>
        <time>2013-03-07T14:45:46Z</time>
      </trkpt>
      <trkpt lat="43.98302" lon="5.14262">
        <ele>340.8</ele>
        <time>2013-03-07T14:45:49Z</time>
      </trkpt>
      <trkpt lat="43.98301" lon="5.14263">
        <ele>340.8</ele>
        <time>2013-03-07T14:45:50Z</time>
      </trkpt>
      <trkpt lat="43.98299" lon="5.14265">
        <ele>340.4</ele>
        <time>2013-03-07T14:45:52Z</time>
      </trkpt>
      <trkpt lat="43.98297" lon="5.14266">
        <ele>340.3</ele>
        <time>2013-03-07T14:45:53Z</time>
      </trkpt>
      <trkpt lat="43.98293" lon="5.14269">
        <ele>339.3</ele>
        <time>2013-03-07T14:45:56Z</time>
      </trkpt>
      <trkpt lat="43.98292" lon="5.1427">
        <ele>339.5</ele>
        <time>2013-03-07T14:45:57Z</time>
      </trkpt>
      <trkpt lat="43.9829" lon="5.14272">
        <ele>339.9</ele>
        <time>2013-03-07T14:45:59Z</time>
      </trkpt>
      <trkpt lat="43.98288" lon="5.14274">
        <ele>339.9</ele>
        <time>2013-03-07T14:46:00Z</time>
      </trkpt>
      <trkpt lat="43.98286" lon="5.14277">
        <ele>339.3</ele>
        <time>2013-03-07T14:46:02Z</time>
      </trkpt>
      <trkpt lat="43.98285" lon="5.14278">
        <ele>339.5</ele>
        <time>2013-03-07T14:46:03Z</time>
      </trkpt>
      <trkpt lat="43.98284" lon="5.14282">
        <ele>339.5</ele>
        <time>2013-03-07T14:46:05Z</time>
      </trkpt>
      <trkpt lat="43.98281" lon="5.14283">
        <ele>339.5</ele>
        <time>2013-03-07T14:46:06Z</time>
      </trkpt>
      <trkpt lat="43.98279" lon="5.14282">
        <ele>338.2</ele>
        <time>2013-03-07T14:46:10Z</time>
      </trkpt>
      <trkpt lat="43.98276" lon="5.1428">
        <ele>337.7</ele>
        <time>2013-03-07T14:46:11Z</time>
      </trkpt>
      <trkpt lat="43.98273" lon="5.14284">
        <ele>337.8</ele>
        <time>2013-03-07T14:46:13Z</time>
      </trkpt>
      <trkpt lat="43.98274" lon="5.14288">
        <ele>338</ele>
        <time>2013-03-07T14:46:14Z</time>
      </trkpt>
      <trkpt lat="43.98271" lon="5.14291">
        <ele>337.8</ele>
        <time>2013-03-07T14:46:17Z</time>
      </trkpt>
      <trkpt lat="43.9827" lon="5.14292">
        <ele>338.3</ele>
        <time>2013-03-07T14:46:18Z</time>
      </trkpt>
      <trkpt lat="43.98267" lon="5.14296">
        <ele>339.1</ele>
        <time>2013-03-07T14:46:21Z</time>
      </trkpt>
      <trkpt lat="43.98266" lon="5.14297">
        <ele>339.8</ele>
        <time>2013-03-07T14:46:22Z</time>
      </trkpt>
      <trkpt lat="43.98263" lon="5.14299">
        <ele>340.2</ele>
        <time>2013-03-07T14:46:24Z</time>
      </trkpt>
      <trkpt lat="43.98263" lon="5.14301">
        <ele>340.2</ele>
        <time>2013-03-07T14:46:25Z</time>
      </trkpt>
      <trkpt lat="43.98261" lon="5.14304">
        <ele>340.4</ele>
        <time>2013-03-07T14:46:27Z</time>
      </trkpt>
      <trkpt lat="43.98259" lon="5.14306">
        <ele>340</ele>
        <time>2013-03-07T14:46:28Z</time>
      </trkpt>
      <trkpt lat="43.98257" lon="5.1431">
        <ele>339.5</ele>
        <time>2013-03-07T14:46:30Z</time>
      </trkpt>
      <trkpt lat="43.98256" lon="5.14311">
        <ele>339.3</ele>
        <time>2013-03-07T14:46:31Z</time>
      </trkpt>
      <trkpt lat="43.98252" lon="5.14314">
        <ele>339.6</ele>
        <time>2013-03-07T14:46:34Z</time>
      </trkpt>
      <trkpt lat="43.98251" lon="5.14316">
        <ele>339.6</ele>
        <time>2013-03-07T14:46:35Z</time>
      </trkpt>
      <trkpt lat="43.98247" lon="5.14316">
        <ele>339.9</ele>
        <time>2013-03-07T14:46:38Z</time>
      </trkpt>
      <trkpt lat="43.98245" lon="5.14315">
        <ele>340.1</ele>
        <time>2013-03-07T14:46:39Z</time>
      </trkpt>
      <trkpt lat="43.98243" lon="5.14311">
        <ele>340.3</ele>
        <time>2013-03-07T14:46:42Z</time>
      </trkpt>
      <trkpt lat="43.98242" lon="5.1431">
        <ele>340</ele>
        <time>2013-03-07T14:46:43Z</time>
      </trkpt>
      <trkpt lat="43.98241" lon="5.14305">
        <ele>339.8</ele>
        <time>2013-03-07T14:46:46Z</time>
      </trkpt>
      <trkpt lat="43.98243" lon="5.14302">
        <ele>340</ele>
        <time>2013-03-07T14:46:47Z</time>
      </trkpt>
      <trkpt lat="43.98245" lon="5.14297">
        <ele>340.4</ele>
        <time>2013-03-07T14:46:50Z</time>
      </trkpt>
      <trkpt lat="43.98246" lon="5.14295">
        <ele>340.9</ele>
        <time>2013-03-07T14:46:51Z</time>
      </trkpt>
      <trkpt lat="43.9825" lon="5.14292">
        <ele>341.1</ele>
        <time>2013-03-07T14:46:54Z</time>
      </trkpt>
      <trkpt lat="43.98251" lon="5.1429">
        <ele>341.6</ele>
        <time>2013-03-07T14:46:55Z</time>
      </trkpt>
      <trkpt lat="43.98254" lon="5.14286">
        <ele>342.4</ele>
        <time>2013-03-07T14:46:58Z</time>
      </trkpt>
      <trkpt lat="43.98255" lon="5.14285">
        <ele>342.8</ele>
        <time>2013-03-07T14:46:59Z</time>
      </trkpt>
      <trkpt lat="43.98257" lon="5.14284">
        <ele>343</ele>
        <time>2013-03-07T14:47:01Z</time>
      </trkpt>
      <trkpt lat="43.98259" lon="5.14282">
        <ele>343</ele>
        <time>2013-03-07T14:47:02Z</time>
      </trkpt>
      <trkpt lat="43.98261" lon="5.14277">
        <ele>343.9</ele>
        <time>2013-03-07T14:47:05Z</time>
      </trkpt>
      <trkpt lat="43.98262" lon="5.14276">
        <ele>344.1</ele>
        <time>2013-03-07T14:47:06Z</time>
      </trkpt>
      <trkpt lat="43.98262" lon="5.1427">
        <ele>343.8</ele>
        <time>2013-03-07T14:47:07Z</time>
      </trkpt>
      <trkpt lat="43.98263" lon="5.14268">
        <ele>343.9</ele>
        <time>2013-03-07T14:47:08Z</time>
      </trkpt>
      <trkpt lat="43.98263" lon="5.14265">
        <ele>344.8</ele>
        <time>2013-03-07T14:47:10Z</time>
      </trkpt>
      <trkpt lat="43.98262" lon="5.14261">
        <ele>345.7</ele>
        <time>2013-03-07T14:47:11Z</time>
      </trkpt>
      <trkpt lat="43.98263" lon="5.14257">
        <ele>346.5</ele>
        <time>2013-03-07T14:47:13Z</time>
      </trkpt>
      <trkpt lat="43.98264" lon="5.14254">
        <ele>346.9</ele>
        <time>2013-03-07T14:47:14Z</time>
      </trkpt>
      <trkpt lat="43.98263" lon="5.14251">
        <ele>347.5</ele>
        <time>2013-03-07T14:47:15Z</time>
      </trkpt>
      <trkpt lat="43.98261" lon="5.14249">
        <ele>347.2</ele>
        <time>2013-03-07T14:47:16Z</time>
      </trkpt>
      <trkpt lat="43.98259" lon="5.14243">
        <ele>347.8</ele>
        <time>2013-03-07T14:47:19Z</time>
      </trkpt>
      <trkpt lat="43.98258" lon="5.14241">
        <ele>348.1</ele>
        <time>2013-03-07T14:47:20Z</time>
      </trkpt>
      <trkpt lat="43.98256" lon="5.14235">
        <ele>349.1</ele>
        <time>2013-03-07T14:47:22Z</time>
      </trkpt>
      <trkpt lat="43.98255" lon="5.14233">
        <ele>349.5</ele>
        <time>2013-03-07T14:47:23Z</time>
      </trkpt>
      <trkpt lat="43.98253" lon="5.14229">
        <ele>350.3</ele>
        <time>2013-03-07T14:47:25Z</time>
      </trkpt>
      <trkpt lat="43.98255" lon="5.14225">
        <ele>350.6</ele>
        <time>2013-03-07T14:47:26Z</time>
      </trkpt>
      <trkpt lat="43.98255" lon="5.1422">
        <ele>350.2</ele>
        <time>2013-03-07T14:47:28Z</time>
      </trkpt>
      <trkpt lat="43.98254" lon="5.14217">
        <ele>349.3</ele>
        <time>2013-03-07T14:47:29Z</time>
      </trkpt>
      <trkpt lat="43.98255" lon="5.14211">
        <ele>349.7</ele>
        <time>2013-03-07T14:47:31Z</time>
      </trkpt>
      <trkpt lat="43.98256" lon="5.14208">
        <ele>349.9</ele>
        <time>2013-03-07T14:47:32Z</time>
      </trkpt>
      <trkpt lat="43.98257" lon="5.14205">
        <ele>349.6</ele>
        <time>2013-03-07T14:47:33Z</time>
      </trkpt>
      <trkpt lat="43.98258" lon="5.14202">
        <ele>349.6</ele>
        <time>2013-03-07T14:47:34Z</time>
      </trkpt>
      <trkpt lat="43.9826" lon="5.14197">
        <ele>349.7</ele>
        <time>2013-03-07T14:47:36Z</time>
      </trkpt>
      <trkpt lat="43.98261" lon="5.14194">
        <ele>349.2</ele>
        <time>2013-03-07T14:47:37Z</time>
      </trkpt>
      <trkpt lat="43.98263" lon="5.14191">
        <ele>349.1</ele>
        <time>2013-03-07T14:47:39Z</time>
      </trkpt>
      <trkpt lat="43.98265" lon="5.14189">
        <ele>349</ele>
        <time>2013-03-07T14:47:40Z</time>
      </trkpt>
      <trkpt lat="43.98268" lon="5.14185">
        <ele>349.2</ele>
        <time>2013-03-07T14:47:42Z</time>
      </trkpt>
      <trkpt lat="43.9827" lon="5.14184">
        <ele>350.2</ele>
        <time>2013-03-07T14:47:43Z</time>
      </trkpt>
      <trkpt lat="43.98272" lon="5.14182">
        <ele>350.5</ele>
        <time>2013-03-07T14:47:44Z</time>
      </trkpt>
      <trkpt lat="43.98273" lon="5.14179">
        <ele>350.6</ele>
        <time>2013-03-07T14:47:45Z</time>
      </trkpt>
      <trkpt lat="43.98275" lon="5.14176">
        <ele>349.8</ele>
        <time>2013-03-07T14:47:46Z</time>
      </trkpt>
      <trkpt lat="43.98277" lon="5.14174">
        <ele>349.4</ele>
        <time>2013-03-07T14:47:47Z</time>
      </trkpt>
      <trkpt lat="43.9828" lon="5.14171">
        <ele>349.7</ele>
        <time>2013-03-07T14:47:49Z</time>
      </trkpt>
      <trkpt lat="43.98282" lon="5.14168">
        <ele>349.4</ele>
        <time>2013-03-07T14:47:50Z</time>
      </trkpt>
      <trkpt lat="43.98283" lon="5.14166">
        <ele>349.7</ele>
        <time>2013-03-07T14:47:51Z</time>
      </trkpt>
      <trkpt lat="43.98285" lon="5.14164">
        <ele>350.3</ele>
        <time>2013-03-07T14:47:52Z</time>
      </trkpt>
      <trkpt lat="43.98287" lon="5.14161">
        <ele>350.5</ele>
        <time>2013-03-07T14:47:53Z</time>
      </trkpt>
      <trkpt lat="43.98289" lon="5.14159">
        <ele>350.6</ele>
        <time>2013-03-07T14:47:54Z</time>
      </trkpt>
      <trkpt lat="43.98291" lon="5.14157">
        <ele>351</ele>
        <time>2013-03-07T14:47:55Z</time>
      </trkpt>
      <trkpt lat="43.98292" lon="5.14155">
        <ele>351.3</ele>
        <time>2013-03-07T14:47:56Z</time>
      </trkpt>
      <trkpt lat="43.98296" lon="5.1415">
        <ele>352</ele>
        <time>2013-03-07T14:47:58Z</time>
      </trkpt>
      <trkpt lat="43.98298" lon="5.14149">
        <ele>352.2</ele>
        <time>2013-03-07T14:47:59Z</time>
      </trkpt>
      <trkpt lat="43.98301" lon="5.14145">
        <ele>352</ele>
        <time>2013-03-07T14:48:01Z</time>
      </trkpt>
      <trkpt lat="43.98303" lon="5.14142">
        <ele>352</ele>
        <time>2013-03-07T14:48:02Z</time>
      </trkpt>
      <trkpt lat="43.98305" lon="5.1414">
        <ele>352.1</ele>
        <time>2013-03-07T14:48:03Z</time>
      </trkpt>
      <trkpt lat="43.98306" lon="5.14138">
        <ele>352.2</ele>
        <time>2013-03-07T14:48:04Z</time>
      </trkpt>
      <trkpt lat="43.98308" lon="5.14136">
        <ele>351.9</ele>
        <time>2013-03-07T14:48:05Z</time>
      </trkpt>
      <trkpt lat="43.9831" lon="5.14134">
        <ele>352.5</ele>
        <time>2013-03-07T14:48:06Z</time>
      </trkpt>
      <trkpt lat="43.98312" lon="5.14131">
        <ele>352.5</ele>
        <time>2013-03-07T14:48:07Z</time>
      </trkpt>
      <trkpt lat="43.98314" lon="5.14129">
        <ele>353</ele>
        <time>2013-03-07T14:48:08Z</time>
      </trkpt>
      <trkpt lat="43.98316" lon="5.14126">
        <ele>353.2</ele>
        <time>2013-03-07T14:48:09Z</time>
      </trkpt>
      <trkpt lat="43.98318" lon="5.14124">
        <ele>352.8</ele>
        <time>2013-03-07T14:48:10Z</time>
      </trkpt>
      <trkpt lat="43.9832" lon="5.14121">
        <ele>351.2</ele>
        <time>2013-03-07T14:48:11Z</time>
      </trkpt>
      <trkpt lat="43.98321" lon="5.14119">
        <ele>353</ele>
        <time>2013-03-07T14:48:12Z</time>
      </trkpt>
      <trkpt lat="43.98323" lon="5.14116">
        <ele>352.7</ele>
        <time>2013-03-07T14:48:13Z</time>
      </trkpt>
      <trkpt lat="43.98325" lon="5.14113">
        <ele>353</ele>
        <time>2013-03-07T14:48:14Z</time>
      </trkpt>
      <trkpt lat="43.98327" lon="5.14111">
        <ele>353.1</ele>
        <time>2013-03-07T14:48:15Z</time>
      </trkpt>
      <trkpt lat="43.98329" lon="5.14108">
        <ele>353.1</ele>
        <time>2013-03-07T14:48:16Z</time>
      </trkpt>
      <trkpt lat="43.9833" lon="5.14105">
        <ele>353.9</ele>
        <time>2013-03-07T14:48:17Z</time>
      </trkpt>
      <trkpt lat="43.98332" lon="5.14103">
        <ele>354.1</ele>
        <time>2013-03-07T14:48:18Z</time>
      </trkpt>
      <trkpt lat="43.98333" lon="5.14101">
        <ele>354.1</ele>
        <time>2013-03-07T14:48:19Z</time>
      </trkpt>
      <trkpt lat="43.98335" lon="5.14099">
        <ele>354.1</ele>
        <time>2013-03-07T14:48:20Z</time>
      </trkpt>
      <trkpt lat="43.98337" lon="5.14097">
        <ele>354.2</ele>
        <time>2013-03-07T14:48:21Z</time>
      </trkpt>
      <trkpt lat="43.98339" lon="5.14095">
        <ele>354.3</ele>
        <time>2013-03-07T14:48:22Z</time>
      </trkpt>
      <trkpt lat="43.98341" lon="5.14093">
        <ele>354.3</ele>
        <time>2013-03-07T14:48:23Z</time>
      </trkpt>
      <trkpt lat="43.98343" lon="5.14091">
        <ele>354.3</ele>
        <time>2013-03-07T14:48:24Z</time>
      </trkpt>
      <trkpt lat="43.98345" lon="5.14088">
        <ele>354.5</ele>
        <time>2013-03-07T14:48:25Z</time>
      </trkpt>
      <trkpt lat="43.98347" lon="5.14085">
        <ele>354.6</ele>
        <time>2013-03-07T14:48:26Z</time>
      </trkpt>
      <trkpt lat="43.98349" lon="5.14083">
        <ele>354.7</ele>
        <time>2013-03-07T14:48:27Z</time>
      </trkpt>
      <trkpt lat="43.9835" lon="5.14081">
        <ele>354.5</ele>
        <time>2013-03-07T14:48:28Z</time>
      </trkpt>
      <trkpt lat="43.98352" lon="5.14078">
        <ele>354.5</ele>
        <time>2013-03-07T14:48:29Z</time>
      </trkpt>
      <trkpt lat="43.98354" lon="5.14076">
        <ele>354.5</ele>
        <time>2013-03-07T14:48:30Z</time>
      </trkpt>
      <trkpt lat="43.98356" lon="5.14074">
        <ele>354.6</ele>
        <time>2013-03-07T14:48:31Z</time>
      </trkpt>
      <trkpt lat="43.98357" lon="5.14071">
        <ele>354.4</ele>
        <time>2013-03-07T14:48:32Z</time>
      </trkpt>
      <trkpt lat="43.98359" lon="5.14069">
        <ele>354.5</ele>
        <time>2013-03-07T14:48:33Z</time>
      </trkpt>
      <trkpt lat="43.98361" lon="5.14067">
        <ele>354.7</ele>
        <time>2013-03-07T14:48:34Z</time>
      </trkpt>
      <trkpt lat="43.98363" lon="5.14065">
        <ele>354.6</ele>
        <time>2013-03-07T14:48:35Z</time>
      </trkpt>
      <trkpt lat="43.98365" lon="5.14062">
        <ele>354.8</ele>
        <time>2013-03-07T14:48:36Z</time>
      </trkpt>
      <trkpt lat="43.98366" lon="5.14059">
        <ele>354.8</ele>
        <time>2013-03-07T14:48:37Z</time>
      </trkpt>
      <trkpt lat="43.98368" lon="5.14057">
        <ele>355.5</ele>
        <time>2013-03-07T14:48:38Z</time>
      </trkpt>
      <trkpt lat="43.9837" lon="5.14055">
        <ele>356.1</ele>
        <time>2013-03-07T14:48:39Z</time>
      </trkpt>
      <trkpt lat="43.98372" lon="5.14053">
        <ele>356.3</ele>
        <time>2013-03-07T14:48:40Z</time>
      </trkpt>
      <trkpt lat="43.98375" lon="5.14049">
        <ele>356.4</ele>
        <time>2013-03-07T14:48:42Z</time>
      </trkpt>
      <trkpt lat="43.98377" lon="5.14047">
        <ele>356.3</ele>
        <time>2013-03-07T14:48:43Z</time>
      </trkpt>
      <trkpt lat="43.98379" lon="5.14045">
        <ele>356.2</ele>
        <time>2013-03-07T14:48:44Z</time>
      </trkpt>
      <trkpt lat="43.98381" lon="5.14043">
        <ele>356.2</ele>
        <time>2013-03-07T14:48:45Z</time>
      </trkpt>
      <trkpt lat="43.98383" lon="5.14041">
        <ele>357.8</ele>
        <time>2013-03-07T14:48:46Z</time>
      </trkpt>
      <trkpt lat="43.98385" lon="5.14038">
        <ele>357.6</ele>
        <time>2013-03-07T14:48:47Z</time>
      </trkpt>
      <trkpt lat="43.98387" lon="5.14036">
        <ele>357.5</ele>
        <time>2013-03-07T14:48:48Z</time>
      </trkpt>
      <trkpt lat="43.98389" lon="5.14034">
        <ele>357</ele>
        <time>2013-03-07T14:48:49Z</time>
      </trkpt>
      <trkpt lat="43.98392" lon="5.14033">
        <ele>356.9</ele>
        <time>2013-03-07T14:48:50Z</time>
      </trkpt>
      <trkpt lat="43.98394" lon="5.14032">
        <ele>357.4</ele>
        <time>2013-03-07T14:48:51Z</time>
      </trkpt>
      <trkpt lat="43.98396" lon="5.1403">
        <ele>357.8</ele>
        <time>2013-03-07T14:48:52Z</time>
      </trkpt>
      <trkpt lat="43.98399" lon="5.14028">
        <ele>357.5</ele>
        <time>2013-03-07T14:48:53Z</time>
      </trkpt>
      <trkpt lat="43.98401" lon="5.14026">
        <ele>357.1</ele>
        <time>2013-03-07T14:48:54Z</time>
      </trkpt>
      <trkpt lat="43.98403" lon="5.14024">
        <ele>357.4</ele>
        <time>2013-03-07T14:48:55Z</time>
      </trkpt>
      <trkpt lat="43.98405" lon="5.14023">
        <ele>357.6</ele>
        <time>2013-03-07T14:48:56Z</time>
      </trkpt>
      <trkpt lat="43.98408" lon="5.1402">
        <ele>357.8</ele>
        <time>2013-03-07T14:48:57Z</time>
      </trkpt>
      <trkpt lat="43.9841" lon="5.14018">
        <ele>358.2</ele>
        <time>2013-03-07T14:48:58Z</time>
      </trkpt>
      <trkpt lat="43.98412" lon="5.14016">
        <ele>358.4</ele>
        <time>2013-03-07T14:48:59Z</time>
      </trkpt>
      <trkpt lat="43.98414" lon="5.14014">
        <ele>358.3</ele>
        <time>2013-03-07T14:49:00Z</time>
      </trkpt>
      <trkpt lat="43.98416" lon="5.14013">
        <ele>358.6</ele>
        <time>2013-03-07T14:49:01Z</time>
      </trkpt>
      <trkpt lat="43.9842" lon="5.1401">
        <ele>360.7</ele>
        <time>2013-03-07T14:49:03Z</time>
      </trkpt>
      <trkpt lat="43.98421" lon="5.14009">
        <ele>362.2</ele>
        <time>2013-03-07T14:49:04Z</time>
      </trkpt>
      <trkpt lat="43.98421" lon="5.1401">
        <ele>363.6</ele>
        <time>2013-03-07T14:49:05Z</time>
      </trkpt>
      <trkpt lat="43.98427" lon="5.14005">
        <ele>359.9</ele>
        <time>2013-03-07T14:49:06Z</time>
      </trkpt>
      <trkpt lat="43.98429" lon="5.14003">
        <ele>359.4</ele>
        <time>2013-03-07T14:49:07Z</time>
      </trkpt>
      <trkpt lat="43.98432" lon="5.14">
        <ele>358.8</ele>
        <time>2013-03-07T14:49:08Z</time>
      </trkpt>
      <trkpt lat="43.98435" lon="5.13997">
        <ele>360.8</ele>
        <time>2013-03-07T14:49:10Z</time>
      </trkpt>
      <trkpt lat="43.98437" lon="5.13995">
        <ele>360.8</ele>
        <time>2013-03-07T14:49:11Z</time>
      </trkpt>
      <trkpt lat="43.9844" lon="5.13992">
        <ele>360.8</ele>
        <time>2013-03-07T14:49:12Z</time>
      </trkpt>
      <trkpt lat="43.98442" lon="5.1399">
        <ele>360.6</ele>
        <time>2013-03-07T14:49:13Z</time>
      </trkpt>
      <trkpt lat="43.98445" lon="5.13988">
        <ele>360.6</ele>
        <time>2013-03-07T14:49:14Z</time>
      </trkpt>
      <trkpt lat="43.98446" lon="5.13986">
        <ele>360.4</ele>
        <time>2013-03-07T14:49:15Z</time>
      </trkpt>
      <trkpt lat="43.98448" lon="5.13984">
        <ele>360.5</ele>
        <time>2013-03-07T14:49:16Z</time>
      </trkpt>
      <trkpt lat="43.9845" lon="5.13982">
        <ele>360.7</ele>
        <time>2013-03-07T14:49:17Z</time>
      </trkpt>
      <trkpt lat="43.98452" lon="5.1398">
        <ele>360.8</ele>
        <time>2013-03-07T14:49:18Z</time>
      </trkpt>
      <trkpt lat="43.98454" lon="5.13978">
        <ele>360.7</ele>
        <time>2013-03-07T14:49:19Z</time>
      </trkpt>
      <trkpt lat="43.98457" lon="5.13975">
        <ele>360.5</ele>
        <time>2013-03-07T14:49:20Z</time>
      </trkpt>
      <trkpt lat="43.98459" lon="5.13974">
        <ele>360.2</ele>
        <time>2013-03-07T14:49:21Z</time>
      </trkpt>
      <trkpt lat="43.98461" lon="5.13972">
        <ele>360.1</ele>
        <time>2013-03-07T14:49:22Z</time>
      </trkpt>
      <trkpt lat="43.98464" lon="5.13969">
        <ele>360.3</ele>
        <time>2013-03-07T14:49:23Z</time>
      </trkpt>
      <trkpt lat="43.98467" lon="5.13966">
        <ele>361.5</ele>
        <time>2013-03-07T14:49:26Z</time>
      </trkpt>
      <trkpt lat="43.98468" lon="5.13965">
        <ele>361.7</ele>
        <time>2013-03-07T14:49:27Z</time>
      </trkpt>
      <trkpt lat="43.98471" lon="5.13962">
        <ele>361.2</ele>
        <time>2013-03-07T14:49:29Z</time>
      </trkpt>
      <trkpt lat="43.98472" lon="5.13961">
        <ele>361.3</ele>
        <time>2013-03-07T14:49:30Z</time>
      </trkpt>
      <trkpt lat="43.98475" lon="5.13956">
        <ele>361.8</ele>
        <time>2013-03-07T14:49:33Z</time>
      </trkpt>
      <trkpt lat="43.98475" lon="5.13954">
        <ele>362.1</ele>
        <time>2013-03-07T14:49:34Z</time>
      </trkpt>
      <trkpt lat="43.98477" lon="5.1395">
        <ele>362.7</ele>
        <time>2013-03-07T14:49:36Z</time>
      </trkpt>
      <trkpt lat="43.98477" lon="5.13948">
        <ele>362.4</ele>
        <time>2013-03-07T14:49:37Z</time>
      </trkpt>
      <trkpt lat="43.98478" lon="5.13944">
        <ele>362.9</ele>
        <time>2013-03-07T14:49:39Z</time>
      </trkpt>
      <trkpt lat="43.98478" lon="5.13942">
        <ele>363</ele>
        <time>2013-03-07T14:49:40Z</time>
      </trkpt>
      <trkpt lat="43.98478" lon="5.13935">
        <ele>363.2</ele>
        <time>2013-03-07T14:49:43Z</time>
      </trkpt>
      <trkpt lat="43.98477" lon="5.13933">
        <ele>363.3</ele>
        <time>2013-03-07T14:49:44Z</time>
      </trkpt>
      <trkpt lat="43.98476" lon="5.13928">
        <ele>363.7</ele>
        <time>2013-03-07T14:49:46Z</time>
      </trkpt>
      <trkpt lat="43.98476" lon="5.13927">
        <ele>364</ele>
        <time>2013-03-07T14:49:47Z</time>
      </trkpt>
      <trkpt lat="43.98474" lon="5.13922">
        <ele>364.6</ele>
        <time>2013-03-07T14:49:49Z</time>
      </trkpt>
      <trkpt lat="43.98473" lon="5.1392">
        <ele>365</ele>
        <time>2013-03-07T14:49:50Z</time>
      </trkpt>
      <trkpt lat="43.98472" lon="5.13916">
        <ele>362.2</ele>
        <time>2013-03-07T14:49:51Z</time>
      </trkpt>
      <trkpt lat="43.98471" lon="5.13913">
        <ele>362.8</ele>
        <time>2013-03-07T14:49:52Z</time>
      </trkpt>
      <trkpt lat="43.98473" lon="5.13909">
        <ele>378.4</ele>
        <time>2013-03-07T14:49:58Z</time>
      </trkpt>
      <trkpt lat="43.9847" lon="5.13905">
        <ele>378.8</ele>
        <time>2013-03-07T14:49:59Z</time>
      </trkpt>
      <trkpt lat="43.98468" lon="5.13903">
        <ele>379.8</ele>
        <time>2013-03-07T14:50:00Z</time>
      </trkpt>
      <trkpt lat="43.98467" lon="5.13898">
        <ele>380.9</ele>
        <time>2013-03-07T14:50:01Z</time>
      </trkpt>
      <trkpt lat="43.98468" lon="5.13896">
        <ele>382.1</ele>
        <time>2013-03-07T14:50:02Z</time>
      </trkpt>
      <trkpt lat="43.98466" lon="5.13892">
        <ele>380.1</ele>
        <time>2013-03-07T14:50:03Z</time>
      </trkpt>
      <trkpt lat="43.98464" lon="5.13889">
        <ele>379.9</ele>
        <time>2013-03-07T14:50:04Z</time>
      </trkpt>
      <trkpt lat="43.98463" lon="5.13886">
        <ele>380</ele>
        <time>2013-03-07T14:50:05Z</time>
      </trkpt>
      <trkpt lat="43.9846" lon="5.13881">
        <ele>380.9</ele>
        <time>2013-03-07T14:50:07Z</time>
      </trkpt>
      <trkpt lat="43.98459" lon="5.13878">
        <ele>382.1</ele>
        <time>2013-03-07T14:50:08Z</time>
      </trkpt>
      <trkpt lat="43.98457" lon="5.13876">
        <ele>380.9</ele>
        <time>2013-03-07T14:50:09Z</time>
      </trkpt>
      <trkpt lat="43.98454" lon="5.13874">
        <ele>379.6</ele>
        <time>2013-03-07T14:50:10Z</time>
      </trkpt>
      <trkpt lat="43.98452" lon="5.13871">
        <ele>377.8</ele>
        <time>2013-03-07T14:50:11Z</time>
      </trkpt>
      <trkpt lat="43.9845" lon="5.1387">
        <ele>379.2</ele>
        <time>2013-03-07T14:50:12Z</time>
      </trkpt>
      <trkpt lat="43.98447" lon="5.13867">
        <ele>376</ele>
        <time>2013-03-07T14:50:14Z</time>
      </trkpt>
      <trkpt lat="43.98446" lon="5.13867">
        <ele>376</ele>
        <time>2013-03-07T14:50:15Z</time>
      </trkpt>
      <trkpt lat="43.98444" lon="5.13865">
        <ele>376.6</ele>
        <time>2013-03-07T14:50:16Z</time>
      </trkpt>
      <trkpt lat="43.98443" lon="5.13861">
        <ele>376</ele>
        <time>2013-03-07T14:50:17Z</time>
      </trkpt>
      <trkpt lat="43.98439" lon="5.13859">
        <ele>373.3</ele>
        <time>2013-03-07T14:50:19Z</time>
      </trkpt>
      <trkpt lat="43.98437" lon="5.13861">
        <ele>372.6</ele>
        <time>2013-03-07T14:50:20Z</time>
      </trkpt>
      <trkpt lat="43.98435" lon="5.13866">
        <ele>372.8</ele>
        <time>2013-03-07T14:50:22Z</time>
      </trkpt>
      <trkpt lat="43.98434" lon="5.13867">
        <ele>373.8</ele>
        <time>2013-03-07T14:50:23Z</time>
      </trkpt>
      <trkpt lat="43.98431" lon="5.13871">
        <ele>374.4</ele>
        <time>2013-03-07T14:50:25Z</time>
      </trkpt>
      <trkpt lat="43.9843" lon="5.13872">
        <ele>374.4</ele>
        <time>2013-03-07T14:50:26Z</time>
      </trkpt>
      <trkpt lat="43.98426" lon="5.13874">
        <ele>374.6</ele>
        <time>2013-03-07T14:50:29Z</time>
      </trkpt>
      <trkpt lat="43.98424" lon="5.13874">
        <ele>374.6</ele>
        <time>2013-03-07T14:50:30Z</time>
      </trkpt>
      <trkpt lat="43.98423" lon="5.1388">
        <ele>372.9</ele>
        <time>2013-03-07T14:50:31Z</time>
      </trkpt>
      <trkpt lat="43.98421" lon="5.13884">
        <ele>375.6</ele>
        <time>2013-03-07T14:50:33Z</time>
      </trkpt>
      <trkpt lat="43.98421" lon="5.13886">
        <ele>376.8</ele>
        <time>2013-03-07T14:50:34Z</time>
      </trkpt>
      <trkpt lat="43.98418" lon="5.13891">
        <ele>374.8</ele>
        <time>2013-03-07T14:50:36Z</time>
      </trkpt>
      <trkpt lat="43.98417" lon="5.13893">
        <ele>374.6</ele>
        <time>2013-03-07T14:50:37Z</time>
      </trkpt>
      <trkpt lat="43.98414" lon="5.13897">
        <ele>374.4</ele>
        <time>2013-03-07T14:50:39Z</time>
      </trkpt>
      <trkpt lat="43.98413" lon="5.13898">
        <ele>373.8</ele>
        <time>2013-03-07T14:50:40Z</time>
      </trkpt>
      <trkpt lat="43.9841" lon="5.13902">
        <ele>373.6</ele>
        <time>2013-03-07T14:50:42Z</time>
      </trkpt>
      <trkpt lat="43.98409" lon="5.13903">
        <ele>373.7</ele>
        <time>2013-03-07T14:50:43Z</time>
      </trkpt>
      <trkpt lat="43.98407" lon="5.13904">
        <ele>373.6</ele>
        <time>2013-03-07T14:50:45Z</time>
      </trkpt>
      <trkpt lat="43.98405" lon="5.13909">
        <ele>372.9</ele>
        <time>2013-03-07T14:50:46Z</time>
      </trkpt>
      <trkpt lat="43.98402" lon="5.13912">
        <ele>373.1</ele>
        <time>2013-03-07T14:50:48Z</time>
      </trkpt>
      <trkpt lat="43.98401" lon="5.13912">
        <ele>372.8</ele>
        <time>2013-03-07T14:50:49Z</time>
      </trkpt>
      <trkpt lat="43.98397" lon="5.13916">
        <ele>373.7</ele>
        <time>2013-03-07T14:50:53Z</time>
      </trkpt>
      <trkpt lat="43.98395" lon="5.13919">
        <ele>373.4</ele>
        <time>2013-03-07T14:50:54Z</time>
      </trkpt>
      <trkpt lat="43.98393" lon="5.13921">
        <ele>373.8</ele>
        <time>2013-03-07T14:50:56Z</time>
      </trkpt>
      <trkpt lat="43.98391" lon="5.13923">
        <ele>373.9</ele>
        <time>2013-03-07T14:50:57Z</time>
      </trkpt>
      <trkpt lat="43.98389" lon="5.13926">
        <ele>374</ele>
        <time>2013-03-07T14:50:59Z</time>
      </trkpt>
      <trkpt lat="43.98388" lon="5.13927">
        <ele>374.4</ele>
        <time>2013-03-07T14:51:00Z</time>
      </trkpt>
      <trkpt lat="43.98385" lon="5.1393">
        <ele>374.3</ele>
        <time>2013-03-07T14:51:02Z</time>
      </trkpt>
      <trkpt lat="43.98383" lon="5.13932">
        <ele>374</ele>
        <time>2013-03-07T14:51:03Z</time>
      </trkpt>
      <trkpt lat="43.9838" lon="5.13934">
        <ele>374.1</ele>
        <time>2013-03-07T14:51:05Z</time>
      </trkpt>
      <trkpt lat="43.98379" lon="5.13935">
        <ele>374.3</ele>
        <time>2013-03-07T14:51:06Z</time>
      </trkpt>
      <trkpt lat="43.98376" lon="5.13937">
        <ele>374.2</ele>
        <time>2013-03-07T14:51:08Z</time>
      </trkpt>
      <trkpt lat="43.98375" lon="5.13939">
        <ele>374.1</ele>
        <time>2013-03-07T14:51:09Z</time>
      </trkpt>
      <trkpt lat="43.98372" lon="5.13942">
        <ele>374.1</ele>
        <time>2013-03-07T14:51:11Z</time>
      </trkpt>
      <trkpt lat="43.98371" lon="5.13943">
        <ele>374.1</ele>
        <time>2013-03-07T14:51:12Z</time>
      </trkpt>
      <trkpt lat="43.98368" lon="5.13945">
        <ele>374.4</ele>
        <time>2013-03-07T14:51:14Z</time>
      </trkpt>
      <trkpt lat="43.98367" lon="5.13946">
        <ele>374.1</ele>
        <time>2013-03-07T14:51:15Z</time>
      </trkpt>
      <trkpt lat="43.98362" lon="5.13947">
        <ele>374.3</ele>
        <time>2013-03-07T14:51:18Z</time>
      </trkpt>
      <trkpt lat="43.98361" lon="5.13948">
        <ele>374</ele>
        <time>2013-03-07T14:51:19Z</time>
      </trkpt>
      <trkpt lat="43.98356" lon="5.13947">
        <ele>375.5</ele>
        <time>2013-03-07T14:51:22Z</time>
      </trkpt>
      <trkpt lat="43.98354" lon="5.13948">
        <ele>375.5</ele>
        <time>2013-03-07T14:51:23Z</time>
      </trkpt>
      <trkpt lat="43.98351" lon="5.13949">
        <ele>375.6</ele>
        <time>2013-03-07T14:51:25Z</time>
      </trkpt>
      <trkpt lat="43.9835" lon="5.1395">
        <ele>376</ele>
        <time>2013-03-07T14:51:26Z</time>
      </trkpt>
      <trkpt lat="43.98346" lon="5.1395">
        <ele>375.7</ele>
        <time>2013-03-07T14:51:28Z</time>
      </trkpt>
      <trkpt lat="43.98345" lon="5.1395">
        <ele>375.8</ele>
        <time>2013-03-07T14:51:29Z</time>
      </trkpt>
      <trkpt lat="43.98342" lon="5.1395">
        <ele>375.4</ele>
        <time>2013-03-07T14:51:31Z</time>
      </trkpt>
      <trkpt lat="43.9834" lon="5.13951">
        <ele>375.6</ele>
        <time>2013-03-07T14:51:32Z</time>
      </trkpt>
      <trkpt lat="43.98337" lon="5.13952">
        <ele>375.7</ele>
        <time>2013-03-07T14:51:34Z</time>
      </trkpt>
      <trkpt lat="43.98335" lon="5.13952">
        <ele>375.7</ele>
        <time>2013-03-07T14:51:35Z</time>
      </trkpt>
      <trkpt lat="43.98332" lon="5.13953">
        <ele>375.9</ele>
        <time>2013-03-07T14:51:37Z</time>
      </trkpt>
      <trkpt lat="43.98331" lon="5.13953">
        <ele>375.9</ele>
        <time>2013-03-07T14:51:38Z</time>
      </trkpt>
      <trkpt lat="43.98327" lon="5.13954">
        <ele>376.7</ele>
        <time>2013-03-07T14:51:40Z</time>
      </trkpt>
      <trkpt lat="43.98325" lon="5.13954">
        <ele>376.7</ele>
        <time>2013-03-07T14:51:41Z</time>
      </trkpt>
      <trkpt lat="43.98322" lon="5.13954">
        <ele>376.7</ele>
        <time>2013-03-07T14:51:43Z</time>
      </trkpt>
      <trkpt lat="43.9832" lon="5.13954">
        <ele>376.4</ele>
        <time>2013-03-07T14:51:44Z</time>
      </trkpt>
      <trkpt lat="43.98317" lon="5.13956">
        <ele>376.3</ele>
        <time>2013-03-07T14:51:46Z</time>
      </trkpt>
      <trkpt lat="43.98316" lon="5.13956">
        <ele>376.4</ele>
        <time>2013-03-07T14:51:47Z</time>
      </trkpt>
      <trkpt lat="43.98312" lon="5.13957">
        <ele>377.6</ele>
        <time>2013-03-07T14:51:50Z</time>
      </trkpt>
      <trkpt lat="43.9831" lon="5.13958">
        <ele>377.3</ele>
        <time>2013-03-07T14:51:51Z</time>
      </trkpt>
      <trkpt lat="43.98307" lon="5.13958">
        <ele>377.2</ele>
        <time>2013-03-07T14:51:53Z</time>
      </trkpt>
      <trkpt lat="43.98305" lon="5.13957">
        <ele>377.1</ele>
        <time>2013-03-07T14:51:54Z</time>
      </trkpt>
      <trkpt lat="43.98301" lon="5.13958">
        <ele>377.6</ele>
        <time>2013-03-07T14:51:57Z</time>
      </trkpt>
      <trkpt lat="43.98299" lon="5.13957">
        <ele>377.6</ele>
        <time>2013-03-07T14:51:58Z</time>
      </trkpt>
      <trkpt lat="43.98296" lon="5.13959">
        <ele>377.6</ele>
        <time>2013-03-07T14:52:01Z</time>
      </trkpt>
      <trkpt lat="43.98294" lon="5.13958">
        <ele>377.5</ele>
        <time>2013-03-07T14:52:02Z</time>
      </trkpt>
      <trkpt lat="43.9829" lon="5.13961">
        <ele>377.8</ele>
        <time>2013-03-07T14:55:56Z</time>
      </trkpt>
      <trkpt lat="43.98289" lon="5.13961">
        <ele>378.7</ele>
        <time>2013-03-07T14:55:57Z</time>
      </trkpt>
      <trkpt lat="43.98286" lon="5.13962">
        <ele>377</ele>
        <time>2013-03-07T14:56:01Z</time>
      </trkpt>
      <trkpt lat="43.98285" lon="5.13962">
        <ele>377.4</ele>
        <time>2013-03-07T14:56:02Z</time>
      </trkpt>
      <trkpt lat="43.9828" lon="5.13962">
        <ele>376.8</ele>
        <time>2013-03-07T14:56:06Z</time>
      </trkpt>
      <trkpt lat="43.98279" lon="5.13963">
        <ele>377.1</ele>
        <time>2013-03-07T14:56:07Z</time>
      </trkpt>
      <trkpt lat="43.98275" lon="5.13963">
        <ele>378.1</ele>
        <time>2013-03-07T14:56:11Z</time>
      </trkpt>
      <trkpt lat="43.98274" lon="5.13963">
        <ele>378</ele>
        <time>2013-03-07T14:56:12Z</time>
      </trkpt>
      <trkpt lat="43.9827" lon="5.13965">
        <ele>377.3</ele>
        <time>2013-03-07T14:56:24Z</time>
      </trkpt>
      <trkpt lat="43.98269" lon="5.13966">
        <ele>377.4</ele>
        <time>2013-03-07T14:56:25Z</time>
      </trkpt>
      <trkpt lat="43.98265" lon="5.13967">
        <ele>378.1</ele>
        <time>2013-03-07T14:56:28Z</time>
      </trkpt>
      <trkpt lat="43.98263" lon="5.13968">
        <ele>378.3</ele>
        <time>2013-03-07T14:56:29Z</time>
      </trkpt>
      <trkpt lat="43.98259" lon="5.1397">
        <ele>379.8</ele>
        <time>2013-03-07T14:56:33Z</time>
      </trkpt>
      <trkpt lat="43.98257" lon="5.13971">
        <ele>380.8</ele>
        <time>2013-03-07T14:56:34Z</time>
      </trkpt>
      <trkpt lat="43.98254" lon="5.13971">
        <ele>381.9</ele>
        <time>2013-03-07T14:56:38Z</time>
      </trkpt>
      <trkpt lat="43.98252" lon="5.13972">
        <ele>382.2</ele>
        <time>2013-03-07T14:56:39Z</time>
      </trkpt>
      <trkpt lat="43.98249" lon="5.13975">
        <ele>382.1</ele>
        <time>2013-03-07T14:56:43Z</time>
      </trkpt>
      <trkpt lat="43.98248" lon="5.13975">
        <ele>383.2</ele>
        <time>2013-03-07T14:56:44Z</time>
      </trkpt>
      <trkpt lat="43.98244" lon="5.13977">
        <ele>383.4</ele>
        <time>2013-03-07T14:56:47Z</time>
      </trkpt>
      <trkpt lat="43.98242" lon="5.13979">
        <ele>383.4</ele>
        <time>2013-03-07T14:56:48Z</time>
      </trkpt>
      <trkpt lat="43.9824" lon="5.1398">
        <ele>383.6</ele>
        <time>2013-03-07T14:56:49Z</time>
      </trkpt>
      <trkpt lat="43.98238" lon="5.13981">
        <ele>383.2</ele>
        <time>2013-03-07T14:56:50Z</time>
      </trkpt>
      <trkpt lat="43.98234" lon="5.13983">
        <ele>383.4</ele>
        <time>2013-03-07T14:56:52Z</time>
      </trkpt>
      <trkpt lat="43.98232" lon="5.13982">
        <ele>383.5</ele>
        <time>2013-03-07T14:56:53Z</time>
      </trkpt>
      <trkpt lat="43.98228" lon="5.13982">
        <ele>383.1</ele>
        <time>2013-03-07T14:56:55Z</time>
      </trkpt>
      <trkpt lat="43.98226" lon="5.13983">
        <ele>383.2</ele>
        <time>2013-03-07T14:56:56Z</time>
      </trkpt>
      <trkpt lat="43.98222" lon="5.13984">
        <ele>383.5</ele>
        <time>2013-03-07T14:56:58Z</time>
      </trkpt>
      <trkpt lat="43.98221" lon="5.13984">
        <ele>383.2</ele>
        <time>2013-03-07T14:56:59Z</time>
      </trkpt>
      <trkpt lat="43.98217" lon="5.13984">
        <ele>383.5</ele>
        <time>2013-03-07T14:57:01Z</time>
      </trkpt>
      <trkpt lat="43.98215" lon="5.13983">
        <ele>383.4</ele>
        <time>2013-03-07T14:57:02Z</time>
      </trkpt>
      <trkpt lat="43.98212" lon="5.13984">
        <ele>383.9</ele>
        <time>2013-03-07T14:57:04Z</time>
      </trkpt>
      <trkpt lat="43.9821" lon="5.13984">
        <ele>383.9</ele>
        <time>2013-03-07T14:57:05Z</time>
      </trkpt>
      <trkpt lat="43.98206" lon="5.13981">
        <ele>384.9</ele>
        <time>2013-03-07T14:57:08Z</time>
      </trkpt>
      <trkpt lat="43.98205" lon="5.1398">
        <ele>384.9</ele>
        <time>2013-03-07T14:57:09Z</time>
      </trkpt>
      <trkpt lat="43.98201" lon="5.13979">
        <ele>384.8</ele>
        <time>2013-03-07T14:57:11Z</time>
      </trkpt>
      <trkpt lat="43.98199" lon="5.13978">
        <ele>384.6</ele>
        <time>2013-03-07T14:57:12Z</time>
      </trkpt>
      <trkpt lat="43.98196" lon="5.13976">
        <ele>384.9</ele>
        <time>2013-03-07T14:57:14Z</time>
      </trkpt>
      <trkpt lat="43.98194" lon="5.13975">
        <ele>385.1</ele>
        <time>2013-03-07T14:57:15Z</time>
      </trkpt>
      <trkpt lat="43.9819" lon="5.13973">
        <ele>385.3</ele>
        <time>2013-03-07T14:57:17Z</time>
      </trkpt>
      <trkpt lat="43.98189" lon="5.13972">
        <ele>385.4</ele>
        <time>2013-03-07T14:57:18Z</time>
      </trkpt>
      <trkpt lat="43.98184" lon="5.13971">
        <ele>385</ele>
        <time>2013-03-07T14:57:20Z</time>
      </trkpt>
      <trkpt lat="43.98182" lon="5.1397">
        <ele>384.9</ele>
        <time>2013-03-07T14:57:21Z</time>
      </trkpt>
      <trkpt lat="43.98179" lon="5.13968">
        <ele>385</ele>
        <time>2013-03-07T14:57:23Z</time>
      </trkpt>
      <trkpt lat="43.98177" lon="5.13968">
        <ele>385.2</ele>
        <time>2013-03-07T14:57:24Z</time>
      </trkpt>
      <trkpt lat="43.98174" lon="5.13969">
        <ele>384.9</ele>
        <time>2013-03-07T14:57:26Z</time>
      </trkpt>
      <trkpt lat="43.98171" lon="5.13969">
        <ele>385.1</ele>
        <time>2013-03-07T14:57:27Z</time>
      </trkpt>
      <trkpt lat="43.98168" lon="5.13971">
        <ele>385.9</ele>
        <time>2013-03-07T14:57:29Z</time>
      </trkpt>
      <trkpt lat="43.98166" lon="5.13972">
        <ele>386.1</ele>
        <time>2013-03-07T14:57:30Z</time>
      </trkpt>
      <trkpt lat="43.98163" lon="5.13975">
        <ele>386.3</ele>
        <time>2013-03-07T14:57:32Z</time>
      </trkpt>
      <trkpt lat="43.98162" lon="5.13977">
        <ele>386.2</ele>
        <time>2013-03-07T14:57:33Z</time>
      </trkpt>
      <trkpt lat="43.98162" lon="5.13982">
        <ele>386.1</ele>
        <time>2013-03-07T14:57:35Z</time>
      </trkpt>
      <trkpt lat="43.98161" lon="5.13986">
        <ele>385.3</ele>
        <time>2013-03-07T14:57:36Z</time>
      </trkpt>
      <trkpt lat="43.98158" lon="5.13989">
        <ele>385.2</ele>
        <time>2013-03-07T14:57:38Z</time>
      </trkpt>
      <trkpt lat="43.98157" lon="5.13991">
        <ele>384.8</ele>
        <time>2013-03-07T14:57:39Z</time>
      </trkpt>
      <trkpt lat="43.98152" lon="5.13992">
        <ele>384.6</ele>
        <time>2013-03-07T14:57:42Z</time>
      </trkpt>
      <trkpt lat="43.9815" lon="5.13995">
        <ele>383.4</ele>
        <time>2013-03-07T14:57:43Z</time>
      </trkpt>
      <trkpt lat="43.98149" lon="5.14">
        <ele>384.2</ele>
        <time>2013-03-07T14:57:45Z</time>
      </trkpt>
      <trkpt lat="43.98148" lon="5.14002">
        <ele>384.5</ele>
        <time>2013-03-07T14:57:46Z</time>
      </trkpt>
      <trkpt lat="43.98145" lon="5.14005">
        <ele>384.3</ele>
        <time>2013-03-07T14:57:48Z</time>
      </trkpt>
      <trkpt lat="43.98143" lon="5.14006">
        <ele>384.5</ele>
        <time>2013-03-07T14:57:49Z</time>
      </trkpt>
      <trkpt lat="43.9814" lon="5.14009">
        <ele>384.3</ele>
        <time>2013-03-07T14:57:51Z</time>
      </trkpt>
      <trkpt lat="43.98141" lon="5.14013">
        <ele>384</ele>
        <time>2013-03-07T14:57:52Z</time>
      </trkpt>
      <trkpt lat="43.98144" lon="5.14014">
        <ele>388.3</ele>
        <time>2013-03-07T14:57:56Z</time>
      </trkpt>
      <trkpt lat="43.98137" lon="5.14019">
        <ele>387</ele>
        <time>2013-03-07T14:57:57Z</time>
      </trkpt>
      <trkpt lat="43.98135" lon="5.14021">
        <ele>387.6</ele>
        <time>2013-03-07T14:57:58Z</time>
      </trkpt>
      <trkpt lat="43.98133" lon="5.14023">
        <ele>387.8</ele>
        <time>2013-03-07T14:57:59Z</time>
      </trkpt>
      <trkpt lat="43.98131" lon="5.14025">
        <ele>388.1</ele>
        <time>2013-03-07T14:58:00Z</time>
      </trkpt>
      <trkpt lat="43.98129" lon="5.14028">
        <ele>387.6</ele>
        <time>2013-03-07T14:58:01Z</time>
      </trkpt>
      <trkpt lat="43.98127" lon="5.14031">
        <ele>387.2</ele>
        <time>2013-03-07T14:58:02Z</time>
      </trkpt>
      <trkpt lat="43.98124" lon="5.14037">
        <ele>386.2</ele>
        <time>2013-03-07T14:58:03Z</time>
      </trkpt>
      <trkpt lat="43.98121" lon="5.14033">
        <ele>388</ele>
        <time>2013-03-07T14:58:05Z</time>
      </trkpt>
      <trkpt lat="43.98119" lon="5.14035">
        <ele>387.7</ele>
        <time>2013-03-07T14:58:06Z</time>
      </trkpt>
      <trkpt lat="43.98116" lon="5.14036">
        <ele>389.6</ele>
        <time>2013-03-07T14:58:08Z</time>
      </trkpt>
      <trkpt lat="43.98113" lon="5.1404">
        <ele>388.6</ele>
        <time>2013-03-07T14:58:09Z</time>
      </trkpt>
      <trkpt lat="43.9811" lon="5.14043">
        <ele>388.4</ele>
        <time>2013-03-07T14:58:10Z</time>
      </trkpt>
      <trkpt lat="43.98109" lon="5.14044">
        <ele>389</ele>
        <time>2013-03-07T14:58:11Z</time>
      </trkpt>
      <trkpt lat="43.98107" lon="5.14047">
        <ele>389.1</ele>
        <time>2013-03-07T14:58:12Z</time>
      </trkpt>
      <trkpt lat="43.98106" lon="5.14049">
        <ele>389.4</ele>
        <time>2013-03-07T14:58:13Z</time>
      </trkpt>
      <trkpt lat="43.98104" lon="5.14051">
        <ele>389.6</ele>
        <time>2013-03-07T14:58:14Z</time>
      </trkpt>
      <trkpt lat="43.98102" lon="5.14054">
        <ele>389</ele>
        <time>2013-03-07T14:58:15Z</time>
      </trkpt>
      <trkpt lat="43.98098" lon="5.14058">
        <ele>389.4</ele>
        <time>2013-03-07T14:58:17Z</time>
      </trkpt>
      <trkpt lat="43.98097" lon="5.1406">
        <ele>389.8</ele>
        <time>2013-03-07T14:58:18Z</time>
      </trkpt>
      <trkpt lat="43.98093" lon="5.14063">
        <ele>390.3</ele>
        <time>2013-03-07T14:58:20Z</time>
      </trkpt>
      <trkpt lat="43.9809" lon="5.14065">
        <ele>388.6</ele>
        <time>2013-03-07T14:58:21Z</time>
      </trkpt>
      <trkpt lat="43.98086" lon="5.14066">
        <ele>389.2</ele>
        <time>2013-03-07T14:58:23Z</time>
      </trkpt>
      <trkpt lat="43.98083" lon="5.14067">
        <ele>389.4</ele>
        <time>2013-03-07T14:58:24Z</time>
      </trkpt>
      <trkpt lat="43.98081" lon="5.14068">
        <ele>389.6</ele>
        <time>2013-03-07T14:58:25Z</time>
      </trkpt>
      <trkpt lat="43.98079" lon="5.14069">
        <ele>389.8</ele>
        <time>2013-03-07T14:58:26Z</time>
      </trkpt>
      <trkpt lat="43.98077" lon="5.14071">
        <ele>390</ele>
        <time>2013-03-07T14:58:27Z</time>
      </trkpt>
      <trkpt lat="43.98075" lon="5.14072">
        <ele>389.9</ele>
        <time>2013-03-07T14:58:28Z</time>
      </trkpt>
      <trkpt lat="43.98073" lon="5.14073">
        <ele>390.2</ele>
        <time>2013-03-07T14:58:29Z</time>
      </trkpt>
      <trkpt lat="43.98071" lon="5.14078">
        <ele>390.3</ele>
        <time>2013-03-07T14:58:30Z</time>
      </trkpt>
      <trkpt lat="43.9807" lon="5.14081">
        <ele>390.2</ele>
        <time>2013-03-07T14:58:31Z</time>
      </trkpt>
      <trkpt lat="43.98068" lon="5.14085">
        <ele>389.1</ele>
        <time>2013-03-07T14:58:32Z</time>
      </trkpt>
      <trkpt lat="43.98066" lon="5.14092">
        <ele>387.8</ele>
        <time>2013-03-07T14:58:33Z</time>
      </trkpt>
      <trkpt lat="43.98063" lon="5.14097">
        <ele>387</ele>
        <time>2013-03-07T14:58:34Z</time>
      </trkpt>
      <trkpt lat="43.98061" lon="5.14103">
        <ele>386.3</ele>
        <time>2013-03-07T14:58:35Z</time>
      </trkpt>
      <trkpt lat="43.98059" lon="5.14108">
        <ele>385.3</ele>
        <time>2013-03-07T14:58:36Z</time>
      </trkpt>
      <trkpt lat="43.98057" lon="5.14111">
        <ele>384.6</ele>
        <time>2013-03-07T14:58:37Z</time>
      </trkpt>
      <trkpt lat="43.98053" lon="5.14109">
        <ele>385.2</ele>
        <time>2013-03-07T14:58:39Z</time>
      </trkpt>
      <trkpt lat="43.98051" lon="5.14109">
        <ele>385.4</ele>
        <time>2013-03-07T14:58:40Z</time>
      </trkpt>
      <trkpt lat="43.98048" lon="5.14107">
        <ele>387.1</ele>
        <time>2013-03-07T14:58:42Z</time>
      </trkpt>
      <trkpt lat="43.98046" lon="5.14103">
        <ele>388</ele>
        <time>2013-03-07T14:58:43Z</time>
      </trkpt>
      <trkpt lat="43.98045" lon="5.14101">
        <ele>387.6</ele>
        <time>2013-03-07T14:58:44Z</time>
      </trkpt>
      <trkpt lat="43.98043" lon="5.14099">
        <ele>388.4</ele>
        <time>2013-03-07T14:58:45Z</time>
      </trkpt>
      <trkpt lat="43.98041" lon="5.14095">
        <ele>389.2</ele>
        <time>2013-03-07T14:58:47Z</time>
      </trkpt>
      <trkpt lat="43.9804" lon="5.14094">
        <ele>389.4</ele>
        <time>2013-03-07T14:58:48Z</time>
      </trkpt>
      <trkpt lat="43.98035" lon="5.14095">
        <ele>388.4</ele>
        <time>2013-03-07T14:58:50Z</time>
      </trkpt>
      <trkpt lat="43.98034" lon="5.14094">
        <ele>387.8</ele>
        <time>2013-03-07T14:58:51Z</time>
      </trkpt>
      <trkpt lat="43.98031" lon="5.14093">
        <ele>388.4</ele>
        <time>2013-03-07T14:58:53Z</time>
      </trkpt>
      <trkpt lat="43.98029" lon="5.14092">
        <ele>388.3</ele>
        <time>2013-03-07T14:58:54Z</time>
      </trkpt>
      <trkpt lat="43.98025" lon="5.14092">
        <ele>391.4</ele>
        <time>2013-03-07T15:01:30Z</time>
      </trkpt>
      <trkpt lat="43.98024" lon="5.14094">
        <ele>391.3</ele>
        <time>2013-03-07T15:01:31Z</time>
      </trkpt>
      <trkpt lat="43.98022" lon="5.14099">
        <ele>390.8</ele>
        <time>2013-03-07T15:01:33Z</time>
      </trkpt>
      <trkpt lat="43.98021" lon="5.141">
        <ele>390.8</ele>
        <time>2013-03-07T15:01:34Z</time>
      </trkpt>
      <trkpt lat="43.9802" lon="5.14105">
        <ele>391.3</ele>
        <time>2013-03-07T15:01:36Z</time>
      </trkpt>
      <trkpt lat="43.98018" lon="5.14107">
        <ele>391.7</ele>
        <time>2013-03-07T15:01:37Z</time>
      </trkpt>
      <trkpt lat="43.98017" lon="5.14109">
        <ele>391.8</ele>
        <time>2013-03-07T15:01:38Z</time>
      </trkpt>
      <trkpt lat="43.98015" lon="5.14112">
        <ele>391.6</ele>
        <time>2013-03-07T15:01:39Z</time>
      </trkpt>
      <trkpt lat="43.98014" lon="5.14115">
        <ele>392.1</ele>
        <time>2013-03-07T15:01:40Z</time>
      </trkpt>
      <trkpt lat="43.98012" lon="5.14118">
        <ele>392</ele>
        <time>2013-03-07T15:01:41Z</time>
      </trkpt>
      <trkpt lat="43.9801" lon="5.14121">
        <ele>391.9</ele>
        <time>2013-03-07T15:01:42Z</time>
      </trkpt>
      <trkpt lat="43.98009" lon="5.14124">
        <ele>391.9</ele>
        <time>2013-03-07T15:01:43Z</time>
      </trkpt>
      <trkpt lat="43.98007" lon="5.14127">
        <ele>391.8</ele>
        <time>2013-03-07T15:01:44Z</time>
      </trkpt>
      <trkpt lat="43.98005" lon="5.1413">
        <ele>391.9</ele>
        <time>2013-03-07T15:01:45Z</time>
      </trkpt>
      <trkpt lat="43.98004" lon="5.14133">
        <ele>392.1</ele>
        <time>2013-03-07T15:01:46Z</time>
      </trkpt>
      <trkpt lat="43.98002" lon="5.14137">
        <ele>391.9</ele>
        <time>2013-03-07T15:01:47Z</time>
      </trkpt>
      <trkpt lat="43.98" lon="5.1414">
        <ele>391.9</ele>
        <time>2013-03-07T15:01:48Z</time>
      </trkpt>
      <trkpt lat="43.97999" lon="5.14144">
        <ele>391.9</ele>
        <time>2013-03-07T15:01:49Z</time>
      </trkpt>
      <trkpt lat="43.97997" lon="5.14147">
        <ele>391.8</ele>
        <time>2013-03-07T15:01:50Z</time>
      </trkpt>
      <trkpt lat="43.97996" lon="5.14151">
        <ele>391.9</ele>
        <time>2013-03-07T15:01:51Z</time>
      </trkpt>
      <trkpt lat="43.97994" lon="5.14154">
        <ele>391.8</ele>
        <time>2013-03-07T15:01:52Z</time>
      </trkpt>
      <trkpt lat="43.97993" lon="5.14158">
        <ele>391.8</ele>
        <time>2013-03-07T15:01:53Z</time>
      </trkpt>
      <trkpt lat="43.97991" lon="5.14162">
        <ele>391.9</ele>
        <time>2013-03-07T15:01:54Z</time>
      </trkpt>
      <trkpt lat="43.9799" lon="5.14165">
        <ele>392</ele>
        <time>2013-03-07T15:01:55Z</time>
      </trkpt>
      <trkpt lat="43.97989" lon="5.14169">
        <ele>392</ele>
        <time>2013-03-07T15:01:56Z</time>
      </trkpt>
      <trkpt lat="43.97987" lon="5.14172">
        <ele>391.9</ele>
        <time>2013-03-07T15:01:57Z</time>
      </trkpt>
      <trkpt lat="43.97986" lon="5.14176">
        <ele>391.7</ele>
        <time>2013-03-07T15:01:58Z</time>
      </trkpt>
      <trkpt lat="43.97985" lon="5.1418">
        <ele>391.6</ele>
        <time>2013-03-07T15:01:59Z</time>
      </trkpt>
      <trkpt lat="43.97983" lon="5.14184">
        <ele>391.8</ele>
        <time>2013-03-07T15:02:00Z</time>
      </trkpt>
      <trkpt lat="43.97982" lon="5.14188">
        <ele>391.7</ele>
        <time>2013-03-07T15:02:01Z</time>
      </trkpt>
      <trkpt lat="43.9798" lon="5.14192">
        <ele>391.7</ele>
        <time>2013-03-07T15:02:02Z</time>
      </trkpt>
      <trkpt lat="43.97979" lon="5.14195">
        <ele>391.6</ele>
        <time>2013-03-07T15:02:03Z</time>
      </trkpt>
      <trkpt lat="43.97978" lon="5.14199">
        <ele>391.7</ele>
        <time>2013-03-07T15:02:04Z</time>
      </trkpt>
      <trkpt lat="43.97976" lon="5.14202">
        <ele>391.7</ele>
        <time>2013-03-07T15:02:05Z</time>
      </trkpt>
      <trkpt lat="43.97974" lon="5.14208">
        <ele>391.9</ele>
        <time>2013-03-07T15:02:07Z</time>
      </trkpt>
      <trkpt lat="43.97973" lon="5.1421">
        <ele>392</ele>
        <time>2013-03-07T15:02:08Z</time>
      </trkpt>
      <trkpt lat="43.9797" lon="5.14211">
        <ele>392.1</ele>
        <time>2013-03-07T15:02:10Z</time>
      </trkpt>
      <trkpt lat="43.97968" lon="5.14211">
        <ele>392.2</ele>
        <time>2013-03-07T15:02:11Z</time>
      </trkpt>
      <trkpt lat="43.97964" lon="5.14208">
        <ele>392.5</ele>
        <time>2013-03-07T15:02:14Z</time>
      </trkpt>
      <trkpt lat="43.97963" lon="5.14207">
        <ele>392.5</ele>
        <time>2013-03-07T15:02:15Z</time>
      </trkpt>
      <trkpt lat="43.97959" lon="5.14205">
        <ele>392.2</ele>
        <time>2013-03-07T15:03:09Z</time>
      </trkpt>
      <trkpt lat="43.97959" lon="5.14204">
        <ele>391.7</ele>
        <time>2013-03-07T15:03:10Z</time>
      </trkpt>
      <trkpt lat="43.97955" lon="5.14203">
        <ele>392.5</ele>
        <time>2013-03-07T15:03:12Z</time>
      </trkpt>
      <trkpt lat="43.97953" lon="5.14201">
        <ele>392.8</ele>
        <time>2013-03-07T15:03:13Z</time>
      </trkpt>
      <trkpt lat="43.9795" lon="5.142">
        <ele>392.8</ele>
        <time>2013-03-07T15:03:14Z</time>
      </trkpt>
      <trkpt lat="43.97948" lon="5.142">
        <ele>392.5</ele>
        <time>2013-03-07T15:03:15Z</time>
      </trkpt>
      <trkpt lat="43.97943" lon="5.14202">
        <ele>392.9</ele>
        <time>2013-03-07T15:03:17Z</time>
      </trkpt>
      <trkpt lat="43.97942" lon="5.14203">
        <ele>392.6</ele>
        <time>2013-03-07T15:03:18Z</time>
      </trkpt>
      <trkpt lat="43.97939" lon="5.14199">
        <ele>391.7</ele>
        <time>2013-03-07T15:03:26Z</time>
      </trkpt>
      <trkpt lat="43.97937" lon="5.14199">
        <ele>395.8</ele>
        <time>2013-03-07T15:03:27Z</time>
      </trkpt>
      <trkpt lat="43.97936" lon="5.14202">
        <ele>393.9</ele>
        <time>2013-03-07T15:03:59Z</time>
      </trkpt>
      <trkpt lat="43.97934" lon="5.14203">
        <ele>393.8</ele>
        <time>2013-03-07T15:04:00Z</time>
      </trkpt>
      <trkpt lat="43.97931" lon="5.14205">
        <ele>392.4</ele>
        <time>2013-03-07T15:04:02Z</time>
      </trkpt>
      <trkpt lat="43.97929" lon="5.14205">
        <ele>392.1</ele>
        <time>2013-03-07T15:04:03Z</time>
      </trkpt>
      <trkpt lat="43.97926" lon="5.14202">
        <ele>391.2</ele>
        <time>2013-03-07T15:04:05Z</time>
      </trkpt>
      <trkpt lat="43.97924" lon="5.14201">
        <ele>390.5</ele>
        <time>2013-03-07T15:04:06Z</time>
      </trkpt>
      <trkpt lat="43.9792" lon="5.142">
        <ele>390.2</ele>
        <time>2013-03-07T15:04:09Z</time>
      </trkpt>
      <trkpt lat="43.97919" lon="5.142">
        <ele>389.5</ele>
        <time>2013-03-07T15:04:10Z</time>
      </trkpt>
      <trkpt lat="43.97917" lon="5.14199">
        <ele>387.8</ele>
        <time>2013-03-07T15:04:11Z</time>
      </trkpt>
      <trkpt lat="43.97914" lon="5.14197">
        <ele>386</ele>
        <time>2013-03-07T15:04:12Z</time>
      </trkpt>
      <trkpt lat="43.97912" lon="5.14195">
        <ele>385.5</ele>
        <time>2013-03-07T15:04:13Z</time>
      </trkpt>
      <trkpt lat="43.9791" lon="5.14194">
        <ele>384.9</ele>
        <time>2013-03-07T15:04:14Z</time>
      </trkpt>
      <trkpt lat="43.97906" lon="5.14192">
        <ele>383.8</ele>
        <time>2013-03-07T15:04:16Z</time>
      </trkpt>
      <trkpt lat="43.97905" lon="5.14192">
        <ele>383.1</ele>
        <time>2013-03-07T15:04:17Z</time>
      </trkpt>
      <trkpt lat="43.979" lon="5.14192">
        <ele>382.3</ele>
        <time>2013-03-07T15:04:24Z</time>
      </trkpt>
      <trkpt lat="43.97899" lon="5.14193">
        <ele>382.1</ele>
        <time>2013-03-07T15:04:25Z</time>
      </trkpt>
      <trkpt lat="43.97895" lon="5.14196">
        <ele>381.5</ele>
        <time>2013-03-07T15:04:28Z</time>
      </trkpt>
      <trkpt lat="43.97894" lon="5.14198">
        <ele>381.7</ele>
        <time>2013-03-07T15:04:29Z</time>
      </trkpt>
      <trkpt lat="43.9789" lon="5.14201">
        <ele>381.9</ele>
        <time>2013-03-07T15:04:31Z</time>
      </trkpt>
      <trkpt lat="43.97888" lon="5.14203">
        <ele>382.1</ele>
        <time>2013-03-07T15:04:32Z</time>
      </trkpt>
      <trkpt lat="43.97885" lon="5.14207">
        <ele>382.9</ele>
        <time>2013-03-07T15:04:34Z</time>
      </trkpt>
      <trkpt lat="43.97883" lon="5.14209">
        <ele>382.9</ele>
        <time>2013-03-07T15:04:35Z</time>
      </trkpt>
      <trkpt lat="43.97881" lon="5.14212">
        <ele>382.6</ele>
        <time>2013-03-07T15:04:36Z</time>
      </trkpt>
      <trkpt lat="43.97879" lon="5.14215">
        <ele>382.3</ele>
        <time>2013-03-07T15:04:37Z</time>
      </trkpt>
      <trkpt lat="43.97877" lon="5.14217">
        <ele>381.8</ele>
        <time>2013-03-07T15:04:38Z</time>
      </trkpt>
      <trkpt lat="43.97874" lon="5.14219">
        <ele>381.5</ele>
        <time>2013-03-07T15:04:39Z</time>
      </trkpt>
      <trkpt lat="43.97871" lon="5.14222">
        <ele>381</ele>
        <time>2013-03-07T15:04:40Z</time>
      </trkpt>
      <trkpt lat="43.97868" lon="5.14224">
        <ele>380.8</ele>
        <time>2013-03-07T15:04:41Z</time>
      </trkpt>
      <trkpt lat="43.97865" lon="5.14226">
        <ele>380.5</ele>
        <time>2013-03-07T15:04:42Z</time>
      </trkpt>
      <trkpt lat="43.97862" lon="5.14227">
        <ele>380.9</ele>
        <time>2013-03-07T15:04:43Z</time>
      </trkpt>
      <trkpt lat="43.97859" lon="5.14224">
        <ele>379.6</ele>
        <time>2013-03-07T15:04:50Z</time>
      </trkpt>
      <trkpt lat="43.97859" lon="5.14222">
        <ele>379.8</ele>
        <time>2013-03-07T15:04:51Z</time>
      </trkpt>
      <trkpt lat="43.97859" lon="5.14216">
        <ele>378.9</ele>
        <time>2013-03-07T15:04:56Z</time>
      </trkpt>
      <trkpt lat="43.9786" lon="5.14212">
        <ele>378.6</ele>
        <time>2013-03-07T15:04:57Z</time>
      </trkpt>
      <trkpt lat="43.97862" lon="5.14209">
        <ele>378.3</ele>
        <time>2013-03-07T15:04:58Z</time>
      </trkpt>
      <trkpt lat="43.97863" lon="5.14207">
        <ele>377.7</ele>
        <time>2013-03-07T15:04:59Z</time>
      </trkpt>
      <trkpt lat="43.97864" lon="5.14203">
        <ele>377.3</ele>
        <time>2013-03-07T15:05:00Z</time>
      </trkpt>
      <trkpt lat="43.97865" lon="5.142">
        <ele>377</ele>
        <time>2013-03-07T15:05:01Z</time>
      </trkpt>
      <trkpt lat="43.97866" lon="5.14197">
        <ele>377.7</ele>
        <time>2013-03-07T15:05:48Z</time>
      </trkpt>
      <trkpt lat="43.97867" lon="5.14193">
        <ele>377.4</ele>
        <time>2013-03-07T15:05:49Z</time>
      </trkpt>
      <trkpt lat="43.9787" lon="5.1419">
        <ele>376.7</ele>
        <time>2013-03-07T15:05:50Z</time>
      </trkpt>
      <trkpt lat="43.97872" lon="5.14187">
        <ele>376.1</ele>
        <time>2013-03-07T15:05:51Z</time>
      </trkpt>
      <trkpt lat="43.97873" lon="5.14183">
        <ele>376.2</ele>
        <time>2013-03-07T15:05:52Z</time>
      </trkpt>
      <trkpt lat="43.97876" lon="5.14179">
        <ele>375.1</ele>
        <time>2013-03-07T15:05:53Z</time>
      </trkpt>
      <trkpt lat="43.97878" lon="5.14175">
        <ele>375</ele>
        <time>2013-03-07T15:05:54Z</time>
      </trkpt>
      <trkpt lat="43.9788" lon="5.14172">
        <ele>374.9</ele>
        <time>2013-03-07T15:05:55Z</time>
      </trkpt>
      <trkpt lat="43.97882" lon="5.14167">
        <ele>375.4</ele>
        <time>2013-03-07T15:05:56Z</time>
      </trkpt>
      <trkpt lat="43.97883" lon="5.14164">
        <ele>374.7</ele>
        <time>2013-03-07T15:05:57Z</time>
      </trkpt>
      <trkpt lat="43.97885" lon="5.14161">
        <ele>374.1</ele>
        <time>2013-03-07T15:05:58Z</time>
      </trkpt>
      <trkpt lat="43.97886" lon="5.14157">
        <ele>373.6</ele>
        <time>2013-03-07T15:05:59Z</time>
      </trkpt>
      <trkpt lat="43.97888" lon="5.14154">
        <ele>373.4</ele>
        <time>2013-03-07T15:06:00Z</time>
      </trkpt>
      <trkpt lat="43.97889" lon="5.14149">
        <ele>373.2</ele>
        <time>2013-03-07T15:06:01Z</time>
      </trkpt>
      <trkpt lat="43.9789" lon="5.14146">
        <ele>373.2</ele>
        <time>2013-03-07T15:06:02Z</time>
      </trkpt>
      <trkpt lat="43.97892" lon="5.14142">
        <ele>372.6</ele>
        <time>2013-03-07T15:06:03Z</time>
      </trkpt>
      <trkpt lat="43.97893" lon="5.14138">
        <ele>372.1</ele>
        <time>2013-03-07T15:06:04Z</time>
      </trkpt>
      <trkpt lat="43.97895" lon="5.14135">
        <ele>371.3</ele>
        <time>2013-03-07T15:06:05Z</time>
      </trkpt>
      <trkpt lat="43.97896" lon="5.14131">
        <ele>370.8</ele>
        <time>2013-03-07T15:06:06Z</time>
      </trkpt>
      <trkpt lat="43.97899" lon="5.14127">
        <ele>370</ele>
        <time>2013-03-07T15:06:07Z</time>
      </trkpt>
      <trkpt lat="43.97901" lon="5.14124">
        <ele>371.2</ele>
        <time>2013-03-07T15:06:08Z</time>
      </trkpt>
      <trkpt lat="43.97903" lon="5.1412">
        <ele>370.2</ele>
        <time>2013-03-07T15:06:09Z</time>
      </trkpt>
      <trkpt lat="43.97904" lon="5.14116">
        <ele>369.9</ele>
        <time>2013-03-07T15:06:10Z</time>
      </trkpt>
      <trkpt lat="43.97906" lon="5.14112">
        <ele>368.8</ele>
        <time>2013-03-07T15:06:11Z</time>
      </trkpt>
      <trkpt lat="43.97908" lon="5.14107">
        <ele>368.4</ele>
        <time>2013-03-07T15:06:12Z</time>
      </trkpt>
      <trkpt lat="43.97909" lon="5.14104">
        <ele>367.8</ele>
        <time>2013-03-07T15:06:13Z</time>
      </trkpt>
      <trkpt lat="43.97911" lon="5.141">
        <ele>367.1</ele>
        <time>2013-03-07T15:06:14Z</time>
      </trkpt>
      <trkpt lat="43.97913" lon="5.14097">
        <ele>367</ele>
        <time>2013-03-07T15:06:15Z</time>
      </trkpt>
      <trkpt lat="43.97914" lon="5.14093">
        <ele>366.4</ele>
        <time>2013-03-07T15:06:16Z</time>
      </trkpt>
      <trkpt lat="43.97915" lon="5.14089">
        <ele>365.7</ele>
        <time>2013-03-07T15:06:17Z</time>
      </trkpt>
      <trkpt lat="43.97916" lon="5.14085">
        <ele>366</ele>
        <time>2013-03-07T15:06:18Z</time>
      </trkpt>
      <trkpt lat="43.97917" lon="5.14081">
        <ele>366</ele>
        <time>2013-03-07T15:06:19Z</time>
      </trkpt>
      <trkpt lat="43.97918" lon="5.14077">
        <ele>365.9</ele>
        <time>2013-03-07T15:06:20Z</time>
      </trkpt>
      <trkpt lat="43.97919" lon="5.14072">
        <ele>365.3</ele>
        <time>2013-03-07T15:06:21Z</time>
      </trkpt>
      <trkpt lat="43.9792" lon="5.14069">
        <ele>365.2</ele>
        <time>2013-03-07T15:06:22Z</time>
      </trkpt>
      <trkpt lat="43.97921" lon="5.14065">
        <ele>364.9</ele>
        <time>2013-03-07T15:06:23Z</time>
      </trkpt>
      <trkpt lat="43.97923" lon="5.14063">
        <ele>364.1</ele>
        <time>2013-03-07T15:06:24Z</time>
      </trkpt>
      <trkpt lat="43.97924" lon="5.1406">
        <ele>363.3</ele>
        <time>2013-03-07T15:06:25Z</time>
      </trkpt>
      <trkpt lat="43.97926" lon="5.14056">
        <ele>363.2</ele>
        <time>2013-03-07T15:06:27Z</time>
      </trkpt>
      <trkpt lat="43.97927" lon="5.14054">
        <ele>363.1</ele>
        <time>2013-03-07T15:06:28Z</time>
      </trkpt>
      <trkpt lat="43.97924" lon="5.14051">
        <ele>362.9</ele>
        <time>2013-03-07T15:06:31Z</time>
      </trkpt>
      <trkpt lat="43.97922" lon="5.14052">
        <ele>362.8</ele>
        <time>2013-03-07T15:06:32Z</time>
      </trkpt>
      <trkpt lat="43.97919" lon="5.14054">
        <ele>362.2</ele>
        <time>2013-03-07T15:06:34Z</time>
      </trkpt>
      <trkpt lat="43.97918" lon="5.14055">
        <ele>362.2</ele>
        <time>2013-03-07T15:06:35Z</time>
      </trkpt>
      <trkpt lat="43.97915" lon="5.14058">
        <ele>360.8</ele>
        <time>2013-03-07T15:06:37Z</time>
      </trkpt>
      <trkpt lat="43.97913" lon="5.14059">
        <ele>360.6</ele>
        <time>2013-03-07T15:06:38Z</time>
      </trkpt>
      <trkpt lat="43.97909" lon="5.14056">
        <ele>361.1</ele>
        <time>2013-03-07T15:06:39Z</time>
      </trkpt>
      <trkpt lat="43.97906" lon="5.14055">
        <ele>360.6</ele>
        <time>2013-03-07T15:06:40Z</time>
      </trkpt>
      <trkpt lat="43.97903" lon="5.14054">
        <ele>360.6</ele>
        <time>2013-03-07T15:06:41Z</time>
      </trkpt>
      <trkpt lat="43.97901" lon="5.14052">
        <ele>360.5</ele>
        <time>2013-03-07T15:06:42Z</time>
      </trkpt>
      <trkpt lat="43.97899" lon="5.14051">
        <ele>359.8</ele>
        <time>2013-03-07T15:06:43Z</time>
      </trkpt>
      <trkpt lat="43.97895" lon="5.14049">
        <ele>357.7</ele>
        <time>2013-03-07T15:06:59Z</time>
      </trkpt>
      <trkpt lat="43.97895" lon="5.14048">
        <ele>357.9</ele>
        <time>2013-03-07T15:07:00Z</time>
      </trkpt>
      <trkpt lat="43.97894" lon="5.14043">
        <ele>356.9</ele>
        <time>2013-03-07T15:07:08Z</time>
      </trkpt>
      <trkpt lat="43.97895" lon="5.14041">
        <ele>357.3</ele>
        <time>2013-03-07T15:07:09Z</time>
      </trkpt>
      <trkpt lat="43.97895" lon="5.14035">
        <ele>356</ele>
        <time>2013-03-07T15:07:13Z</time>
      </trkpt>
      <trkpt lat="43.97895" lon="5.14034">
        <ele>355.5</ele>
        <time>2013-03-07T15:07:14Z</time>
      </trkpt>
      <trkpt lat="43.97893" lon="5.14029">
        <ele>354.7</ele>
        <time>2013-03-07T15:08:28Z</time>
      </trkpt>
      <trkpt lat="43.97892" lon="5.14028">
        <ele>355</ele>
        <time>2013-03-07T15:08:29Z</time>
      </trkpt>
      <trkpt lat="43.97891" lon="5.14027">
        <ele>354.2</ele>
        <time>2013-03-07T15:08:32Z</time>
      </trkpt>
      <trkpt lat="43.97887" lon="5.1403">
        <ele>354.1</ele>
        <time>2013-03-07T15:08:33Z</time>
      </trkpt>
      <trkpt lat="43.97883" lon="5.14031">
        <ele>351</ele>
        <time>2013-03-07T15:08:47Z</time>
      </trkpt>
      <trkpt lat="43.97881" lon="5.1403">
        <ele>351</ele>
        <time>2013-03-07T15:08:48Z</time>
      </trkpt>
      <trkpt lat="43.97879" lon="5.14029">
        <ele>349.9</ele>
        <time>2013-03-07T15:08:49Z</time>
      </trkpt>
      <trkpt lat="43.97876" lon="5.14028">
        <ele>349.6</ele>
        <time>2013-03-07T15:08:50Z</time>
      </trkpt>
      <trkpt lat="43.97873" lon="5.14026">
        <ele>349</ele>
        <time>2013-03-07T15:08:51Z</time>
      </trkpt>
      <trkpt lat="43.97871" lon="5.14026">
        <ele>347.9</ele>
        <time>2013-03-07T15:08:52Z</time>
      </trkpt>
      <trkpt lat="43.97868" lon="5.14023">
        <ele>348.2</ele>
        <time>2013-03-07T15:08:53Z</time>
      </trkpt>
      <trkpt lat="43.97866" lon="5.14021">
        <ele>347.9</ele>
        <time>2013-03-07T15:08:54Z</time>
      </trkpt>
      <trkpt lat="43.97863" lon="5.14018">
        <ele>347.9</ele>
        <time>2013-03-07T15:08:55Z</time>
      </trkpt>
      <trkpt lat="43.97862" lon="5.14016">
        <ele>347.9</ele>
        <time>2013-03-07T15:08:56Z</time>
      </trkpt>
      <trkpt lat="43.9786" lon="5.14014">
        <ele>348</ele>
        <time>2013-03-07T15:08:57Z</time>
      </trkpt>
      <trkpt lat="43.9786" lon="5.1401">
        <ele>348</ele>
        <time>2013-03-07T15:08:58Z</time>
      </trkpt>
      <trkpt lat="43.97858" lon="5.14005">
        <ele>349.3</ele>
        <time>2013-03-07T15:08:59Z</time>
      </trkpt>
      <trkpt lat="43.97858" lon="5.14001">
        <ele>349.6</ele>
        <time>2013-03-07T15:09:00Z</time>
      </trkpt>
      <trkpt lat="43.97859" lon="5.13998">
        <ele>349.9</ele>
        <time>2013-03-07T15:09:01Z</time>
      </trkpt>
      <trkpt lat="43.9786" lon="5.13996">
        <ele>350.1</ele>
        <time>2013-03-07T15:09:02Z</time>
      </trkpt>
      <trkpt lat="43.97862" lon="5.13992">
        <ele>352.4</ele>
        <time>2013-03-07T15:09:05Z</time>
      </trkpt>
      <trkpt lat="43.97861" lon="5.13989">
        <ele>353.1</ele>
        <time>2013-03-07T15:09:06Z</time>
      </trkpt>
      <trkpt lat="43.97863" lon="5.13984">
        <ele>353.3</ele>
        <time>2013-03-07T15:09:08Z</time>
      </trkpt>
      <trkpt lat="43.97863" lon="5.1398">
        <ele>353.9</ele>
        <time>2013-03-07T15:09:09Z</time>
      </trkpt>
      <trkpt lat="43.97864" lon="5.13977">
        <ele>354.4</ele>
        <time>2013-03-07T15:09:10Z</time>
      </trkpt>
      <trkpt lat="43.97867" lon="5.13972">
        <ele>353.9</ele>
        <time>2013-03-07T15:09:11Z</time>
      </trkpt>
      <trkpt lat="43.97868" lon="5.13968">
        <ele>354</ele>
        <time>2013-03-07T15:09:12Z</time>
      </trkpt>
      <trkpt lat="43.97869" lon="5.13964">
        <ele>353.8</ele>
        <time>2013-03-07T15:09:13Z</time>
      </trkpt>
      <trkpt lat="43.9787" lon="5.13961">
        <ele>353.7</ele>
        <time>2013-03-07T15:09:14Z</time>
      </trkpt>
      <trkpt lat="43.97871" lon="5.13957">
        <ele>353.8</ele>
        <time>2013-03-07T15:09:15Z</time>
      </trkpt>
      <trkpt lat="43.97872" lon="5.13953">
        <ele>353.9</ele>
        <time>2013-03-07T15:09:16Z</time>
      </trkpt>
      <trkpt lat="43.97874" lon="5.13949">
        <ele>354.1</ele>
        <time>2013-03-07T15:09:17Z</time>
      </trkpt>
      <trkpt lat="43.97874" lon="5.13946">
        <ele>353.9</ele>
        <time>2013-03-07T15:09:18Z</time>
      </trkpt>
      <trkpt lat="43.97875" lon="5.13942">
        <ele>352.5</ele>
        <time>2013-03-07T15:09:19Z</time>
      </trkpt>
      <trkpt lat="43.97876" lon="5.13938">
        <ele>352.7</ele>
        <time>2013-03-07T15:09:20Z</time>
      </trkpt>
      <trkpt lat="43.97876" lon="5.13934">
        <ele>352.4</ele>
        <time>2013-03-07T15:09:21Z</time>
      </trkpt>
      <trkpt lat="43.97878" lon="5.1393">
        <ele>352.5</ele>
        <time>2013-03-07T15:09:22Z</time>
      </trkpt>
      <trkpt lat="43.9788" lon="5.13926">
        <ele>352.4</ele>
        <time>2013-03-07T15:09:23Z</time>
      </trkpt>
      <trkpt lat="43.97881" lon="5.13922">
        <ele>352.1</ele>
        <time>2013-03-07T15:09:24Z</time>
      </trkpt>
      <trkpt lat="43.97883" lon="5.13918">
        <ele>352</ele>
        <time>2013-03-07T15:09:25Z</time>
      </trkpt>
      <trkpt lat="43.97884" lon="5.13913">
        <ele>352.3</ele>
        <time>2013-03-07T15:09:26Z</time>
      </trkpt>
      <trkpt lat="43.97885" lon="5.13909">
        <ele>353</ele>
        <time>2013-03-07T15:09:27Z</time>
      </trkpt>
      <trkpt lat="43.97887" lon="5.13904">
        <ele>352.9</ele>
        <time>2013-03-07T15:09:28Z</time>
      </trkpt>
      <trkpt lat="43.97888" lon="5.13899">
        <ele>352.8</ele>
        <time>2013-03-07T15:09:29Z</time>
      </trkpt>
      <trkpt lat="43.9789" lon="5.13893">
        <ele>352.9</ele>
        <time>2013-03-07T15:09:30Z</time>
      </trkpt>
      <trkpt lat="43.97891" lon="5.13888">
        <ele>352.6</ele>
        <time>2013-03-07T15:09:31Z</time>
      </trkpt>
      <trkpt lat="43.97891" lon="5.13885">
        <ele>352.5</ele>
        <time>2013-03-07T15:09:32Z</time>
      </trkpt>
      <trkpt lat="43.97887" lon="5.13883">
        <ele>349.5</ele>
        <time>2013-03-07T15:10:22Z</time>
      </trkpt>
      <trkpt lat="43.97887" lon="5.1388">
        <ele>350.1</ele>
        <time>2013-03-07T15:10:23Z</time>
      </trkpt>
      <trkpt lat="43.97887" lon="5.13878">
        <ele>350.3</ele>
        <time>2013-03-07T15:10:24Z</time>
      </trkpt>
      <trkpt lat="43.97886" lon="5.13874">
        <ele>350.3</ele>
        <time>2013-03-07T15:10:25Z</time>
      </trkpt>
      <trkpt lat="43.97886" lon="5.1387">
        <ele>350.5</ele>
        <time>2013-03-07T15:10:26Z</time>
      </trkpt>
      <trkpt lat="43.97885" lon="5.13867">
        <ele>350.9</ele>
        <time>2013-03-07T15:10:27Z</time>
      </trkpt>
      <trkpt lat="43.97885" lon="5.13862">
        <ele>351.2</ele>
        <time>2013-03-07T15:10:28Z</time>
      </trkpt>
      <trkpt lat="43.97885" lon="5.13858">
        <ele>351.3</ele>
        <time>2013-03-07T15:10:29Z</time>
      </trkpt>
      <trkpt lat="43.97884" lon="5.13854">
        <ele>350.9</ele>
        <time>2013-03-07T15:10:30Z</time>
      </trkpt>
      <trkpt lat="43.97883" lon="5.13849">
        <ele>350.8</ele>
        <time>2013-03-07T15:10:31Z</time>
      </trkpt>
      <trkpt lat="43.97883" lon="5.13845">
        <ele>351.2</ele>
        <time>2013-03-07T15:10:32Z</time>
      </trkpt>
      <trkpt lat="43.97883" lon="5.13842">
        <ele>351.1</ele>
        <time>2013-03-07T15:10:33Z</time>
      </trkpt>
      <trkpt lat="43.97882" lon="5.13837">
        <ele>351.6</ele>
        <time>2013-03-07T15:10:34Z</time>
      </trkpt>
      <trkpt lat="43.97882" lon="5.13833">
        <ele>352.1</ele>
        <time>2013-03-07T15:10:35Z</time>
      </trkpt>
      <trkpt lat="43.97881" lon="5.13828">
        <ele>352.3</ele>
        <time>2013-03-07T15:10:36Z</time>
      </trkpt>
      <trkpt lat="43.97881" lon="5.13823">
        <ele>352.3</ele>
        <time>2013-03-07T15:10:37Z</time>
      </trkpt>
      <trkpt lat="43.9788" lon="5.13819">
        <ele>352.3</ele>
        <time>2013-03-07T15:10:38Z</time>
      </trkpt>
      <trkpt lat="43.9788" lon="5.13814">
        <ele>352.3</ele>
        <time>2013-03-07T15:10:39Z</time>
      </trkpt>
      <trkpt lat="43.97878" lon="5.13808">
        <ele>353.7</ele>
        <time>2013-03-07T15:10:40Z</time>
      </trkpt>
      <trkpt lat="43.97877" lon="5.13803">
        <ele>353.8</ele>
        <time>2013-03-07T15:10:41Z</time>
      </trkpt>
      <trkpt lat="43.97876" lon="5.13798">
        <ele>353.8</ele>
        <time>2013-03-07T15:10:42Z</time>
      </trkpt>
      <trkpt lat="43.97875" lon="5.13793">
        <ele>354.2</ele>
        <time>2013-03-07T15:10:43Z</time>
      </trkpt>
      <trkpt lat="43.97874" lon="5.13788">
        <ele>353.6</ele>
        <time>2013-03-07T15:10:44Z</time>
      </trkpt>
      <trkpt lat="43.97873" lon="5.13783">
        <ele>353.2</ele>
        <time>2013-03-07T15:10:45Z</time>
      </trkpt>
      <trkpt lat="43.97872" lon="5.13778">
        <ele>353</ele>
        <time>2013-03-07T15:10:46Z</time>
      </trkpt>
      <trkpt lat="43.97871" lon="5.13774">
        <ele>353.4</ele>
        <time>2013-03-07T15:10:47Z</time>
      </trkpt>
      <trkpt lat="43.9787" lon="5.1377">
        <ele>353</ele>
        <time>2013-03-07T15:10:48Z</time>
      </trkpt>
      <trkpt lat="43.9787" lon="5.13767">
        <ele>353</ele>
        <time>2013-03-07T15:10:49Z</time>
      </trkpt>
      <trkpt lat="43.97869" lon="5.13761">
        <ele>353.2</ele>
        <time>2013-03-07T15:10:51Z</time>
      </trkpt>
      <trkpt lat="43.97869" lon="5.13758">
        <ele>353.9</ele>
        <time>2013-03-07T15:10:52Z</time>
      </trkpt>
      <trkpt lat="43.97868" lon="5.13755">
        <ele>353.6</ele>
        <time>2013-03-07T15:10:53Z</time>
      </trkpt>
      <trkpt lat="43.97868" lon="5.13752">
        <ele>354.1</ele>
        <time>2013-03-07T15:10:54Z</time>
      </trkpt>
      <trkpt lat="43.97867" lon="5.13746">
        <ele>354.5</ele>
        <time>2013-03-07T15:10:56Z</time>
      </trkpt>
      <trkpt lat="43.97867" lon="5.13743">
        <ele>354.6</ele>
        <time>2013-03-07T15:10:57Z</time>
      </trkpt>
      <trkpt lat="43.97867" lon="5.13737">
        <ele>355.1</ele>
        <time>2013-03-07T15:10:59Z</time>
      </trkpt>
      <trkpt lat="43.97867" lon="5.13734">
        <ele>355.2</ele>
        <time>2013-03-07T15:11:00Z</time>
      </trkpt>
      <trkpt lat="43.97866" lon="5.13729">
        <ele>355.4</ele>
        <time>2013-03-07T15:11:02Z</time>
      </trkpt>
      <trkpt lat="43.97866" lon="5.13726">
        <ele>355.6</ele>
        <time>2013-03-07T15:11:03Z</time>
      </trkpt>
      <trkpt lat="43.97866" lon="5.13721">
        <ele>355.4</ele>
        <time>2013-03-07T15:11:05Z</time>
      </trkpt>
      <trkpt lat="43.97866" lon="5.13718">
        <ele>355.2</ele>
        <time>2013-03-07T15:11:06Z</time>
      </trkpt>
      <trkpt lat="43.97865" lon="5.13712">
        <ele>355</ele>
        <time>2013-03-07T15:11:08Z</time>
      </trkpt>
      <trkpt lat="43.97865" lon="5.13711">
        <ele>355.6</ele>
        <time>2013-03-07T15:11:09Z</time>
      </trkpt>
      <trkpt lat="43.97863" lon="5.13706">
        <ele>355.6</ele>
        <time>2013-03-07T15:11:13Z</time>
      </trkpt>
      <trkpt lat="43.97863" lon="5.13705">
        <ele>355.9</ele>
        <time>2013-03-07T15:11:14Z</time>
      </trkpt>
      <trkpt lat="43.9786" lon="5.13709">
        <ele>355.7</ele>
        <time>2013-03-07T15:11:53Z</time>
      </trkpt>
      <trkpt lat="43.97859" lon="5.13711">
        <ele>355.5</ele>
        <time>2013-03-07T15:11:54Z</time>
      </trkpt>
      <trkpt lat="43.97857" lon="5.13716">
        <ele>357.3</ele>
        <time>2013-03-07T15:12:04Z</time>
      </trkpt>
      <trkpt lat="43.97857" lon="5.13719">
        <ele>357.7</ele>
        <time>2013-03-07T15:12:05Z</time>
      </trkpt>
      <trkpt lat="43.97857" lon="5.13723">
        <ele>357.9</ele>
        <time>2013-03-07T15:12:07Z</time>
      </trkpt>
      <trkpt lat="43.97856" lon="5.13726">
        <ele>359.6</ele>
        <time>2013-03-07T15:12:08Z</time>
      </trkpt>
      <trkpt lat="43.97856" lon="5.13729">
        <ele>360.1</ele>
        <time>2013-03-07T15:12:10Z</time>
      </trkpt>
      <trkpt lat="43.97856" lon="5.13732">
        <ele>358.8</ele>
        <time>2013-03-07T15:12:11Z</time>
      </trkpt>
      <trkpt lat="43.97855" lon="5.13737">
        <ele>358.6</ele>
        <time>2013-03-07T15:12:13Z</time>
      </trkpt>
      <trkpt lat="43.97854" lon="5.13739">
        <ele>359.7</ele>
        <time>2013-03-07T15:12:14Z</time>
      </trkpt>
      <trkpt lat="43.97854" lon="5.13745">
        <ele>359.2</ele>
        <time>2013-03-07T15:12:16Z</time>
      </trkpt>
      <trkpt lat="43.97854" lon="5.13747">
        <ele>359.7</ele>
        <time>2013-03-07T15:12:17Z</time>
      </trkpt>
      <trkpt lat="43.97853" lon="5.13753">
        <ele>360.2</ele>
        <time>2013-03-07T15:12:20Z</time>
      </trkpt>
      <trkpt lat="43.97853" lon="5.13754">
        <ele>360</ele>
        <time>2013-03-07T15:12:21Z</time>
      </trkpt>
      <trkpt lat="43.97852" lon="5.13759">
        <ele>360.3</ele>
        <time>2013-03-07T15:12:24Z</time>
      </trkpt>
      <trkpt lat="43.97851" lon="5.13761">
        <ele>360.4</ele>
        <time>2013-03-07T15:12:25Z</time>
      </trkpt>
      <trkpt lat="43.9785" lon="5.13765">
        <ele>360.6</ele>
        <time>2013-03-07T15:12:32Z</time>
      </trkpt>
      <trkpt lat="43.9785" lon="5.13767">
        <ele>360.8</ele>
        <time>2013-03-07T15:12:33Z</time>
      </trkpt>
      <trkpt lat="43.97848" lon="5.13772">
        <ele>361.4</ele>
        <time>2013-03-07T15:12:38Z</time>
      </trkpt>
      <trkpt lat="43.97848" lon="5.13774">
        <ele>361.4</ele>
        <time>2013-03-07T15:12:39Z</time>
      </trkpt>
      <trkpt lat="43.97847" lon="5.13779">
        <ele>361.3</ele>
        <time>2013-03-07T15:12:43Z</time>
      </trkpt>
      <trkpt lat="43.97847" lon="5.13781">
        <ele>361.2</ele>
        <time>2013-03-07T15:12:44Z</time>
      </trkpt>
      <trkpt lat="43.97845" lon="5.13786">
        <ele>362.2</ele>
        <time>2013-03-07T15:12:49Z</time>
      </trkpt>
      <trkpt lat="43.97845" lon="5.13787">
        <ele>362.4</ele>
        <time>2013-03-07T15:12:50Z</time>
      </trkpt>
      <trkpt lat="43.97843" lon="5.13793">
        <ele>363.1</ele>
        <time>2013-03-07T15:12:55Z</time>
      </trkpt>
      <trkpt lat="43.97843" lon="5.13794">
        <ele>362.9</ele>
        <time>2013-03-07T15:12:56Z</time>
      </trkpt>
      <trkpt lat="43.97841" lon="5.138">
        <ele>363</ele>
        <time>2013-03-07T15:13:02Z</time>
      </trkpt>
      <trkpt lat="43.97841" lon="5.13801">
        <ele>363.8</ele>
        <time>2013-03-07T15:13:03Z</time>
      </trkpt>
      <trkpt lat="43.9784" lon="5.13805">
        <ele>363.6</ele>
        <time>2013-03-07T15:13:06Z</time>
      </trkpt>
      <trkpt lat="43.97839" lon="5.13807">
        <ele>362.5</ele>
        <time>2013-03-07T15:13:07Z</time>
      </trkpt>
      <trkpt lat="43.97838" lon="5.13811">
        <ele>362.2</ele>
        <time>2013-03-07T15:13:11Z</time>
      </trkpt>
      <trkpt lat="43.97838" lon="5.13812">
        <ele>362.1</ele>
        <time>2013-03-07T15:13:12Z</time>
      </trkpt>
      <trkpt lat="43.97836" lon="5.13818">
        <ele>361.9</ele>
        <time>2013-03-07T15:13:16Z</time>
      </trkpt>
      <trkpt lat="43.97836" lon="5.1382">
        <ele>361.5</ele>
        <time>2013-03-07T15:13:17Z</time>
      </trkpt>
      <trkpt lat="43.97834" lon="5.13824">
        <ele>361.9</ele>
        <time>2013-03-07T15:13:22Z</time>
      </trkpt>
      <trkpt lat="43.97833" lon="5.13826">
        <ele>362.6</ele>
        <time>2013-03-07T15:13:23Z</time>
      </trkpt>
      <trkpt lat="43.97832" lon="5.13831">
        <ele>363.7</ele>
        <time>2013-03-07T15:13:27Z</time>
      </trkpt>
      <trkpt lat="43.97831" lon="5.13832">
        <ele>364.3</ele>
        <time>2013-03-07T15:13:28Z</time>
      </trkpt>
      <trkpt lat="43.9783" lon="5.13837">
        <ele>366.3</ele>
        <time>2013-03-07T15:13:33Z</time>
      </trkpt>
      <trkpt lat="43.97829" lon="5.13839">
        <ele>366.3</ele>
        <time>2013-03-07T15:13:34Z</time>
      </trkpt>
      <trkpt lat="43.97828" lon="5.13843">
        <ele>366</ele>
        <time>2013-03-07T15:13:37Z</time>
      </trkpt>
      <trkpt lat="43.97827" lon="5.13845">
        <ele>366.2</ele>
        <time>2013-03-07T15:13:38Z</time>
      </trkpt>
      <trkpt lat="43.97826" lon="5.13849">
        <ele>366.7</ele>
        <time>2013-03-07T15:13:42Z</time>
      </trkpt>
      <trkpt lat="43.97825" lon="5.1385">
        <ele>367</ele>
        <time>2013-03-07T15:13:43Z</time>
      </trkpt>
      <trkpt lat="43.97822" lon="5.13854">
        <ele>367.7</ele>
        <time>2013-03-07T15:13:48Z</time>
      </trkpt>
      <trkpt lat="43.97822" lon="5.13855">
        <ele>367.9</ele>
        <time>2013-03-07T15:13:49Z</time>
      </trkpt>
      <trkpt lat="43.97819" lon="5.1386">
        <ele>368.4</ele>
        <time>2013-03-07T15:13:54Z</time>
      </trkpt>
      <trkpt lat="43.97819" lon="5.13861">
        <ele>368.5</ele>
        <time>2013-03-07T15:13:55Z</time>
      </trkpt>
      <trkpt lat="43.97817" lon="5.13866">
        <ele>368.4</ele>
        <time>2013-03-07T15:14:00Z</time>
      </trkpt>
      <trkpt lat="43.97817" lon="5.13867">
        <ele>368.8</ele>
        <time>2013-03-07T15:14:01Z</time>
      </trkpt>
      <trkpt lat="43.97814" lon="5.13872">
        <ele>370.5</ele>
        <time>2013-03-07T15:14:06Z</time>
      </trkpt>
      <trkpt lat="43.97814" lon="5.13873">
        <ele>370.5</ele>
        <time>2013-03-07T15:14:07Z</time>
      </trkpt>
      <trkpt lat="43.97811" lon="5.13877">
        <ele>370.9</ele>
        <time>2013-03-07T15:14:12Z</time>
      </trkpt>
      <trkpt lat="43.9781" lon="5.13878">
        <ele>370.7</ele>
        <time>2013-03-07T15:14:13Z</time>
      </trkpt>
      <trkpt lat="43.97808" lon="5.1388">
        <ele>371.6</ele>
        <time>2013-03-07T15:14:18Z</time>
      </trkpt>
      <trkpt lat="43.97806" lon="5.13882">
        <ele>371.6</ele>
        <time>2013-03-07T15:14:19Z</time>
      </trkpt>
      <trkpt lat="43.97804" lon="5.13886">
        <ele>372.3</ele>
        <time>2013-03-07T15:14:23Z</time>
      </trkpt>
      <trkpt lat="43.97803" lon="5.13886">
        <ele>372.9</ele>
        <time>2013-03-07T15:14:24Z</time>
      </trkpt>
      <trkpt lat="43.978" lon="5.1389">
        <ele>372.5</ele>
        <time>2013-03-07T15:14:29Z</time>
      </trkpt>
      <trkpt lat="43.97799" lon="5.13891">
        <ele>372</ele>
        <time>2013-03-07T15:14:30Z</time>
      </trkpt>
      <trkpt lat="43.97796" lon="5.13895">
        <ele>373</ele>
        <time>2013-03-07T15:14:39Z</time>
      </trkpt>
      <trkpt lat="43.97796" lon="5.13896">
        <ele>373</ele>
        <time>2013-03-07T15:14:40Z</time>
      </trkpt>
      <trkpt lat="43.97793" lon="5.13899">
        <ele>373.5</ele>
        <time>2013-03-07T15:14:44Z</time>
      </trkpt>
      <trkpt lat="43.97792" lon="5.139">
        <ele>374</ele>
        <time>2013-03-07T15:14:45Z</time>
      </trkpt>
      <trkpt lat="43.9779" lon="5.13905">
        <ele>374</ele>
        <time>2013-03-07T15:14:49Z</time>
      </trkpt>
      <trkpt lat="43.97789" lon="5.13905">
        <ele>373.9</ele>
        <time>2013-03-07T15:14:50Z</time>
      </trkpt>
      <trkpt lat="43.97786" lon="5.13908">
        <ele>373.2</ele>
        <time>2013-03-07T15:14:54Z</time>
      </trkpt>
      <trkpt lat="43.97785" lon="5.13909">
        <ele>373.1</ele>
        <time>2013-03-07T15:14:55Z</time>
      </trkpt>
      <trkpt lat="43.97781" lon="5.13912">
        <ele>373.2</ele>
        <time>2013-03-07T15:15:03Z</time>
      </trkpt>
      <trkpt lat="43.97781" lon="5.13913">
        <ele>372.1</ele>
        <time>2013-03-07T15:15:04Z</time>
      </trkpt>
      <trkpt lat="43.97777" lon="5.13911">
        <ele>372.9</ele>
        <time>2013-03-07T15:15:15Z</time>
      </trkpt>
      <trkpt lat="43.97776" lon="5.13912">
        <ele>372.5</ele>
        <time>2013-03-07T15:15:16Z</time>
      </trkpt>
      <trkpt lat="43.97773" lon="5.13915">
        <ele>372.6</ele>
        <time>2013-03-07T15:15:18Z</time>
      </trkpt>
      <trkpt lat="43.97772" lon="5.13915">
        <ele>372.5</ele>
        <time>2013-03-07T15:15:19Z</time>
      </trkpt>
      <trkpt lat="43.97769" lon="5.13917">
        <ele>373.4</ele>
        <time>2013-03-07T15:15:21Z</time>
      </trkpt>
      <trkpt lat="43.97768" lon="5.13918">
        <ele>373.4</ele>
        <time>2013-03-07T15:15:22Z</time>
      </trkpt>
      <trkpt lat="43.97765" lon="5.1392">
        <ele>374.6</ele>
        <time>2013-03-07T15:15:24Z</time>
      </trkpt>
      <trkpt lat="43.97764" lon="5.13921">
        <ele>374.4</ele>
        <time>2013-03-07T15:15:25Z</time>
      </trkpt>
      <trkpt lat="43.97762" lon="5.13923">
        <ele>373.8</ele>
        <time>2013-03-07T15:15:27Z</time>
      </trkpt>
      <trkpt lat="43.9776" lon="5.13925">
        <ele>374.6</ele>
        <time>2013-03-07T15:15:28Z</time>
      </trkpt>
      <trkpt lat="43.97756" lon="5.13928">
        <ele>376.2</ele>
        <time>2013-03-07T15:15:31Z</time>
      </trkpt>
      <trkpt lat="43.97755" lon="5.13929">
        <ele>376.5</ele>
        <time>2013-03-07T15:15:32Z</time>
      </trkpt>
      <trkpt lat="43.97751" lon="5.13931">
        <ele>377.8</ele>
        <time>2013-03-07T15:15:35Z</time>
      </trkpt>
      <trkpt lat="43.9775" lon="5.13932">
        <ele>378</ele>
        <time>2013-03-07T15:15:36Z</time>
      </trkpt>
      <trkpt lat="43.97747" lon="5.13935">
        <ele>378.6</ele>
        <time>2013-03-07T15:15:38Z</time>
      </trkpt>
      <trkpt lat="43.97746" lon="5.13936">
        <ele>378.4</ele>
        <time>2013-03-07T15:15:39Z</time>
      </trkpt>
      <trkpt lat="43.97742" lon="5.13938">
        <ele>378.2</ele>
        <time>2013-03-07T15:15:42Z</time>
      </trkpt>
      <trkpt lat="43.97741" lon="5.13939">
        <ele>378.2</ele>
        <time>2013-03-07T15:15:43Z</time>
      </trkpt>
      <trkpt lat="43.97738" lon="5.1394">
        <ele>379.2</ele>
        <time>2013-03-07T15:15:46Z</time>
      </trkpt>
      <trkpt lat="43.97737" lon="5.13943">
        <ele>376.7</ele>
        <time>2013-03-07T15:15:47Z</time>
      </trkpt>
      <trkpt lat="43.97733" lon="5.13946">
        <ele>377.8</ele>
        <time>2013-03-07T15:15:55Z</time>
      </trkpt>
      <trkpt lat="43.97733" lon="5.13946">
        <ele>377.7</ele>
        <time>2013-03-07T15:15:56Z</time>
      </trkpt>
      <trkpt lat="43.97729" lon="5.13949">
        <ele>378</ele>
        <time>2013-03-07T15:16:00Z</time>
      </trkpt>
      <trkpt lat="43.97727" lon="5.1395">
        <ele>378.5</ele>
        <time>2013-03-07T15:16:01Z</time>
      </trkpt>
      <trkpt lat="43.97723" lon="5.13953">
        <ele>379.9</ele>
        <time>2013-03-07T15:16:09Z</time>
      </trkpt>
      <trkpt lat="43.97722" lon="5.13953">
        <ele>380.2</ele>
        <time>2013-03-07T15:16:10Z</time>
      </trkpt>
      <trkpt lat="43.97718" lon="5.13956">
        <ele>379.5</ele>
        <time>2013-03-07T15:16:15Z</time>
      </trkpt>
      <trkpt lat="43.97718" lon="5.13956">
        <ele>380.1</ele>
        <time>2013-03-07T15:16:16Z</time>
      </trkpt>
      <trkpt lat="43.97714" lon="5.13958">
        <ele>380</ele>
        <time>2013-03-07T15:16:22Z</time>
      </trkpt>
      <trkpt lat="43.97713" lon="5.13959">
        <ele>380.6</ele>
        <time>2013-03-07T15:16:23Z</time>
      </trkpt>
      <trkpt lat="43.9771" lon="5.13962">
        <ele>380.5</ele>
        <time>2013-03-07T15:16:28Z</time>
      </trkpt>
      <trkpt lat="43.9771" lon="5.13963">
        <ele>380.5</ele>
        <time>2013-03-07T15:16:29Z</time>
      </trkpt>
      <trkpt lat="43.97706" lon="5.13967">
        <ele>381.3</ele>
        <time>2013-03-07T15:16:36Z</time>
      </trkpt>
      <trkpt lat="43.97706" lon="5.13967">
        <ele>381.7</ele>
        <time>2013-03-07T15:16:37Z</time>
      </trkpt>
      <trkpt lat="43.97701" lon="5.13969">
        <ele>383.5</ele>
        <time>2013-03-07T15:16:46Z</time>
      </trkpt>
      <trkpt lat="43.97701" lon="5.13969">
        <ele>383.5</ele>
        <time>2013-03-07T15:16:47Z</time>
      </trkpt>
      <trkpt lat="43.97697" lon="5.13973">
        <ele>384.6</ele>
        <time>2013-03-07T15:17:04Z</time>
      </trkpt>
      <trkpt lat="43.97697" lon="5.13974">
        <ele>384.1</ele>
        <time>2013-03-07T15:17:05Z</time>
      </trkpt>
      <trkpt lat="43.97694" lon="5.13977">
        <ele>385.7</ele>
        <time>2013-03-07T15:17:09Z</time>
      </trkpt>
      <trkpt lat="43.97693" lon="5.13978">
        <ele>385.7</ele>
        <time>2013-03-07T15:17:10Z</time>
      </trkpt>
      <trkpt lat="43.9769" lon="5.13982">
        <ele>385.5</ele>
        <time>2013-03-07T15:17:15Z</time>
      </trkpt>
      <trkpt lat="43.9769" lon="5.13983">
        <ele>385.9</ele>
        <time>2013-03-07T15:17:16Z</time>
      </trkpt>
      <trkpt lat="43.97686" lon="5.13986">
        <ele>387</ele>
        <time>2013-03-07T15:17:22Z</time>
      </trkpt>
      <trkpt lat="43.97686" lon="5.13987">
        <ele>387.4</ele>
        <time>2013-03-07T15:17:23Z</time>
      </trkpt>
      <trkpt lat="43.97682" lon="5.13991">
        <ele>386.6</ele>
        <time>2013-03-07T15:17:29Z</time>
      </trkpt>
      <trkpt lat="43.97682" lon="5.13992">
        <ele>388.3</ele>
        <time>2013-03-07T15:17:30Z</time>
      </trkpt>
      <trkpt lat="43.97679" lon="5.13996">
        <ele>389</ele>
        <time>2013-03-07T15:17:35Z</time>
      </trkpt>
      <trkpt lat="43.97678" lon="5.13996">
        <ele>388.9</ele>
        <time>2013-03-07T15:17:36Z</time>
      </trkpt>
      <trkpt lat="43.97675" lon="5.13998">
        <ele>388.5</ele>
        <time>2013-03-07T15:17:40Z</time>
      </trkpt>
      <trkpt lat="43.97674" lon="5.13999">
        <ele>388.4</ele>
        <time>2013-03-07T15:17:41Z</time>
      </trkpt>
      <trkpt lat="43.97671" lon="5.14002">
        <ele>389.5</ele>
        <time>2013-03-07T15:17:45Z</time>
      </trkpt>
      <trkpt lat="43.9767" lon="5.14003">
        <ele>390</ele>
        <time>2013-03-07T15:17:46Z</time>
      </trkpt>
      <trkpt lat="43.97668" lon="5.14008">
        <ele>390.8</ele>
        <time>2013-03-07T15:17:51Z</time>
      </trkpt>
      <trkpt lat="43.97668" lon="5.1401">
        <ele>390.9</ele>
        <time>2013-03-07T15:17:52Z</time>
      </trkpt>
      <trkpt lat="43.97668" lon="5.14015">
        <ele>392.3</ele>
        <time>2013-03-07T15:18:00Z</time>
      </trkpt>
      <trkpt lat="43.97667" lon="5.14016">
        <ele>392.9</ele>
        <time>2013-03-07T15:18:01Z</time>
      </trkpt>
      <trkpt lat="43.97669" lon="5.14021">
        <ele>392.3</ele>
        <time>2013-03-07T15:18:49Z</time>
      </trkpt>
      <trkpt lat="43.9767" lon="5.14022">
        <ele>392.6</ele>
        <time>2013-03-07T15:18:50Z</time>
      </trkpt>
      <trkpt lat="43.97672" lon="5.14027">
        <ele>389.5</ele>
        <time>2013-03-07T15:19:06Z</time>
      </trkpt>
      <trkpt lat="43.97673" lon="5.14028">
        <ele>388.9</ele>
        <time>2013-03-07T15:19:07Z</time>
      </trkpt>
      <trkpt lat="43.97674" lon="5.14032">
        <ele>388.3</ele>
        <time>2013-03-07T15:19:09Z</time>
      </trkpt>
      <trkpt lat="43.97676" lon="5.14034">
        <ele>387.8</ele>
        <time>2013-03-07T15:19:10Z</time>
      </trkpt>
      <trkpt lat="43.97678" lon="5.14037">
        <ele>387.9</ele>
        <time>2013-03-07T15:19:12Z</time>
      </trkpt>
      <trkpt lat="43.97679" lon="5.14038">
        <ele>387.9</ele>
        <time>2013-03-07T15:19:13Z</time>
      </trkpt>
      <trkpt lat="43.97684" lon="5.14039">
        <ele>388.8</ele>
        <time>2013-03-07T15:19:16Z</time>
      </trkpt>
      <trkpt lat="43.97685" lon="5.14041">
        <ele>389.2</ele>
        <time>2013-03-07T15:19:17Z</time>
      </trkpt>
      <trkpt lat="43.97689" lon="5.14043">
        <ele>389.6</ele>
        <time>2013-03-07T15:19:20Z</time>
      </trkpt>
      <trkpt lat="43.9769" lon="5.14044">
        <ele>389.5</ele>
        <time>2013-03-07T15:19:21Z</time>
      </trkpt>
      <trkpt lat="43.97693" lon="5.14046">
        <ele>389</ele>
        <time>2013-03-07T15:19:24Z</time>
      </trkpt>
      <trkpt lat="43.97694" lon="5.14047">
        <ele>389.4</ele>
        <time>2013-03-07T15:19:25Z</time>
      </trkpt>
      <trkpt lat="43.97695" lon="5.14052">
        <ele>390.5</ele>
        <time>2013-03-07T15:19:28Z</time>
      </trkpt>
      <trkpt lat="43.97696" lon="5.14053">
        <ele>391.6</ele>
        <time>2013-03-07T15:19:29Z</time>
      </trkpt>
      <trkpt lat="43.97696" lon="5.14059">
        <ele>392.6</ele>
        <time>2013-03-07T15:19:33Z</time>
      </trkpt>
      <trkpt lat="43.97696" lon="5.1406">
        <ele>392.6</ele>
        <time>2013-03-07T15:19:34Z</time>
      </trkpt>
      <trkpt lat="43.97695" lon="5.14066">
        <ele>396.4</ele>
        <time>2013-03-07T15:19:42Z</time>
      </trkpt>
      <trkpt lat="43.97695" lon="5.14066">
        <ele>396.6</ele>
        <time>2013-03-07T15:19:43Z</time>
      </trkpt>
      <trkpt lat="43.97691" lon="5.14069">
        <ele>398.8</ele>
        <time>2013-03-07T15:19:53Z</time>
      </trkpt>
      <trkpt lat="43.9769" lon="5.14069">
        <ele>398.8</ele>
        <time>2013-03-07T15:19:54Z</time>
      </trkpt>
      <trkpt lat="43.97686" lon="5.1407">
        <ele>400.2</ele>
        <time>2013-03-07T15:20:01Z</time>
      </trkpt>
      <trkpt lat="43.97686" lon="5.1407">
        <ele>400.1</ele>
        <time>2013-03-07T15:20:02Z</time>
      </trkpt>
      <trkpt lat="43.97683" lon="5.14074">
        <ele>398.7</ele>
        <time>2013-03-07T15:20:10Z</time>
      </trkpt>
      <trkpt lat="43.97682" lon="5.14074">
        <ele>397.7</ele>
        <time>2013-03-07T15:20:11Z</time>
      </trkpt>
      <trkpt lat="43.97678" lon="5.14076">
        <ele>399.5</ele>
        <time>2013-03-07T15:20:17Z</time>
      </trkpt>
      <trkpt lat="43.97677" lon="5.14076">
        <ele>400</ele>
        <time>2013-03-07T15:20:18Z</time>
      </trkpt>
      <trkpt lat="43.97673" lon="5.14078">
        <ele>400.9</ele>
        <time>2013-03-07T15:20:24Z</time>
      </trkpt>
      <trkpt lat="43.97672" lon="5.14078">
        <ele>400.8</ele>
        <time>2013-03-07T15:20:25Z</time>
      </trkpt>
      <trkpt lat="43.97669" lon="5.1408">
        <ele>402.1</ele>
        <time>2013-03-07T15:20:29Z</time>
      </trkpt>
      <trkpt lat="43.97668" lon="5.14079">
        <ele>402.3</ele>
        <time>2013-03-07T15:20:30Z</time>
      </trkpt>
      <trkpt lat="43.97663" lon="5.14078">
        <ele>403.1</ele>
        <time>2013-03-07T15:20:37Z</time>
      </trkpt>
      <trkpt lat="43.97663" lon="5.14078">
        <ele>403.1</ele>
        <time>2013-03-07T15:20:38Z</time>
      </trkpt>
      <trkpt lat="43.97658" lon="5.14077">
        <ele>404.5</ele>
        <time>2013-03-07T15:20:49Z</time>
      </trkpt>
      <trkpt lat="43.97658" lon="5.14077">
        <ele>404.7</ele>
        <time>2013-03-07T15:20:50Z</time>
      </trkpt>
      <trkpt lat="43.97654" lon="5.14074">
        <ele>406.4</ele>
        <time>2013-03-07T15:20:57Z</time>
      </trkpt>
      <trkpt lat="43.97653" lon="5.14075">
        <ele>406.2</ele>
        <time>2013-03-07T15:20:58Z</time>
      </trkpt>
      <trkpt lat="43.97649" lon="5.14077">
        <ele>405.7</ele>
        <time>2013-03-07T15:21:07Z</time>
      </trkpt>
      <trkpt lat="43.97648" lon="5.14077">
        <ele>405.9</ele>
        <time>2013-03-07T15:21:08Z</time>
      </trkpt>
      <trkpt lat="43.97644" lon="5.14078">
        <ele>408.7</ele>
        <time>2013-03-07T15:21:17Z</time>
      </trkpt>
      <trkpt lat="43.97643" lon="5.14078">
        <ele>408.9</ele>
        <time>2013-03-07T15:21:18Z</time>
      </trkpt>
      <trkpt lat="43.97639" lon="5.14081">
        <ele>409</ele>
        <time>2013-03-07T15:21:24Z</time>
      </trkpt>
      <trkpt lat="43.97638" lon="5.14081">
        <ele>409</ele>
        <time>2013-03-07T15:21:25Z</time>
      </trkpt>
      <trkpt lat="43.97634" lon="5.14084">
        <ele>408.8</ele>
        <time>2013-03-07T15:21:30Z</time>
      </trkpt>
      <trkpt lat="43.97633" lon="5.14084">
        <ele>409.1</ele>
        <time>2013-03-07T15:21:31Z</time>
      </trkpt>
      <trkpt lat="43.9763" lon="5.14085">
        <ele>410.3</ele>
        <time>2013-03-07T15:21:36Z</time>
      </trkpt>
      <trkpt lat="43.97629" lon="5.14085">
        <ele>410.4</ele>
        <time>2013-03-07T15:21:37Z</time>
      </trkpt>
      <trkpt lat="43.97625" lon="5.14085">
        <ele>409.9</ele>
        <time>2013-03-07T15:21:44Z</time>
      </trkpt>
      <trkpt lat="43.97624" lon="5.14085">
        <ele>409.6</ele>
        <time>2013-03-07T15:21:45Z</time>
      </trkpt>
      <trkpt lat="43.97619" lon="5.14084">
        <ele>409.5</ele>
        <time>2013-03-07T15:21:50Z</time>
      </trkpt>
      <trkpt lat="43.97619" lon="5.14084">
        <ele>409.7</ele>
        <time>2013-03-07T15:21:51Z</time>
      </trkpt>
      <trkpt lat="43.97615" lon="5.1408">
        <ele>411</ele>
        <time>2013-03-07T15:21:56Z</time>
      </trkpt>
      <trkpt lat="43.97615" lon="5.14079">
        <ele>411</ele>
        <time>2013-03-07T15:21:57Z</time>
      </trkpt>
      <trkpt lat="43.97611" lon="5.14077">
        <ele>415.4</ele>
        <time>2013-03-07T15:22:07Z</time>
      </trkpt>
      <trkpt lat="43.9761" lon="5.14077">
        <ele>415.2</ele>
        <time>2013-03-07T15:22:08Z</time>
      </trkpt>
      <trkpt lat="43.97605" lon="5.14078">
        <ele>414.5</ele>
        <time>2013-03-07T15:22:13Z</time>
      </trkpt>
      <trkpt lat="43.97604" lon="5.14078">
        <ele>414.6</ele>
        <time>2013-03-07T15:22:14Z</time>
      </trkpt>
      <trkpt lat="43.976" lon="5.14081">
        <ele>414.1</ele>
        <time>2013-03-07T15:22:21Z</time>
      </trkpt>
      <trkpt lat="43.97599" lon="5.14081">
        <ele>414.7</ele>
        <time>2013-03-07T15:22:22Z</time>
      </trkpt>
      <trkpt lat="43.97596" lon="5.14082">
        <ele>414.7</ele>
        <time>2013-03-07T15:22:27Z</time>
      </trkpt>
      <trkpt lat="43.97595" lon="5.14082">
        <ele>414.4</ele>
        <time>2013-03-07T15:22:28Z</time>
      </trkpt>
      <trkpt lat="43.97591" lon="5.14083">
        <ele>415</ele>
        <time>2013-03-07T15:22:36Z</time>
      </trkpt>
      <trkpt lat="43.9759" lon="5.14082">
        <ele>414.8</ele>
        <time>2013-03-07T15:22:37Z</time>
      </trkpt>
      <trkpt lat="43.97586" lon="5.14082">
        <ele>418.4</ele>
        <time>2013-03-07T15:22:44Z</time>
      </trkpt>
      <trkpt lat="43.97585" lon="5.14082">
        <ele>418.2</ele>
        <time>2013-03-07T15:22:45Z</time>
      </trkpt>
      <trkpt lat="43.97581" lon="5.14081">
        <ele>420.9</ele>
        <time>2013-03-07T15:22:53Z</time>
      </trkpt>
      <trkpt lat="43.9758" lon="5.14082">
        <ele>420.8</ele>
        <time>2013-03-07T15:22:54Z</time>
      </trkpt>
      <trkpt lat="43.97576" lon="5.14082">
        <ele>424.7</ele>
        <time>2013-03-07T15:23:00Z</time>
      </trkpt>
      <trkpt lat="43.97575" lon="5.14082">
        <ele>426.5</ele>
        <time>2013-03-07T15:23:01Z</time>
      </trkpt>
      <trkpt lat="43.97571" lon="5.14084">
        <ele>428.7</ele>
        <time>2013-03-07T15:23:11Z</time>
      </trkpt>
      <trkpt lat="43.97571" lon="5.14084">
        <ele>429.1</ele>
        <time>2013-03-07T15:23:12Z</time>
      </trkpt>
      <trkpt lat="43.97567" lon="5.14087">
        <ele>428.8</ele>
        <time>2013-03-07T15:23:17Z</time>
      </trkpt>
      <trkpt lat="43.97566" lon="5.14088">
        <ele>430.4</ele>
        <time>2013-03-07T15:23:18Z</time>
      </trkpt>
      <trkpt lat="43.97565" lon="5.14094">
        <ele>429</ele>
        <time>2013-03-07T15:23:23Z</time>
      </trkpt>
      <trkpt lat="43.97565" lon="5.14096">
        <ele>428.7</ele>
        <time>2013-03-07T15:23:24Z</time>
      </trkpt>
      <trkpt lat="43.97565" lon="5.14102">
        <ele>438.2</ele>
        <time>2013-03-07T15:23:34Z</time>
      </trkpt>
      <trkpt lat="43.97565" lon="5.14103">
        <ele>445.4</ele>
        <time>2013-03-07T15:23:35Z</time>
      </trkpt>
      <trkpt lat="43.97561" lon="5.14105">
        <ele>444.6</ele>
        <time>2013-03-07T15:23:38Z</time>
      </trkpt>
      <trkpt lat="43.9756" lon="5.14105">
        <ele>444.8</ele>
        <time>2013-03-07T15:23:39Z</time>
      </trkpt>
      <trkpt lat="43.97557" lon="5.1411">
        <ele>442.3</ele>
        <time>2013-03-07T15:23:44Z</time>
      </trkpt>
      <trkpt lat="43.97557" lon="5.14111">
        <ele>441.4</ele>
        <time>2013-03-07T15:23:45Z</time>
      </trkpt>
      <trkpt lat="43.97555" lon="5.14116">
        <ele>440.3</ele>
        <time>2013-03-07T15:23:50Z</time>
      </trkpt>
      <trkpt lat="43.97555" lon="5.14118">
        <ele>439.8</ele>
        <time>2013-03-07T15:23:51Z</time>
      </trkpt>
      <trkpt lat="43.97553" lon="5.14122">
        <ele>439.8</ele>
        <time>2013-03-07T15:23:56Z</time>
      </trkpt>
      <trkpt lat="43.97552" lon="5.14123">
        <ele>438.1</ele>
        <time>2013-03-07T15:23:57Z</time>
      </trkpt>
      <trkpt lat="43.97549" lon="5.14127">
        <ele>440.1</ele>
        <time>2013-03-07T15:24:04Z</time>
      </trkpt>
      <trkpt lat="43.97548" lon="5.14127">
        <ele>439.5</ele>
        <time>2013-03-07T15:24:05Z</time>
      </trkpt>
      <trkpt lat="43.97545" lon="5.14131">
        <ele>439.4</ele>
        <time>2013-03-07T15:24:16Z</time>
      </trkpt>
      <trkpt lat="43.97545" lon="5.14132">
        <ele>439.6</ele>
        <time>2013-03-07T15:24:17Z</time>
      </trkpt>
      <trkpt lat="43.97542" lon="5.14136">
        <ele>439.8</ele>
        <time>2013-03-07T15:24:34Z</time>
      </trkpt>
      <trkpt lat="43.97541" lon="5.14138">
        <ele>439.7</ele>
        <time>2013-03-07T15:24:35Z</time>
      </trkpt>
      <trkpt lat="43.97539" lon="5.14143">
        <ele>442</ele>
        <time>2013-03-07T15:24:39Z</time>
      </trkpt>
      <trkpt lat="43.97539" lon="5.14144">
        <ele>441.8</ele>
        <time>2013-03-07T15:24:40Z</time>
      </trkpt>
      <trkpt lat="43.97536" lon="5.14146">
        <ele>444.4</ele>
        <time>2013-03-07T15:24:42Z</time>
      </trkpt>
      <trkpt lat="43.97536" lon="5.14148">
        <ele>444.1</ele>
        <time>2013-03-07T15:24:43Z</time>
      </trkpt>
      <trkpt lat="43.97533" lon="5.14151">
        <ele>443.6</ele>
        <time>2013-03-07T15:24:46Z</time>
      </trkpt>
      <trkpt lat="43.97532" lon="5.14153">
        <ele>443.5</ele>
        <time>2013-03-07T15:24:47Z</time>
      </trkpt>
      <trkpt lat="43.9753" lon="5.14158">
        <ele>443.9</ele>
        <time>2013-03-07T15:24:50Z</time>
      </trkpt>
      <trkpt lat="43.97529" lon="5.14159">
        <ele>444</ele>
        <time>2013-03-07T15:24:51Z</time>
      </trkpt>
      <trkpt lat="43.97527" lon="5.14163">
        <ele>443.4</ele>
        <time>2013-03-07T15:24:54Z</time>
      </trkpt>
      <trkpt lat="43.97526" lon="5.14164">
        <ele>443.4</ele>
        <time>2013-03-07T15:24:55Z</time>
      </trkpt>
      <trkpt lat="43.97523" lon="5.14167">
        <ele>443.3</ele>
        <time>2013-03-07T15:24:58Z</time>
      </trkpt>
      <trkpt lat="43.97522" lon="5.14167">
        <ele>443</ele>
        <time>2013-03-07T15:24:59Z</time>
      </trkpt>
      <trkpt lat="43.97518" lon="5.14169">
        <ele>441.9</ele>
        <time>2013-03-07T15:25:02Z</time>
      </trkpt>
      <trkpt lat="43.97517" lon="5.1417">
        <ele>442.5</ele>
        <time>2013-03-07T15:25:03Z</time>
      </trkpt>
      <trkpt lat="43.97514" lon="5.14172">
        <ele>442.1</ele>
        <time>2013-03-07T15:25:07Z</time>
      </trkpt>
      <trkpt lat="43.97512" lon="5.14173">
        <ele>440.9</ele>
        <time>2013-03-07T15:25:08Z</time>
      </trkpt>
      <trkpt lat="43.97508" lon="5.14175">
        <ele>440.1</ele>
        <time>2013-03-07T15:25:11Z</time>
      </trkpt>
      <trkpt lat="43.97507" lon="5.14177">
        <ele>439.7</ele>
        <time>2013-03-07T15:25:12Z</time>
      </trkpt>
      <trkpt lat="43.97504" lon="5.14173">
        <ele>440</ele>
        <time>2013-03-07T15:25:14Z</time>
      </trkpt>
      <trkpt lat="43.97503" lon="5.14172">
        <ele>440.1</ele>
        <time>2013-03-07T15:25:15Z</time>
      </trkpt>
      <trkpt lat="43.97498" lon="5.14171">
        <ele>441.3</ele>
        <time>2013-03-07T15:25:18Z</time>
      </trkpt>
      <trkpt lat="43.97497" lon="5.14171">
        <ele>441.4</ele>
        <time>2013-03-07T15:25:19Z</time>
      </trkpt>
      <trkpt lat="43.97493" lon="5.14171">
        <ele>441</ele>
        <time>2013-03-07T15:25:22Z</time>
      </trkpt>
      <trkpt lat="43.97491" lon="5.1417">
        <ele>441.1</ele>
        <time>2013-03-07T15:25:23Z</time>
      </trkpt>
      <trkpt lat="43.97488" lon="5.14174">
        <ele>439.8</ele>
        <time>2013-03-07T15:25:26Z</time>
      </trkpt>
      <trkpt lat="43.97486" lon="5.14175">
        <ele>439.1</ele>
        <time>2013-03-07T15:25:27Z</time>
      </trkpt>
      <trkpt lat="43.97483" lon="5.14174">
        <ele>439.5</ele>
        <time>2013-03-07T15:25:30Z</time>
      </trkpt>
      <trkpt lat="43.97481" lon="5.14174">
        <ele>439.6</ele>
        <time>2013-03-07T15:25:31Z</time>
      </trkpt>
      <trkpt lat="43.97477" lon="5.14172">
        <ele>439.4</ele>
        <time>2013-03-07T15:25:34Z</time>
      </trkpt>
      <trkpt lat="43.97475" lon="5.14171">
        <ele>439.1</ele>
        <time>2013-03-07T15:25:35Z</time>
      </trkpt>
      <trkpt lat="43.97471" lon="5.1417">
        <ele>438.7</ele>
        <time>2013-03-07T15:25:38Z</time>
      </trkpt>
      <trkpt lat="43.97469" lon="5.14171">
        <ele>438.8</ele>
        <time>2013-03-07T15:25:39Z</time>
      </trkpt>
      <trkpt lat="43.97467" lon="5.14175">
        <ele>439.5</ele>
        <time>2013-03-07T15:25:42Z</time>
      </trkpt>
      <trkpt lat="43.97465" lon="5.14176">
        <ele>439.9</ele>
        <time>2013-03-07T15:25:43Z</time>
      </trkpt>
      <trkpt lat="43.97463" lon="5.14178">
        <ele>440.1</ele>
        <time>2013-03-07T15:25:45Z</time>
      </trkpt>
      <trkpt lat="43.97461" lon="5.14179">
        <ele>440.1</ele>
        <time>2013-03-07T15:25:46Z</time>
      </trkpt>
      <trkpt lat="43.97457" lon="5.1418">
        <ele>436</ele>
        <time>2013-03-07T15:25:50Z</time>
      </trkpt>
      <trkpt lat="43.97455" lon="5.14179">
        <ele>436.4</ele>
        <time>2013-03-07T15:25:51Z</time>
      </trkpt>
      <trkpt lat="43.97451" lon="5.14178">
        <ele>436.9</ele>
        <time>2013-03-07T15:25:54Z</time>
      </trkpt>
      <trkpt lat="43.97449" lon="5.14178">
        <ele>436.8</ele>
        <time>2013-03-07T15:25:55Z</time>
      </trkpt>
      <trkpt lat="43.97445" lon="5.14179">
        <ele>436.4</ele>
        <time>2013-03-07T15:25:58Z</time>
      </trkpt>
      <trkpt lat="43.97444" lon="5.1418">
        <ele>436.5</ele>
        <time>2013-03-07T15:25:59Z</time>
      </trkpt>
      <trkpt lat="43.9744" lon="5.14183">
        <ele>438.1</ele>
        <time>2013-03-07T15:26:01Z</time>
      </trkpt>
      <trkpt lat="43.97439" lon="5.14184">
        <ele>438.2</ele>
        <time>2013-03-07T15:26:02Z</time>
      </trkpt>
      <trkpt lat="43.97435" lon="5.14187">
        <ele>435.1</ele>
        <time>2013-03-07T15:26:10Z</time>
      </trkpt>
      <trkpt lat="43.97434" lon="5.14187">
        <ele>435.9</ele>
        <time>2013-03-07T15:26:11Z</time>
      </trkpt>
      <trkpt lat="43.97431" lon="5.14192">
        <ele>438.7</ele>
        <time>2013-03-07T15:26:19Z</time>
      </trkpt>
      <trkpt lat="43.97431" lon="5.14194">
        <ele>438.4</ele>
        <time>2013-03-07T15:26:20Z</time>
      </trkpt>
      <trkpt lat="43.97429" lon="5.14198">
        <ele>437.5</ele>
        <time>2013-03-07T15:26:22Z</time>
      </trkpt>
      <trkpt lat="43.97429" lon="5.14201">
        <ele>436.4</ele>
        <time>2013-03-07T15:26:23Z</time>
      </trkpt>
      <trkpt lat="43.97425" lon="5.14203">
        <ele>443.3</ele>
        <time>2013-03-07T15:26:33Z</time>
      </trkpt>
      <trkpt lat="43.97424" lon="5.14204">
        <ele>443.8</ele>
        <time>2013-03-07T15:26:34Z</time>
      </trkpt>
      <trkpt lat="43.97421" lon="5.14201">
        <ele>443.3</ele>
        <time>2013-03-07T15:26:37Z</time>
      </trkpt>
      <trkpt lat="43.97419" lon="5.14199">
        <ele>443.3</ele>
        <time>2013-03-07T15:26:38Z</time>
      </trkpt>
      <trkpt lat="43.97415" lon="5.14197">
        <ele>443.2</ele>
        <time>2013-03-07T15:26:41Z</time>
      </trkpt>
      <trkpt lat="43.97414" lon="5.14197">
        <ele>443.4</ele>
        <time>2013-03-07T15:26:42Z</time>
      </trkpt>
      <trkpt lat="43.97411" lon="5.14198">
        <ele>443.7</ele>
        <time>2013-03-07T15:26:44Z</time>
      </trkpt>
      <trkpt lat="43.97409" lon="5.14199">
        <ele>443.6</ele>
        <time>2013-03-07T15:26:45Z</time>
      </trkpt>
      <trkpt lat="43.97406" lon="5.14201">
        <ele>444.2</ele>
        <time>2013-03-07T15:26:47Z</time>
      </trkpt>
      <trkpt lat="43.97406" lon="5.14204">
        <ele>444.4</ele>
        <time>2013-03-07T15:26:48Z</time>
      </trkpt>
      <trkpt lat="43.97403" lon="5.14209">
        <ele>444.9</ele>
        <time>2013-03-07T15:26:51Z</time>
      </trkpt>
      <trkpt lat="43.97402" lon="5.1421">
        <ele>445.1</ele>
        <time>2013-03-07T15:26:52Z</time>
      </trkpt>
      <trkpt lat="43.97398" lon="5.1421">
        <ele>445</ele>
        <time>2013-03-07T15:26:54Z</time>
      </trkpt>
      <trkpt lat="43.97396" lon="5.1421">
        <ele>445.2</ele>
        <time>2013-03-07T15:26:55Z</time>
      </trkpt>
      <trkpt lat="43.97393" lon="5.14213">
        <ele>446.1</ele>
        <time>2013-03-07T15:26:58Z</time>
      </trkpt>
      <trkpt lat="43.97391" lon="5.14214">
        <ele>446.2</ele>
        <time>2013-03-07T15:26:59Z</time>
      </trkpt>
      <trkpt lat="43.97388" lon="5.14217">
        <ele>446.5</ele>
        <time>2013-03-07T15:27:01Z</time>
      </trkpt>
      <trkpt lat="43.97387" lon="5.14218">
        <ele>447.5</ele>
        <time>2013-03-07T15:27:02Z</time>
      </trkpt>
      <trkpt lat="43.97384" lon="5.14221">
        <ele>446.9</ele>
        <time>2013-03-07T15:27:05Z</time>
      </trkpt>
      <trkpt lat="43.97382" lon="5.14222">
        <ele>446.8</ele>
        <time>2013-03-07T15:27:06Z</time>
      </trkpt>
      <trkpt lat="43.9738" lon="5.14225">
        <ele>446.8</ele>
        <time>2013-03-07T15:27:08Z</time>
      </trkpt>
      <trkpt lat="43.97379" lon="5.14227">
        <ele>447.2</ele>
        <time>2013-03-07T15:27:09Z</time>
      </trkpt>
      <trkpt lat="43.97378" lon="5.14232">
        <ele>447.3</ele>
        <time>2013-03-07T15:27:12Z</time>
      </trkpt>
      <trkpt lat="43.97376" lon="5.14233">
        <ele>448.2</ele>
        <time>2013-03-07T15:27:13Z</time>
      </trkpt>
      <trkpt lat="43.97373" lon="5.14236">
        <ele>448.8</ele>
        <time>2013-03-07T15:27:16Z</time>
      </trkpt>
      <trkpt lat="43.97373" lon="5.14237">
        <ele>448.8</ele>
        <time>2013-03-07T15:27:17Z</time>
      </trkpt>
      <trkpt lat="43.97369" lon="5.14238">
        <ele>448.7</ele>
        <time>2013-03-07T15:27:19Z</time>
      </trkpt>
      <trkpt lat="43.97367" lon="5.14238">
        <ele>447.9</ele>
        <time>2013-03-07T15:27:20Z</time>
      </trkpt>
      <trkpt lat="43.97363" lon="5.14238">
        <ele>448.4</ele>
        <time>2013-03-07T15:27:27Z</time>
      </trkpt>
      <trkpt lat="43.97362" lon="5.14239">
        <ele>448.4</ele>
        <time>2013-03-07T15:27:28Z</time>
      </trkpt>
      <trkpt lat="43.97358" lon="5.1424">
        <ele>450.4</ele>
        <time>2013-03-07T15:27:37Z</time>
      </trkpt>
      <trkpt lat="43.97358" lon="5.14241">
        <ele>450.4</ele>
        <time>2013-03-07T15:27:38Z</time>
      </trkpt>
      <trkpt lat="43.97356" lon="5.14244">
        <ele>449.1</ele>
        <time>2013-03-07T15:28:31Z</time>
      </trkpt>
      <trkpt lat="43.97355" lon="5.14248">
        <ele>450.6</ele>
        <time>2013-03-07T15:28:32Z</time>
      </trkpt>
      <trkpt lat="43.97355" lon="5.14252">
        <ele>450</ele>
        <time>2013-03-07T15:28:34Z</time>
      </trkpt>
      <trkpt lat="43.97355" lon="5.14255">
        <ele>450.2</ele>
        <time>2013-03-07T15:28:35Z</time>
      </trkpt>
      <trkpt lat="43.97355" lon="5.1426">
        <ele>450.8</ele>
        <time>2013-03-07T15:28:37Z</time>
      </trkpt>
      <trkpt lat="43.97355" lon="5.14262">
        <ele>451.3</ele>
        <time>2013-03-07T15:28:38Z</time>
      </trkpt>
      <trkpt lat="43.97355" lon="5.14265">
        <ele>452.6</ele>
        <time>2013-03-07T15:28:39Z</time>
      </trkpt>
      <trkpt lat="43.97355" lon="5.14268">
        <ele>452.4</ele>
        <time>2013-03-07T15:28:40Z</time>
      </trkpt>
      <trkpt lat="43.97355" lon="5.14272">
        <ele>452.6</ele>
        <time>2013-03-07T15:28:41Z</time>
      </trkpt>
      <trkpt lat="43.97354" lon="5.14275">
        <ele>452.8</ele>
        <time>2013-03-07T15:28:42Z</time>
      </trkpt>
      <trkpt lat="43.97354" lon="5.14279">
        <ele>453.1</ele>
        <time>2013-03-07T15:28:43Z</time>
      </trkpt>
      <trkpt lat="43.97353" lon="5.14283">
        <ele>453.3</ele>
        <time>2013-03-07T15:28:44Z</time>
      </trkpt>
      <trkpt lat="43.97353" lon="5.14286">
        <ele>453.2</ele>
        <time>2013-03-07T15:28:45Z</time>
      </trkpt>
      <trkpt lat="43.97352" lon="5.14289">
        <ele>453.1</ele>
        <time>2013-03-07T15:28:46Z</time>
      </trkpt>
      <trkpt lat="43.97352" lon="5.14295">
        <ele>453</ele>
        <time>2013-03-07T15:28:48Z</time>
      </trkpt>
      <trkpt lat="43.97352" lon="5.14297">
        <ele>452.8</ele>
        <time>2013-03-07T15:28:49Z</time>
      </trkpt>
      <trkpt lat="43.97352" lon="5.14303">
        <ele>452.7</ele>
        <time>2013-03-07T15:28:51Z</time>
      </trkpt>
      <trkpt lat="43.97352" lon="5.14306">
        <ele>452.6</ele>
        <time>2013-03-07T15:28:52Z</time>
      </trkpt>
      <trkpt lat="43.97352" lon="5.1431">
        <ele>452.2</ele>
        <time>2013-03-07T15:28:53Z</time>
      </trkpt>
      <trkpt lat="43.97352" lon="5.14313">
        <ele>452.4</ele>
        <time>2013-03-07T15:28:54Z</time>
      </trkpt>
      <trkpt lat="43.97352" lon="5.14316">
        <ele>452.8</ele>
        <time>2013-03-07T15:28:55Z</time>
      </trkpt>
      <trkpt lat="43.97351" lon="5.14319">
        <ele>452.8</ele>
        <time>2013-03-07T15:28:56Z</time>
      </trkpt>
      <trkpt lat="43.97351" lon="5.14325">
        <ele>452.5</ele>
        <time>2013-03-07T15:28:58Z</time>
      </trkpt>
      <trkpt lat="43.97351" lon="5.14328">
        <ele>452.7</ele>
        <time>2013-03-07T15:28:59Z</time>
      </trkpt>
      <trkpt lat="43.9735" lon="5.14334">
        <ele>452.8</ele>
        <time>2013-03-07T15:29:01Z</time>
      </trkpt>
      <trkpt lat="43.97349" lon="5.14336">
        <ele>453.1</ele>
        <time>2013-03-07T15:29:02Z</time>
      </trkpt>
      <trkpt lat="43.97347" lon="5.14342">
        <ele>453.7</ele>
        <time>2013-03-07T15:29:04Z</time>
      </trkpt>
      <trkpt lat="43.97346" lon="5.14344">
        <ele>453.4</ele>
        <time>2013-03-07T15:29:05Z</time>
      </trkpt>
      <trkpt lat="43.97343" lon="5.14348">
        <ele>453.4</ele>
        <time>2013-03-07T15:29:07Z</time>
      </trkpt>
      <trkpt lat="43.97342" lon="5.14349">
        <ele>453.7</ele>
        <time>2013-03-07T15:29:08Z</time>
      </trkpt>
      <trkpt lat="43.97339" lon="5.14352">
        <ele>453.6</ele>
        <time>2013-03-07T15:29:10Z</time>
      </trkpt>
      <trkpt lat="43.97338" lon="5.14352">
        <ele>453.1</ele>
        <time>2013-03-07T15:29:11Z</time>
      </trkpt>
      <trkpt lat="43.97334" lon="5.14354">
        <ele>453.5</ele>
        <time>2013-03-07T15:29:14Z</time>
      </trkpt>
      <trkpt lat="43.97333" lon="5.14354">
        <ele>453.4</ele>
        <time>2013-03-07T15:29:15Z</time>
      </trkpt>
      <trkpt lat="43.9733" lon="5.14358">
        <ele>453.7</ele>
        <time>2013-03-07T15:29:19Z</time>
      </trkpt>
      <trkpt lat="43.97329" lon="5.14358">
        <ele>453.5</ele>
        <time>2013-03-07T15:29:20Z</time>
      </trkpt>
      <trkpt lat="43.97333" lon="5.14355">
        <ele>454.4</ele>
        <time>2013-03-07T15:29:32Z</time>
      </trkpt>
      <trkpt lat="43.97335" lon="5.14354">
        <ele>454</ele>
        <time>2013-03-07T15:29:33Z</time>
      </trkpt>
      <trkpt lat="43.97339" lon="5.14352">
        <ele>454.7</ele>
        <time>2013-03-07T15:29:35Z</time>
      </trkpt>
      <trkpt lat="43.97341" lon="5.14351">
        <ele>455.1</ele>
        <time>2013-03-07T15:29:36Z</time>
      </trkpt>
      <trkpt lat="43.97344" lon="5.1435">
        <ele>455.3</ele>
        <time>2013-03-07T15:29:37Z</time>
      </trkpt>
      <trkpt lat="43.97347" lon="5.14349">
        <ele>455.3</ele>
        <time>2013-03-07T15:29:38Z</time>
      </trkpt>
      <trkpt lat="43.9735" lon="5.14344">
        <ele>455.1</ele>
        <time>2013-03-07T15:29:39Z</time>
      </trkpt>
      <trkpt lat="43.97352" lon="5.14342">
        <ele>455.1</ele>
        <time>2013-03-07T15:29:40Z</time>
      </trkpt>
      <trkpt lat="43.97354" lon="5.14339">
        <ele>455.1</ele>
        <time>2013-03-07T15:29:41Z</time>
      </trkpt>
      <trkpt lat="43.9735" lon="5.14333">
        <ele>452.7</ele>
        <time>2013-03-07T15:29:42Z</time>
      </trkpt>
      <trkpt lat="43.97351" lon="5.14327">
        <ele>452.2</ele>
        <time>2013-03-07T15:29:43Z</time>
      </trkpt>
      <trkpt lat="43.97352" lon="5.14323">
        <ele>451.8</ele>
        <time>2013-03-07T15:29:44Z</time>
      </trkpt>
      <trkpt lat="43.97352" lon="5.14319">
        <ele>452.1</ele>
        <time>2013-03-07T15:29:45Z</time>
      </trkpt>
      <trkpt lat="43.97352" lon="5.14315">
        <ele>452.2</ele>
        <time>2013-03-07T15:29:46Z</time>
      </trkpt>
      <trkpt lat="43.97351" lon="5.14312">
        <ele>452.4</ele>
        <time>2013-03-07T15:29:47Z</time>
      </trkpt>
      <trkpt lat="43.97351" lon="5.14308">
        <ele>452.1</ele>
        <time>2013-03-07T15:29:48Z</time>
      </trkpt>
      <trkpt lat="43.97351" lon="5.14304">
        <ele>452.2</ele>
        <time>2013-03-07T15:29:49Z</time>
      </trkpt>
      <trkpt lat="43.97351" lon="5.14301">
        <ele>451.8</ele>
        <time>2013-03-07T15:29:50Z</time>
      </trkpt>
      <trkpt lat="43.97351" lon="5.14298">
        <ele>451.9</ele>
        <time>2013-03-07T15:29:51Z</time>
      </trkpt>
      <trkpt lat="43.97351" lon="5.14294">
        <ele>451.6</ele>
        <time>2013-03-07T15:29:52Z</time>
      </trkpt>
      <trkpt lat="43.97351" lon="5.14291">
        <ele>451.7</ele>
        <time>2013-03-07T15:29:53Z</time>
      </trkpt>
      <trkpt lat="43.97352" lon="5.14288">
        <ele>451.3</ele>
        <time>2013-03-07T15:29:54Z</time>
      </trkpt>
      <trkpt lat="43.97352" lon="5.14284">
        <ele>451.2</ele>
        <time>2013-03-07T15:29:55Z</time>
      </trkpt>
      <trkpt lat="43.97351" lon="5.14281">
        <ele>451</ele>
        <time>2013-03-07T15:29:56Z</time>
      </trkpt>
      <trkpt lat="43.97351" lon="5.14277">
        <ele>451</ele>
        <time>2013-03-07T15:29:57Z</time>
      </trkpt>
      <trkpt lat="43.97351" lon="5.14274">
        <ele>450.8</ele>
        <time>2013-03-07T15:29:58Z</time>
      </trkpt>
      <trkpt lat="43.97351" lon="5.1427">
        <ele>451.1</ele>
        <time>2013-03-07T15:29:59Z</time>
      </trkpt>
      <trkpt lat="43.97352" lon="5.14267">
        <ele>451</ele>
        <time>2013-03-07T15:30:00Z</time>
      </trkpt>
      <trkpt lat="43.97353" lon="5.14264">
        <ele>450.9</ele>
        <time>2013-03-07T15:30:01Z</time>
      </trkpt>
      <trkpt lat="43.97354" lon="5.1426">
        <ele>450.8</ele>
        <time>2013-03-07T15:30:02Z</time>
      </trkpt>
      <trkpt lat="43.97354" lon="5.14257">
        <ele>450.6</ele>
        <time>2013-03-07T15:30:03Z</time>
      </trkpt>
      <trkpt lat="43.97355" lon="5.14253">
        <ele>450.5</ele>
        <time>2013-03-07T15:30:04Z</time>
      </trkpt>
      <trkpt lat="43.97356" lon="5.14247">
        <ele>450.5</ele>
        <time>2013-03-07T15:30:06Z</time>
      </trkpt>
      <trkpt lat="43.97356" lon="5.14244">
        <ele>450.3</ele>
        <time>2013-03-07T15:30:07Z</time>
      </trkpt>
      <trkpt lat="43.9736" lon="5.1424">
        <ele>450</ele>
        <time>2013-03-07T15:30:15Z</time>
      </trkpt>
      <trkpt lat="43.9736" lon="5.1424">
        <ele>450.2</ele>
        <time>2013-03-07T15:30:16Z</time>
      </trkpt>
      <trkpt lat="43.97358" lon="5.14236">
        <ele>449.2</ele>
        <time>2013-03-07T15:30:20Z</time>
      </trkpt>
      <trkpt lat="43.97357" lon="5.14235">
        <ele>449.4</ele>
        <time>2013-03-07T15:30:21Z</time>
      </trkpt>
      <trkpt lat="43.97355" lon="5.1423">
        <ele>448.8</ele>
        <time>2013-03-07T15:30:26Z</time>
      </trkpt>
      <trkpt lat="43.97354" lon="5.14229">
        <ele>448.8</ele>
        <time>2013-03-07T15:30:27Z</time>
      </trkpt>
      <trkpt lat="43.97351" lon="5.14231">
        <ele>449.5</ele>
        <time>2013-03-07T15:30:30Z</time>
      </trkpt>
      <trkpt lat="43.9735" lon="5.14232">
        <ele>449.7</ele>
        <time>2013-03-07T15:30:31Z</time>
      </trkpt>
      <trkpt lat="43.97348" lon="5.14234">
        <ele>450</ele>
        <time>2013-03-07T15:30:37Z</time>
      </trkpt>
      <trkpt lat="43.97345" lon="5.14234">
        <ele>449.9</ele>
        <time>2013-03-07T15:30:38Z</time>
      </trkpt>
      <trkpt lat="43.97341" lon="5.14235">
        <ele>450.1</ele>
        <time>2013-03-07T15:30:40Z</time>
      </trkpt>
      <trkpt lat="43.97339" lon="5.14235">
        <ele>450.1</ele>
        <time>2013-03-07T15:30:41Z</time>
      </trkpt>
      <trkpt lat="43.97335" lon="5.14232">
        <ele>450.3</ele>
        <time>2013-03-07T15:30:43Z</time>
      </trkpt>
      <trkpt lat="43.97332" lon="5.14231">
        <ele>450.6</ele>
        <time>2013-03-07T15:30:44Z</time>
      </trkpt>
      <trkpt lat="43.9733" lon="5.14231">
        <ele>450.6</ele>
        <time>2013-03-07T15:30:45Z</time>
      </trkpt>
      <trkpt lat="43.97328" lon="5.1423">
        <ele>450.3</ele>
        <time>2013-03-07T15:30:46Z</time>
      </trkpt>
      <trkpt lat="43.97325" lon="5.14229">
        <ele>450.1</ele>
        <time>2013-03-07T15:30:47Z</time>
      </trkpt>
      <trkpt lat="43.97323" lon="5.14229">
        <ele>450.3</ele>
        <time>2013-03-07T15:30:48Z</time>
      </trkpt>
      <trkpt lat="43.9732" lon="5.14228">
        <ele>450.3</ele>
        <time>2013-03-07T15:30:49Z</time>
      </trkpt>
      <trkpt lat="43.97318" lon="5.14228">
        <ele>450.3</ele>
        <time>2013-03-07T15:30:50Z</time>
      </trkpt>
      <trkpt lat="43.97315" lon="5.14228">
        <ele>450.4</ele>
        <time>2013-03-07T15:30:51Z</time>
      </trkpt>
      <trkpt lat="43.97313" lon="5.14228">
        <ele>450.2</ele>
        <time>2013-03-07T15:30:52Z</time>
      </trkpt>
      <trkpt lat="43.97309" lon="5.14228">
        <ele>450.3</ele>
        <time>2013-03-07T15:30:54Z</time>
      </trkpt>
      <trkpt lat="43.97306" lon="5.14229">
        <ele>450.4</ele>
        <time>2013-03-07T15:30:55Z</time>
      </trkpt>
      <trkpt lat="43.97304" lon="5.14229">
        <ele>450.5</ele>
        <time>2013-03-07T15:30:56Z</time>
      </trkpt>
      <trkpt lat="43.97301" lon="5.14229">
        <ele>450.3</ele>
        <time>2013-03-07T15:30:57Z</time>
      </trkpt>
      <trkpt lat="43.97297" lon="5.14231">
        <ele>450.5</ele>
        <time>2013-03-07T15:30:59Z</time>
      </trkpt>
      <trkpt lat="43.97295" lon="5.14231">
        <ele>450.6</ele>
        <time>2013-03-07T15:31:00Z</time>
      </trkpt>
      <trkpt lat="43.97291" lon="5.14234">
        <ele>451.2</ele>
        <time>2013-03-07T15:31:02Z</time>
      </trkpt>
      <trkpt lat="43.9729" lon="5.14235">
        <ele>451.2</ele>
        <time>2013-03-07T15:31:03Z</time>
      </trkpt>
      <trkpt lat="43.97285" lon="5.14235">
        <ele>451.3</ele>
        <time>2013-03-07T15:31:05Z</time>
      </trkpt>
      <trkpt lat="43.97283" lon="5.14235">
        <ele>451.5</ele>
        <time>2013-03-07T15:31:06Z</time>
      </trkpt>
      <trkpt lat="43.9728" lon="5.14235">
        <ele>451.7</ele>
        <time>2013-03-07T15:31:07Z</time>
      </trkpt>
      <trkpt lat="43.97278" lon="5.14234">
        <ele>451.8</ele>
        <time>2013-03-07T15:31:08Z</time>
      </trkpt>
      <trkpt lat="43.97276" lon="5.14235">
        <ele>451.9</ele>
        <time>2013-03-07T15:31:09Z</time>
      </trkpt>
      <trkpt lat="43.97273" lon="5.14235">
        <ele>451.5</ele>
        <time>2013-03-07T15:31:10Z</time>
      </trkpt>
      <trkpt lat="43.97272" lon="5.14239">
        <ele>451.9</ele>
        <time>2013-03-07T15:31:11Z</time>
      </trkpt>
      <trkpt lat="43.97271" lon="5.14241">
        <ele>451.8</ele>
        <time>2013-03-07T15:31:12Z</time>
      </trkpt>
      <trkpt lat="43.97271" lon="5.14246">
        <ele>452.3</ele>
        <time>2013-03-07T15:31:14Z</time>
      </trkpt>
      <trkpt lat="43.97271" lon="5.14249">
        <ele>453.3</ele>
        <time>2013-03-07T15:31:15Z</time>
      </trkpt>
      <trkpt lat="43.9727" lon="5.14253">
        <ele>453.8</ele>
        <time>2013-03-07T15:31:17Z</time>
      </trkpt>
      <trkpt lat="43.9727" lon="5.14255">
        <ele>453.9</ele>
        <time>2013-03-07T15:31:18Z</time>
      </trkpt>
      <trkpt lat="43.9727" lon="5.1426">
        <ele>454.2</ele>
        <time>2013-03-07T15:31:20Z</time>
      </trkpt>
      <trkpt lat="43.9727" lon="5.14262">
        <ele>454</ele>
        <time>2013-03-07T15:31:21Z</time>
      </trkpt>
      <trkpt lat="43.9727" lon="5.14266">
        <ele>454.6</ele>
        <time>2013-03-07T15:31:23Z</time>
      </trkpt>
      <trkpt lat="43.9727" lon="5.14269">
        <ele>454.9</ele>
        <time>2013-03-07T15:31:24Z</time>
      </trkpt>
      <trkpt lat="43.97269" lon="5.14275">
        <ele>455.4</ele>
        <time>2013-03-07T15:31:27Z</time>
      </trkpt>
      <trkpt lat="43.97269" lon="5.14277">
        <ele>455.4</ele>
        <time>2013-03-07T15:31:28Z</time>
      </trkpt>
      <trkpt lat="43.97266" lon="5.1428">
        <ele>455.9</ele>
        <time>2013-03-07T15:31:31Z</time>
      </trkpt>
      <trkpt lat="43.97265" lon="5.14282">
        <ele>456.4</ele>
        <time>2013-03-07T15:31:32Z</time>
      </trkpt>
      <trkpt lat="43.97262" lon="5.14285">
        <ele>456.4</ele>
        <time>2013-03-07T15:31:34Z</time>
      </trkpt>
      <trkpt lat="43.97261" lon="5.14286">
        <ele>456.4</ele>
        <time>2013-03-07T15:31:35Z</time>
      </trkpt>
      <trkpt lat="43.97259" lon="5.1429">
        <ele>456.5</ele>
        <time>2013-03-07T15:31:37Z</time>
      </trkpt>
      <trkpt lat="43.97258" lon="5.14291">
        <ele>456.6</ele>
        <time>2013-03-07T15:31:38Z</time>
      </trkpt>
      <trkpt lat="43.97256" lon="5.14294">
        <ele>456.8</ele>
        <time>2013-03-07T15:31:40Z</time>
      </trkpt>
      <trkpt lat="43.97255" lon="5.14295">
        <ele>456.7</ele>
        <time>2013-03-07T15:31:41Z</time>
      </trkpt>
      <trkpt lat="43.97251" lon="5.14298">
        <ele>458.2</ele>
        <time>2013-03-07T15:31:44Z</time>
      </trkpt>
      <trkpt lat="43.97249" lon="5.14296">
        <ele>459.9</ele>
        <time>2013-03-07T15:31:45Z</time>
      </trkpt>
      <trkpt lat="43.97246" lon="5.14299">
        <ele>463</ele>
        <time>2013-03-07T15:31:47Z</time>
      </trkpt>
      <trkpt lat="43.97245" lon="5.143">
        <ele>463.1</ele>
        <time>2013-03-07T15:31:48Z</time>
      </trkpt>
      <trkpt lat="43.97241" lon="5.14303">
        <ele>463.4</ele>
        <time>2013-03-07T15:31:51Z</time>
      </trkpt>
      <trkpt lat="43.97239" lon="5.14304">
        <ele>463.7</ele>
        <time>2013-03-07T15:31:52Z</time>
      </trkpt>
      <trkpt lat="43.97236" lon="5.14304">
        <ele>464.8</ele>
        <time>2013-03-07T15:31:54Z</time>
      </trkpt>
      <trkpt lat="43.97234" lon="5.14306">
        <ele>464.1</ele>
        <time>2013-03-07T15:31:55Z</time>
      </trkpt>
      <trkpt lat="43.97231" lon="5.14307">
        <ele>464.6</ele>
        <time>2013-03-07T15:31:57Z</time>
      </trkpt>
      <trkpt lat="43.97229" lon="5.14309">
        <ele>463.1</ele>
        <time>2013-03-07T15:31:58Z</time>
      </trkpt>
      <trkpt lat="43.97226" lon="5.14312">
        <ele>462.4</ele>
        <time>2013-03-07T15:32:00Z</time>
      </trkpt>
      <trkpt lat="43.97225" lon="5.14314">
        <ele>463</ele>
        <time>2013-03-07T15:32:01Z</time>
      </trkpt>
      <trkpt lat="43.97223" lon="5.14317">
        <ele>463.2</ele>
        <time>2013-03-07T15:32:03Z</time>
      </trkpt>
      <trkpt lat="43.97221" lon="5.14318">
        <ele>463.2</ele>
        <time>2013-03-07T15:32:04Z</time>
      </trkpt>
      <trkpt lat="43.97217" lon="5.14322">
        <ele>463.4</ele>
        <time>2013-03-07T15:32:06Z</time>
      </trkpt>
      <trkpt lat="43.97215" lon="5.14324">
        <ele>463.4</ele>
        <time>2013-03-07T15:32:07Z</time>
      </trkpt>
      <trkpt lat="43.97212" lon="5.14327">
        <ele>463.4</ele>
        <time>2013-03-07T15:32:09Z</time>
      </trkpt>
      <trkpt lat="43.97211" lon="5.14328">
        <ele>463.4</ele>
        <time>2013-03-07T15:32:10Z</time>
      </trkpt>
      <trkpt lat="43.97208" lon="5.14332">
        <ele>463.3</ele>
        <time>2013-03-07T15:32:12Z</time>
      </trkpt>
      <trkpt lat="43.97206" lon="5.14333">
        <ele>463.5</ele>
        <time>2013-03-07T15:32:13Z</time>
      </trkpt>
      <trkpt lat="43.97203" lon="5.14337">
        <ele>463.5</ele>
        <time>2013-03-07T15:32:15Z</time>
      </trkpt>
      <trkpt lat="43.97201" lon="5.14339">
        <ele>463.4</ele>
        <time>2013-03-07T15:32:16Z</time>
      </trkpt>
      <trkpt lat="43.97198" lon="5.14342">
        <ele>463.5</ele>
        <time>2013-03-07T15:32:18Z</time>
      </trkpt>
      <trkpt lat="43.97197" lon="5.14344">
        <ele>463.4</ele>
        <time>2013-03-07T15:32:19Z</time>
      </trkpt>
      <trkpt lat="43.97195" lon="5.14349">
        <ele>464.8</ele>
        <time>2013-03-07T15:32:21Z</time>
      </trkpt>
      <trkpt lat="43.97194" lon="5.14351">
        <ele>464.9</ele>
        <time>2013-03-07T15:32:22Z</time>
      </trkpt>
      <trkpt lat="43.97194" lon="5.14355">
        <ele>465.6</ele>
        <time>2013-03-07T15:32:24Z</time>
      </trkpt>
      <trkpt lat="43.97193" lon="5.14357">
        <ele>465.5</ele>
        <time>2013-03-07T15:32:25Z</time>
      </trkpt>
      <trkpt lat="43.9719" lon="5.14361">
        <ele>465.5</ele>
        <time>2013-03-07T15:32:28Z</time>
      </trkpt>
      <trkpt lat="43.97188" lon="5.14362">
        <ele>465.6</ele>
        <time>2013-03-07T15:32:29Z</time>
      </trkpt>
      <trkpt lat="43.97185" lon="5.14362">
        <ele>464.9</ele>
        <time>2013-03-07T15:32:31Z</time>
      </trkpt>
      <trkpt lat="43.97182" lon="5.14362">
        <ele>464.9</ele>
        <time>2013-03-07T15:32:32Z</time>
      </trkpt>
      <trkpt lat="43.97178" lon="5.14365">
        <ele>464.8</ele>
        <time>2013-03-07T15:32:34Z</time>
      </trkpt>
      <trkpt lat="43.97176" lon="5.14366">
        <ele>464.3</ele>
        <time>2013-03-07T15:32:35Z</time>
      </trkpt>
      <trkpt lat="43.97173" lon="5.14368">
        <ele>463.9</ele>
        <time>2013-03-07T15:32:37Z</time>
      </trkpt>
      <trkpt lat="43.97172" lon="5.14368">
        <ele>463.7</ele>
        <time>2013-03-07T15:32:38Z</time>
      </trkpt>
      <trkpt lat="43.97168" lon="5.14369">
        <ele>462.8</ele>
        <time>2013-03-07T15:32:40Z</time>
      </trkpt>
      <trkpt lat="43.97167" lon="5.14369">
        <ele>463.1</ele>
        <time>2013-03-07T15:32:41Z</time>
      </trkpt>
      <trkpt lat="43.97164" lon="5.14372">
        <ele>462.8</ele>
        <time>2013-03-07T15:32:43Z</time>
      </trkpt>
      <trkpt lat="43.97162" lon="5.14372">
        <ele>463</ele>
        <time>2013-03-07T15:32:44Z</time>
      </trkpt>
      <trkpt lat="43.97159" lon="5.14374">
        <ele>462.4</ele>
        <time>2013-03-07T15:32:46Z</time>
      </trkpt>
      <trkpt lat="43.97157" lon="5.14375">
        <ele>462.3</ele>
        <time>2013-03-07T15:32:47Z</time>
      </trkpt>
      <trkpt lat="43.97154" lon="5.14375">
        <ele>462.1</ele>
        <time>2013-03-07T15:32:49Z</time>
      </trkpt>
      <trkpt lat="43.97152" lon="5.14376">
        <ele>461.9</ele>
        <time>2013-03-07T15:32:50Z</time>
      </trkpt>
      <trkpt lat="43.97148" lon="5.14376">
        <ele>461.7</ele>
        <time>2013-03-07T15:32:52Z</time>
      </trkpt>
      <trkpt lat="43.97147" lon="5.14376">
        <ele>461.5</ele>
        <time>2013-03-07T15:32:53Z</time>
      </trkpt>
      <trkpt lat="43.97143" lon="5.14377">
        <ele>461.8</ele>
        <time>2013-03-07T15:32:55Z</time>
      </trkpt>
      <trkpt lat="43.97141" lon="5.14377">
        <ele>461.8</ele>
        <time>2013-03-07T15:32:56Z</time>
      </trkpt>
      <trkpt lat="43.97138" lon="5.14377">
        <ele>462.1</ele>
        <time>2013-03-07T15:32:58Z</time>
      </trkpt>
      <trkpt lat="43.97136" lon="5.14378">
        <ele>462.4</ele>
        <time>2013-03-07T15:32:59Z</time>
      </trkpt>
      <trkpt lat="43.97133" lon="5.14381">
        <ele>463</ele>
        <time>2013-03-07T15:33:01Z</time>
      </trkpt>
      <trkpt lat="43.97131" lon="5.14382">
        <ele>462.8</ele>
        <time>2013-03-07T15:33:02Z</time>
      </trkpt>
      <trkpt lat="43.97128" lon="5.14385">
        <ele>463.2</ele>
        <time>2013-03-07T15:33:04Z</time>
      </trkpt>
      <trkpt lat="43.97127" lon="5.14387">
        <ele>463.6</ele>
        <time>2013-03-07T15:33:05Z</time>
      </trkpt>
      <trkpt lat="43.97123" lon="5.14388">
        <ele>462.7</ele>
        <time>2013-03-07T15:33:07Z</time>
      </trkpt>
      <trkpt lat="43.97121" lon="5.14389">
        <ele>462.6</ele>
        <time>2013-03-07T15:33:08Z</time>
      </trkpt>
      <trkpt lat="43.97117" lon="5.14387">
        <ele>462.9</ele>
        <time>2013-03-07T15:33:10Z</time>
      </trkpt>
      <trkpt lat="43.97115" lon="5.14386">
        <ele>463.1</ele>
        <time>2013-03-07T15:33:11Z</time>
      </trkpt>
      <trkpt lat="43.97111" lon="5.14387">
        <ele>463.4</ele>
        <time>2013-03-07T15:33:13Z</time>
      </trkpt>
      <trkpt lat="43.9711" lon="5.14394">
        <ele>460.2</ele>
        <time>2013-03-07T15:33:14Z</time>
      </trkpt>
      <trkpt lat="43.97107" lon="5.14397">
        <ele>460.7</ele>
        <time>2013-03-07T15:33:16Z</time>
      </trkpt>
      <trkpt lat="43.97106" lon="5.14399">
        <ele>460.5</ele>
        <time>2013-03-07T15:33:17Z</time>
      </trkpt>
      <trkpt lat="43.97102" lon="5.14401">
        <ele>462.4</ele>
        <time>2013-03-07T15:34:34Z</time>
      </trkpt>
      <trkpt lat="43.97101" lon="5.14401">
        <ele>461.9</ele>
        <time>2013-03-07T15:34:35Z</time>
      </trkpt>
      <trkpt lat="43.97098" lon="5.144">
        <ele>461.2</ele>
        <time>2013-03-07T15:34:37Z</time>
      </trkpt>
      <trkpt lat="43.97095" lon="5.14401">
        <ele>462.1</ele>
        <time>2013-03-07T15:34:38Z</time>
      </trkpt>
      <trkpt lat="43.97093" lon="5.14399">
        <ele>461.7</ele>
        <time>2013-03-07T15:34:39Z</time>
      </trkpt>
      <trkpt lat="43.97091" lon="5.14397">
        <ele>461.7</ele>
        <time>2013-03-07T15:34:40Z</time>
      </trkpt>
      <trkpt lat="43.97087" lon="5.14396">
        <ele>462.3</ele>
        <time>2013-03-07T15:34:42Z</time>
      </trkpt>
      <trkpt lat="43.97085" lon="5.14398">
        <ele>462</ele>
        <time>2013-03-07T15:34:43Z</time>
      </trkpt>
      <trkpt lat="43.97082" lon="5.14397">
        <ele>462.4</ele>
        <time>2013-03-07T15:34:45Z</time>
      </trkpt>
      <trkpt lat="43.9708" lon="5.14397">
        <ele>462.6</ele>
        <time>2013-03-07T15:34:46Z</time>
      </trkpt>
      <trkpt lat="43.97078" lon="5.14397">
        <ele>462.6</ele>
        <time>2013-03-07T15:34:47Z</time>
      </trkpt>
      <trkpt lat="43.97075" lon="5.14397">
        <ele>463.6</ele>
        <time>2013-03-07T15:34:48Z</time>
      </trkpt>
      <trkpt lat="43.97073" lon="5.14397">
        <ele>464.1</ele>
        <time>2013-03-07T15:34:49Z</time>
      </trkpt>
      <trkpt lat="43.97071" lon="5.14397">
        <ele>464.6</ele>
        <time>2013-03-07T15:34:50Z</time>
      </trkpt>
      <trkpt lat="43.97068" lon="5.14396">
        <ele>465.4</ele>
        <time>2013-03-07T15:34:51Z</time>
      </trkpt>
      <trkpt lat="43.97065" lon="5.14395">
        <ele>465.9</ele>
        <time>2013-03-07T15:34:52Z</time>
      </trkpt>
      <trkpt lat="43.97063" lon="5.14398">
        <ele>463.7</ele>
        <time>2013-03-07T15:34:53Z</time>
      </trkpt>
      <trkpt lat="43.97061" lon="5.14398">
        <ele>463.8</ele>
        <time>2013-03-07T15:34:54Z</time>
      </trkpt>
      <trkpt lat="43.97059" lon="5.14397">
        <ele>465.1</ele>
        <time>2013-03-07T15:34:55Z</time>
      </trkpt>
      <trkpt lat="43.97056" lon="5.14399">
        <ele>464.5</ele>
        <time>2013-03-07T15:34:56Z</time>
      </trkpt>
      <trkpt lat="43.97054" lon="5.14399">
        <ele>463.8</ele>
        <time>2013-03-07T15:34:57Z</time>
      </trkpt>
      <trkpt lat="43.97051" lon="5.14399">
        <ele>463.9</ele>
        <time>2013-03-07T15:34:58Z</time>
      </trkpt>
      <trkpt lat="43.97049" lon="5.14399">
        <ele>464</ele>
        <time>2013-03-07T15:34:59Z</time>
      </trkpt>
      <trkpt lat="43.97046" lon="5.14398">
        <ele>464.6</ele>
        <time>2013-03-07T15:35:00Z</time>
      </trkpt>
      <trkpt lat="43.97044" lon="5.14397">
        <ele>464.5</ele>
        <time>2013-03-07T15:35:01Z</time>
      </trkpt>
      <trkpt lat="43.97042" lon="5.14398">
        <ele>463.5</ele>
        <time>2013-03-07T15:35:02Z</time>
      </trkpt>
      <trkpt lat="43.9704" lon="5.14398">
        <ele>462.4</ele>
        <time>2013-03-07T15:35:03Z</time>
      </trkpt>
      <trkpt lat="43.97037" lon="5.14392">
        <ele>463.8</ele>
        <time>2013-03-07T15:35:04Z</time>
      </trkpt>
      <trkpt lat="43.97034" lon="5.14389">
        <ele>463.8</ele>
        <time>2013-03-07T15:35:05Z</time>
      </trkpt>
      <trkpt lat="43.97032" lon="5.14387">
        <ele>463.8</ele>
        <time>2013-03-07T15:35:06Z</time>
      </trkpt>
      <trkpt lat="43.9703" lon="5.14385">
        <ele>462.7</ele>
        <time>2013-03-07T15:35:07Z</time>
      </trkpt>
      <trkpt lat="43.97028" lon="5.14383">
        <ele>462.1</ele>
        <time>2013-03-07T15:35:08Z</time>
      </trkpt>
      <trkpt lat="43.97026" lon="5.14379">
        <ele>461.8</ele>
        <time>2013-03-07T15:35:09Z</time>
      </trkpt>
      <trkpt lat="43.97025" lon="5.14376">
        <ele>462</ele>
        <time>2013-03-07T15:35:10Z</time>
      </trkpt>
      <trkpt lat="43.97023" lon="5.14373">
        <ele>461.8</ele>
        <time>2013-03-07T15:35:11Z</time>
      </trkpt>
      <trkpt lat="43.97021" lon="5.1437">
        <ele>461.9</ele>
        <time>2013-03-07T15:35:12Z</time>
      </trkpt>
      <trkpt lat="43.9702" lon="5.14367">
        <ele>461.9</ele>
        <time>2013-03-07T15:35:13Z</time>
      </trkpt>
      <trkpt lat="43.97019" lon="5.14363">
        <ele>461.9</ele>
        <time>2013-03-07T15:35:14Z</time>
      </trkpt>
      <trkpt lat="43.97017" lon="5.1436">
        <ele>461.7</ele>
        <time>2013-03-07T15:35:15Z</time>
      </trkpt>
      <trkpt lat="43.97016" lon="5.14357">
        <ele>461.7</ele>
        <time>2013-03-07T15:35:16Z</time>
      </trkpt>
      <trkpt lat="43.97015" lon="5.14353">
        <ele>461.7</ele>
        <time>2013-03-07T15:35:17Z</time>
      </trkpt>
      <trkpt lat="43.97014" lon="5.1435">
        <ele>461.9</ele>
        <time>2013-03-07T15:35:18Z</time>
      </trkpt>
      <trkpt lat="43.97013" lon="5.14346">
        <ele>462</ele>
        <time>2013-03-07T15:35:19Z</time>
      </trkpt>
      <trkpt lat="43.97011" lon="5.14344">
        <ele>461.7</ele>
        <time>2013-03-07T15:35:20Z</time>
      </trkpt>
      <trkpt lat="43.97008" lon="5.1434">
        <ele>462.3</ele>
        <time>2013-03-07T15:35:22Z</time>
      </trkpt>
      <trkpt lat="43.97007" lon="5.14338">
        <ele>462.6</ele>
        <time>2013-03-07T15:35:23Z</time>
      </trkpt>
      <trkpt lat="43.97003" lon="5.14335">
        <ele>463.6</ele>
        <time>2013-03-07T15:35:25Z</time>
      </trkpt>
      <trkpt lat="43.97001" lon="5.14334">
        <ele>463.4</ele>
        <time>2013-03-07T15:35:26Z</time>
      </trkpt>
      <trkpt lat="43.96998" lon="5.14335">
        <ele>462.6</ele>
        <time>2013-03-07T15:35:27Z</time>
      </trkpt>
      <trkpt lat="43.96996" lon="5.14336">
        <ele>462.3</ele>
        <time>2013-03-07T15:35:28Z</time>
      </trkpt>
      <trkpt lat="43.96994" lon="5.14336">
        <ele>462</ele>
        <time>2013-03-07T15:35:29Z</time>
      </trkpt>
      <trkpt lat="43.96991" lon="5.14335">
        <ele>462.5</ele>
        <time>2013-03-07T15:35:30Z</time>
      </trkpt>
      <trkpt lat="43.96989" lon="5.14335">
        <ele>462.7</ele>
        <time>2013-03-07T15:35:31Z</time>
      </trkpt>
      <trkpt lat="43.96986" lon="5.14336">
        <ele>462.7</ele>
        <time>2013-03-07T15:35:32Z</time>
      </trkpt>
      <trkpt lat="43.96982" lon="5.14336">
        <ele>463.8</ele>
        <time>2013-03-07T15:35:34Z</time>
      </trkpt>
      <trkpt lat="43.9698" lon="5.14337">
        <ele>463</ele>
        <time>2013-03-07T15:35:35Z</time>
      </trkpt>
      <trkpt lat="43.96976" lon="5.14337">
        <ele>463.7</ele>
        <time>2013-03-07T15:35:37Z</time>
      </trkpt>
      <trkpt lat="43.96974" lon="5.14337">
        <ele>463.8</ele>
        <time>2013-03-07T15:35:38Z</time>
      </trkpt>
      <trkpt lat="43.96969" lon="5.14337">
        <ele>464.4</ele>
        <time>2013-03-07T15:35:40Z</time>
      </trkpt>
      <trkpt lat="43.96967" lon="5.1434">
        <ele>463.6</ele>
        <time>2013-03-07T15:35:41Z</time>
      </trkpt>
      <trkpt lat="43.96964" lon="5.14342">
        <ele>463.1</ele>
        <time>2013-03-07T15:35:43Z</time>
      </trkpt>
      <trkpt lat="43.96963" lon="5.14344">
        <ele>463.8</ele>
        <time>2013-03-07T15:35:44Z</time>
      </trkpt>
      <trkpt lat="43.9696" lon="5.14348">
        <ele>463.7</ele>
        <time>2013-03-07T15:35:46Z</time>
      </trkpt>
      <trkpt lat="43.9696" lon="5.14351">
        <ele>465</ele>
        <time>2013-03-07T15:35:47Z</time>
      </trkpt>
      <trkpt lat="43.96959" lon="5.14356">
        <ele>464.6</ele>
        <time>2013-03-07T15:35:49Z</time>
      </trkpt>
      <trkpt lat="43.96959" lon="5.14359">
        <ele>464.6</ele>
        <time>2013-03-07T15:35:50Z</time>
      </trkpt>
      <trkpt lat="43.9696" lon="5.14364">
        <ele>465.2</ele>
        <time>2013-03-07T15:35:52Z</time>
      </trkpt>
      <trkpt lat="43.9696" lon="5.14366">
        <ele>465.9</ele>
        <time>2013-03-07T15:35:53Z</time>
      </trkpt>
      <trkpt lat="43.96959" lon="5.14371">
        <ele>467.2</ele>
        <time>2013-03-07T15:35:55Z</time>
      </trkpt>
      <trkpt lat="43.96959" lon="5.14373">
        <ele>468</ele>
        <time>2013-03-07T15:35:56Z</time>
      </trkpt>
      <trkpt lat="43.96957" lon="5.14377">
        <ele>469.4</ele>
        <time>2013-03-07T15:35:58Z</time>
      </trkpt>
      <trkpt lat="43.96957" lon="5.14378">
        <ele>469.6</ele>
        <time>2013-03-07T15:35:59Z</time>
      </trkpt>
      <trkpt lat="43.96953" lon="5.14376">
        <ele>468.8</ele>
        <time>2013-03-07T15:36:00Z</time>
      </trkpt>
      <trkpt lat="43.96951" lon="5.14376">
        <ele>468.9</ele>
        <time>2013-03-07T15:36:01Z</time>
      </trkpt>
      <trkpt lat="43.96948" lon="5.14377">
        <ele>469.1</ele>
        <time>2013-03-07T15:36:03Z</time>
      </trkpt>
      <trkpt lat="43.96946" lon="5.14374">
        <ele>469.8</ele>
        <time>2013-03-07T15:36:04Z</time>
      </trkpt>
      <trkpt lat="43.96943" lon="5.14373">
        <ele>470</ele>
        <time>2013-03-07T15:36:06Z</time>
      </trkpt>
      <trkpt lat="43.96941" lon="5.14371">
        <ele>470.1</ele>
        <time>2013-03-07T15:36:07Z</time>
      </trkpt>
      <trkpt lat="43.96938" lon="5.14369">
        <ele>471</ele>
        <time>2013-03-07T15:36:09Z</time>
      </trkpt>
      <trkpt lat="43.96938" lon="5.14365">
        <ele>471.4</ele>
        <time>2013-03-07T15:36:10Z</time>
      </trkpt>
      <trkpt lat="43.96936" lon="5.14361">
        <ele>471.8</ele>
        <time>2013-03-07T15:36:11Z</time>
      </trkpt>
      <trkpt lat="43.96937" lon="5.14359">
        <ele>472.8</ele>
        <time>2013-03-07T15:36:12Z</time>
      </trkpt>
      <trkpt lat="43.96934" lon="5.14356">
        <ele>472.9</ele>
        <time>2013-03-07T15:36:13Z</time>
      </trkpt>
      <trkpt lat="43.96934" lon="5.14352">
        <ele>472.5</ele>
        <time>2013-03-07T15:36:14Z</time>
      </trkpt>
      <trkpt lat="43.96934" lon="5.1435">
        <ele>472.4</ele>
        <time>2013-03-07T15:36:15Z</time>
      </trkpt>
      <trkpt lat="43.9693" lon="5.14346">
        <ele>472.4</ele>
        <time>2013-03-07T15:36:16Z</time>
      </trkpt>
      <trkpt lat="43.96927" lon="5.14342">
        <ele>472.6</ele>
        <time>2013-03-07T15:36:18Z</time>
      </trkpt>
      <trkpt lat="43.96922" lon="5.1434">
        <ele>471.7</ele>
        <time>2013-03-07T15:36:19Z</time>
      </trkpt>
      <trkpt lat="43.96924" lon="5.14335">
        <ele>474</ele>
        <time>2013-03-07T15:36:20Z</time>
      </trkpt>
      <trkpt lat="43.96921" lon="5.14334">
        <ele>472.9</ele>
        <time>2013-03-07T15:36:21Z</time>
      </trkpt>
      <trkpt lat="43.9692" lon="5.14331">
        <ele>472.5</ele>
        <time>2013-03-07T15:36:22Z</time>
      </trkpt>
      <trkpt lat="43.96918" lon="5.14327">
        <ele>472.8</ele>
        <time>2013-03-07T15:36:23Z</time>
      </trkpt>
      <trkpt lat="43.96915" lon="5.14326">
        <ele>473.4</ele>
        <time>2013-03-07T15:36:24Z</time>
      </trkpt>
      <trkpt lat="43.96913" lon="5.14324">
        <ele>472.9</ele>
        <time>2013-03-07T15:36:25Z</time>
      </trkpt>
      <trkpt lat="43.96911" lon="5.14323">
        <ele>471.9</ele>
        <time>2013-03-07T15:36:26Z</time>
      </trkpt>
      <trkpt lat="43.96908" lon="5.1432">
        <ele>471.9</ele>
        <time>2013-03-07T15:36:27Z</time>
      </trkpt>
      <trkpt lat="43.96906" lon="5.14318">
        <ele>471.6</ele>
        <time>2013-03-07T15:36:28Z</time>
      </trkpt>
      <trkpt lat="43.96904" lon="5.14317">
        <ele>470.3</ele>
        <time>2013-03-07T15:36:29Z</time>
      </trkpt>
      <trkpt lat="43.96903" lon="5.14314">
        <ele>470.2</ele>
        <time>2013-03-07T15:36:30Z</time>
      </trkpt>
      <trkpt lat="43.969" lon="5.14312">
        <ele>469.6</ele>
        <time>2013-03-07T15:36:31Z</time>
      </trkpt>
      <trkpt lat="43.96898" lon="5.14309">
        <ele>469.6</ele>
        <time>2013-03-07T15:36:32Z</time>
      </trkpt>
      <trkpt lat="43.96896" lon="5.14307">
        <ele>469.3</ele>
        <time>2013-03-07T15:36:33Z</time>
      </trkpt>
      <trkpt lat="43.96894" lon="5.14305">
        <ele>468.5</ele>
        <time>2013-03-07T15:36:34Z</time>
      </trkpt>
      <trkpt lat="43.96892" lon="5.14303">
        <ele>468.9</ele>
        <time>2013-03-07T15:36:35Z</time>
      </trkpt>
      <trkpt lat="43.9689" lon="5.143">
        <ele>469</ele>
        <time>2013-03-07T15:36:36Z</time>
      </trkpt>
      <trkpt lat="43.96887" lon="5.14298">
        <ele>468.8</ele>
        <time>2013-03-07T15:36:37Z</time>
      </trkpt>
      <trkpt lat="43.96885" lon="5.14296">
        <ele>467.9</ele>
        <time>2013-03-07T15:36:38Z</time>
      </trkpt>
      <trkpt lat="43.96882" lon="5.14294">
        <ele>468.8</ele>
        <time>2013-03-07T15:36:39Z</time>
      </trkpt>
      <trkpt lat="43.9688" lon="5.14292">
        <ele>469</ele>
        <time>2013-03-07T15:36:40Z</time>
      </trkpt>
      <trkpt lat="43.96878" lon="5.14286">
        <ele>471</ele>
        <time>2013-03-07T15:36:42Z</time>
      </trkpt>
      <trkpt lat="43.96877" lon="5.1428">
        <ele>472.5</ele>
        <time>2013-03-07T15:36:44Z</time>
      </trkpt>
      <trkpt lat="43.96875" lon="5.14277">
        <ele>471.2</ele>
        <time>2013-03-07T15:36:45Z</time>
      </trkpt>
      <trkpt lat="43.96873" lon="5.14274">
        <ele>470.7</ele>
        <time>2013-03-07T15:36:46Z</time>
      </trkpt>
      <trkpt lat="43.96872" lon="5.14271">
        <ele>470.5</ele>
        <time>2013-03-07T15:36:47Z</time>
      </trkpt>
      <trkpt lat="43.9687" lon="5.14265">
        <ele>470.9</ele>
        <time>2013-03-07T15:36:49Z</time>
      </trkpt>
      <trkpt lat="43.96868" lon="5.14261">
        <ele>468.7</ele>
        <time>2013-03-07T15:36:50Z</time>
      </trkpt>
      <trkpt lat="43.96866" lon="5.14258">
        <ele>467.4</ele>
        <time>2013-03-07T15:36:51Z</time>
      </trkpt>
      <trkpt lat="43.96865" lon="5.14254">
        <ele>467.8</ele>
        <time>2013-03-07T15:36:52Z</time>
      </trkpt>
      <trkpt lat="43.96863" lon="5.14249">
        <ele>468.2</ele>
        <time>2013-03-07T15:36:54Z</time>
      </trkpt>
      <trkpt lat="43.96861" lon="5.14246">
        <ele>467.5</ele>
        <time>2013-03-07T15:36:55Z</time>
      </trkpt>
      <trkpt lat="43.96859" lon="5.14243">
        <ele>467.3</ele>
        <time>2013-03-07T15:36:56Z</time>
      </trkpt>
      <trkpt lat="43.96857" lon="5.14239">
        <ele>466.6</ele>
        <time>2013-03-07T15:36:57Z</time>
      </trkpt>
      <trkpt lat="43.96855" lon="5.14236">
        <ele>466.7</ele>
        <time>2013-03-07T15:36:58Z</time>
      </trkpt>
      <trkpt lat="43.96855" lon="5.14232">
        <ele>467.2</ele>
        <time>2013-03-07T15:36:59Z</time>
      </trkpt>
      <trkpt lat="43.96853" lon="5.14229">
        <ele>467.1</ele>
        <time>2013-03-07T15:37:00Z</time>
      </trkpt>
      <trkpt lat="43.96852" lon="5.14225">
        <ele>466.9</ele>
        <time>2013-03-07T15:37:01Z</time>
      </trkpt>
      <trkpt lat="43.96851" lon="5.14221">
        <ele>466.9</ele>
        <time>2013-03-07T15:37:02Z</time>
      </trkpt>
      <trkpt lat="43.96849" lon="5.14218">
        <ele>466.5</ele>
        <time>2013-03-07T15:37:03Z</time>
      </trkpt>
      <trkpt lat="43.96846" lon="5.14215">
        <ele>466.4</ele>
        <time>2013-03-07T15:37:04Z</time>
      </trkpt>
      <trkpt lat="43.96845" lon="5.14212">
        <ele>466</ele>
        <time>2013-03-07T15:37:05Z</time>
      </trkpt>
      <trkpt lat="43.96843" lon="5.14209">
        <ele>465.6</ele>
        <time>2013-03-07T15:37:06Z</time>
      </trkpt>
      <trkpt lat="43.96841" lon="5.14206">
        <ele>465.1</ele>
        <time>2013-03-07T15:37:07Z</time>
      </trkpt>
      <trkpt lat="43.9684" lon="5.14202">
        <ele>465</ele>
        <time>2013-03-07T15:37:08Z</time>
      </trkpt>
      <trkpt lat="43.96839" lon="5.14198">
        <ele>465.3</ele>
        <time>2013-03-07T15:37:09Z</time>
      </trkpt>
      <trkpt lat="43.96838" lon="5.14195">
        <ele>465.1</ele>
        <time>2013-03-07T15:37:10Z</time>
      </trkpt>
      <trkpt lat="43.96837" lon="5.14192">
        <ele>464.7</ele>
        <time>2013-03-07T15:37:11Z</time>
      </trkpt>
      <trkpt lat="43.96835" lon="5.14188">
        <ele>465.5</ele>
        <time>2013-03-07T15:37:13Z</time>
      </trkpt>
      <trkpt lat="43.96835" lon="5.14186">
        <ele>465.6</ele>
        <time>2013-03-07T15:37:14Z</time>
      </trkpt>
      <trkpt lat="43.96833" lon="5.14181">
        <ele>466.3</ele>
        <time>2013-03-07T15:37:16Z</time>
      </trkpt>
      <trkpt lat="43.96832" lon="5.14179">
        <ele>466.5</ele>
        <time>2013-03-07T15:37:17Z</time>
      </trkpt>
      <trkpt lat="43.96831" lon="5.14176">
        <ele>466.3</ele>
        <time>2013-03-07T15:37:18Z</time>
      </trkpt>
      <trkpt lat="43.9683" lon="5.14173">
        <ele>466.3</ele>
        <time>2013-03-07T15:37:19Z</time>
      </trkpt>
      <trkpt lat="43.96829" lon="5.1417">
        <ele>466.8</ele>
        <time>2013-03-07T15:37:20Z</time>
      </trkpt>
      <trkpt lat="43.96828" lon="5.14166">
        <ele>466.6</ele>
        <time>2013-03-07T15:37:21Z</time>
      </trkpt>
      <trkpt lat="43.96827" lon="5.14163">
        <ele>466.9</ele>
        <time>2013-03-07T15:37:22Z</time>
      </trkpt>
      <trkpt lat="43.96825" lon="5.14161">
        <ele>466.8</ele>
        <time>2013-03-07T15:37:23Z</time>
      </trkpt>
      <trkpt lat="43.96823" lon="5.14156">
        <ele>466.7</ele>
        <time>2013-03-07T15:37:25Z</time>
      </trkpt>
      <trkpt lat="43.96822" lon="5.14154">
        <ele>466.5</ele>
        <time>2013-03-07T15:37:26Z</time>
      </trkpt>
      <trkpt lat="43.96821" lon="5.14149">
        <ele>467.1</ele>
        <time>2013-03-07T15:37:28Z</time>
      </trkpt>
      <trkpt lat="43.9682" lon="5.14146">
        <ele>466.9</ele>
        <time>2013-03-07T15:37:29Z</time>
      </trkpt>
      <trkpt lat="43.96819" lon="5.14143">
        <ele>467</ele>
        <time>2013-03-07T15:37:30Z</time>
      </trkpt>
      <trkpt lat="43.96817" lon="5.1414">
        <ele>467.5</ele>
        <time>2013-03-07T15:37:31Z</time>
      </trkpt>
      <trkpt lat="43.96815" lon="5.14137">
        <ele>467.7</ele>
        <time>2013-03-07T15:37:32Z</time>
      </trkpt>
      <trkpt lat="43.96814" lon="5.14134">
        <ele>467.9</ele>
        <time>2013-03-07T15:37:33Z</time>
      </trkpt>
      <trkpt lat="43.96812" lon="5.14131">
        <ele>467.9</ele>
        <time>2013-03-07T15:37:34Z</time>
      </trkpt>
      <trkpt lat="43.9681" lon="5.14128">
        <ele>468</ele>
        <time>2013-03-07T15:37:35Z</time>
      </trkpt>
      <trkpt lat="43.96809" lon="5.14124">
        <ele>467.7</ele>
        <time>2013-03-07T15:37:36Z</time>
      </trkpt>
      <trkpt lat="43.96807" lon="5.1412">
        <ele>467.6</ele>
        <time>2013-03-07T15:37:37Z</time>
      </trkpt>
      <trkpt lat="43.96805" lon="5.14116">
        <ele>467.7</ele>
        <time>2013-03-07T15:37:38Z</time>
      </trkpt>
      <trkpt lat="43.96803" lon="5.14113">
        <ele>467.8</ele>
        <time>2013-03-07T15:37:39Z</time>
      </trkpt>
      <trkpt lat="43.96802" lon="5.14109">
        <ele>467.2</ele>
        <time>2013-03-07T15:37:40Z</time>
      </trkpt>
      <trkpt lat="43.968" lon="5.14105">
        <ele>467.1</ele>
        <time>2013-03-07T15:37:41Z</time>
      </trkpt>
      <trkpt lat="43.96799" lon="5.14102">
        <ele>467.1</ele>
        <time>2013-03-07T15:37:42Z</time>
      </trkpt>
      <trkpt lat="43.96798" lon="5.14098">
        <ele>466.8</ele>
        <time>2013-03-07T15:37:43Z</time>
      </trkpt>
      <trkpt lat="43.96796" lon="5.14094">
        <ele>467.4</ele>
        <time>2013-03-07T15:37:44Z</time>
      </trkpt>
      <trkpt lat="43.96795" lon="5.1409">
        <ele>466.9</ele>
        <time>2013-03-07T15:37:45Z</time>
      </trkpt>
      <trkpt lat="43.96794" lon="5.14085">
        <ele>466.7</ele>
        <time>2013-03-07T15:37:46Z</time>
      </trkpt>
      <trkpt lat="43.96793" lon="5.14081">
        <ele>466.6</ele>
        <time>2013-03-07T15:37:47Z</time>
      </trkpt>
      <trkpt lat="43.96792" lon="5.14077">
        <ele>466.6</ele>
        <time>2013-03-07T15:37:48Z</time>
      </trkpt>
      <trkpt lat="43.96793" lon="5.14073">
        <ele>466.2</ele>
        <time>2013-03-07T15:37:49Z</time>
      </trkpt>
      <trkpt lat="43.96792" lon="5.14069">
        <ele>466</ele>
        <time>2013-03-07T15:37:50Z</time>
      </trkpt>
      <trkpt lat="43.96792" lon="5.14065">
        <ele>466.3</ele>
        <time>2013-03-07T15:37:51Z</time>
      </trkpt>
      <trkpt lat="43.96792" lon="5.14061">
        <ele>466.8</ele>
        <time>2013-03-07T15:37:52Z</time>
      </trkpt>
      <trkpt lat="43.96793" lon="5.14058">
        <ele>466.8</ele>
        <time>2013-03-07T15:37:53Z</time>
      </trkpt>
      <trkpt lat="43.96794" lon="5.14054">
        <ele>467</ele>
        <time>2013-03-07T15:37:54Z</time>
      </trkpt>
      <trkpt lat="43.96795" lon="5.1405">
        <ele>466.3</ele>
        <time>2013-03-07T15:37:55Z</time>
      </trkpt>
      <trkpt lat="43.96796" lon="5.14047">
        <ele>466.2</ele>
        <time>2013-03-07T15:37:56Z</time>
      </trkpt>
      <trkpt lat="43.96797" lon="5.14043">
        <ele>465.9</ele>
        <time>2013-03-07T15:37:57Z</time>
      </trkpt>
      <trkpt lat="43.96799" lon="5.14039">
        <ele>466.5</ele>
        <time>2013-03-07T15:37:58Z</time>
      </trkpt>
      <trkpt lat="43.968" lon="5.14036">
        <ele>466.8</ele>
        <time>2013-03-07T15:37:59Z</time>
      </trkpt>
      <trkpt lat="43.96802" lon="5.14033">
        <ele>467.2</ele>
        <time>2013-03-07T15:38:00Z</time>
      </trkpt>
      <trkpt lat="43.96803" lon="5.14029">
        <ele>467.4</ele>
        <time>2013-03-07T15:38:01Z</time>
      </trkpt>
      <trkpt lat="43.96804" lon="5.14026">
        <ele>467.2</ele>
        <time>2013-03-07T15:38:02Z</time>
      </trkpt>
      <trkpt lat="43.96805" lon="5.14022">
        <ele>467.5</ele>
        <time>2013-03-07T15:38:03Z</time>
      </trkpt>
      <trkpt lat="43.96806" lon="5.14019">
        <ele>467.8</ele>
        <time>2013-03-07T15:38:04Z</time>
      </trkpt>
      <trkpt lat="43.96809" lon="5.14015">
        <ele>467.7</ele>
        <time>2013-03-07T15:38:05Z</time>
      </trkpt>
      <trkpt lat="43.9681" lon="5.14013">
        <ele>468</ele>
        <time>2013-03-07T15:38:06Z</time>
      </trkpt>
      <trkpt lat="43.96812" lon="5.14009">
        <ele>468.1</ele>
        <time>2013-03-07T15:38:07Z</time>
      </trkpt>
      <trkpt lat="43.96813" lon="5.14006">
        <ele>467.8</ele>
        <time>2013-03-07T15:38:08Z</time>
      </trkpt>
      <trkpt lat="43.96814" lon="5.14003">
        <ele>468</ele>
        <time>2013-03-07T15:38:09Z</time>
      </trkpt>
      <trkpt lat="43.96816" lon="5.14">
        <ele>468.1</ele>
        <time>2013-03-07T15:38:10Z</time>
      </trkpt>
      <trkpt lat="43.96818" lon="5.13997">
        <ele>468.1</ele>
        <time>2013-03-07T15:38:11Z</time>
      </trkpt>
      <trkpt lat="43.96819" lon="5.13993">
        <ele>468.3</ele>
        <time>2013-03-07T15:38:12Z</time>
      </trkpt>
      <trkpt lat="43.96822" lon="5.13991">
        <ele>468.8</ele>
        <time>2013-03-07T15:38:13Z</time>
      </trkpt>
      <trkpt lat="43.96824" lon="5.13988">
        <ele>468.6</ele>
        <time>2013-03-07T15:38:14Z</time>
      </trkpt>
      <trkpt lat="43.96826" lon="5.13985">
        <ele>468.7</ele>
        <time>2013-03-07T15:38:15Z</time>
      </trkpt>
      <trkpt lat="43.96828" lon="5.13982">
        <ele>469</ele>
        <time>2013-03-07T15:38:16Z</time>
      </trkpt>
      <trkpt lat="43.9683" lon="5.13979">
        <ele>469.6</ele>
        <time>2013-03-07T15:38:17Z</time>
      </trkpt>
      <trkpt lat="43.96834" lon="5.13976">
        <ele>469.9</ele>
        <time>2013-03-07T15:38:18Z</time>
      </trkpt>
      <trkpt lat="43.96836" lon="5.13973">
        <ele>469.5</ele>
        <time>2013-03-07T15:38:19Z</time>
      </trkpt>
      <trkpt lat="43.96838" lon="5.13969">
        <ele>469.6</ele>
        <time>2013-03-07T15:38:20Z</time>
      </trkpt>
      <trkpt lat="43.96841" lon="5.13966">
        <ele>470.3</ele>
        <time>2013-03-07T15:38:21Z</time>
      </trkpt>
      <trkpt lat="43.96842" lon="5.13964">
        <ele>470.2</ele>
        <time>2013-03-07T15:38:22Z</time>
      </trkpt>
      <trkpt lat="43.96845" lon="5.13961">
        <ele>470.3</ele>
        <time>2013-03-07T15:38:23Z</time>
      </trkpt>
      <trkpt lat="43.96847" lon="5.13959">
        <ele>470.1</ele>
        <time>2013-03-07T15:38:24Z</time>
      </trkpt>
      <trkpt lat="43.9685" lon="5.13958">
        <ele>470.2</ele>
        <time>2013-03-07T15:38:25Z</time>
      </trkpt>
      <trkpt lat="43.96853" lon="5.13956">
        <ele>470.1</ele>
        <time>2013-03-07T15:38:26Z</time>
      </trkpt>
      <trkpt lat="43.96856" lon="5.13954">
        <ele>469.7</ele>
        <time>2013-03-07T15:38:27Z</time>
      </trkpt>
      <trkpt lat="43.96859" lon="5.13953">
        <ele>469.8</ele>
        <time>2013-03-07T15:38:28Z</time>
      </trkpt>
      <trkpt lat="43.96861" lon="5.13952">
        <ele>469.5</ele>
        <time>2013-03-07T15:38:29Z</time>
      </trkpt>
      <trkpt lat="43.96863" lon="5.1395">
        <ele>469.3</ele>
        <time>2013-03-07T15:38:30Z</time>
      </trkpt>
      <trkpt lat="43.96866" lon="5.13949">
        <ele>469.2</ele>
        <time>2013-03-07T15:38:31Z</time>
      </trkpt>
      <trkpt lat="43.96868" lon="5.13948">
        <ele>469.1</ele>
        <time>2013-03-07T15:38:32Z</time>
      </trkpt>
      <trkpt lat="43.96871" lon="5.13947">
        <ele>469.1</ele>
        <time>2013-03-07T15:38:33Z</time>
      </trkpt>
      <trkpt lat="43.96873" lon="5.13946">
        <ele>468.9</ele>
        <time>2013-03-07T15:38:34Z</time>
      </trkpt>
      <trkpt lat="43.96875" lon="5.13945">
        <ele>468.8</ele>
        <time>2013-03-07T15:38:35Z</time>
      </trkpt>
      <trkpt lat="43.96878" lon="5.13943">
        <ele>469.1</ele>
        <time>2013-03-07T15:38:36Z</time>
      </trkpt>
      <trkpt lat="43.9688" lon="5.13942">
        <ele>469.3</ele>
        <time>2013-03-07T15:38:37Z</time>
      </trkpt>
      <trkpt lat="43.96882" lon="5.13941">
        <ele>469.9</ele>
        <time>2013-03-07T15:38:38Z</time>
      </trkpt>
      <trkpt lat="43.96884" lon="5.13939">
        <ele>470</ele>
        <time>2013-03-07T15:38:39Z</time>
      </trkpt>
      <trkpt lat="43.96886" lon="5.13937">
        <ele>470.1</ele>
        <time>2013-03-07T15:38:40Z</time>
      </trkpt>
      <trkpt lat="43.96891" lon="5.13934">
        <ele>469.5</ele>
        <time>2013-03-07T15:38:42Z</time>
      </trkpt>
      <trkpt lat="43.96893" lon="5.13933">
        <ele>469.2</ele>
        <time>2013-03-07T15:38:43Z</time>
      </trkpt>
      <trkpt lat="43.96896" lon="5.13933">
        <ele>469.6</ele>
        <time>2013-03-07T15:38:44Z</time>
      </trkpt>
      <trkpt lat="43.969" lon="5.13931">
        <ele>469.7</ele>
        <time>2013-03-07T15:38:45Z</time>
      </trkpt>
      <trkpt lat="43.96903" lon="5.1393">
        <ele>470.1</ele>
        <time>2013-03-07T15:38:46Z</time>
      </trkpt>
      <trkpt lat="43.96907" lon="5.13929">
        <ele>470.4</ele>
        <time>2013-03-07T15:38:47Z</time>
      </trkpt>
      <trkpt lat="43.96912" lon="5.13926">
        <ele>469.2</ele>
        <time>2013-03-07T15:38:48Z</time>
      </trkpt>
      <trkpt lat="43.96916" lon="5.13925">
        <ele>469.3</ele>
        <time>2013-03-07T15:38:49Z</time>
      </trkpt>
      <trkpt lat="43.9692" lon="5.13922">
        <ele>469.1</ele>
        <time>2013-03-07T15:38:50Z</time>
      </trkpt>
      <trkpt lat="43.96924" lon="5.13919">
        <ele>468.9</ele>
        <time>2013-03-07T15:38:51Z</time>
      </trkpt>
      <trkpt lat="43.96928" lon="5.13915">
        <ele>468.4</ele>
        <time>2013-03-07T15:38:52Z</time>
      </trkpt>
      <trkpt lat="43.9693" lon="5.13911">
        <ele>468.2</ele>
        <time>2013-03-07T15:38:54Z</time>
      </trkpt>
      <trkpt lat="43.9693" lon="5.13909">
        <ele>467.6</ele>
        <time>2013-03-07T15:38:55Z</time>
      </trkpt>
      <trkpt lat="43.96932" lon="5.13905">
        <ele>469</ele>
        <time>2013-03-07T15:39:34Z</time>
      </trkpt>
      <trkpt lat="43.96933" lon="5.13903">
        <ele>469.3</ele>
        <time>2013-03-07T15:39:35Z</time>
      </trkpt>
      <trkpt lat="43.96934" lon="5.13901">
        <ele>468.5</ele>
        <time>2013-03-07T15:39:36Z</time>
      </trkpt>
      <trkpt lat="43.96936" lon="5.139">
        <ele>468</ele>
        <time>2013-03-07T15:39:37Z</time>
      </trkpt>
      <trkpt lat="43.9694" lon="5.13901">
        <ele>469.2</ele>
        <time>2013-03-07T15:39:38Z</time>
      </trkpt>
      <trkpt lat="43.96943" lon="5.139">
        <ele>469.1</ele>
        <time>2013-03-07T15:39:39Z</time>
      </trkpt>
      <trkpt lat="43.96945" lon="5.13899">
        <ele>468.7</ele>
        <time>2013-03-07T15:39:40Z</time>
      </trkpt>
      <trkpt lat="43.96948" lon="5.13898">
        <ele>468.7</ele>
        <time>2013-03-07T15:39:41Z</time>
      </trkpt>
      <trkpt lat="43.9695" lon="5.13897">
        <ele>468.2</ele>
        <time>2013-03-07T15:39:42Z</time>
      </trkpt>
      <trkpt lat="43.96953" lon="5.13895">
        <ele>467.6</ele>
        <time>2013-03-07T15:39:43Z</time>
      </trkpt>
      <trkpt lat="43.96954" lon="5.13892">
        <ele>467.2</ele>
        <time>2013-03-07T15:39:44Z</time>
      </trkpt>
      <trkpt lat="43.96956" lon="5.13888">
        <ele>466.8</ele>
        <time>2013-03-07T15:39:45Z</time>
      </trkpt>
      <trkpt lat="43.96962" lon="5.1389">
        <ele>467.3</ele>
        <time>2013-03-07T15:39:46Z</time>
      </trkpt>
      <trkpt lat="43.96964" lon="5.13888">
        <ele>466.7</ele>
        <time>2013-03-07T15:39:47Z</time>
      </trkpt>
      <trkpt lat="43.96967" lon="5.13886">
        <ele>465.6</ele>
        <time>2013-03-07T15:39:48Z</time>
      </trkpt>
      <trkpt lat="43.96971" lon="5.13884">
        <ele>463.4</ele>
        <time>2013-03-07T15:39:49Z</time>
      </trkpt>
      <trkpt lat="43.96974" lon="5.1388">
        <ele>461.2</ele>
        <time>2013-03-07T15:39:50Z</time>
      </trkpt>
      <trkpt lat="43.96978" lon="5.13878">
        <ele>461.4</ele>
        <time>2013-03-07T15:39:51Z</time>
      </trkpt>
      <trkpt lat="43.96982" lon="5.13876">
        <ele>461.2</ele>
        <time>2013-03-07T15:39:52Z</time>
      </trkpt>
      <trkpt lat="43.96987" lon="5.13875">
        <ele>461.2</ele>
        <time>2013-03-07T15:39:53Z</time>
      </trkpt>
      <trkpt lat="43.9699" lon="5.13874">
        <ele>461.6</ele>
        <time>2013-03-07T15:39:54Z</time>
      </trkpt>
      <trkpt lat="43.96994" lon="5.13873">
        <ele>462.2</ele>
        <time>2013-03-07T15:39:55Z</time>
      </trkpt>
      <trkpt lat="43.96998" lon="5.13874">
        <ele>462.6</ele>
        <time>2013-03-07T15:39:56Z</time>
      </trkpt>
      <trkpt lat="43.97004" lon="5.13871">
        <ele>460.3</ele>
        <time>2013-03-07T15:39:57Z</time>
      </trkpt>
      <trkpt lat="43.97008" lon="5.13869">
        <ele>460.3</ele>
        <time>2013-03-07T15:39:58Z</time>
      </trkpt>
      <trkpt lat="43.97012" lon="5.13868">
        <ele>460.7</ele>
        <time>2013-03-07T15:39:59Z</time>
      </trkpt>
      <trkpt lat="43.97016" lon="5.13866">
        <ele>460.4</ele>
        <time>2013-03-07T15:40:00Z</time>
      </trkpt>
      <trkpt lat="43.97021" lon="5.13864">
        <ele>460.6</ele>
        <time>2013-03-07T15:40:01Z</time>
      </trkpt>
      <trkpt lat="43.97025" lon="5.13863">
        <ele>460</ele>
        <time>2013-03-07T15:40:02Z</time>
      </trkpt>
      <trkpt lat="43.97029" lon="5.13862">
        <ele>459.8</ele>
        <time>2013-03-07T15:40:03Z</time>
      </trkpt>
      <trkpt lat="43.97033" lon="5.1386">
        <ele>460.1</ele>
        <time>2013-03-07T15:40:04Z</time>
      </trkpt>
      <trkpt lat="43.97038" lon="5.13859">
        <ele>460.5</ele>
        <time>2013-03-07T15:40:05Z</time>
      </trkpt>
      <trkpt lat="43.97043" lon="5.13858">
        <ele>460.5</ele>
        <time>2013-03-07T15:40:06Z</time>
      </trkpt>
      <trkpt lat="43.97048" lon="5.13856">
        <ele>460.1</ele>
        <time>2013-03-07T15:40:07Z</time>
      </trkpt>
      <trkpt lat="43.97051" lon="5.13854">
        <ele>460.1</ele>
        <time>2013-03-07T15:40:08Z</time>
      </trkpt>
      <trkpt lat="43.97055" lon="5.13852">
        <ele>460.2</ele>
        <time>2013-03-07T15:40:09Z</time>
      </trkpt>
      <trkpt lat="43.97059" lon="5.13852">
        <ele>459.2</ele>
        <time>2013-03-07T15:40:10Z</time>
      </trkpt>
      <trkpt lat="43.97063" lon="5.1385">
        <ele>458.3</ele>
        <time>2013-03-07T15:40:11Z</time>
      </trkpt>
      <trkpt lat="43.97066" lon="5.13852">
        <ele>457.9</ele>
        <time>2013-03-07T15:40:12Z</time>
      </trkpt>
      <trkpt lat="43.97071" lon="5.13853">
        <ele>457.8</ele>
        <time>2013-03-07T15:40:13Z</time>
      </trkpt>
      <trkpt lat="43.97075" lon="5.13854">
        <ele>457.5</ele>
        <time>2013-03-07T15:40:14Z</time>
      </trkpt>
      <trkpt lat="43.97079" lon="5.13857">
        <ele>457.3</ele>
        <time>2013-03-07T15:40:15Z</time>
      </trkpt>
      <trkpt lat="43.97083" lon="5.13859">
        <ele>456.7</ele>
        <time>2013-03-07T15:40:16Z</time>
      </trkpt>
      <trkpt lat="43.97087" lon="5.13861">
        <ele>455.8</ele>
        <time>2013-03-07T15:40:17Z</time>
      </trkpt>
      <trkpt lat="43.9709" lon="5.13865">
        <ele>455.6</ele>
        <time>2013-03-07T15:40:18Z</time>
      </trkpt>
      <trkpt lat="43.97093" lon="5.13865">
        <ele>455.3</ele>
        <time>2013-03-07T15:40:19Z</time>
      </trkpt>
      <trkpt lat="43.97096" lon="5.13865">
        <ele>454.8</ele>
        <time>2013-03-07T15:40:20Z</time>
      </trkpt>
      <trkpt lat="43.97099" lon="5.13864">
        <ele>454.5</ele>
        <time>2013-03-07T15:40:21Z</time>
      </trkpt>
      <trkpt lat="43.97103" lon="5.13863">
        <ele>454</ele>
        <time>2013-03-07T15:40:22Z</time>
      </trkpt>
      <trkpt lat="43.97106" lon="5.13861">
        <ele>453.7</ele>
        <time>2013-03-07T15:40:23Z</time>
      </trkpt>
      <trkpt lat="43.97109" lon="5.1386">
        <ele>454.4</ele>
        <time>2013-03-07T15:40:24Z</time>
      </trkpt>
      <trkpt lat="43.97114" lon="5.13862">
        <ele>452.4</ele>
        <time>2013-03-07T15:40:25Z</time>
      </trkpt>
      <trkpt lat="43.97119" lon="5.13862">
        <ele>452.1</ele>
        <time>2013-03-07T15:40:26Z</time>
      </trkpt>
      <trkpt lat="43.97122" lon="5.13862">
        <ele>451.2</ele>
        <time>2013-03-07T15:40:27Z</time>
      </trkpt>
      <trkpt lat="43.97123" lon="5.13871">
        <ele>451</ele>
        <time>2013-03-07T15:40:28Z</time>
      </trkpt>
      <trkpt lat="43.97125" lon="5.13875">
        <ele>450.4</ele>
        <time>2013-03-07T15:40:29Z</time>
      </trkpt>
      <trkpt lat="43.97128" lon="5.13879">
        <ele>451</ele>
        <time>2013-03-07T15:40:30Z</time>
      </trkpt>
      <trkpt lat="43.9713" lon="5.13883">
        <ele>450.6</ele>
        <time>2013-03-07T15:40:31Z</time>
      </trkpt>
      <trkpt lat="43.97133" lon="5.13886">
        <ele>450.2</ele>
        <time>2013-03-07T15:40:32Z</time>
      </trkpt>
      <trkpt lat="43.97135" lon="5.1389">
        <ele>449</ele>
        <time>2013-03-07T15:40:33Z</time>
      </trkpt>
      <trkpt lat="43.97137" lon="5.13893">
        <ele>448.7</ele>
        <time>2013-03-07T15:40:34Z</time>
      </trkpt>
      <trkpt lat="43.97139" lon="5.13896">
        <ele>447.8</ele>
        <time>2013-03-07T15:40:35Z</time>
      </trkpt>
      <trkpt lat="43.97141" lon="5.13898">
        <ele>446.9</ele>
        <time>2013-03-07T15:40:36Z</time>
      </trkpt>
      <trkpt lat="43.97142" lon="5.13901">
        <ele>447.7</ele>
        <time>2013-03-07T15:40:37Z</time>
      </trkpt>
      <trkpt lat="43.97144" lon="5.13902">
        <ele>448.4</ele>
        <time>2013-03-07T15:40:38Z</time>
      </trkpt>
      <trkpt lat="43.97148" lon="5.13903">
        <ele>448.7</ele>
        <time>2013-03-07T15:40:40Z</time>
      </trkpt>
      <trkpt lat="43.9715" lon="5.13902">
        <ele>449</ele>
        <time>2013-03-07T15:40:41Z</time>
      </trkpt>
      <trkpt lat="43.97152" lon="5.139">
        <ele>448.2</ele>
        <time>2013-03-07T15:40:42Z</time>
      </trkpt>
      <trkpt lat="43.97155" lon="5.13897">
        <ele>448</ele>
        <time>2013-03-07T15:40:43Z</time>
      </trkpt>
      <trkpt lat="43.97158" lon="5.13893">
        <ele>447.7</ele>
        <time>2013-03-07T15:40:44Z</time>
      </trkpt>
      <trkpt lat="43.97161" lon="5.13889">
        <ele>447.3</ele>
        <time>2013-03-07T15:40:45Z</time>
      </trkpt>
      <trkpt lat="43.97164" lon="5.13886">
        <ele>447.1</ele>
        <time>2013-03-07T15:40:46Z</time>
      </trkpt>
      <trkpt lat="43.97167" lon="5.13882">
        <ele>446.5</ele>
        <time>2013-03-07T15:40:47Z</time>
      </trkpt>
      <trkpt lat="43.97169" lon="5.13879">
        <ele>446.6</ele>
        <time>2013-03-07T15:40:48Z</time>
      </trkpt>
      <trkpt lat="43.97171" lon="5.13875">
        <ele>445.7</ele>
        <time>2013-03-07T15:40:49Z</time>
      </trkpt>
      <trkpt lat="43.97172" lon="5.1387">
        <ele>445.9</ele>
        <time>2013-03-07T15:40:50Z</time>
      </trkpt>
      <trkpt lat="43.97172" lon="5.13866">
        <ele>446.1</ele>
        <time>2013-03-07T15:40:51Z</time>
      </trkpt>
      <trkpt lat="43.9717" lon="5.13862">
        <ele>445.7</ele>
        <time>2013-03-07T15:40:52Z</time>
      </trkpt>
      <trkpt lat="43.97169" lon="5.13858">
        <ele>445.8</ele>
        <time>2013-03-07T15:40:53Z</time>
      </trkpt>
      <trkpt lat="43.97166" lon="5.13855">
        <ele>446.1</ele>
        <time>2013-03-07T15:40:54Z</time>
      </trkpt>
      <trkpt lat="43.97164" lon="5.13852">
        <ele>446.6</ele>
        <time>2013-03-07T15:40:55Z</time>
      </trkpt>
      <trkpt lat="43.97162" lon="5.13849">
        <ele>447.6</ele>
        <time>2013-03-07T15:40:56Z</time>
      </trkpt>
      <trkpt lat="43.97161" lon="5.13845">
        <ele>449.3</ele>
        <time>2013-03-07T15:40:57Z</time>
      </trkpt>
      <trkpt lat="43.97159" lon="5.13841">
        <ele>451</ele>
        <time>2013-03-07T15:40:58Z</time>
      </trkpt>
      <trkpt lat="43.97156" lon="5.13839">
        <ele>450.6</ele>
        <time>2013-03-07T15:40:59Z</time>
      </trkpt>
      <trkpt lat="43.97153" lon="5.13836">
        <ele>450.3</ele>
        <time>2013-03-07T15:41:00Z</time>
      </trkpt>
      <trkpt lat="43.97151" lon="5.13833">
        <ele>450.3</ele>
        <time>2013-03-07T15:41:01Z</time>
      </trkpt>
      <trkpt lat="43.9715" lon="5.13829">
        <ele>450.3</ele>
        <time>2013-03-07T15:41:02Z</time>
      </trkpt>
      <trkpt lat="43.97149" lon="5.13826">
        <ele>449.9</ele>
        <time>2013-03-07T15:41:03Z</time>
      </trkpt>
      <trkpt lat="43.97147" lon="5.13822">
        <ele>449.9</ele>
        <time>2013-03-07T15:41:04Z</time>
      </trkpt>
      <trkpt lat="43.97144" lon="5.13819">
        <ele>450</ele>
        <time>2013-03-07T15:41:05Z</time>
      </trkpt>
      <trkpt lat="43.97142" lon="5.13815">
        <ele>450</ele>
        <time>2013-03-07T15:41:06Z</time>
      </trkpt>
      <trkpt lat="43.9714" lon="5.13812">
        <ele>449.7</ele>
        <time>2013-03-07T15:41:07Z</time>
      </trkpt>
      <trkpt lat="43.97139" lon="5.13809">
        <ele>449.4</ele>
        <time>2013-03-07T15:41:08Z</time>
      </trkpt>
      <trkpt lat="43.97137" lon="5.13805">
        <ele>449.4</ele>
        <time>2013-03-07T15:41:09Z</time>
      </trkpt>
      <trkpt lat="43.97135" lon="5.13801">
        <ele>450</ele>
        <time>2013-03-07T15:41:10Z</time>
      </trkpt>
      <trkpt lat="43.97134" lon="5.13798">
        <ele>450</ele>
        <time>2013-03-07T15:41:11Z</time>
      </trkpt>
      <trkpt lat="43.97132" lon="5.13795">
        <ele>450.1</ele>
        <time>2013-03-07T15:41:12Z</time>
      </trkpt>
      <trkpt lat="43.9713" lon="5.13793">
        <ele>450.5</ele>
        <time>2013-03-07T15:41:13Z</time>
      </trkpt>
      <trkpt lat="43.97129" lon="5.1379">
        <ele>451</ele>
        <time>2013-03-07T15:41:14Z</time>
      </trkpt>
      <trkpt lat="43.97127" lon="5.13787">
        <ele>451.1</ele>
        <time>2013-03-07T15:41:15Z</time>
      </trkpt>
      <trkpt lat="43.97126" lon="5.13783">
        <ele>450.3</ele>
        <time>2013-03-07T15:41:16Z</time>
      </trkpt>
      <trkpt lat="43.97125" lon="5.1378">
        <ele>449.9</ele>
        <time>2013-03-07T15:41:17Z</time>
      </trkpt>
      <trkpt lat="43.97124" lon="5.13776">
        <ele>449.7</ele>
        <time>2013-03-07T15:41:18Z</time>
      </trkpt>
      <trkpt lat="43.97123" lon="5.13773">
        <ele>449.5</ele>
        <time>2013-03-07T15:41:19Z</time>
      </trkpt>
      <trkpt lat="43.97123" lon="5.1377">
        <ele>449.2</ele>
        <time>2013-03-07T15:41:20Z</time>
      </trkpt>
      <trkpt lat="43.97126" lon="5.13768">
        <ele>447.5</ele>
        <time>2013-03-07T15:41:21Z</time>
      </trkpt>
      <trkpt lat="43.97128" lon="5.13764">
        <ele>445.8</ele>
        <time>2013-03-07T15:41:23Z</time>
      </trkpt>
      <trkpt lat="43.9713" lon="5.13763">
        <ele>445</ele>
        <time>2013-03-07T15:41:24Z</time>
      </trkpt>
      <trkpt lat="43.97126" lon="5.13759">
        <ele>445.3</ele>
        <time>2013-03-07T15:41:26Z</time>
      </trkpt>
      <trkpt lat="43.97125" lon="5.13758">
        <ele>445.2</ele>
        <time>2013-03-07T15:41:27Z</time>
      </trkpt>
      <trkpt lat="43.97123" lon="5.13757">
        <ele>445.2</ele>
        <time>2013-03-07T15:41:28Z</time>
      </trkpt>
      <trkpt lat="43.9712" lon="5.1376">
        <ele>444.8</ele>
        <time>2013-03-07T15:41:29Z</time>
      </trkpt>
      <trkpt lat="43.97118" lon="5.13761">
        <ele>444.5</ele>
        <time>2013-03-07T15:41:30Z</time>
      </trkpt>
      <trkpt lat="43.97115" lon="5.13761">
        <ele>444.2</ele>
        <time>2013-03-07T15:41:31Z</time>
      </trkpt>
      <trkpt lat="43.97113" lon="5.13765">
        <ele>443.3</ele>
        <time>2013-03-07T15:41:32Z</time>
      </trkpt>
      <trkpt lat="43.9711" lon="5.13767">
        <ele>442.9</ele>
        <time>2013-03-07T15:41:33Z</time>
      </trkpt>
      <trkpt lat="43.97107" lon="5.13768">
        <ele>443.1</ele>
        <time>2013-03-07T15:41:34Z</time>
      </trkpt>
      <trkpt lat="43.97104" lon="5.1377">
        <ele>441.9</ele>
        <time>2013-03-07T15:41:35Z</time>
      </trkpt>
      <trkpt lat="43.97101" lon="5.1377">
        <ele>441.5</ele>
        <time>2013-03-07T15:41:36Z</time>
      </trkpt>
      <trkpt lat="43.97099" lon="5.13772">
        <ele>441.4</ele>
        <time>2013-03-07T15:41:37Z</time>
      </trkpt>
      <trkpt lat="43.97096" lon="5.13773">
        <ele>440.4</ele>
        <time>2013-03-07T15:41:38Z</time>
      </trkpt>
      <trkpt lat="43.97094" lon="5.13775">
        <ele>438.6</ele>
        <time>2013-03-07T15:41:39Z</time>
      </trkpt>
      <trkpt lat="43.9709" lon="5.13774">
        <ele>440.5</ele>
        <time>2013-03-07T15:41:40Z</time>
      </trkpt>
      <trkpt lat="43.97087" lon="5.13776">
        <ele>440.1</ele>
        <time>2013-03-07T15:41:41Z</time>
      </trkpt>
      <trkpt lat="43.97084" lon="5.13778">
        <ele>440.2</ele>
        <time>2013-03-07T15:41:42Z</time>
      </trkpt>
      <trkpt lat="43.97082" lon="5.13779">
        <ele>439.8</ele>
        <time>2013-03-07T15:41:43Z</time>
      </trkpt>
      <trkpt lat="43.97078" lon="5.13781">
        <ele>440</ele>
        <time>2013-03-07T15:41:44Z</time>
      </trkpt>
      <trkpt lat="43.97076" lon="5.13782">
        <ele>440.3</ele>
        <time>2013-03-07T15:41:45Z</time>
      </trkpt>
      <trkpt lat="43.97073" lon="5.13783">
        <ele>440.4</ele>
        <time>2013-03-07T15:41:46Z</time>
      </trkpt>
      <trkpt lat="43.9707" lon="5.13784">
        <ele>440.6</ele>
        <time>2013-03-07T15:41:47Z</time>
      </trkpt>
      <trkpt lat="43.97067" lon="5.13785">
        <ele>440.8</ele>
        <time>2013-03-07T15:41:48Z</time>
      </trkpt>
      <trkpt lat="43.97064" lon="5.13785">
        <ele>441</ele>
        <time>2013-03-07T15:41:49Z</time>
      </trkpt>
      <trkpt lat="43.97061" lon="5.13788">
        <ele>441</ele>
        <time>2013-03-07T15:41:50Z</time>
      </trkpt>
      <trkpt lat="43.97059" lon="5.13788">
        <ele>441.2</ele>
        <time>2013-03-07T15:41:51Z</time>
      </trkpt>
      <trkpt lat="43.97056" lon="5.13788">
        <ele>440.7</ele>
        <time>2013-03-07T15:41:52Z</time>
      </trkpt>
      <trkpt lat="43.97053" lon="5.13787">
        <ele>440.5</ele>
        <time>2013-03-07T15:41:53Z</time>
      </trkpt>
      <trkpt lat="43.9705" lon="5.13788">
        <ele>440.2</ele>
        <time>2013-03-07T15:41:54Z</time>
      </trkpt>
      <trkpt lat="43.97047" lon="5.13788">
        <ele>440.4</ele>
        <time>2013-03-07T15:41:55Z</time>
      </trkpt>
      <trkpt lat="43.97044" lon="5.13786">
        <ele>440</ele>
        <time>2013-03-07T15:41:56Z</time>
      </trkpt>
      <trkpt lat="43.97042" lon="5.13785">
        <ele>439.3</ele>
        <time>2013-03-07T15:41:57Z</time>
      </trkpt>
      <trkpt lat="43.97038" lon="5.13784">
        <ele>439.1</ele>
        <time>2013-03-07T15:41:58Z</time>
      </trkpt>
      <trkpt lat="43.97035" lon="5.13782">
        <ele>439.3</ele>
        <time>2013-03-07T15:41:59Z</time>
      </trkpt>
      <trkpt lat="43.97032" lon="5.13779">
        <ele>438.3</ele>
        <time>2013-03-07T15:42:03Z</time>
      </trkpt>
      <trkpt lat="43.97029" lon="5.13777">
        <ele>437.1</ele>
        <time>2013-03-07T15:42:04Z</time>
      </trkpt>
      <trkpt lat="43.97026" lon="5.13775">
        <ele>436.9</ele>
        <time>2013-03-07T15:42:05Z</time>
      </trkpt>
      <trkpt lat="43.97023" lon="5.13776">
        <ele>436.8</ele>
        <time>2013-03-07T15:42:06Z</time>
      </trkpt>
      <trkpt lat="43.9702" lon="5.13777">
        <ele>437</ele>
        <time>2013-03-07T15:42:07Z</time>
      </trkpt>
      <trkpt lat="43.97017" lon="5.1378">
        <ele>437.4</ele>
        <time>2013-03-07T15:42:08Z</time>
      </trkpt>
      <trkpt lat="43.97014" lon="5.13782">
        <ele>437.3</ele>
        <time>2013-03-07T15:42:09Z</time>
      </trkpt>
      <trkpt lat="43.97011" lon="5.13783">
        <ele>437.5</ele>
        <time>2013-03-07T15:42:10Z</time>
      </trkpt>
      <trkpt lat="43.97008" lon="5.13785">
        <ele>436.8</ele>
        <time>2013-03-07T15:42:11Z</time>
      </trkpt>
      <trkpt lat="43.97005" lon="5.13786">
        <ele>436.8</ele>
        <time>2013-03-07T15:42:12Z</time>
      </trkpt>
      <trkpt lat="43.97" lon="5.13788">
        <ele>436.4</ele>
        <time>2013-03-07T15:42:13Z</time>
      </trkpt>
      <trkpt lat="43.96996" lon="5.13791">
        <ele>436.4</ele>
        <time>2013-03-07T15:42:14Z</time>
      </trkpt>
      <trkpt lat="43.96992" lon="5.13794">
        <ele>436.5</ele>
        <time>2013-03-07T15:42:15Z</time>
      </trkpt>
      <trkpt lat="43.96987" lon="5.13796">
        <ele>436.7</ele>
        <time>2013-03-07T15:42:16Z</time>
      </trkpt>
      <trkpt lat="43.96984" lon="5.13798">
        <ele>437.1</ele>
        <time>2013-03-07T15:42:17Z</time>
      </trkpt>
      <trkpt lat="43.96981" lon="5.138">
        <ele>437.2</ele>
        <time>2013-03-07T15:42:18Z</time>
      </trkpt>
      <trkpt lat="43.96977" lon="5.13802">
        <ele>437.2</ele>
        <time>2013-03-07T15:42:19Z</time>
      </trkpt>
      <trkpt lat="43.96974" lon="5.13803">
        <ele>437.2</ele>
        <time>2013-03-07T15:42:20Z</time>
      </trkpt>
      <trkpt lat="43.96971" lon="5.13806">
        <ele>438.4</ele>
        <time>2013-03-07T15:42:21Z</time>
      </trkpt>
      <trkpt lat="43.96968" lon="5.13808">
        <ele>438.9</ele>
        <time>2013-03-07T15:42:22Z</time>
      </trkpt>
      <trkpt lat="43.96965" lon="5.13809">
        <ele>439.5</ele>
        <time>2013-03-07T15:42:23Z</time>
      </trkpt>
      <trkpt lat="43.96962" lon="5.13811">
        <ele>439.7</ele>
        <time>2013-03-07T15:42:24Z</time>
      </trkpt>
      <trkpt lat="43.9696" lon="5.1381">
        <ele>439.9</ele>
        <time>2013-03-07T15:42:25Z</time>
      </trkpt>
      <trkpt lat="43.96957" lon="5.13811">
        <ele>440</ele>
        <time>2013-03-07T15:42:26Z</time>
      </trkpt>
      <trkpt lat="43.96954" lon="5.13812">
        <ele>440.5</ele>
        <time>2013-03-07T15:42:27Z</time>
      </trkpt>
      <trkpt lat="43.96951" lon="5.13812">
        <ele>440.5</ele>
        <time>2013-03-07T15:42:28Z</time>
      </trkpt>
      <trkpt lat="43.96947" lon="5.13811">
        <ele>440.5</ele>
        <time>2013-03-07T15:42:29Z</time>
      </trkpt>
      <trkpt lat="43.96945" lon="5.13812">
        <ele>440.6</ele>
        <time>2013-03-07T15:42:30Z</time>
      </trkpt>
      <trkpt lat="43.96941" lon="5.13812">
        <ele>440.9</ele>
        <time>2013-03-07T15:42:31Z</time>
      </trkpt>
      <trkpt lat="43.96938" lon="5.13814">
        <ele>441.1</ele>
        <time>2013-03-07T15:42:32Z</time>
      </trkpt>
      <trkpt lat="43.96935" lon="5.13815">
        <ele>441.6</ele>
        <time>2013-03-07T15:42:33Z</time>
      </trkpt>
      <trkpt lat="43.96932" lon="5.13816">
        <ele>442</ele>
        <time>2013-03-07T15:42:34Z</time>
      </trkpt>
      <trkpt lat="43.96929" lon="5.13817">
        <ele>442.4</ele>
        <time>2013-03-07T15:42:35Z</time>
      </trkpt>
      <trkpt lat="43.96925" lon="5.13817">
        <ele>442.6</ele>
        <time>2013-03-07T15:42:36Z</time>
      </trkpt>
      <trkpt lat="43.96923" lon="5.13817">
        <ele>441.9</ele>
        <time>2013-03-07T15:42:37Z</time>
      </trkpt>
      <trkpt lat="43.96921" lon="5.13817">
        <ele>442.2</ele>
        <time>2013-03-07T15:42:38Z</time>
      </trkpt>
      <trkpt lat="43.96918" lon="5.13818">
        <ele>442</ele>
        <time>2013-03-07T15:42:39Z</time>
      </trkpt>
      <trkpt lat="43.96914" lon="5.13819">
        <ele>441.9</ele>
        <time>2013-03-07T15:42:40Z</time>
      </trkpt>
      <trkpt lat="43.96908" lon="5.1382">
        <ele>441.9</ele>
        <time>2013-03-07T15:42:42Z</time>
      </trkpt>
      <trkpt lat="43.96906" lon="5.13822">
        <ele>442</ele>
        <time>2013-03-07T15:42:43Z</time>
      </trkpt>
      <trkpt lat="43.96903" lon="5.13822">
        <ele>441.9</ele>
        <time>2013-03-07T15:42:44Z</time>
      </trkpt>
      <trkpt lat="43.969" lon="5.13823">
        <ele>442.4</ele>
        <time>2013-03-07T15:42:45Z</time>
      </trkpt>
      <trkpt lat="43.96898" lon="5.13824">
        <ele>442.7</ele>
        <time>2013-03-07T15:42:46Z</time>
      </trkpt>
      <trkpt lat="43.96896" lon="5.13824">
        <ele>442.5</ele>
        <time>2013-03-07T15:42:47Z</time>
      </trkpt>
      <trkpt lat="43.96894" lon="5.13825">
        <ele>442.6</ele>
        <time>2013-03-07T15:42:48Z</time>
      </trkpt>
      <trkpt lat="43.96891" lon="5.13827">
        <ele>442.8</ele>
        <time>2013-03-07T15:42:49Z</time>
      </trkpt>
      <trkpt lat="43.96889" lon="5.13828">
        <ele>442.8</ele>
        <time>2013-03-07T15:42:50Z</time>
      </trkpt>
      <trkpt lat="43.96887" lon="5.1383">
        <ele>442.7</ele>
        <time>2013-03-07T15:42:51Z</time>
      </trkpt>
      <trkpt lat="43.96885" lon="5.13832">
        <ele>443.1</ele>
        <time>2013-03-07T15:42:52Z</time>
      </trkpt>
      <trkpt lat="43.96883" lon="5.13834">
        <ele>442.9</ele>
        <time>2013-03-07T15:42:53Z</time>
      </trkpt>
      <trkpt lat="43.9688" lon="5.13835">
        <ele>443</ele>
        <time>2013-03-07T15:42:54Z</time>
      </trkpt>
      <trkpt lat="43.96878" lon="5.13837">
        <ele>443.1</ele>
        <time>2013-03-07T15:42:55Z</time>
      </trkpt>
      <trkpt lat="43.96876" lon="5.13837">
        <ele>443.5</ele>
        <time>2013-03-07T15:42:56Z</time>
      </trkpt>
      <trkpt lat="43.96871" lon="5.13839">
        <ele>443.5</ele>
        <time>2013-03-07T15:42:58Z</time>
      </trkpt>
      <trkpt lat="43.96869" lon="5.13841">
        <ele>443.2</ele>
        <time>2013-03-07T15:42:59Z</time>
      </trkpt>
      <trkpt lat="43.96867" lon="5.13842">
        <ele>443.5</ele>
        <time>2013-03-07T15:43:00Z</time>
      </trkpt>
      <trkpt lat="43.96865" lon="5.13843">
        <ele>443.8</ele>
        <time>2013-03-07T15:43:01Z</time>
      </trkpt>
      <trkpt lat="43.96863" lon="5.13844">
        <ele>443.8</ele>
        <time>2013-03-07T15:43:02Z</time>
      </trkpt>
      <trkpt lat="43.9686" lon="5.13844">
        <ele>444.2</ele>
        <time>2013-03-07T15:43:03Z</time>
      </trkpt>
      <trkpt lat="43.96856" lon="5.13846">
        <ele>444.6</ele>
        <time>2013-03-07T15:43:05Z</time>
      </trkpt>
      <trkpt lat="43.96854" lon="5.13846">
        <ele>445</ele>
        <time>2013-03-07T15:43:06Z</time>
      </trkpt>
      <trkpt lat="43.96852" lon="5.13847">
        <ele>445</ele>
        <time>2013-03-07T15:43:07Z</time>
      </trkpt>
      <trkpt lat="43.96849" lon="5.13847">
        <ele>445</ele>
        <time>2013-03-07T15:43:08Z</time>
      </trkpt>
      <trkpt lat="43.96846" lon="5.13848">
        <ele>445.2</ele>
        <time>2013-03-07T15:43:09Z</time>
      </trkpt>
      <trkpt lat="43.96844" lon="5.13848">
        <ele>445.1</ele>
        <time>2013-03-07T15:43:10Z</time>
      </trkpt>
      <trkpt lat="43.96842" lon="5.13847">
        <ele>445.1</ele>
        <time>2013-03-07T15:43:11Z</time>
      </trkpt>
      <trkpt lat="43.96839" lon="5.13847">
        <ele>445.1</ele>
        <time>2013-03-07T15:43:12Z</time>
      </trkpt>
      <trkpt lat="43.96837" lon="5.13848">
        <ele>444.5</ele>
        <time>2013-03-07T15:43:13Z</time>
      </trkpt>
      <trkpt lat="43.96835" lon="5.13849">
        <ele>443.6</ele>
        <time>2013-03-07T15:43:14Z</time>
      </trkpt>
      <trkpt lat="43.96832" lon="5.13849">
        <ele>443.5</ele>
        <time>2013-03-07T15:43:15Z</time>
      </trkpt>
      <trkpt lat="43.9683" lon="5.1385">
        <ele>443.4</ele>
        <time>2013-03-07T15:43:16Z</time>
      </trkpt>
      <trkpt lat="43.96828" lon="5.1385">
        <ele>443.5</ele>
        <time>2013-03-07T15:43:17Z</time>
      </trkpt>
      <trkpt lat="43.96825" lon="5.1385">
        <ele>443.2</ele>
        <time>2013-03-07T15:43:18Z</time>
      </trkpt>
      <trkpt lat="43.96823" lon="5.1385">
        <ele>443.2</ele>
        <time>2013-03-07T15:43:19Z</time>
      </trkpt>
      <trkpt lat="43.9682" lon="5.13851">
        <ele>442.6</ele>
        <time>2013-03-07T15:43:20Z</time>
      </trkpt>
      <trkpt lat="43.96818" lon="5.13851">
        <ele>442.3</ele>
        <time>2013-03-07T15:43:21Z</time>
      </trkpt>
      <trkpt lat="43.96815" lon="5.13852">
        <ele>442.1</ele>
        <time>2013-03-07T15:43:22Z</time>
      </trkpt>
      <trkpt lat="43.96813" lon="5.13852">
        <ele>441.8</ele>
        <time>2013-03-07T15:43:23Z</time>
      </trkpt>
      <trkpt lat="43.9681" lon="5.13853">
        <ele>441.5</ele>
        <time>2013-03-07T15:43:24Z</time>
      </trkpt>
      <trkpt lat="43.96808" lon="5.13854">
        <ele>442.9</ele>
        <time>2013-03-07T15:43:25Z</time>
      </trkpt>
      <trkpt lat="43.96805" lon="5.13855">
        <ele>443.2</ele>
        <time>2013-03-07T15:43:26Z</time>
      </trkpt>
      <trkpt lat="43.96801" lon="5.13855">
        <ele>443.4</ele>
        <time>2013-03-07T15:43:28Z</time>
      </trkpt>
      <trkpt lat="43.96799" lon="5.13856">
        <ele>443.4</ele>
        <time>2013-03-07T15:43:29Z</time>
      </trkpt>
      <trkpt lat="43.96797" lon="5.13856">
        <ele>443.4</ele>
        <time>2013-03-07T15:43:30Z</time>
      </trkpt>
      <trkpt lat="43.96795" lon="5.13856">
        <ele>443.6</ele>
        <time>2013-03-07T15:43:31Z</time>
      </trkpt>
      <trkpt lat="43.9679" lon="5.13856">
        <ele>444.1</ele>
        <time>2013-03-07T15:43:33Z</time>
      </trkpt>
      <trkpt lat="43.96789" lon="5.13857">
        <ele>443.6</ele>
        <time>2013-03-07T15:43:34Z</time>
      </trkpt>
      <trkpt lat="43.96784" lon="5.13855">
        <ele>442.7</ele>
        <time>2013-03-07T15:43:37Z</time>
      </trkpt>
      <trkpt lat="43.96781" lon="5.13854">
        <ele>442.1</ele>
        <time>2013-03-07T15:43:38Z</time>
      </trkpt>
      <trkpt lat="43.96777" lon="5.13853">
        <ele>440.6</ele>
        <time>2013-03-07T15:43:40Z</time>
      </trkpt>
      <trkpt lat="43.96775" lon="5.13852">
        <ele>440</ele>
        <time>2013-03-07T15:43:41Z</time>
      </trkpt>
      <trkpt lat="43.96772" lon="5.13849">
        <ele>439</ele>
        <time>2013-03-07T15:43:42Z</time>
      </trkpt>
      <trkpt lat="43.96769" lon="5.13848">
        <ele>437.9</ele>
        <time>2013-03-07T15:43:43Z</time>
      </trkpt>
      <trkpt lat="43.96765" lon="5.13847">
        <ele>437.4</ele>
        <time>2013-03-07T15:43:44Z</time>
      </trkpt>
      <trkpt lat="43.96763" lon="5.13847">
        <ele>436.7</ele>
        <time>2013-03-07T15:43:45Z</time>
      </trkpt>
      <trkpt lat="43.9676" lon="5.13848">
        <ele>436.2</ele>
        <time>2013-03-07T15:43:46Z</time>
      </trkpt>
      <trkpt lat="43.96757" lon="5.13848">
        <ele>435.6</ele>
        <time>2013-03-07T15:43:47Z</time>
      </trkpt>
      <trkpt lat="43.96754" lon="5.13846">
        <ele>434.7</ele>
        <time>2013-03-07T15:43:49Z</time>
      </trkpt>
      <trkpt lat="43.96752" lon="5.13844">
        <ele>433.9</ele>
        <time>2013-03-07T15:43:50Z</time>
      </trkpt>
      <trkpt lat="43.96749" lon="5.13842">
        <ele>432.9</ele>
        <time>2013-03-07T15:43:52Z</time>
      </trkpt>
      <trkpt lat="43.96747" lon="5.13841">
        <ele>432.2</ele>
        <time>2013-03-07T15:43:53Z</time>
      </trkpt>
      <trkpt lat="43.96744" lon="5.1384">
        <ele>430.9</ele>
        <time>2013-03-07T15:43:55Z</time>
      </trkpt>
      <trkpt lat="43.96742" lon="5.13839">
        <ele>430.4</ele>
        <time>2013-03-07T15:43:56Z</time>
      </trkpt>
      <trkpt lat="43.96739" lon="5.1384">
        <ele>430.1</ele>
        <time>2013-03-07T15:43:57Z</time>
      </trkpt>
      <trkpt lat="43.96736" lon="5.13838">
        <ele>429.7</ele>
        <time>2013-03-07T15:43:58Z</time>
      </trkpt>
      <trkpt lat="43.96731" lon="5.13841">
        <ele>428.2</ele>
        <time>2013-03-07T15:43:59Z</time>
      </trkpt>
      <trkpt lat="43.96727" lon="5.13843">
        <ele>427.9</ele>
        <time>2013-03-07T15:44:00Z</time>
      </trkpt>
      <trkpt lat="43.96724" lon="5.13844">
        <ele>428</ele>
        <time>2013-03-07T15:44:01Z</time>
      </trkpt>
      <trkpt lat="43.96721" lon="5.13845">
        <ele>427.5</ele>
        <time>2013-03-07T15:44:02Z</time>
      </trkpt>
      <trkpt lat="43.96717" lon="5.13846">
        <ele>427.1</ele>
        <time>2013-03-07T15:44:03Z</time>
      </trkpt>
      <trkpt lat="43.96714" lon="5.13848">
        <ele>426.8</ele>
        <time>2013-03-07T15:44:04Z</time>
      </trkpt>
      <trkpt lat="43.96712" lon="5.1385">
        <ele>427.2</ele>
        <time>2013-03-07T15:44:05Z</time>
      </trkpt>
      <trkpt lat="43.96709" lon="5.13851">
        <ele>426.1</ele>
        <time>2013-03-07T15:44:06Z</time>
      </trkpt>
      <trkpt lat="43.96706" lon="5.13852">
        <ele>424.7</ele>
        <time>2013-03-07T15:44:07Z</time>
      </trkpt>
      <trkpt lat="43.96703" lon="5.13853">
        <ele>423.1</ele>
        <time>2013-03-07T15:44:08Z</time>
      </trkpt>
      <trkpt lat="43.96701" lon="5.13854">
        <ele>421.9</ele>
        <time>2013-03-07T15:44:09Z</time>
      </trkpt>
      <trkpt lat="43.96696" lon="5.13855">
        <ele>422.9</ele>
        <time>2013-03-07T15:44:10Z</time>
      </trkpt>
      <trkpt lat="43.96693" lon="5.13856">
        <ele>423.4</ele>
        <time>2013-03-07T15:44:11Z</time>
      </trkpt>
      <trkpt lat="43.96689" lon="5.13856">
        <ele>422.6</ele>
        <time>2013-03-07T15:44:12Z</time>
      </trkpt>
      <trkpt lat="43.96685" lon="5.13856">
        <ele>423</ele>
        <time>2013-03-07T15:44:13Z</time>
      </trkpt>
      <trkpt lat="43.96681" lon="5.13856">
        <ele>424.4</ele>
        <time>2013-03-07T15:44:14Z</time>
      </trkpt>
      <trkpt lat="43.96676" lon="5.13853">
        <ele>426.9</ele>
        <time>2013-03-07T15:44:15Z</time>
      </trkpt>
      <trkpt lat="43.96675" lon="5.13858">
        <ele>426.5</ele>
        <time>2013-03-07T15:44:17Z</time>
      </trkpt>
      <trkpt lat="43.96673" lon="5.13858">
        <ele>426.7</ele>
        <time>2013-03-07T15:44:18Z</time>
      </trkpt>
      <trkpt lat="43.9667" lon="5.13858">
        <ele>426.1</ele>
        <time>2013-03-07T15:44:19Z</time>
      </trkpt>
      <trkpt lat="43.96668" lon="5.13859">
        <ele>425.3</ele>
        <time>2013-03-07T15:44:20Z</time>
      </trkpt>
      <trkpt lat="43.96666" lon="5.13859">
        <ele>424.6</ele>
        <time>2013-03-07T15:44:21Z</time>
      </trkpt>
      <trkpt lat="43.96664" lon="5.1386">
        <ele>423.8</ele>
        <time>2013-03-07T15:44:22Z</time>
      </trkpt>
      <trkpt lat="43.9666" lon="5.13861">
        <ele>424.3</ele>
        <time>2013-03-07T15:44:24Z</time>
      </trkpt>
      <trkpt lat="43.96658" lon="5.13862">
        <ele>423.5</ele>
        <time>2013-03-07T15:44:25Z</time>
      </trkpt>
      <trkpt lat="43.96654" lon="5.13864">
        <ele>422.7</ele>
        <time>2013-03-07T15:44:27Z</time>
      </trkpt>
      <trkpt lat="43.96653" lon="5.13866">
        <ele>422.2</ele>
        <time>2013-03-07T15:44:28Z</time>
      </trkpt>
      <trkpt lat="43.96649" lon="5.13866">
        <ele>421.9</ele>
        <time>2013-03-07T15:44:30Z</time>
      </trkpt>
      <trkpt lat="43.96647" lon="5.13867">
        <ele>422.3</ele>
        <time>2013-03-07T15:44:31Z</time>
      </trkpt>
      <trkpt lat="43.96643" lon="5.13868">
        <ele>422.5</ele>
        <time>2013-03-07T15:44:33Z</time>
      </trkpt>
      <trkpt lat="43.96641" lon="5.13869">
        <ele>422.5</ele>
        <time>2013-03-07T15:44:34Z</time>
      </trkpt>
      <trkpt lat="43.96638" lon="5.1387">
        <ele>423.2</ele>
        <time>2013-03-07T15:44:36Z</time>
      </trkpt>
      <trkpt lat="43.96636" lon="5.1387">
        <ele>423.5</ele>
        <time>2013-03-07T15:44:37Z</time>
      </trkpt>
      <trkpt lat="43.96632" lon="5.13872">
        <ele>423.9</ele>
        <time>2013-03-07T15:44:39Z</time>
      </trkpt>
      <trkpt lat="43.9663" lon="5.13872">
        <ele>423.9</ele>
        <time>2013-03-07T15:44:40Z</time>
      </trkpt>
      <trkpt lat="43.96627" lon="5.13874">
        <ele>423.8</ele>
        <time>2013-03-07T15:44:42Z</time>
      </trkpt>
      <trkpt lat="43.96625" lon="5.13875">
        <ele>424</ele>
        <time>2013-03-07T15:44:43Z</time>
      </trkpt>
      <trkpt lat="43.96621" lon="5.13875">
        <ele>424.7</ele>
        <time>2013-03-07T15:44:45Z</time>
      </trkpt>
      <trkpt lat="43.96619" lon="5.13876">
        <ele>425</ele>
        <time>2013-03-07T15:44:46Z</time>
      </trkpt>
      <trkpt lat="43.96616" lon="5.13877">
        <ele>425.5</ele>
        <time>2013-03-07T15:44:48Z</time>
      </trkpt>
      <trkpt lat="43.96614" lon="5.13878">
        <ele>425.7</ele>
        <time>2013-03-07T15:44:49Z</time>
      </trkpt>
      <trkpt lat="43.96611" lon="5.13879">
        <ele>425.5</ele>
        <time>2013-03-07T15:44:51Z</time>
      </trkpt>
      <trkpt lat="43.96609" lon="5.1388">
        <ele>425</ele>
        <time>2013-03-07T15:44:52Z</time>
      </trkpt>
      <trkpt lat="43.96605" lon="5.13882">
        <ele>424.5</ele>
        <time>2013-03-07T15:44:54Z</time>
      </trkpt>
      <trkpt lat="43.96603" lon="5.13883">
        <ele>424.3</ele>
        <time>2013-03-07T15:44:55Z</time>
      </trkpt>
      <trkpt lat="43.966" lon="5.13884">
        <ele>424.1</ele>
        <time>2013-03-07T15:44:56Z</time>
      </trkpt>
      <trkpt lat="43.96595" lon="5.13887">
        <ele>423.5</ele>
        <time>2013-03-07T15:44:57Z</time>
      </trkpt>
      <trkpt lat="43.9659" lon="5.13889">
        <ele>423.3</ele>
        <time>2013-03-07T15:44:58Z</time>
      </trkpt>
      <trkpt lat="43.96586" lon="5.1389">
        <ele>424.6</ele>
        <time>2013-03-07T15:44:59Z</time>
      </trkpt>
      <trkpt lat="43.96582" lon="5.13892">
        <ele>423.7</ele>
        <time>2013-03-07T15:45:00Z</time>
      </trkpt>
      <trkpt lat="43.96579" lon="5.13893">
        <ele>424</ele>
        <time>2013-03-07T15:45:01Z</time>
      </trkpt>
      <trkpt lat="43.96575" lon="5.13895">
        <ele>423.8</ele>
        <time>2013-03-07T15:45:02Z</time>
      </trkpt>
      <trkpt lat="43.96573" lon="5.13897">
        <ele>423.7</ele>
        <time>2013-03-07T15:45:03Z</time>
      </trkpt>
      <trkpt lat="43.9657" lon="5.13899">
        <ele>423.7</ele>
        <time>2013-03-07T15:45:04Z</time>
      </trkpt>
      <trkpt lat="43.96568" lon="5.13901">
        <ele>423.4</ele>
        <time>2013-03-07T15:45:05Z</time>
      </trkpt>
      <trkpt lat="43.96565" lon="5.13905">
        <ele>423.5</ele>
        <time>2013-03-07T15:45:07Z</time>
      </trkpt>
      <trkpt lat="43.96563" lon="5.13907">
        <ele>423.3</ele>
        <time>2013-03-07T15:45:08Z</time>
      </trkpt>
      <trkpt lat="43.96561" lon="5.13912">
        <ele>423.1</ele>
        <time>2013-03-07T15:45:10Z</time>
      </trkpt>
      <trkpt lat="43.9656" lon="5.13914">
        <ele>422.5</ele>
        <time>2013-03-07T15:45:11Z</time>
      </trkpt>
      <trkpt lat="43.96556" lon="5.13916">
        <ele>420.4</ele>
        <time>2013-03-07T15:45:14Z</time>
      </trkpt>
      <trkpt lat="43.96554" lon="5.13916">
        <ele>419.5</ele>
        <time>2013-03-07T15:45:15Z</time>
      </trkpt>
      <trkpt lat="43.96552" lon="5.13916">
        <ele>418.5</ele>
        <time>2013-03-07T15:45:16Z</time>
      </trkpt>
      <trkpt lat="43.96549" lon="5.13916">
        <ele>418.2</ele>
        <time>2013-03-07T15:45:17Z</time>
      </trkpt>
      <trkpt lat="43.96547" lon="5.13916">
        <ele>417.2</ele>
        <time>2013-03-07T15:45:18Z</time>
      </trkpt>
      <trkpt lat="43.96545" lon="5.13917">
        <ele>417</ele>
        <time>2013-03-07T15:45:19Z</time>
      </trkpt>
      <trkpt lat="43.96543" lon="5.13921">
        <ele>416.9</ele>
        <time>2013-03-07T15:45:21Z</time>
      </trkpt>
      <trkpt lat="43.96542" lon="5.13923">
        <ele>416.8</ele>
        <time>2013-03-07T15:45:22Z</time>
      </trkpt>
      <trkpt lat="43.96543" lon="5.13928">
        <ele>416.8</ele>
        <time>2013-03-07T15:45:24Z</time>
      </trkpt>
      <trkpt lat="43.96544" lon="5.1393">
        <ele>417.2</ele>
        <time>2013-03-07T15:45:25Z</time>
      </trkpt>
      <trkpt lat="43.96548" lon="5.13932">
        <ele>418.2</ele>
        <time>2013-03-07T15:45:28Z</time>
      </trkpt>
      <trkpt lat="43.96549" lon="5.13933">
        <ele>418.3</ele>
        <time>2013-03-07T15:45:29Z</time>
      </trkpt>
      <trkpt lat="43.96546" lon="5.13928">
        <ele>418.8</ele>
        <time>2013-03-07T15:45:40Z</time>
      </trkpt>
      <trkpt lat="43.96544" lon="5.13928">
        <ele>418.4</ele>
        <time>2013-03-07T15:45:41Z</time>
      </trkpt>
      <trkpt lat="43.9654" lon="5.13925">
        <ele>418.1</ele>
        <time>2013-03-07T15:45:43Z</time>
      </trkpt>
      <trkpt lat="43.9654" lon="5.13919">
        <ele>418.3</ele>
        <time>2013-03-07T15:45:44Z</time>
      </trkpt>
      <trkpt lat="43.96537" lon="5.13915">
        <ele>418.4</ele>
        <time>2013-03-07T15:45:47Z</time>
      </trkpt>
      <trkpt lat="43.96535" lon="5.13916">
        <ele>418.4</ele>
        <time>2013-03-07T15:45:48Z</time>
      </trkpt>
      <trkpt lat="43.96536" lon="5.1391">
        <ele>419.7</ele>
        <time>2013-03-07T15:45:57Z</time>
      </trkpt>
      <trkpt lat="43.96536" lon="5.1391">
        <ele>419.8</ele>
        <time>2013-03-07T15:45:58Z</time>
      </trkpt>
      <trkpt lat="43.96538" lon="5.13912">
        <ele>418.3</ele>
        <time>2013-03-07T15:49:02Z</time>
      </trkpt>
      <trkpt lat="43.96539" lon="5.1392">
        <ele>419.1</ele>
        <time>2013-03-07T15:49:03Z</time>
      </trkpt>
      <trkpt lat="43.96537" lon="5.13923">
        <ele>422.6</ele>
        <time>2013-03-07T15:49:22Z</time>
      </trkpt>
      <trkpt lat="43.96535" lon="5.13923">
        <ele>422.8</ele>
        <time>2013-03-07T15:49:23Z</time>
      </trkpt>
      <trkpt lat="43.96532" lon="5.13927">
        <ele>421.4</ele>
        <time>2013-03-07T15:49:26Z</time>
      </trkpt>
      <trkpt lat="43.96532" lon="5.13929">
        <ele>421.3</ele>
        <time>2013-03-07T15:49:27Z</time>
      </trkpt>
      <trkpt lat="43.96529" lon="5.13933">
        <ele>422.5</ele>
        <time>2013-03-07T15:49:30Z</time>
      </trkpt>
      <trkpt lat="43.96528" lon="5.13934">
        <ele>421.8</ele>
        <time>2013-03-07T15:49:31Z</time>
      </trkpt>
      <trkpt lat="43.96526" lon="5.1394">
        <ele>422.1</ele>
        <time>2013-03-07T15:49:34Z</time>
      </trkpt>
      <trkpt lat="43.96525" lon="5.13941">
        <ele>422.1</ele>
        <time>2013-03-07T15:49:35Z</time>
      </trkpt>
      <trkpt lat="43.96523" lon="5.13945">
        <ele>424.1</ele>
        <time>2013-03-07T15:49:38Z</time>
      </trkpt>
      <trkpt lat="43.96522" lon="5.13947">
        <ele>424.6</ele>
        <time>2013-03-07T15:49:39Z</time>
      </trkpt>
      <trkpt lat="43.96522" lon="5.13953">
        <ele>425.5</ele>
        <time>2013-03-07T15:49:42Z</time>
      </trkpt>
      <trkpt lat="43.96522" lon="5.13954">
        <ele>425.5</ele>
        <time>2013-03-07T15:49:43Z</time>
      </trkpt>
      <trkpt lat="43.96521" lon="5.1396">
        <ele>428.1</ele>
        <time>2013-03-07T15:49:47Z</time>
      </trkpt>
      <trkpt lat="43.9652" lon="5.13961">
        <ele>429.2</ele>
        <time>2013-03-07T15:49:48Z</time>
      </trkpt>
      <trkpt lat="43.9652" lon="5.13966">
        <ele>429.7</ele>
        <time>2013-03-07T15:49:51Z</time>
      </trkpt>
      <trkpt lat="43.9652" lon="5.13968">
        <ele>429</ele>
        <time>2013-03-07T15:49:52Z</time>
      </trkpt>
      <trkpt lat="43.96519" lon="5.13974">
        <ele>429.7</ele>
        <time>2013-03-07T15:49:55Z</time>
      </trkpt>
      <trkpt lat="43.96519" lon="5.13976">
        <ele>430</ele>
        <time>2013-03-07T15:49:56Z</time>
      </trkpt>
      <trkpt lat="43.96518" lon="5.1398">
        <ele>430.3</ele>
        <time>2013-03-07T15:49:58Z</time>
      </trkpt>
      <trkpt lat="43.96517" lon="5.13982">
        <ele>430.3</ele>
        <time>2013-03-07T15:49:59Z</time>
      </trkpt>
      <trkpt lat="43.96516" lon="5.13987">
        <ele>430</ele>
        <time>2013-03-07T15:50:02Z</time>
      </trkpt>
      <trkpt lat="43.96515" lon="5.13988">
        <ele>430.8</ele>
        <time>2013-03-07T15:50:03Z</time>
      </trkpt>
      <trkpt lat="43.96514" lon="5.13993">
        <ele>432.8</ele>
        <time>2013-03-07T15:50:06Z</time>
      </trkpt>
      <trkpt lat="43.96513" lon="5.13995">
        <ele>433.2</ele>
        <time>2013-03-07T15:50:07Z</time>
      </trkpt>
      <trkpt lat="43.96512" lon="5.14001">
        <ele>433.6</ele>
        <time>2013-03-07T15:50:11Z</time>
      </trkpt>
      <trkpt lat="43.96511" lon="5.14003">
        <ele>433.1</ele>
        <time>2013-03-07T15:50:12Z</time>
      </trkpt>
      <trkpt lat="43.9651" lon="5.14009">
        <ele>433.4</ele>
        <time>2013-03-07T15:50:15Z</time>
      </trkpt>
      <trkpt lat="43.96509" lon="5.1401">
        <ele>434.1</ele>
        <time>2013-03-07T15:50:16Z</time>
      </trkpt>
      <trkpt lat="43.96507" lon="5.14015">
        <ele>435.5</ele>
        <time>2013-03-07T15:50:19Z</time>
      </trkpt>
      <trkpt lat="43.96506" lon="5.14017">
        <ele>435.8</ele>
        <time>2013-03-07T15:50:20Z</time>
      </trkpt>
      <trkpt lat="43.96504" lon="5.14022">
        <ele>435.7</ele>
        <time>2013-03-07T15:50:23Z</time>
      </trkpt>
      <trkpt lat="43.96504" lon="5.14024">
        <ele>435.8</ele>
        <time>2013-03-07T15:50:24Z</time>
      </trkpt>
      <trkpt lat="43.96502" lon="5.14029">
        <ele>436.2</ele>
        <time>2013-03-07T15:50:27Z</time>
      </trkpt>
      <trkpt lat="43.96501" lon="5.1403">
        <ele>436.6</ele>
        <time>2013-03-07T15:50:28Z</time>
      </trkpt>
      <trkpt lat="43.965" lon="5.14034">
        <ele>438.7</ele>
        <time>2013-03-07T15:50:32Z</time>
      </trkpt>
      <trkpt lat="43.96499" lon="5.14038">
        <ele>437.7</ele>
        <time>2013-03-07T15:50:33Z</time>
      </trkpt>
      <trkpt lat="43.96498" lon="5.14043">
        <ele>437.7</ele>
        <time>2013-03-07T15:50:36Z</time>
      </trkpt>
      <trkpt lat="43.96498" lon="5.14044">
        <ele>437.8</ele>
        <time>2013-03-07T15:50:37Z</time>
      </trkpt>
      <trkpt lat="43.96496" lon="5.1405">
        <ele>438.6</ele>
        <time>2013-03-07T15:50:40Z</time>
      </trkpt>
      <trkpt lat="43.96496" lon="5.14053">
        <ele>438.8</ele>
        <time>2013-03-07T15:50:42Z</time>
      </trkpt>
      <trkpt lat="43.96495" lon="5.14059">
        <ele>439.3</ele>
        <time>2013-03-07T15:50:45Z</time>
      </trkpt>
      <trkpt lat="43.96494" lon="5.1406">
        <ele>439.6</ele>
        <time>2013-03-07T15:50:46Z</time>
      </trkpt>
      <trkpt lat="43.96493" lon="5.14066">
        <ele>440.8</ele>
        <time>2013-03-07T15:50:49Z</time>
      </trkpt>
      <trkpt lat="43.96492" lon="5.14067">
        <ele>441.3</ele>
        <time>2013-03-07T15:50:50Z</time>
      </trkpt>
      <trkpt lat="43.96491" lon="5.14072">
        <ele>442.8</ele>
        <time>2013-03-07T15:50:53Z</time>
      </trkpt>
      <trkpt lat="43.9649" lon="5.14074">
        <ele>443.4</ele>
        <time>2013-03-07T15:50:54Z</time>
      </trkpt>
      <trkpt lat="43.96489" lon="5.14079">
        <ele>443.7</ele>
        <time>2013-03-07T15:50:57Z</time>
      </trkpt>
      <trkpt lat="43.96489" lon="5.14081">
        <ele>443.8</ele>
        <time>2013-03-07T15:50:58Z</time>
      </trkpt>
      <trkpt lat="43.96488" lon="5.14085">
        <ele>443.9</ele>
        <time>2013-03-07T15:51:00Z</time>
      </trkpt>
      <trkpt lat="43.96487" lon="5.14087">
        <ele>443.8</ele>
        <time>2013-03-07T15:51:01Z</time>
      </trkpt>
      <trkpt lat="43.96485" lon="5.14092">
        <ele>443.9</ele>
        <time>2013-03-07T15:51:04Z</time>
      </trkpt>
      <trkpt lat="43.96484" lon="5.14093">
        <ele>444.8</ele>
        <time>2013-03-07T15:51:05Z</time>
      </trkpt>
      <trkpt lat="43.96482" lon="5.14094">
        <ele>446</ele>
        <time>2013-03-07T15:51:06Z</time>
      </trkpt>
      <trkpt lat="43.9648" lon="5.14088">
        <ele>448.8</ele>
        <time>2013-03-07T15:51:07Z</time>
      </trkpt>
      <trkpt lat="43.9648" lon="5.14081">
        <ele>451.5</ele>
        <time>2013-03-07T15:51:08Z</time>
      </trkpt>
      <trkpt lat="43.96485" lon="5.14083">
        <ele>453.8</ele>
        <time>2013-03-07T15:51:09Z</time>
      </trkpt>
      <trkpt lat="43.96482" lon="5.14088">
        <ele>466.2</ele>
        <time>2013-03-07T15:51:12Z</time>
      </trkpt>
      <trkpt lat="43.96478" lon="5.1409">
        <ele>467.1</ele>
        <time>2013-03-07T15:51:13Z</time>
      </trkpt>
      <trkpt lat="43.96474" lon="5.1409">
        <ele>468.3</ele>
        <time>2013-03-07T15:51:15Z</time>
      </trkpt>
      <trkpt lat="43.96473" lon="5.14096">
        <ele>466.1</ele>
        <time>2013-03-07T15:51:16Z</time>
      </trkpt>
      <trkpt lat="43.9647" lon="5.141">
        <ele>466.8</ele>
        <time>2013-03-07T15:51:18Z</time>
      </trkpt>
      <trkpt lat="43.96468" lon="5.14102">
        <ele>466.8</ele>
        <time>2013-03-07T15:51:19Z</time>
      </trkpt>
      <trkpt lat="43.96466" lon="5.14104">
        <ele>466.9</ele>
        <time>2013-03-07T15:51:21Z</time>
      </trkpt>
      <trkpt lat="43.96466" lon="5.14107">
        <ele>465.8</ele>
        <time>2013-03-07T15:51:22Z</time>
      </trkpt>
      <trkpt lat="43.96465" lon="5.14108">
        <ele>465.9</ele>
        <time>2013-03-07T15:51:23Z</time>
      </trkpt>
      <trkpt lat="43.96465" lon="5.14114">
        <ele>464.7</ele>
        <time>2013-03-07T15:51:24Z</time>
      </trkpt>
      <trkpt lat="43.96463" lon="5.14117">
        <ele>464.3</ele>
        <time>2013-03-07T15:51:26Z</time>
      </trkpt>
      <trkpt lat="43.96461" lon="5.14119">
        <ele>464.7</ele>
        <time>2013-03-07T15:51:27Z</time>
      </trkpt>
      <trkpt lat="43.96459" lon="5.14121">
        <ele>464.9</ele>
        <time>2013-03-07T15:51:29Z</time>
      </trkpt>
      <trkpt lat="43.96457" lon="5.14124">
        <ele>464.9</ele>
        <time>2013-03-07T15:51:30Z</time>
      </trkpt>
      <trkpt lat="43.96455" lon="5.14129">
        <ele>463.8</ele>
        <time>2013-03-07T15:51:33Z</time>
      </trkpt>
      <trkpt lat="43.96453" lon="5.14131">
        <ele>463.2</ele>
        <time>2013-03-07T15:51:34Z</time>
      </trkpt>
      <trkpt lat="43.96452" lon="5.14136">
        <ele>462</ele>
        <time>2013-03-07T15:51:37Z</time>
      </trkpt>
      <trkpt lat="43.9645" lon="5.14137">
        <ele>461.3</ele>
        <time>2013-03-07T15:51:38Z</time>
      </trkpt>
      <trkpt lat="43.96446" lon="5.14141">
        <ele>460.4</ele>
        <time>2013-03-07T15:51:40Z</time>
      </trkpt>
      <trkpt lat="43.96446" lon="5.14143">
        <ele>459.5</ele>
        <time>2013-03-07T15:51:41Z</time>
      </trkpt>
      <trkpt lat="43.96444" lon="5.14148">
        <ele>459</ele>
        <time>2013-03-07T15:51:44Z</time>
      </trkpt>
      <trkpt lat="43.96443" lon="5.14151">
        <ele>458.5</ele>
        <time>2013-03-07T15:51:45Z</time>
      </trkpt>
      <trkpt lat="43.9644" lon="5.14155">
        <ele>459.3</ele>
        <time>2013-03-07T15:51:49Z</time>
      </trkpt>
      <trkpt lat="43.96439" lon="5.14156">
        <ele>459.4</ele>
        <time>2013-03-07T15:51:50Z</time>
      </trkpt>
      <trkpt lat="43.96437" lon="5.14159">
        <ele>458.9</ele>
        <time>2013-03-07T15:51:52Z</time>
      </trkpt>
      <trkpt lat="43.96435" lon="5.1416">
        <ele>459.1</ele>
        <time>2013-03-07T15:51:53Z</time>
      </trkpt>
      <trkpt lat="43.96431" lon="5.14163">
        <ele>457.3</ele>
        <time>2013-03-07T15:51:56Z</time>
      </trkpt>
      <trkpt lat="43.9643" lon="5.14162">
        <ele>457.5</ele>
        <time>2013-03-07T15:51:57Z</time>
      </trkpt>
      <trkpt lat="43.96427" lon="5.14157">
        <ele>450.1</ele>
        <time>2013-03-07T15:52:06Z</time>
      </trkpt>
      <trkpt lat="43.96427" lon="5.14155">
        <ele>449.9</ele>
        <time>2013-03-07T15:52:07Z</time>
      </trkpt>
      <trkpt lat="43.96428" lon="5.1415">
        <ele>448.4</ele>
        <time>2013-03-07T15:52:10Z</time>
      </trkpt>
      <trkpt lat="43.96428" lon="5.14149">
        <ele>448.2</ele>
        <time>2013-03-07T15:52:11Z</time>
      </trkpt>
      <trkpt lat="43.96431" lon="5.14145">
        <ele>447.9</ele>
        <time>2013-03-07T15:52:14Z</time>
      </trkpt>
      <trkpt lat="43.96432" lon="5.14143">
        <ele>447.8</ele>
        <time>2013-03-07T15:52:15Z</time>
      </trkpt>
      <trkpt lat="43.96435" lon="5.14139">
        <ele>447.1</ele>
        <time>2013-03-07T15:52:18Z</time>
      </trkpt>
      <trkpt lat="43.96436" lon="5.14138">
        <ele>446.7</ele>
        <time>2013-03-07T15:52:19Z</time>
      </trkpt>
      <trkpt lat="43.96439" lon="5.14134">
        <ele>446.8</ele>
        <time>2013-03-07T15:52:22Z</time>
      </trkpt>
      <trkpt lat="43.96439" lon="5.14133">
        <ele>446.8</ele>
        <time>2013-03-07T15:52:23Z</time>
      </trkpt>
      <trkpt lat="43.96442" lon="5.14128">
        <ele>446.4</ele>
        <time>2013-03-07T15:52:26Z</time>
      </trkpt>
      <trkpt lat="43.96443" lon="5.14127">
        <ele>446.8</ele>
        <time>2013-03-07T15:52:27Z</time>
      </trkpt>
      <trkpt lat="43.96445" lon="5.14122">
        <ele>446.3</ele>
        <time>2013-03-07T15:52:30Z</time>
      </trkpt>
      <trkpt lat="43.96445" lon="5.1412">
        <ele>446.1</ele>
        <time>2013-03-07T15:52:31Z</time>
      </trkpt>
      <trkpt lat="43.96448" lon="5.14117">
        <ele>448.2</ele>
        <time>2013-03-07T15:52:33Z</time>
      </trkpt>
      <trkpt lat="43.96449" lon="5.14116">
        <ele>448.8</ele>
        <time>2013-03-07T15:52:34Z</time>
      </trkpt>
      <trkpt lat="43.96451" lon="5.14113">
        <ele>449.1</ele>
        <time>2013-03-07T15:52:36Z</time>
      </trkpt>
      <trkpt lat="43.96453" lon="5.14111">
        <ele>449.4</ele>
        <time>2013-03-07T15:52:37Z</time>
      </trkpt>
      <trkpt lat="43.96456" lon="5.14108">
        <ele>449.4</ele>
        <time>2013-03-07T15:52:40Z</time>
      </trkpt>
      <trkpt lat="43.96457" lon="5.14106">
        <ele>449.5</ele>
        <time>2013-03-07T15:52:41Z</time>
      </trkpt>
      <trkpt lat="43.96459" lon="5.14101">
        <ele>449.7</ele>
        <time>2013-03-07T15:52:44Z</time>
      </trkpt>
      <trkpt lat="43.9646" lon="5.14099">
        <ele>449.6</ele>
        <time>2013-03-07T15:52:45Z</time>
      </trkpt>
      <trkpt lat="43.9646" lon="5.14094">
        <ele>449.5</ele>
        <time>2013-03-07T15:52:47Z</time>
      </trkpt>
      <trkpt lat="43.96461" lon="5.14092">
        <ele>449.6</ele>
        <time>2013-03-07T15:52:48Z</time>
      </trkpt>
      <trkpt lat="43.96461" lon="5.14088">
        <ele>449.7</ele>
        <time>2013-03-07T15:52:50Z</time>
      </trkpt>
      <trkpt lat="43.96461" lon="5.14086">
        <ele>449.8</ele>
        <time>2013-03-07T15:52:51Z</time>
      </trkpt>
      <trkpt lat="43.96461" lon="5.14079">
        <ele>449.9</ele>
        <time>2013-03-07T15:52:54Z</time>
      </trkpt>
      <trkpt lat="43.9646" lon="5.14077">
        <ele>449.8</ele>
        <time>2013-03-07T15:52:55Z</time>
      </trkpt>
      <trkpt lat="43.96459" lon="5.14071">
        <ele>450</ele>
        <time>2013-03-07T15:52:58Z</time>
      </trkpt>
      <trkpt lat="43.96459" lon="5.14069">
        <ele>449.7</ele>
        <time>2013-03-07T15:52:59Z</time>
      </trkpt>
      <trkpt lat="43.96458" lon="5.14065">
        <ele>449.7</ele>
        <time>2013-03-07T15:53:01Z</time>
      </trkpt>
      <trkpt lat="43.96458" lon="5.14063">
        <ele>449.8</ele>
        <time>2013-03-07T15:53:02Z</time>
      </trkpt>
      <trkpt lat="43.96458" lon="5.14058">
        <ele>450</ele>
        <time>2013-03-07T15:53:04Z</time>
      </trkpt>
      <trkpt lat="43.96457" lon="5.14056">
        <ele>450.2</ele>
        <time>2013-03-07T15:53:05Z</time>
      </trkpt>
      <trkpt lat="43.96457" lon="5.14051">
        <ele>450.3</ele>
        <time>2013-03-07T15:53:07Z</time>
      </trkpt>
      <trkpt lat="43.96457" lon="5.14048">
        <ele>450.3</ele>
        <time>2013-03-07T15:53:08Z</time>
      </trkpt>
      <trkpt lat="43.96457" lon="5.14043">
        <ele>450.6</ele>
        <time>2013-03-07T15:53:10Z</time>
      </trkpt>
      <trkpt lat="43.96457" lon="5.1404">
        <ele>450.3</ele>
        <time>2013-03-07T15:53:11Z</time>
      </trkpt>
      <trkpt lat="43.96457" lon="5.14035">
        <ele>450.6</ele>
        <time>2013-03-07T15:53:13Z</time>
      </trkpt>
      <trkpt lat="43.96457" lon="5.14033">
        <ele>448.7</ele>
        <time>2013-03-07T15:53:14Z</time>
      </trkpt>
      <trkpt lat="43.96457" lon="5.14028">
        <ele>448.5</ele>
        <time>2013-03-07T15:53:16Z</time>
      </trkpt>
      <trkpt lat="43.96457" lon="5.14026">
        <ele>449.2</ele>
        <time>2013-03-07T15:53:17Z</time>
      </trkpt>
      <trkpt lat="43.96458" lon="5.14022">
        <ele>449.9</ele>
        <time>2013-03-07T15:53:19Z</time>
      </trkpt>
      <trkpt lat="43.96459" lon="5.14019">
        <ele>450.3</ele>
        <time>2013-03-07T15:53:20Z</time>
      </trkpt>
      <trkpt lat="43.96461" lon="5.14014">
        <ele>451.6</ele>
        <time>2013-03-07T15:53:23Z</time>
      </trkpt>
      <trkpt lat="43.96461" lon="5.14012">
        <ele>451.7</ele>
        <time>2013-03-07T15:53:24Z</time>
      </trkpt>
      <trkpt lat="43.96461" lon="5.14007">
        <ele>451.2</ele>
        <time>2013-03-07T15:53:26Z</time>
      </trkpt>
      <trkpt lat="43.96462" lon="5.14005">
        <ele>451.1</ele>
        <time>2013-03-07T15:53:27Z</time>
      </trkpt>
      <trkpt lat="43.96462" lon="5.13999">
        <ele>450.9</ele>
        <time>2013-03-07T15:53:30Z</time>
      </trkpt>
      <trkpt lat="43.96462" lon="5.13997">
        <ele>450.8</ele>
        <time>2013-03-07T15:53:31Z</time>
      </trkpt>
      <trkpt lat="43.96461" lon="5.13991">
        <ele>451.1</ele>
        <time>2013-03-07T15:53:33Z</time>
      </trkpt>
      <trkpt lat="43.96461" lon="5.13989">
        <ele>451.2</ele>
        <time>2013-03-07T15:53:34Z</time>
      </trkpt>
      <trkpt lat="43.9646" lon="5.13983">
        <ele>451.5</ele>
        <time>2013-03-07T15:53:36Z</time>
      </trkpt>
      <trkpt lat="43.96459" lon="5.1398">
        <ele>451.2</ele>
        <time>2013-03-07T15:53:37Z</time>
      </trkpt>
      <trkpt lat="43.96459" lon="5.13977">
        <ele>451</ele>
        <time>2013-03-07T15:53:38Z</time>
      </trkpt>
      <trkpt lat="43.96458" lon="5.13974">
        <ele>451.1</ele>
        <time>2013-03-07T15:53:39Z</time>
      </trkpt>
      <trkpt lat="43.96457" lon="5.13968">
        <ele>451.2</ele>
        <time>2013-03-07T15:53:41Z</time>
      </trkpt>
      <trkpt lat="43.96456" lon="5.13965">
        <ele>451.4</ele>
        <time>2013-03-07T15:53:42Z</time>
      </trkpt>
      <trkpt lat="43.96406" lon="5.13905">
        <ele>457.1</ele>
        <time>2013-03-07T15:54:11Z</time>
      </trkpt>
      <trkpt lat="43.96405" lon="5.13905">
        <ele>457</ele>
        <time>2013-03-07T15:54:12Z</time>
      </trkpt>
      <trkpt lat="43.96411" lon="5.13904">
        <ele>453.5</ele>
        <time>2013-03-07T15:54:13Z</time>
      </trkpt>
      <trkpt lat="43.96409" lon="5.13899">
        <ele>455.3</ele>
        <time>2013-03-07T15:54:17Z</time>
      </trkpt>
      <trkpt lat="43.96407" lon="5.13897">
        <ele>456.2</ele>
        <time>2013-03-07T15:54:18Z</time>
      </trkpt>
      <trkpt lat="43.96404" lon="5.13893">
        <ele>460</ele>
        <time>2013-03-07T15:54:39Z</time>
      </trkpt>
      <trkpt lat="43.96403" lon="5.13893">
        <ele>460.3</ele>
        <time>2013-03-07T15:54:40Z</time>
      </trkpt>
      <trkpt lat="43.96402" lon="5.13888">
        <ele>462.4</ele>
        <time>2013-03-07T15:54:43Z</time>
      </trkpt>
      <trkpt lat="43.964" lon="5.13888">
        <ele>463</ele>
        <time>2013-03-07T15:54:44Z</time>
      </trkpt>
      <trkpt lat="43.96396" lon="5.13888">
        <ele>462.9</ele>
        <time>2013-03-07T15:54:49Z</time>
      </trkpt>
      <trkpt lat="43.96394" lon="5.13887">
        <ele>462.7</ele>
        <time>2013-03-07T15:54:50Z</time>
      </trkpt>
      <trkpt lat="43.96391" lon="5.13884">
        <ele>462.9</ele>
        <time>2013-03-07T15:54:53Z</time>
      </trkpt>
      <trkpt lat="43.9639" lon="5.13883">
        <ele>463</ele>
        <time>2013-03-07T15:54:54Z</time>
      </trkpt>
      <trkpt lat="43.96387" lon="5.1388">
        <ele>463.6</ele>
        <time>2013-03-07T15:54:57Z</time>
      </trkpt>
      <trkpt lat="43.96386" lon="5.1388">
        <ele>464.1</ele>
        <time>2013-03-07T15:54:58Z</time>
      </trkpt>
      <trkpt lat="43.96382" lon="5.13878">
        <ele>464.7</ele>
        <time>2013-03-07T15:55:01Z</time>
      </trkpt>
      <trkpt lat="43.96381" lon="5.13877">
        <ele>465</ele>
        <time>2013-03-07T15:55:02Z</time>
      </trkpt>
      <trkpt lat="43.96377" lon="5.13876">
        <ele>465.6</ele>
        <time>2013-03-07T15:55:05Z</time>
      </trkpt>
      <trkpt lat="43.96376" lon="5.13875">
        <ele>465.6</ele>
        <time>2013-03-07T15:55:06Z</time>
      </trkpt>
      <trkpt lat="43.96373" lon="5.13872">
        <ele>465.9</ele>
        <time>2013-03-07T15:55:09Z</time>
      </trkpt>
      <trkpt lat="43.96372" lon="5.13872">
        <ele>466.3</ele>
        <time>2013-03-07T15:55:10Z</time>
      </trkpt>
      <trkpt lat="43.96369" lon="5.13869">
        <ele>466.5</ele>
        <time>2013-03-07T15:55:12Z</time>
      </trkpt>
      <trkpt lat="43.96367" lon="5.13868">
        <ele>466.9</ele>
        <time>2013-03-07T15:55:13Z</time>
      </trkpt>
      <trkpt lat="43.96364" lon="5.13866">
        <ele>468.2</ele>
        <time>2013-03-07T15:55:16Z</time>
      </trkpt>
      <trkpt lat="43.96362" lon="5.13865">
        <ele>468.1</ele>
        <time>2013-03-07T15:55:17Z</time>
      </trkpt>
      <trkpt lat="43.96359" lon="5.13862">
        <ele>468</ele>
        <time>2013-03-07T15:55:20Z</time>
      </trkpt>
      <trkpt lat="43.96357" lon="5.13861">
        <ele>468.1</ele>
        <time>2013-03-07T15:55:21Z</time>
      </trkpt>
      <trkpt lat="43.96355" lon="5.13857">
        <ele>469.8</ele>
        <time>2013-03-07T15:55:23Z</time>
      </trkpt>
      <trkpt lat="43.96355" lon="5.13854">
        <ele>471.8</ele>
        <time>2013-03-07T15:55:24Z</time>
      </trkpt>
      <trkpt lat="43.96354" lon="5.13848">
        <ele>474.8</ele>
        <time>2013-03-07T15:55:25Z</time>
      </trkpt>
      <trkpt lat="43.96355" lon="5.13845">
        <ele>475.8</ele>
        <time>2013-03-07T15:55:26Z</time>
      </trkpt>
      <trkpt lat="43.96352" lon="5.13845">
        <ele>476.5</ele>
        <time>2013-03-07T15:55:28Z</time>
      </trkpt>
      <trkpt lat="43.96349" lon="5.13847">
        <ele>476.4</ele>
        <time>2013-03-07T15:55:29Z</time>
      </trkpt>
      <trkpt lat="43.96347" lon="5.13841">
        <ele>482.8</ele>
        <time>2013-03-07T15:55:30Z</time>
      </trkpt>
      <trkpt lat="43.96346" lon="5.13842">
        <ele>483.1</ele>
        <time>2013-03-07T15:55:31Z</time>
      </trkpt>
      <trkpt lat="43.96343" lon="5.13845">
        <ele>480.1</ele>
        <time>2013-03-07T15:55:34Z</time>
      </trkpt>
      <trkpt lat="43.96342" lon="5.13844">
        <ele>480.3</ele>
        <time>2013-03-07T15:55:35Z</time>
      </trkpt>
      <trkpt lat="43.96337" lon="5.13843">
        <ele>480.1</ele>
        <time>2013-03-07T15:55:37Z</time>
      </trkpt>
      <trkpt lat="43.96336" lon="5.13842">
        <ele>480.1</ele>
        <time>2013-03-07T15:55:38Z</time>
      </trkpt>
      <trkpt lat="43.96332" lon="5.1384">
        <ele>480</ele>
        <time>2013-03-07T15:55:41Z</time>
      </trkpt>
      <trkpt lat="43.96331" lon="5.13839">
        <ele>480</ele>
        <time>2013-03-07T15:55:42Z</time>
      </trkpt>
      <trkpt lat="43.96328" lon="5.13838">
        <ele>479.8</ele>
        <time>2013-03-07T15:55:44Z</time>
      </trkpt>
      <trkpt lat="43.96326" lon="5.13837">
        <ele>479.7</ele>
        <time>2013-03-07T15:55:45Z</time>
      </trkpt>
      <trkpt lat="43.96322" lon="5.13835">
        <ele>479.6</ele>
        <time>2013-03-07T15:55:48Z</time>
      </trkpt>
      <trkpt lat="43.96321" lon="5.13835">
        <ele>479.7</ele>
        <time>2013-03-07T15:55:49Z</time>
      </trkpt>
      <trkpt lat="43.96316" lon="5.13833">
        <ele>479.7</ele>
        <time>2013-03-07T15:55:52Z</time>
      </trkpt>
      <trkpt lat="43.96315" lon="5.13832">
        <ele>480.1</ele>
        <time>2013-03-07T15:55:53Z</time>
      </trkpt>
      <trkpt lat="43.96312" lon="5.13829">
        <ele>479.9</ele>
        <time>2013-03-07T15:55:56Z</time>
      </trkpt>
      <trkpt lat="43.9631" lon="5.13828">
        <ele>480.1</ele>
        <time>2013-03-07T15:55:57Z</time>
      </trkpt>
      <trkpt lat="43.96307" lon="5.13826">
        <ele>480.2</ele>
        <time>2013-03-07T15:56:00Z</time>
      </trkpt>
      <trkpt lat="43.96305" lon="5.13825">
        <ele>480.2</ele>
        <time>2013-03-07T15:56:01Z</time>
      </trkpt>
      <trkpt lat="43.96302" lon="5.13824">
        <ele>479.3</ele>
        <time>2013-03-07T15:56:04Z</time>
      </trkpt>
      <trkpt lat="43.96301" lon="5.13823">
        <ele>479.6</ele>
        <time>2013-03-07T15:56:05Z</time>
      </trkpt>
      <trkpt lat="43.96297" lon="5.13821">
        <ele>479.9</ele>
        <time>2013-03-07T15:56:08Z</time>
      </trkpt>
      <trkpt lat="43.96296" lon="5.1382">
        <ele>479.8</ele>
        <time>2013-03-07T15:56:09Z</time>
      </trkpt>
      <trkpt lat="43.96293" lon="5.13818">
        <ele>479.9</ele>
        <time>2013-03-07T15:56:12Z</time>
      </trkpt>
      <trkpt lat="43.96291" lon="5.13818">
        <ele>480.1</ele>
        <time>2013-03-07T15:56:13Z</time>
      </trkpt>
      <trkpt lat="43.96288" lon="5.13816">
        <ele>480.1</ele>
        <time>2013-03-07T15:56:16Z</time>
      </trkpt>
      <trkpt lat="43.96286" lon="5.13815">
        <ele>480.2</ele>
        <time>2013-03-07T15:56:17Z</time>
      </trkpt>
      <trkpt lat="43.96283" lon="5.13812">
        <ele>480.5</ele>
        <time>2013-03-07T15:56:20Z</time>
      </trkpt>
      <trkpt lat="43.96282" lon="5.13811">
        <ele>480.5</ele>
        <time>2013-03-07T15:56:21Z</time>
      </trkpt>
      <trkpt lat="43.96278" lon="5.13809">
        <ele>480.5</ele>
        <time>2013-03-07T15:56:24Z</time>
      </trkpt>
      <trkpt lat="43.96276" lon="5.13808">
        <ele>480.5</ele>
        <time>2013-03-07T15:56:25Z</time>
      </trkpt>
      <trkpt lat="43.96272" lon="5.13806">
        <ele>481.1</ele>
        <time>2013-03-07T15:56:28Z</time>
      </trkpt>
      <trkpt lat="43.96271" lon="5.13805">
        <ele>481.3</ele>
        <time>2013-03-07T15:56:29Z</time>
      </trkpt>
      <trkpt lat="43.96268" lon="5.13803">
        <ele>481.3</ele>
        <time>2013-03-07T15:56:31Z</time>
      </trkpt>
      <trkpt lat="43.96267" lon="5.13802">
        <ele>481.6</ele>
        <time>2013-03-07T15:56:32Z</time>
      </trkpt>
      <trkpt lat="43.96263" lon="5.13799">
        <ele>481.7</ele>
        <time>2013-03-07T15:56:35Z</time>
      </trkpt>
      <trkpt lat="43.96261" lon="5.13798">
        <ele>481.7</ele>
        <time>2013-03-07T15:56:36Z</time>
      </trkpt>
      <trkpt lat="43.96258" lon="5.13795">
        <ele>482</ele>
        <time>2013-03-07T15:56:38Z</time>
      </trkpt>
      <trkpt lat="43.96255" lon="5.13796">
        <ele>482.3</ele>
        <time>2013-03-07T15:56:39Z</time>
      </trkpt>
      <trkpt lat="43.96253" lon="5.13793">
        <ele>482.7</ele>
        <time>2013-03-07T15:56:43Z</time>
      </trkpt>
      <trkpt lat="43.96252" lon="5.13792">
        <ele>482.2</ele>
        <time>2013-03-07T15:56:44Z</time>
      </trkpt>
      <trkpt lat="43.96249" lon="5.1379">
        <ele>482</ele>
        <time>2013-03-07T15:56:47Z</time>
      </trkpt>
      <trkpt lat="43.96248" lon="5.13789">
        <ele>482</ele>
        <time>2013-03-07T15:56:48Z</time>
      </trkpt>
      <trkpt lat="43.96244" lon="5.13786">
        <ele>481.8</ele>
        <time>2013-03-07T15:56:51Z</time>
      </trkpt>
      <trkpt lat="43.96243" lon="5.13785">
        <ele>481.6</ele>
        <time>2013-03-07T15:56:52Z</time>
      </trkpt>
      <trkpt lat="43.9624" lon="5.13783">
        <ele>481.7</ele>
        <time>2013-03-07T15:56:55Z</time>
      </trkpt>
      <trkpt lat="43.96239" lon="5.13782">
        <ele>481.6</ele>
        <time>2013-03-07T15:56:56Z</time>
      </trkpt>
      <trkpt lat="43.96236" lon="5.1378">
        <ele>481.9</ele>
        <time>2013-03-07T15:56:59Z</time>
      </trkpt>
      <trkpt lat="43.96235" lon="5.13778">
        <ele>481.9</ele>
        <time>2013-03-07T15:57:00Z</time>
      </trkpt>
      <trkpt lat="43.96231" lon="5.13775">
        <ele>481.9</ele>
        <time>2013-03-07T15:57:03Z</time>
      </trkpt>
      <trkpt lat="43.9623" lon="5.13774">
        <ele>482</ele>
        <time>2013-03-07T15:57:04Z</time>
      </trkpt>
      <trkpt lat="43.96227" lon="5.13772">
        <ele>482.5</ele>
        <time>2013-03-07T15:57:07Z</time>
      </trkpt>
      <trkpt lat="43.96226" lon="5.13771">
        <ele>482.8</ele>
        <time>2013-03-07T15:57:08Z</time>
      </trkpt>
      <trkpt lat="43.96222" lon="5.13768">
        <ele>483.1</ele>
        <time>2013-03-07T15:57:11Z</time>
      </trkpt>
      <trkpt lat="43.96221" lon="5.13767">
        <ele>483.3</ele>
        <time>2013-03-07T15:57:12Z</time>
      </trkpt>
      <trkpt lat="43.96217" lon="5.13764">
        <ele>483.6</ele>
        <time>2013-03-07T15:57:16Z</time>
      </trkpt>
      <trkpt lat="43.96216" lon="5.13763">
        <ele>483.6</ele>
        <time>2013-03-07T15:57:17Z</time>
      </trkpt>
      <trkpt lat="43.96212" lon="5.1376">
        <ele>483.9</ele>
        <time>2013-03-07T15:57:20Z</time>
      </trkpt>
      <trkpt lat="43.96211" lon="5.1376">
        <ele>484.1</ele>
        <time>2013-03-07T15:57:21Z</time>
      </trkpt>
      <trkpt lat="43.96207" lon="5.13756">
        <ele>484.8</ele>
        <time>2013-03-07T15:57:24Z</time>
      </trkpt>
      <trkpt lat="43.96207" lon="5.13755">
        <ele>485.5</ele>
        <time>2013-03-07T15:57:25Z</time>
      </trkpt>
      <trkpt lat="43.96204" lon="5.13751">
        <ele>486.6</ele>
        <time>2013-03-07T15:57:29Z</time>
      </trkpt>
      <trkpt lat="43.96203" lon="5.13749">
        <ele>486.7</ele>
        <time>2013-03-07T15:57:30Z</time>
      </trkpt>
      <trkpt lat="43.96199" lon="5.13749">
        <ele>487.2</ele>
        <time>2013-03-07T15:57:32Z</time>
      </trkpt>
      <trkpt lat="43.96198" lon="5.13748">
        <ele>487.4</ele>
        <time>2013-03-07T15:57:33Z</time>
      </trkpt>
      <trkpt lat="43.96196" lon="5.13746">
        <ele>487.1</ele>
        <time>2013-03-07T15:57:35Z</time>
      </trkpt>
      <trkpt lat="43.96194" lon="5.13744">
        <ele>487</ele>
        <time>2013-03-07T15:57:36Z</time>
      </trkpt>
      <trkpt lat="43.96191" lon="5.1374">
        <ele>487.5</ele>
        <time>2013-03-07T15:57:39Z</time>
      </trkpt>
      <trkpt lat="43.96189" lon="5.1374">
        <ele>487.4</ele>
        <time>2013-03-07T15:57:40Z</time>
      </trkpt>
      <trkpt lat="43.96186" lon="5.13736">
        <ele>488.4</ele>
        <time>2013-03-07T15:57:43Z</time>
      </trkpt>
      <trkpt lat="43.96184" lon="5.13735">
        <ele>488.4</ele>
        <time>2013-03-07T15:57:44Z</time>
      </trkpt>
      <trkpt lat="43.96181" lon="5.13733">
        <ele>488.7</ele>
        <time>2013-03-07T15:57:47Z</time>
      </trkpt>
      <trkpt lat="43.9618" lon="5.13733">
        <ele>488.9</ele>
        <time>2013-03-07T15:57:48Z</time>
      </trkpt>
      <trkpt lat="43.96176" lon="5.1373">
        <ele>489.5</ele>
        <time>2013-03-07T15:57:51Z</time>
      </trkpt>
      <trkpt lat="43.96175" lon="5.13729">
        <ele>489.8</ele>
        <time>2013-03-07T15:57:52Z</time>
      </trkpt>
      <trkpt lat="43.96172" lon="5.13727">
        <ele>490.7</ele>
        <time>2013-03-07T15:57:54Z</time>
      </trkpt>
      <trkpt lat="43.9617" lon="5.13727">
        <ele>490.8</ele>
        <time>2013-03-07T15:57:55Z</time>
      </trkpt>
      <trkpt lat="43.96166" lon="5.13725">
        <ele>491.6</ele>
        <time>2013-03-07T15:57:58Z</time>
      </trkpt>
      <trkpt lat="43.96165" lon="5.13724">
        <ele>491.8</ele>
        <time>2013-03-07T15:57:59Z</time>
      </trkpt>
      <trkpt lat="43.9616" lon="5.13724">
        <ele>491.9</ele>
        <time>2013-03-07T15:58:01Z</time>
      </trkpt>
      <trkpt lat="43.96158" lon="5.13724">
        <ele>492</ele>
        <time>2013-03-07T15:58:02Z</time>
      </trkpt>
      <trkpt lat="43.96157" lon="5.13725">
        <ele>492.4</ele>
        <time>2013-03-07T15:58:03Z</time>
      </trkpt>
      <trkpt lat="43.96159" lon="5.13733">
        <ele>492.7</ele>
        <time>2013-03-07T15:58:04Z</time>
      </trkpt>
      <trkpt lat="43.9616" lon="5.13738">
        <ele>492.5</ele>
        <time>2013-03-07T15:58:06Z</time>
      </trkpt>
      <trkpt lat="43.9616" lon="5.1374">
        <ele>492.6</ele>
        <time>2013-03-07T15:58:07Z</time>
      </trkpt>
      <trkpt lat="43.96162" lon="5.13744">
        <ele>493</ele>
        <time>2013-03-07T15:58:09Z</time>
      </trkpt>
      <trkpt lat="43.96162" lon="5.13746">
        <ele>493.3</ele>
        <time>2013-03-07T15:58:10Z</time>
      </trkpt>
      <trkpt lat="43.96164" lon="5.13749">
        <ele>490.9</ele>
        <time>2013-03-07T16:01:42Z</time>
      </trkpt>
      <trkpt lat="43.96166" lon="5.1375">
        <ele>490.3</ele>
        <time>2013-03-07T16:01:43Z</time>
      </trkpt>
      <trkpt lat="43.96169" lon="5.13752">
        <ele>489.7</ele>
        <time>2013-03-07T16:01:45Z</time>
      </trkpt>
      <trkpt lat="43.96171" lon="5.13754">
        <ele>489.8</ele>
        <time>2013-03-07T16:01:46Z</time>
      </trkpt>
      <trkpt lat="43.96174" lon="5.13757">
        <ele>489.3</ele>
        <time>2013-03-07T16:01:48Z</time>
      </trkpt>
      <trkpt lat="43.96176" lon="5.13758">
        <ele>490</ele>
        <time>2013-03-07T16:01:49Z</time>
      </trkpt>
      <trkpt lat="43.96179" lon="5.13762">
        <ele>490.2</ele>
        <time>2013-03-07T16:01:51Z</time>
      </trkpt>
      <trkpt lat="43.96181" lon="5.13764">
        <ele>490.3</ele>
        <time>2013-03-07T16:01:52Z</time>
      </trkpt>
      <trkpt lat="43.96184" lon="5.13767">
        <ele>490.6</ele>
        <time>2013-03-07T16:01:54Z</time>
      </trkpt>
      <trkpt lat="43.96186" lon="5.13769">
        <ele>490.8</ele>
        <time>2013-03-07T16:01:55Z</time>
      </trkpt>
      <trkpt lat="43.96189" lon="5.13772">
        <ele>491.2</ele>
        <time>2013-03-07T16:01:57Z</time>
      </trkpt>
      <trkpt lat="43.96191" lon="5.13774">
        <ele>491.1</ele>
        <time>2013-03-07T16:01:58Z</time>
      </trkpt>
      <trkpt lat="43.96193" lon="5.13778">
        <ele>491.9</ele>
        <time>2013-03-07T16:02:00Z</time>
      </trkpt>
      <trkpt lat="43.96194" lon="5.13779">
        <ele>491.4</ele>
        <time>2013-03-07T16:02:01Z</time>
      </trkpt>
      <trkpt lat="43.96194" lon="5.13783">
        <ele>491.6</ele>
        <time>2013-03-07T16:02:03Z</time>
      </trkpt>
      <trkpt lat="43.96193" lon="5.13785">
        <ele>491.9</ele>
        <time>2013-03-07T16:02:04Z</time>
      </trkpt>
      <trkpt lat="43.9619" lon="5.13787">
        <ele>492.4</ele>
        <time>2013-03-07T16:02:06Z</time>
      </trkpt>
      <trkpt lat="43.96189" lon="5.13788">
        <ele>492.5</ele>
        <time>2013-03-07T16:02:07Z</time>
      </trkpt>
      <trkpt lat="43.96185" lon="5.13788">
        <ele>493.7</ele>
        <time>2013-03-07T16:02:10Z</time>
      </trkpt>
      <trkpt lat="43.96183" lon="5.13787">
        <ele>494</ele>
        <time>2013-03-07T16:02:11Z</time>
      </trkpt>
      <trkpt lat="43.9618" lon="5.13784">
        <ele>494.6</ele>
        <time>2013-03-07T16:02:14Z</time>
      </trkpt>
      <trkpt lat="43.96179" lon="5.13782">
        <ele>494.8</ele>
        <time>2013-03-07T16:02:15Z</time>
      </trkpt>
      <trkpt lat="43.96175" lon="5.13779">
        <ele>495.4</ele>
        <time>2013-03-07T16:02:18Z</time>
      </trkpt>
      <trkpt lat="43.96174" lon="5.13778">
        <ele>495.7</ele>
        <time>2013-03-07T16:02:19Z</time>
      </trkpt>
      <trkpt lat="43.9617" lon="5.13775">
        <ele>496.3</ele>
        <time>2013-03-07T16:02:22Z</time>
      </trkpt>
      <trkpt lat="43.96169" lon="5.13773">
        <ele>496.5</ele>
        <time>2013-03-07T16:02:23Z</time>
      </trkpt>
      <trkpt lat="43.96165" lon="5.1377">
        <ele>496.5</ele>
        <time>2013-03-07T16:02:26Z</time>
      </trkpt>
      <trkpt lat="43.96164" lon="5.13769">
        <ele>496.8</ele>
        <time>2013-03-07T16:02:27Z</time>
      </trkpt>
      <trkpt lat="43.96161" lon="5.13766">
        <ele>496.6</ele>
        <time>2013-03-07T16:02:30Z</time>
      </trkpt>
      <trkpt lat="43.96159" lon="5.13765">
        <ele>496.7</ele>
        <time>2013-03-07T16:02:31Z</time>
      </trkpt>
      <trkpt lat="43.96155" lon="5.13762">
        <ele>497.2</ele>
        <time>2013-03-07T16:02:34Z</time>
      </trkpt>
      <trkpt lat="43.96154" lon="5.13763">
        <ele>497.5</ele>
        <time>2013-03-07T16:02:35Z</time>
      </trkpt>
      <trkpt lat="43.96154" lon="5.13769">
        <ele>497.8</ele>
        <time>2013-03-07T16:02:45Z</time>
      </trkpt>
      <trkpt lat="43.96155" lon="5.1377">
        <ele>498.1</ele>
        <time>2013-03-07T16:02:46Z</time>
      </trkpt>
      <trkpt lat="43.96157" lon="5.13775">
        <ele>498.4</ele>
        <time>2013-03-07T16:02:50Z</time>
      </trkpt>
      <trkpt lat="43.96157" lon="5.13776">
        <ele>498.5</ele>
        <time>2013-03-07T16:02:51Z</time>
      </trkpt>
      <trkpt lat="43.96159" lon="5.13781">
        <ele>498.9</ele>
        <time>2013-03-07T16:02:56Z</time>
      </trkpt>
      <trkpt lat="43.96159" lon="5.13782">
        <ele>499.5</ele>
        <time>2013-03-07T16:02:57Z</time>
      </trkpt>
      <trkpt lat="43.96162" lon="5.13786">
        <ele>499.2</ele>
        <time>2013-03-07T16:03:06Z</time>
      </trkpt>
      <trkpt lat="43.96162" lon="5.13788">
        <ele>499</ele>
        <time>2013-03-07T16:03:07Z</time>
      </trkpt>
      <trkpt lat="43.96165" lon="5.13792">
        <ele>499.6</ele>
        <time>2013-03-07T16:03:10Z</time>
      </trkpt>
      <trkpt lat="43.96166" lon="5.13793">
        <ele>499.8</ele>
        <time>2013-03-07T16:03:11Z</time>
      </trkpt>
      <trkpt lat="43.96169" lon="5.13797">
        <ele>499.4</ele>
        <time>2013-03-07T16:03:14Z</time>
      </trkpt>
      <trkpt lat="43.9617" lon="5.13798">
        <ele>499.7</ele>
        <time>2013-03-07T16:03:15Z</time>
      </trkpt>
      <trkpt lat="43.96173" lon="5.13801">
        <ele>500.1</ele>
        <time>2013-03-07T16:03:18Z</time>
      </trkpt>
      <trkpt lat="43.96174" lon="5.13802">
        <ele>500.2</ele>
        <time>2013-03-07T16:03:19Z</time>
      </trkpt>
      <trkpt lat="43.96177" lon="5.13805">
        <ele>500.4</ele>
        <time>2013-03-07T16:03:21Z</time>
      </trkpt>
      <trkpt lat="43.96178" lon="5.13806">
        <ele>500.8</ele>
        <time>2013-03-07T16:03:22Z</time>
      </trkpt>
      <trkpt lat="43.9618" lon="5.13809">
        <ele>500.7</ele>
        <time>2013-03-07T16:03:24Z</time>
      </trkpt>
      <trkpt lat="43.96182" lon="5.13811">
        <ele>500.6</ele>
        <time>2013-03-07T16:03:25Z</time>
      </trkpt>
      <trkpt lat="43.96185" lon="5.13815">
        <ele>501.5</ele>
        <time>2013-03-07T16:03:28Z</time>
      </trkpt>
      <trkpt lat="43.96185" lon="5.13816">
        <ele>501.9</ele>
        <time>2013-03-07T16:03:29Z</time>
      </trkpt>
      <trkpt lat="43.96188" lon="5.13818">
        <ele>502.2</ele>
        <time>2013-03-07T16:03:31Z</time>
      </trkpt>
      <trkpt lat="43.96189" lon="5.1382">
        <ele>502.8</ele>
        <time>2013-03-07T16:03:32Z</time>
      </trkpt>
      <trkpt lat="43.96191" lon="5.13825">
        <ele>502.7</ele>
        <time>2013-03-07T16:03:35Z</time>
      </trkpt>
      <trkpt lat="43.96192" lon="5.13826">
        <ele>502.9</ele>
        <time>2013-03-07T16:03:36Z</time>
      </trkpt>
      <trkpt lat="43.96194" lon="5.13831">
        <ele>503.4</ele>
        <time>2013-03-07T16:03:39Z</time>
      </trkpt>
      <trkpt lat="43.96195" lon="5.13832">
        <ele>503.3</ele>
        <time>2013-03-07T16:03:40Z</time>
      </trkpt>
      <trkpt lat="43.96198" lon="5.13836">
        <ele>503.4</ele>
        <time>2013-03-07T16:03:43Z</time>
      </trkpt>
      <trkpt lat="43.96202" lon="5.13843">
        <ele>505.4</ele>
        <time>2013-03-07T16:03:48Z</time>
      </trkpt>
      <trkpt lat="43.96204" lon="5.13847">
        <ele>506.1</ele>
        <time>2013-03-07T16:03:51Z</time>
      </trkpt>
      <trkpt lat="43.96204" lon="5.13849">
        <ele>506.9</ele>
        <time>2013-03-07T16:03:52Z</time>
      </trkpt>
      <trkpt lat="43.96204" lon="5.13854">
        <ele>507.2</ele>
        <time>2013-03-07T16:03:55Z</time>
      </trkpt>
      <trkpt lat="43.96204" lon="5.13856">
        <ele>507.6</ele>
        <time>2013-03-07T16:03:56Z</time>
      </trkpt>
      <trkpt lat="43.96204" lon="5.13862">
        <ele>509</ele>
        <time>2013-03-07T16:04:00Z</time>
      </trkpt>
      <trkpt lat="43.96205" lon="5.13863">
        <ele>508.9</ele>
        <time>2013-03-07T16:04:01Z</time>
      </trkpt>
      <trkpt lat="43.96206" lon="5.13869">
        <ele>509.8</ele>
        <time>2013-03-07T16:04:10Z</time>
      </trkpt>
      <trkpt lat="43.96206" lon="5.1387">
        <ele>510</ele>
        <time>2013-03-07T16:04:11Z</time>
      </trkpt>
      <trkpt lat="43.9621" lon="5.13873">
        <ele>509.3</ele>
        <time>2013-03-07T16:05:58Z</time>
      </trkpt>
      <trkpt lat="43.9621" lon="5.13874">
        <ele>509</ele>
        <time>2013-03-07T16:05:59Z</time>
      </trkpt>
      <trkpt lat="43.96213" lon="5.13872">
        <ele>510.3</ele>
        <time>2013-03-07T16:06:17Z</time>
      </trkpt>
      <trkpt lat="43.96214" lon="5.13874">
        <ele>510.6</ele>
        <time>2013-03-07T16:06:18Z</time>
      </trkpt>
      <trkpt lat="43.96216" lon="5.13878">
        <ele>510.6</ele>
        <time>2013-03-07T16:06:21Z</time>
      </trkpt>
      <trkpt lat="43.96217" lon="5.13879">
        <ele>510.9</ele>
        <time>2013-03-07T16:06:22Z</time>
      </trkpt>
      <trkpt lat="43.9622" lon="5.13878">
        <ele>512.3</ele>
        <time>2013-03-07T16:06:27Z</time>
      </trkpt>
      <trkpt lat="43.96222" lon="5.13878">
        <ele>511.9</ele>
        <time>2013-03-07T16:06:28Z</time>
      </trkpt>
      <trkpt lat="43.96225" lon="5.13878">
        <ele>511</ele>
        <time>2013-03-07T16:06:30Z</time>
      </trkpt>
      <trkpt lat="43.96227" lon="5.13878">
        <ele>510.7</ele>
        <time>2013-03-07T16:06:31Z</time>
      </trkpt>
      <trkpt lat="43.96223" lon="5.13878">
        <ele>508.3</ele>
        <time>2013-03-07T16:06:49Z</time>
      </trkpt>
      <trkpt lat="43.96222" lon="5.13878">
        <ele>508.9</ele>
        <time>2013-03-07T16:06:50Z</time>
      </trkpt>
      <trkpt lat="43.96218" lon="5.13875">
        <ele>507.9</ele>
        <time>2013-03-07T16:06:54Z</time>
      </trkpt>
      <trkpt lat="43.96217" lon="5.13874">
        <ele>508.2</ele>
        <time>2013-03-07T16:06:55Z</time>
      </trkpt>
      <trkpt lat="43.96214" lon="5.13871">
        <ele>510.6</ele>
        <time>2013-03-07T16:06:58Z</time>
      </trkpt>
      <trkpt lat="43.96213" lon="5.13872">
        <ele>510.6</ele>
        <time>2013-03-07T16:06:59Z</time>
      </trkpt>
      <trkpt lat="43.9621" lon="5.13875">
        <ele>511.9</ele>
        <time>2013-03-07T16:07:04Z</time>
      </trkpt>
      <trkpt lat="43.96209" lon="5.13876">
        <ele>512</ele>
        <time>2013-03-07T16:07:05Z</time>
      </trkpt>
      <trkpt lat="43.96206" lon="5.13879">
        <ele>512.9</ele>
        <time>2013-03-07T16:07:10Z</time>
      </trkpt>
      <trkpt lat="43.96205" lon="5.1388">
        <ele>513.2</ele>
        <time>2013-03-07T16:07:11Z</time>
      </trkpt>
      <trkpt lat="43.96202" lon="5.13884">
        <ele>515</ele>
        <time>2013-03-07T16:07:18Z</time>
      </trkpt>
      <trkpt lat="43.96201" lon="5.13885">
        <ele>515.2</ele>
        <time>2013-03-07T16:07:19Z</time>
      </trkpt>
      <trkpt lat="43.962" lon="5.1389">
        <ele>516.6</ele>
        <time>2013-03-07T16:07:25Z</time>
      </trkpt>
      <trkpt lat="43.962" lon="5.13891">
        <ele>516.7</ele>
        <time>2013-03-07T16:07:26Z</time>
      </trkpt>
      <trkpt lat="43.962" lon="5.13897">
        <ele>518.7</ele>
        <time>2013-03-07T16:07:32Z</time>
      </trkpt>
      <trkpt lat="43.962" lon="5.13898">
        <ele>518.9</ele>
        <time>2013-03-07T16:07:33Z</time>
      </trkpt>
      <trkpt lat="43.96203" lon="5.13902">
        <ele>519.4</ele>
        <time>2013-03-07T16:07:38Z</time>
      </trkpt>
      <trkpt lat="43.96203" lon="5.13903">
        <ele>520.1</ele>
        <time>2013-03-07T16:07:39Z</time>
      </trkpt>
      <trkpt lat="43.96205" lon="5.13907">
        <ele>520.7</ele>
        <time>2013-03-07T16:07:43Z</time>
      </trkpt>
      <trkpt lat="43.96206" lon="5.13908">
        <ele>520</ele>
        <time>2013-03-07T16:07:44Z</time>
      </trkpt>
      <trkpt lat="43.96209" lon="5.13913">
        <ele>519.9</ele>
        <time>2013-03-07T16:07:48Z</time>
      </trkpt>
      <trkpt lat="43.96209" lon="5.13913">
        <ele>520.2</ele>
        <time>2013-03-07T16:07:49Z</time>
      </trkpt>
      <trkpt lat="43.96211" lon="5.13918">
        <ele>519.6</ele>
        <time>2013-03-07T16:07:58Z</time>
      </trkpt>
      <trkpt lat="43.96212" lon="5.13919">
        <ele>519.6</ele>
        <time>2013-03-07T16:07:59Z</time>
      </trkpt>
      <trkpt lat="43.96214" lon="5.13921">
        <ele>519.9</ele>
        <time>2013-03-07T16:08:01Z</time>
      </trkpt>
      <trkpt lat="43.96216" lon="5.13923">
        <ele>520</ele>
        <time>2013-03-07T16:08:02Z</time>
      </trkpt>
      <trkpt lat="43.96219" lon="5.13926">
        <ele>519.9</ele>
        <time>2013-03-07T16:08:04Z</time>
      </trkpt>
      <trkpt lat="43.9622" lon="5.13928">
        <ele>520.3</ele>
        <time>2013-03-07T16:08:05Z</time>
      </trkpt>
      <trkpt lat="43.96223" lon="5.13931">
        <ele>520</ele>
        <time>2013-03-07T16:08:07Z</time>
      </trkpt>
      <trkpt lat="43.96224" lon="5.13932">
        <ele>519.1</ele>
        <time>2013-03-07T16:08:08Z</time>
      </trkpt>
      <trkpt lat="43.96227" lon="5.13935">
        <ele>518.9</ele>
        <time>2013-03-07T16:08:10Z</time>
      </trkpt>
      <trkpt lat="43.96229" lon="5.13937">
        <ele>518.9</ele>
        <time>2013-03-07T16:08:11Z</time>
      </trkpt>
      <trkpt lat="43.96231" lon="5.1394">
        <ele>520.1</ele>
        <time>2013-03-07T16:08:13Z</time>
      </trkpt>
      <trkpt lat="43.96232" lon="5.13942">
        <ele>519.7</ele>
        <time>2013-03-07T16:08:14Z</time>
      </trkpt>
      <trkpt lat="43.96234" lon="5.13947">
        <ele>520.3</ele>
        <time>2013-03-07T16:08:17Z</time>
      </trkpt>
      <trkpt lat="43.96235" lon="5.13948">
        <ele>520.5</ele>
        <time>2013-03-07T16:08:18Z</time>
      </trkpt>
      <trkpt lat="43.96237" lon="5.13952">
        <ele>520.9</ele>
        <time>2013-03-07T16:08:20Z</time>
      </trkpt>
      <trkpt lat="43.96238" lon="5.13953">
        <ele>520.2</ele>
        <time>2013-03-07T16:08:21Z</time>
      </trkpt>
      <trkpt lat="43.96239" lon="5.13958">
        <ele>521.8</ele>
        <time>2013-03-07T16:08:24Z</time>
      </trkpt>
      <trkpt lat="43.9624" lon="5.1396">
        <ele>521.5</ele>
        <time>2013-03-07T16:08:25Z</time>
      </trkpt>
      <trkpt lat="43.96242" lon="5.13964">
        <ele>521.9</ele>
        <time>2013-03-07T16:08:27Z</time>
      </trkpt>
      <trkpt lat="43.96243" lon="5.13966">
        <ele>522.3</ele>
        <time>2013-03-07T16:08:28Z</time>
      </trkpt>
      <trkpt lat="43.96244" lon="5.1397">
        <ele>522.4</ele>
        <time>2013-03-07T16:08:30Z</time>
      </trkpt>
      <trkpt lat="43.96244" lon="5.13972">
        <ele>522.5</ele>
        <time>2013-03-07T16:08:31Z</time>
      </trkpt>
      <trkpt lat="43.96246" lon="5.13976">
        <ele>523</ele>
        <time>2013-03-07T16:08:33Z</time>
      </trkpt>
      <trkpt lat="43.96248" lon="5.13978">
        <ele>522.9</ele>
        <time>2013-03-07T16:08:34Z</time>
      </trkpt>
      <trkpt lat="43.96249" lon="5.13981">
        <ele>523.1</ele>
        <time>2013-03-07T16:08:36Z</time>
      </trkpt>
      <trkpt lat="43.9625" lon="5.13983">
        <ele>522.9</ele>
        <time>2013-03-07T16:08:37Z</time>
      </trkpt>
      <trkpt lat="43.96251" lon="5.13987">
        <ele>523.1</ele>
        <time>2013-03-07T16:08:39Z</time>
      </trkpt>
      <trkpt lat="43.96252" lon="5.13989">
        <ele>523.1</ele>
        <time>2013-03-07T16:08:40Z</time>
      </trkpt>
      <trkpt lat="43.96255" lon="5.13992">
        <ele>521.8</ele>
        <time>2013-03-07T16:08:43Z</time>
      </trkpt>
      <trkpt lat="43.96257" lon="5.13993">
        <ele>521.7</ele>
        <time>2013-03-07T16:08:44Z</time>
      </trkpt>
      <trkpt lat="43.96259" lon="5.13995">
        <ele>521.7</ele>
        <time>2013-03-07T16:08:46Z</time>
      </trkpt>
      <trkpt lat="43.96261" lon="5.13997">
        <ele>522.1</ele>
        <time>2013-03-07T16:08:47Z</time>
      </trkpt>
      <trkpt lat="43.96265" lon="5.13999">
        <ele>521.5</ele>
        <time>2013-03-07T16:08:49Z</time>
      </trkpt>
      <trkpt lat="43.96266" lon="5.14">
        <ele>521.3</ele>
        <time>2013-03-07T16:08:50Z</time>
      </trkpt>
      <trkpt lat="43.96268" lon="5.14005">
        <ele>522.2</ele>
        <time>2013-03-07T16:08:52Z</time>
      </trkpt>
      <trkpt lat="43.96269" lon="5.14006">
        <ele>522.4</ele>
        <time>2013-03-07T16:08:53Z</time>
      </trkpt>
      <trkpt lat="43.96273" lon="5.14008">
        <ele>522</ele>
        <time>2013-03-07T16:08:55Z</time>
      </trkpt>
      <trkpt lat="43.96275" lon="5.14009">
        <ele>521.9</ele>
        <time>2013-03-07T16:08:56Z</time>
      </trkpt>
      <trkpt lat="43.96276" lon="5.14014">
        <ele>523.9</ele>
        <time>2013-03-07T16:08:59Z</time>
      </trkpt>
      <trkpt lat="43.96277" lon="5.14016">
        <ele>524.1</ele>
        <time>2013-03-07T16:09:00Z</time>
      </trkpt>
      <trkpt lat="43.96278" lon="5.14021">
        <ele>524.1</ele>
        <time>2013-03-07T16:09:02Z</time>
      </trkpt>
      <trkpt lat="43.96279" lon="5.14023">
        <ele>524.3</ele>
        <time>2013-03-07T16:09:03Z</time>
      </trkpt>
      <trkpt lat="43.96282" lon="5.14028">
        <ele>525.3</ele>
        <time>2013-03-07T16:09:05Z</time>
      </trkpt>
      <trkpt lat="43.96283" lon="5.1403">
        <ele>525.7</ele>
        <time>2013-03-07T16:09:06Z</time>
      </trkpt>
      <trkpt lat="43.96284" lon="5.14033">
        <ele>525.3</ele>
        <time>2013-03-07T16:09:07Z</time>
      </trkpt>
      <trkpt lat="43.96286" lon="5.14035">
        <ele>525.1</ele>
        <time>2013-03-07T16:09:08Z</time>
      </trkpt>
      <trkpt lat="43.96288" lon="5.14039">
        <ele>524.9</ele>
        <time>2013-03-07T16:09:10Z</time>
      </trkpt>
      <trkpt lat="43.96289" lon="5.14041">
        <ele>525</ele>
        <time>2013-03-07T16:09:11Z</time>
      </trkpt>
      <trkpt lat="43.96292" lon="5.14045">
        <ele>524</ele>
        <time>2013-03-07T16:09:13Z</time>
      </trkpt>
      <trkpt lat="43.96293" lon="5.14048">
        <ele>523.9</ele>
        <time>2013-03-07T16:09:14Z</time>
      </trkpt>
      <trkpt lat="43.96294" lon="5.14052">
        <ele>524.1</ele>
        <time>2013-03-07T16:09:16Z</time>
      </trkpt>
      <trkpt lat="43.96295" lon="5.14055">
        <ele>523.9</ele>
        <time>2013-03-07T16:09:17Z</time>
      </trkpt>
      <trkpt lat="43.96296" lon="5.14059">
        <ele>523.4</ele>
        <time>2013-03-07T16:09:19Z</time>
      </trkpt>
      <trkpt lat="43.96296" lon="5.14062">
        <ele>522.6</ele>
        <time>2013-03-07T16:09:20Z</time>
      </trkpt>
      <trkpt lat="43.96295" lon="5.14066">
        <ele>522.3</ele>
        <time>2013-03-07T16:09:22Z</time>
      </trkpt>
      <trkpt lat="43.96294" lon="5.14068">
        <ele>523.2</ele>
        <time>2013-03-07T16:09:23Z</time>
      </trkpt>
      <trkpt lat="43.96293" lon="5.14074">
        <ele>523.5</ele>
        <time>2013-03-07T16:09:26Z</time>
      </trkpt>
      <trkpt lat="43.96294" lon="5.14076">
        <ele>522</ele>
        <time>2013-03-07T16:09:27Z</time>
      </trkpt>
      <trkpt lat="43.96294" lon="5.14081">
        <ele>520</ele>
        <time>2013-03-07T16:09:29Z</time>
      </trkpt>
      <trkpt lat="43.96294" lon="5.14083">
        <ele>519.8</ele>
        <time>2013-03-07T16:09:30Z</time>
      </trkpt>
      <trkpt lat="43.96296" lon="5.14089">
        <ele>519.1</ele>
        <time>2013-03-07T16:09:33Z</time>
      </trkpt>
      <trkpt lat="43.96292" lon="5.1409">
        <ele>520</ele>
        <time>2013-03-07T16:09:34Z</time>
      </trkpt>
      <trkpt lat="43.96291" lon="5.14093">
        <ele>519.5</ele>
        <time>2013-03-07T16:09:35Z</time>
      </trkpt>
      <trkpt lat="43.9629" lon="5.14095">
        <ele>519</ele>
        <time>2013-03-07T16:09:36Z</time>
      </trkpt>
      <trkpt lat="43.96288" lon="5.141">
        <ele>518.5</ele>
        <time>2013-03-07T16:09:38Z</time>
      </trkpt>
      <trkpt lat="43.96288" lon="5.14101">
        <ele>519.1</ele>
        <time>2013-03-07T16:09:39Z</time>
      </trkpt>
      <trkpt lat="43.96287" lon="5.14105">
        <ele>521.2</ele>
        <time>2013-03-07T16:09:41Z</time>
      </trkpt>
      <trkpt lat="43.96285" lon="5.14109">
        <ele>522.8</ele>
        <time>2013-03-07T16:09:42Z</time>
      </trkpt>
      <trkpt lat="43.96285" lon="5.14112">
        <ele>521.9</ele>
        <time>2013-03-07T16:09:43Z</time>
      </trkpt>
      <trkpt lat="43.96284" lon="5.14115">
        <ele>521.8</ele>
        <time>2013-03-07T16:09:44Z</time>
      </trkpt>
      <trkpt lat="43.9628" lon="5.14119">
        <ele>520.9</ele>
        <time>2013-03-07T16:09:46Z</time>
      </trkpt>
      <trkpt lat="43.96279" lon="5.14122">
        <ele>520.4</ele>
        <time>2013-03-07T16:09:47Z</time>
      </trkpt>
      <trkpt lat="43.96278" lon="5.14124">
        <ele>520.1</ele>
        <time>2013-03-07T16:09:48Z</time>
      </trkpt>
      <trkpt lat="43.96277" lon="5.14127">
        <ele>520.4</ele>
        <time>2013-03-07T16:09:49Z</time>
      </trkpt>
      <trkpt lat="43.96275" lon="5.14129">
        <ele>520.9</ele>
        <time>2013-03-07T16:09:50Z</time>
      </trkpt>
      <trkpt lat="43.96274" lon="5.14132">
        <ele>520.7</ele>
        <time>2013-03-07T16:09:51Z</time>
      </trkpt>
      <trkpt lat="43.96272" lon="5.14135">
        <ele>519.6</ele>
        <time>2013-03-07T16:09:52Z</time>
      </trkpt>
      <trkpt lat="43.9627" lon="5.14138">
        <ele>518.5</ele>
        <time>2013-03-07T16:09:53Z</time>
      </trkpt>
      <trkpt lat="43.96268" lon="5.14141">
        <ele>517.6</ele>
        <time>2013-03-07T16:09:54Z</time>
      </trkpt>
      <trkpt lat="43.96266" lon="5.14143">
        <ele>518.4</ele>
        <time>2013-03-07T16:09:55Z</time>
      </trkpt>
      <trkpt lat="43.96264" lon="5.14144">
        <ele>518.8</ele>
        <time>2013-03-07T16:09:56Z</time>
      </trkpt>
      <trkpt lat="43.96262" lon="5.14146">
        <ele>518.9</ele>
        <time>2013-03-07T16:09:57Z</time>
      </trkpt>
      <trkpt lat="43.96263" lon="5.14151">
        <ele>516.2</ele>
        <time>2013-03-07T16:09:59Z</time>
      </trkpt>
      <trkpt lat="43.96263" lon="5.14154">
        <ele>516.2</ele>
        <time>2013-03-07T16:10:00Z</time>
      </trkpt>
      <trkpt lat="43.96261" lon="5.14156">
        <ele>515.1</ele>
        <time>2013-03-07T16:10:01Z</time>
      </trkpt>
      <trkpt lat="43.96259" lon="5.14158">
        <ele>514.3</ele>
        <time>2013-03-07T16:10:02Z</time>
      </trkpt>
      <trkpt lat="43.96256" lon="5.1416">
        <ele>514.5</ele>
        <time>2013-03-07T16:10:03Z</time>
      </trkpt>
      <trkpt lat="43.96253" lon="5.14161">
        <ele>513.9</ele>
        <time>2013-03-07T16:10:04Z</time>
      </trkpt>
      <trkpt lat="43.96252" lon="5.14163">
        <ele>513.6</ele>
        <time>2013-03-07T16:10:05Z</time>
      </trkpt>
      <trkpt lat="43.9625" lon="5.14166">
        <ele>513.5</ele>
        <time>2013-03-07T16:10:06Z</time>
      </trkpt>
      <trkpt lat="43.96247" lon="5.1417">
        <ele>513.9</ele>
        <time>2013-03-07T16:10:08Z</time>
      </trkpt>
      <trkpt lat="43.96246" lon="5.14172">
        <ele>513.9</ele>
        <time>2013-03-07T16:10:09Z</time>
      </trkpt>
      <trkpt lat="43.96245" lon="5.14174">
        <ele>514</ele>
        <time>2013-03-07T16:10:10Z</time>
      </trkpt>
      <trkpt lat="43.96241" lon="5.14175">
        <ele>512.9</ele>
        <time>2013-03-07T16:10:11Z</time>
      </trkpt>
      <trkpt lat="43.96237" lon="5.14176">
        <ele>512.6</ele>
        <time>2013-03-07T16:10:13Z</time>
      </trkpt>
      <trkpt lat="43.96236" lon="5.14177">
        <ele>512.2</ele>
        <time>2013-03-07T16:10:14Z</time>
      </trkpt>
      <trkpt lat="43.96234" lon="5.14179">
        <ele>512.1</ele>
        <time>2013-03-07T16:10:15Z</time>
      </trkpt>
      <trkpt lat="43.96231" lon="5.14181">
        <ele>512</ele>
        <time>2013-03-07T16:10:16Z</time>
      </trkpt>
      <trkpt lat="43.96227" lon="5.14183">
        <ele>511.9</ele>
        <time>2013-03-07T16:10:18Z</time>
      </trkpt>
      <trkpt lat="43.96226" lon="5.14185">
        <ele>511.3</ele>
        <time>2013-03-07T16:10:19Z</time>
      </trkpt>
      <trkpt lat="43.96223" lon="5.14188">
        <ele>510.7</ele>
        <time>2013-03-07T16:10:20Z</time>
      </trkpt>
      <trkpt lat="43.9622" lon="5.14191">
        <ele>510.3</ele>
        <time>2013-03-07T16:10:21Z</time>
      </trkpt>
      <trkpt lat="43.96218" lon="5.14193">
        <ele>510.1</ele>
        <time>2013-03-07T16:10:22Z</time>
      </trkpt>
      <trkpt lat="43.96216" lon="5.14196">
        <ele>509.7</ele>
        <time>2013-03-07T16:10:23Z</time>
      </trkpt>
      <trkpt lat="43.96214" lon="5.142">
        <ele>509.3</ele>
        <time>2013-03-07T16:10:24Z</time>
      </trkpt>
      <trkpt lat="43.96212" lon="5.14203">
        <ele>508.9</ele>
        <time>2013-03-07T16:10:25Z</time>
      </trkpt>
      <trkpt lat="43.96211" lon="5.14206">
        <ele>508.5</ele>
        <time>2013-03-07T16:10:26Z</time>
      </trkpt>
      <trkpt lat="43.9621" lon="5.14209">
        <ele>508.5</ele>
        <time>2013-03-07T16:10:27Z</time>
      </trkpt>
      <trkpt lat="43.9621" lon="5.14214">
        <ele>509.2</ele>
        <time>2013-03-07T16:10:29Z</time>
      </trkpt>
      <trkpt lat="43.9621" lon="5.14217">
        <ele>509.4</ele>
        <time>2013-03-07T16:10:30Z</time>
      </trkpt>
      <trkpt lat="43.96209" lon="5.14222">
        <ele>506.8</ele>
        <time>2013-03-07T16:10:31Z</time>
      </trkpt>
      <trkpt lat="43.96208" lon="5.14226">
        <ele>506.5</ele>
        <time>2013-03-07T16:10:32Z</time>
      </trkpt>
      <trkpt lat="43.9621" lon="5.14231">
        <ele>503.2</ele>
        <time>2013-03-07T16:10:35Z</time>
      </trkpt>
      <trkpt lat="43.96211" lon="5.14232">
        <ele>502.1</ele>
        <time>2013-03-07T16:10:36Z</time>
      </trkpt>
      <trkpt lat="43.96214" lon="5.14234">
        <ele>499.2</ele>
        <time>2013-03-07T16:10:40Z</time>
      </trkpt>
      <trkpt lat="43.96215" lon="5.14237">
        <ele>498.3</ele>
        <time>2013-03-07T16:10:41Z</time>
      </trkpt>
      <trkpt lat="43.96216" lon="5.14243">
        <ele>502.5</ele>
        <time>2013-03-07T16:10:53Z</time>
      </trkpt>
      <trkpt lat="43.96216" lon="5.14244">
        <ele>502.7</ele>
        <time>2013-03-07T16:10:54Z</time>
      </trkpt>
      <trkpt lat="43.96212" lon="5.14246">
        <ele>502.4</ele>
        <time>2013-03-07T16:11:05Z</time>
      </trkpt>
      <trkpt lat="43.96212" lon="5.14247">
        <ele>502.5</ele>
        <time>2013-03-07T16:11:06Z</time>
      </trkpt>
      <trkpt lat="43.96211" lon="5.14252">
        <ele>503.2</ele>
        <time>2013-03-07T16:11:21Z</time>
      </trkpt>
      <trkpt lat="43.96211" lon="5.14253">
        <ele>503.3</ele>
        <time>2013-03-07T16:11:22Z</time>
      </trkpt>
      <trkpt lat="43.96212" lon="5.14259">
        <ele>507</ele>
        <time>2013-03-07T16:11:35Z</time>
      </trkpt>
      <trkpt lat="43.96212" lon="5.14259">
        <ele>507</ele>
        <time>2013-03-07T16:11:36Z</time>
      </trkpt>
      <trkpt lat="43.96214" lon="5.14264">
        <ele>508.2</ele>
        <time>2013-03-07T16:11:53Z</time>
      </trkpt>
      <trkpt lat="43.96214" lon="5.14265">
        <ele>508.6</ele>
        <time>2013-03-07T16:11:54Z</time>
      </trkpt>
      <trkpt lat="43.96211" lon="5.14269">
        <ele>510.7</ele>
        <time>2013-03-07T16:12:29Z</time>
      </trkpt>
      <trkpt lat="43.96211" lon="5.14269">
        <ele>510.7</ele>
        <time>2013-03-07T16:12:30Z</time>
      </trkpt>
      <trkpt lat="43.96211" lon="5.14275">
        <ele>510.4</ele>
        <time>2013-03-07T16:12:43Z</time>
      </trkpt>
      <trkpt lat="43.96212" lon="5.14275">
        <ele>510.3</ele>
        <time>2013-03-07T16:12:44Z</time>
      </trkpt>
      <trkpt lat="43.96209" lon="5.1428">
        <ele>512.7</ele>
        <time>2013-03-07T16:14:24Z</time>
      </trkpt>
      <trkpt lat="43.96209" lon="5.14281">
        <ele>512.5</ele>
        <time>2013-03-07T16:14:25Z</time>
      </trkpt>
      <trkpt lat="43.96206" lon="5.14284">
        <ele>514.3</ele>
        <time>2013-03-07T16:14:41Z</time>
      </trkpt>
      <trkpt lat="43.96206" lon="5.14284">
        <ele>514.2</ele>
        <time>2013-03-07T16:14:42Z</time>
      </trkpt>
      <trkpt lat="43.96202" lon="5.14287">
        <ele>516.8</ele>
        <time>2013-03-07T16:14:49Z</time>
      </trkpt>
      <trkpt lat="43.96202" lon="5.14288">
        <ele>517.8</ele>
        <time>2013-03-07T16:14:50Z</time>
      </trkpt>
      <trkpt lat="43.96199" lon="5.14293">
        <ele>521.6</ele>
        <time>2013-03-07T16:15:21Z</time>
      </trkpt>
      <trkpt lat="43.96199" lon="5.14293">
        <ele>521.4</ele>
        <time>2013-03-07T16:15:22Z</time>
      </trkpt>
      <trkpt lat="43.96203" lon="5.14292">
        <ele>513.5</ele>
        <time>2013-03-07T16:16:24Z</time>
      </trkpt>
      <trkpt lat="43.96204" lon="5.14291">
        <ele>513.3</ele>
        <time>2013-03-07T16:16:25Z</time>
      </trkpt>
      <trkpt lat="43.96201" lon="5.14286">
        <ele>514.6</ele>
        <time>2013-03-07T16:16:34Z</time>
      </trkpt>
      <trkpt lat="43.96201" lon="5.14286">
        <ele>514.7</ele>
        <time>2013-03-07T16:16:35Z</time>
      </trkpt>
      <trkpt lat="43.96196" lon="5.14285">
        <ele>516.1</ele>
        <time>2013-03-07T16:16:42Z</time>
      </trkpt>
      <trkpt lat="43.96196" lon="5.14285">
        <ele>516.4</ele>
        <time>2013-03-07T16:16:43Z</time>
      </trkpt>
      <trkpt lat="43.96192" lon="5.14283">
        <ele>517.4</ele>
        <time>2013-03-07T16:16:52Z</time>
      </trkpt>
      <trkpt lat="43.96191" lon="5.14283">
        <ele>517.5</ele>
        <time>2013-03-07T16:16:53Z</time>
      </trkpt>
      <trkpt lat="43.96187" lon="5.14283">
        <ele>518</ele>
        <time>2013-03-07T16:17:11Z</time>
      </trkpt>
      <trkpt lat="43.96186" lon="5.14283">
        <ele>518.2</ele>
        <time>2013-03-07T16:17:12Z</time>
      </trkpt>
      <trkpt lat="43.96182" lon="5.14282">
        <ele>518.1</ele>
        <time>2013-03-07T16:17:23Z</time>
      </trkpt>
      <trkpt lat="43.96182" lon="5.14282">
        <ele>518.1</ele>
        <time>2013-03-07T16:17:24Z</time>
      </trkpt>
      <trkpt lat="43.96179" lon="5.14279">
        <ele>517.9</ele>
        <time>2013-03-07T16:17:28Z</time>
      </trkpt>
      <trkpt lat="43.96178" lon="5.14278">
        <ele>518.2</ele>
        <time>2013-03-07T16:17:29Z</time>
      </trkpt>
      <trkpt lat="43.96175" lon="5.14275">
        <ele>519.3</ele>
        <time>2013-03-07T16:17:34Z</time>
      </trkpt>
      <trkpt lat="43.96174" lon="5.14274">
        <ele>519.5</ele>
        <time>2013-03-07T16:17:35Z</time>
      </trkpt>
      <trkpt lat="43.96171" lon="5.14271">
        <ele>520.5</ele>
        <time>2013-03-07T16:17:41Z</time>
      </trkpt>
      <trkpt lat="43.96171" lon="5.1427">
        <ele>520.8</ele>
        <time>2013-03-07T16:17:42Z</time>
      </trkpt>
      <trkpt lat="43.96167" lon="5.14266">
        <ele>521.2</ele>
        <time>2013-03-07T16:17:49Z</time>
      </trkpt>
      <trkpt lat="43.96166" lon="5.14266">
        <ele>520.9</ele>
        <time>2013-03-07T16:17:50Z</time>
      </trkpt>
      <trkpt lat="43.96162" lon="5.14263">
        <ele>522.3</ele>
        <time>2013-03-07T16:17:58Z</time>
      </trkpt>
      <trkpt lat="43.96162" lon="5.14263">
        <ele>522.5</ele>
        <time>2013-03-07T16:17:59Z</time>
      </trkpt>
      <trkpt lat="43.96157" lon="5.14264">
        <ele>523.4</ele>
        <time>2013-03-07T16:18:14Z</time>
      </trkpt>
      <trkpt lat="43.96157" lon="5.14264">
        <ele>523.7</ele>
        <time>2013-03-07T16:18:15Z</time>
      </trkpt>
      <trkpt lat="43.96153" lon="5.14263">
        <ele>523.5</ele>
        <time>2013-03-07T16:18:25Z</time>
      </trkpt>
      <trkpt lat="43.96151" lon="5.14264">
        <ele>523.9</ele>
        <time>2013-03-07T16:18:26Z</time>
      </trkpt>
      <trkpt lat="43.96148" lon="5.14267">
        <ele>523.8</ele>
        <time>2013-03-07T16:18:30Z</time>
      </trkpt>
      <trkpt lat="43.96147" lon="5.14266">
        <ele>525.6</ele>
        <time>2013-03-07T16:18:31Z</time>
      </trkpt>
      <trkpt lat="43.96142" lon="5.14268">
        <ele>527</ele>
        <time>2013-03-07T16:18:36Z</time>
      </trkpt>
      <trkpt lat="43.96142" lon="5.14269">
        <ele>527</ele>
        <time>2013-03-07T16:18:37Z</time>
      </trkpt>
      <trkpt lat="43.96138" lon="5.1427">
        <ele>528.6</ele>
        <time>2013-03-07T16:18:41Z</time>
      </trkpt>
      <trkpt lat="43.96138" lon="5.1427">
        <ele>528.8</ele>
        <time>2013-03-07T16:18:42Z</time>
      </trkpt>
      <trkpt lat="43.96133" lon="5.14272">
        <ele>529.5</ele>
        <time>2013-03-07T16:18:47Z</time>
      </trkpt>
      <trkpt lat="43.96133" lon="5.14272">
        <ele>529.9</ele>
        <time>2013-03-07T16:18:48Z</time>
      </trkpt>
      <trkpt lat="43.96129" lon="5.14275">
        <ele>532.6</ele>
        <time>2013-03-07T16:18:54Z</time>
      </trkpt>
      <trkpt lat="43.96129" lon="5.14275">
        <ele>532.7</ele>
        <time>2013-03-07T16:18:55Z</time>
      </trkpt>
      <trkpt lat="43.96125" lon="5.14278">
        <ele>532.8</ele>
        <time>2013-03-07T16:19:02Z</time>
      </trkpt>
      <trkpt lat="43.96124" lon="5.14278">
        <ele>533.5</ele>
        <time>2013-03-07T16:19:03Z</time>
      </trkpt>
      <trkpt lat="43.9612" lon="5.14277">
        <ele>535.8</ele>
        <time>2013-03-07T16:19:08Z</time>
      </trkpt>
      <trkpt lat="43.96119" lon="5.14277">
        <ele>536.3</ele>
        <time>2013-03-07T16:19:09Z</time>
      </trkpt>
      <trkpt lat="43.96115" lon="5.1428">
        <ele>537</ele>
        <time>2013-03-07T16:19:17Z</time>
      </trkpt>
      <trkpt lat="43.96115" lon="5.1428">
        <ele>537.2</ele>
        <time>2013-03-07T16:19:18Z</time>
      </trkpt>
      <trkpt lat="43.96111" lon="5.14279">
        <ele>539.2</ele>
        <time>2013-03-07T16:19:27Z</time>
      </trkpt>
      <trkpt lat="43.9611" lon="5.14279">
        <ele>539.4</ele>
        <time>2013-03-07T16:19:28Z</time>
      </trkpt>
      <trkpt lat="43.96106" lon="5.14278">
        <ele>539.4</ele>
        <time>2013-03-07T16:19:33Z</time>
      </trkpt>
      <trkpt lat="43.96106" lon="5.14277">
        <ele>539.7</ele>
        <time>2013-03-07T16:19:34Z</time>
      </trkpt>
      <trkpt lat="43.96102" lon="5.14276">
        <ele>541.1</ele>
        <time>2013-03-07T16:19:40Z</time>
      </trkpt>
      <trkpt lat="43.96101" lon="5.14277">
        <ele>541.4</ele>
        <time>2013-03-07T16:19:41Z</time>
      </trkpt>
      <trkpt lat="43.96097" lon="5.14276">
        <ele>544.8</ele>
        <time>2013-03-07T16:19:48Z</time>
      </trkpt>
      <trkpt lat="43.96096" lon="5.14275">
        <ele>545.2</ele>
        <time>2013-03-07T16:19:49Z</time>
      </trkpt>
      <trkpt lat="43.96092" lon="5.14276">
        <ele>545.3</ele>
        <time>2013-03-07T16:20:03Z</time>
      </trkpt>
      <trkpt lat="43.96092" lon="5.14276">
        <ele>544.8</ele>
        <time>2013-03-07T16:20:04Z</time>
      </trkpt>
      <trkpt lat="43.96088" lon="5.14277">
        <ele>548.2</ele>
        <time>2013-03-07T16:20:33Z</time>
      </trkpt>
      <trkpt lat="43.96087" lon="5.14276">
        <ele>549</ele>
        <time>2013-03-07T16:20:34Z</time>
      </trkpt>
      <trkpt lat="43.96082" lon="5.14276">
        <ele>550.2</ele>
        <time>2013-03-07T16:20:44Z</time>
      </trkpt>
      <trkpt lat="43.96082" lon="5.14276">
        <ele>550.5</ele>
        <time>2013-03-07T16:20:45Z</time>
      </trkpt>
      <trkpt lat="43.96078" lon="5.14274">
        <ele>551.7</ele>
        <time>2013-03-07T16:20:53Z</time>
      </trkpt>
      <trkpt lat="43.96077" lon="5.14275">
        <ele>551.8</ele>
        <time>2013-03-07T16:20:54Z</time>
      </trkpt>
      <trkpt lat="43.96073" lon="5.14272">
        <ele>553.4</ele>
        <time>2013-03-07T16:21:19Z</time>
      </trkpt>
      <trkpt lat="43.96073" lon="5.14271">
        <ele>554.1</ele>
        <time>2013-03-07T16:21:20Z</time>
      </trkpt>
      <trkpt lat="43.9607" lon="5.14269">
        <ele>553.9</ele>
        <time>2013-03-07T16:21:25Z</time>
      </trkpt>
      <trkpt lat="43.96069" lon="5.14268">
        <ele>554.2</ele>
        <time>2013-03-07T16:21:26Z</time>
      </trkpt>
      <trkpt lat="43.96066" lon="5.14265">
        <ele>555.4</ele>
        <time>2013-03-07T16:21:33Z</time>
      </trkpt>
      <trkpt lat="43.96065" lon="5.14264">
        <ele>555.6</ele>
        <time>2013-03-07T16:21:34Z</time>
      </trkpt>
      <trkpt lat="43.96061" lon="5.14262">
        <ele>555.8</ele>
        <time>2013-03-07T16:21:40Z</time>
      </trkpt>
      <trkpt lat="43.9606" lon="5.14262">
        <ele>555.4</ele>
        <time>2013-03-07T16:21:41Z</time>
      </trkpt>
      <trkpt lat="43.96056" lon="5.14263">
        <ele>558</ele>
        <time>2013-03-07T16:22:01Z</time>
      </trkpt>
      <trkpt lat="43.96056" lon="5.14263">
        <ele>558.1</ele>
        <time>2013-03-07T16:22:02Z</time>
      </trkpt>
      <trkpt lat="43.96052" lon="5.14265">
        <ele>560</ele>
        <time>2013-03-07T16:22:22Z</time>
      </trkpt>
      <trkpt lat="43.96052" lon="5.14266">
        <ele>559.7</ele>
        <time>2013-03-07T16:22:23Z</time>
      </trkpt>
      <trkpt lat="43.96049" lon="5.14266">
        <ele>559.3</ele>
        <time>2013-03-07T16:22:42Z</time>
      </trkpt>
      <trkpt lat="43.96047" lon="5.14266">
        <ele>560.2</ele>
        <time>2013-03-07T16:22:43Z</time>
      </trkpt>
      <trkpt lat="43.96043" lon="5.14266">
        <ele>561.1</ele>
        <time>2013-03-07T16:22:48Z</time>
      </trkpt>
      <trkpt lat="43.96042" lon="5.14265">
        <ele>561.1</ele>
        <time>2013-03-07T16:22:49Z</time>
      </trkpt>
      <trkpt lat="43.96038" lon="5.14263">
        <ele>566.4</ele>
        <time>2013-03-07T16:23:19Z</time>
      </trkpt>
      <trkpt lat="43.96038" lon="5.14263">
        <ele>566.5</ele>
        <time>2013-03-07T16:23:20Z</time>
      </trkpt>
      <trkpt lat="43.96033" lon="5.14262">
        <ele>565.1</ele>
        <time>2013-03-07T16:23:39Z</time>
      </trkpt>
      <trkpt lat="43.96033" lon="5.14262">
        <ele>565</ele>
        <time>2013-03-07T16:23:40Z</time>
      </trkpt>
      <trkpt lat="43.96029" lon="5.14259">
        <ele>563.6</ele>
        <time>2013-03-07T16:23:56Z</time>
      </trkpt>
      <trkpt lat="43.96029" lon="5.14258">
        <ele>563.6</ele>
        <time>2013-03-07T16:23:57Z</time>
      </trkpt>
      <trkpt lat="43.96025" lon="5.14257">
        <ele>565.3</ele>
        <time>2013-03-07T16:24:03Z</time>
      </trkpt>
      <trkpt lat="43.96024" lon="5.14258">
        <ele>565</ele>
        <time>2013-03-07T16:24:04Z</time>
      </trkpt>
      <trkpt lat="43.9602" lon="5.14257">
        <ele>567.3</ele>
        <time>2013-03-07T16:24:26Z</time>
      </trkpt>
      <trkpt lat="43.96019" lon="5.14256">
        <ele>567.9</ele>
        <time>2013-03-07T16:24:27Z</time>
      </trkpt>
      <trkpt lat="43.96015" lon="5.14254">
        <ele>568.8</ele>
        <time>2013-03-07T16:24:41Z</time>
      </trkpt>
      <trkpt lat="43.96014" lon="5.14254">
        <ele>568.7</ele>
        <time>2013-03-07T16:24:42Z</time>
      </trkpt>
      <trkpt lat="43.96012" lon="5.14249">
        <ele>572.1</ele>
        <time>2013-03-07T16:25:01Z</time>
      </trkpt>
      <trkpt lat="43.96012" lon="5.14248">
        <ele>572.4</ele>
        <time>2013-03-07T16:25:02Z</time>
      </trkpt>
      <trkpt lat="43.96007" lon="5.14246">
        <ele>573.5</ele>
        <time>2013-03-07T16:25:11Z</time>
      </trkpt>
      <trkpt lat="43.96006" lon="5.14246">
        <ele>573.2</ele>
        <time>2013-03-07T16:25:12Z</time>
      </trkpt>
      <trkpt lat="43.96005" lon="5.1424">
        <ele>577.5</ele>
        <time>2013-03-07T16:25:56Z</time>
      </trkpt>
      <trkpt lat="43.96004" lon="5.14237">
        <ele>578.7</ele>
        <time>2013-03-07T16:25:57Z</time>
      </trkpt>
      <trkpt lat="43.96002" lon="5.14233">
        <ele>579.9</ele>
        <time>2013-03-07T16:26:04Z</time>
      </trkpt>
      <trkpt lat="43.96001" lon="5.14232">
        <ele>579.6</ele>
        <time>2013-03-07T16:26:05Z</time>
      </trkpt>
      <trkpt lat="43.96" lon="5.14226">
        <ele>581.2</ele>
        <time>2013-03-07T16:26:22Z</time>
      </trkpt>
      <trkpt lat="43.96" lon="5.14226">
        <ele>580.9</ele>
        <time>2013-03-07T16:26:23Z</time>
      </trkpt>
      <trkpt lat="43.95997" lon="5.14221">
        <ele>581.1</ele>
        <time>2013-03-07T16:26:32Z</time>
      </trkpt>
      <trkpt lat="43.95996" lon="5.14221">
        <ele>581.2</ele>
        <time>2013-03-07T16:26:33Z</time>
      </trkpt>
      <trkpt lat="43.95992" lon="5.14219">
        <ele>580.5</ele>
        <time>2013-03-07T16:26:39Z</time>
      </trkpt>
      <trkpt lat="43.95992" lon="5.14218">
        <ele>580.7</ele>
        <time>2013-03-07T16:26:40Z</time>
      </trkpt>
      <trkpt lat="43.95988" lon="5.14215">
        <ele>582</ele>
        <time>2013-03-07T16:26:51Z</time>
      </trkpt>
      <trkpt lat="43.95987" lon="5.14215">
        <ele>581.9</ele>
        <time>2013-03-07T16:26:52Z</time>
      </trkpt>
      <trkpt lat="43.95984" lon="5.14214">
        <ele>583.1</ele>
        <time>2013-03-07T16:26:59Z</time>
      </trkpt>
      <trkpt lat="43.95983" lon="5.14214">
        <ele>583.2</ele>
        <time>2013-03-07T16:27:00Z</time>
      </trkpt>
      <trkpt lat="43.95978" lon="5.14212">
        <ele>583.4</ele>
        <time>2013-03-07T16:27:07Z</time>
      </trkpt>
      <trkpt lat="43.95978" lon="5.14212">
        <ele>583.6</ele>
        <time>2013-03-07T16:27:08Z</time>
      </trkpt>
      <trkpt lat="43.95973" lon="5.14211">
        <ele>584.2</ele>
        <time>2013-03-07T16:27:15Z</time>
      </trkpt>
      <trkpt lat="43.95973" lon="5.14211">
        <ele>584.1</ele>
        <time>2013-03-07T16:27:16Z</time>
      </trkpt>
      <trkpt lat="43.95969" lon="5.14212">
        <ele>583.7</ele>
        <time>2013-03-07T16:27:35Z</time>
      </trkpt>
      <trkpt lat="43.95969" lon="5.14211">
        <ele>585.3</ele>
        <time>2013-03-07T16:27:36Z</time>
      </trkpt>
      <trkpt lat="43.95965" lon="5.14213">
        <ele>586</ele>
        <time>2013-03-07T16:27:40Z</time>
      </trkpt>
      <trkpt lat="43.95964" lon="5.14214">
        <ele>586.8</ele>
        <time>2013-03-07T16:27:41Z</time>
      </trkpt>
      <trkpt lat="43.9596" lon="5.14215">
        <ele>588.6</ele>
        <time>2013-03-07T16:27:47Z</time>
      </trkpt>
      <trkpt lat="43.95959" lon="5.14215">
        <ele>589.8</ele>
        <time>2013-03-07T16:27:49Z</time>
      </trkpt>
      <trkpt lat="43.95955" lon="5.14214">
        <ele>589.2</ele>
        <time>2013-03-07T16:27:55Z</time>
      </trkpt>
      <trkpt lat="43.95954" lon="5.14214">
        <ele>589.2</ele>
        <time>2013-03-07T16:27:56Z</time>
      </trkpt>
      <trkpt lat="43.95949" lon="5.14212">
        <ele>589.1</ele>
        <time>2013-03-07T16:28:01Z</time>
      </trkpt>
      <trkpt lat="43.95949" lon="5.14213">
        <ele>589.3</ele>
        <time>2013-03-07T16:28:02Z</time>
      </trkpt>
      <trkpt lat="43.95945" lon="5.14214">
        <ele>591.2</ele>
        <time>2013-03-07T16:28:08Z</time>
      </trkpt>
      <trkpt lat="43.95944" lon="5.14214">
        <ele>591.9</ele>
        <time>2013-03-07T16:28:09Z</time>
      </trkpt>
      <trkpt lat="43.9594" lon="5.14215">
        <ele>594.8</ele>
        <time>2013-03-07T16:28:18Z</time>
      </trkpt>
      <trkpt lat="43.95939" lon="5.14216">
        <ele>595.1</ele>
        <time>2013-03-07T16:28:19Z</time>
      </trkpt>
      <trkpt lat="43.95936" lon="5.14217">
        <ele>596.2</ele>
        <time>2013-03-07T16:28:24Z</time>
      </trkpt>
      <trkpt lat="43.95935" lon="5.14216">
        <ele>596.4</ele>
        <time>2013-03-07T16:28:25Z</time>
      </trkpt>
      <trkpt lat="43.9593" lon="5.14217">
        <ele>597</ele>
        <time>2013-03-07T16:28:42Z</time>
      </trkpt>
      <trkpt lat="43.9593" lon="5.14217">
        <ele>597.3</ele>
        <time>2013-03-07T16:28:43Z</time>
      </trkpt>
      <trkpt lat="43.95927" lon="5.14219">
        <ele>598.9</ele>
        <time>2013-03-07T16:28:48Z</time>
      </trkpt>
      <trkpt lat="43.95926" lon="5.14219">
        <ele>599.2</ele>
        <time>2013-03-07T16:28:49Z</time>
      </trkpt>
      <trkpt lat="43.95922" lon="5.14218">
        <ele>599.7</ele>
        <time>2013-03-07T16:28:55Z</time>
      </trkpt>
      <trkpt lat="43.95921" lon="5.14218">
        <ele>600.1</ele>
        <time>2013-03-07T16:28:56Z</time>
      </trkpt>
      <trkpt lat="43.95918" lon="5.1422">
        <ele>600.3</ele>
        <time>2013-03-07T16:28:59Z</time>
      </trkpt>
      <trkpt lat="43.95917" lon="5.14221">
        <ele>600.1</ele>
        <time>2013-03-07T16:29:00Z</time>
      </trkpt>
      <trkpt lat="43.95913" lon="5.14223">
        <ele>600.9</ele>
        <time>2013-03-07T16:29:07Z</time>
      </trkpt>
      <trkpt lat="43.95913" lon="5.14223">
        <ele>600.8</ele>
        <time>2013-03-07T16:29:08Z</time>
      </trkpt>
      <trkpt lat="43.95909" lon="5.14226">
        <ele>602</ele>
        <time>2013-03-07T16:31:47Z</time>
      </trkpt>
      <trkpt lat="43.95908" lon="5.14225">
        <ele>601.9</ele>
        <time>2013-03-07T16:31:48Z</time>
      </trkpt>
      <trkpt lat="43.95904" lon="5.14227">
        <ele>602.2</ele>
        <time>2013-03-07T16:31:52Z</time>
      </trkpt>
      <trkpt lat="43.95902" lon="5.14225">
        <ele>602.7</ele>
        <time>2013-03-07T16:31:53Z</time>
      </trkpt>
      <trkpt lat="43.95898" lon="5.14225">
        <ele>602.3</ele>
        <time>2013-03-07T16:31:56Z</time>
      </trkpt>
      <trkpt lat="43.95897" lon="5.14225">
        <ele>602.2</ele>
        <time>2013-03-07T16:31:57Z</time>
      </trkpt>
      <trkpt lat="43.95893" lon="5.14227">
        <ele>603.1</ele>
        <time>2013-03-07T16:32:00Z</time>
      </trkpt>
      <trkpt lat="43.95892" lon="5.14228">
        <ele>603.7</ele>
        <time>2013-03-07T16:32:01Z</time>
      </trkpt>
      <trkpt lat="43.95888" lon="5.14231">
        <ele>605.5</ele>
        <time>2013-03-07T16:32:06Z</time>
      </trkpt>
      <trkpt lat="43.95887" lon="5.14231">
        <ele>605.6</ele>
        <time>2013-03-07T16:32:07Z</time>
      </trkpt>
      <trkpt lat="43.95885" lon="5.14235">
        <ele>607</ele>
        <time>2013-03-07T16:32:11Z</time>
      </trkpt>
      <trkpt lat="43.95885" lon="5.14236">
        <ele>608.1</ele>
        <time>2013-03-07T16:32:12Z</time>
      </trkpt>
      <trkpt lat="43.95881" lon="5.14239">
        <ele>607.6</ele>
        <time>2013-03-07T16:32:17Z</time>
      </trkpt>
      <trkpt lat="43.9588" lon="5.1424">
        <ele>607.4</ele>
        <time>2013-03-07T16:32:18Z</time>
      </trkpt>
      <trkpt lat="43.95877" lon="5.14243">
        <ele>610.4</ele>
        <time>2013-03-07T16:32:24Z</time>
      </trkpt>
      <trkpt lat="43.95876" lon="5.14244">
        <ele>610.6</ele>
        <time>2013-03-07T16:32:25Z</time>
      </trkpt>
      <trkpt lat="43.95872" lon="5.14244">
        <ele>613.3</ele>
        <time>2013-03-07T16:32:43Z</time>
      </trkpt>
      <trkpt lat="43.95871" lon="5.14244">
        <ele>613.7</ele>
        <time>2013-03-07T16:32:44Z</time>
      </trkpt>
      <trkpt lat="43.95868" lon="5.14249">
        <ele>613</ele>
        <time>2013-03-07T16:32:47Z</time>
      </trkpt>
      <trkpt lat="43.95868" lon="5.14252">
        <ele>614</ele>
        <time>2013-03-07T16:32:49Z</time>
      </trkpt>
      <trkpt lat="43.95865" lon="5.14257">
        <ele>613.4</ele>
        <time>2013-03-07T16:32:54Z</time>
      </trkpt>
      <trkpt lat="43.95865" lon="5.14258">
        <ele>613.4</ele>
        <time>2013-03-07T16:32:55Z</time>
      </trkpt>
      <trkpt lat="43.95863" lon="5.14263">
        <ele>614.3</ele>
        <time>2013-03-07T16:33:01Z</time>
      </trkpt>
      <trkpt lat="43.95863" lon="5.14264">
        <ele>615</ele>
        <time>2013-03-07T16:33:02Z</time>
      </trkpt>
      <trkpt lat="43.9586" lon="5.14267">
        <ele>619.7</ele>
        <time>2013-03-07T16:33:06Z</time>
      </trkpt>
      <trkpt lat="43.95859" lon="5.14267">
        <ele>621</ele>
        <time>2013-03-07T16:33:07Z</time>
      </trkpt>
      <trkpt lat="43.9586" lon="5.14273">
        <ele>621.3</ele>
        <time>2013-03-07T16:33:13Z</time>
      </trkpt>
      <trkpt lat="43.9586" lon="5.14274">
        <ele>621</ele>
        <time>2013-03-07T16:33:14Z</time>
      </trkpt>
      <trkpt lat="43.95858" lon="5.14279">
        <ele>621.5</ele>
        <time>2013-03-07T16:33:18Z</time>
      </trkpt>
      <trkpt lat="43.95858" lon="5.1428">
        <ele>622.3</ele>
        <time>2013-03-07T16:33:19Z</time>
      </trkpt>
      <trkpt lat="43.95856" lon="5.14278">
        <ele>623.8</ele>
        <time>2013-03-07T16:33:21Z</time>
      </trkpt>
      <trkpt lat="43.95853" lon="5.14275">
        <ele>625.6</ele>
        <time>2013-03-07T16:33:22Z</time>
      </trkpt>
      <trkpt lat="43.95849" lon="5.1428">
        <ele>626.4</ele>
        <time>2013-03-07T16:33:27Z</time>
      </trkpt>
      <trkpt lat="43.9585" lon="5.14282">
        <ele>626.1</ele>
        <time>2013-03-07T16:33:28Z</time>
      </trkpt>
      <trkpt lat="43.95848" lon="5.14287">
        <ele>625.2</ele>
        <time>2013-03-07T16:33:33Z</time>
      </trkpt>
      <trkpt lat="43.95847" lon="5.1429">
        <ele>624.3</ele>
        <time>2013-03-07T16:33:34Z</time>
      </trkpt>
      <trkpt lat="43.95846" lon="5.14294">
        <ele>623.4</ele>
        <time>2013-03-07T16:33:37Z</time>
      </trkpt>
      <trkpt lat="43.95845" lon="5.14295">
        <ele>623.8</ele>
        <time>2013-03-07T16:33:38Z</time>
      </trkpt>
      <trkpt lat="43.95843" lon="5.14299">
        <ele>623.1</ele>
        <time>2013-03-07T16:33:41Z</time>
      </trkpt>
      <trkpt lat="43.95842" lon="5.143">
        <ele>622.6</ele>
        <time>2013-03-07T16:33:42Z</time>
      </trkpt>
      <trkpt lat="43.9584" lon="5.14304">
        <ele>622</ele>
        <time>2013-03-07T16:33:45Z</time>
      </trkpt>
      <trkpt lat="43.95839" lon="5.14305">
        <ele>621.8</ele>
        <time>2013-03-07T16:33:46Z</time>
      </trkpt>
      <trkpt lat="43.95836" lon="5.14308">
        <ele>624.8</ele>
        <time>2013-03-07T16:33:50Z</time>
      </trkpt>
      <trkpt lat="43.95837" lon="5.1431">
        <ele>622.9</ele>
        <time>2013-03-07T16:33:51Z</time>
      </trkpt>
      <trkpt lat="43.95835" lon="5.14315">
        <ele>620.8</ele>
        <time>2013-03-07T16:34:03Z</time>
      </trkpt>
      <trkpt lat="43.95834" lon="5.14316">
        <ele>621.1</ele>
        <time>2013-03-07T16:34:04Z</time>
      </trkpt>
      <trkpt lat="43.95831" lon="5.14317">
        <ele>622.3</ele>
        <time>2013-03-07T16:34:06Z</time>
      </trkpt>
      <trkpt lat="43.95829" lon="5.14318">
        <ele>621.7</ele>
        <time>2013-03-07T16:34:07Z</time>
      </trkpt>
      <trkpt lat="43.95825" lon="5.1432">
        <ele>626.6</ele>
        <time>2013-03-07T16:34:09Z</time>
      </trkpt>
      <trkpt lat="43.95823" lon="5.14321">
        <ele>626.8</ele>
        <time>2013-03-07T16:34:10Z</time>
      </trkpt>
      <trkpt lat="43.9582" lon="5.14325">
        <ele>627.5</ele>
        <time>2013-03-07T16:34:12Z</time>
      </trkpt>
      <trkpt lat="43.95819" lon="5.14326">
        <ele>628</ele>
        <time>2013-03-07T16:34:13Z</time>
      </trkpt>
      <trkpt lat="43.95817" lon="5.14331">
        <ele>627</ele>
        <time>2013-03-07T16:34:17Z</time>
      </trkpt>
      <trkpt lat="43.95816" lon="5.14333">
        <ele>626.9</ele>
        <time>2013-03-07T16:34:18Z</time>
      </trkpt>
      <trkpt lat="43.95813" lon="5.14337">
        <ele>627.2</ele>
        <time>2013-03-07T16:34:21Z</time>
      </trkpt>
      <trkpt lat="43.95812" lon="5.14338">
        <ele>627.1</ele>
        <time>2013-03-07T16:34:22Z</time>
      </trkpt>
      <trkpt lat="43.95809" lon="5.1434">
        <ele>628.2</ele>
        <time>2013-03-07T16:34:24Z</time>
      </trkpt>
      <trkpt lat="43.95804" lon="5.1434">
        <ele>630.2</ele>
        <time>2013-03-07T16:34:25Z</time>
      </trkpt>
      <trkpt lat="43.958" lon="5.14336">
        <ele>632.4</ele>
        <time>2013-03-07T16:34:26Z</time>
      </trkpt>
      <trkpt lat="43.95793" lon="5.14333">
        <ele>636.1</ele>
        <time>2013-03-07T16:34:27Z</time>
      </trkpt>
      <trkpt lat="43.95789" lon="5.14329">
        <ele>637.2</ele>
        <time>2013-03-07T16:34:28Z</time>
      </trkpt>
      <trkpt lat="43.95788" lon="5.14335">
        <ele>637.4</ele>
        <time>2013-03-07T16:34:31Z</time>
      </trkpt>
      <trkpt lat="43.9579" lon="5.14346">
        <ele>637</ele>
        <time>2013-03-07T16:34:32Z</time>
      </trkpt>
      <trkpt lat="43.95785" lon="5.14335">
        <ele>643.9</ele>
        <time>2013-03-07T16:34:33Z</time>
      </trkpt>
      <trkpt lat="43.95784" lon="5.14341">
        <ele>646</ele>
        <time>2013-03-07T16:34:35Z</time>
      </trkpt>
      <trkpt lat="43.95783" lon="5.14342">
        <ele>646.1</ele>
        <time>2013-03-07T16:34:36Z</time>
      </trkpt>
      <trkpt lat="43.9578" lon="5.14346">
        <ele>647.5</ele>
        <time>2013-03-07T16:34:38Z</time>
      </trkpt>
      <trkpt lat="43.95779" lon="5.14348">
        <ele>647.8</ele>
        <time>2013-03-07T16:34:39Z</time>
      </trkpt>
      <trkpt lat="43.95777" lon="5.14352">
        <ele>645.1</ele>
        <time>2013-03-07T16:34:42Z</time>
      </trkpt>
      <trkpt lat="43.95776" lon="5.14354">
        <ele>644</ele>
        <time>2013-03-07T16:34:43Z</time>
      </trkpt>
      <trkpt lat="43.95773" lon="5.14356">
        <ele>642.8</ele>
        <time>2013-03-07T16:34:46Z</time>
      </trkpt>
      <trkpt lat="43.95771" lon="5.14357">
        <ele>642.7</ele>
        <time>2013-03-07T16:34:47Z</time>
      </trkpt>
      <trkpt lat="43.95767" lon="5.14357">
        <ele>642.2</ele>
        <time>2013-03-07T16:34:50Z</time>
      </trkpt>
      <trkpt lat="43.95765" lon="5.14359">
        <ele>642.9</ele>
        <time>2013-03-07T16:34:51Z</time>
      </trkpt>
      <trkpt lat="43.95762" lon="5.14361">
        <ele>642.6</ele>
        <time>2013-03-07T16:34:53Z</time>
      </trkpt>
      <trkpt lat="43.95761" lon="5.14361">
        <ele>642.8</ele>
        <time>2013-03-07T16:34:54Z</time>
      </trkpt>
      <trkpt lat="43.95758" lon="5.14361">
        <ele>642.4</ele>
        <time>2013-03-07T16:34:56Z</time>
      </trkpt>
      <trkpt lat="43.95756" lon="5.14361">
        <ele>641.9</ele>
        <time>2013-03-07T16:34:57Z</time>
      </trkpt>
      <trkpt lat="43.95752" lon="5.14363">
        <ele>639.6</ele>
        <time>2013-03-07T16:35:01Z</time>
      </trkpt>
      <trkpt lat="43.95751" lon="5.14363">
        <ele>639.3</ele>
        <time>2013-03-07T16:35:02Z</time>
      </trkpt>
      <trkpt lat="43.95746" lon="5.14364">
        <ele>637.3</ele>
        <time>2013-03-07T16:35:07Z</time>
      </trkpt>
      <trkpt lat="43.95746" lon="5.14364">
        <ele>637.2</ele>
        <time>2013-03-07T16:35:08Z</time>
      </trkpt>
      <trkpt lat="43.95743" lon="5.14368">
        <ele>637.6</ele>
        <time>2013-03-07T16:35:15Z</time>
      </trkpt>
      <trkpt lat="43.95743" lon="5.14369">
        <ele>637.4</ele>
        <time>2013-03-07T16:35:16Z</time>
      </trkpt>
      <trkpt lat="43.9574" lon="5.14373">
        <ele>635.2</ele>
        <time>2013-03-07T16:35:23Z</time>
      </trkpt>
      <trkpt lat="43.9574" lon="5.14374">
        <ele>635.4</ele>
        <time>2013-03-07T16:35:24Z</time>
      </trkpt>
      <trkpt lat="43.95737" lon="5.14379">
        <ele>635.3</ele>
        <time>2013-03-07T16:35:33Z</time>
      </trkpt>
      <trkpt lat="43.95737" lon="5.14379">
        <ele>635.8</ele>
        <time>2013-03-07T16:35:34Z</time>
      </trkpt>
      <trkpt lat="43.95733" lon="5.14381">
        <ele>635.2</ele>
        <time>2013-03-07T16:35:40Z</time>
      </trkpt>
      <trkpt lat="43.95732" lon="5.14381">
        <ele>635.1</ele>
        <time>2013-03-07T16:35:41Z</time>
      </trkpt>
      <trkpt lat="43.95729" lon="5.14384">
        <ele>634.5</ele>
        <time>2013-03-07T16:35:47Z</time>
      </trkpt>
      <trkpt lat="43.95728" lon="5.14384">
        <ele>634.5</ele>
        <time>2013-03-07T16:35:48Z</time>
      </trkpt>
      <trkpt lat="43.95723" lon="5.14382">
        <ele>633.3</ele>
        <time>2013-03-07T16:35:56Z</time>
      </trkpt>
      <trkpt lat="43.95723" lon="5.14381">
        <ele>633.3</ele>
        <time>2013-03-07T16:35:57Z</time>
      </trkpt>
      <trkpt lat="43.95719" lon="5.14378">
        <ele>630</ele>
        <time>2013-03-07T16:36:06Z</time>
      </trkpt>
      <trkpt lat="43.95719" lon="5.14378">
        <ele>629.8</ele>
        <time>2013-03-07T16:36:07Z</time>
      </trkpt>
      <trkpt lat="43.95715" lon="5.14376">
        <ele>629.9</ele>
        <time>2013-03-07T16:36:13Z</time>
      </trkpt>
      <trkpt lat="43.95714" lon="5.14376">
        <ele>629.6</ele>
        <time>2013-03-07T16:36:14Z</time>
      </trkpt>
      <trkpt lat="43.95711" lon="5.14374">
        <ele>630.3</ele>
        <time>2013-03-07T16:36:18Z</time>
      </trkpt>
      <trkpt lat="43.9571" lon="5.14374">
        <ele>630.7</ele>
        <time>2013-03-07T16:36:19Z</time>
      </trkpt>
      <trkpt lat="43.95706" lon="5.14374">
        <ele>629.8</ele>
        <time>2013-03-07T16:36:23Z</time>
      </trkpt>
      <trkpt lat="43.95705" lon="5.14375">
        <ele>629.3</ele>
        <time>2013-03-07T16:36:24Z</time>
      </trkpt>
      <trkpt lat="43.95701" lon="5.14377">
        <ele>628.3</ele>
        <time>2013-03-07T16:36:29Z</time>
      </trkpt>
      <trkpt lat="43.957" lon="5.14377">
        <ele>628.4</ele>
        <time>2013-03-07T16:36:30Z</time>
      </trkpt>
      <trkpt lat="43.95696" lon="5.14376">
        <ele>628.5</ele>
        <time>2013-03-07T16:36:42Z</time>
      </trkpt>
      <trkpt lat="43.95696" lon="5.14376">
        <ele>628.7</ele>
        <time>2013-03-07T16:36:43Z</time>
      </trkpt>
      <trkpt lat="43.95691" lon="5.14374">
        <ele>629.5</ele>
        <time>2013-03-07T16:36:47Z</time>
      </trkpt>
      <trkpt lat="43.9569" lon="5.14374">
        <ele>629.6</ele>
        <time>2013-03-07T16:36:48Z</time>
      </trkpt>
      <trkpt lat="43.95687" lon="5.14374">
        <ele>629.9</ele>
        <time>2013-03-07T16:36:52Z</time>
      </trkpt>
      <trkpt lat="43.95686" lon="5.14374">
        <ele>630.3</ele>
        <time>2013-03-07T16:36:53Z</time>
      </trkpt>
      <trkpt lat="43.95681" lon="5.14374">
        <ele>631.9</ele>
        <time>2013-03-07T16:36:57Z</time>
      </trkpt>
      <trkpt lat="43.9568" lon="5.14374">
        <ele>631.8</ele>
        <time>2013-03-07T16:36:58Z</time>
      </trkpt>
      <trkpt lat="43.95676" lon="5.14374">
        <ele>631.7</ele>
        <time>2013-03-07T16:37:02Z</time>
      </trkpt>
      <trkpt lat="43.95675" lon="5.14374">
        <ele>631.8</ele>
        <time>2013-03-07T16:37:03Z</time>
      </trkpt>
      <trkpt lat="43.95672" lon="5.14371">
        <ele>632.1</ele>
        <time>2013-03-07T16:37:09Z</time>
      </trkpt>
      <trkpt lat="43.95671" lon="5.14371">
        <ele>632.3</ele>
        <time>2013-03-07T16:37:10Z</time>
      </trkpt>
      <trkpt lat="43.95667" lon="5.14369">
        <ele>632.3</ele>
        <time>2013-03-07T16:37:16Z</time>
      </trkpt>
      <trkpt lat="43.95666" lon="5.14369">
        <ele>632.1</ele>
        <time>2013-03-07T16:37:17Z</time>
      </trkpt>
      <trkpt lat="43.95662" lon="5.14368">
        <ele>631.6</ele>
        <time>2013-03-07T16:37:22Z</time>
      </trkpt>
      <trkpt lat="43.95661" lon="5.14368">
        <ele>631.7</ele>
        <time>2013-03-07T16:37:23Z</time>
      </trkpt>
      <trkpt lat="43.95657" lon="5.14369">
        <ele>632.9</ele>
        <time>2013-03-07T16:37:27Z</time>
      </trkpt>
      <trkpt lat="43.95655" lon="5.14369">
        <ele>632.7</ele>
        <time>2013-03-07T16:37:28Z</time>
      </trkpt>
      <trkpt lat="43.95651" lon="5.14371">
        <ele>633.6</ele>
        <time>2013-03-07T16:37:32Z</time>
      </trkpt>
      <trkpt lat="43.9565" lon="5.14371">
        <ele>633.6</ele>
        <time>2013-03-07T16:37:33Z</time>
      </trkpt>
      <trkpt lat="43.95646" lon="5.14372">
        <ele>634.3</ele>
        <time>2013-03-07T16:37:37Z</time>
      </trkpt>
      <trkpt lat="43.95646" lon="5.14372">
        <ele>634.6</ele>
        <time>2013-03-07T16:37:38Z</time>
      </trkpt>
      <trkpt lat="43.95642" lon="5.14373">
        <ele>634.6</ele>
        <time>2013-03-07T16:37:42Z</time>
      </trkpt>
      <trkpt lat="43.95641" lon="5.14373">
        <ele>635.2</ele>
        <time>2013-03-07T16:37:43Z</time>
      </trkpt>
      <trkpt lat="43.95637" lon="5.14372">
        <ele>635.6</ele>
        <time>2013-03-07T16:37:48Z</time>
      </trkpt>
      <trkpt lat="43.95636" lon="5.14372">
        <ele>636</ele>
        <time>2013-03-07T16:37:49Z</time>
      </trkpt>
      <trkpt lat="43.95632" lon="5.14371">
        <ele>636.3</ele>
        <time>2013-03-07T16:37:54Z</time>
      </trkpt>
      <trkpt lat="43.95631" lon="5.14371">
        <ele>636.4</ele>
        <time>2013-03-07T16:37:55Z</time>
      </trkpt>
      <trkpt lat="43.95627" lon="5.1437">
        <ele>635.7</ele>
        <time>2013-03-07T16:38:00Z</time>
      </trkpt>
      <trkpt lat="43.95626" lon="5.14369">
        <ele>636</ele>
        <time>2013-03-07T16:38:01Z</time>
      </trkpt>
      <trkpt lat="43.95622" lon="5.14369">
        <ele>637.2</ele>
        <time>2013-03-07T16:38:08Z</time>
      </trkpt>
      <trkpt lat="43.95622" lon="5.14369">
        <ele>637.1</ele>
        <time>2013-03-07T16:38:09Z</time>
      </trkpt>
      <trkpt lat="43.95617" lon="5.14368">
        <ele>638.6</ele>
        <time>2013-03-07T16:38:13Z</time>
      </trkpt>
      <trkpt lat="43.95617" lon="5.14368">
        <ele>639.2</ele>
        <time>2013-03-07T16:38:14Z</time>
      </trkpt>
      <trkpt lat="43.95613" lon="5.14366">
        <ele>639.5</ele>
        <time>2013-03-07T16:38:21Z</time>
      </trkpt>
      <trkpt lat="43.95612" lon="5.14366">
        <ele>639.7</ele>
        <time>2013-03-07T16:38:22Z</time>
      </trkpt>
      <trkpt lat="43.95608" lon="5.14363">
        <ele>639.3</ele>
        <time>2013-03-07T16:38:27Z</time>
      </trkpt>
      <trkpt lat="43.95607" lon="5.14363">
        <ele>640.1</ele>
        <time>2013-03-07T16:38:28Z</time>
      </trkpt>
      <trkpt lat="43.95603" lon="5.14361">
        <ele>640.1</ele>
        <time>2013-03-07T16:38:33Z</time>
      </trkpt>
      <trkpt lat="43.95602" lon="5.14361">
        <ele>640.4</ele>
        <time>2013-03-07T16:38:34Z</time>
      </trkpt>
      <trkpt lat="43.95599" lon="5.14357">
        <ele>641.4</ele>
        <time>2013-03-07T16:38:39Z</time>
      </trkpt>
      <trkpt lat="43.95598" lon="5.14357">
        <ele>641.5</ele>
        <time>2013-03-07T16:38:40Z</time>
      </trkpt>
      <trkpt lat="43.95594" lon="5.14354">
        <ele>642.5</ele>
        <time>2013-03-07T16:38:46Z</time>
      </trkpt>
      <trkpt lat="43.95594" lon="5.14354">
        <ele>642.3</ele>
        <time>2013-03-07T16:38:47Z</time>
      </trkpt>
      <trkpt lat="43.9559" lon="5.14351">
        <ele>643.3</ele>
        <time>2013-03-07T16:38:53Z</time>
      </trkpt>
      <trkpt lat="43.95589" lon="5.1435">
        <ele>643.7</ele>
        <time>2013-03-07T16:38:54Z</time>
      </trkpt>
      <trkpt lat="43.95585" lon="5.14349">
        <ele>642.6</ele>
        <time>2013-03-07T16:38:57Z</time>
      </trkpt>
      <trkpt lat="43.95584" lon="5.14349">
        <ele>642.8</ele>
        <time>2013-03-07T16:38:58Z</time>
      </trkpt>
      <trkpt lat="43.9558" lon="5.14348">
        <ele>651.3</ele>
        <time>2013-03-07T16:39:55Z</time>
      </trkpt>
      <trkpt lat="43.95579" lon="5.14347">
        <ele>651.8</ele>
        <time>2013-03-07T16:39:56Z</time>
      </trkpt>
      <trkpt lat="43.95575" lon="5.14345">
        <ele>653.8</ele>
        <time>2013-03-07T16:40:00Z</time>
      </trkpt>
      <trkpt lat="43.95574" lon="5.14344">
        <ele>654.1</ele>
        <time>2013-03-07T16:40:01Z</time>
      </trkpt>
      <trkpt lat="43.95571" lon="5.1434">
        <ele>655.2</ele>
        <time>2013-03-07T16:40:05Z</time>
      </trkpt>
      <trkpt lat="43.9557" lon="5.14339">
        <ele>654.6</ele>
        <time>2013-03-07T16:40:06Z</time>
      </trkpt>
      <trkpt lat="43.95568" lon="5.14334">
        <ele>655.2</ele>
        <time>2013-03-07T16:40:09Z</time>
      </trkpt>
      <trkpt lat="43.95568" lon="5.14333">
        <ele>655.3</ele>
        <time>2013-03-07T16:40:10Z</time>
      </trkpt>
      <trkpt lat="43.95564" lon="5.14332">
        <ele>653.8</ele>
        <time>2013-03-07T16:40:13Z</time>
      </trkpt>
      <trkpt lat="43.95563" lon="5.14332">
        <ele>654</ele>
        <time>2013-03-07T16:40:14Z</time>
      </trkpt>
      <trkpt lat="43.95559" lon="5.1433">
        <ele>654.3</ele>
        <time>2013-03-07T16:40:18Z</time>
      </trkpt>
      <trkpt lat="43.95558" lon="5.14329">
        <ele>654.8</ele>
        <time>2013-03-07T16:40:19Z</time>
      </trkpt>
      <trkpt lat="43.95555" lon="5.14327">
        <ele>655.7</ele>
        <time>2013-03-07T16:40:23Z</time>
      </trkpt>
      <trkpt lat="43.95552" lon="5.14327">
        <ele>657.2</ele>
        <time>2013-03-07T16:40:24Z</time>
      </trkpt>
      <trkpt lat="43.9555" lon="5.14321">
        <ele>658.5</ele>
        <time>2013-03-07T16:40:29Z</time>
      </trkpt>
      <trkpt lat="43.95549" lon="5.1432">
        <ele>658.2</ele>
        <time>2013-03-07T16:40:30Z</time>
      </trkpt>
      <trkpt lat="43.95546" lon="5.14317">
        <ele>659.1</ele>
        <time>2013-03-07T16:40:36Z</time>
      </trkpt>
      <trkpt lat="43.95545" lon="5.14316">
        <ele>659.1</ele>
        <time>2013-03-07T16:40:37Z</time>
      </trkpt>
      <trkpt lat="43.95542" lon="5.14315">
        <ele>657.8</ele>
        <time>2013-03-07T16:40:41Z</time>
      </trkpt>
      <trkpt lat="43.95541" lon="5.14315">
        <ele>657.2</ele>
        <time>2013-03-07T16:40:42Z</time>
      </trkpt>
      <trkpt lat="43.95537" lon="5.14312">
        <ele>657.7</ele>
        <time>2013-03-07T16:40:47Z</time>
      </trkpt>
      <trkpt lat="43.95536" lon="5.14312">
        <ele>657.9</ele>
        <time>2013-03-07T16:40:48Z</time>
      </trkpt>
      <trkpt lat="43.95532" lon="5.14312">
        <ele>657.6</ele>
        <time>2013-03-07T16:40:52Z</time>
      </trkpt>
      <trkpt lat="43.95531" lon="5.14312">
        <ele>657.8</ele>
        <time>2013-03-07T16:40:53Z</time>
      </trkpt>
      <trkpt lat="43.95527" lon="5.14313">
        <ele>658.7</ele>
        <time>2013-03-07T16:40:57Z</time>
      </trkpt>
      <trkpt lat="43.95526" lon="5.14313">
        <ele>659.6</ele>
        <time>2013-03-07T16:40:58Z</time>
      </trkpt>
      <trkpt lat="43.95521" lon="5.14313">
        <ele>660.3</ele>
        <time>2013-03-07T16:41:03Z</time>
      </trkpt>
      <trkpt lat="43.95521" lon="5.14313">
        <ele>661</ele>
        <time>2013-03-07T16:41:04Z</time>
      </trkpt>
      <trkpt lat="43.95517" lon="5.14311">
        <ele>662.4</ele>
        <time>2013-03-07T16:41:09Z</time>
      </trkpt>
      <trkpt lat="43.95516" lon="5.1431">
        <ele>662.6</ele>
        <time>2013-03-07T16:41:10Z</time>
      </trkpt>
      <trkpt lat="43.95513" lon="5.14307">
        <ele>663.9</ele>
        <time>2013-03-07T16:41:18Z</time>
      </trkpt>
      <trkpt lat="43.95512" lon="5.14306">
        <ele>664.3</ele>
        <time>2013-03-07T16:41:19Z</time>
      </trkpt>
      <trkpt lat="43.95508" lon="5.14305">
        <ele>666.9</ele>
        <time>2013-03-07T16:41:27Z</time>
      </trkpt>
      <trkpt lat="43.95506" lon="5.14305">
        <ele>667</ele>
        <time>2013-03-07T16:41:28Z</time>
      </trkpt>
      <trkpt lat="43.95503" lon="5.14302">
        <ele>666.8</ele>
        <time>2013-03-07T16:41:35Z</time>
      </trkpt>
      <trkpt lat="43.95502" lon="5.14303">
        <ele>666.6</ele>
        <time>2013-03-07T16:41:36Z</time>
      </trkpt>
      <trkpt lat="43.95497" lon="5.14301">
        <ele>665.5</ele>
        <time>2013-03-07T16:41:43Z</time>
      </trkpt>
      <trkpt lat="43.95497" lon="5.14301">
        <ele>665.4</ele>
        <time>2013-03-07T16:41:44Z</time>
      </trkpt>
      <trkpt lat="43.95493" lon="5.143">
        <ele>667.2</ele>
        <time>2013-03-07T16:42:00Z</time>
      </trkpt>
      <trkpt lat="43.95492" lon="5.143">
        <ele>667.4</ele>
        <time>2013-03-07T16:42:01Z</time>
      </trkpt>
      <trkpt lat="43.95489" lon="5.14297">
        <ele>668</ele>
        <time>2013-03-07T16:42:08Z</time>
      </trkpt>
      <trkpt lat="43.95488" lon="5.14297">
        <ele>668.4</ele>
        <time>2013-03-07T16:42:09Z</time>
      </trkpt>
      <trkpt lat="43.95484" lon="5.14295">
        <ele>669</ele>
        <time>2013-03-07T16:42:12Z</time>
      </trkpt>
      <trkpt lat="43.95483" lon="5.14294">
        <ele>669</ele>
        <time>2013-03-07T16:42:13Z</time>
      </trkpt>
      <trkpt lat="43.9548" lon="5.14293">
        <ele>674</ele>
        <time>2013-03-07T16:42:34Z</time>
      </trkpt>
      <trkpt lat="43.95479" lon="5.14292">
        <ele>674.1</ele>
        <time>2013-03-07T16:42:35Z</time>
      </trkpt>
      <trkpt lat="43.95474" lon="5.14291">
        <ele>676.2</ele>
        <time>2013-03-07T16:42:43Z</time>
      </trkpt>
      <trkpt lat="43.95474" lon="5.14291">
        <ele>676.2</ele>
        <time>2013-03-07T16:42:44Z</time>
      </trkpt>
      <trkpt lat="43.95472" lon="5.14286">
        <ele>676.7</ele>
        <time>2013-03-07T16:42:54Z</time>
      </trkpt>
      <trkpt lat="43.95472" lon="5.14285">
        <ele>676.9</ele>
        <time>2013-03-07T16:42:55Z</time>
      </trkpt>
      <trkpt lat="43.95468" lon="5.14282">
        <ele>679.3</ele>
        <time>2013-03-07T16:43:12Z</time>
      </trkpt>
      <trkpt lat="43.95468" lon="5.14282">
        <ele>679.3</ele>
        <time>2013-03-07T16:43:13Z</time>
      </trkpt>
      <trkpt lat="43.95465" lon="5.14278">
        <ele>680.1</ele>
        <time>2013-03-07T16:43:19Z</time>
      </trkpt>
      <trkpt lat="43.95463" lon="5.14278">
        <ele>680.1</ele>
        <time>2013-03-07T16:43:20Z</time>
      </trkpt>
      <trkpt lat="43.95459" lon="5.14275">
        <ele>680.9</ele>
        <time>2013-03-07T16:43:33Z</time>
      </trkpt>
      <trkpt lat="43.95459" lon="5.14274">
        <ele>680.8</ele>
        <time>2013-03-07T16:43:34Z</time>
      </trkpt>
      <trkpt lat="43.95457" lon="5.14269">
        <ele>681.2</ele>
        <time>2013-03-07T16:43:42Z</time>
      </trkpt>
      <trkpt lat="43.95456" lon="5.14268">
        <ele>680.6</ele>
        <time>2013-03-07T16:43:43Z</time>
      </trkpt>
      <trkpt lat="43.95452" lon="5.14267">
        <ele>682.7</ele>
        <time>2013-03-07T16:44:08Z</time>
      </trkpt>
      <trkpt lat="43.9545" lon="5.14267">
        <ele>682.5</ele>
        <time>2013-03-07T16:44:09Z</time>
      </trkpt>
      <trkpt lat="43.95447" lon="5.14265">
        <ele>683.3</ele>
        <time>2013-03-07T16:44:19Z</time>
      </trkpt>
      <trkpt lat="43.95446" lon="5.14264">
        <ele>683.8</ele>
        <time>2013-03-07T16:44:20Z</time>
      </trkpt>
      <trkpt lat="43.95442" lon="5.14261">
        <ele>685.4</ele>
        <time>2013-03-07T16:44:47Z</time>
      </trkpt>
      <trkpt lat="43.95442" lon="5.14261">
        <ele>685.4</ele>
        <time>2013-03-07T16:44:48Z</time>
      </trkpt>
      <trkpt lat="43.95438" lon="5.14259">
        <ele>685.5</ele>
        <time>2013-03-07T16:44:52Z</time>
      </trkpt>
      <trkpt lat="43.95438" lon="5.14258">
        <ele>685.7</ele>
        <time>2013-03-07T16:44:53Z</time>
      </trkpt>
      <trkpt lat="43.95436" lon="5.14252">
        <ele>686.4</ele>
        <time>2013-03-07T16:45:02Z</time>
      </trkpt>
      <trkpt lat="43.95436" lon="5.14251">
        <ele>686.4</ele>
        <time>2013-03-07T16:45:03Z</time>
      </trkpt>
      <trkpt lat="43.95434" lon="5.14246">
        <ele>687.5</ele>
        <time>2013-03-07T16:45:10Z</time>
      </trkpt>
      <trkpt lat="43.95434" lon="5.14245">
        <ele>687.9</ele>
        <time>2013-03-07T16:45:11Z</time>
      </trkpt>
      <trkpt lat="43.9543" lon="5.14245">
        <ele>688.3</ele>
        <time>2013-03-07T16:45:18Z</time>
      </trkpt>
      <trkpt lat="43.95429" lon="5.14244">
        <ele>688.5</ele>
        <time>2013-03-07T16:45:19Z</time>
      </trkpt>
      <trkpt lat="43.95425" lon="5.14243">
        <ele>687.9</ele>
        <time>2013-03-07T16:45:23Z</time>
      </trkpt>
      <trkpt lat="43.95424" lon="5.14244">
        <ele>688</ele>
        <time>2013-03-07T16:45:24Z</time>
      </trkpt>
      <trkpt lat="43.95422" lon="5.1424">
        <ele>688.7</ele>
        <time>2013-03-07T16:45:29Z</time>
      </trkpt>
      <trkpt lat="43.95421" lon="5.14239">
        <ele>688.8</ele>
        <time>2013-03-07T16:45:30Z</time>
      </trkpt>
      <trkpt lat="43.95419" lon="5.14237">
        <ele>688.5</ele>
        <time>2013-03-07T16:45:48Z</time>
      </trkpt>
    </trkseg>
  </trk>
  <trk>
    <name><![CDATA[07/03/2013 17:45]]></name>
    <trkseg>
      <trkpt lat="43.95419" lon="5.14238">
        <ele>689.1</ele>
        <time>2013-03-07T16:46:08Z</time>
      </trkpt>
      <trkpt lat="43.95418" lon="5.14233">
        <ele>689.6</ele>
        <time>2013-03-07T16:47:19Z</time>
      </trkpt>
      <trkpt lat="43.95417" lon="5.14232">
        <ele>689.8</ele>
        <time>2013-03-07T16:47:20Z</time>
      </trkpt>
      <trkpt lat="43.95413" lon="5.1423">
        <ele>689.1</ele>
        <time>2013-03-07T16:47:21Z</time>
      </trkpt>
      <trkpt lat="43.95411" lon="5.14229">
        <ele>689</ele>
        <time>2013-03-07T16:47:22Z</time>
      </trkpt>
      <trkpt lat="43.95408" lon="5.14228">
        <ele>689.2</ele>
        <time>2013-03-07T16:47:24Z</time>
      </trkpt>
      <trkpt lat="43.95407" lon="5.14228">
        <ele>689.1</ele>
        <time>2013-03-07T16:47:25Z</time>
      </trkpt>
      <trkpt lat="43.95402" lon="5.14227">
        <ele>687.6</ele>
        <time>2013-03-07T16:47:27Z</time>
      </trkpt>
      <trkpt lat="43.954" lon="5.14226">
        <ele>687.4</ele>
        <time>2013-03-07T16:47:28Z</time>
      </trkpt>
      <trkpt lat="43.95397" lon="5.14227">
        <ele>687</ele>
        <time>2013-03-07T16:47:30Z</time>
      </trkpt>
      <trkpt lat="43.95395" lon="5.14227">
        <ele>687.2</ele>
        <time>2013-03-07T16:47:31Z</time>
      </trkpt>
      <trkpt lat="43.95391" lon="5.14226">
        <ele>684.9</ele>
        <time>2013-03-07T16:47:33Z</time>
      </trkpt>
      <trkpt lat="43.9539" lon="5.14226">
        <ele>684.5</ele>
        <time>2013-03-07T16:47:34Z</time>
      </trkpt>
      <trkpt lat="43.95387" lon="5.14222">
        <ele>683.3</ele>
        <time>2013-03-07T16:47:37Z</time>
      </trkpt>
      <trkpt lat="43.95386" lon="5.1422">
        <ele>683</ele>
        <time>2013-03-07T16:47:38Z</time>
      </trkpt>
      <trkpt lat="43.95386" lon="5.14215">
        <ele>682.3</ele>
        <time>2013-03-07T16:47:44Z</time>
      </trkpt>
      <trkpt lat="43.95386" lon="5.14214">
        <ele>682.2</ele>
        <time>2013-03-07T16:47:45Z</time>
      </trkpt>
      <trkpt lat="43.95389" lon="5.14209">
        <ele>681.4</ele>
        <time>2013-03-07T16:47:49Z</time>
      </trkpt>
      <trkpt lat="43.95389" lon="5.14208">
        <ele>681.2</ele>
        <time>2013-03-07T16:47:50Z</time>
      </trkpt>
      <trkpt lat="43.95393" lon="5.14205">
        <ele>680.7</ele>
        <time>2013-03-07T16:47:54Z</time>
      </trkpt>
      <trkpt lat="43.95395" lon="5.14204">
        <ele>680.3</ele>
        <time>2013-03-07T16:47:55Z</time>
      </trkpt>
      <trkpt lat="43.95398" lon="5.14202">
        <ele>679.2</ele>
        <time>2013-03-07T16:48:01Z</time>
      </trkpt>
      <trkpt lat="43.954" lon="5.14198">
        <ele>679.8</ele>
        <time>2013-03-07T16:48:02Z</time>
      </trkpt>
      <trkpt lat="43.95401" lon="5.14196">
        <ele>680</ele>
        <time>2013-03-07T16:48:03Z</time>
      </trkpt>
      <trkpt lat="43.95403" lon="5.14193">
        <ele>678.8</ele>
        <time>2013-03-07T16:48:04Z</time>
      </trkpt>
      <trkpt lat="43.95406" lon="5.1419">
        <ele>678.6</ele>
        <time>2013-03-07T16:48:07Z</time>
      </trkpt>
      <trkpt lat="43.95406" lon="5.14189">
        <ele>678.8</ele>
        <time>2013-03-07T16:48:08Z</time>
      </trkpt>
      <trkpt lat="43.95408" lon="5.14185">
        <ele>678.5</ele>
        <time>2013-03-07T16:48:10Z</time>
      </trkpt>
      <trkpt lat="43.95409" lon="5.14183">
        <ele>679.1</ele>
        <time>2013-03-07T16:48:11Z</time>
      </trkpt>
      <trkpt lat="43.9541" lon="5.1418">
        <ele>678.6</ele>
        <time>2013-03-07T16:48:12Z</time>
      </trkpt>
      <trkpt lat="43.95411" lon="5.14176">
        <ele>677.9</ele>
        <time>2013-03-07T16:48:13Z</time>
      </trkpt>
      <trkpt lat="43.95413" lon="5.14173">
        <ele>677.6</ele>
        <time>2013-03-07T16:48:14Z</time>
      </trkpt>
      <trkpt lat="43.95414" lon="5.14171">
        <ele>677.3</ele>
        <time>2013-03-07T16:48:15Z</time>
      </trkpt>
      <trkpt lat="43.95415" lon="5.14169">
        <ele>676.3</ele>
        <time>2013-03-07T16:48:16Z</time>
      </trkpt>
      <trkpt lat="43.95416" lon="5.14165">
        <ele>675.7</ele>
        <time>2013-03-07T16:48:17Z</time>
      </trkpt>
      <trkpt lat="43.95418" lon="5.14163">
        <ele>675.4</ele>
        <time>2013-03-07T16:48:18Z</time>
      </trkpt>
      <trkpt lat="43.9542" lon="5.14161">
        <ele>674.7</ele>
        <time>2013-03-07T16:48:19Z</time>
      </trkpt>
      <trkpt lat="43.95423" lon="5.14156">
        <ele>674.3</ele>
        <time>2013-03-07T16:48:21Z</time>
      </trkpt>
      <trkpt lat="43.95424" lon="5.14153">
        <ele>673.8</ele>
        <time>2013-03-07T16:48:22Z</time>
      </trkpt>
      <trkpt lat="43.95426" lon="5.14151">
        <ele>673.5</ele>
        <time>2013-03-07T16:48:23Z</time>
      </trkpt>
      <trkpt lat="43.95428" lon="5.14148">
        <ele>673.1</ele>
        <time>2013-03-07T16:48:24Z</time>
      </trkpt>
      <trkpt lat="43.95431" lon="5.14144">
        <ele>672.2</ele>
        <time>2013-03-07T16:48:26Z</time>
      </trkpt>
      <trkpt lat="43.95432" lon="5.14142">
        <ele>671.1</ele>
        <time>2013-03-07T16:48:27Z</time>
      </trkpt>
      <trkpt lat="43.95436" lon="5.14139">
        <ele>670.6</ele>
        <time>2013-03-07T16:48:29Z</time>
      </trkpt>
      <trkpt lat="43.95437" lon="5.14137">
        <ele>670.5</ele>
        <time>2013-03-07T16:48:30Z</time>
      </trkpt>
      <trkpt lat="43.95437" lon="5.14132">
        <ele>669.9</ele>
        <time>2013-03-07T16:48:32Z</time>
      </trkpt>
      <trkpt lat="43.95438" lon="5.14129">
        <ele>669.6</ele>
        <time>2013-03-07T16:48:33Z</time>
      </trkpt>
      <trkpt lat="43.95439" lon="5.14126">
        <ele>667</ele>
        <time>2013-03-07T16:49:05Z</time>
      </trkpt>
      <trkpt lat="43.95444" lon="5.14123">
        <ele>668.2</ele>
        <time>2013-03-07T16:49:06Z</time>
      </trkpt>
      <trkpt lat="43.95446" lon="5.14119">
        <ele>668.3</ele>
        <time>2013-03-07T16:49:08Z</time>
      </trkpt>
      <trkpt lat="43.95447" lon="5.14117">
        <ele>667.7</ele>
        <time>2013-03-07T16:49:09Z</time>
      </trkpt>
      <trkpt lat="43.95449" lon="5.14111">
        <ele>666.5</ele>
        <time>2013-03-07T16:49:11Z</time>
      </trkpt>
      <trkpt lat="43.95451" lon="5.14108">
        <ele>666.8</ele>
        <time>2013-03-07T16:49:12Z</time>
      </trkpt>
      <trkpt lat="43.95452" lon="5.14105">
        <ele>666.7</ele>
        <time>2013-03-07T16:49:13Z</time>
      </trkpt>
      <trkpt lat="43.95454" lon="5.14102">
        <ele>666</ele>
        <time>2013-03-07T16:49:14Z</time>
      </trkpt>
      <trkpt lat="43.95456" lon="5.14097">
        <ele>665.2</ele>
        <time>2013-03-07T16:49:16Z</time>
      </trkpt>
      <trkpt lat="43.95457" lon="5.14094">
        <ele>664.4</ele>
        <time>2013-03-07T16:49:17Z</time>
      </trkpt>
      <trkpt lat="43.9546" lon="5.1409">
        <ele>663.4</ele>
        <time>2013-03-07T16:49:19Z</time>
      </trkpt>
      <trkpt lat="43.95462" lon="5.14087">
        <ele>662.8</ele>
        <time>2013-03-07T16:49:20Z</time>
      </trkpt>
      <trkpt lat="43.95464" lon="5.14082">
        <ele>661.7</ele>
        <time>2013-03-07T16:49:22Z</time>
      </trkpt>
      <trkpt lat="43.95466" lon="5.1408">
        <ele>661.2</ele>
        <time>2013-03-07T16:49:23Z</time>
      </trkpt>
      <trkpt lat="43.95468" lon="5.14076">
        <ele>658.5</ele>
        <time>2013-03-07T16:49:30Z</time>
      </trkpt>
      <trkpt lat="43.95468" lon="5.14075">
        <ele>658</ele>
        <time>2013-03-07T16:49:31Z</time>
      </trkpt>
      <trkpt lat="43.95469" lon="5.14071">
        <ele>656.1</ele>
        <time>2013-03-07T16:49:40Z</time>
      </trkpt>
      <trkpt lat="43.95469" lon="5.14068">
        <ele>656.1</ele>
        <time>2013-03-07T16:49:41Z</time>
      </trkpt>
      <trkpt lat="43.95471" lon="5.14064">
        <ele>655</ele>
        <time>2013-03-07T16:49:43Z</time>
      </trkpt>
      <trkpt lat="43.95472" lon="5.14062">
        <ele>653.5</ele>
        <time>2013-03-07T16:49:44Z</time>
      </trkpt>
      <trkpt lat="43.95474" lon="5.14059">
        <ele>653.1</ele>
        <time>2013-03-07T16:49:45Z</time>
      </trkpt>
      <trkpt lat="43.95476" lon="5.14056">
        <ele>652.6</ele>
        <time>2013-03-07T16:49:46Z</time>
      </trkpt>
      <trkpt lat="43.95479" lon="5.14054">
        <ele>651.8</ele>
        <time>2013-03-07T16:49:49Z</time>
      </trkpt>
      <trkpt lat="43.9548" lon="5.14052">
        <ele>651.7</ele>
        <time>2013-03-07T16:49:50Z</time>
      </trkpt>
      <trkpt lat="43.9548" lon="5.14052">
        <ele>651.6</ele>
        <time>2013-03-07T16:50:11Z</time>
      </trkpt>
      <trkpt lat="43.95478" lon="5.14044">
        <ele>650</ele>
        <time>2013-03-07T16:50:12Z</time>
      </trkpt>
      <trkpt lat="43.95479" lon="5.14042">
        <ele>650.2</ele>
        <time>2013-03-07T16:50:13Z</time>
      </trkpt>
      <trkpt lat="43.95477" lon="5.14037">
        <ele>650.4</ele>
        <time>2013-03-07T16:50:14Z</time>
      </trkpt>
      <trkpt lat="43.95476" lon="5.14034">
        <ele>649.3</ele>
        <time>2013-03-07T16:50:15Z</time>
      </trkpt>
      <trkpt lat="43.95474" lon="5.14031">
        <ele>648.4</ele>
        <time>2013-03-07T16:50:16Z</time>
      </trkpt>
      <trkpt lat="43.95471" lon="5.14028">
        <ele>648.6</ele>
        <time>2013-03-07T16:50:18Z</time>
      </trkpt>
      <trkpt lat="43.95471" lon="5.14025">
        <ele>647.6</ele>
        <time>2013-03-07T16:50:19Z</time>
      </trkpt>
      <trkpt lat="43.95471" lon="5.14021">
        <ele>646.6</ele>
        <time>2013-03-07T16:50:20Z</time>
      </trkpt>
      <trkpt lat="43.95472" lon="5.14017">
        <ele>646.5</ele>
        <time>2013-03-07T16:50:21Z</time>
      </trkpt>
      <trkpt lat="43.95473" lon="5.14013">
        <ele>646.1</ele>
        <time>2013-03-07T16:50:22Z</time>
      </trkpt>
      <trkpt lat="43.95473" lon="5.1401">
        <ele>645.8</ele>
        <time>2013-03-07T16:50:23Z</time>
      </trkpt>
      <trkpt lat="43.95474" lon="5.14007">
        <ele>645.2</ele>
        <time>2013-03-07T16:50:24Z</time>
      </trkpt>
      <trkpt lat="43.95474" lon="5.14003">
        <ele>644.7</ele>
        <time>2013-03-07T16:50:25Z</time>
      </trkpt>
      <trkpt lat="43.95474" lon="5.13999">
        <ele>644.7</ele>
        <time>2013-03-07T16:50:26Z</time>
      </trkpt>
      <trkpt lat="43.95473" lon="5.13995">
        <ele>644.1</ele>
        <time>2013-03-07T16:50:27Z</time>
      </trkpt>
      <trkpt lat="43.95473" lon="5.13991">
        <ele>643.7</ele>
        <time>2013-03-07T16:50:28Z</time>
      </trkpt>
      <trkpt lat="43.95473" lon="5.13986">
        <ele>642.9</ele>
        <time>2013-03-07T16:50:29Z</time>
      </trkpt>
      <trkpt lat="43.95474" lon="5.13982">
        <ele>642.6</ele>
        <time>2013-03-07T16:50:30Z</time>
      </trkpt>
      <trkpt lat="43.95475" lon="5.13978">
        <ele>641.6</ele>
        <time>2013-03-07T16:50:31Z</time>
      </trkpt>
      <trkpt lat="43.95476" lon="5.13974">
        <ele>640.9</ele>
        <time>2013-03-07T16:50:32Z</time>
      </trkpt>
      <trkpt lat="43.95477" lon="5.1397">
        <ele>640.1</ele>
        <time>2013-03-07T16:50:33Z</time>
      </trkpt>
      <trkpt lat="43.95477" lon="5.13964">
        <ele>639.7</ele>
        <time>2013-03-07T16:50:35Z</time>
      </trkpt>
      <trkpt lat="43.95477" lon="5.13962">
        <ele>639.4</ele>
        <time>2013-03-07T16:50:36Z</time>
      </trkpt>
      <trkpt lat="43.95479" lon="5.13957">
        <ele>637.6</ele>
        <time>2013-03-07T16:50:42Z</time>
      </trkpt>
      <trkpt lat="43.9548" lon="5.13956">
        <ele>637.5</ele>
        <time>2013-03-07T16:50:43Z</time>
      </trkpt>
      <trkpt lat="43.95484" lon="5.13953">
        <ele>636.4</ele>
        <time>2013-03-07T16:50:44Z</time>
      </trkpt>
      <trkpt lat="43.95486" lon="5.13951">
        <ele>636</ele>
        <time>2013-03-07T16:50:45Z</time>
      </trkpt>
      <trkpt lat="43.95488" lon="5.13949">
        <ele>635.8</ele>
        <time>2013-03-07T16:50:46Z</time>
      </trkpt>
      <trkpt lat="43.95491" lon="5.13948">
        <ele>635.4</ele>
        <time>2013-03-07T16:50:47Z</time>
      </trkpt>
      <trkpt lat="43.95494" lon="5.13946">
        <ele>635.1</ele>
        <time>2013-03-07T16:50:48Z</time>
      </trkpt>
      <trkpt lat="43.95496" lon="5.13945">
        <ele>634.9</ele>
        <time>2013-03-07T16:50:49Z</time>
      </trkpt>
      <trkpt lat="43.95498" lon="5.13943">
        <ele>634.1</ele>
        <time>2013-03-07T16:50:50Z</time>
      </trkpt>
      <trkpt lat="43.955" lon="5.1394">
        <ele>633.5</ele>
        <time>2013-03-07T16:50:51Z</time>
      </trkpt>
      <trkpt lat="43.95502" lon="5.13938">
        <ele>633.2</ele>
        <time>2013-03-07T16:50:52Z</time>
      </trkpt>
      <trkpt lat="43.95503" lon="5.13936">
        <ele>632.7</ele>
        <time>2013-03-07T16:50:53Z</time>
      </trkpt>
      <trkpt lat="43.95505" lon="5.13933">
        <ele>632</ele>
        <time>2013-03-07T16:50:54Z</time>
      </trkpt>
      <trkpt lat="43.95506" lon="5.1393">
        <ele>631.6</ele>
        <time>2013-03-07T16:50:55Z</time>
      </trkpt>
      <trkpt lat="43.95507" lon="5.13927">
        <ele>631.2</ele>
        <time>2013-03-07T16:50:56Z</time>
      </trkpt>
      <trkpt lat="43.95509" lon="5.13923">
        <ele>630.4</ele>
        <time>2013-03-07T16:50:57Z</time>
      </trkpt>
      <trkpt lat="43.9551" lon="5.1392">
        <ele>629.9</ele>
        <time>2013-03-07T16:50:58Z</time>
      </trkpt>
      <trkpt lat="43.95511" lon="5.13917">
        <ele>629.4</ele>
        <time>2013-03-07T16:50:59Z</time>
      </trkpt>
      <trkpt lat="43.95512" lon="5.13914">
        <ele>629.1</ele>
        <time>2013-03-07T16:51:00Z</time>
      </trkpt>
      <trkpt lat="43.95513" lon="5.13911">
        <ele>628.5</ele>
        <time>2013-03-07T16:51:01Z</time>
      </trkpt>
      <trkpt lat="43.95514" lon="5.13908">
        <ele>628</ele>
        <time>2013-03-07T16:51:02Z</time>
      </trkpt>
      <trkpt lat="43.95514" lon="5.13905">
        <ele>628.1</ele>
        <time>2013-03-07T16:51:03Z</time>
      </trkpt>
      <trkpt lat="43.95514" lon="5.139">
        <ele>627.8</ele>
        <time>2013-03-07T16:51:04Z</time>
      </trkpt>
      <trkpt lat="43.95515" lon="5.13896">
        <ele>627.9</ele>
        <time>2013-03-07T16:51:05Z</time>
      </trkpt>
      <trkpt lat="43.95516" lon="5.13892">
        <ele>627.4</ele>
        <time>2013-03-07T16:51:06Z</time>
      </trkpt>
      <trkpt lat="43.95515" lon="5.1389">
        <ele>627.3</ele>
        <time>2013-03-07T16:51:08Z</time>
      </trkpt>
      <trkpt lat="43.95515" lon="5.13886">
        <ele>626.2</ele>
        <time>2013-03-07T16:51:10Z</time>
      </trkpt>
      <trkpt lat="43.95515" lon="5.13883">
        <ele>625.7</ele>
        <time>2013-03-07T16:51:11Z</time>
      </trkpt>
      <trkpt lat="43.95515" lon="5.13879">
        <ele>625.6</ele>
        <time>2013-03-07T16:51:12Z</time>
      </trkpt>
      <trkpt lat="43.95515" lon="5.13875">
        <ele>624.6</ele>
        <time>2013-03-07T16:51:13Z</time>
      </trkpt>
      <trkpt lat="43.95514" lon="5.13872">
        <ele>624.1</ele>
        <time>2013-03-07T16:51:14Z</time>
      </trkpt>
      <trkpt lat="43.95514" lon="5.13868">
        <ele>623.6</ele>
        <time>2013-03-07T16:51:15Z</time>
      </trkpt>
      <trkpt lat="43.95514" lon="5.13864">
        <ele>623.1</ele>
        <time>2013-03-07T16:51:16Z</time>
      </trkpt>
      <trkpt lat="43.95513" lon="5.13861">
        <ele>622.7</ele>
        <time>2013-03-07T16:51:17Z</time>
      </trkpt>
      <trkpt lat="43.95512" lon="5.13857">
        <ele>622.2</ele>
        <time>2013-03-07T16:51:18Z</time>
      </trkpt>
      <trkpt lat="43.95511" lon="5.13854">
        <ele>622</ele>
        <time>2013-03-07T16:51:19Z</time>
      </trkpt>
      <trkpt lat="43.95509" lon="5.13851">
        <ele>621.3</ele>
        <time>2013-03-07T16:51:20Z</time>
      </trkpt>
      <trkpt lat="43.95507" lon="5.13849">
        <ele>620.8</ele>
        <time>2013-03-07T16:51:21Z</time>
      </trkpt>
      <trkpt lat="43.95504" lon="5.13846">
        <ele>620.5</ele>
        <time>2013-03-07T16:51:22Z</time>
      </trkpt>
      <trkpt lat="43.95502" lon="5.13845">
        <ele>620.1</ele>
        <time>2013-03-07T16:51:23Z</time>
      </trkpt>
      <trkpt lat="43.955" lon="5.13843">
        <ele>619.5</ele>
        <time>2013-03-07T16:51:24Z</time>
      </trkpt>
      <trkpt lat="43.95497" lon="5.13842">
        <ele>618.5</ele>
        <time>2013-03-07T16:51:25Z</time>
      </trkpt>
      <trkpt lat="43.95493" lon="5.13843">
        <ele>618.3</ele>
        <time>2013-03-07T16:51:27Z</time>
      </trkpt>
      <trkpt lat="43.95491" lon="5.13844">
        <ele>617.9</ele>
        <time>2013-03-07T16:51:28Z</time>
      </trkpt>
      <trkpt lat="43.95487" lon="5.13843">
        <ele>617.4</ele>
        <time>2013-03-07T16:51:30Z</time>
      </trkpt>
      <trkpt lat="43.95486" lon="5.1384">
        <ele>616.6</ele>
        <time>2013-03-07T16:51:31Z</time>
      </trkpt>
      <trkpt lat="43.95485" lon="5.13838">
        <ele>616.3</ele>
        <time>2013-03-07T16:51:32Z</time>
      </trkpt>
      <trkpt lat="43.95484" lon="5.13835">
        <ele>615.7</ele>
        <time>2013-03-07T16:51:33Z</time>
      </trkpt>
      <trkpt lat="43.95482" lon="5.13832">
        <ele>615.9</ele>
        <time>2013-03-07T16:51:34Z</time>
      </trkpt>
      <trkpt lat="43.95481" lon="5.13829">
        <ele>615.2</ele>
        <time>2013-03-07T16:51:35Z</time>
      </trkpt>
      <trkpt lat="43.9548" lon="5.13826">
        <ele>614.7</ele>
        <time>2013-03-07T16:51:36Z</time>
      </trkpt>
      <trkpt lat="43.9548" lon="5.13821">
        <ele>614</ele>
        <time>2013-03-07T16:51:37Z</time>
      </trkpt>
      <trkpt lat="43.9548" lon="5.13816">
        <ele>612.7</ele>
        <time>2013-03-07T16:51:38Z</time>
      </trkpt>
      <trkpt lat="43.95482" lon="5.13811">
        <ele>612.1</ele>
        <time>2013-03-07T16:51:39Z</time>
      </trkpt>
      <trkpt lat="43.95483" lon="5.13806">
        <ele>611.4</ele>
        <time>2013-03-07T16:51:40Z</time>
      </trkpt>
      <trkpt lat="43.95485" lon="5.13801">
        <ele>610.4</ele>
        <time>2013-03-07T16:51:41Z</time>
      </trkpt>
      <trkpt lat="43.95487" lon="5.13796">
        <ele>609.5</ele>
        <time>2013-03-07T16:51:42Z</time>
      </trkpt>
      <trkpt lat="43.95488" lon="5.13792">
        <ele>608.8</ele>
        <time>2013-03-07T16:51:43Z</time>
      </trkpt>
      <trkpt lat="43.95489" lon="5.13787">
        <ele>608.5</ele>
        <time>2013-03-07T16:51:44Z</time>
      </trkpt>
      <trkpt lat="43.9549" lon="5.13783">
        <ele>608</ele>
        <time>2013-03-07T16:51:45Z</time>
      </trkpt>
      <trkpt lat="43.9549" lon="5.13778">
        <ele>607.3</ele>
        <time>2013-03-07T16:51:46Z</time>
      </trkpt>
      <trkpt lat="43.95491" lon="5.13773">
        <ele>606.7</ele>
        <time>2013-03-07T16:51:47Z</time>
      </trkpt>
      <trkpt lat="43.95491" lon="5.13768">
        <ele>605.8</ele>
        <time>2013-03-07T16:51:48Z</time>
      </trkpt>
      <trkpt lat="43.95491" lon="5.13762">
        <ele>605.3</ele>
        <time>2013-03-07T16:51:49Z</time>
      </trkpt>
      <trkpt lat="43.95492" lon="5.13757">
        <ele>604.6</ele>
        <time>2013-03-07T16:51:50Z</time>
      </trkpt>
      <trkpt lat="43.95494" lon="5.13753">
        <ele>603.8</ele>
        <time>2013-03-07T16:51:51Z</time>
      </trkpt>
      <trkpt lat="43.95496" lon="5.13748">
        <ele>603.1</ele>
        <time>2013-03-07T16:51:52Z</time>
      </trkpt>
      <trkpt lat="43.95498" lon="5.13742">
        <ele>602.4</ele>
        <time>2013-03-07T16:51:53Z</time>
      </trkpt>
      <trkpt lat="43.95499" lon="5.13735">
        <ele>601.8</ele>
        <time>2013-03-07T16:51:54Z</time>
      </trkpt>
      <trkpt lat="43.955" lon="5.1373">
        <ele>601.3</ele>
        <time>2013-03-07T16:51:55Z</time>
      </trkpt>
      <trkpt lat="43.95501" lon="5.13724">
        <ele>600.8</ele>
        <time>2013-03-07T16:51:56Z</time>
      </trkpt>
      <trkpt lat="43.95503" lon="5.1372">
        <ele>600.2</ele>
        <time>2013-03-07T16:51:57Z</time>
      </trkpt>
      <trkpt lat="43.95504" lon="5.13715">
        <ele>599.7</ele>
        <time>2013-03-07T16:51:58Z</time>
      </trkpt>
      <trkpt lat="43.95505" lon="5.1371">
        <ele>599.2</ele>
        <time>2013-03-07T16:51:59Z</time>
      </trkpt>
      <trkpt lat="43.95505" lon="5.13705">
        <ele>598.7</ele>
        <time>2013-03-07T16:52:00Z</time>
      </trkpt>
      <trkpt lat="43.95506" lon="5.137">
        <ele>598.1</ele>
        <time>2013-03-07T16:52:01Z</time>
      </trkpt>
      <trkpt lat="43.95507" lon="5.13696">
        <ele>597.6</ele>
        <time>2013-03-07T16:52:02Z</time>
      </trkpt>
      <trkpt lat="43.95508" lon="5.13691">
        <ele>596.9</ele>
        <time>2013-03-07T16:52:03Z</time>
      </trkpt>
      <trkpt lat="43.9551" lon="5.13686">
        <ele>596.3</ele>
        <time>2013-03-07T16:52:04Z</time>
      </trkpt>
      <trkpt lat="43.95511" lon="5.13681">
        <ele>595.7</ele>
        <time>2013-03-07T16:52:05Z</time>
      </trkpt>
      <trkpt lat="43.95512" lon="5.13675">
        <ele>595.3</ele>
        <time>2013-03-07T16:52:06Z</time>
      </trkpt>
      <trkpt lat="43.95514" lon="5.13663">
        <ele>593.9</ele>
        <time>2013-03-07T16:52:08Z</time>
      </trkpt>
      <trkpt lat="43.95514" lon="5.13657">
        <ele>593.4</ele>
        <time>2013-03-07T16:52:09Z</time>
      </trkpt>
      <trkpt lat="43.95516" lon="5.13651">
        <ele>592.8</ele>
        <time>2013-03-07T16:52:10Z</time>
      </trkpt>
      <trkpt lat="43.95516" lon="5.13645">
        <ele>592.4</ele>
        <time>2013-03-07T16:52:11Z</time>
      </trkpt>
      <trkpt lat="43.95517" lon="5.1364">
        <ele>591.7</ele>
        <time>2013-03-07T16:52:12Z</time>
      </trkpt>
      <trkpt lat="43.95519" lon="5.13635">
        <ele>591</ele>
        <time>2013-03-07T16:52:13Z</time>
      </trkpt>
      <trkpt lat="43.9552" lon="5.1363">
        <ele>590.5</ele>
        <time>2013-03-07T16:52:14Z</time>
      </trkpt>
      <trkpt lat="43.95521" lon="5.13626">
        <ele>589.5</ele>
        <time>2013-03-07T16:52:15Z</time>
      </trkpt>
      <trkpt lat="43.95522" lon="5.13622">
        <ele>589</ele>
        <time>2013-03-07T16:52:16Z</time>
      </trkpt>
      <trkpt lat="43.95523" lon="5.13618">
        <ele>588.5</ele>
        <time>2013-03-07T16:52:17Z</time>
      </trkpt>
      <trkpt lat="43.95524" lon="5.13614">
        <ele>588</ele>
        <time>2013-03-07T16:52:18Z</time>
      </trkpt>
      <trkpt lat="43.95524" lon="5.1361">
        <ele>587.5</ele>
        <time>2013-03-07T16:52:19Z</time>
      </trkpt>
      <trkpt lat="43.95524" lon="5.13606">
        <ele>587.4</ele>
        <time>2013-03-07T16:52:20Z</time>
      </trkpt>
      <trkpt lat="43.95525" lon="5.13603">
        <ele>586.9</ele>
        <time>2013-03-07T16:52:21Z</time>
      </trkpt>
      <trkpt lat="43.95526" lon="5.13599">
        <ele>586.2</ele>
        <time>2013-03-07T16:52:22Z</time>
      </trkpt>
      <trkpt lat="43.95527" lon="5.13596">
        <ele>586</ele>
        <time>2013-03-07T16:52:23Z</time>
      </trkpt>
      <trkpt lat="43.95529" lon="5.13593">
        <ele>585.6</ele>
        <time>2013-03-07T16:52:24Z</time>
      </trkpt>
      <trkpt lat="43.95532" lon="5.13591">
        <ele>585.6</ele>
        <time>2013-03-07T16:52:25Z</time>
      </trkpt>
      <trkpt lat="43.95534" lon="5.13589">
        <ele>585.5</ele>
        <time>2013-03-07T16:52:26Z</time>
      </trkpt>
      <trkpt lat="43.95537" lon="5.13586">
        <ele>585.6</ele>
        <time>2013-03-07T16:52:27Z</time>
      </trkpt>
      <trkpt lat="43.95539" lon="5.13584">
        <ele>584.9</ele>
        <time>2013-03-07T16:52:28Z</time>
      </trkpt>
      <trkpt lat="43.95541" lon="5.13581">
        <ele>584.3</ele>
        <time>2013-03-07T16:52:29Z</time>
      </trkpt>
      <trkpt lat="43.95543" lon="5.13577">
        <ele>584</ele>
        <time>2013-03-07T16:52:30Z</time>
      </trkpt>
      <trkpt lat="43.95544" lon="5.13574">
        <ele>583.4</ele>
        <time>2013-03-07T16:52:31Z</time>
      </trkpt>
      <trkpt lat="43.95546" lon="5.13571">
        <ele>583</ele>
        <time>2013-03-07T16:52:32Z</time>
      </trkpt>
      <trkpt lat="43.95548" lon="5.13568">
        <ele>582</ele>
        <time>2013-03-07T16:52:33Z</time>
      </trkpt>
      <trkpt lat="43.9555" lon="5.13565">
        <ele>581.7</ele>
        <time>2013-03-07T16:52:34Z</time>
      </trkpt>
      <trkpt lat="43.95551" lon="5.13561">
        <ele>581.1</ele>
        <time>2013-03-07T16:52:35Z</time>
      </trkpt>
      <trkpt lat="43.95552" lon="5.13556">
        <ele>581</ele>
        <time>2013-03-07T16:52:36Z</time>
      </trkpt>
      <trkpt lat="43.95553" lon="5.13551">
        <ele>580.6</ele>
        <time>2013-03-07T16:52:37Z</time>
      </trkpt>
      <trkpt lat="43.95555" lon="5.13547">
        <ele>580.5</ele>
        <time>2013-03-07T16:52:38Z</time>
      </trkpt>
      <trkpt lat="43.95557" lon="5.13542">
        <ele>579.7</ele>
        <time>2013-03-07T16:52:39Z</time>
      </trkpt>
      <trkpt lat="43.95559" lon="5.13537">
        <ele>579.2</ele>
        <time>2013-03-07T16:52:40Z</time>
      </trkpt>
      <trkpt lat="43.9556" lon="5.13532">
        <ele>578.9</ele>
        <time>2013-03-07T16:52:41Z</time>
      </trkpt>
      <trkpt lat="43.95562" lon="5.13526">
        <ele>578.7</ele>
        <time>2013-03-07T16:52:42Z</time>
      </trkpt>
      <trkpt lat="43.95563" lon="5.1352">
        <ele>578.2</ele>
        <time>2013-03-07T16:52:43Z</time>
      </trkpt>
      <trkpt lat="43.95564" lon="5.13514">
        <ele>577.3</ele>
        <time>2013-03-07T16:52:44Z</time>
      </trkpt>
      <trkpt lat="43.95566" lon="5.13508">
        <ele>576.6</ele>
        <time>2013-03-07T16:52:45Z</time>
      </trkpt>
      <trkpt lat="43.95567" lon="5.13503">
        <ele>576.1</ele>
        <time>2013-03-07T16:52:46Z</time>
      </trkpt>
      <trkpt lat="43.95568" lon="5.13498">
        <ele>575.7</ele>
        <time>2013-03-07T16:52:47Z</time>
      </trkpt>
      <trkpt lat="43.95571" lon="5.13493">
        <ele>575.4</ele>
        <time>2013-03-07T16:52:48Z</time>
      </trkpt>
      <trkpt lat="43.95573" lon="5.13488">
        <ele>574.9</ele>
        <time>2013-03-07T16:52:49Z</time>
      </trkpt>
      <trkpt lat="43.95576" lon="5.13484">
        <ele>574.6</ele>
        <time>2013-03-07T16:52:50Z</time>
      </trkpt>
      <trkpt lat="43.95579" lon="5.13479">
        <ele>574.5</ele>
        <time>2013-03-07T16:52:51Z</time>
      </trkpt>
      <trkpt lat="43.95581" lon="5.13474">
        <ele>574</ele>
        <time>2013-03-07T16:52:52Z</time>
      </trkpt>
      <trkpt lat="43.95583" lon="5.1347">
        <ele>573.2</ele>
        <time>2013-03-07T16:52:53Z</time>
      </trkpt>
      <trkpt lat="43.95585" lon="5.13465">
        <ele>572.7</ele>
        <time>2013-03-07T16:52:54Z</time>
      </trkpt>
      <trkpt lat="43.95587" lon="5.13461">
        <ele>572.2</ele>
        <time>2013-03-07T16:52:55Z</time>
      </trkpt>
      <trkpt lat="43.95588" lon="5.13456">
        <ele>571.9</ele>
        <time>2013-03-07T16:52:56Z</time>
      </trkpt>
      <trkpt lat="43.9559" lon="5.13452">
        <ele>571.6</ele>
        <time>2013-03-07T16:52:57Z</time>
      </trkpt>
      <trkpt lat="43.95591" lon="5.13446">
        <ele>570.6</ele>
        <time>2013-03-07T16:52:58Z</time>
      </trkpt>
      <trkpt lat="43.95593" lon="5.13441">
        <ele>570.4</ele>
        <time>2013-03-07T16:52:59Z</time>
      </trkpt>
      <trkpt lat="43.95595" lon="5.13436">
        <ele>570</ele>
        <time>2013-03-07T16:53:00Z</time>
      </trkpt>
      <trkpt lat="43.95597" lon="5.13431">
        <ele>569.7</ele>
        <time>2013-03-07T16:53:01Z</time>
      </trkpt>
      <trkpt lat="43.956" lon="5.13427">
        <ele>570.1</ele>
        <time>2013-03-07T16:53:02Z</time>
      </trkpt>
      <trkpt lat="43.95602" lon="5.13421">
        <ele>569.5</ele>
        <time>2013-03-07T16:53:03Z</time>
      </trkpt>
      <trkpt lat="43.95603" lon="5.13416">
        <ele>569</ele>
        <time>2013-03-07T16:53:04Z</time>
      </trkpt>
      <trkpt lat="43.95605" lon="5.1341">
        <ele>568.3</ele>
        <time>2013-03-07T16:53:05Z</time>
      </trkpt>
      <trkpt lat="43.95606" lon="5.13403">
        <ele>568.1</ele>
        <time>2013-03-07T16:53:06Z</time>
      </trkpt>
      <trkpt lat="43.95609" lon="5.13394">
        <ele>568</ele>
        <time>2013-03-07T16:53:08Z</time>
      </trkpt>
      <trkpt lat="43.95611" lon="5.13388">
        <ele>566.5</ele>
        <time>2013-03-07T16:53:10Z</time>
      </trkpt>
      <trkpt lat="43.95612" lon="5.13385">
        <ele>566</ele>
        <time>2013-03-07T16:53:11Z</time>
      </trkpt>
      <trkpt lat="43.95615" lon="5.13381">
        <ele>565.4</ele>
        <time>2013-03-07T16:53:12Z</time>
      </trkpt>
      <trkpt lat="43.95617" lon="5.13375">
        <ele>564.7</ele>
        <time>2013-03-07T16:53:13Z</time>
      </trkpt>
      <trkpt lat="43.95619" lon="5.13372">
        <ele>564.3</ele>
        <time>2013-03-07T16:53:14Z</time>
      </trkpt>
      <trkpt lat="43.95621" lon="5.13368">
        <ele>564.2</ele>
        <time>2013-03-07T16:53:15Z</time>
      </trkpt>
      <trkpt lat="43.95623" lon="5.13365">
        <ele>564.6</ele>
        <time>2013-03-07T16:53:16Z</time>
      </trkpt>
      <trkpt lat="43.95625" lon="5.13363">
        <ele>564.3</ele>
        <time>2013-03-07T16:53:17Z</time>
      </trkpt>
      <trkpt lat="43.95628" lon="5.13359">
        <ele>565.2</ele>
        <time>2013-03-07T16:53:20Z</time>
      </trkpt>
      <trkpt lat="43.95629" lon="5.13361">
        <ele>565.7</ele>
        <time>2013-03-07T16:53:21Z</time>
      </trkpt>
      <trkpt lat="43.95632" lon="5.13356">
        <ele>566.7</ele>
        <time>2013-03-07T16:53:57Z</time>
      </trkpt>
      <trkpt lat="43.95632" lon="5.13356">
        <ele>566.4</ele>
        <time>2013-03-07T16:53:58Z</time>
      </trkpt>
      <trkpt lat="43.95632" lon="5.13357">
        <ele>565.9</ele>
        <time>2013-03-07T16:54:10Z</time>
      </trkpt>
      <trkpt lat="43.95628" lon="5.13363">
        <ele>563.9</ele>
        <time>2013-03-07T16:54:11Z</time>
      </trkpt>
      <trkpt lat="43.95625" lon="5.13358">
        <ele>565.2</ele>
        <time>2013-03-07T16:54:26Z</time>
      </trkpt>
      <trkpt lat="43.95626" lon="5.13356">
        <ele>565</ele>
        <time>2013-03-07T16:54:27Z</time>
      </trkpt>
      <trkpt lat="43.95627" lon="5.13353">
        <ele>565.6</ele>
        <time>2013-03-07T16:54:28Z</time>
      </trkpt>
      <trkpt lat="43.95628" lon="5.13351">
        <ele>566.1</ele>
        <time>2013-03-07T16:54:29Z</time>
      </trkpt>
      <trkpt lat="43.95628" lon="5.13348">
        <ele>565.2</ele>
        <time>2013-03-07T16:54:30Z</time>
      </trkpt>
      <trkpt lat="43.95628" lon="5.13344">
        <ele>565.8</ele>
        <time>2013-03-07T16:54:31Z</time>
      </trkpt>
      <trkpt lat="43.95628" lon="5.1334">
        <ele>566</ele>
        <time>2013-03-07T16:54:32Z</time>
      </trkpt>
      <trkpt lat="43.95629" lon="5.13337">
        <ele>565.5</ele>
        <time>2013-03-07T16:54:33Z</time>
      </trkpt>
      <trkpt lat="43.9563" lon="5.13333">
        <ele>565.6</ele>
        <time>2013-03-07T16:54:34Z</time>
      </trkpt>
      <trkpt lat="43.95631" lon="5.1333">
        <ele>565.2</ele>
        <time>2013-03-07T16:54:35Z</time>
      </trkpt>
      <trkpt lat="43.95633" lon="5.13325">
        <ele>564.9</ele>
        <time>2013-03-07T16:54:36Z</time>
      </trkpt>
      <trkpt lat="43.95634" lon="5.13321">
        <ele>564.1</ele>
        <time>2013-03-07T16:54:37Z</time>
      </trkpt>
      <trkpt lat="43.95636" lon="5.13318">
        <ele>564.1</ele>
        <time>2013-03-07T16:54:38Z</time>
      </trkpt>
      <trkpt lat="43.95637" lon="5.13314">
        <ele>564.1</ele>
        <time>2013-03-07T16:54:39Z</time>
      </trkpt>
      <trkpt lat="43.95639" lon="5.1331">
        <ele>563.8</ele>
        <time>2013-03-07T16:54:40Z</time>
      </trkpt>
      <trkpt lat="43.9564" lon="5.13306">
        <ele>563.5</ele>
        <time>2013-03-07T16:54:41Z</time>
      </trkpt>
      <trkpt lat="43.95637" lon="5.133">
        <ele>562.3</ele>
        <time>2013-03-07T16:54:42Z</time>
      </trkpt>
      <trkpt lat="43.95637" lon="5.13296">
        <ele>562.2</ele>
        <time>2013-03-07T16:54:43Z</time>
      </trkpt>
      <trkpt lat="43.95637" lon="5.13292">
        <ele>562.1</ele>
        <time>2013-03-07T16:54:44Z</time>
      </trkpt>
      <trkpt lat="43.95636" lon="5.13289">
        <ele>562.3</ele>
        <time>2013-03-07T16:54:45Z</time>
      </trkpt>
      <trkpt lat="43.95637" lon="5.13285">
        <ele>561.9</ele>
        <time>2013-03-07T16:54:46Z</time>
      </trkpt>
      <trkpt lat="43.95639" lon="5.13282">
        <ele>562</ele>
        <time>2013-03-07T16:54:47Z</time>
      </trkpt>
      <trkpt lat="43.95641" lon="5.13279">
        <ele>562</ele>
        <time>2013-03-07T16:54:48Z</time>
      </trkpt>
      <trkpt lat="43.95642" lon="5.13277">
        <ele>561.8</ele>
        <time>2013-03-07T16:54:49Z</time>
      </trkpt>
      <trkpt lat="43.95645" lon="5.13274">
        <ele>561.9</ele>
        <time>2013-03-07T16:54:50Z</time>
      </trkpt>
      <trkpt lat="43.95645" lon="5.13269">
        <ele>560</ele>
        <time>2013-03-07T16:54:51Z</time>
      </trkpt>
      <trkpt lat="43.95647" lon="5.13265">
        <ele>560.2</ele>
        <time>2013-03-07T16:54:52Z</time>
      </trkpt>
      <trkpt lat="43.95646" lon="5.1326">
        <ele>560.2</ele>
        <time>2013-03-07T16:54:53Z</time>
      </trkpt>
      <trkpt lat="43.95645" lon="5.13255">
        <ele>559.6</ele>
        <time>2013-03-07T16:54:54Z</time>
      </trkpt>
      <trkpt lat="43.95645" lon="5.1325">
        <ele>559.4</ele>
        <time>2013-03-07T16:54:55Z</time>
      </trkpt>
      <trkpt lat="43.95644" lon="5.13247">
        <ele>559</ele>
        <time>2013-03-07T16:54:56Z</time>
      </trkpt>
      <trkpt lat="43.95643" lon="5.13242">
        <ele>558.8</ele>
        <time>2013-03-07T16:54:57Z</time>
      </trkpt>
      <trkpt lat="43.95643" lon="5.13239">
        <ele>558.5</ele>
        <time>2013-03-07T16:54:58Z</time>
      </trkpt>
      <trkpt lat="43.95643" lon="5.13234">
        <ele>558</ele>
        <time>2013-03-07T16:54:59Z</time>
      </trkpt>
      <trkpt lat="43.95643" lon="5.1323">
        <ele>557.9</ele>
        <time>2013-03-07T16:55:00Z</time>
      </trkpt>
      <trkpt lat="43.95643" lon="5.13225">
        <ele>557.8</ele>
        <time>2013-03-07T16:55:01Z</time>
      </trkpt>
      <trkpt lat="43.95642" lon="5.13221">
        <ele>557.3</ele>
        <time>2013-03-07T16:55:02Z</time>
      </trkpt>
      <trkpt lat="43.95642" lon="5.13216">
        <ele>557</ele>
        <time>2013-03-07T16:55:03Z</time>
      </trkpt>
      <trkpt lat="43.9564" lon="5.13212">
        <ele>557.3</ele>
        <time>2013-03-07T16:55:04Z</time>
      </trkpt>
      <trkpt lat="43.95639" lon="5.13207">
        <ele>557.4</ele>
        <time>2013-03-07T16:55:05Z</time>
      </trkpt>
      <trkpt lat="43.95639" lon="5.13202">
        <ele>558</ele>
        <time>2013-03-07T16:55:06Z</time>
      </trkpt>
      <trkpt lat="43.95641" lon="5.13192">
        <ele>561.4</ele>
        <time>2013-03-07T16:55:08Z</time>
      </trkpt>
      <trkpt lat="43.95644" lon="5.13184">
        <ele>563.1</ele>
        <time>2013-03-07T16:55:09Z</time>
      </trkpt>
      <trkpt lat="43.95645" lon="5.13178">
        <ele>563.6</ele>
        <time>2013-03-07T16:55:10Z</time>
      </trkpt>
      <trkpt lat="43.95647" lon="5.13174">
        <ele>564</ele>
        <time>2013-03-07T16:55:11Z</time>
      </trkpt>
      <trkpt lat="43.95631" lon="5.13159">
        <ele>568.7</ele>
        <time>2013-03-07T16:55:12Z</time>
      </trkpt>
      <trkpt lat="43.95629" lon="5.13152">
        <ele>569.2</ele>
        <time>2013-03-07T16:55:13Z</time>
      </trkpt>
      <trkpt lat="43.95627" lon="5.13145">
        <ele>569.4</ele>
        <time>2013-03-07T16:55:14Z</time>
      </trkpt>
      <trkpt lat="43.95627" lon="5.13138">
        <ele>568.2</ele>
        <time>2013-03-07T16:55:15Z</time>
      </trkpt>
      <trkpt lat="43.95624" lon="5.13131">
        <ele>568.1</ele>
        <time>2013-03-07T16:55:16Z</time>
      </trkpt>
      <trkpt lat="43.95622" lon="5.13123">
        <ele>567.3</ele>
        <time>2013-03-07T16:55:17Z</time>
      </trkpt>
      <trkpt lat="43.9562" lon="5.13115">
        <ele>566.6</ele>
        <time>2013-03-07T16:55:18Z</time>
      </trkpt>
      <trkpt lat="43.95617" lon="5.13108">
        <ele>566.3</ele>
        <time>2013-03-07T16:55:19Z</time>
      </trkpt>
      <trkpt lat="43.95614" lon="5.13101">
        <ele>566.4</ele>
        <time>2013-03-07T16:55:20Z</time>
      </trkpt>
      <trkpt lat="43.95613" lon="5.13093">
        <ele>566.8</ele>
        <time>2013-03-07T16:55:21Z</time>
      </trkpt>
      <trkpt lat="43.95612" lon="5.13085">
        <ele>567</ele>
        <time>2013-03-07T16:55:22Z</time>
      </trkpt>
      <trkpt lat="43.95612" lon="5.13078">
        <ele>567.2</ele>
        <time>2013-03-07T16:55:23Z</time>
      </trkpt>
      <trkpt lat="43.95609" lon="5.13074">
        <ele>560</ele>
        <time>2013-03-07T16:55:33Z</time>
      </trkpt>
      <trkpt lat="43.95608" lon="5.13074">
        <ele>559.6</ele>
        <time>2013-03-07T16:55:34Z</time>
      </trkpt>
      <trkpt lat="43.95604" lon="5.1307">
        <ele>559.3</ele>
        <time>2013-03-07T16:55:39Z</time>
      </trkpt>
      <trkpt lat="43.95603" lon="5.13069">
        <ele>559</ele>
        <time>2013-03-07T16:55:40Z</time>
      </trkpt>
      <trkpt lat="43.95603" lon="5.13067">
        <ele>560.1</ele>
        <time>2013-03-07T16:55:42Z</time>
      </trkpt>
      <trkpt lat="43.95605" lon="5.13063">
        <ele>559.3</ele>
        <time>2013-03-07T16:55:43Z</time>
      </trkpt>
      <trkpt lat="43.95605" lon="5.13057">
        <ele>558.4</ele>
        <time>2013-03-07T16:55:45Z</time>
      </trkpt>
      <trkpt lat="43.95605" lon="5.13053">
        <ele>557.9</ele>
        <time>2013-03-07T16:55:46Z</time>
      </trkpt>
      <trkpt lat="43.95605" lon="5.13049">
        <ele>557.5</ele>
        <time>2013-03-07T16:55:47Z</time>
      </trkpt>
      <trkpt lat="43.95605" lon="5.13045">
        <ele>557.3</ele>
        <time>2013-03-07T16:55:48Z</time>
      </trkpt>
      <trkpt lat="43.95605" lon="5.13041">
        <ele>557.4</ele>
        <time>2013-03-07T16:55:49Z</time>
      </trkpt>
      <trkpt lat="43.95607" lon="5.13039">
        <ele>557.5</ele>
        <time>2013-03-07T16:55:50Z</time>
      </trkpt>
      <trkpt lat="43.95609" lon="5.13037">
        <ele>557.4</ele>
        <time>2013-03-07T16:55:51Z</time>
      </trkpt>
      <trkpt lat="43.95611" lon="5.13035">
        <ele>557.4</ele>
        <time>2013-03-07T16:55:52Z</time>
      </trkpt>
      <trkpt lat="43.95614" lon="5.13033">
        <ele>554.7</ele>
        <time>2013-03-07T16:55:53Z</time>
      </trkpt>
      <trkpt lat="43.95617" lon="5.13029">
        <ele>553.5</ele>
        <time>2013-03-07T16:55:54Z</time>
      </trkpt>
      <trkpt lat="43.95621" lon="5.13025">
        <ele>553.1</ele>
        <time>2013-03-07T16:55:55Z</time>
      </trkpt>
      <trkpt lat="43.95622" lon="5.13021">
        <ele>553.1</ele>
        <time>2013-03-07T16:55:56Z</time>
      </trkpt>
      <trkpt lat="43.95624" lon="5.13017">
        <ele>552.8</ele>
        <time>2013-03-07T16:55:57Z</time>
      </trkpt>
      <trkpt lat="43.95627" lon="5.13014">
        <ele>552.8</ele>
        <time>2013-03-07T16:55:58Z</time>
      </trkpt>
      <trkpt lat="43.95629" lon="5.1301">
        <ele>552.4</ele>
        <time>2013-03-07T16:55:59Z</time>
      </trkpt>
      <trkpt lat="43.95631" lon="5.13006">
        <ele>552.4</ele>
        <time>2013-03-07T16:56:00Z</time>
      </trkpt>
      <trkpt lat="43.95633" lon="5.13002">
        <ele>551.8</ele>
        <time>2013-03-07T16:56:01Z</time>
      </trkpt>
      <trkpt lat="43.95636" lon="5.12999">
        <ele>551.3</ele>
        <time>2013-03-07T16:56:02Z</time>
      </trkpt>
      <trkpt lat="43.95638" lon="5.12995">
        <ele>551.5</ele>
        <time>2013-03-07T16:56:03Z</time>
      </trkpt>
      <trkpt lat="43.95641" lon="5.12993">
        <ele>551.7</ele>
        <time>2013-03-07T16:56:04Z</time>
      </trkpt>
      <trkpt lat="43.95643" lon="5.1299">
        <ele>551.6</ele>
        <time>2013-03-07T16:56:05Z</time>
      </trkpt>
      <trkpt lat="43.95645" lon="5.12986">
        <ele>551.7</ele>
        <time>2013-03-07T16:56:06Z</time>
      </trkpt>
      <trkpt lat="43.95647" lon="5.12978">
        <ele>550.9</ele>
        <time>2013-03-07T16:56:08Z</time>
      </trkpt>
      <trkpt lat="43.95647" lon="5.12974">
        <ele>550.2</ele>
        <time>2013-03-07T16:56:09Z</time>
      </trkpt>
      <trkpt lat="43.95646" lon="5.12968">
        <ele>549.7</ele>
        <time>2013-03-07T16:56:10Z</time>
      </trkpt>
      <trkpt lat="43.95646" lon="5.12964">
        <ele>549.5</ele>
        <time>2013-03-07T16:56:11Z</time>
      </trkpt>
      <trkpt lat="43.95647" lon="5.1296">
        <ele>549</ele>
        <time>2013-03-07T16:56:12Z</time>
      </trkpt>
      <trkpt lat="43.95649" lon="5.12957">
        <ele>549</ele>
        <time>2013-03-07T16:56:13Z</time>
      </trkpt>
      <trkpt lat="43.95652" lon="5.12954">
        <ele>548.3</ele>
        <time>2013-03-07T16:56:14Z</time>
      </trkpt>
      <trkpt lat="43.95653" lon="5.12951">
        <ele>547.8</ele>
        <time>2013-03-07T16:56:15Z</time>
      </trkpt>
      <trkpt lat="43.95652" lon="5.12946">
        <ele>546.7</ele>
        <time>2013-03-07T16:56:16Z</time>
      </trkpt>
      <trkpt lat="43.95652" lon="5.12943">
        <ele>546.8</ele>
        <time>2013-03-07T16:56:17Z</time>
      </trkpt>
      <trkpt lat="43.95652" lon="5.12939">
        <ele>546.1</ele>
        <time>2013-03-07T16:56:18Z</time>
      </trkpt>
      <trkpt lat="43.95653" lon="5.12933">
        <ele>544.8</ele>
        <time>2013-03-07T16:56:20Z</time>
      </trkpt>
      <trkpt lat="43.95653" lon="5.12931">
        <ele>544.9</ele>
        <time>2013-03-07T16:56:21Z</time>
      </trkpt>
      <trkpt lat="43.95652" lon="5.12927">
        <ele>543.8</ele>
        <time>2013-03-07T16:56:27Z</time>
      </trkpt>
      <trkpt lat="43.95651" lon="5.12925">
        <ele>542.9</ele>
        <time>2013-03-07T16:56:28Z</time>
      </trkpt>
      <trkpt lat="43.95651" lon="5.12921">
        <ele>542.2</ele>
        <time>2013-03-07T16:56:31Z</time>
      </trkpt>
      <trkpt lat="43.9565" lon="5.12919">
        <ele>542.2</ele>
        <time>2013-03-07T16:56:32Z</time>
      </trkpt>
      <trkpt lat="43.95651" lon="5.12913">
        <ele>542.4</ele>
        <time>2013-03-07T16:56:39Z</time>
      </trkpt>
      <trkpt lat="43.95652" lon="5.12911">
        <ele>542.2</ele>
        <time>2013-03-07T16:56:40Z</time>
      </trkpt>
      <trkpt lat="43.9565" lon="5.12908">
        <ele>542.1</ele>
        <time>2013-03-07T16:56:41Z</time>
      </trkpt>
      <trkpt lat="43.95649" lon="5.12906">
        <ele>541.8</ele>
        <time>2013-03-07T16:56:42Z</time>
      </trkpt>
      <trkpt lat="43.95647" lon="5.12902">
        <ele>541.6</ele>
        <time>2013-03-07T16:56:44Z</time>
      </trkpt>
      <trkpt lat="43.95646" lon="5.12899">
        <ele>541.5</ele>
        <time>2013-03-07T16:56:45Z</time>
      </trkpt>
      <trkpt lat="43.95645" lon="5.12897">
        <ele>541.7</ele>
        <time>2013-03-07T16:56:46Z</time>
      </trkpt>
      <trkpt lat="43.95638" lon="5.12894">
        <ele>540.6</ele>
        <time>2013-03-07T16:56:47Z</time>
      </trkpt>
      <trkpt lat="43.95636" lon="5.12892">
        <ele>540.6</ele>
        <time>2013-03-07T16:56:48Z</time>
      </trkpt>
      <trkpt lat="43.95632" lon="5.12888">
        <ele>540.2</ele>
        <time>2013-03-07T16:56:49Z</time>
      </trkpt>
      <trkpt lat="43.9563" lon="5.12885">
        <ele>539.8</ele>
        <time>2013-03-07T16:56:50Z</time>
      </trkpt>
      <trkpt lat="43.95628" lon="5.12882">
        <ele>539.6</ele>
        <time>2013-03-07T16:56:51Z</time>
      </trkpt>
      <trkpt lat="43.95627" lon="5.12878">
        <ele>539.4</ele>
        <time>2013-03-07T16:56:52Z</time>
      </trkpt>
      <trkpt lat="43.95626" lon="5.12874">
        <ele>538.9</ele>
        <time>2013-03-07T16:56:53Z</time>
      </trkpt>
      <trkpt lat="43.95624" lon="5.1287">
        <ele>538.6</ele>
        <time>2013-03-07T16:56:54Z</time>
      </trkpt>
      <trkpt lat="43.95624" lon="5.12866">
        <ele>538.1</ele>
        <time>2013-03-07T16:56:55Z</time>
      </trkpt>
      <trkpt lat="43.95625" lon="5.1286">
        <ele>538.5</ele>
        <time>2013-03-07T16:56:56Z</time>
      </trkpt>
      <trkpt lat="43.95625" lon="5.12856">
        <ele>538.6</ele>
        <time>2013-03-07T16:56:57Z</time>
      </trkpt>
      <trkpt lat="43.95625" lon="5.12852">
        <ele>538.1</ele>
        <time>2013-03-07T16:56:58Z</time>
      </trkpt>
      <trkpt lat="43.95626" lon="5.12846">
        <ele>537.5</ele>
        <time>2013-03-07T16:56:59Z</time>
      </trkpt>
      <trkpt lat="43.95625" lon="5.12842">
        <ele>537.1</ele>
        <time>2013-03-07T16:57:00Z</time>
      </trkpt>
      <trkpt lat="43.95624" lon="5.12836">
        <ele>536.5</ele>
        <time>2013-03-07T16:57:01Z</time>
      </trkpt>
      <trkpt lat="43.9562" lon="5.12833">
        <ele>534.7</ele>
        <time>2013-03-07T16:57:02Z</time>
      </trkpt>
      <trkpt lat="43.95619" lon="5.12829">
        <ele>533.6</ele>
        <time>2013-03-07T16:57:03Z</time>
      </trkpt>
      <trkpt lat="43.95618" lon="5.12826">
        <ele>533.4</ele>
        <time>2013-03-07T16:57:04Z</time>
      </trkpt>
      <trkpt lat="43.95617" lon="5.12821">
        <ele>533.1</ele>
        <time>2013-03-07T16:57:05Z</time>
      </trkpt>
      <trkpt lat="43.95616" lon="5.12817">
        <ele>532</ele>
        <time>2013-03-07T16:57:06Z</time>
      </trkpt>
      <trkpt lat="43.95617" lon="5.12808">
        <ele>531.2</ele>
        <time>2013-03-07T16:57:08Z</time>
      </trkpt>
      <trkpt lat="43.95616" lon="5.12803">
        <ele>530.7</ele>
        <time>2013-03-07T16:57:09Z</time>
      </trkpt>
      <trkpt lat="43.95617" lon="5.12797">
        <ele>530.7</ele>
        <time>2013-03-07T16:57:10Z</time>
      </trkpt>
      <trkpt lat="43.95618" lon="5.12793">
        <ele>530.4</ele>
        <time>2013-03-07T16:57:11Z</time>
      </trkpt>
      <trkpt lat="43.95619" lon="5.12788">
        <ele>530.3</ele>
        <time>2013-03-07T16:57:12Z</time>
      </trkpt>
      <trkpt lat="43.95621" lon="5.12784">
        <ele>529.6</ele>
        <time>2013-03-07T16:57:13Z</time>
      </trkpt>
      <trkpt lat="43.95623" lon="5.12779">
        <ele>528.5</ele>
        <time>2013-03-07T16:57:14Z</time>
      </trkpt>
      <trkpt lat="43.95622" lon="5.12774">
        <ele>527.7</ele>
        <time>2013-03-07T16:57:15Z</time>
      </trkpt>
      <trkpt lat="43.9562" lon="5.1277">
        <ele>526.7</ele>
        <time>2013-03-07T16:57:16Z</time>
      </trkpt>
      <trkpt lat="43.95619" lon="5.12766">
        <ele>525.2</ele>
        <time>2013-03-07T16:57:17Z</time>
      </trkpt>
      <trkpt lat="43.95618" lon="5.12761">
        <ele>524.7</ele>
        <time>2013-03-07T16:57:18Z</time>
      </trkpt>
      <trkpt lat="43.95617" lon="5.12755">
        <ele>523.9</ele>
        <time>2013-03-07T16:57:19Z</time>
      </trkpt>
      <trkpt lat="43.95616" lon="5.12748">
        <ele>523.5</ele>
        <time>2013-03-07T16:57:20Z</time>
      </trkpt>
      <trkpt lat="43.95614" lon="5.1274">
        <ele>522.6</ele>
        <time>2013-03-07T16:57:21Z</time>
      </trkpt>
      <trkpt lat="43.95613" lon="5.12729">
        <ele>522</ele>
        <time>2013-03-07T16:57:22Z</time>
      </trkpt>
      <trkpt lat="43.95611" lon="5.1272">
        <ele>521.5</ele>
        <time>2013-03-07T16:57:23Z</time>
      </trkpt>
      <trkpt lat="43.9561" lon="5.12711">
        <ele>519.9</ele>
        <time>2013-03-07T16:57:24Z</time>
      </trkpt>
      <trkpt lat="43.95609" lon="5.12701">
        <ele>519.4</ele>
        <time>2013-03-07T16:57:25Z</time>
      </trkpt>
      <trkpt lat="43.95608" lon="5.12691">
        <ele>518.2</ele>
        <time>2013-03-07T16:57:26Z</time>
      </trkpt>
      <trkpt lat="43.95605" lon="5.12682">
        <ele>516.5</ele>
        <time>2013-03-07T16:57:27Z</time>
      </trkpt>
      <trkpt lat="43.95605" lon="5.12675">
        <ele>516.2</ele>
        <time>2013-03-07T16:57:28Z</time>
      </trkpt>
      <trkpt lat="43.95605" lon="5.12667">
        <ele>515.4</ele>
        <time>2013-03-07T16:57:29Z</time>
      </trkpt>
      <trkpt lat="43.95604" lon="5.12659">
        <ele>515.3</ele>
        <time>2013-03-07T16:57:30Z</time>
      </trkpt>
      <trkpt lat="43.95602" lon="5.12653">
        <ele>514.2</ele>
        <time>2013-03-07T16:57:31Z</time>
      </trkpt>
      <trkpt lat="43.95601" lon="5.12647">
        <ele>514</ele>
        <time>2013-03-07T16:57:32Z</time>
      </trkpt>
      <trkpt lat="43.95602" lon="5.12643">
        <ele>513.6</ele>
        <time>2013-03-07T16:57:33Z</time>
      </trkpt>
      <trkpt lat="43.95603" lon="5.12638">
        <ele>513.1</ele>
        <time>2013-03-07T16:57:34Z</time>
      </trkpt>
      <trkpt lat="43.95605" lon="5.12637">
        <ele>512.6</ele>
        <time>2013-03-07T16:57:35Z</time>
      </trkpt>
      <trkpt lat="43.95609" lon="5.12635">
        <ele>510.4</ele>
        <time>2013-03-07T16:57:37Z</time>
      </trkpt>
      <trkpt lat="43.95611" lon="5.1264">
        <ele>510.8</ele>
        <time>2013-03-07T16:57:38Z</time>
      </trkpt>
      <trkpt lat="43.95612" lon="5.12642">
        <ele>510.2</ele>
        <time>2013-03-07T16:57:39Z</time>
      </trkpt>
      <trkpt lat="43.95616" lon="5.12644">
        <ele>510</ele>
        <time>2013-03-07T16:57:40Z</time>
      </trkpt>
      <trkpt lat="43.95618" lon="5.12647">
        <ele>509.3</ele>
        <time>2013-03-07T16:57:41Z</time>
      </trkpt>
      <trkpt lat="43.95622" lon="5.12648">
        <ele>509.5</ele>
        <time>2013-03-07T16:57:42Z</time>
      </trkpt>
      <trkpt lat="43.95626" lon="5.12651">
        <ele>509.7</ele>
        <time>2013-03-07T16:57:43Z</time>
      </trkpt>
      <trkpt lat="43.95631" lon="5.12651">
        <ele>509.9</ele>
        <time>2013-03-07T16:57:44Z</time>
      </trkpt>
      <trkpt lat="43.95637" lon="5.12651">
        <ele>510</ele>
        <time>2013-03-07T16:57:45Z</time>
      </trkpt>
      <trkpt lat="43.95642" lon="5.12651">
        <ele>509.7</ele>
        <time>2013-03-07T16:57:46Z</time>
      </trkpt>
      <trkpt lat="43.95647" lon="5.1265">
        <ele>509.6</ele>
        <time>2013-03-07T16:57:47Z</time>
      </trkpt>
      <trkpt lat="43.9565" lon="5.12649">
        <ele>509.6</ele>
        <time>2013-03-07T16:57:48Z</time>
      </trkpt>
      <trkpt lat="43.95655" lon="5.12649">
        <ele>509.6</ele>
        <time>2013-03-07T16:57:49Z</time>
      </trkpt>
      <trkpt lat="43.9566" lon="5.1265">
        <ele>509.2</ele>
        <time>2013-03-07T16:57:50Z</time>
      </trkpt>
      <trkpt lat="43.95664" lon="5.1265">
        <ele>509.8</ele>
        <time>2013-03-07T16:57:51Z</time>
      </trkpt>
      <trkpt lat="43.95669" lon="5.12649">
        <ele>510.4</ele>
        <time>2013-03-07T16:57:52Z</time>
      </trkpt>
      <trkpt lat="43.95674" lon="5.12649">
        <ele>510.4</ele>
        <time>2013-03-07T16:57:53Z</time>
      </trkpt>
      <trkpt lat="43.95678" lon="5.1265">
        <ele>511.2</ele>
        <time>2013-03-07T16:57:54Z</time>
      </trkpt>
      <trkpt lat="43.95681" lon="5.12651">
        <ele>511.8</ele>
        <time>2013-03-07T16:57:55Z</time>
      </trkpt>
      <trkpt lat="43.95685" lon="5.12652">
        <ele>512.4</ele>
        <time>2013-03-07T16:57:56Z</time>
      </trkpt>
      <trkpt lat="43.95688" lon="5.12652">
        <ele>511.3</ele>
        <time>2013-03-07T16:57:57Z</time>
      </trkpt>
      <trkpt lat="43.95692" lon="5.12654">
        <ele>511</ele>
        <time>2013-03-07T16:57:58Z</time>
      </trkpt>
      <trkpt lat="43.95696" lon="5.12656">
        <ele>510.5</ele>
        <time>2013-03-07T16:57:59Z</time>
      </trkpt>
      <trkpt lat="43.957" lon="5.12658">
        <ele>509.8</ele>
        <time>2013-03-07T16:58:00Z</time>
      </trkpt>
      <trkpt lat="43.95704" lon="5.1266">
        <ele>510.2</ele>
        <time>2013-03-07T16:58:01Z</time>
      </trkpt>
      <trkpt lat="43.95708" lon="5.12661">
        <ele>510.6</ele>
        <time>2013-03-07T16:58:02Z</time>
      </trkpt>
      <trkpt lat="43.95712" lon="5.12662">
        <ele>510.6</ele>
        <time>2013-03-07T16:58:03Z</time>
      </trkpt>
      <trkpt lat="43.95716" lon="5.12664">
        <ele>510.7</ele>
        <time>2013-03-07T16:58:04Z</time>
      </trkpt>
      <trkpt lat="43.9572" lon="5.12667">
        <ele>512.6</ele>
        <time>2013-03-07T16:58:05Z</time>
      </trkpt>
      <trkpt lat="43.95724" lon="5.12669">
        <ele>512.4</ele>
        <time>2013-03-07T16:58:06Z</time>
      </trkpt>
      <trkpt lat="43.95733" lon="5.12675">
        <ele>512.6</ele>
        <time>2013-03-07T16:58:08Z</time>
      </trkpt>
      <trkpt lat="43.95737" lon="5.12677">
        <ele>512.6</ele>
        <time>2013-03-07T16:58:09Z</time>
      </trkpt>
      <trkpt lat="43.95742" lon="5.12678">
        <ele>512.2</ele>
        <time>2013-03-07T16:58:10Z</time>
      </trkpt>
      <trkpt lat="43.95746" lon="5.12679">
        <ele>512.2</ele>
        <time>2013-03-07T16:58:11Z</time>
      </trkpt>
      <trkpt lat="43.95751" lon="5.1268">
        <ele>511.4</ele>
        <time>2013-03-07T16:58:12Z</time>
      </trkpt>
      <trkpt lat="43.95755" lon="5.12681">
        <ele>511</ele>
        <time>2013-03-07T16:58:13Z</time>
      </trkpt>
      <trkpt lat="43.9576" lon="5.12682">
        <ele>510.5</ele>
        <time>2013-03-07T16:58:14Z</time>
      </trkpt>
      <trkpt lat="43.95764" lon="5.12681">
        <ele>510.3</ele>
        <time>2013-03-07T16:58:15Z</time>
      </trkpt>
      <trkpt lat="43.95769" lon="5.12682">
        <ele>510.1</ele>
        <time>2013-03-07T16:58:16Z</time>
      </trkpt>
      <trkpt lat="43.95775" lon="5.1268">
        <ele>509.4</ele>
        <time>2013-03-07T16:58:17Z</time>
      </trkpt>
      <trkpt lat="43.95779" lon="5.1268">
        <ele>509.5</ele>
        <time>2013-03-07T16:58:18Z</time>
      </trkpt>
      <trkpt lat="43.95783" lon="5.1268">
        <ele>509.5</ele>
        <time>2013-03-07T16:58:19Z</time>
      </trkpt>
      <trkpt lat="43.95787" lon="5.12681">
        <ele>509.6</ele>
        <time>2013-03-07T16:58:20Z</time>
      </trkpt>
      <trkpt lat="43.95791" lon="5.12683">
        <ele>509.7</ele>
        <time>2013-03-07T16:58:21Z</time>
      </trkpt>
      <trkpt lat="43.95796" lon="5.12683">
        <ele>509.2</ele>
        <time>2013-03-07T16:58:22Z</time>
      </trkpt>
      <trkpt lat="43.958" lon="5.12685">
        <ele>511</ele>
        <time>2013-03-07T16:58:23Z</time>
      </trkpt>
      <trkpt lat="43.95804" lon="5.12685">
        <ele>511.5</ele>
        <time>2013-03-07T16:58:24Z</time>
      </trkpt>
      <trkpt lat="43.95808" lon="5.12686">
        <ele>511.8</ele>
        <time>2013-03-07T16:58:25Z</time>
      </trkpt>
      <trkpt lat="43.95811" lon="5.12687">
        <ele>511.9</ele>
        <time>2013-03-07T16:58:26Z</time>
      </trkpt>
      <trkpt lat="43.95815" lon="5.12688">
        <ele>511.8</ele>
        <time>2013-03-07T16:58:27Z</time>
      </trkpt>
      <trkpt lat="43.95818" lon="5.12689">
        <ele>511.6</ele>
        <time>2013-03-07T16:58:28Z</time>
      </trkpt>
      <trkpt lat="43.95822" lon="5.12689">
        <ele>512.1</ele>
        <time>2013-03-07T16:58:29Z</time>
      </trkpt>
      <trkpt lat="43.95825" lon="5.12689">
        <ele>512.3</ele>
        <time>2013-03-07T16:58:30Z</time>
      </trkpt>
      <trkpt lat="43.95828" lon="5.12689">
        <ele>512.4</ele>
        <time>2013-03-07T16:58:31Z</time>
      </trkpt>
      <trkpt lat="43.95831" lon="5.12688">
        <ele>512.1</ele>
        <time>2013-03-07T16:58:32Z</time>
      </trkpt>
      <trkpt lat="43.95835" lon="5.12688">
        <ele>511.8</ele>
        <time>2013-03-07T16:58:33Z</time>
      </trkpt>
      <trkpt lat="43.95839" lon="5.12687">
        <ele>511.8</ele>
        <time>2013-03-07T16:58:34Z</time>
      </trkpt>
      <trkpt lat="43.95842" lon="5.1269">
        <ele>512</ele>
        <time>2013-03-07T16:58:35Z</time>
      </trkpt>
      <trkpt lat="43.95845" lon="5.1269">
        <ele>512.3</ele>
        <time>2013-03-07T16:58:36Z</time>
      </trkpt>
      <trkpt lat="43.95849" lon="5.12691">
        <ele>512.9</ele>
        <time>2013-03-07T16:58:37Z</time>
      </trkpt>
      <trkpt lat="43.95852" lon="5.12692">
        <ele>512.7</ele>
        <time>2013-03-07T16:58:38Z</time>
      </trkpt>
      <trkpt lat="43.95856" lon="5.12693">
        <ele>513.7</ele>
        <time>2013-03-07T16:58:39Z</time>
      </trkpt>
      <trkpt lat="43.95858" lon="5.12694">
        <ele>514.2</ele>
        <time>2013-03-07T16:58:40Z</time>
      </trkpt>
      <trkpt lat="43.95861" lon="5.12694">
        <ele>514.5</ele>
        <time>2013-03-07T16:58:41Z</time>
      </trkpt>
      <trkpt lat="43.95864" lon="5.12694">
        <ele>514.6</ele>
        <time>2013-03-07T16:58:42Z</time>
      </trkpt>
      <trkpt lat="43.95867" lon="5.12694">
        <ele>514.7</ele>
        <time>2013-03-07T16:58:43Z</time>
      </trkpt>
      <trkpt lat="43.95871" lon="5.12696">
        <ele>516.2</ele>
        <time>2013-03-07T16:58:44Z</time>
      </trkpt>
      <trkpt lat="43.95874" lon="5.12695">
        <ele>516.1</ele>
        <time>2013-03-07T16:58:45Z</time>
      </trkpt>
      <trkpt lat="43.95878" lon="5.12696">
        <ele>516.8</ele>
        <time>2013-03-07T16:58:46Z</time>
      </trkpt>
      <trkpt lat="43.95881" lon="5.12696">
        <ele>517.1</ele>
        <time>2013-03-07T16:58:47Z</time>
      </trkpt>
      <trkpt lat="43.95885" lon="5.12696">
        <ele>517</ele>
        <time>2013-03-07T16:58:48Z</time>
      </trkpt>
      <trkpt lat="43.95888" lon="5.12696">
        <ele>517.2</ele>
        <time>2013-03-07T16:58:49Z</time>
      </trkpt>
      <trkpt lat="43.95892" lon="5.12697">
        <ele>517.2</ele>
        <time>2013-03-07T16:58:50Z</time>
      </trkpt>
      <trkpt lat="43.95895" lon="5.12697">
        <ele>517.2</ele>
        <time>2013-03-07T16:58:51Z</time>
      </trkpt>
      <trkpt lat="43.95899" lon="5.12696">
        <ele>517.2</ele>
        <time>2013-03-07T16:58:52Z</time>
      </trkpt>
      <trkpt lat="43.95902" lon="5.12696">
        <ele>517.4</ele>
        <time>2013-03-07T16:58:53Z</time>
      </trkpt>
      <trkpt lat="43.95906" lon="5.12695">
        <ele>517.3</ele>
        <time>2013-03-07T16:58:54Z</time>
      </trkpt>
      <trkpt lat="43.95909" lon="5.12695">
        <ele>517.5</ele>
        <time>2013-03-07T16:58:55Z</time>
      </trkpt>
      <trkpt lat="43.95912" lon="5.12695">
        <ele>517.7</ele>
        <time>2013-03-07T16:58:56Z</time>
      </trkpt>
      <trkpt lat="43.95915" lon="5.12695">
        <ele>517.9</ele>
        <time>2013-03-07T16:58:57Z</time>
      </trkpt>
      <trkpt lat="43.95918" lon="5.12696">
        <ele>517.8</ele>
        <time>2013-03-07T16:58:58Z</time>
      </trkpt>
      <trkpt lat="43.95921" lon="5.12697">
        <ele>517.7</ele>
        <time>2013-03-07T16:58:59Z</time>
      </trkpt>
      <trkpt lat="43.95924" lon="5.12699">
        <ele>517.3</ele>
        <time>2013-03-07T16:59:00Z</time>
      </trkpt>
      <trkpt lat="43.95928" lon="5.12699">
        <ele>516.9</ele>
        <time>2013-03-07T16:59:01Z</time>
      </trkpt>
      <trkpt lat="43.95932" lon="5.127">
        <ele>516.8</ele>
        <time>2013-03-07T16:59:02Z</time>
      </trkpt>
      <trkpt lat="43.95936" lon="5.12701">
        <ele>516.4</ele>
        <time>2013-03-07T16:59:03Z</time>
      </trkpt>
      <trkpt lat="43.95941" lon="5.12702">
        <ele>516.6</ele>
        <time>2013-03-07T16:59:04Z</time>
      </trkpt>
      <trkpt lat="43.95945" lon="5.12703">
        <ele>517</ele>
        <time>2013-03-07T16:59:05Z</time>
      </trkpt>
      <trkpt lat="43.9595" lon="5.12704">
        <ele>517.1</ele>
        <time>2013-03-07T16:59:06Z</time>
      </trkpt>
      <trkpt lat="43.95958" lon="5.12706">
        <ele>516.7</ele>
        <time>2013-03-07T16:59:08Z</time>
      </trkpt>
      <trkpt lat="43.95962" lon="5.12707">
        <ele>517.1</ele>
        <time>2013-03-07T16:59:09Z</time>
      </trkpt>
      <trkpt lat="43.95966" lon="5.12708">
        <ele>516.8</ele>
        <time>2013-03-07T16:59:10Z</time>
      </trkpt>
      <trkpt lat="43.9597" lon="5.12709">
        <ele>517</ele>
        <time>2013-03-07T16:59:11Z</time>
      </trkpt>
      <trkpt lat="43.95974" lon="5.1271">
        <ele>517.7</ele>
        <time>2013-03-07T16:59:12Z</time>
      </trkpt>
      <trkpt lat="43.95977" lon="5.12712">
        <ele>517.8</ele>
        <time>2013-03-07T16:59:13Z</time>
      </trkpt>
      <trkpt lat="43.95981" lon="5.12713">
        <ele>518</ele>
        <time>2013-03-07T16:59:14Z</time>
      </trkpt>
      <trkpt lat="43.95985" lon="5.12715">
        <ele>518.4</ele>
        <time>2013-03-07T16:59:15Z</time>
      </trkpt>
      <trkpt lat="43.95989" lon="5.12716">
        <ele>518.2</ele>
        <time>2013-03-07T16:59:16Z</time>
      </trkpt>
      <trkpt lat="43.95992" lon="5.12718">
        <ele>518.1</ele>
        <time>2013-03-07T16:59:17Z</time>
      </trkpt>
      <trkpt lat="43.95996" lon="5.1272">
        <ele>518</ele>
        <time>2013-03-07T16:59:18Z</time>
      </trkpt>
      <trkpt lat="43.95999" lon="5.12722">
        <ele>517.7</ele>
        <time>2013-03-07T16:59:19Z</time>
      </trkpt>
      <trkpt lat="43.96003" lon="5.12726">
        <ele>517.8</ele>
        <time>2013-03-07T16:59:20Z</time>
      </trkpt>
      <trkpt lat="43.96006" lon="5.1273">
        <ele>517.9</ele>
        <time>2013-03-07T16:59:21Z</time>
      </trkpt>
      <trkpt lat="43.96012" lon="5.12732">
        <ele>517.2</ele>
        <time>2013-03-07T16:59:22Z</time>
      </trkpt>
      <trkpt lat="43.96019" lon="5.12737">
        <ele>516.5</ele>
        <time>2013-03-07T16:59:23Z</time>
      </trkpt>
      <trkpt lat="43.96023" lon="5.1274">
        <ele>516.3</ele>
        <time>2013-03-07T16:59:24Z</time>
      </trkpt>
      <trkpt lat="43.96028" lon="5.12742">
        <ele>516.4</ele>
        <time>2013-03-07T16:59:25Z</time>
      </trkpt>
      <trkpt lat="43.96033" lon="5.12747">
        <ele>516.4</ele>
        <time>2013-03-07T16:59:26Z</time>
      </trkpt>
      <trkpt lat="43.96038" lon="5.12752">
        <ele>516.1</ele>
        <time>2013-03-07T16:59:27Z</time>
      </trkpt>
      <trkpt lat="43.96045" lon="5.12757">
        <ele>515.7</ele>
        <time>2013-03-07T16:59:28Z</time>
      </trkpt>
      <trkpt lat="43.96049" lon="5.1276">
        <ele>515.8</ele>
        <time>2013-03-07T16:59:29Z</time>
      </trkpt>
      <trkpt lat="43.96053" lon="5.12762">
        <ele>515.7</ele>
        <time>2013-03-07T16:59:30Z</time>
      </trkpt>
      <trkpt lat="43.96055" lon="5.12764">
        <ele>515.4</ele>
        <time>2013-03-07T16:59:31Z</time>
      </trkpt>
      <trkpt lat="43.9606" lon="5.12766">
        <ele>515.6</ele>
        <time>2013-03-07T16:59:32Z</time>
      </trkpt>
      <trkpt lat="43.96064" lon="5.12767">
        <ele>516.2</ele>
        <time>2013-03-07T16:59:33Z</time>
      </trkpt>
      <trkpt lat="43.96067" lon="5.1277">
        <ele>516.1</ele>
        <time>2013-03-07T16:59:34Z</time>
      </trkpt>
      <trkpt lat="43.96073" lon="5.12772">
        <ele>515.9</ele>
        <time>2013-03-07T16:59:35Z</time>
      </trkpt>
      <trkpt lat="43.96078" lon="5.12776">
        <ele>515.3</ele>
        <time>2013-03-07T16:59:36Z</time>
      </trkpt>
      <trkpt lat="43.96081" lon="5.12778">
        <ele>515.2</ele>
        <time>2013-03-07T16:59:37Z</time>
      </trkpt>
      <trkpt lat="43.96084" lon="5.12781">
        <ele>515.3</ele>
        <time>2013-03-07T16:59:38Z</time>
      </trkpt>
      <trkpt lat="43.96087" lon="5.12783">
        <ele>515.6</ele>
        <time>2013-03-07T16:59:39Z</time>
      </trkpt>
      <trkpt lat="43.9609" lon="5.12785">
        <ele>515.6</ele>
        <time>2013-03-07T16:59:40Z</time>
      </trkpt>
      <trkpt lat="43.96092" lon="5.12785">
        <ele>515.8</ele>
        <time>2013-03-07T16:59:41Z</time>
      </trkpt>
      <trkpt lat="43.96096" lon="5.12787">
        <ele>515.7</ele>
        <time>2013-03-07T16:59:42Z</time>
      </trkpt>
      <trkpt lat="43.96099" lon="5.1279">
        <ele>515.8</ele>
        <time>2013-03-07T16:59:43Z</time>
      </trkpt>
      <trkpt lat="43.96101" lon="5.12792">
        <ele>515.9</ele>
        <time>2013-03-07T16:59:44Z</time>
      </trkpt>
      <trkpt lat="43.96103" lon="5.12794">
        <ele>515.8</ele>
        <time>2013-03-07T16:59:45Z</time>
      </trkpt>
      <trkpt lat="43.96107" lon="5.12797">
        <ele>516</ele>
        <time>2013-03-07T16:59:46Z</time>
      </trkpt>
      <trkpt lat="43.9611" lon="5.12799">
        <ele>516.3</ele>
        <time>2013-03-07T16:59:47Z</time>
      </trkpt>
      <trkpt lat="43.96111" lon="5.128">
        <ele>516.2</ele>
        <time>2013-03-07T16:59:48Z</time>
      </trkpt>
      <trkpt lat="43.96115" lon="5.12803">
        <ele>515.9</ele>
        <time>2013-03-07T16:59:49Z</time>
      </trkpt>
      <trkpt lat="43.96119" lon="5.12805">
        <ele>516.3</ele>
        <time>2013-03-07T16:59:50Z</time>
      </trkpt>
      <trkpt lat="43.96122" lon="5.12805">
        <ele>516.2</ele>
        <time>2013-03-07T16:59:51Z</time>
      </trkpt>
      <trkpt lat="43.96127" lon="5.12807">
        <ele>516.3</ele>
        <time>2013-03-07T16:59:52Z</time>
      </trkpt>
      <trkpt lat="43.9613" lon="5.12809">
        <ele>516.6</ele>
        <time>2013-03-07T16:59:53Z</time>
      </trkpt>
      <trkpt lat="43.96134" lon="5.12812">
        <ele>516.7</ele>
        <time>2013-03-07T16:59:54Z</time>
      </trkpt>
      <trkpt lat="43.96139" lon="5.12817">
        <ele>516.5</ele>
        <time>2013-03-07T16:59:55Z</time>
      </trkpt>
      <trkpt lat="43.96144" lon="5.12818">
        <ele>516.3</ele>
        <time>2013-03-07T16:59:56Z</time>
      </trkpt>
      <trkpt lat="43.96148" lon="5.1282">
        <ele>516.1</ele>
        <time>2013-03-07T16:59:57Z</time>
      </trkpt>
      <trkpt lat="43.96153" lon="5.12824">
        <ele>515.9</ele>
        <time>2013-03-07T16:59:58Z</time>
      </trkpt>
      <trkpt lat="43.96157" lon="5.12825">
        <ele>515.6</ele>
        <time>2013-03-07T16:59:59Z</time>
      </trkpt>
      <trkpt lat="43.96162" lon="5.12828">
        <ele>515.3</ele>
        <time>2013-03-07T17:00:00Z</time>
      </trkpt>
      <trkpt lat="43.96165" lon="5.1283">
        <ele>515.5</ele>
        <time>2013-03-07T17:00:01Z</time>
      </trkpt>
      <trkpt lat="43.9617" lon="5.12834">
        <ele>515</ele>
        <time>2013-03-07T17:00:02Z</time>
      </trkpt>
      <trkpt lat="43.96175" lon="5.12838">
        <ele>513.8</ele>
        <time>2013-03-07T17:00:03Z</time>
      </trkpt>
      <trkpt lat="43.9618" lon="5.12842">
        <ele>513.4</ele>
        <time>2013-03-07T17:00:04Z</time>
      </trkpt>
      <trkpt lat="43.96185" lon="5.12845">
        <ele>513.4</ele>
        <time>2013-03-07T17:00:05Z</time>
      </trkpt>
      <trkpt lat="43.9619" lon="5.12848">
        <ele>512.9</ele>
        <time>2013-03-07T17:00:06Z</time>
      </trkpt>
      <trkpt lat="43.96202" lon="5.12854">
        <ele>512.9</ele>
        <time>2013-03-07T17:00:08Z</time>
      </trkpt>
      <trkpt lat="43.96208" lon="5.12858">
        <ele>512.7</ele>
        <time>2013-03-07T17:00:09Z</time>
      </trkpt>
      <trkpt lat="43.96215" lon="5.1286">
        <ele>512.5</ele>
        <time>2013-03-07T17:00:10Z</time>
      </trkpt>
      <trkpt lat="43.96221" lon="5.12862">
        <ele>512.5</ele>
        <time>2013-03-07T17:00:11Z</time>
      </trkpt>
      <trkpt lat="43.96226" lon="5.12867">
        <ele>512.6</ele>
        <time>2013-03-07T17:00:12Z</time>
      </trkpt>
      <trkpt lat="43.96232" lon="5.1287">
        <ele>512.8</ele>
        <time>2013-03-07T17:00:13Z</time>
      </trkpt>
      <trkpt lat="43.96238" lon="5.12873">
        <ele>512.7</ele>
        <time>2013-03-07T17:00:14Z</time>
      </trkpt>
      <trkpt lat="43.96245" lon="5.12874">
        <ele>512.6</ele>
        <time>2013-03-07T17:00:15Z</time>
      </trkpt>
      <trkpt lat="43.96251" lon="5.12877">
        <ele>512.7</ele>
        <time>2013-03-07T17:00:16Z</time>
      </trkpt>
      <trkpt lat="43.96259" lon="5.12882">
        <ele>512.7</ele>
        <time>2013-03-07T17:00:17Z</time>
      </trkpt>
      <trkpt lat="43.96266" lon="5.12883">
        <ele>511.7</ele>
        <time>2013-03-07T17:00:18Z</time>
      </trkpt>
      <trkpt lat="43.96274" lon="5.12886">
        <ele>511.7</ele>
        <time>2013-03-07T17:00:19Z</time>
      </trkpt>
      <trkpt lat="43.96279" lon="5.12891">
        <ele>511.9</ele>
        <time>2013-03-07T17:00:20Z</time>
      </trkpt>
      <trkpt lat="43.96285" lon="5.12895">
        <ele>511.8</ele>
        <time>2013-03-07T17:00:21Z</time>
      </trkpt>
      <trkpt lat="43.96291" lon="5.12895">
        <ele>512</ele>
        <time>2013-03-07T17:00:22Z</time>
      </trkpt>
      <trkpt lat="43.96296" lon="5.129">
        <ele>511.5</ele>
        <time>2013-03-07T17:00:23Z</time>
      </trkpt>
      <trkpt lat="43.963" lon="5.12906">
        <ele>511</ele>
        <time>2013-03-07T17:00:24Z</time>
      </trkpt>
      <trkpt lat="43.96304" lon="5.12909">
        <ele>510.4</ele>
        <time>2013-03-07T17:00:25Z</time>
      </trkpt>
      <trkpt lat="43.96308" lon="5.12912">
        <ele>510.2</ele>
        <time>2013-03-07T17:00:26Z</time>
      </trkpt>
      <trkpt lat="43.96312" lon="5.12916">
        <ele>509.9</ele>
        <time>2013-03-07T17:00:27Z</time>
      </trkpt>
      <trkpt lat="43.96317" lon="5.12919">
        <ele>509.7</ele>
        <time>2013-03-07T17:00:28Z</time>
      </trkpt>
      <trkpt lat="43.96321" lon="5.12922">
        <ele>509.3</ele>
        <time>2013-03-07T17:00:29Z</time>
      </trkpt>
      <trkpt lat="43.96326" lon="5.12923">
        <ele>508.4</ele>
        <time>2013-03-07T17:00:30Z</time>
      </trkpt>
      <trkpt lat="43.96332" lon="5.12926">
        <ele>508.2</ele>
        <time>2013-03-07T17:00:31Z</time>
      </trkpt>
      <trkpt lat="43.96335" lon="5.12929">
        <ele>508.1</ele>
        <time>2013-03-07T17:00:32Z</time>
      </trkpt>
      <trkpt lat="43.9634" lon="5.12931">
        <ele>507.8</ele>
        <time>2013-03-07T17:00:33Z</time>
      </trkpt>
      <trkpt lat="43.96344" lon="5.12931">
        <ele>507.3</ele>
        <time>2013-03-07T17:00:34Z</time>
      </trkpt>
      <trkpt lat="43.96348" lon="5.12933">
        <ele>507.1</ele>
        <time>2013-03-07T17:00:35Z</time>
      </trkpt>
      <trkpt lat="43.96352" lon="5.12934">
        <ele>506.7</ele>
        <time>2013-03-07T17:00:36Z</time>
      </trkpt>
      <trkpt lat="43.96357" lon="5.12936">
        <ele>506.7</ele>
        <time>2013-03-07T17:00:37Z</time>
      </trkpt>
      <trkpt lat="43.96362" lon="5.12937">
        <ele>506.3</ele>
        <time>2013-03-07T17:00:38Z</time>
      </trkpt>
      <trkpt lat="43.96365" lon="5.12935">
        <ele>501.9</ele>
        <time>2013-03-07T17:00:39Z</time>
      </trkpt>
      <trkpt lat="43.96368" lon="5.12939">
        <ele>500</ele>
        <time>2013-03-07T17:00:40Z</time>
      </trkpt>
      <trkpt lat="43.96371" lon="5.12944">
        <ele>499</ele>
        <time>2013-03-07T17:00:41Z</time>
      </trkpt>
      <trkpt lat="43.96377" lon="5.1295">
        <ele>499.9</ele>
        <time>2013-03-07T17:00:42Z</time>
      </trkpt>
      <trkpt lat="43.96381" lon="5.12951">
        <ele>499.1</ele>
        <time>2013-03-07T17:00:43Z</time>
      </trkpt>
      <trkpt lat="43.96386" lon="5.12952">
        <ele>498.7</ele>
        <time>2013-03-07T17:00:44Z</time>
      </trkpt>
      <trkpt lat="43.9639" lon="5.12952">
        <ele>498.4</ele>
        <time>2013-03-07T17:00:45Z</time>
      </trkpt>
      <trkpt lat="43.96395" lon="5.12953">
        <ele>497.6</ele>
        <time>2013-03-07T17:00:46Z</time>
      </trkpt>
      <trkpt lat="43.964" lon="5.12953">
        <ele>497.1</ele>
        <time>2013-03-07T17:00:47Z</time>
      </trkpt>
      <trkpt lat="43.96405" lon="5.12952">
        <ele>494.8</ele>
        <time>2013-03-07T17:00:48Z</time>
      </trkpt>
      <trkpt lat="43.9641" lon="5.12951">
        <ele>493.9</ele>
        <time>2013-03-07T17:00:49Z</time>
      </trkpt>
      <trkpt lat="43.96415" lon="5.12948">
        <ele>492.6</ele>
        <time>2013-03-07T17:00:50Z</time>
      </trkpt>
      <trkpt lat="43.9642" lon="5.12946">
        <ele>492.2</ele>
        <time>2013-03-07T17:00:51Z</time>
      </trkpt>
      <trkpt lat="43.96425" lon="5.12946">
        <ele>492.1</ele>
        <time>2013-03-07T17:00:52Z</time>
      </trkpt>
      <trkpt lat="43.9643" lon="5.12946">
        <ele>492.4</ele>
        <time>2013-03-07T17:00:53Z</time>
      </trkpt>
      <trkpt lat="43.96439" lon="5.12944">
        <ele>492.3</ele>
        <time>2013-03-07T17:00:54Z</time>
      </trkpt>
      <trkpt lat="43.96438" lon="5.1295">
        <ele>490.6</ele>
        <time>2013-03-07T17:00:55Z</time>
      </trkpt>
      <trkpt lat="43.96435" lon="5.12953">
        <ele>490.3</ele>
        <time>2013-03-07T17:00:56Z</time>
      </trkpt>
      <trkpt lat="43.96432" lon="5.12959">
        <ele>490.3</ele>
        <time>2013-03-07T17:00:57Z</time>
      </trkpt>
      <trkpt lat="43.96427" lon="5.12966">
        <ele>489.6</ele>
        <time>2013-03-07T17:00:58Z</time>
      </trkpt>
      <trkpt lat="43.96422" lon="5.12967">
        <ele>490</ele>
        <time>2013-03-07T17:00:59Z</time>
      </trkpt>
      <trkpt lat="43.96412" lon="5.12965">
        <ele>489.4</ele>
        <time>2013-03-07T17:01:00Z</time>
      </trkpt>
      <trkpt lat="43.96409" lon="5.12967">
        <ele>488.8</ele>
        <time>2013-03-07T17:01:01Z</time>
      </trkpt>
      <trkpt lat="43.96405" lon="5.12969">
        <ele>489.2</ele>
        <time>2013-03-07T17:01:02Z</time>
      </trkpt>
      <trkpt lat="43.96409" lon="5.12973">
        <ele>489.7</ele>
        <time>2013-03-07T17:01:03Z</time>
      </trkpt>
      <trkpt lat="43.96418" lon="5.12978">
        <ele>489.6</ele>
        <time>2013-03-07T17:01:04Z</time>
      </trkpt>
      <trkpt lat="43.96424" lon="5.12978">
        <ele>489.7</ele>
        <time>2013-03-07T17:01:05Z</time>
      </trkpt>
      <trkpt lat="43.96427" lon="5.12975">
        <ele>489.2</ele>
        <time>2013-03-07T17:01:07Z</time>
      </trkpt>
      <trkpt lat="43.96428" lon="5.12975">
        <ele>489</ele>
        <time>2013-03-07T17:01:08Z</time>
      </trkpt>
      <trkpt lat="43.9643" lon="5.12971">
        <ele>488.2</ele>
        <time>2013-03-07T17:01:11Z</time>
      </trkpt>
      <trkpt lat="43.96431" lon="5.1297">
        <ele>488.4</ele>
        <time>2013-03-07T17:01:12Z</time>
      </trkpt>
      <trkpt lat="43.96437" lon="5.12967">
        <ele>487.2</ele>
        <time>2013-03-07T17:01:13Z</time>
      </trkpt>
      <trkpt lat="43.9644" lon="5.12964">
        <ele>487.2</ele>
        <time>2013-03-07T17:01:14Z</time>
      </trkpt>
      <trkpt lat="43.96442" lon="5.12959">
        <ele>486.3</ele>
        <time>2013-03-07T17:01:15Z</time>
      </trkpt>
      <trkpt lat="43.96444" lon="5.12951">
        <ele>485.4</ele>
        <time>2013-03-07T17:01:16Z</time>
      </trkpt>
      <trkpt lat="43.96447" lon="5.12946">
        <ele>484.2</ele>
        <time>2013-03-07T17:01:17Z</time>
      </trkpt>
      <trkpt lat="43.96447" lon="5.1294">
        <ele>483.1</ele>
        <time>2013-03-07T17:01:18Z</time>
      </trkpt>
      <trkpt lat="43.9645" lon="5.12936">
        <ele>481.9</ele>
        <time>2013-03-07T17:01:19Z</time>
      </trkpt>
      <trkpt lat="43.96451" lon="5.12931">
        <ele>480.6</ele>
        <time>2013-03-07T17:01:20Z</time>
      </trkpt>
      <trkpt lat="43.96454" lon="5.12927">
        <ele>480.6</ele>
        <time>2013-03-07T17:01:21Z</time>
      </trkpt>
      <trkpt lat="43.96452" lon="5.12921">
        <ele>480.3</ele>
        <time>2013-03-07T17:01:22Z</time>
      </trkpt>
      <trkpt lat="43.96454" lon="5.12917">
        <ele>480.3</ele>
        <time>2013-03-07T17:01:23Z</time>
      </trkpt>
      <trkpt lat="43.96455" lon="5.12914">
        <ele>480.2</ele>
        <time>2013-03-07T17:01:24Z</time>
      </trkpt>
      <trkpt lat="43.96456" lon="5.12911">
        <ele>479.6</ele>
        <time>2013-03-07T17:01:25Z</time>
      </trkpt>
      <trkpt lat="43.96457" lon="5.12907">
        <ele>479</ele>
        <time>2013-03-07T17:01:26Z</time>
      </trkpt>
      <trkpt lat="43.96458" lon="5.12903">
        <ele>478.9</ele>
        <time>2013-03-07T17:01:27Z</time>
      </trkpt>
      <trkpt lat="43.96459" lon="5.12899">
        <ele>478.8</ele>
        <time>2013-03-07T17:01:28Z</time>
      </trkpt>
      <trkpt lat="43.96461" lon="5.12896">
        <ele>479.6</ele>
        <time>2013-03-07T17:01:29Z</time>
      </trkpt>
      <trkpt lat="43.96463" lon="5.12892">
        <ele>480</ele>
        <time>2013-03-07T17:01:30Z</time>
      </trkpt>
      <trkpt lat="43.96465" lon="5.12886">
        <ele>480.4</ele>
        <time>2013-03-07T17:01:31Z</time>
      </trkpt>
      <trkpt lat="43.96464" lon="5.12882">
        <ele>480</ele>
        <time>2013-03-07T17:01:32Z</time>
      </trkpt>
      <trkpt lat="43.96463" lon="5.12875">
        <ele>479.2</ele>
        <time>2013-03-07T17:01:33Z</time>
      </trkpt>
      <trkpt lat="43.96464" lon="5.1287">
        <ele>479.5</ele>
        <time>2013-03-07T17:01:34Z</time>
      </trkpt>
      <trkpt lat="43.96464" lon="5.12865">
        <ele>479.4</ele>
        <time>2013-03-07T17:01:35Z</time>
      </trkpt>
      <trkpt lat="43.96464" lon="5.12861">
        <ele>479.7</ele>
        <time>2013-03-07T17:01:36Z</time>
      </trkpt>
      <trkpt lat="43.96463" lon="5.12856">
        <ele>479.5</ele>
        <time>2013-03-07T17:01:37Z</time>
      </trkpt>
      <trkpt lat="43.96462" lon="5.12851">
        <ele>479.4</ele>
        <time>2013-03-07T17:01:38Z</time>
      </trkpt>
      <trkpt lat="43.96464" lon="5.12848">
        <ele>479.1</ele>
        <time>2013-03-07T17:01:39Z</time>
      </trkpt>
      <trkpt lat="43.96463" lon="5.12842">
        <ele>479.7</ele>
        <time>2013-03-07T17:01:40Z</time>
      </trkpt>
      <trkpt lat="43.96463" lon="5.1284">
        <ele>479.8</ele>
        <time>2013-03-07T17:01:41Z</time>
      </trkpt>
      <trkpt lat="43.96461" lon="5.12834">
        <ele>479.5</ele>
        <time>2013-03-07T17:01:42Z</time>
      </trkpt>
      <trkpt lat="43.96459" lon="5.12836">
        <ele>479.5</ele>
        <time>2013-03-07T17:01:43Z</time>
      </trkpt>
      <trkpt lat="43.96456" lon="5.12839">
        <ele>477.8</ele>
        <time>2013-03-07T17:01:44Z</time>
      </trkpt>
      <trkpt lat="43.96453" lon="5.12841">
        <ele>477.2</ele>
        <time>2013-03-07T17:01:45Z</time>
      </trkpt>
      <trkpt lat="43.96448" lon="5.12839">
        <ele>476.3</ele>
        <time>2013-03-07T17:01:46Z</time>
      </trkpt>
      <trkpt lat="43.96447" lon="5.12837">
        <ele>474.8</ele>
        <time>2013-03-07T17:01:47Z</time>
      </trkpt>
      <trkpt lat="43.96445" lon="5.12835">
        <ele>474.8</ele>
        <time>2013-03-07T17:01:48Z</time>
      </trkpt>
      <trkpt lat="43.96442" lon="5.12832">
        <ele>474.7</ele>
        <time>2013-03-07T17:01:49Z</time>
      </trkpt>
      <trkpt lat="43.96439" lon="5.1283">
        <ele>474.8</ele>
        <time>2013-03-07T17:01:50Z</time>
      </trkpt>
      <trkpt lat="43.96437" lon="5.12828">
        <ele>476.1</ele>
        <time>2013-03-07T17:01:51Z</time>
      </trkpt>
      <trkpt lat="43.96434" lon="5.12825">
        <ele>476.5</ele>
        <time>2013-03-07T17:01:52Z</time>
      </trkpt>
      <trkpt lat="43.96429" lon="5.12819">
        <ele>477</ele>
        <time>2013-03-07T17:01:53Z</time>
      </trkpt>
      <trkpt lat="43.96429" lon="5.12816">
        <ele>477.4</ele>
        <time>2013-03-07T17:01:54Z</time>
      </trkpt>
      <trkpt lat="43.96425" lon="5.12814">
        <ele>477.1</ele>
        <time>2013-03-07T17:01:55Z</time>
      </trkpt>
      <trkpt lat="43.96423" lon="5.12811">
        <ele>474.4</ele>
        <time>2013-03-07T17:01:58Z</time>
      </trkpt>
      <trkpt lat="43.96421" lon="5.1281">
        <ele>474.1</ele>
        <time>2013-03-07T17:01:59Z</time>
      </trkpt>
      <trkpt lat="43.96418" lon="5.12807">
        <ele>474.5</ele>
        <time>2013-03-07T17:02:01Z</time>
      </trkpt>
      <trkpt lat="43.96416" lon="5.12803">
        <ele>475</ele>
        <time>2013-03-07T17:02:02Z</time>
      </trkpt>
      <trkpt lat="43.96412" lon="5.12804">
        <ele>474.6</ele>
        <time>2013-03-07T17:02:03Z</time>
      </trkpt>
      <trkpt lat="43.96407" lon="5.128">
        <ele>474</ele>
        <time>2013-03-07T17:02:04Z</time>
      </trkpt>
      <trkpt lat="43.96407" lon="5.12795">
        <ele>472.8</ele>
        <time>2013-03-07T17:02:09Z</time>
      </trkpt>
      <trkpt lat="43.96405" lon="5.12793">
        <ele>472.3</ele>
        <time>2013-03-07T17:02:10Z</time>
      </trkpt>
      <trkpt lat="43.96402" lon="5.1279">
        <ele>472.9</ele>
        <time>2013-03-07T17:02:12Z</time>
      </trkpt>
      <trkpt lat="43.964" lon="5.12789">
        <ele>473.2</ele>
        <time>2013-03-07T17:02:13Z</time>
      </trkpt>
      <trkpt lat="43.96396" lon="5.12789">
        <ele>472</ele>
        <time>2013-03-07T17:02:14Z</time>
      </trkpt>
      <trkpt lat="43.96394" lon="5.12787">
        <ele>472</ele>
        <time>2013-03-07T17:02:15Z</time>
      </trkpt>
      <trkpt lat="43.96392" lon="5.12784">
        <ele>471.6</ele>
        <time>2013-03-07T17:02:16Z</time>
      </trkpt>
      <trkpt lat="43.96389" lon="5.12782">
        <ele>471.4</ele>
        <time>2013-03-07T17:02:17Z</time>
      </trkpt>
      <trkpt lat="43.96388" lon="5.1278">
        <ele>471.9</ele>
        <time>2013-03-07T17:02:18Z</time>
      </trkpt>
      <trkpt lat="43.96383" lon="5.12778">
        <ele>470.9</ele>
        <time>2013-03-07T17:02:19Z</time>
      </trkpt>
      <trkpt lat="43.96378" lon="5.12777">
        <ele>470.1</ele>
        <time>2013-03-07T17:02:20Z</time>
      </trkpt>
      <trkpt lat="43.96375" lon="5.12777">
        <ele>469.3</ele>
        <time>2013-03-07T17:02:21Z</time>
      </trkpt>
      <trkpt lat="43.96371" lon="5.12773">
        <ele>469.7</ele>
        <time>2013-03-07T17:02:22Z</time>
      </trkpt>
      <trkpt lat="43.96365" lon="5.12774">
        <ele>468.8</ele>
        <time>2013-03-07T17:02:23Z</time>
      </trkpt>
      <trkpt lat="43.96361" lon="5.12771">
        <ele>470.3</ele>
        <time>2013-03-07T17:02:24Z</time>
      </trkpt>
      <trkpt lat="43.96359" lon="5.1277">
        <ele>469.2</ele>
        <time>2013-03-07T17:02:25Z</time>
      </trkpt>
      <trkpt lat="43.96355" lon="5.12767">
        <ele>469.3</ele>
        <time>2013-03-07T17:02:26Z</time>
      </trkpt>
      <trkpt lat="43.96352" lon="5.12766">
        <ele>468.9</ele>
        <time>2013-03-07T17:02:27Z</time>
      </trkpt>
      <trkpt lat="43.96348" lon="5.12764">
        <ele>467.7</ele>
        <time>2013-03-07T17:02:28Z</time>
      </trkpt>
      <trkpt lat="43.96345" lon="5.12763">
        <ele>467.5</ele>
        <time>2013-03-07T17:02:29Z</time>
      </trkpt>
      <trkpt lat="43.96342" lon="5.12763">
        <ele>467.2</ele>
        <time>2013-03-07T17:02:30Z</time>
      </trkpt>
      <trkpt lat="43.96338" lon="5.12764">
        <ele>467.8</ele>
        <time>2013-03-07T17:02:32Z</time>
      </trkpt>
      <trkpt lat="43.96335" lon="5.12764">
        <ele>467.8</ele>
        <time>2013-03-07T17:02:33Z</time>
      </trkpt>
      <trkpt lat="43.96331" lon="5.12763">
        <ele>468.4</ele>
        <time>2013-03-07T17:02:34Z</time>
      </trkpt>
      <trkpt lat="43.96328" lon="5.12761">
        <ele>468.9</ele>
        <time>2013-03-07T17:02:35Z</time>
      </trkpt>
      <trkpt lat="43.96325" lon="5.1276">
        <ele>468.9</ele>
        <time>2013-03-07T17:02:36Z</time>
      </trkpt>
      <trkpt lat="43.96323" lon="5.12756">
        <ele>468.6</ele>
        <time>2013-03-07T17:02:37Z</time>
      </trkpt>
      <trkpt lat="43.96318" lon="5.12755">
        <ele>468.6</ele>
        <time>2013-03-07T17:02:38Z</time>
      </trkpt>
      <trkpt lat="43.96316" lon="5.12754">
        <ele>468.9</ele>
        <time>2013-03-07T17:02:39Z</time>
      </trkpt>
      <trkpt lat="43.96311" lon="5.12754">
        <ele>469</ele>
        <time>2013-03-07T17:02:41Z</time>
      </trkpt>
      <trkpt lat="43.96308" lon="5.12755">
        <ele>468.5</ele>
        <time>2013-03-07T17:02:42Z</time>
      </trkpt>
      <trkpt lat="43.96305" lon="5.12754">
        <ele>468.3</ele>
        <time>2013-03-07T17:02:44Z</time>
      </trkpt>
      <trkpt lat="43.96302" lon="5.12753">
        <ele>468.2</ele>
        <time>2013-03-07T17:02:45Z</time>
      </trkpt>
      <trkpt lat="43.963" lon="5.12753">
        <ele>468</ele>
        <time>2013-03-07T17:02:46Z</time>
      </trkpt>
      <trkpt lat="43.96297" lon="5.12753">
        <ele>468.4</ele>
        <time>2013-03-07T17:02:47Z</time>
      </trkpt>
      <trkpt lat="43.96293" lon="5.12753">
        <ele>468.7</ele>
        <time>2013-03-07T17:02:49Z</time>
      </trkpt>
      <trkpt lat="43.96291" lon="5.12756">
        <ele>468.7</ele>
        <time>2013-03-07T17:02:50Z</time>
      </trkpt>
      <trkpt lat="43.96287" lon="5.12754">
        <ele>470.1</ele>
        <time>2013-03-07T17:02:52Z</time>
      </trkpt>
      <trkpt lat="43.96285" lon="5.12754">
        <ele>470.6</ele>
        <time>2013-03-07T17:02:53Z</time>
      </trkpt>
      <trkpt lat="43.96282" lon="5.12751">
        <ele>469.9</ele>
        <time>2013-03-07T17:02:54Z</time>
      </trkpt>
      <trkpt lat="43.9628" lon="5.1275">
        <ele>469.3</ele>
        <time>2013-03-07T17:02:55Z</time>
      </trkpt>
      <trkpt lat="43.96278" lon="5.12749">
        <ele>468.8</ele>
        <time>2013-03-07T17:02:56Z</time>
      </trkpt>
      <trkpt lat="43.96275" lon="5.12747">
        <ele>469.3</ele>
        <time>2013-03-07T17:02:57Z</time>
      </trkpt>
      <trkpt lat="43.96273" lon="5.12746">
        <ele>468.8</ele>
        <time>2013-03-07T17:02:58Z</time>
      </trkpt>
      <trkpt lat="43.96268" lon="5.12741">
        <ele>470.2</ele>
        <time>2013-03-07T17:02:59Z</time>
      </trkpt>
      <trkpt lat="43.96266" lon="5.1274">
        <ele>469.2</ele>
        <time>2013-03-07T17:03:00Z</time>
      </trkpt>
      <trkpt lat="43.96263" lon="5.12739">
        <ele>469.3</ele>
        <time>2013-03-07T17:03:01Z</time>
      </trkpt>
      <trkpt lat="43.9626" lon="5.12738">
        <ele>469.8</ele>
        <time>2013-03-07T17:03:02Z</time>
      </trkpt>
      <trkpt lat="43.96258" lon="5.12737">
        <ele>469.1</ele>
        <time>2013-03-07T17:03:03Z</time>
      </trkpt>
      <trkpt lat="43.96255" lon="5.12736">
        <ele>469.5</ele>
        <time>2013-03-07T17:03:04Z</time>
      </trkpt>
      <trkpt lat="43.96253" lon="5.12736">
        <ele>470</ele>
        <time>2013-03-07T17:03:05Z</time>
      </trkpt>
      <trkpt lat="43.9625" lon="5.12735">
        <ele>469.9</ele>
        <time>2013-03-07T17:03:06Z</time>
      </trkpt>
      <trkpt lat="43.96248" lon="5.12734">
        <ele>469.8</ele>
        <time>2013-03-07T17:03:07Z</time>
      </trkpt>
      <trkpt lat="43.96246" lon="5.12733">
        <ele>469.8</ele>
        <time>2013-03-07T17:03:08Z</time>
      </trkpt>
      <trkpt lat="43.96244" lon="5.12732">
        <ele>469.9</ele>
        <time>2013-03-07T17:03:09Z</time>
      </trkpt>
      <trkpt lat="43.96239" lon="5.12732">
        <ele>469.6</ele>
        <time>2013-03-07T17:03:11Z</time>
      </trkpt>
      <trkpt lat="43.96237" lon="5.12731">
        <ele>469.2</ele>
        <time>2013-03-07T17:03:12Z</time>
      </trkpt>
      <trkpt lat="43.96234" lon="5.12731">
        <ele>469.4</ele>
        <time>2013-03-07T17:03:13Z</time>
      </trkpt>
      <trkpt lat="43.96231" lon="5.12729">
        <ele>469.6</ele>
        <time>2013-03-07T17:03:14Z</time>
      </trkpt>
      <trkpt lat="43.9623" lon="5.12728">
        <ele>469.4</ele>
        <time>2013-03-07T17:03:15Z</time>
      </trkpt>
      <trkpt lat="43.96227" lon="5.12724">
        <ele>469</ele>
        <time>2013-03-07T17:03:16Z</time>
      </trkpt>
      <trkpt lat="43.96223" lon="5.1272">
        <ele>468.6</ele>
        <time>2013-03-07T17:03:18Z</time>
      </trkpt>
      <trkpt lat="43.96222" lon="5.12718">
        <ele>468.6</ele>
        <time>2013-03-07T17:03:19Z</time>
      </trkpt>
      <trkpt lat="43.9622" lon="5.12714">
        <ele>468.9</ele>
        <time>2013-03-07T17:03:20Z</time>
      </trkpt>
      <trkpt lat="43.96217" lon="5.1271">
        <ele>468.9</ele>
        <time>2013-03-07T17:03:21Z</time>
      </trkpt>
      <trkpt lat="43.96215" lon="5.12707">
        <ele>468.7</ele>
        <time>2013-03-07T17:03:22Z</time>
      </trkpt>
      <trkpt lat="43.96214" lon="5.12703">
        <ele>468.8</ele>
        <time>2013-03-07T17:03:23Z</time>
      </trkpt>
      <trkpt lat="43.96215" lon="5.127">
        <ele>469.3</ele>
        <time>2013-03-07T17:03:24Z</time>
      </trkpt>
      <trkpt lat="43.96218" lon="5.12698">
        <ele>469.7</ele>
        <time>2013-03-07T17:03:25Z</time>
      </trkpt>
      <trkpt lat="43.96221" lon="5.12697">
        <ele>470.5</ele>
        <time>2013-03-07T17:03:27Z</time>
      </trkpt>
      <trkpt lat="43.96224" lon="5.12694">
        <ele>470.3</ele>
        <time>2013-03-07T17:03:28Z</time>
      </trkpt>
      <trkpt lat="43.96226" lon="5.12689">
        <ele>470</ele>
        <time>2013-03-07T17:03:30Z</time>
      </trkpt>
      <trkpt lat="43.96227" lon="5.12687">
        <ele>470</ele>
        <time>2013-03-07T17:03:31Z</time>
      </trkpt>
      <trkpt lat="43.96231" lon="5.12685">
        <ele>469.3</ele>
        <time>2013-03-07T17:03:33Z</time>
      </trkpt>
      <trkpt lat="43.96233" lon="5.12682">
        <ele>469.4</ele>
        <time>2013-03-07T17:03:34Z</time>
      </trkpt>
      <trkpt lat="43.96236" lon="5.12679">
        <ele>468.7</ele>
        <time>2013-03-07T17:03:35Z</time>
      </trkpt>
      <trkpt lat="43.96237" lon="5.12676">
        <ele>468.4</ele>
        <time>2013-03-07T17:03:36Z</time>
      </trkpt>
      <trkpt lat="43.96238" lon="5.12673">
        <ele>467.7</ele>
        <time>2013-03-07T17:03:37Z</time>
      </trkpt>
      <trkpt lat="43.96239" lon="5.1267">
        <ele>466.9</ele>
        <time>2013-03-07T17:03:38Z</time>
      </trkpt>
      <trkpt lat="43.9624" lon="5.12663">
        <ele>465.8</ele>
        <time>2013-03-07T17:03:39Z</time>
      </trkpt>
      <trkpt lat="43.96243" lon="5.12661">
        <ele>465.3</ele>
        <time>2013-03-07T17:03:40Z</time>
      </trkpt>
      <trkpt lat="43.96245" lon="5.12659">
        <ele>464.9</ele>
        <time>2013-03-07T17:03:41Z</time>
      </trkpt>
      <trkpt lat="43.96248" lon="5.12659">
        <ele>464.6</ele>
        <time>2013-03-07T17:03:42Z</time>
      </trkpt>
      <trkpt lat="43.9625" lon="5.12657">
        <ele>465.2</ele>
        <time>2013-03-07T17:03:43Z</time>
      </trkpt>
      <trkpt lat="43.96254" lon="5.1266">
        <ele>464.5</ele>
        <time>2013-03-07T17:03:45Z</time>
      </trkpt>
      <trkpt lat="43.96254" lon="5.12661">
        <ele>463.8</ele>
        <time>2013-03-07T17:03:46Z</time>
      </trkpt>
      <trkpt lat="43.96258" lon="5.12665">
        <ele>462.5</ele>
        <time>2013-03-07T17:03:48Z</time>
      </trkpt>
      <trkpt lat="43.9626" lon="5.12667">
        <ele>461.9</ele>
        <time>2013-03-07T17:03:49Z</time>
      </trkpt>
      <trkpt lat="43.96264" lon="5.1267">
        <ele>462.2</ele>
        <time>2013-03-07T17:03:50Z</time>
      </trkpt>
      <trkpt lat="43.96266" lon="5.12671">
        <ele>462.1</ele>
        <time>2013-03-07T17:03:51Z</time>
      </trkpt>
      <trkpt lat="43.96269" lon="5.12673">
        <ele>461.8</ele>
        <time>2013-03-07T17:03:52Z</time>
      </trkpt>
      <trkpt lat="43.96272" lon="5.12675">
        <ele>461.5</ele>
        <time>2013-03-07T17:03:53Z</time>
      </trkpt>
      <trkpt lat="43.96277" lon="5.12677">
        <ele>461.6</ele>
        <time>2013-03-07T17:03:54Z</time>
      </trkpt>
      <trkpt lat="43.9628" lon="5.12678">
        <ele>461.7</ele>
        <time>2013-03-07T17:03:55Z</time>
      </trkpt>
      <trkpt lat="43.96283" lon="5.12677">
        <ele>461</ele>
        <time>2013-03-07T17:03:56Z</time>
      </trkpt>
      <trkpt lat="43.96285" lon="5.12674">
        <ele>460.4</ele>
        <time>2013-03-07T17:03:57Z</time>
      </trkpt>
      <trkpt lat="43.96286" lon="5.12669">
        <ele>459.3</ele>
        <time>2013-03-07T17:03:58Z</time>
      </trkpt>
      <trkpt lat="43.96273" lon="5.1266">
        <ele>455.9</ele>
        <time>2013-03-07T17:03:59Z</time>
      </trkpt>
      <trkpt lat="43.96272" lon="5.12657">
        <ele>454.6</ele>
        <time>2013-03-07T17:04:00Z</time>
      </trkpt>
      <trkpt lat="43.96272" lon="5.12653">
        <ele>453.5</ele>
        <time>2013-03-07T17:04:01Z</time>
      </trkpt>
      <trkpt lat="43.96271" lon="5.12647">
        <ele>453.3</ele>
        <time>2013-03-07T17:04:03Z</time>
      </trkpt>
      <trkpt lat="43.96273" lon="5.12644">
        <ele>453.6</ele>
        <time>2013-03-07T17:04:04Z</time>
      </trkpt>
      <trkpt lat="43.96274" lon="5.1264">
        <ele>453</ele>
        <time>2013-03-07T17:04:05Z</time>
      </trkpt>
      <trkpt lat="43.96276" lon="5.12636">
        <ele>452.6</ele>
        <time>2013-03-07T17:04:06Z</time>
      </trkpt>
      <trkpt lat="43.96278" lon="5.12635">
        <ele>451.6</ele>
        <time>2013-03-07T17:04:08Z</time>
      </trkpt>
      <trkpt lat="43.96279" lon="5.12632">
        <ele>451.9</ele>
        <time>2013-03-07T17:04:09Z</time>
      </trkpt>
      <trkpt lat="43.96281" lon="5.12629">
        <ele>452.2</ele>
        <time>2013-03-07T17:04:10Z</time>
      </trkpt>
      <trkpt lat="43.96283" lon="5.12626">
        <ele>452.6</ele>
        <time>2013-03-07T17:04:11Z</time>
      </trkpt>
      <trkpt lat="43.96287" lon="5.12623">
        <ele>452.3</ele>
        <time>2013-03-07T17:04:13Z</time>
      </trkpt>
      <trkpt lat="43.9629" lon="5.1262">
        <ele>452.1</ele>
        <time>2013-03-07T17:04:14Z</time>
      </trkpt>
      <trkpt lat="43.96292" lon="5.12615">
        <ele>451.8</ele>
        <time>2013-03-07T17:04:15Z</time>
      </trkpt>
      <trkpt lat="43.96294" lon="5.12612">
        <ele>452.9</ele>
        <time>2013-03-07T17:04:16Z</time>
      </trkpt>
      <trkpt lat="43.96294" lon="5.12609">
        <ele>452.4</ele>
        <time>2013-03-07T17:04:17Z</time>
      </trkpt>
      <trkpt lat="43.96295" lon="5.12606">
        <ele>451.2</ele>
        <time>2013-03-07T17:04:18Z</time>
      </trkpt>
      <trkpt lat="43.96296" lon="5.12602">
        <ele>451</ele>
        <time>2013-03-07T17:04:19Z</time>
      </trkpt>
      <trkpt lat="43.96299" lon="5.12601">
        <ele>449.8</ele>
        <time>2013-03-07T17:04:20Z</time>
      </trkpt>
      <trkpt lat="43.96302" lon="5.12598">
        <ele>449</ele>
        <time>2013-03-07T17:04:21Z</time>
      </trkpt>
      <trkpt lat="43.96304" lon="5.12597">
        <ele>448.6</ele>
        <time>2013-03-07T17:04:22Z</time>
      </trkpt>
      <trkpt lat="43.96306" lon="5.12595">
        <ele>448.1</ele>
        <time>2013-03-07T17:04:23Z</time>
      </trkpt>
      <trkpt lat="43.96308" lon="5.12591">
        <ele>447.5</ele>
        <time>2013-03-07T17:04:24Z</time>
      </trkpt>
      <trkpt lat="43.96311" lon="5.12588">
        <ele>447.5</ele>
        <time>2013-03-07T17:04:25Z</time>
      </trkpt>
      <trkpt lat="43.96314" lon="5.12585">
        <ele>447.4</ele>
        <time>2013-03-07T17:04:26Z</time>
      </trkpt>
      <trkpt lat="43.96317" lon="5.12583">
        <ele>447.1</ele>
        <time>2013-03-07T17:04:27Z</time>
      </trkpt>
      <trkpt lat="43.9632" lon="5.12582">
        <ele>446.7</ele>
        <time>2013-03-07T17:04:28Z</time>
      </trkpt>
      <trkpt lat="43.96324" lon="5.12579">
        <ele>446.4</ele>
        <time>2013-03-07T17:04:29Z</time>
      </trkpt>
      <trkpt lat="43.96326" lon="5.12576">
        <ele>446.9</ele>
        <time>2013-03-07T17:04:30Z</time>
      </trkpt>
      <trkpt lat="43.9633" lon="5.12575">
        <ele>447.2</ele>
        <time>2013-03-07T17:04:31Z</time>
      </trkpt>
      <trkpt lat="43.96334" lon="5.12574">
        <ele>447.3</ele>
        <time>2013-03-07T17:04:32Z</time>
      </trkpt>
      <trkpt lat="43.96337" lon="5.12572">
        <ele>447.6</ele>
        <time>2013-03-07T17:04:33Z</time>
      </trkpt>
      <trkpt lat="43.96343" lon="5.12572">
        <ele>447.5</ele>
        <time>2013-03-07T17:04:34Z</time>
      </trkpt>
      <trkpt lat="43.96346" lon="5.12572">
        <ele>447.3</ele>
        <time>2013-03-07T17:04:35Z</time>
      </trkpt>
      <trkpt lat="43.9635" lon="5.1257">
        <ele>447</ele>
        <time>2013-03-07T17:04:36Z</time>
      </trkpt>
      <trkpt lat="43.96354" lon="5.12568">
        <ele>446.8</ele>
        <time>2013-03-07T17:04:37Z</time>
      </trkpt>
      <trkpt lat="43.96358" lon="5.12566">
        <ele>446.5</ele>
        <time>2013-03-07T17:04:38Z</time>
      </trkpt>
      <trkpt lat="43.96363" lon="5.12565">
        <ele>446.1</ele>
        <time>2013-03-07T17:04:39Z</time>
      </trkpt>
      <trkpt lat="43.96367" lon="5.12565">
        <ele>446.3</ele>
        <time>2013-03-07T17:04:40Z</time>
      </trkpt>
      <trkpt lat="43.96371" lon="5.12565">
        <ele>446.6</ele>
        <time>2013-03-07T17:04:41Z</time>
      </trkpt>
      <trkpt lat="43.96374" lon="5.12566">
        <ele>446</ele>
        <time>2013-03-07T17:04:42Z</time>
      </trkpt>
      <trkpt lat="43.96378" lon="5.12564">
        <ele>441.3</ele>
        <time>2013-03-07T17:04:44Z</time>
      </trkpt>
      <trkpt lat="43.9638" lon="5.1256">
        <ele>439.9</ele>
        <time>2013-03-07T17:04:45Z</time>
      </trkpt>
      <trkpt lat="43.96383" lon="5.12557">
        <ele>439.4</ele>
        <time>2013-03-07T17:04:46Z</time>
      </trkpt>
      <trkpt lat="43.96385" lon="5.12553">
        <ele>437.6</ele>
        <time>2013-03-07T17:04:47Z</time>
      </trkpt>
      <trkpt lat="43.96387" lon="5.12548">
        <ele>436.9</ele>
        <time>2013-03-07T17:04:48Z</time>
      </trkpt>
      <trkpt lat="43.9639" lon="5.12544">
        <ele>436.3</ele>
        <time>2013-03-07T17:04:49Z</time>
      </trkpt>
      <trkpt lat="43.96392" lon="5.12542">
        <ele>435.5</ele>
        <time>2013-03-07T17:04:50Z</time>
      </trkpt>
      <trkpt lat="43.96395" lon="5.12539">
        <ele>435.2</ele>
        <time>2013-03-07T17:04:51Z</time>
      </trkpt>
      <trkpt lat="43.96398" lon="5.12536">
        <ele>434.5</ele>
        <time>2013-03-07T17:04:52Z</time>
      </trkpt>
      <trkpt lat="43.96402" lon="5.12536">
        <ele>434</ele>
        <time>2013-03-07T17:04:53Z</time>
      </trkpt>
      <trkpt lat="43.9641" lon="5.12537">
        <ele>434.9</ele>
        <time>2013-03-07T17:04:54Z</time>
      </trkpt>
      <trkpt lat="43.96414" lon="5.12535">
        <ele>434.9</ele>
        <time>2013-03-07T17:04:55Z</time>
      </trkpt>
      <trkpt lat="43.96418" lon="5.12535">
        <ele>434.8</ele>
        <time>2013-03-07T17:04:56Z</time>
      </trkpt>
      <trkpt lat="43.96422" lon="5.12535">
        <ele>434.8</ele>
        <time>2013-03-07T17:04:57Z</time>
      </trkpt>
      <trkpt lat="43.96426" lon="5.12534">
        <ele>435</ele>
        <time>2013-03-07T17:04:58Z</time>
      </trkpt>
      <trkpt lat="43.96431" lon="5.12534">
        <ele>434.9</ele>
        <time>2013-03-07T17:04:59Z</time>
      </trkpt>
      <trkpt lat="43.96435" lon="5.12533">
        <ele>434.7</ele>
        <time>2013-03-07T17:05:00Z</time>
      </trkpt>
      <trkpt lat="43.96441" lon="5.12533">
        <ele>434.2</ele>
        <time>2013-03-07T17:05:01Z</time>
      </trkpt>
      <trkpt lat="43.96446" lon="5.1253">
        <ele>434.2</ele>
        <time>2013-03-07T17:05:02Z</time>
      </trkpt>
      <trkpt lat="43.96453" lon="5.12527">
        <ele>435.1</ele>
        <time>2013-03-07T17:05:03Z</time>
      </trkpt>
      <trkpt lat="43.96459" lon="5.12526">
        <ele>434.9</ele>
        <time>2013-03-07T17:05:04Z</time>
      </trkpt>
      <trkpt lat="43.96464" lon="5.12524">
        <ele>435</ele>
        <time>2013-03-07T17:05:05Z</time>
      </trkpt>
      <trkpt lat="43.9647" lon="5.12521">
        <ele>435.2</ele>
        <time>2013-03-07T17:05:06Z</time>
      </trkpt>
      <trkpt lat="43.96474" lon="5.12519">
        <ele>435.6</ele>
        <time>2013-03-07T17:05:07Z</time>
      </trkpt>
      <trkpt lat="43.96478" lon="5.12519">
        <ele>436.4</ele>
        <time>2013-03-07T17:05:08Z</time>
      </trkpt>
      <trkpt lat="43.9648" lon="5.12521">
        <ele>436.2</ele>
        <time>2013-03-07T17:05:09Z</time>
      </trkpt>
      <trkpt lat="43.96484" lon="5.12522">
        <ele>436</ele>
        <time>2013-03-07T17:05:10Z</time>
      </trkpt>
      <trkpt lat="43.96486" lon="5.12521">
        <ele>436.5</ele>
        <time>2013-03-07T17:05:11Z</time>
      </trkpt>
      <trkpt lat="43.9649" lon="5.1252">
        <ele>434.3</ele>
        <time>2013-03-07T17:05:13Z</time>
      </trkpt>
      <trkpt lat="43.96492" lon="5.1252">
        <ele>433.6</ele>
        <time>2013-03-07T17:05:14Z</time>
      </trkpt>
      <trkpt lat="43.96496" lon="5.12519">
        <ele>433.2</ele>
        <time>2013-03-07T17:05:15Z</time>
      </trkpt>
      <trkpt lat="43.965" lon="5.12518">
        <ele>432.6</ele>
        <time>2013-03-07T17:05:16Z</time>
      </trkpt>
      <trkpt lat="43.96503" lon="5.12516">
        <ele>430.7</ele>
        <time>2013-03-07T17:05:17Z</time>
      </trkpt>
      <trkpt lat="43.96507" lon="5.12516">
        <ele>430.4</ele>
        <time>2013-03-07T17:05:18Z</time>
      </trkpt>
      <trkpt lat="43.96512" lon="5.12514">
        <ele>430.1</ele>
        <time>2013-03-07T17:05:19Z</time>
      </trkpt>
      <trkpt lat="43.96516" lon="5.12514">
        <ele>430.2</ele>
        <time>2013-03-07T17:05:20Z</time>
      </trkpt>
      <trkpt lat="43.96522" lon="5.12514">
        <ele>429.9</ele>
        <time>2013-03-07T17:05:21Z</time>
      </trkpt>
      <trkpt lat="43.96526" lon="5.12514">
        <ele>430</ele>
        <time>2013-03-07T17:05:22Z</time>
      </trkpt>
      <trkpt lat="43.96531" lon="5.12515">
        <ele>429.8</ele>
        <time>2013-03-07T17:05:23Z</time>
      </trkpt>
      <trkpt lat="43.96535" lon="5.12515">
        <ele>429.1</ele>
        <time>2013-03-07T17:05:24Z</time>
      </trkpt>
      <trkpt lat="43.9654" lon="5.12516">
        <ele>428.9</ele>
        <time>2013-03-07T17:05:25Z</time>
      </trkpt>
      <trkpt lat="43.96545" lon="5.12517">
        <ele>428.4</ele>
        <time>2013-03-07T17:05:26Z</time>
      </trkpt>
      <trkpt lat="43.96549" lon="5.12517">
        <ele>428.1</ele>
        <time>2013-03-07T17:05:27Z</time>
      </trkpt>
      <trkpt lat="43.96554" lon="5.12517">
        <ele>427.8</ele>
        <time>2013-03-07T17:05:28Z</time>
      </trkpt>
      <trkpt lat="43.96558" lon="5.12518">
        <ele>426.6</ele>
        <time>2013-03-07T17:05:29Z</time>
      </trkpt>
      <trkpt lat="43.96562" lon="5.12518">
        <ele>425.1</ele>
        <time>2013-03-07T17:05:30Z</time>
      </trkpt>
      <trkpt lat="43.96566" lon="5.12517">
        <ele>423.6</ele>
        <time>2013-03-07T17:05:31Z</time>
      </trkpt>
      <trkpt lat="43.96571" lon="5.12518">
        <ele>423.9</ele>
        <time>2013-03-07T17:05:32Z</time>
      </trkpt>
      <trkpt lat="43.96575" lon="5.12517">
        <ele>424.1</ele>
        <time>2013-03-07T17:05:33Z</time>
      </trkpt>
      <trkpt lat="43.9658" lon="5.12517">
        <ele>423.4</ele>
        <time>2013-03-07T17:05:34Z</time>
      </trkpt>
      <trkpt lat="43.96584" lon="5.12517">
        <ele>423.6</ele>
        <time>2013-03-07T17:05:35Z</time>
      </trkpt>
      <trkpt lat="43.96589" lon="5.12516">
        <ele>423.7</ele>
        <time>2013-03-07T17:05:36Z</time>
      </trkpt>
      <trkpt lat="43.96594" lon="5.12515">
        <ele>423.1</ele>
        <time>2013-03-07T17:05:37Z</time>
      </trkpt>
      <trkpt lat="43.96597" lon="5.12517">
        <ele>423.7</ele>
        <time>2013-03-07T17:05:38Z</time>
      </trkpt>
      <trkpt lat="43.96602" lon="5.12516">
        <ele>424</ele>
        <time>2013-03-07T17:05:39Z</time>
      </trkpt>
      <trkpt lat="43.96606" lon="5.12516">
        <ele>423.3</ele>
        <time>2013-03-07T17:05:40Z</time>
      </trkpt>
      <trkpt lat="43.96611" lon="5.12514">
        <ele>421.8</ele>
        <time>2013-03-07T17:05:41Z</time>
      </trkpt>
      <trkpt lat="43.96615" lon="5.12514">
        <ele>421.3</ele>
        <time>2013-03-07T17:05:42Z</time>
      </trkpt>
      <trkpt lat="43.9662" lon="5.12514">
        <ele>421.3</ele>
        <time>2013-03-07T17:05:43Z</time>
      </trkpt>
      <trkpt lat="43.96624" lon="5.12513">
        <ele>421.5</ele>
        <time>2013-03-07T17:05:44Z</time>
      </trkpt>
      <trkpt lat="43.96628" lon="5.12513">
        <ele>421.9</ele>
        <time>2013-03-07T17:05:45Z</time>
      </trkpt>
      <trkpt lat="43.96633" lon="5.12513">
        <ele>422.2</ele>
        <time>2013-03-07T17:05:46Z</time>
      </trkpt>
      <trkpt lat="43.96637" lon="5.12512">
        <ele>422.2</ele>
        <time>2013-03-07T17:05:47Z</time>
      </trkpt>
      <trkpt lat="43.96641" lon="5.1251">
        <ele>420.9</ele>
        <time>2013-03-07T17:05:48Z</time>
      </trkpt>
      <trkpt lat="43.96645" lon="5.1251">
        <ele>420.5</ele>
        <time>2013-03-07T17:05:49Z</time>
      </trkpt>
      <trkpt lat="43.96649" lon="5.12508">
        <ele>419.2</ele>
        <time>2013-03-07T17:05:50Z</time>
      </trkpt>
      <trkpt lat="43.96653" lon="5.12508">
        <ele>419.7</ele>
        <time>2013-03-07T17:05:51Z</time>
      </trkpt>
      <trkpt lat="43.96658" lon="5.12506">
        <ele>419.5</ele>
        <time>2013-03-07T17:05:52Z</time>
      </trkpt>
      <trkpt lat="43.96662" lon="5.12505">
        <ele>419.1</ele>
        <time>2013-03-07T17:05:53Z</time>
      </trkpt>
      <trkpt lat="43.96666" lon="5.12504">
        <ele>418.1</ele>
        <time>2013-03-07T17:05:54Z</time>
      </trkpt>
      <trkpt lat="43.9667" lon="5.12501">
        <ele>418.3</ele>
        <time>2013-03-07T17:05:55Z</time>
      </trkpt>
      <trkpt lat="43.96675" lon="5.12501">
        <ele>418.6</ele>
        <time>2013-03-07T17:05:56Z</time>
      </trkpt>
      <trkpt lat="43.9668" lon="5.12499">
        <ele>417.8</ele>
        <time>2013-03-07T17:05:57Z</time>
      </trkpt>
      <trkpt lat="43.96684" lon="5.12497">
        <ele>418</ele>
        <time>2013-03-07T17:05:58Z</time>
      </trkpt>
      <trkpt lat="43.96689" lon="5.12496">
        <ele>418.1</ele>
        <time>2013-03-07T17:05:59Z</time>
      </trkpt>
      <trkpt lat="43.96693" lon="5.12493">
        <ele>417.7</ele>
        <time>2013-03-07T17:06:00Z</time>
      </trkpt>
      <trkpt lat="43.96698" lon="5.1249">
        <ele>417.2</ele>
        <time>2013-03-07T17:06:01Z</time>
      </trkpt>
      <trkpt lat="43.96702" lon="5.12486">
        <ele>417.2</ele>
        <time>2013-03-07T17:06:02Z</time>
      </trkpt>
      <trkpt lat="43.96706" lon="5.12483">
        <ele>417</ele>
        <time>2013-03-07T17:06:03Z</time>
      </trkpt>
      <trkpt lat="43.9671" lon="5.12481">
        <ele>417.2</ele>
        <time>2013-03-07T17:06:04Z</time>
      </trkpt>
      <trkpt lat="43.96714" lon="5.12478">
        <ele>416.6</ele>
        <time>2013-03-07T17:06:05Z</time>
      </trkpt>
      <trkpt lat="43.96718" lon="5.12475">
        <ele>416.1</ele>
        <time>2013-03-07T17:06:06Z</time>
      </trkpt>
      <trkpt lat="43.96722" lon="5.12472">
        <ele>416.8</ele>
        <time>2013-03-07T17:06:07Z</time>
      </trkpt>
      <trkpt lat="43.96726" lon="5.1247">
        <ele>417.2</ele>
        <time>2013-03-07T17:06:08Z</time>
      </trkpt>
      <trkpt lat="43.9673" lon="5.12466">
        <ele>417.1</ele>
        <time>2013-03-07T17:06:09Z</time>
      </trkpt>
      <trkpt lat="43.96734" lon="5.12463">
        <ele>417.5</ele>
        <time>2013-03-07T17:06:10Z</time>
      </trkpt>
      <trkpt lat="43.96737" lon="5.12459">
        <ele>417.4</ele>
        <time>2013-03-07T17:06:11Z</time>
      </trkpt>
      <trkpt lat="43.9674" lon="5.12455">
        <ele>417.5</ele>
        <time>2013-03-07T17:06:12Z</time>
      </trkpt>
      <trkpt lat="43.96744" lon="5.12452">
        <ele>418.1</ele>
        <time>2013-03-07T17:06:13Z</time>
      </trkpt>
      <trkpt lat="43.96747" lon="5.12448">
        <ele>418</ele>
        <time>2013-03-07T17:06:14Z</time>
      </trkpt>
      <trkpt lat="43.96751" lon="5.12443">
        <ele>417.7</ele>
        <time>2013-03-07T17:06:15Z</time>
      </trkpt>
      <trkpt lat="43.96755" lon="5.12438">
        <ele>417.8</ele>
        <time>2013-03-07T17:06:16Z</time>
      </trkpt>
      <trkpt lat="43.96759" lon="5.12433">
        <ele>418.2</ele>
        <time>2013-03-07T17:06:17Z</time>
      </trkpt>
      <trkpt lat="43.96763" lon="5.12429">
        <ele>417.8</ele>
        <time>2013-03-07T17:06:18Z</time>
      </trkpt>
      <trkpt lat="43.96767" lon="5.12426">
        <ele>417.7</ele>
        <time>2013-03-07T17:06:19Z</time>
      </trkpt>
      <trkpt lat="43.96772" lon="5.12426">
        <ele>417.6</ele>
        <time>2013-03-07T17:06:20Z</time>
      </trkpt>
      <trkpt lat="43.96779" lon="5.12428">
        <ele>417.6</ele>
        <time>2013-03-07T17:06:21Z</time>
      </trkpt>
      <trkpt lat="43.96785" lon="5.12432">
        <ele>417.4</ele>
        <time>2013-03-07T17:06:22Z</time>
      </trkpt>
      <trkpt lat="43.96794" lon="5.12436">
        <ele>416.6</ele>
        <time>2013-03-07T17:06:23Z</time>
      </trkpt>
      <trkpt lat="43.96801" lon="5.12438">
        <ele>415.9</ele>
        <time>2013-03-07T17:06:24Z</time>
      </trkpt>
      <trkpt lat="43.96808" lon="5.12441">
        <ele>415.7</ele>
        <time>2013-03-07T17:06:25Z</time>
      </trkpt>
      <trkpt lat="43.96814" lon="5.12444">
        <ele>415.4</ele>
        <time>2013-03-07T17:06:26Z</time>
      </trkpt>
      <trkpt lat="43.96819" lon="5.12446">
        <ele>415.1</ele>
        <time>2013-03-07T17:06:27Z</time>
      </trkpt>
      <trkpt lat="43.96825" lon="5.12449">
        <ele>415.1</ele>
        <time>2013-03-07T17:06:28Z</time>
      </trkpt>
      <trkpt lat="43.9683" lon="5.12449">
        <ele>414.9</ele>
        <time>2013-03-07T17:06:29Z</time>
      </trkpt>
      <trkpt lat="43.96834" lon="5.12449">
        <ele>414.9</ele>
        <time>2013-03-07T17:06:30Z</time>
      </trkpt>
      <trkpt lat="43.96838" lon="5.12446">
        <ele>414.6</ele>
        <time>2013-03-07T17:06:31Z</time>
      </trkpt>
      <trkpt lat="43.96838" lon="5.12437">
        <ele>410.6</ele>
        <time>2013-03-07T17:06:32Z</time>
      </trkpt>
      <trkpt lat="43.96842" lon="5.12432">
        <ele>409.8</ele>
        <time>2013-03-07T17:06:33Z</time>
      </trkpt>
      <trkpt lat="43.96845" lon="5.12427">
        <ele>408.8</ele>
        <time>2013-03-07T17:06:34Z</time>
      </trkpt>
      <trkpt lat="43.96849" lon="5.12422">
        <ele>409.7</ele>
        <time>2013-03-07T17:06:35Z</time>
      </trkpt>
      <trkpt lat="43.9685" lon="5.12419">
        <ele>409</ele>
        <time>2013-03-07T17:06:36Z</time>
      </trkpt>
      <trkpt lat="43.96854" lon="5.12419">
        <ele>408.9</ele>
        <time>2013-03-07T17:06:37Z</time>
      </trkpt>
      <trkpt lat="43.96855" lon="5.12422">
        <ele>408.7</ele>
        <time>2013-03-07T17:06:38Z</time>
      </trkpt>
      <trkpt lat="43.96857" lon="5.12426">
        <ele>408.7</ele>
        <time>2013-03-07T17:06:39Z</time>
      </trkpt>
      <trkpt lat="43.96856" lon="5.1243">
        <ele>408.7</ele>
        <time>2013-03-07T17:06:40Z</time>
      </trkpt>
      <trkpt lat="43.96855" lon="5.12434">
        <ele>408.6</ele>
        <time>2013-03-07T17:06:41Z</time>
      </trkpt>
      <trkpt lat="43.96854" lon="5.12439">
        <ele>408.5</ele>
        <time>2013-03-07T17:06:42Z</time>
      </trkpt>
      <trkpt lat="43.96854" lon="5.12443">
        <ele>408.8</ele>
        <time>2013-03-07T17:06:43Z</time>
      </trkpt>
      <trkpt lat="43.96853" lon="5.12449">
        <ele>408.9</ele>
        <time>2013-03-07T17:06:45Z</time>
      </trkpt>
      <trkpt lat="43.96853" lon="5.12452">
        <ele>408.9</ele>
        <time>2013-03-07T17:06:46Z</time>
      </trkpt>
      <trkpt lat="43.96854" lon="5.12456">
        <ele>408.2</ele>
        <time>2013-03-07T17:06:49Z</time>
      </trkpt>
      <trkpt lat="43.96855" lon="5.12457">
        <ele>408</ele>
        <time>2013-03-07T17:06:50Z</time>
      </trkpt>
      <trkpt lat="43.96857" lon="5.12459">
        <ele>407.9</ele>
        <time>2013-03-07T17:06:51Z</time>
      </trkpt>
      <trkpt lat="43.9686" lon="5.1246">
        <ele>407.3</ele>
        <time>2013-03-07T17:06:52Z</time>
      </trkpt>
      <trkpt lat="43.96863" lon="5.1246">
        <ele>407.5</ele>
        <time>2013-03-07T17:06:53Z</time>
      </trkpt>
      <trkpt lat="43.96866" lon="5.12459">
        <ele>407.6</ele>
        <time>2013-03-07T17:06:54Z</time>
      </trkpt>
      <trkpt lat="43.96869" lon="5.12458">
        <ele>407.5</ele>
        <time>2013-03-07T17:06:55Z</time>
      </trkpt>
      <trkpt lat="43.96872" lon="5.12458">
        <ele>407.6</ele>
        <time>2013-03-07T17:06:56Z</time>
      </trkpt>
      <trkpt lat="43.96875" lon="5.12455">
        <ele>407.7</ele>
        <time>2013-03-07T17:06:58Z</time>
      </trkpt>
      <trkpt lat="43.96878" lon="5.12452">
        <ele>407.8</ele>
        <time>2013-03-07T17:06:59Z</time>
      </trkpt>
      <trkpt lat="43.9688" lon="5.1245">
        <ele>407.7</ele>
        <time>2013-03-07T17:07:00Z</time>
      </trkpt>
      <trkpt lat="43.96881" lon="5.12446">
        <ele>407.4</ele>
        <time>2013-03-07T17:07:01Z</time>
      </trkpt>
      <trkpt lat="43.96884" lon="5.12443">
        <ele>407.4</ele>
        <time>2013-03-07T17:07:02Z</time>
      </trkpt>
      <trkpt lat="43.96887" lon="5.12442">
        <ele>407.5</ele>
        <time>2013-03-07T17:07:03Z</time>
      </trkpt>
      <trkpt lat="43.96889" lon="5.12438">
        <ele>406.9</ele>
        <time>2013-03-07T17:07:04Z</time>
      </trkpt>
      <trkpt lat="43.9689" lon="5.12435">
        <ele>406.7</ele>
        <time>2013-03-07T17:07:05Z</time>
      </trkpt>
      <trkpt lat="43.9689" lon="5.12431">
        <ele>405.8</ele>
        <time>2013-03-07T17:07:06Z</time>
      </trkpt>
      <trkpt lat="43.9689" lon="5.12425">
        <ele>405.5</ele>
        <time>2013-03-07T17:07:07Z</time>
      </trkpt>
      <trkpt lat="43.96893" lon="5.1242">
        <ele>405</ele>
        <time>2013-03-07T17:07:08Z</time>
      </trkpt>
      <trkpt lat="43.96895" lon="5.12417">
        <ele>404.8</ele>
        <time>2013-03-07T17:07:09Z</time>
      </trkpt>
      <trkpt lat="43.96898" lon="5.12416">
        <ele>404.4</ele>
        <time>2013-03-07T17:07:10Z</time>
      </trkpt>
      <trkpt lat="43.969" lon="5.12416">
        <ele>404</ele>
        <time>2013-03-07T17:07:11Z</time>
      </trkpt>
      <trkpt lat="43.96903" lon="5.12413">
        <ele>403.2</ele>
        <time>2013-03-07T17:07:12Z</time>
      </trkpt>
      <trkpt lat="43.96906" lon="5.12408">
        <ele>401.7</ele>
        <time>2013-03-07T17:07:13Z</time>
      </trkpt>
      <trkpt lat="43.96908" lon="5.12405">
        <ele>401.3</ele>
        <time>2013-03-07T17:07:14Z</time>
      </trkpt>
      <trkpt lat="43.96909" lon="5.12398">
        <ele>400.6</ele>
        <time>2013-03-07T17:07:15Z</time>
      </trkpt>
      <trkpt lat="43.96912" lon="5.12393">
        <ele>399.7</ele>
        <time>2013-03-07T17:07:16Z</time>
      </trkpt>
      <trkpt lat="43.96914" lon="5.12388">
        <ele>398.8</ele>
        <time>2013-03-07T17:07:17Z</time>
      </trkpt>
      <trkpt lat="43.96914" lon="5.12383">
        <ele>398.4</ele>
        <time>2013-03-07T17:07:18Z</time>
      </trkpt>
      <trkpt lat="43.96917" lon="5.12378">
        <ele>397.6</ele>
        <time>2013-03-07T17:07:19Z</time>
      </trkpt>
      <trkpt lat="43.96918" lon="5.12375">
        <ele>397.4</ele>
        <time>2013-03-07T17:07:20Z</time>
      </trkpt>
      <trkpt lat="43.96922" lon="5.12372">
        <ele>397.4</ele>
        <time>2013-03-07T17:07:21Z</time>
      </trkpt>
      <trkpt lat="43.96924" lon="5.1237">
        <ele>397.2</ele>
        <time>2013-03-07T17:07:22Z</time>
      </trkpt>
      <trkpt lat="43.96926" lon="5.12366">
        <ele>397</ele>
        <time>2013-03-07T17:07:23Z</time>
      </trkpt>
      <trkpt lat="43.96928" lon="5.12363">
        <ele>396.7</ele>
        <time>2013-03-07T17:07:24Z</time>
      </trkpt>
      <trkpt lat="43.9693" lon="5.12361">
        <ele>396.6</ele>
        <time>2013-03-07T17:07:25Z</time>
      </trkpt>
      <trkpt lat="43.96931" lon="5.12359">
        <ele>396.1</ele>
        <time>2013-03-07T17:07:26Z</time>
      </trkpt>
      <trkpt lat="43.96939" lon="5.12349">
        <ele>394.6</ele>
        <time>2013-03-07T17:07:28Z</time>
      </trkpt>
      <trkpt lat="43.96938" lon="5.12343">
        <ele>394.3</ele>
        <time>2013-03-07T17:07:29Z</time>
      </trkpt>
      <trkpt lat="43.96942" lon="5.12339">
        <ele>394.2</ele>
        <time>2013-03-07T17:07:30Z</time>
      </trkpt>
      <trkpt lat="43.96943" lon="5.12336">
        <ele>394.3</ele>
        <time>2013-03-07T17:07:31Z</time>
      </trkpt>
      <trkpt lat="43.96945" lon="5.12331">
        <ele>394.2</ele>
        <time>2013-03-07T17:07:32Z</time>
      </trkpt>
      <trkpt lat="43.96948" lon="5.12325">
        <ele>394</ele>
        <time>2013-03-07T17:07:33Z</time>
      </trkpt>
      <trkpt lat="43.96951" lon="5.12321">
        <ele>393.2</ele>
        <time>2013-03-07T17:07:34Z</time>
      </trkpt>
      <trkpt lat="43.96954" lon="5.12315">
        <ele>393</ele>
        <time>2013-03-07T17:07:35Z</time>
      </trkpt>
      <trkpt lat="43.96958" lon="5.1231">
        <ele>392.6</ele>
        <time>2013-03-07T17:07:36Z</time>
      </trkpt>
      <trkpt lat="43.96962" lon="5.12305">
        <ele>393</ele>
        <time>2013-03-07T17:07:37Z</time>
      </trkpt>
      <trkpt lat="43.96964" lon="5.12302">
        <ele>392.8</ele>
        <time>2013-03-07T17:07:38Z</time>
      </trkpt>
      <trkpt lat="43.96964" lon="5.12298">
        <ele>392.5</ele>
        <time>2013-03-07T17:07:39Z</time>
      </trkpt>
      <trkpt lat="43.96965" lon="5.12296">
        <ele>392.2</ele>
        <time>2013-03-07T17:07:40Z</time>
      </trkpt>
      <trkpt lat="43.96968" lon="5.12291">
        <ele>391.9</ele>
        <time>2013-03-07T17:07:41Z</time>
      </trkpt>
      <trkpt lat="43.96966" lon="5.12284">
        <ele>391.4</ele>
        <time>2013-03-07T17:07:42Z</time>
      </trkpt>
      <trkpt lat="43.96965" lon="5.1228">
        <ele>391</ele>
        <time>2013-03-07T17:07:43Z</time>
      </trkpt>
      <trkpt lat="43.96963" lon="5.12276">
        <ele>391</ele>
        <time>2013-03-07T17:07:44Z</time>
      </trkpt>
      <trkpt lat="43.96966" lon="5.12273">
        <ele>390.6</ele>
        <time>2013-03-07T17:07:46Z</time>
      </trkpt>
      <trkpt lat="43.96965" lon="5.1227">
        <ele>390.3</ele>
        <time>2013-03-07T17:07:47Z</time>
      </trkpt>
      <trkpt lat="43.96963" lon="5.12268">
        <ele>389.2</ele>
        <time>2013-03-07T17:07:48Z</time>
      </trkpt>
      <trkpt lat="43.9696" lon="5.12263">
        <ele>390.1</ele>
        <time>2013-03-07T17:07:49Z</time>
      </trkpt>
      <trkpt lat="43.96959" lon="5.12261">
        <ele>390.2</ele>
        <time>2013-03-07T17:07:50Z</time>
      </trkpt>
      <trkpt lat="43.96957" lon="5.12257">
        <ele>390.2</ele>
        <time>2013-03-07T17:07:51Z</time>
      </trkpt>
      <trkpt lat="43.96954" lon="5.12252">
        <ele>390.3</ele>
        <time>2013-03-07T17:07:53Z</time>
      </trkpt>
      <trkpt lat="43.96953" lon="5.1225">
        <ele>390.1</ele>
        <time>2013-03-07T17:07:54Z</time>
      </trkpt>
      <trkpt lat="43.9695" lon="5.12246">
        <ele>390</ele>
        <time>2013-03-07T17:07:56Z</time>
      </trkpt>
      <trkpt lat="43.96949" lon="5.12245">
        <ele>390.1</ele>
        <time>2013-03-07T17:07:57Z</time>
      </trkpt>
      <trkpt lat="43.96946" lon="5.12242">
        <ele>389.8</ele>
        <time>2013-03-07T17:08:01Z</time>
      </trkpt>
      <trkpt lat="43.96943" lon="5.1224">
        <ele>390.3</ele>
        <time>2013-03-07T17:08:02Z</time>
      </trkpt>
      <trkpt lat="43.96947" lon="5.12237">
        <ele>392.2</ele>
        <time>2013-03-07T17:08:29Z</time>
      </trkpt>
      <trkpt lat="43.96945" lon="5.1223">
        <ele>392.8</ele>
        <time>2013-03-07T17:08:30Z</time>
      </trkpt>
      <trkpt lat="43.96943" lon="5.12225">
        <ele>392.2</ele>
        <time>2013-03-07T17:08:31Z</time>
      </trkpt>
      <trkpt lat="43.96942" lon="5.12221">
        <ele>392</ele>
        <time>2013-03-07T17:08:32Z</time>
      </trkpt>
      <trkpt lat="43.96939" lon="5.12217">
        <ele>392</ele>
        <time>2013-03-07T17:08:33Z</time>
      </trkpt>
      <trkpt lat="43.96937" lon="5.12212">
        <ele>391.6</ele>
        <time>2013-03-07T17:08:34Z</time>
      </trkpt>
      <trkpt lat="43.96937" lon="5.1221">
        <ele>392.6</ele>
        <time>2013-03-07T17:08:35Z</time>
      </trkpt>
      <trkpt lat="43.96937" lon="5.12205">
        <ele>391.5</ele>
        <time>2013-03-07T17:08:36Z</time>
      </trkpt>
      <trkpt lat="43.96938" lon="5.122">
        <ele>391.2</ele>
        <time>2013-03-07T17:08:37Z</time>
      </trkpt>
      <trkpt lat="43.96939" lon="5.12197">
        <ele>391.6</ele>
        <time>2013-03-07T17:08:38Z</time>
      </trkpt>
      <trkpt lat="43.96941" lon="5.12192">
        <ele>392</ele>
        <time>2013-03-07T17:08:39Z</time>
      </trkpt>
      <trkpt lat="43.96943" lon="5.12186">
        <ele>391.5</ele>
        <time>2013-03-07T17:08:40Z</time>
      </trkpt>
      <trkpt lat="43.96945" lon="5.1218">
        <ele>392.3</ele>
        <time>2013-03-07T17:08:41Z</time>
      </trkpt>
      <trkpt lat="43.96945" lon="5.12173">
        <ele>392.3</ele>
        <time>2013-03-07T17:08:42Z</time>
      </trkpt>
      <trkpt lat="43.96948" lon="5.12168">
        <ele>392.2</ele>
        <time>2013-03-07T17:08:43Z</time>
      </trkpt>
      <trkpt lat="43.96949" lon="5.12164">
        <ele>392.3</ele>
        <time>2013-03-07T17:08:44Z</time>
      </trkpt>
      <trkpt lat="43.9695" lon="5.12158">
        <ele>392.9</ele>
        <time>2013-03-07T17:08:45Z</time>
      </trkpt>
      <trkpt lat="43.96953" lon="5.12152">
        <ele>393.1</ele>
        <time>2013-03-07T17:08:46Z</time>
      </trkpt>
      <trkpt lat="43.96955" lon="5.12149">
        <ele>392.2</ele>
        <time>2013-03-07T17:08:47Z</time>
      </trkpt>
      <trkpt lat="43.96957" lon="5.12144">
        <ele>391</ele>
        <time>2013-03-07T17:08:48Z</time>
      </trkpt>
      <trkpt lat="43.96958" lon="5.12141">
        <ele>391</ele>
        <time>2013-03-07T17:08:49Z</time>
      </trkpt>
      <trkpt lat="43.96959" lon="5.12136">
        <ele>389.9</ele>
        <time>2013-03-07T17:08:50Z</time>
      </trkpt>
      <trkpt lat="43.96959" lon="5.12131">
        <ele>390.7</ele>
        <time>2013-03-07T17:08:51Z</time>
      </trkpt>
      <trkpt lat="43.96961" lon="5.12127">
        <ele>390.4</ele>
        <time>2013-03-07T17:08:52Z</time>
      </trkpt>
      <trkpt lat="43.96962" lon="5.12124">
        <ele>390.3</ele>
        <time>2013-03-07T17:08:53Z</time>
      </trkpt>
      <trkpt lat="43.96963" lon="5.12121">
        <ele>389.9</ele>
        <time>2013-03-07T17:08:54Z</time>
      </trkpt>
      <trkpt lat="43.96963" lon="5.12116">
        <ele>388.4</ele>
        <time>2013-03-07T17:08:55Z</time>
      </trkpt>
      <trkpt lat="43.96964" lon="5.12112">
        <ele>386.9</ele>
        <time>2013-03-07T17:08:56Z</time>
      </trkpt>
      <trkpt lat="43.96964" lon="5.12109">
        <ele>386.3</ele>
        <time>2013-03-07T17:08:57Z</time>
      </trkpt>
      <trkpt lat="43.96966" lon="5.12106">
        <ele>386.4</ele>
        <time>2013-03-07T17:08:58Z</time>
      </trkpt>
      <trkpt lat="43.96967" lon="5.12102">
        <ele>386.6</ele>
        <time>2013-03-07T17:08:59Z</time>
      </trkpt>
      <trkpt lat="43.96969" lon="5.12097">
        <ele>386.3</ele>
        <time>2013-03-07T17:09:00Z</time>
      </trkpt>
      <trkpt lat="43.96971" lon="5.12091">
        <ele>385.8</ele>
        <time>2013-03-07T17:09:01Z</time>
      </trkpt>
      <trkpt lat="43.96972" lon="5.12086">
        <ele>385.7</ele>
        <time>2013-03-07T17:09:02Z</time>
      </trkpt>
      <trkpt lat="43.96976" lon="5.12083">
        <ele>385.7</ele>
        <time>2013-03-07T17:09:03Z</time>
      </trkpt>
      <trkpt lat="43.96977" lon="5.12079">
        <ele>386.3</ele>
        <time>2013-03-07T17:09:04Z</time>
      </trkpt>
      <trkpt lat="43.96981" lon="5.12075">
        <ele>386.2</ele>
        <time>2013-03-07T17:09:05Z</time>
      </trkpt>
      <trkpt lat="43.96984" lon="5.12073">
        <ele>386.7</ele>
        <time>2013-03-07T17:09:06Z</time>
      </trkpt>
      <trkpt lat="43.96988" lon="5.1207">
        <ele>387</ele>
        <time>2013-03-07T17:09:07Z</time>
      </trkpt>
      <trkpt lat="43.9699" lon="5.12066">
        <ele>387</ele>
        <time>2013-03-07T17:09:08Z</time>
      </trkpt>
      <trkpt lat="43.96994" lon="5.12063">
        <ele>387.2</ele>
        <time>2013-03-07T17:09:09Z</time>
      </trkpt>
      <trkpt lat="43.96997" lon="5.1206">
        <ele>387.5</ele>
        <time>2013-03-07T17:09:10Z</time>
      </trkpt>
      <trkpt lat="43.96999" lon="5.12056">
        <ele>387.5</ele>
        <time>2013-03-07T17:09:11Z</time>
      </trkpt>
      <trkpt lat="43.97002" lon="5.12052">
        <ele>387.9</ele>
        <time>2013-03-07T17:09:12Z</time>
      </trkpt>
      <trkpt lat="43.97005" lon="5.12047">
        <ele>387</ele>
        <time>2013-03-07T17:09:13Z</time>
      </trkpt>
      <trkpt lat="43.97007" lon="5.12043">
        <ele>386.6</ele>
        <time>2013-03-07T17:09:14Z</time>
      </trkpt>
      <trkpt lat="43.97011" lon="5.12037">
        <ele>386.5</ele>
        <time>2013-03-07T17:09:15Z</time>
      </trkpt>
      <trkpt lat="43.97013" lon="5.12032">
        <ele>386</ele>
        <time>2013-03-07T17:09:16Z</time>
      </trkpt>
      <trkpt lat="43.97015" lon="5.12028">
        <ele>386.6</ele>
        <time>2013-03-07T17:09:17Z</time>
      </trkpt>
      <trkpt lat="43.97018" lon="5.12025">
        <ele>386.9</ele>
        <time>2013-03-07T17:09:18Z</time>
      </trkpt>
      <trkpt lat="43.97019" lon="5.12021">
        <ele>386.8</ele>
        <time>2013-03-07T17:09:19Z</time>
      </trkpt>
      <trkpt lat="43.97022" lon="5.1202">
        <ele>387.3</ele>
        <time>2013-03-07T17:09:20Z</time>
      </trkpt>
      <trkpt lat="43.97026" lon="5.12018">
        <ele>387.4</ele>
        <time>2013-03-07T17:09:21Z</time>
      </trkpt>
      <trkpt lat="43.97029" lon="5.12015">
        <ele>387.6</ele>
        <time>2013-03-07T17:09:22Z</time>
      </trkpt>
      <trkpt lat="43.97031" lon="5.12012">
        <ele>388.1</ele>
        <time>2013-03-07T17:09:23Z</time>
      </trkpt>
      <trkpt lat="43.97033" lon="5.12009">
        <ele>387.9</ele>
        <time>2013-03-07T17:09:24Z</time>
      </trkpt>
      <trkpt lat="43.97034" lon="5.12007">
        <ele>387.6</ele>
        <time>2013-03-07T17:09:25Z</time>
      </trkpt>
      <trkpt lat="43.97035" lon="5.12004">
        <ele>387</ele>
        <time>2013-03-07T17:09:26Z</time>
      </trkpt>
      <trkpt lat="43.97036" lon="5.12001">
        <ele>386.2</ele>
        <time>2013-03-07T17:09:27Z</time>
      </trkpt>
      <trkpt lat="43.97038" lon="5.11996">
        <ele>384.3</ele>
        <time>2013-03-07T17:09:28Z</time>
      </trkpt>
      <trkpt lat="43.9704" lon="5.11992">
        <ele>383.9</ele>
        <time>2013-03-07T17:09:29Z</time>
      </trkpt>
      <trkpt lat="43.97037" lon="5.11987">
        <ele>383.1</ele>
        <time>2013-03-07T17:09:30Z</time>
      </trkpt>
      <trkpt lat="43.97038" lon="5.11982">
        <ele>383</ele>
        <time>2013-03-07T17:09:31Z</time>
      </trkpt>
      <trkpt lat="43.9704" lon="5.1198">
        <ele>383</ele>
        <time>2013-03-07T17:09:32Z</time>
      </trkpt>
      <trkpt lat="43.97043" lon="5.11978">
        <ele>382.7</ele>
        <time>2013-03-07T17:09:34Z</time>
      </trkpt>
      <trkpt lat="43.97045" lon="5.11976">
        <ele>382.8</ele>
        <time>2013-03-07T17:09:35Z</time>
      </trkpt>
      <trkpt lat="43.97049" lon="5.11973">
        <ele>382.6</ele>
        <time>2013-03-07T17:09:36Z</time>
      </trkpt>
      <trkpt lat="43.97052" lon="5.11967">
        <ele>381.5</ele>
        <time>2013-03-07T17:09:37Z</time>
      </trkpt>
      <trkpt lat="43.97054" lon="5.11961">
        <ele>380.5</ele>
        <time>2013-03-07T17:09:38Z</time>
      </trkpt>
      <trkpt lat="43.97055" lon="5.11956">
        <ele>380</ele>
        <time>2013-03-07T17:09:39Z</time>
      </trkpt>
      <trkpt lat="43.97055" lon="5.11952">
        <ele>379</ele>
        <time>2013-03-07T17:09:40Z</time>
      </trkpt>
      <trkpt lat="43.97056" lon="5.11946">
        <ele>378.6</ele>
        <time>2013-03-07T17:09:41Z</time>
      </trkpt>
      <trkpt lat="43.97055" lon="5.11939">
        <ele>377.7</ele>
        <time>2013-03-07T17:09:42Z</time>
      </trkpt>
      <trkpt lat="43.97056" lon="5.11932">
        <ele>376.1</ele>
        <time>2013-03-07T17:09:43Z</time>
      </trkpt>
      <trkpt lat="43.97057" lon="5.11923">
        <ele>374.8</ele>
        <time>2013-03-07T17:09:44Z</time>
      </trkpt>
      <trkpt lat="43.97059" lon="5.11915">
        <ele>374.4</ele>
        <time>2013-03-07T17:09:45Z</time>
      </trkpt>
      <trkpt lat="43.97062" lon="5.11909">
        <ele>373.5</ele>
        <time>2013-03-07T17:09:46Z</time>
      </trkpt>
      <trkpt lat="43.97063" lon="5.11901">
        <ele>373.2</ele>
        <time>2013-03-07T17:09:47Z</time>
      </trkpt>
      <trkpt lat="43.97063" lon="5.11891">
        <ele>372.3</ele>
        <time>2013-03-07T17:09:48Z</time>
      </trkpt>
      <trkpt lat="43.97063" lon="5.11881">
        <ele>372.2</ele>
        <time>2013-03-07T17:09:49Z</time>
      </trkpt>
      <trkpt lat="43.97062" lon="5.11871">
        <ele>371.8</ele>
        <time>2013-03-07T17:09:50Z</time>
      </trkpt>
      <trkpt lat="43.97061" lon="5.11862">
        <ele>371.2</ele>
        <time>2013-03-07T17:09:51Z</time>
      </trkpt>
      <trkpt lat="43.97059" lon="5.11855">
        <ele>370.9</ele>
        <time>2013-03-07T17:09:52Z</time>
      </trkpt>
      <trkpt lat="43.9706" lon="5.11846">
        <ele>370.6</ele>
        <time>2013-03-07T17:09:53Z</time>
      </trkpt>
      <trkpt lat="43.97062" lon="5.11839">
        <ele>371.4</ele>
        <time>2013-03-07T17:09:54Z</time>
      </trkpt>
      <trkpt lat="43.97066" lon="5.11838">
        <ele>371.7</ele>
        <time>2013-03-07T17:09:55Z</time>
      </trkpt>
      <trkpt lat="43.97071" lon="5.11837">
        <ele>371.8</ele>
        <time>2013-03-07T17:09:56Z</time>
      </trkpt>
      <trkpt lat="43.97077" lon="5.11837">
        <ele>373</ele>
        <time>2013-03-07T17:09:57Z</time>
      </trkpt>
      <trkpt lat="43.97083" lon="5.11837">
        <ele>372.6</ele>
        <time>2013-03-07T17:09:58Z</time>
      </trkpt>
      <trkpt lat="43.97089" lon="5.11836">
        <ele>372.5</ele>
        <time>2013-03-07T17:09:59Z</time>
      </trkpt>
      <trkpt lat="43.97095" lon="5.11837">
        <ele>373</ele>
        <time>2013-03-07T17:10:00Z</time>
      </trkpt>
      <trkpt lat="43.97101" lon="5.11837">
        <ele>372.9</ele>
        <time>2013-03-07T17:10:01Z</time>
      </trkpt>
      <trkpt lat="43.97109" lon="5.11839">
        <ele>373.1</ele>
        <time>2013-03-07T17:10:02Z</time>
      </trkpt>
      <trkpt lat="43.97115" lon="5.11837">
        <ele>373.5</ele>
        <time>2013-03-07T17:10:03Z</time>
      </trkpt>
      <trkpt lat="43.97121" lon="5.11838">
        <ele>373.6</ele>
        <time>2013-03-07T17:10:04Z</time>
      </trkpt>
      <trkpt lat="43.97125" lon="5.11833">
        <ele>374.3</ele>
        <time>2013-03-07T17:10:05Z</time>
      </trkpt>
      <trkpt lat="43.97129" lon="5.1183">
        <ele>374.1</ele>
        <time>2013-03-07T17:10:06Z</time>
      </trkpt>
      <trkpt lat="43.97132" lon="5.11827">
        <ele>374.2</ele>
        <time>2013-03-07T17:10:07Z</time>
      </trkpt>
      <trkpt lat="43.97133" lon="5.11824">
        <ele>374.6</ele>
        <time>2013-03-07T17:10:08Z</time>
      </trkpt>
      <trkpt lat="43.97134" lon="5.1182">
        <ele>374</ele>
        <time>2013-03-07T17:10:09Z</time>
      </trkpt>
      <trkpt lat="43.97135" lon="5.11815">
        <ele>373.4</ele>
        <time>2013-03-07T17:10:10Z</time>
      </trkpt>
      <trkpt lat="43.97136" lon="5.1181">
        <ele>373.4</ele>
        <time>2013-03-07T17:10:11Z</time>
      </trkpt>
      <trkpt lat="43.97138" lon="5.11804">
        <ele>372.3</ele>
        <time>2013-03-07T17:10:12Z</time>
      </trkpt>
      <trkpt lat="43.97141" lon="5.118">
        <ele>371.9</ele>
        <time>2013-03-07T17:10:13Z</time>
      </trkpt>
      <trkpt lat="43.97143" lon="5.11794">
        <ele>371</ele>
        <time>2013-03-07T17:10:14Z</time>
      </trkpt>
      <trkpt lat="43.97143" lon="5.1179">
        <ele>370.5</ele>
        <time>2013-03-07T17:10:15Z</time>
      </trkpt>
      <trkpt lat="43.97145" lon="5.11787">
        <ele>369.9</ele>
        <time>2013-03-07T17:10:16Z</time>
      </trkpt>
      <trkpt lat="43.97146" lon="5.11783">
        <ele>369.8</ele>
        <time>2013-03-07T17:10:17Z</time>
      </trkpt>
      <trkpt lat="43.97149" lon="5.1178">
        <ele>370.1</ele>
        <time>2013-03-07T17:10:18Z</time>
      </trkpt>
      <trkpt lat="43.97153" lon="5.11778">
        <ele>370.2</ele>
        <time>2013-03-07T17:10:19Z</time>
      </trkpt>
      <trkpt lat="43.97159" lon="5.11776">
        <ele>370.6</ele>
        <time>2013-03-07T17:10:20Z</time>
      </trkpt>
      <trkpt lat="43.97165" lon="5.11774">
        <ele>370.1</ele>
        <time>2013-03-07T17:10:21Z</time>
      </trkpt>
      <trkpt lat="43.9717" lon="5.11773">
        <ele>370.1</ele>
        <time>2013-03-07T17:10:22Z</time>
      </trkpt>
      <trkpt lat="43.97178" lon="5.11771">
        <ele>370.8</ele>
        <time>2013-03-07T17:10:23Z</time>
      </trkpt>
      <trkpt lat="43.97184" lon="5.1177">
        <ele>370.4</ele>
        <time>2013-03-07T17:10:24Z</time>
      </trkpt>
      <trkpt lat="43.97189" lon="5.11768">
        <ele>371.2</ele>
        <time>2013-03-07T17:10:25Z</time>
      </trkpt>
      <trkpt lat="43.97196" lon="5.11767">
        <ele>371.6</ele>
        <time>2013-03-07T17:10:26Z</time>
      </trkpt>
      <trkpt lat="43.97203" lon="5.11762">
        <ele>371.9</ele>
        <time>2013-03-07T17:10:27Z</time>
      </trkpt>
      <trkpt lat="43.97211" lon="5.11757">
        <ele>371.4</ele>
        <time>2013-03-07T17:10:28Z</time>
      </trkpt>
      <trkpt lat="43.97218" lon="5.11751">
        <ele>371.9</ele>
        <time>2013-03-07T17:10:29Z</time>
      </trkpt>
      <trkpt lat="43.97225" lon="5.11746">
        <ele>371.7</ele>
        <time>2013-03-07T17:10:30Z</time>
      </trkpt>
      <trkpt lat="43.97232" lon="5.1174">
        <ele>371.3</ele>
        <time>2013-03-07T17:10:31Z</time>
      </trkpt>
      <trkpt lat="43.9724" lon="5.11735">
        <ele>371</ele>
        <time>2013-03-07T17:10:32Z</time>
      </trkpt>
      <trkpt lat="43.97247" lon="5.1173">
        <ele>370.8</ele>
        <time>2013-03-07T17:10:33Z</time>
      </trkpt>
      <trkpt lat="43.97251" lon="5.11725">
        <ele>370.4</ele>
        <time>2013-03-07T17:10:34Z</time>
      </trkpt>
      <trkpt lat="43.97255" lon="5.11719">
        <ele>370.4</ele>
        <time>2013-03-07T17:10:35Z</time>
      </trkpt>
      <trkpt lat="43.97258" lon="5.1171">
        <ele>369.4</ele>
        <time>2013-03-07T17:10:36Z</time>
      </trkpt>
      <trkpt lat="43.97261" lon="5.11702">
        <ele>367.7</ele>
        <time>2013-03-07T17:10:37Z</time>
      </trkpt>
      <trkpt lat="43.97264" lon="5.11696">
        <ele>367.1</ele>
        <time>2013-03-07T17:10:38Z</time>
      </trkpt>
      <trkpt lat="43.97267" lon="5.11691">
        <ele>367.1</ele>
        <time>2013-03-07T17:10:39Z</time>
      </trkpt>
      <trkpt lat="43.97272" lon="5.11686">
        <ele>367</ele>
        <time>2013-03-07T17:10:40Z</time>
      </trkpt>
      <trkpt lat="43.97278" lon="5.11684">
        <ele>366.6</ele>
        <time>2013-03-07T17:10:41Z</time>
      </trkpt>
      <trkpt lat="43.97284" lon="5.11679">
        <ele>366.1</ele>
        <time>2013-03-07T17:10:42Z</time>
      </trkpt>
      <trkpt lat="43.97291" lon="5.11674">
        <ele>365.2</ele>
        <time>2013-03-07T17:10:43Z</time>
      </trkpt>
      <trkpt lat="43.97299" lon="5.11668">
        <ele>364.9</ele>
        <time>2013-03-07T17:10:44Z</time>
      </trkpt>
      <trkpt lat="43.97308" lon="5.11662">
        <ele>364.9</ele>
        <time>2013-03-07T17:10:45Z</time>
      </trkpt>
      <trkpt lat="43.97316" lon="5.11654">
        <ele>363.6</ele>
        <time>2013-03-07T17:10:46Z</time>
      </trkpt>
      <trkpt lat="43.97322" lon="5.11646">
        <ele>363.3</ele>
        <time>2013-03-07T17:10:47Z</time>
      </trkpt>
      <trkpt lat="43.97329" lon="5.11641">
        <ele>363.3</ele>
        <time>2013-03-07T17:10:48Z</time>
      </trkpt>
      <trkpt lat="43.97337" lon="5.11635">
        <ele>362.6</ele>
        <time>2013-03-07T17:10:49Z</time>
      </trkpt>
      <trkpt lat="43.97342" lon="5.1163">
        <ele>362.3</ele>
        <time>2013-03-07T17:10:50Z</time>
      </trkpt>
      <trkpt lat="43.97351" lon="5.11625">
        <ele>362.6</ele>
        <time>2013-03-07T17:10:51Z</time>
      </trkpt>
      <trkpt lat="43.9736" lon="5.11617">
        <ele>361.9</ele>
        <time>2013-03-07T17:10:52Z</time>
      </trkpt>
      <trkpt lat="43.97369" lon="5.1161">
        <ele>360.8</ele>
        <time>2013-03-07T17:10:53Z</time>
      </trkpt>
      <trkpt lat="43.97378" lon="5.11604">
        <ele>360.8</ele>
        <time>2013-03-07T17:10:54Z</time>
      </trkpt>
      <trkpt lat="43.97384" lon="5.11597">
        <ele>360.3</ele>
        <time>2013-03-07T17:10:55Z</time>
      </trkpt>
      <trkpt lat="43.97393" lon="5.11594">
        <ele>360</ele>
        <time>2013-03-07T17:10:56Z</time>
      </trkpt>
      <trkpt lat="43.974" lon="5.11593">
        <ele>359.3</ele>
        <time>2013-03-07T17:10:57Z</time>
      </trkpt>
      <trkpt lat="43.97409" lon="5.1159">
        <ele>358.9</ele>
        <time>2013-03-07T17:10:58Z</time>
      </trkpt>
      <trkpt lat="43.97417" lon="5.11587">
        <ele>358.7</ele>
        <time>2013-03-07T17:10:59Z</time>
      </trkpt>
      <trkpt lat="43.97427" lon="5.11584">
        <ele>358.5</ele>
        <time>2013-03-07T17:11:00Z</time>
      </trkpt>
      <trkpt lat="43.97437" lon="5.11584">
        <ele>357.9</ele>
        <time>2013-03-07T17:11:01Z</time>
      </trkpt>
      <trkpt lat="43.97447" lon="5.11585">
        <ele>356.6</ele>
        <time>2013-03-07T17:11:02Z</time>
      </trkpt>
      <trkpt lat="43.97458" lon="5.11585">
        <ele>356.9</ele>
        <time>2013-03-07T17:11:03Z</time>
      </trkpt>
      <trkpt lat="43.97469" lon="5.11583">
        <ele>356.4</ele>
        <time>2013-03-07T17:11:04Z</time>
      </trkpt>
      <trkpt lat="43.97478" lon="5.11582">
        <ele>356.1</ele>
        <time>2013-03-07T17:11:05Z</time>
      </trkpt>
      <trkpt lat="43.97486" lon="5.11586">
        <ele>355.1</ele>
        <time>2013-03-07T17:11:06Z</time>
      </trkpt>
      <trkpt lat="43.97496" lon="5.11588">
        <ele>355</ele>
        <time>2013-03-07T17:11:07Z</time>
      </trkpt>
      <trkpt lat="43.97505" lon="5.11591">
        <ele>354.2</ele>
        <time>2013-03-07T17:11:08Z</time>
      </trkpt>
      <trkpt lat="43.97513" lon="5.11594">
        <ele>352.6</ele>
        <time>2013-03-07T17:11:09Z</time>
      </trkpt>
      <trkpt lat="43.97522" lon="5.11595">
        <ele>352</ele>
        <time>2013-03-07T17:11:10Z</time>
      </trkpt>
      <trkpt lat="43.97529" lon="5.11594">
        <ele>350.8</ele>
        <time>2013-03-07T17:11:11Z</time>
      </trkpt>
      <trkpt lat="43.97539" lon="5.11591">
        <ele>350.3</ele>
        <time>2013-03-07T17:11:12Z</time>
      </trkpt>
      <trkpt lat="43.9755" lon="5.11592">
        <ele>350.8</ele>
        <time>2013-03-07T17:11:13Z</time>
      </trkpt>
      <trkpt lat="43.97559" lon="5.11591">
        <ele>350.4</ele>
        <time>2013-03-07T17:11:14Z</time>
      </trkpt>
      <trkpt lat="43.97568" lon="5.11587">
        <ele>350.1</ele>
        <time>2013-03-07T17:11:15Z</time>
      </trkpt>
      <trkpt lat="43.97578" lon="5.11588">
        <ele>349.5</ele>
        <time>2013-03-07T17:11:16Z</time>
      </trkpt>
      <trkpt lat="43.97589" lon="5.11588">
        <ele>349.1</ele>
        <time>2013-03-07T17:11:17Z</time>
      </trkpt>
      <trkpt lat="43.97599" lon="5.11581">
        <ele>346.5</ele>
        <time>2013-03-07T17:11:18Z</time>
      </trkpt>
      <trkpt lat="43.97608" lon="5.11579">
        <ele>346.4</ele>
        <time>2013-03-07T17:11:19Z</time>
      </trkpt>
      <trkpt lat="43.97619" lon="5.11578">
        <ele>346.7</ele>
        <time>2013-03-07T17:11:20Z</time>
      </trkpt>
      <trkpt lat="43.9763" lon="5.11575">
        <ele>346</ele>
        <time>2013-03-07T17:11:21Z</time>
      </trkpt>
      <trkpt lat="43.97639" lon="5.1157">
        <ele>345.7</ele>
        <time>2013-03-07T17:11:22Z</time>
      </trkpt>
      <trkpt lat="43.97647" lon="5.11565">
        <ele>344.8</ele>
        <time>2013-03-07T17:11:23Z</time>
      </trkpt>
      <trkpt lat="43.97656" lon="5.11563">
        <ele>344.5</ele>
        <time>2013-03-07T17:11:24Z</time>
      </trkpt>
      <trkpt lat="43.97666" lon="5.1156">
        <ele>344.2</ele>
        <time>2013-03-07T17:11:25Z</time>
      </trkpt>
      <trkpt lat="43.97675" lon="5.11557">
        <ele>343.6</ele>
        <time>2013-03-07T17:11:26Z</time>
      </trkpt>
      <trkpt lat="43.97682" lon="5.11551">
        <ele>341.9</ele>
        <time>2013-03-07T17:11:27Z</time>
      </trkpt>
      <trkpt lat="43.9769" lon="5.11547">
        <ele>339.9</ele>
        <time>2013-03-07T17:11:28Z</time>
      </trkpt>
      <trkpt lat="43.97698" lon="5.11545">
        <ele>339.2</ele>
        <time>2013-03-07T17:11:29Z</time>
      </trkpt>
      <trkpt lat="43.97706" lon="5.1154">
        <ele>335.6</ele>
        <time>2013-03-07T17:11:30Z</time>
      </trkpt>
      <trkpt lat="43.97714" lon="5.11537">
        <ele>334.8</ele>
        <time>2013-03-07T17:11:31Z</time>
      </trkpt>
      <trkpt lat="43.97722" lon="5.11536">
        <ele>334.1</ele>
        <time>2013-03-07T17:11:32Z</time>
      </trkpt>
      <trkpt lat="43.9773" lon="5.11534">
        <ele>333.4</ele>
        <time>2013-03-07T17:11:33Z</time>
      </trkpt>
      <trkpt lat="43.97737" lon="5.11531">
        <ele>332.6</ele>
        <time>2013-03-07T17:11:34Z</time>
      </trkpt>
      <trkpt lat="43.97744" lon="5.11528">
        <ele>332.5</ele>
        <time>2013-03-07T17:11:35Z</time>
      </trkpt>
      <trkpt lat="43.97752" lon="5.11527">
        <ele>332.5</ele>
        <time>2013-03-07T17:11:36Z</time>
      </trkpt>
      <trkpt lat="43.97759" lon="5.11525">
        <ele>332.2</ele>
        <time>2013-03-07T17:11:37Z</time>
      </trkpt>
      <trkpt lat="43.97765" lon="5.11527">
        <ele>332.1</ele>
        <time>2013-03-07T17:11:38Z</time>
      </trkpt>
      <trkpt lat="43.97771" lon="5.11528">
        <ele>331.8</ele>
        <time>2013-03-07T17:11:39Z</time>
      </trkpt>
      <trkpt lat="43.97778" lon="5.11529">
        <ele>331.6</ele>
        <time>2013-03-07T17:11:40Z</time>
      </trkpt>
      <trkpt lat="43.97786" lon="5.11531">
        <ele>331.8</ele>
        <time>2013-03-07T17:11:41Z</time>
      </trkpt>
      <trkpt lat="43.97793" lon="5.11537">
        <ele>331.7</ele>
        <time>2013-03-07T17:11:42Z</time>
      </trkpt>
      <trkpt lat="43.97806" lon="5.11548">
        <ele>332</ele>
        <time>2013-03-07T17:11:43Z</time>
      </trkpt>
      <trkpt lat="43.97819" lon="5.11567">
        <ele>332.9</ele>
        <time>2013-03-07T17:11:44Z</time>
      </trkpt>
      <trkpt lat="43.97842" lon="5.11601">
        <ele>334</ele>
        <time>2013-03-07T17:11:45Z</time>
      </trkpt>
      <trkpt lat="43.97853" lon="5.11612">
        <ele>335.9</ele>
        <time>2013-03-07T17:11:46Z</time>
      </trkpt>
      <trkpt lat="43.97863" lon="5.11608">
        <ele>336.4</ele>
        <time>2013-03-07T17:11:47Z</time>
      </trkpt>
      <trkpt lat="43.97869" lon="5.11603">
        <ele>336.7</ele>
        <time>2013-03-07T17:11:48Z</time>
      </trkpt>
      <trkpt lat="43.9788" lon="5.11598">
        <ele>334.9</ele>
        <time>2013-03-07T17:11:49Z</time>
      </trkpt>
      <trkpt lat="43.9789" lon="5.11601">
        <ele>334.4</ele>
        <time>2013-03-07T17:11:50Z</time>
      </trkpt>
      <trkpt lat="43.97894" lon="5.11604">
        <ele>334.6</ele>
        <time>2013-03-07T17:11:51Z</time>
      </trkpt>
      <trkpt lat="43.97903" lon="5.11608">
        <ele>334.8</ele>
        <time>2013-03-07T17:11:52Z</time>
      </trkpt>
      <trkpt lat="43.97908" lon="5.11613">
        <ele>335.3</ele>
        <time>2013-03-07T17:11:53Z</time>
      </trkpt>
      <trkpt lat="43.97915" lon="5.11617">
        <ele>335.7</ele>
        <time>2013-03-07T17:11:54Z</time>
      </trkpt>
      <trkpt lat="43.97914" lon="5.11607">
        <ele>336.3</ele>
        <time>2013-03-07T17:11:55Z</time>
      </trkpt>
      <trkpt lat="43.97905" lon="5.11603">
        <ele>336.3</ele>
        <time>2013-03-07T17:11:56Z</time>
      </trkpt>
      <trkpt lat="43.97905" lon="5.11578">
        <ele>336.7</ele>
        <time>2013-03-07T17:11:57Z</time>
      </trkpt>
      <trkpt lat="43.97921" lon="5.11562">
        <ele>336.4</ele>
        <time>2013-03-07T17:11:58Z</time>
      </trkpt>
      <trkpt lat="43.97929" lon="5.11549">
        <ele>336.8</ele>
        <time>2013-03-07T17:11:59Z</time>
      </trkpt>
      <trkpt lat="43.97937" lon="5.11538">
        <ele>336.8</ele>
        <time>2013-03-07T17:12:00Z</time>
      </trkpt>
      <trkpt lat="43.97943" lon="5.11528">
        <ele>336.8</ele>
        <time>2013-03-07T17:12:01Z</time>
      </trkpt>
      <trkpt lat="43.97952" lon="5.11522">
        <ele>336.4</ele>
        <time>2013-03-07T17:12:02Z</time>
      </trkpt>
      <trkpt lat="43.97957" lon="5.11517">
        <ele>335</ele>
        <time>2013-03-07T17:12:03Z</time>
      </trkpt>
      <trkpt lat="43.97961" lon="5.11513">
        <ele>334.3</ele>
        <time>2013-03-07T17:12:04Z</time>
      </trkpt>
      <trkpt lat="43.97969" lon="5.1151">
        <ele>333.4</ele>
        <time>2013-03-07T17:12:05Z</time>
      </trkpt>
      <trkpt lat="43.97977" lon="5.1151">
        <ele>332.8</ele>
        <time>2013-03-07T17:12:06Z</time>
      </trkpt>
      <trkpt lat="43.97982" lon="5.1151">
        <ele>330.6</ele>
        <time>2013-03-07T17:12:07Z</time>
      </trkpt>
      <trkpt lat="43.97989" lon="5.11511">
        <ele>329.3</ele>
        <time>2013-03-07T17:12:08Z</time>
      </trkpt>
      <trkpt lat="43.97998" lon="5.1151">
        <ele>327.6</ele>
        <time>2013-03-07T17:12:09Z</time>
      </trkpt>
      <trkpt lat="43.98006" lon="5.11509">
        <ele>326.9</ele>
        <time>2013-03-07T17:12:10Z</time>
      </trkpt>
      <trkpt lat="43.98012" lon="5.11509">
        <ele>325.2</ele>
        <time>2013-03-07T17:12:11Z</time>
      </trkpt>
      <trkpt lat="43.9802" lon="5.11506">
        <ele>324.4</ele>
        <time>2013-03-07T17:12:12Z</time>
      </trkpt>
      <trkpt lat="43.98029" lon="5.11503">
        <ele>324.1</ele>
        <time>2013-03-07T17:12:13Z</time>
      </trkpt>
      <trkpt lat="43.98038" lon="5.11501">
        <ele>323</ele>
        <time>2013-03-07T17:12:14Z</time>
      </trkpt>
      <trkpt lat="43.98048" lon="5.115">
        <ele>321.5</ele>
        <time>2013-03-07T17:12:15Z</time>
      </trkpt>
      <trkpt lat="43.98057" lon="5.11498">
        <ele>321.4</ele>
        <time>2013-03-07T17:12:16Z</time>
      </trkpt>
      <trkpt lat="43.98067" lon="5.11498">
        <ele>321</ele>
        <time>2013-03-07T17:12:17Z</time>
      </trkpt>
      <trkpt lat="43.98077" lon="5.11498">
        <ele>320.7</ele>
        <time>2013-03-07T17:12:18Z</time>
      </trkpt>
      <trkpt lat="43.98086" lon="5.11497">
        <ele>320.2</ele>
        <time>2013-03-07T17:12:19Z</time>
      </trkpt>
      <trkpt lat="43.98098" lon="5.11496">
        <ele>319.9</ele>
        <time>2013-03-07T17:12:20Z</time>
      </trkpt>
      <trkpt lat="43.98112" lon="5.11496">
        <ele>319.3</ele>
        <time>2013-03-07T17:12:21Z</time>
      </trkpt>
      <trkpt lat="43.98121" lon="5.11493">
        <ele>319.6</ele>
        <time>2013-03-07T17:12:22Z</time>
      </trkpt>
      <trkpt lat="43.98132" lon="5.11495">
        <ele>319.3</ele>
        <time>2013-03-07T17:12:23Z</time>
      </trkpt>
      <trkpt lat="43.98141" lon="5.11498">
        <ele>319.1</ele>
        <time>2013-03-07T17:12:24Z</time>
      </trkpt>
      <trkpt lat="43.98149" lon="5.11497">
        <ele>319.3</ele>
        <time>2013-03-07T17:12:25Z</time>
      </trkpt>
      <trkpt lat="43.98157" lon="5.11503">
        <ele>319.1</ele>
        <time>2013-03-07T17:12:26Z</time>
      </trkpt>
      <trkpt lat="43.98166" lon="5.11507">
        <ele>319.2</ele>
        <time>2013-03-07T17:12:27Z</time>
      </trkpt>
      <trkpt lat="43.98173" lon="5.11516">
        <ele>319.1</ele>
        <time>2013-03-07T17:12:28Z</time>
      </trkpt>
      <trkpt lat="43.98178" lon="5.11521">
        <ele>319.1</ele>
        <time>2013-03-07T17:12:29Z</time>
      </trkpt>
      <trkpt lat="43.98185" lon="5.11526">
        <ele>318.9</ele>
        <time>2013-03-07T17:12:30Z</time>
      </trkpt>
      <trkpt lat="43.98193" lon="5.11531">
        <ele>318.7</ele>
        <time>2013-03-07T17:12:31Z</time>
      </trkpt>
      <trkpt lat="43.98202" lon="5.11533">
        <ele>318.6</ele>
        <time>2013-03-07T17:12:32Z</time>
      </trkpt>
      <trkpt lat="43.9821" lon="5.11536">
        <ele>318.4</ele>
        <time>2013-03-07T17:12:33Z</time>
      </trkpt>
      <trkpt lat="43.98219" lon="5.11539">
        <ele>318.3</ele>
        <time>2013-03-07T17:12:34Z</time>
      </trkpt>
      <trkpt lat="43.98226" lon="5.1154">
        <ele>317.8</ele>
        <time>2013-03-07T17:12:35Z</time>
      </trkpt>
      <trkpt lat="43.98232" lon="5.11541">
        <ele>317.9</ele>
        <time>2013-03-07T17:12:36Z</time>
      </trkpt>
      <trkpt lat="43.98239" lon="5.11543">
        <ele>317.6</ele>
        <time>2013-03-07T17:12:37Z</time>
      </trkpt>
      <trkpt lat="43.98246" lon="5.11548">
        <ele>317.3</ele>
        <time>2013-03-07T17:12:38Z</time>
      </trkpt>
      <trkpt lat="43.98253" lon="5.11552">
        <ele>316.9</ele>
        <time>2013-03-07T17:12:39Z</time>
      </trkpt>
      <trkpt lat="43.98257" lon="5.11559">
        <ele>316.6</ele>
        <time>2013-03-07T17:12:40Z</time>
      </trkpt>
      <trkpt lat="43.9826" lon="5.11565">
        <ele>316.6</ele>
        <time>2013-03-07T17:12:41Z</time>
      </trkpt>
      <trkpt lat="43.98262" lon="5.11571">
        <ele>316.1</ele>
        <time>2013-03-07T17:12:42Z</time>
      </trkpt>
      <trkpt lat="43.98263" lon="5.11576">
        <ele>315.5</ele>
        <time>2013-03-07T17:12:43Z</time>
      </trkpt>
      <trkpt lat="43.98265" lon="5.1158">
        <ele>315</ele>
        <time>2013-03-07T17:12:44Z</time>
      </trkpt>
      <trkpt lat="43.98268" lon="5.11585">
        <ele>314.7</ele>
        <time>2013-03-07T17:12:45Z</time>
      </trkpt>
      <trkpt lat="43.9827" lon="5.11589">
        <ele>313.8</ele>
        <time>2013-03-07T17:12:46Z</time>
      </trkpt>
      <trkpt lat="43.98273" lon="5.11593">
        <ele>313.3</ele>
        <time>2013-03-07T17:12:47Z</time>
      </trkpt>
      <trkpt lat="43.98275" lon="5.11596">
        <ele>310.3</ele>
        <time>2013-03-07T17:12:49Z</time>
      </trkpt>
      <trkpt lat="43.98279" lon="5.11599">
        <ele>308.9</ele>
        <time>2013-03-07T17:12:50Z</time>
      </trkpt>
      <trkpt lat="43.98283" lon="5.11602">
        <ele>308.1</ele>
        <time>2013-03-07T17:12:51Z</time>
      </trkpt>
      <trkpt lat="43.98288" lon="5.11605">
        <ele>307.8</ele>
        <time>2013-03-07T17:12:52Z</time>
      </trkpt>
      <trkpt lat="43.98291" lon="5.11607">
        <ele>307.6</ele>
        <time>2013-03-07T17:12:53Z</time>
      </trkpt>
      <trkpt lat="43.98294" lon="5.11611">
        <ele>307.4</ele>
        <time>2013-03-07T17:12:54Z</time>
      </trkpt>
      <trkpt lat="43.983" lon="5.11616">
        <ele>307.3</ele>
        <time>2013-03-07T17:12:55Z</time>
      </trkpt>
      <trkpt lat="43.98304" lon="5.1162">
        <ele>307</ele>
        <time>2013-03-07T17:12:56Z</time>
      </trkpt>
      <trkpt lat="43.98308" lon="5.11627">
        <ele>306.5</ele>
        <time>2013-03-07T17:12:57Z</time>
      </trkpt>
      <trkpt lat="43.98315" lon="5.11632">
        <ele>306.2</ele>
        <time>2013-03-07T17:12:58Z</time>
      </trkpt>
      <trkpt lat="43.98319" lon="5.11638">
        <ele>306.2</ele>
        <time>2013-03-07T17:12:59Z</time>
      </trkpt>
      <trkpt lat="43.98324" lon="5.11644">
        <ele>305.9</ele>
        <time>2013-03-07T17:13:00Z</time>
      </trkpt>
      <trkpt lat="43.98329" lon="5.11651">
        <ele>304.8</ele>
        <time>2013-03-07T17:13:01Z</time>
      </trkpt>
      <trkpt lat="43.98332" lon="5.11658">
        <ele>304.4</ele>
        <time>2013-03-07T17:13:02Z</time>
      </trkpt>
      <trkpt lat="43.98336" lon="5.11663">
        <ele>304.2</ele>
        <time>2013-03-07T17:13:03Z</time>
      </trkpt>
      <trkpt lat="43.9834" lon="5.11668">
        <ele>303.6</ele>
        <time>2013-03-07T17:13:04Z</time>
      </trkpt>
      <trkpt lat="43.98344" lon="5.11674">
        <ele>302.9</ele>
        <time>2013-03-07T17:13:05Z</time>
      </trkpt>
      <trkpt lat="43.98348" lon="5.11682">
        <ele>302.2</ele>
        <time>2013-03-07T17:13:06Z</time>
      </trkpt>
      <trkpt lat="43.98353" lon="5.11686">
        <ele>300.4</ele>
        <time>2013-03-07T17:13:07Z</time>
      </trkpt>
      <trkpt lat="43.98356" lon="5.11691">
        <ele>299.3</ele>
        <time>2013-03-07T17:13:08Z</time>
      </trkpt>
      <trkpt lat="43.98361" lon="5.11697">
        <ele>298.1</ele>
        <time>2013-03-07T17:13:09Z</time>
      </trkpt>
      <trkpt lat="43.98365" lon="5.11702">
        <ele>296.8</ele>
        <time>2013-03-07T17:13:10Z</time>
      </trkpt>
      <trkpt lat="43.98369" lon="5.1171">
        <ele>295.4</ele>
        <time>2013-03-07T17:13:11Z</time>
      </trkpt>
      <trkpt lat="43.98375" lon="5.11713">
        <ele>294.2</ele>
        <time>2013-03-07T17:13:12Z</time>
      </trkpt>
      <trkpt lat="43.9838" lon="5.11716">
        <ele>293</ele>
        <time>2013-03-07T17:13:13Z</time>
      </trkpt>
      <trkpt lat="43.98383" lon="5.11721">
        <ele>292.7</ele>
        <time>2013-03-07T17:13:14Z</time>
      </trkpt>
      <trkpt lat="43.98387" lon="5.11725">
        <ele>292.3</ele>
        <time>2013-03-07T17:13:15Z</time>
      </trkpt>
      <trkpt lat="43.98393" lon="5.1173">
        <ele>291.8</ele>
        <time>2013-03-07T17:13:16Z</time>
      </trkpt>
      <trkpt lat="43.98397" lon="5.11735">
        <ele>291.6</ele>
        <time>2013-03-07T17:13:17Z</time>
      </trkpt>
      <trkpt lat="43.98401" lon="5.1174">
        <ele>291.6</ele>
        <time>2013-03-07T17:13:18Z</time>
      </trkpt>
      <trkpt lat="43.98404" lon="5.11745">
        <ele>290.8</ele>
        <time>2013-03-07T17:13:19Z</time>
      </trkpt>
      <trkpt lat="43.98408" lon="5.11751">
        <ele>290.6</ele>
        <time>2013-03-07T17:13:20Z</time>
      </trkpt>
      <trkpt lat="43.9841" lon="5.11758">
        <ele>290.1</ele>
        <time>2013-03-07T17:13:21Z</time>
      </trkpt>
      <trkpt lat="43.98411" lon="5.11763">
        <ele>289.9</ele>
        <time>2013-03-07T17:13:22Z</time>
      </trkpt>
      <trkpt lat="43.98413" lon="5.11771">
        <ele>289.6</ele>
        <time>2013-03-07T17:13:23Z</time>
      </trkpt>
      <trkpt lat="43.98413" lon="5.11777">
        <ele>289</ele>
        <time>2013-03-07T17:13:24Z</time>
      </trkpt>
      <trkpt lat="43.98413" lon="5.11779">
        <ele>289.2</ele>
        <time>2013-03-07T17:13:25Z</time>
      </trkpt>
      <trkpt lat="43.98411" lon="5.11784">
        <ele>289.4</ele>
        <time>2013-03-07T17:13:26Z</time>
      </trkpt>
      <trkpt lat="43.9841" lon="5.11788">
        <ele>288.8</ele>
        <time>2013-03-07T17:13:27Z</time>
      </trkpt>
      <trkpt lat="43.98408" lon="5.11792">
        <ele>288.4</ele>
        <time>2013-03-07T17:13:28Z</time>
      </trkpt>
      <trkpt lat="43.98408" lon="5.11796">
        <ele>287.8</ele>
        <time>2013-03-07T17:13:29Z</time>
      </trkpt>
      <trkpt lat="43.98405" lon="5.11798">
        <ele>287.5</ele>
        <time>2013-03-07T17:13:30Z</time>
      </trkpt>
      <trkpt lat="43.98402" lon="5.118">
        <ele>287.6</ele>
        <time>2013-03-07T17:13:31Z</time>
      </trkpt>
      <trkpt lat="43.98401" lon="5.11803">
        <ele>287.4</ele>
        <time>2013-03-07T17:13:32Z</time>
      </trkpt>
      <trkpt lat="43.98399" lon="5.11806">
        <ele>286.9</ele>
        <time>2013-03-07T17:13:33Z</time>
      </trkpt>
      <trkpt lat="43.98397" lon="5.1181">
        <ele>286</ele>
        <time>2013-03-07T17:13:35Z</time>
      </trkpt>
      <trkpt lat="43.98395" lon="5.11811">
        <ele>286.1</ele>
        <time>2013-03-07T17:13:36Z</time>
      </trkpt>
      <trkpt lat="43.98391" lon="5.11812">
        <ele>285.7</ele>
        <time>2013-03-07T17:13:37Z</time>
      </trkpt>
      <trkpt lat="43.98389" lon="5.11814">
        <ele>285.3</ele>
        <time>2013-03-07T17:13:38Z</time>
      </trkpt>
      <trkpt lat="43.98388" lon="5.11816">
        <ele>285.5</ele>
        <time>2013-03-07T17:13:39Z</time>
      </trkpt>
      <trkpt lat="43.98384" lon="5.11817">
        <ele>286.1</ele>
        <time>2013-03-07T17:13:40Z</time>
      </trkpt>
      <trkpt lat="43.98381" lon="5.11819">
        <ele>286.3</ele>
        <time>2013-03-07T17:13:41Z</time>
      </trkpt>
      <trkpt lat="43.98379" lon="5.11822">
        <ele>286.5</ele>
        <time>2013-03-07T17:13:42Z</time>
      </trkpt>
      <trkpt lat="43.98375" lon="5.11825">
        <ele>286.8</ele>
        <time>2013-03-07T17:13:44Z</time>
      </trkpt>
      <trkpt lat="43.98374" lon="5.11826">
        <ele>287.1</ele>
        <time>2013-03-07T17:13:45Z</time>
      </trkpt>
      <trkpt lat="43.98372" lon="5.11829">
        <ele>287.7</ele>
        <time>2013-03-07T17:13:46Z</time>
      </trkpt>
      <trkpt lat="43.9837" lon="5.11831">
        <ele>288.2</ele>
        <time>2013-03-07T17:13:47Z</time>
      </trkpt>
      <trkpt lat="43.98368" lon="5.11833">
        <ele>288.5</ele>
        <time>2013-03-07T17:13:48Z</time>
      </trkpt>
      <trkpt lat="43.98366" lon="5.11835">
        <ele>288.8</ele>
        <time>2013-03-07T17:13:49Z</time>
      </trkpt>
      <trkpt lat="43.98362" lon="5.11839">
        <ele>288.5</ele>
        <time>2013-03-07T17:13:51Z</time>
      </trkpt>
      <trkpt lat="43.9836" lon="5.11841">
        <ele>288.3</ele>
        <time>2013-03-07T17:13:52Z</time>
      </trkpt>
      <trkpt lat="43.98358" lon="5.11845">
        <ele>288</ele>
        <time>2013-03-07T17:13:54Z</time>
      </trkpt>
      <trkpt lat="43.98356" lon="5.11845">
        <ele>288.1</ele>
        <time>2013-03-07T17:13:55Z</time>
      </trkpt>
      <trkpt lat="43.98353" lon="5.11849">
        <ele>288.7</ele>
        <time>2013-03-07T17:13:57Z</time>
      </trkpt>
      <trkpt lat="43.9835" lon="5.11849">
        <ele>288.6</ele>
        <time>2013-03-07T17:13:58Z</time>
      </trkpt>
      <trkpt lat="43.98348" lon="5.11852">
        <ele>288.6</ele>
        <time>2013-03-07T17:14:00Z</time>
      </trkpt>
      <trkpt lat="43.98347" lon="5.11855">
        <ele>288.3</ele>
        <time>2013-03-07T17:14:01Z</time>
      </trkpt>
      <trkpt lat="43.98343" lon="5.11857">
        <ele>287.6</ele>
        <time>2013-03-07T17:14:03Z</time>
      </trkpt>
      <trkpt lat="43.98341" lon="5.11858">
        <ele>286.9</ele>
        <time>2013-03-07T17:14:04Z</time>
      </trkpt>
      <trkpt lat="43.98338" lon="5.11861">
        <ele>287.5</ele>
        <time>2013-03-07T17:14:07Z</time>
      </trkpt>
      <trkpt lat="43.98337" lon="5.11864">
        <ele>287.9</ele>
        <time>2013-03-07T17:14:08Z</time>
      </trkpt>
      <trkpt lat="43.98335" lon="5.11868">
        <ele>287.1</ele>
        <time>2013-03-07T17:14:11Z</time>
      </trkpt>
      <trkpt lat="43.98334" lon="5.1187">
        <ele>287.2</ele>
        <time>2013-03-07T17:14:12Z</time>
      </trkpt>
      <trkpt lat="43.98333" lon="5.11875">
        <ele>288.3</ele>
        <time>2013-03-07T17:14:13Z</time>
      </trkpt>
      <trkpt lat="43.98333" lon="5.11877">
        <ele>288.8</ele>
        <time>2013-03-07T17:14:14Z</time>
      </trkpt>
      <trkpt lat="43.98331" lon="5.11881">
        <ele>289.2</ele>
        <time>2013-03-07T17:14:16Z</time>
      </trkpt>
      <trkpt lat="43.98331" lon="5.11883">
        <ele>289.5</ele>
        <time>2013-03-07T17:14:17Z</time>
      </trkpt>
      <trkpt lat="43.98332" lon="5.11889">
        <ele>290.8</ele>
        <time>2013-03-07T17:14:20Z</time>
      </trkpt>
      <trkpt lat="43.98333" lon="5.1189">
        <ele>290.7</ele>
        <time>2013-03-07T17:14:21Z</time>
      </trkpt>
      <trkpt lat="43.98335" lon="5.11896">
        <ele>292.2</ele>
        <time>2013-03-07T17:14:28Z</time>
      </trkpt>
      <trkpt lat="43.98336" lon="5.11896">
        <ele>292.8</ele>
        <time>2013-03-07T17:14:29Z</time>
      </trkpt>
      <trkpt lat="43.9834" lon="5.11895">
        <ele>297.4</ele>
        <time>2013-03-07T17:14:56Z</time>
      </trkpt>
      <trkpt lat="43.98341" lon="5.11894">
        <ele>297.9</ele>
        <time>2013-03-07T17:14:57Z</time>
      </trkpt>
      <trkpt lat="43.98338" lon="5.11893">
        <ele>298.1</ele>
        <time>2013-03-07T17:15:06Z</time>
      </trkpt>
    </trkseg>
  </trk>
</gpx>